<?xml version="1.0" encoding="utf-8" standalone="yes"?>
<gpx version="1.1" creator="Locus Map, Android"
 xmlns="http://www.topografix.com/GPX/1/1"
 xmlns:xsi="http://www.w3.org/2001/XMLSchema-instance"
 xsi:schemaLocation="http://www.topografix.com/GPX/1/1 http://www.topografix.com/GPX/1/1/gpx.xsd"
 xmlns:gpxx="http://www.garmin.com/xmlschemas/GpxExtensions/v3"
 xmlns:gpxtrkx="http://www.garmin.com/xmlschemas/TrackStatsExtension/v1"
 xmlns:gpxtpx="http://www.garmin.com/xmlschemas/TrackPointExtension/v2"
 xmlns:locus="http://www.locusmap.eu">
	<metadata>
		<desc>File with points/tracks from Locus Map Classic/3.70.15</desc>
		<time>2025-02-22T12:53:36.737Z</time>
	</metadata>
<trk>
<name>Rifugio Riella da Caslino d&apos;Erba</name>
	<extensions>
		<line xmlns="http://www.topografix.com/GPX/gpx_style/0/2">
			<color>0000FF</color>
			<opacity>0.59</opacity>
			<width>6.0</width>
			<extensions>
				<locus:lsColorBase>#960000FF</locus:lsColorBase>
				<locus:lsWidth>6.0</locus:lsWidth>
				<locus:lsUnits>PIXELS</locus:lsUnits>
			</extensions>
		</line>
	</extensions>
<trkseg>
<trkpt lat="45.8372530" lon="9.2270680">
	<ele>393.80</ele>
	<time>2025-02-15T06:47:04.000Z</time>
</trkpt>
<trkpt lat="45.8372530" lon="9.2270680">
	<ele>393.80</ele>
	<time>2025-02-15T06:47:05.000Z</time>
</trkpt>
<trkpt lat="45.8372530" lon="9.2270680">
	<ele>393.80</ele>
	<time>2025-02-15T06:47:06.000Z</time>
</trkpt>
<trkpt lat="45.8372530" lon="9.2270680">
	<ele>393.80</ele>
	<time>2025-02-15T06:47:07.000Z</time>
</trkpt>
<trkpt lat="45.8372500" lon="9.2270710">
	<ele>393.80</ele>
	<time>2025-02-15T06:47:08.000Z</time>
</trkpt>
<trkpt lat="45.8372400" lon="9.2270840">
	<ele>393.80</ele>
	<time>2025-02-15T06:47:09.000Z</time>
</trkpt>
<trkpt lat="45.8372330" lon="9.2270960">
	<ele>393.80</ele>
	<time>2025-02-15T06:47:10.000Z</time>
</trkpt>
<trkpt lat="45.8372300" lon="9.2271100">
	<ele>393.80</ele>
	<time>2025-02-15T06:47:11.000Z</time>
</trkpt>
<trkpt lat="45.8372240" lon="9.2271260">
	<ele>393.80</ele>
	<time>2025-02-15T06:47:12.000Z</time>
</trkpt>
<trkpt lat="45.8372180" lon="9.2271440">
	<ele>393.80</ele>
	<time>2025-02-15T06:47:13.000Z</time>
</trkpt>
<trkpt lat="45.8372060" lon="9.2271570">
	<ele>393.80</ele>
	<time>2025-02-15T06:47:14.000Z</time>
</trkpt>
<trkpt lat="45.8371920" lon="9.2271700">
	<ele>393.80</ele>
	<time>2025-02-15T06:47:15.000Z</time>
</trkpt>
<trkpt lat="45.8371850" lon="9.2271800">
	<ele>394.00</ele>
	<time>2025-02-15T06:47:16.000Z</time>
</trkpt>
<trkpt lat="45.8371740" lon="9.2271910">
	<ele>394.00</ele>
	<time>2025-02-15T06:47:17.000Z</time>
</trkpt>
<trkpt lat="45.8371670" lon="9.2272050">
	<ele>394.00</ele>
	<time>2025-02-15T06:47:18.000Z</time>
</trkpt>
<trkpt lat="45.8371670" lon="9.2272160">
	<ele>394.20</ele>
	<time>2025-02-15T06:47:19.000Z</time>
</trkpt>
<trkpt lat="45.8371690" lon="9.2272280">
	<ele>394.20</ele>
	<time>2025-02-15T06:47:20.000Z</time>
</trkpt>
<trkpt lat="45.8371790" lon="9.2272390">
	<ele>394.40</ele>
	<time>2025-02-15T06:47:21.000Z</time>
</trkpt>
<trkpt lat="45.8371900" lon="9.2272480">
	<ele>394.40</ele>
	<time>2025-02-15T06:47:22.000Z</time>
</trkpt>
<trkpt lat="45.8372030" lon="9.2272550">
	<ele>394.60</ele>
	<time>2025-02-15T06:47:23.000Z</time>
</trkpt>
<trkpt lat="45.8372130" lon="9.2272650">
	<ele>394.60</ele>
	<time>2025-02-15T06:47:24.000Z</time>
</trkpt>
<trkpt lat="45.8372200" lon="9.2272720">
	<ele>394.80</ele>
	<time>2025-02-15T06:47:25.000Z</time>
</trkpt>
<trkpt lat="45.8372290" lon="9.2272800">
	<ele>394.80</ele>
	<time>2025-02-15T06:47:26.000Z</time>
</trkpt>
<trkpt lat="45.8372410" lon="9.2272840">
	<ele>394.80</ele>
	<time>2025-02-15T06:47:27.000Z</time>
</trkpt>
<trkpt lat="45.8372540" lon="9.2272890">
	<ele>395.00</ele>
	<time>2025-02-15T06:47:28.000Z</time>
</trkpt>
<trkpt lat="45.8372660" lon="9.2272950">
	<ele>395.00</ele>
	<time>2025-02-15T06:47:29.000Z</time>
</trkpt>
<trkpt lat="45.8372790" lon="9.2273000">
	<ele>395.00</ele>
	<time>2025-02-15T06:47:30.000Z</time>
</trkpt>
<trkpt lat="45.8372940" lon="9.2273020">
	<ele>395.20</ele>
	<time>2025-02-15T06:47:31.000Z</time>
</trkpt>
<trkpt lat="45.8373060" lon="9.2273040">
	<ele>395.40</ele>
	<time>2025-02-15T06:47:32.000Z</time>
</trkpt>
<trkpt lat="45.8373190" lon="9.2273050">
	<ele>395.40</ele>
	<time>2025-02-15T06:47:33.000Z</time>
</trkpt>
<trkpt lat="45.8373300" lon="9.2273040">
	<ele>395.40</ele>
	<time>2025-02-15T06:47:34.000Z</time>
</trkpt>
<trkpt lat="45.8373420" lon="9.2273060">
	<ele>395.60</ele>
	<time>2025-02-15T06:47:35.000Z</time>
</trkpt>
<trkpt lat="45.8373540" lon="9.2273090">
	<ele>395.80</ele>
	<time>2025-02-15T06:47:36.000Z</time>
</trkpt>
<trkpt lat="45.8373680" lon="9.2273100">
	<ele>396.00</ele>
	<time>2025-02-15T06:47:37.000Z</time>
</trkpt>
<trkpt lat="45.8373790" lon="9.2273140">
	<ele>396.00</ele>
	<time>2025-02-15T06:47:38.000Z</time>
</trkpt>
<trkpt lat="45.8373930" lon="9.2273170">
	<ele>396.20</ele>
	<time>2025-02-15T06:47:39.000Z</time>
</trkpt>
<trkpt lat="45.8374080" lon="9.2273130">
	<ele>396.20</ele>
	<time>2025-02-15T06:47:40.000Z</time>
</trkpt>
<trkpt lat="45.8374260" lon="9.2273110">
	<ele>396.20</ele>
	<time>2025-02-15T06:47:41.000Z</time>
</trkpt>
<trkpt lat="45.8374390" lon="9.2273080">
	<ele>396.40</ele>
	<time>2025-02-15T06:47:42.000Z</time>
</trkpt>
<trkpt lat="45.8374550" lon="9.2273080">
	<ele>396.60</ele>
	<time>2025-02-15T06:47:43.000Z</time>
</trkpt>
<trkpt lat="45.8374680" lon="9.2273040">
	<ele>396.60</ele>
	<time>2025-02-15T06:47:44.000Z</time>
</trkpt>
<trkpt lat="45.8374750" lon="9.2273000">
	<ele>396.60</ele>
	<time>2025-02-15T06:47:45.000Z</time>
</trkpt>
<trkpt lat="45.8374840" lon="9.2272910">
	<ele>396.80</ele>
	<time>2025-02-15T06:47:46.000Z</time>
</trkpt>
<trkpt lat="45.8374920" lon="9.2272860">
	<ele>397.00</ele>
	<time>2025-02-15T06:47:47.000Z</time>
</trkpt>
<trkpt lat="45.8375030" lon="9.2272840">
	<ele>397.20</ele>
	<time>2025-02-15T06:47:48.000Z</time>
</trkpt>
<trkpt lat="45.8375150" lon="9.2272760">
	<ele>397.40</ele>
	<time>2025-02-15T06:47:49.000Z</time>
</trkpt>
<trkpt lat="45.8375270" lon="9.2272730">
	<ele>397.40</ele>
	<time>2025-02-15T06:47:50.000Z</time>
</trkpt>
<trkpt lat="45.8375280" lon="9.2272750">
	<ele>397.60</ele>
	<time>2025-02-15T06:47:51.000Z</time>
</trkpt>
<trkpt lat="45.8375340" lon="9.2272690">
	<ele>397.60</ele>
	<time>2025-02-15T06:47:52.000Z</time>
</trkpt>
<trkpt lat="45.8375390" lon="9.2272610">
	<ele>397.60</ele>
	<time>2025-02-15T06:47:53.000Z</time>
</trkpt>
<trkpt lat="45.8375570" lon="9.2272630">
	<ele>397.80</ele>
	<time>2025-02-15T06:47:54.000Z</time>
</trkpt>
<trkpt lat="45.8375740" lon="9.2272570">
	<ele>397.80</ele>
	<time>2025-02-15T06:47:55.000Z</time>
</trkpt>
<trkpt lat="45.8375900" lon="9.2272530">
	<ele>398.00</ele>
	<time>2025-02-15T06:47:56.000Z</time>
</trkpt>
<trkpt lat="45.8376110" lon="9.2272520">
	<ele>398.00</ele>
	<time>2025-02-15T06:47:57.000Z</time>
</trkpt>
<trkpt lat="45.8376290" lon="9.2272490">
	<ele>398.20</ele>
	<time>2025-02-15T06:47:58.000Z</time>
</trkpt>
<trkpt lat="45.8376440" lon="9.2272450">
	<ele>398.20</ele>
	<time>2025-02-15T06:47:59.000Z</time>
</trkpt>
<trkpt lat="45.8376580" lon="9.2272390">
	<ele>398.20</ele>
	<time>2025-02-15T06:48:00.000Z</time>
</trkpt>
<trkpt lat="45.8376750" lon="9.2272330">
	<ele>398.40</ele>
	<time>2025-02-15T06:48:01.000Z</time>
</trkpt>
<trkpt lat="45.8376910" lon="9.2272260">
	<ele>398.60</ele>
	<time>2025-02-15T06:48:02.000Z</time>
</trkpt>
<trkpt lat="45.8377050" lon="9.2272210">
	<ele>398.80</ele>
	<time>2025-02-15T06:48:03.000Z</time>
</trkpt>
<trkpt lat="45.8377220" lon="9.2272170">
	<ele>399.00</ele>
	<time>2025-02-15T06:48:04.000Z</time>
</trkpt>
<trkpt lat="45.8377320" lon="9.2272150">
	<ele>399.00</ele>
	<time>2025-02-15T06:48:05.000Z</time>
</trkpt>
<trkpt lat="45.8377430" lon="9.2272100">
	<ele>399.40</ele>
	<time>2025-02-15T06:48:06.000Z</time>
</trkpt>
<trkpt lat="45.8377580" lon="9.2272060">
	<ele>399.60</ele>
	<time>2025-02-15T06:48:07.000Z</time>
</trkpt>
<trkpt lat="45.8377720" lon="9.2272010">
	<ele>399.60</ele>
	<time>2025-02-15T06:48:08.000Z</time>
</trkpt>
<trkpt lat="45.8377840" lon="9.2271960">
	<ele>399.80</ele>
	<time>2025-02-15T06:48:09.000Z</time>
</trkpt>
<trkpt lat="45.8377940" lon="9.2271920">
	<ele>399.80</ele>
	<time>2025-02-15T06:48:10.000Z</time>
</trkpt>
<trkpt lat="45.8377940" lon="9.2271910">
	<ele>399.80</ele>
	<time>2025-02-15T06:48:11.000Z</time>
</trkpt>
<trkpt lat="45.8378060" lon="9.2271910">
	<ele>399.80</ele>
	<time>2025-02-15T06:48:12.000Z</time>
</trkpt>
<trkpt lat="45.8378190" lon="9.2271900">
	<ele>400.00</ele>
	<time>2025-02-15T06:48:13.000Z</time>
</trkpt>
<trkpt lat="45.8378280" lon="9.2271880">
	<ele>400.00</ele>
	<time>2025-02-15T06:48:14.000Z</time>
</trkpt>
<trkpt lat="45.8378430" lon="9.2271830">
	<ele>400.00</ele>
	<time>2025-02-15T06:48:15.000Z</time>
</trkpt>
<trkpt lat="45.8378510" lon="9.2271790">
	<ele>400.00</ele>
	<time>2025-02-15T06:48:16.000Z</time>
</trkpt>
<trkpt lat="45.8378630" lon="9.2271720">
	<ele>400.00</ele>
	<time>2025-02-15T06:48:17.000Z</time>
</trkpt>
<trkpt lat="45.8378750" lon="9.2271660">
	<ele>400.20</ele>
	<time>2025-02-15T06:48:18.000Z</time>
</trkpt>
<trkpt lat="45.8378870" lon="9.2271520">
	<ele>400.40</ele>
	<time>2025-02-15T06:48:19.000Z</time>
</trkpt>
<trkpt lat="45.8378940" lon="9.2271360">
	<ele>400.40</ele>
	<time>2025-02-15T06:48:20.000Z</time>
</trkpt>
<trkpt lat="45.8378950" lon="9.2271200">
	<ele>400.60</ele>
	<time>2025-02-15T06:48:21.000Z</time>
</trkpt>
<trkpt lat="45.8378970" lon="9.2271010">
	<ele>400.60</ele>
	<time>2025-02-15T06:48:22.000Z</time>
</trkpt>
<trkpt lat="45.8378960" lon="9.2270790">
	<ele>400.80</ele>
	<time>2025-02-15T06:48:23.000Z</time>
</trkpt>
<trkpt lat="45.8378990" lon="9.2270620">
	<ele>401.00</ele>
	<time>2025-02-15T06:48:24.000Z</time>
</trkpt>
<trkpt lat="45.8378970" lon="9.2270550">
	<ele>401.00</ele>
	<time>2025-02-15T06:48:25.000Z</time>
</trkpt>
<trkpt lat="45.8379110" lon="9.2270360">
	<ele>401.20</ele>
	<time>2025-02-15T06:48:26.000Z</time>
</trkpt>
<trkpt lat="45.8379220" lon="9.2270120">
	<ele>401.20</ele>
	<time>2025-02-15T06:48:27.000Z</time>
</trkpt>
<trkpt lat="45.8379250" lon="9.2269870">
	<ele>401.40</ele>
	<time>2025-02-15T06:48:28.000Z</time>
</trkpt>
<trkpt lat="45.8379310" lon="9.2269660">
	<ele>401.40</ele>
	<time>2025-02-15T06:48:29.000Z</time>
</trkpt>
<trkpt lat="45.8379360" lon="9.2269520">
	<ele>401.60</ele>
	<time>2025-02-15T06:48:30.000Z</time>
</trkpt>
<trkpt lat="45.8379370" lon="9.2269380">
	<ele>401.60</ele>
	<time>2025-02-15T06:48:31.000Z</time>
</trkpt>
<trkpt lat="45.8379350" lon="9.2269280">
	<ele>401.80</ele>
	<time>2025-02-15T06:48:32.000Z</time>
</trkpt>
<trkpt lat="45.8379380" lon="9.2269150">
	<ele>402.00</ele>
	<time>2025-02-15T06:48:33.000Z</time>
</trkpt>
<trkpt lat="45.8379460" lon="9.2269030">
	<ele>402.20</ele>
	<time>2025-02-15T06:48:34.000Z</time>
</trkpt>
<trkpt lat="45.8379560" lon="9.2268930">
	<ele>402.20</ele>
	<time>2025-02-15T06:48:35.000Z</time>
</trkpt>
<trkpt lat="45.8379550" lon="9.2268730">
	<ele>402.40</ele>
	<time>2025-02-15T06:48:36.000Z</time>
</trkpt>
<trkpt lat="45.8379570" lon="9.2268550">
	<ele>402.60</ele>
	<time>2025-02-15T06:48:37.000Z</time>
</trkpt>
<trkpt lat="45.8379590" lon="9.2268390">
	<ele>402.80</ele>
	<time>2025-02-15T06:48:38.000Z</time>
</trkpt>
<trkpt lat="45.8379640" lon="9.2268270">
	<ele>402.80</ele>
	<time>2025-02-15T06:48:39.000Z</time>
</trkpt>
<trkpt lat="45.8379710" lon="9.2268170">
	<ele>403.00</ele>
	<time>2025-02-15T06:48:40.000Z</time>
</trkpt>
<trkpt lat="45.8379830" lon="9.2268060">
	<ele>403.20</ele>
	<time>2025-02-15T06:48:41.000Z</time>
</trkpt>
<trkpt lat="45.8379990" lon="9.2267980">
	<ele>403.20</ele>
	<time>2025-02-15T06:48:42.000Z</time>
</trkpt>
<trkpt lat="45.8380140" lon="9.2267910">
	<ele>403.40</ele>
	<time>2025-02-15T06:48:43.000Z</time>
</trkpt>
<trkpt lat="45.8380270" lon="9.2267820">
	<ele>403.60</ele>
	<time>2025-02-15T06:48:44.000Z</time>
</trkpt>
<trkpt lat="45.8380350" lon="9.2267650">
	<ele>403.60</ele>
	<time>2025-02-15T06:48:45.000Z</time>
</trkpt>
<trkpt lat="45.8380400" lon="9.2267470">
	<ele>403.80</ele>
	<time>2025-02-15T06:48:46.000Z</time>
</trkpt>
<trkpt lat="45.8380410" lon="9.2267310">
	<ele>403.80</ele>
	<time>2025-02-15T06:48:47.000Z</time>
</trkpt>
<trkpt lat="45.8380450" lon="9.2267180">
	<ele>403.80</ele>
	<time>2025-02-15T06:48:48.000Z</time>
</trkpt>
<trkpt lat="45.8380520" lon="9.2267120">
	<ele>404.00</ele>
	<time>2025-02-15T06:48:49.000Z</time>
</trkpt>
<trkpt lat="45.8380620" lon="9.2267160">
	<ele>404.00</ele>
	<time>2025-02-15T06:48:50.000Z</time>
</trkpt>
<trkpt lat="45.8380660" lon="9.2267150">
	<ele>404.00</ele>
	<time>2025-02-15T06:48:51.000Z</time>
</trkpt>
<trkpt lat="45.8380600" lon="9.2267070">
	<ele>404.20</ele>
	<time>2025-02-15T06:48:52.000Z</time>
</trkpt>
<trkpt lat="45.8380650" lon="9.2266970">
	<ele>404.20</ele>
	<time>2025-02-15T06:48:53.000Z</time>
</trkpt>
<trkpt lat="45.8380590" lon="9.2266850">
	<ele>404.40</ele>
	<time>2025-02-15T06:48:54.000Z</time>
</trkpt>
<trkpt lat="45.8380520" lon="9.2266720">
	<ele>404.60</ele>
	<time>2025-02-15T06:48:55.000Z</time>
</trkpt>
<trkpt lat="45.8380540" lon="9.2266660">
	<ele>404.80</ele>
	<time>2025-02-15T06:48:56.000Z</time>
</trkpt>
<trkpt lat="45.8380720" lon="9.2266620">
	<ele>404.80</ele>
	<time>2025-02-15T06:48:57.000Z</time>
</trkpt>
<trkpt lat="45.8380980" lon="9.2266660">
	<ele>404.80</ele>
	<time>2025-02-15T06:48:58.000Z</time>
</trkpt>
<trkpt lat="45.8381080" lon="9.2266660">
	<ele>405.00</ele>
	<time>2025-02-15T06:48:59.000Z</time>
</trkpt>
<trkpt lat="45.8381170" lon="9.2266630">
	<ele>405.00</ele>
	<time>2025-02-15T06:49:00.000Z</time>
</trkpt>
<trkpt lat="45.8381330" lon="9.2266620">
	<ele>405.20</ele>
	<time>2025-02-15T06:49:01.000Z</time>
</trkpt>
<trkpt lat="45.8381470" lon="9.2266640">
	<ele>405.20</ele>
	<time>2025-02-15T06:49:02.000Z</time>
</trkpt>
<trkpt lat="45.8381520" lon="9.2266540">
	<ele>405.40</ele>
	<time>2025-02-15T06:49:03.000Z</time>
</trkpt>
<trkpt lat="45.8381590" lon="9.2266430">
	<ele>405.60</ele>
	<time>2025-02-15T06:49:04.000Z</time>
</trkpt>
<trkpt lat="45.8381760" lon="9.2266330">
	<ele>405.80</ele>
	<time>2025-02-15T06:49:05.000Z</time>
</trkpt>
<trkpt lat="45.8381870" lon="9.2266180">
	<ele>406.00</ele>
	<time>2025-02-15T06:49:06.000Z</time>
</trkpt>
<trkpt lat="45.8381900" lon="9.2266020">
	<ele>406.00</ele>
	<time>2025-02-15T06:49:07.000Z</time>
</trkpt>
<trkpt lat="45.8381950" lon="9.2265880">
	<ele>406.20</ele>
	<time>2025-02-15T06:49:08.000Z</time>
</trkpt>
<trkpt lat="45.8382010" lon="9.2265780">
	<ele>406.20</ele>
	<time>2025-02-15T06:49:09.000Z</time>
</trkpt>
<trkpt lat="45.8382090" lon="9.2265680">
	<ele>406.40</ele>
	<time>2025-02-15T06:49:10.000Z</time>
</trkpt>
<trkpt lat="45.8382210" lon="9.2265740">
	<ele>406.60</ele>
	<time>2025-02-15T06:49:11.000Z</time>
</trkpt>
<trkpt lat="45.8382260" lon="9.2265650">
	<ele>406.60</ele>
	<time>2025-02-15T06:49:12.000Z</time>
</trkpt>
<trkpt lat="45.8382340" lon="9.2265570">
	<ele>406.80</ele>
	<time>2025-02-15T06:49:13.000Z</time>
</trkpt>
<trkpt lat="45.8382410" lon="9.2265470">
	<ele>406.80</ele>
	<time>2025-02-15T06:49:14.000Z</time>
</trkpt>
<trkpt lat="45.8382490" lon="9.2265350">
	<ele>407.00</ele>
	<time>2025-02-15T06:49:15.000Z</time>
</trkpt>
<trkpt lat="45.8382560" lon="9.2265270">
	<ele>407.20</ele>
	<time>2025-02-15T06:49:16.000Z</time>
</trkpt>
<trkpt lat="45.8382590" lon="9.2265180">
	<ele>407.40</ele>
	<time>2025-02-15T06:49:17.000Z</time>
</trkpt>
<trkpt lat="45.8382630" lon="9.2265070">
	<ele>407.60</ele>
	<time>2025-02-15T06:49:18.000Z</time>
</trkpt>
<trkpt lat="45.8382680" lon="9.2264930">
	<ele>407.80</ele>
	<time>2025-02-15T06:49:19.000Z</time>
</trkpt>
<trkpt lat="45.8382910" lon="9.2264840">
	<ele>407.80</ele>
	<time>2025-02-15T06:49:20.000Z</time>
</trkpt>
<trkpt lat="45.8383170" lon="9.2264760">
	<ele>408.00</ele>
	<time>2025-02-15T06:49:21.000Z</time>
</trkpt>
<trkpt lat="45.8383350" lon="9.2264650">
	<ele>408.00</ele>
	<time>2025-02-15T06:49:22.000Z</time>
</trkpt>
<trkpt lat="45.8383420" lon="9.2264560">
	<ele>408.20</ele>
	<time>2025-02-15T06:49:23.000Z</time>
</trkpt>
<trkpt lat="45.8383550" lon="9.2264430">
	<ele>408.40</ele>
	<time>2025-02-15T06:49:24.000Z</time>
</trkpt>
<trkpt lat="45.8383780" lon="9.2264400">
	<ele>408.60</ele>
	<time>2025-02-15T06:49:25.000Z</time>
</trkpt>
<trkpt lat="45.8383970" lon="9.2264410">
	<ele>408.80</ele>
	<time>2025-02-15T06:49:26.000Z</time>
</trkpt>
<trkpt lat="45.8384170" lon="9.2264510">
	<ele>408.80</ele>
	<time>2025-02-15T06:49:27.000Z</time>
</trkpt>
<trkpt lat="45.8384370" lon="9.2264570">
	<ele>408.80</ele>
	<time>2025-02-15T06:49:28.000Z</time>
</trkpt>
<trkpt lat="45.8384250" lon="9.2264350">
	<ele>409.00</ele>
	<time>2025-02-15T06:49:29.000Z</time>
</trkpt>
<trkpt lat="45.8384260" lon="9.2264390">
	<ele>409.20</ele>
	<time>2025-02-15T06:49:30.000Z</time>
</trkpt>
<trkpt lat="45.8384180" lon="9.2264440">
	<ele>409.40</ele>
	<time>2025-02-15T06:49:31.000Z</time>
</trkpt>
<trkpt lat="45.8384100" lon="9.2264430">
	<ele>409.40</ele>
	<time>2025-02-15T06:49:32.000Z</time>
</trkpt>
<trkpt lat="45.8383960" lon="9.2264390">
	<ele>409.60</ele>
	<time>2025-02-15T06:49:33.000Z</time>
</trkpt>
<trkpt lat="45.8383790" lon="9.2264180">
	<ele>408.40</ele>
	<time>2025-02-15T06:49:34.000Z</time>
</trkpt>
<trkpt lat="45.8383660" lon="9.2264020">
	<ele>408.40</ele>
	<time>2025-02-15T06:49:35.000Z</time>
</trkpt>
<trkpt lat="45.8383440" lon="9.2263680">
	<ele>408.40</ele>
	<time>2025-02-15T06:49:36.000Z</time>
</trkpt>
<trkpt lat="45.8383420" lon="9.2263390">
	<ele>408.40</ele>
	<time>2025-02-15T06:49:37.000Z</time>
</trkpt>
<trkpt lat="45.8383330" lon="9.2263060">
	<ele>408.40</ele>
	<time>2025-02-15T06:49:38.000Z</time>
</trkpt>
<trkpt lat="45.8383230" lon="9.2262830">
	<ele>408.40</ele>
	<time>2025-02-15T06:49:39.000Z</time>
</trkpt>
<trkpt lat="45.8382940" lon="9.2262390">
	<ele>408.60</ele>
	<time>2025-02-15T06:49:40.000Z</time>
</trkpt>
<trkpt lat="45.8382690" lon="9.2261900">
	<ele>408.80</ele>
	<time>2025-02-15T06:49:41.000Z</time>
</trkpt>
<trkpt lat="45.8382450" lon="9.2261390">
	<ele>409.00</ele>
	<time>2025-02-15T06:49:42.000Z</time>
</trkpt>
<trkpt lat="45.8382600" lon="9.2261350">
	<ele>409.20</ele>
	<time>2025-02-15T06:49:43.000Z</time>
</trkpt>
<trkpt lat="45.8382810" lon="9.2261410">
	<ele>409.20</ele>
	<time>2025-02-15T06:49:44.000Z</time>
</trkpt>
<trkpt lat="45.8382900" lon="9.2261370">
	<ele>409.20</ele>
	<time>2025-02-15T06:49:45.000Z</time>
</trkpt>
<trkpt lat="45.8383160" lon="9.2261350">
	<ele>409.40</ele>
	<time>2025-02-15T06:49:46.000Z</time>
</trkpt>
<trkpt lat="45.8383400" lon="9.2261410">
	<ele>409.60</ele>
	<time>2025-02-15T06:49:47.000Z</time>
</trkpt>
<trkpt lat="45.8383610" lon="9.2261530">
	<ele>409.80</ele>
	<time>2025-02-15T06:49:48.000Z</time>
</trkpt>
<trkpt lat="45.8383800" lon="9.2261720">
	<ele>409.80</ele>
	<time>2025-02-15T06:49:49.000Z</time>
</trkpt>
<trkpt lat="45.8384040" lon="9.2261970">
	<ele>410.00</ele>
	<time>2025-02-15T06:49:50.000Z</time>
</trkpt>
<trkpt lat="45.8384340" lon="9.2262150">
	<ele>410.00</ele>
	<time>2025-02-15T06:49:51.000Z</time>
</trkpt>
<trkpt lat="45.8384670" lon="9.2262320">
	<ele>410.20</ele>
	<time>2025-02-15T06:49:52.000Z</time>
</trkpt>
<trkpt lat="45.8384900" lon="9.2262380">
	<ele>410.20</ele>
	<time>2025-02-15T06:49:53.000Z</time>
</trkpt>
<trkpt lat="45.8385120" lon="9.2262320">
	<ele>410.40</ele>
	<time>2025-02-15T06:49:54.000Z</time>
</trkpt>
<trkpt lat="45.8386590" lon="9.2262800">
	<ele>410.60</ele>
	<time>2025-02-15T06:49:55.000Z</time>
</trkpt>
<trkpt lat="45.8386340" lon="9.2262980">
	<ele>410.60</ele>
	<time>2025-02-15T06:49:56.000Z</time>
</trkpt>
<trkpt lat="45.8386670" lon="9.2263050">
	<ele>410.80</ele>
	<time>2025-02-15T06:49:57.000Z</time>
</trkpt>
<trkpt lat="45.8386420" lon="9.2263050">
	<ele>410.80</ele>
	<time>2025-02-15T06:49:58.000Z</time>
</trkpt>
<trkpt lat="45.8386350" lon="9.2263110">
	<ele>411.00</ele>
	<time>2025-02-15T06:49:59.000Z</time>
</trkpt>
<trkpt lat="45.8386220" lon="9.2263230">
	<ele>411.00</ele>
	<time>2025-02-15T06:50:00.000Z</time>
</trkpt>
<trkpt lat="45.8386280" lon="9.2263300">
	<ele>411.00</ele>
	<time>2025-02-15T06:50:01.000Z</time>
</trkpt>
<trkpt lat="45.8386270" lon="9.2263290">
	<ele>411.20</ele>
	<time>2025-02-15T06:50:02.000Z</time>
</trkpt>
<trkpt lat="45.8386330" lon="9.2263310">
	<ele>411.60</ele>
	<time>2025-02-15T06:50:03.000Z</time>
</trkpt>
<trkpt lat="45.8386350" lon="9.2263320">
	<ele>411.60</ele>
	<time>2025-02-15T06:50:04.000Z</time>
</trkpt>
<trkpt lat="45.8386440" lon="9.2263380">
	<ele>411.80</ele>
	<time>2025-02-15T06:50:05.000Z</time>
</trkpt>
<trkpt lat="45.8386530" lon="9.2263430">
	<ele>412.00</ele>
	<time>2025-02-15T06:50:06.000Z</time>
</trkpt>
<trkpt lat="45.8386580" lon="9.2263510">
	<ele>412.00</ele>
	<time>2025-02-15T06:50:07.000Z</time>
</trkpt>
<trkpt lat="45.8386700" lon="9.2263600">
	<ele>412.00</ele>
	<time>2025-02-15T06:50:08.000Z</time>
</trkpt>
<trkpt lat="45.8386790" lon="9.2263690">
	<ele>412.00</ele>
	<time>2025-02-15T06:50:09.000Z</time>
</trkpt>
<trkpt lat="45.8386910" lon="9.2263760">
	<ele>412.20</ele>
	<time>2025-02-15T06:50:10.000Z</time>
</trkpt>
<trkpt lat="45.8386920" lon="9.2263680">
	<ele>412.40</ele>
	<time>2025-02-15T06:50:11.000Z</time>
</trkpt>
<trkpt lat="45.8386930" lon="9.2263680">
	<ele>412.60</ele>
	<time>2025-02-15T06:50:12.000Z</time>
</trkpt>
<trkpt lat="45.8386780" lon="9.2263670">
	<ele>413.00</ele>
	<time>2025-02-15T06:50:14.000Z</time>
</trkpt>
<trkpt lat="45.8386580" lon="9.2263540">
	<ele>413.20</ele>
	<time>2025-02-15T06:50:15.000Z</time>
</trkpt>
<trkpt lat="45.8386640" lon="9.2263340">
	<ele>411.80</ele>
	<time>2025-02-15T06:50:16.000Z</time>
</trkpt>
<trkpt lat="45.8386920" lon="9.2263160">
	<ele>411.80</ele>
	<time>2025-02-15T06:50:17.000Z</time>
</trkpt>
<trkpt lat="45.8387170" lon="9.2263100">
	<ele>411.80</ele>
	<time>2025-02-15T06:50:18.000Z</time>
</trkpt>
<trkpt lat="45.8387470" lon="9.2263080">
	<ele>412.00</ele>
	<time>2025-02-15T06:50:19.000Z</time>
</trkpt>
<trkpt lat="45.8387800" lon="9.2263130">
	<ele>412.20</ele>
	<time>2025-02-15T06:50:20.000Z</time>
</trkpt>
<trkpt lat="45.8387150" lon="9.2262470">
	<ele>412.40</ele>
	<time>2025-02-15T06:50:21.000Z</time>
</trkpt>
<trkpt lat="45.8386960" lon="9.2262090">
	<ele>412.60</ele>
	<time>2025-02-15T06:50:22.000Z</time>
</trkpt>
<trkpt lat="45.8387190" lon="9.2262100">
	<ele>412.80</ele>
	<time>2025-02-15T06:50:23.000Z</time>
</trkpt>
<trkpt lat="45.8387130" lon="9.2261910">
	<ele>413.00</ele>
	<time>2025-02-15T06:50:24.000Z</time>
</trkpt>
<trkpt lat="45.8387110" lon="9.2261990">
	<ele>413.20</ele>
	<time>2025-02-15T06:50:25.000Z</time>
</trkpt>
<trkpt lat="45.8387280" lon="9.2262380">
	<ele>413.40</ele>
	<time>2025-02-15T06:50:26.000Z</time>
</trkpt>
<trkpt lat="45.8386810" lon="9.2262540">
	<ele>413.40</ele>
	<time>2025-02-15T06:50:27.000Z</time>
</trkpt>
<trkpt lat="45.8386910" lon="9.2263010">
	<ele>413.60</ele>
	<time>2025-02-15T06:50:28.000Z</time>
</trkpt>
<trkpt lat="45.8386950" lon="9.2263230">
	<ele>411.80</ele>
	<time>2025-02-15T06:50:29.000Z</time>
</trkpt>
<trkpt lat="45.8386990" lon="9.2263400">
	<ele>411.80</ele>
	<time>2025-02-15T06:50:30.000Z</time>
</trkpt>
<trkpt lat="45.8387190" lon="9.2263660">
	<ele>411.80</ele>
	<time>2025-02-15T06:50:31.000Z</time>
</trkpt>
<trkpt lat="45.8387280" lon="9.2263860">
	<ele>411.80</ele>
	<time>2025-02-15T06:50:32.000Z</time>
</trkpt>
<trkpt lat="45.8387350" lon="9.2263950">
	<ele>411.80</ele>
	<time>2025-02-15T06:50:33.000Z</time>
</trkpt>
<trkpt lat="45.8387390" lon="9.2264090">
	<ele>411.80</ele>
	<time>2025-02-15T06:50:34.000Z</time>
</trkpt>
<trkpt lat="45.8387500" lon="9.2264220">
	<ele>412.00</ele>
	<time>2025-02-15T06:50:35.000Z</time>
</trkpt>
<trkpt lat="45.8387300" lon="9.2264210">
	<ele>412.00</ele>
	<time>2025-02-15T06:50:36.000Z</time>
</trkpt>
<trkpt lat="45.8387230" lon="9.2264250">
	<ele>412.00</ele>
	<time>2025-02-15T06:50:37.000Z</time>
</trkpt>
<trkpt lat="45.8387060" lon="9.2264310">
	<ele>412.40</ele>
	<time>2025-02-15T06:50:38.000Z</time>
</trkpt>
<trkpt lat="45.8386870" lon="9.2264400">
	<ele>412.60</ele>
	<time>2025-02-15T06:50:39.000Z</time>
</trkpt>
<trkpt lat="45.8386890" lon="9.2264580">
	<ele>412.60</ele>
	<time>2025-02-15T06:50:40.000Z</time>
</trkpt>
<trkpt lat="45.8386780" lon="9.2264650">
	<ele>412.80</ele>
	<time>2025-02-15T06:50:41.000Z</time>
</trkpt>
<trkpt lat="45.8386560" lon="9.2264600">
	<ele>413.00</ele>
	<time>2025-02-15T06:50:42.000Z</time>
</trkpt>
<trkpt lat="45.8386340" lon="9.2264550">
	<ele>413.20</ele>
	<time>2025-02-15T06:50:43.000Z</time>
</trkpt>
<trkpt lat="45.8386320" lon="9.2264600">
	<ele>413.20</ele>
	<time>2025-02-15T06:50:44.000Z</time>
</trkpt>
<trkpt lat="45.8386360" lon="9.2264680">
	<ele>413.40</ele>
	<time>2025-02-15T06:50:45.000Z</time>
</trkpt>
<trkpt lat="45.8386390" lon="9.2264750">
	<ele>413.60</ele>
	<time>2025-02-15T06:50:46.000Z</time>
</trkpt>
<trkpt lat="45.8386370" lon="9.2264750">
	<ele>413.60</ele>
	<time>2025-02-15T06:50:47.000Z</time>
</trkpt>
<trkpt lat="45.8386320" lon="9.2264770">
	<ele>413.80</ele>
	<time>2025-02-15T06:50:48.000Z</time>
</trkpt>
<trkpt lat="45.8386450" lon="9.2264850">
	<ele>414.00</ele>
	<time>2025-02-15T06:50:49.000Z</time>
</trkpt>
<trkpt lat="45.8386520" lon="9.2264970">
	<ele>414.20</ele>
	<time>2025-02-15T06:50:50.000Z</time>
</trkpt>
<trkpt lat="45.8386540" lon="9.2264970">
	<ele>414.40</ele>
	<time>2025-02-15T06:50:51.000Z</time>
</trkpt>
<trkpt lat="45.8386930" lon="9.2265080">
	<ele>414.60</ele>
	<time>2025-02-15T06:50:52.000Z</time>
</trkpt>
<trkpt lat="45.8387300" lon="9.2265230">
	<ele>414.60</ele>
	<time>2025-02-15T06:50:53.000Z</time>
</trkpt>
<trkpt lat="45.8386940" lon="9.2265170">
	<ele>415.00</ele>
	<time>2025-02-15T06:50:56.000Z</time>
</trkpt>
<trkpt lat="45.8387830" lon="9.2265640">
	<ele>416.00</ele>
	<time>2025-02-15T06:51:02.000Z</time>
</trkpt>
<trkpt lat="45.8388300" lon="9.2266090">
	<ele>416.20</ele>
	<time>2025-02-15T06:51:03.000Z</time>
</trkpt>
<trkpt lat="45.8388550" lon="9.2266530">
	<ele>416.40</ele>
	<time>2025-02-15T06:51:04.000Z</time>
</trkpt>
<trkpt lat="45.8388580" lon="9.2266620">
	<ele>416.60</ele>
	<time>2025-02-15T06:51:05.000Z</time>
</trkpt>
<trkpt lat="45.8388650" lon="9.2266970">
	<ele>418.00</ele>
	<time>2025-02-15T06:51:16.000Z</time>
</trkpt>
<trkpt lat="45.8391270" lon="9.2272790">
	<ele>420.80</ele>
	<time>2025-02-15T06:51:48.000Z</time>
</trkpt>
<trkpt lat="45.8390750" lon="9.2272230">
	<ele>420.80</ele>
	<time>2025-02-15T06:51:49.000Z</time>
</trkpt>
<trkpt lat="45.8380380" lon="9.2269200">
	<ele>421.00</ele>
	<time>2025-02-15T06:51:50.000Z</time>
</trkpt>
<trkpt lat="45.8380320" lon="9.2268930">
	<ele>421.00</ele>
	<time>2025-02-15T06:51:52.000Z</time>
</trkpt>
<trkpt lat="45.8380620" lon="9.2269090">
	<ele>421.00</ele>
	<time>2025-02-15T06:51:53.000Z</time>
</trkpt>
<trkpt lat="45.8381530" lon="9.2269340">
	<ele>421.00</ele>
	<time>2025-02-15T06:51:54.000Z</time>
</trkpt>
<trkpt lat="45.8384050" lon="9.2269950">
	<ele>421.20</ele>
	<time>2025-02-15T06:51:55.000Z</time>
</trkpt>
<trkpt lat="45.8384470" lon="9.2270200">
	<ele>421.40</ele>
	<time>2025-02-15T06:51:58.000Z</time>
</trkpt>
<trkpt lat="45.8383150" lon="9.2269140">
	<ele>421.40</ele>
	<time>2025-02-15T06:51:59.000Z</time>
</trkpt>
<trkpt lat="45.8383270" lon="9.2269500">
	<ele>421.60</ele>
	<time>2025-02-15T06:52:01.000Z</time>
</trkpt>
<trkpt lat="45.8383880" lon="9.2270230">
	<ele>421.60</ele>
	<time>2025-02-15T06:52:02.000Z</time>
</trkpt>
<trkpt lat="45.8383970" lon="9.2270650">
	<ele>421.60</ele>
	<time>2025-02-15T06:52:03.000Z</time>
</trkpt>
<trkpt lat="45.8384170" lon="9.2270890">
	<ele>421.60</ele>
	<time>2025-02-15T06:52:04.000Z</time>
</trkpt>
<trkpt lat="45.8384610" lon="9.2271200">
	<ele>421.60</ele>
	<time>2025-02-15T06:52:05.000Z</time>
</trkpt>
<trkpt lat="45.8385250" lon="9.2271420">
	<ele>421.60</ele>
	<time>2025-02-15T06:52:06.000Z</time>
</trkpt>
<trkpt lat="45.8385380" lon="9.2271580">
	<ele>421.40</ele>
	<time>2025-02-15T06:52:07.000Z</time>
</trkpt>
<trkpt lat="45.8385280" lon="9.2271540">
	<ele>421.40</ele>
	<time>2025-02-15T06:52:08.000Z</time>
</trkpt>
<trkpt lat="45.8385940" lon="9.2271550">
	<ele>421.40</ele>
	<time>2025-02-15T06:52:09.000Z</time>
</trkpt>
<trkpt lat="45.8386430" lon="9.2271610">
	<ele>421.40</ele>
	<time>2025-02-15T06:52:10.000Z</time>
</trkpt>
<trkpt lat="45.8386780" lon="9.2271740">
	<ele>421.40</ele>
	<time>2025-02-15T06:52:11.000Z</time>
</trkpt>
<trkpt lat="45.8386960" lon="9.2271880">
	<ele>421.60</ele>
	<time>2025-02-15T06:52:12.000Z</time>
</trkpt>
<trkpt lat="45.8386970" lon="9.2271860">
	<ele>421.60</ele>
	<time>2025-02-15T06:52:13.000Z</time>
</trkpt>
<trkpt lat="45.8386970" lon="9.2271840">
	<ele>421.80</ele>
	<time>2025-02-15T06:52:14.000Z</time>
</trkpt>
<trkpt lat="45.8386810" lon="9.2271710">
	<ele>421.80</ele>
	<time>2025-02-15T06:52:15.000Z</time>
</trkpt>
<trkpt lat="45.8386600" lon="9.2271540">
	<ele>421.80</ele>
	<time>2025-02-15T06:52:16.000Z</time>
</trkpt>
<trkpt lat="45.8386700" lon="9.2271620">
	<ele>421.80</ele>
	<time>2025-02-15T06:52:17.000Z</time>
</trkpt>
<trkpt lat="45.8386630" lon="9.2271670">
	<ele>421.80</ele>
	<time>2025-02-15T06:52:18.000Z</time>
</trkpt>
<trkpt lat="45.8386570" lon="9.2271690">
	<ele>421.80</ele>
	<time>2025-02-15T06:52:19.000Z</time>
</trkpt>
<trkpt lat="45.8386310" lon="9.2271610">
	<ele>421.80</ele>
	<time>2025-02-15T06:52:20.000Z</time>
</trkpt>
<trkpt lat="45.8386040" lon="9.2271590">
	<ele>421.80</ele>
	<time>2025-02-15T06:52:21.000Z</time>
</trkpt>
<trkpt lat="45.8385950" lon="9.2271750">
	<ele>421.80</ele>
	<time>2025-02-15T06:52:22.000Z</time>
</trkpt>
<trkpt lat="45.8386050" lon="9.2271960">
	<ele>422.00</ele>
	<time>2025-02-15T06:52:23.000Z</time>
</trkpt>
<trkpt lat="45.8386060" lon="9.2272120">
	<ele>422.00</ele>
	<time>2025-02-15T06:52:24.000Z</time>
</trkpt>
<trkpt lat="45.8386030" lon="9.2272200">
	<ele>422.00</ele>
	<time>2025-02-15T06:52:25.000Z</time>
</trkpt>
<trkpt lat="45.8385970" lon="9.2272270">
	<ele>422.00</ele>
	<time>2025-02-15T06:52:26.000Z</time>
</trkpt>
<trkpt lat="45.8385950" lon="9.2272320">
	<ele>422.00</ele>
	<time>2025-02-15T06:52:27.000Z</time>
</trkpt>
<trkpt lat="45.8385950" lon="9.2272500">
	<ele>422.20</ele>
	<time>2025-02-15T06:52:28.000Z</time>
</trkpt>
<trkpt lat="45.8385910" lon="9.2272530">
	<ele>422.40</ele>
	<time>2025-02-15T06:52:29.000Z</time>
</trkpt>
<trkpt lat="45.8385820" lon="9.2272510">
	<ele>422.40</ele>
	<time>2025-02-15T06:52:30.000Z</time>
</trkpt>
<trkpt lat="45.8385710" lon="9.2272430">
	<ele>422.60</ele>
	<time>2025-02-15T06:52:31.000Z</time>
</trkpt>
<trkpt lat="45.8385600" lon="9.2272390">
	<ele>422.60</ele>
	<time>2025-02-15T06:52:32.000Z</time>
</trkpt>
<trkpt lat="45.8385690" lon="9.2272420">
	<ele>422.60</ele>
	<time>2025-02-15T06:52:33.000Z</time>
</trkpt>
<trkpt lat="45.8385830" lon="9.2272480">
	<ele>422.60</ele>
	<time>2025-02-15T06:52:34.000Z</time>
</trkpt>
<trkpt lat="45.8385970" lon="9.2272620">
	<ele>422.60</ele>
	<time>2025-02-15T06:52:35.000Z</time>
</trkpt>
<trkpt lat="45.8385980" lon="9.2272610">
	<ele>422.60</ele>
	<time>2025-02-15T06:52:36.000Z</time>
</trkpt>
<trkpt lat="45.8386130" lon="9.2272700">
	<ele>422.20</ele>
	<time>2025-02-15T06:52:37.000Z</time>
</trkpt>
<trkpt lat="45.8386220" lon="9.2272850">
	<ele>422.20</ele>
	<time>2025-02-15T06:52:38.000Z</time>
</trkpt>
<trkpt lat="45.8386330" lon="9.2272850">
	<ele>422.00</ele>
	<time>2025-02-15T06:52:39.000Z</time>
</trkpt>
<trkpt lat="45.8386570" lon="9.2273020">
	<ele>422.00</ele>
	<time>2025-02-15T06:52:40.000Z</time>
</trkpt>
<trkpt lat="45.8386810" lon="9.2273270">
	<ele>422.00</ele>
	<time>2025-02-15T06:52:41.000Z</time>
</trkpt>
<trkpt lat="45.8386880" lon="9.2273420">
	<ele>422.00</ele>
	<time>2025-02-15T06:52:42.000Z</time>
</trkpt>
<trkpt lat="45.8387050" lon="9.2273630">
	<ele>421.80</ele>
	<time>2025-02-15T06:52:43.000Z</time>
</trkpt>
<trkpt lat="45.8387070" lon="9.2273470">
	<ele>422.00</ele>
	<time>2025-02-15T06:52:44.000Z</time>
</trkpt>
<trkpt lat="45.8387030" lon="9.2273050">
	<ele>422.00</ele>
	<time>2025-02-15T06:52:45.000Z</time>
</trkpt>
<trkpt lat="45.8387000" lon="9.2272940">
	<ele>422.20</ele>
	<time>2025-02-15T06:52:46.000Z</time>
</trkpt>
<trkpt lat="45.8386990" lon="9.2272920">
	<ele>422.20</ele>
	<time>2025-02-15T06:52:47.000Z</time>
</trkpt>
<trkpt lat="45.8386970" lon="9.2272850">
	<ele>422.20</ele>
	<time>2025-02-15T06:52:48.000Z</time>
</trkpt>
<trkpt lat="45.8386940" lon="9.2272820">
	<ele>422.20</ele>
	<time>2025-02-15T06:52:49.000Z</time>
</trkpt>
<trkpt lat="45.8386900" lon="9.2272750">
	<ele>422.20</ele>
	<time>2025-02-15T06:52:50.000Z</time>
</trkpt>
<trkpt lat="45.8386850" lon="9.2272700">
	<ele>422.20</ele>
	<time>2025-02-15T06:52:51.000Z</time>
</trkpt>
<trkpt lat="45.8386810" lon="9.2272600">
	<ele>422.20</ele>
	<time>2025-02-15T06:52:52.000Z</time>
</trkpt>
<trkpt lat="45.8386770" lon="9.2272530">
	<ele>422.20</ele>
	<time>2025-02-15T06:52:53.000Z</time>
</trkpt>
<trkpt lat="45.8386780" lon="9.2272490">
	<ele>422.20</ele>
	<time>2025-02-15T06:52:54.000Z</time>
</trkpt>
<trkpt lat="45.8386830" lon="9.2272450">
	<ele>422.20</ele>
	<time>2025-02-15T06:52:55.000Z</time>
</trkpt>
<trkpt lat="45.8386840" lon="9.2272390">
	<ele>422.20</ele>
	<time>2025-02-15T06:52:56.000Z</time>
</trkpt>
<trkpt lat="45.8386840" lon="9.2272340">
	<ele>422.20</ele>
	<time>2025-02-15T06:52:57.000Z</time>
</trkpt>
<trkpt lat="45.8386840" lon="9.2272350">
	<ele>422.20</ele>
	<time>2025-02-15T06:52:58.000Z</time>
</trkpt>
<trkpt lat="45.8386840" lon="9.2272350">
	<ele>422.20</ele>
	<time>2025-02-15T06:52:59.000Z</time>
</trkpt>
<trkpt lat="45.8386840" lon="9.2272350">
	<ele>422.20</ele>
	<time>2025-02-15T06:53:00.000Z</time>
</trkpt>
<trkpt lat="45.8386840" lon="9.2272350">
	<ele>422.20</ele>
	<time>2025-02-15T06:53:01.000Z</time>
</trkpt>
<trkpt lat="45.8386840" lon="9.2272350">
	<ele>422.20</ele>
	<time>2025-02-15T06:53:02.000Z</time>
</trkpt>
<trkpt lat="45.8386840" lon="9.2272350">
	<ele>422.20</ele>
	<time>2025-02-15T06:53:03.000Z</time>
</trkpt>
<trkpt lat="45.8386840" lon="9.2272350">
	<ele>422.20</ele>
	<time>2025-02-15T06:53:04.000Z</time>
</trkpt>
<trkpt lat="45.8386840" lon="9.2272350">
	<ele>422.20</ele>
	<time>2025-02-15T06:53:05.000Z</time>
</trkpt>
<trkpt lat="45.8386840" lon="9.2272350">
	<ele>422.20</ele>
	<time>2025-02-15T06:53:06.000Z</time>
</trkpt>
<trkpt lat="45.8386840" lon="9.2272380">
	<ele>422.20</ele>
	<time>2025-02-15T06:53:07.000Z</time>
</trkpt>
<trkpt lat="45.8386840" lon="9.2272390">
	<ele>422.20</ele>
	<time>2025-02-15T06:53:08.000Z</time>
</trkpt>
<trkpt lat="45.8386840" lon="9.2272450">
	<ele>422.20</ele>
	<time>2025-02-15T06:53:09.000Z</time>
</trkpt>
<trkpt lat="45.8386840" lon="9.2272490">
	<ele>422.20</ele>
	<time>2025-02-15T06:53:10.000Z</time>
</trkpt>
<trkpt lat="45.8386840" lon="9.2272490">
	<ele>422.20</ele>
	<time>2025-02-15T06:53:11.000Z</time>
</trkpt>
<trkpt lat="45.8386840" lon="9.2272500">
	<ele>422.20</ele>
	<time>2025-02-15T06:53:12.000Z</time>
</trkpt>
<trkpt lat="45.8386850" lon="9.2272510">
	<ele>422.00</ele>
	<time>2025-02-15T06:53:13.000Z</time>
</trkpt>
<trkpt lat="45.8386900" lon="9.2272520">
	<ele>422.00</ele>
	<time>2025-02-15T06:53:14.000Z</time>
</trkpt>
<trkpt lat="45.8386910" lon="9.2272530">
	<ele>422.00</ele>
	<time>2025-02-15T06:53:15.000Z</time>
</trkpt>
<trkpt lat="45.8386920" lon="9.2272530">
	<ele>422.20</ele>
	<time>2025-02-15T06:53:16.000Z</time>
</trkpt>
<trkpt lat="45.8386930" lon="9.2272540">
	<ele>422.20</ele>
	<time>2025-02-15T06:53:17.000Z</time>
</trkpt>
<trkpt lat="45.8386930" lon="9.2272580">
	<ele>422.20</ele>
	<time>2025-02-15T06:53:18.000Z</time>
</trkpt>
<trkpt lat="45.8386940" lon="9.2272600">
	<ele>422.20</ele>
	<time>2025-02-15T06:53:19.000Z</time>
</trkpt>
<trkpt lat="45.8387060" lon="9.2272600">
	<ele>422.20</ele>
	<time>2025-02-15T06:53:20.000Z</time>
</trkpt>
<trkpt lat="45.8387220" lon="9.2272600">
	<ele>422.20</ele>
	<time>2025-02-15T06:53:21.000Z</time>
</trkpt>
<trkpt lat="45.8387380" lon="9.2272610">
	<ele>422.00</ele>
	<time>2025-02-15T06:53:22.000Z</time>
</trkpt>
<trkpt lat="45.8387490" lon="9.2272620">
	<ele>422.00</ele>
	<time>2025-02-15T06:53:23.000Z</time>
</trkpt>
<trkpt lat="45.8387540" lon="9.2272630">
	<ele>422.00</ele>
	<time>2025-02-15T06:53:24.000Z</time>
</trkpt>
<trkpt lat="45.8387550" lon="9.2272640">
	<ele>422.00</ele>
	<time>2025-02-15T06:53:25.000Z</time>
</trkpt>
<trkpt lat="45.8387550" lon="9.2272640">
	<ele>422.00</ele>
	<time>2025-02-15T06:53:26.000Z</time>
</trkpt>
<trkpt lat="45.8387550" lon="9.2272640">
	<ele>422.00</ele>
	<time>2025-02-15T06:53:27.000Z</time>
</trkpt>
<trkpt lat="45.8387550" lon="9.2272640">
	<ele>422.00</ele>
	<time>2025-02-15T06:53:28.000Z</time>
</trkpt>
<trkpt lat="45.8387560" lon="9.2272640">
	<ele>422.00</ele>
	<time>2025-02-15T06:53:29.000Z</time>
</trkpt>
<trkpt lat="45.8387570" lon="9.2272640">
	<ele>422.00</ele>
	<time>2025-02-15T06:53:30.000Z</time>
</trkpt>
<trkpt lat="45.8387580" lon="9.2272640">
	<ele>422.00</ele>
	<time>2025-02-15T06:53:31.000Z</time>
</trkpt>
<trkpt lat="45.8387580" lon="9.2272640">
	<ele>422.00</ele>
	<time>2025-02-15T06:53:32.000Z</time>
</trkpt>
<trkpt lat="45.8387590" lon="9.2272640">
	<ele>422.00</ele>
	<time>2025-02-15T06:53:33.000Z</time>
</trkpt>
<trkpt lat="45.8387590" lon="9.2272640">
	<ele>422.00</ele>
	<time>2025-02-15T06:53:34.000Z</time>
</trkpt>
<trkpt lat="45.8387590" lon="9.2272640">
	<ele>422.00</ele>
	<time>2025-02-15T06:53:35.000Z</time>
</trkpt>
<trkpt lat="45.8387570" lon="9.2272610">
	<ele>422.00</ele>
	<time>2025-02-15T06:53:36.000Z</time>
</trkpt>
<trkpt lat="45.8387400" lon="9.2272580">
	<ele>422.00</ele>
	<time>2025-02-15T06:53:37.000Z</time>
</trkpt>
<trkpt lat="45.8387230" lon="9.2272550">
	<ele>422.00</ele>
	<time>2025-02-15T06:53:38.000Z</time>
</trkpt>
<trkpt lat="45.8387070" lon="9.2272460">
	<ele>422.00</ele>
	<time>2025-02-15T06:53:39.000Z</time>
</trkpt>
<trkpt lat="45.8386920" lon="9.2272400">
	<ele>422.20</ele>
	<time>2025-02-15T06:53:40.000Z</time>
</trkpt>
<trkpt lat="45.8386750" lon="9.2272390">
	<ele>422.20</ele>
	<time>2025-02-15T06:53:41.000Z</time>
</trkpt>
<trkpt lat="45.8386650" lon="9.2272320">
	<ele>422.20</ele>
	<time>2025-02-15T06:53:42.000Z</time>
</trkpt>
<trkpt lat="45.8386570" lon="9.2272380">
	<ele>422.20</ele>
	<time>2025-02-15T06:53:43.000Z</time>
</trkpt>
<trkpt lat="45.8386520" lon="9.2272330">
	<ele>422.20</ele>
	<time>2025-02-15T06:53:44.000Z</time>
</trkpt>
<trkpt lat="45.8386440" lon="9.2272300">
	<ele>422.20</ele>
	<time>2025-02-15T06:53:45.000Z</time>
</trkpt>
<trkpt lat="45.8386370" lon="9.2272390">
	<ele>422.00</ele>
	<time>2025-02-15T06:53:46.000Z</time>
</trkpt>
<trkpt lat="45.8386320" lon="9.2272400">
	<ele>422.00</ele>
	<time>2025-02-15T06:53:47.000Z</time>
</trkpt>
<trkpt lat="45.8386320" lon="9.2272410">
	<ele>422.00</ele>
	<time>2025-02-15T06:53:48.000Z</time>
</trkpt>
<trkpt lat="45.8386310" lon="9.2272470">
	<ele>422.00</ele>
	<time>2025-02-15T06:53:49.000Z</time>
</trkpt>
<trkpt lat="45.8386230" lon="9.2272470">
	<ele>422.00</ele>
	<time>2025-02-15T06:53:50.000Z</time>
</trkpt>
<trkpt lat="45.8386090" lon="9.2272530">
	<ele>422.00</ele>
	<time>2025-02-15T06:53:51.000Z</time>
</trkpt>
<trkpt lat="45.8386040" lon="9.2272570">
	<ele>422.00</ele>
	<time>2025-02-15T06:53:52.000Z</time>
</trkpt>
<trkpt lat="45.8386070" lon="9.2272540">
	<ele>422.00</ele>
	<time>2025-02-15T06:53:53.000Z</time>
</trkpt>
<trkpt lat="45.8386100" lon="9.2272440">
	<ele>422.00</ele>
	<time>2025-02-15T06:53:54.000Z</time>
</trkpt>
<trkpt lat="45.8386010" lon="9.2272480">
	<ele>422.00</ele>
	<time>2025-02-15T06:53:55.000Z</time>
</trkpt>
<trkpt lat="45.8385920" lon="9.2272500">
	<ele>422.00</ele>
	<time>2025-02-15T06:53:56.000Z</time>
</trkpt>
<trkpt lat="45.8385900" lon="9.2272520">
	<ele>422.00</ele>
	<time>2025-02-15T06:53:57.000Z</time>
</trkpt>
<trkpt lat="45.8385840" lon="9.2272550">
	<ele>422.20</ele>
	<time>2025-02-15T06:53:58.000Z</time>
</trkpt>
<trkpt lat="45.8385810" lon="9.2272540">
	<ele>422.40</ele>
	<time>2025-02-15T06:53:59.000Z</time>
</trkpt>
<trkpt lat="45.8385720" lon="9.2272540">
	<ele>422.60</ele>
	<time>2025-02-15T06:54:00.000Z</time>
</trkpt>
<trkpt lat="45.8385640" lon="9.2272540">
	<ele>422.60</ele>
	<time>2025-02-15T06:54:01.000Z</time>
</trkpt>
<trkpt lat="45.8385610" lon="9.2272540">
	<ele>422.60</ele>
	<time>2025-02-15T06:54:02.000Z</time>
</trkpt>
<trkpt lat="45.8385620" lon="9.2272530">
	<ele>422.60</ele>
	<time>2025-02-15T06:54:03.000Z</time>
</trkpt>
<trkpt lat="45.8385550" lon="9.2272580">
	<ele>422.60</ele>
	<time>2025-02-15T06:54:04.000Z</time>
</trkpt>
<trkpt lat="45.8385540" lon="9.2272610">
	<ele>422.60</ele>
	<time>2025-02-15T06:54:05.000Z</time>
</trkpt>
<trkpt lat="45.8385620" lon="9.2272660">
	<ele>422.40</ele>
	<time>2025-02-15T06:54:06.000Z</time>
</trkpt>
<trkpt lat="45.8385590" lon="9.2272670">
	<ele>422.40</ele>
	<time>2025-02-15T06:54:07.000Z</time>
</trkpt>
<trkpt lat="45.8385520" lon="9.2272630">
	<ele>422.20</ele>
	<time>2025-02-15T06:54:08.000Z</time>
</trkpt>
<trkpt lat="45.8385430" lon="9.2272560">
	<ele>422.40</ele>
	<time>2025-02-15T06:54:09.000Z</time>
</trkpt>
<trkpt lat="45.8385410" lon="9.2272510">
	<ele>422.40</ele>
	<time>2025-02-15T06:54:10.000Z</time>
</trkpt>
<trkpt lat="45.8385340" lon="9.2272440">
	<ele>422.40</ele>
	<time>2025-02-15T06:54:11.000Z</time>
</trkpt>
<trkpt lat="45.8385350" lon="9.2272400">
	<ele>422.40</ele>
	<time>2025-02-15T06:54:12.000Z</time>
</trkpt>
<trkpt lat="45.8385400" lon="9.2272420">
	<ele>422.40</ele>
	<time>2025-02-15T06:54:13.000Z</time>
</trkpt>
<trkpt lat="45.8385440" lon="9.2272420">
	<ele>422.40</ele>
	<time>2025-02-15T06:54:14.000Z</time>
</trkpt>
<trkpt lat="45.8385550" lon="9.2272460">
	<ele>422.40</ele>
	<time>2025-02-15T06:54:15.000Z</time>
</trkpt>
<trkpt lat="45.8385580" lon="9.2272440">
	<ele>422.40</ele>
	<time>2025-02-15T06:54:16.000Z</time>
</trkpt>
<trkpt lat="45.8385580" lon="9.2272400">
	<ele>422.40</ele>
	<time>2025-02-15T06:54:17.000Z</time>
</trkpt>
<trkpt lat="45.8385560" lon="9.2272410">
	<ele>422.40</ele>
	<time>2025-02-15T06:54:18.000Z</time>
</trkpt>
<trkpt lat="45.8385480" lon="9.2272430">
	<ele>422.40</ele>
	<time>2025-02-15T06:54:19.000Z</time>
</trkpt>
<trkpt lat="45.8385460" lon="9.2272470">
	<ele>422.40</ele>
	<time>2025-02-15T06:54:20.000Z</time>
</trkpt>
<trkpt lat="45.8385360" lon="9.2272480">
	<ele>422.40</ele>
	<time>2025-02-15T06:54:21.000Z</time>
</trkpt>
<trkpt lat="45.8385300" lon="9.2272490">
	<ele>422.40</ele>
	<time>2025-02-15T06:54:22.000Z</time>
</trkpt>
<trkpt lat="45.8385280" lon="9.2272480">
	<ele>422.40</ele>
	<time>2025-02-15T06:54:23.000Z</time>
</trkpt>
<trkpt lat="45.8385260" lon="9.2272510">
	<ele>422.40</ele>
	<time>2025-02-15T06:54:24.000Z</time>
</trkpt>
<trkpt lat="45.8385260" lon="9.2272550">
	<ele>422.40</ele>
	<time>2025-02-15T06:54:25.000Z</time>
</trkpt>
<trkpt lat="45.8385250" lon="9.2272560">
	<ele>422.40</ele>
	<time>2025-02-15T06:54:26.000Z</time>
</trkpt>
<trkpt lat="45.8385310" lon="9.2272580">
	<ele>422.40</ele>
	<time>2025-02-15T06:54:27.000Z</time>
</trkpt>
<trkpt lat="45.8385300" lon="9.2272610">
	<ele>422.40</ele>
	<time>2025-02-15T06:54:28.000Z</time>
</trkpt>
<trkpt lat="45.8385330" lon="9.2272640">
	<ele>422.40</ele>
	<time>2025-02-15T06:54:29.000Z</time>
</trkpt>
<trkpt lat="45.8385350" lon="9.2272580">
	<ele>422.40</ele>
	<time>2025-02-15T06:54:30.000Z</time>
</trkpt>
<trkpt lat="45.8385320" lon="9.2272580">
	<ele>422.40</ele>
	<time>2025-02-15T06:54:31.000Z</time>
</trkpt>
<trkpt lat="45.8385300" lon="9.2272580">
	<ele>422.40</ele>
	<time>2025-02-15T06:54:32.000Z</time>
</trkpt>
<trkpt lat="45.8385320" lon="9.2272640">
	<ele>422.40</ele>
	<time>2025-02-15T06:54:33.000Z</time>
</trkpt>
<trkpt lat="45.8385350" lon="9.2272670">
	<ele>422.40</ele>
	<time>2025-02-15T06:54:34.000Z</time>
</trkpt>
<trkpt lat="45.8385300" lon="9.2272710">
	<ele>422.40</ele>
	<time>2025-02-15T06:54:35.000Z</time>
</trkpt>
<trkpt lat="45.8385300" lon="9.2272720">
	<ele>422.40</ele>
	<time>2025-02-15T06:54:36.000Z</time>
</trkpt>
<trkpt lat="45.8385280" lon="9.2272720">
	<ele>422.40</ele>
	<time>2025-02-15T06:54:37.000Z</time>
</trkpt>
<trkpt lat="45.8385280" lon="9.2272720">
	<ele>422.40</ele>
	<time>2025-02-15T06:54:38.000Z</time>
</trkpt>
<trkpt lat="45.8385280" lon="9.2272720">
	<ele>422.40</ele>
	<time>2025-02-15T06:54:39.000Z</time>
</trkpt>
<trkpt lat="45.8385280" lon="9.2272720">
	<ele>422.40</ele>
	<time>2025-02-15T06:54:40.000Z</time>
</trkpt>
<trkpt lat="45.8385280" lon="9.2272720">
	<ele>422.40</ele>
	<time>2025-02-15T06:54:41.000Z</time>
</trkpt>
<trkpt lat="45.8385280" lon="9.2272720">
	<ele>422.40</ele>
	<time>2025-02-15T06:54:42.000Z</time>
</trkpt>
<trkpt lat="45.8385280" lon="9.2272720">
	<ele>422.40</ele>
	<time>2025-02-15T06:54:43.000Z</time>
</trkpt>
<trkpt lat="45.8385280" lon="9.2272720">
	<ele>422.40</ele>
	<time>2025-02-15T06:54:44.000Z</time>
</trkpt>
<trkpt lat="45.8385300" lon="9.2272720">
	<ele>422.40</ele>
	<time>2025-02-15T06:54:45.000Z</time>
</trkpt>
<trkpt lat="45.8385300" lon="9.2272720">
	<ele>422.40</ele>
	<time>2025-02-15T06:54:46.000Z</time>
</trkpt>
<trkpt lat="45.8385300" lon="9.2272720">
	<ele>422.40</ele>
	<time>2025-02-15T06:54:47.000Z</time>
</trkpt>
<trkpt lat="45.8385300" lon="9.2272720">
	<ele>422.40</ele>
	<time>2025-02-15T06:54:48.000Z</time>
</trkpt>
<trkpt lat="45.8385310" lon="9.2272720">
	<ele>422.40</ele>
	<time>2025-02-15T06:54:49.000Z</time>
</trkpt>
<trkpt lat="45.8385320" lon="9.2272720">
	<ele>422.40</ele>
	<time>2025-02-15T06:54:50.000Z</time>
</trkpt>
<trkpt lat="45.8385320" lon="9.2272720">
	<ele>422.40</ele>
	<time>2025-02-15T06:54:51.000Z</time>
</trkpt>
<trkpt lat="45.8385320" lon="9.2272720">
	<ele>422.40</ele>
	<time>2025-02-15T06:54:52.000Z</time>
</trkpt>
<trkpt lat="45.8385410" lon="9.2272740">
	<ele>422.40</ele>
	<time>2025-02-15T06:54:53.000Z</time>
</trkpt>
<trkpt lat="45.8385620" lon="9.2272700">
	<ele>422.40</ele>
	<time>2025-02-15T06:54:54.000Z</time>
</trkpt>
<trkpt lat="45.8385880" lon="9.2272590">
	<ele>422.40</ele>
	<time>2025-02-15T06:54:55.000Z</time>
</trkpt>
<trkpt lat="45.8386120" lon="9.2272410">
	<ele>422.40</ele>
	<time>2025-02-15T06:54:56.000Z</time>
</trkpt>
<trkpt lat="45.8386290" lon="9.2272310">
	<ele>422.40</ele>
	<time>2025-02-15T06:54:57.000Z</time>
</trkpt>
<trkpt lat="45.8386360" lon="9.2272130">
	<ele>422.40</ele>
	<time>2025-02-15T06:54:58.000Z</time>
</trkpt>
<trkpt lat="45.8386450" lon="9.2271900">
	<ele>422.40</ele>
	<time>2025-02-15T06:54:59.000Z</time>
</trkpt>
<trkpt lat="45.8386550" lon="9.2271630">
	<ele>422.40</ele>
	<time>2025-02-15T06:55:00.000Z</time>
</trkpt>
<trkpt lat="45.8386640" lon="9.2271390">
	<ele>421.40</ele>
	<time>2025-02-15T06:55:01.000Z</time>
</trkpt>
<trkpt lat="45.8386780" lon="9.2271300">
	<ele>421.40</ele>
	<time>2025-02-15T06:55:02.000Z</time>
</trkpt>
<trkpt lat="45.8386870" lon="9.2271220">
	<ele>421.40</ele>
	<time>2025-02-15T06:55:03.000Z</time>
</trkpt>
<trkpt lat="45.8386980" lon="9.2271180">
	<ele>421.00</ele>
	<time>2025-02-15T06:55:04.000Z</time>
</trkpt>
<trkpt lat="45.8386990" lon="9.2271110">
	<ele>420.60</ele>
	<time>2025-02-15T06:55:05.000Z</time>
</trkpt>
<trkpt lat="45.8387010" lon="9.2271090">
	<ele>420.40</ele>
	<time>2025-02-15T06:55:06.000Z</time>
</trkpt>
<trkpt lat="45.8387040" lon="9.2271020">
	<ele>420.20</ele>
	<time>2025-02-15T06:55:07.000Z</time>
</trkpt>
<trkpt lat="45.8387050" lon="9.2270910">
	<ele>420.20</ele>
	<time>2025-02-15T06:55:08.000Z</time>
</trkpt>
<trkpt lat="45.8387070" lon="9.2270950">
	<ele>420.00</ele>
	<time>2025-02-15T06:55:09.000Z</time>
</trkpt>
<trkpt lat="45.8387070" lon="9.2270870">
	<ele>420.00</ele>
	<time>2025-02-15T06:55:10.000Z</time>
</trkpt>
<trkpt lat="45.8387090" lon="9.2270830">
	<ele>420.00</ele>
	<time>2025-02-15T06:55:11.000Z</time>
</trkpt>
<trkpt lat="45.8387020" lon="9.2270760">
	<ele>419.80</ele>
	<time>2025-02-15T06:55:12.000Z</time>
</trkpt>
<trkpt lat="45.8386990" lon="9.2270700">
	<ele>419.60</ele>
	<time>2025-02-15T06:55:13.000Z</time>
</trkpt>
<trkpt lat="45.8387000" lon="9.2270690">
	<ele>419.60</ele>
	<time>2025-02-15T06:55:14.000Z</time>
</trkpt>
<trkpt lat="45.8387010" lon="9.2270770">
	<ele>419.40</ele>
	<time>2025-02-15T06:55:15.000Z</time>
</trkpt>
<trkpt lat="45.8387030" lon="9.2270910">
	<ele>419.40</ele>
	<time>2025-02-15T06:55:16.000Z</time>
</trkpt>
<trkpt lat="45.8387030" lon="9.2271000">
	<ele>419.20</ele>
	<time>2025-02-15T06:55:17.000Z</time>
</trkpt>
<trkpt lat="45.8387020" lon="9.2270970">
	<ele>420.40</ele>
	<time>2025-02-15T06:55:18.000Z</time>
</trkpt>
<trkpt lat="45.8387090" lon="9.2270980">
	<ele>420.40</ele>
	<time>2025-02-15T06:55:19.000Z</time>
</trkpt>
<trkpt lat="45.8387110" lon="9.2270930">
	<ele>420.40</ele>
	<time>2025-02-15T06:55:20.000Z</time>
</trkpt>
<trkpt lat="45.8387110" lon="9.2270920">
	<ele>420.40</ele>
	<time>2025-02-15T06:55:21.000Z</time>
</trkpt>
<trkpt lat="45.8387110" lon="9.2270920">
	<ele>420.40</ele>
	<time>2025-02-15T06:55:22.000Z</time>
</trkpt>
<trkpt lat="45.8387110" lon="9.2270920">
	<ele>420.60</ele>
	<time>2025-02-15T06:55:23.000Z</time>
</trkpt>
<trkpt lat="45.8387110" lon="9.2270920">
	<ele>420.60</ele>
	<time>2025-02-15T06:55:24.000Z</time>
</trkpt>
<trkpt lat="45.8387110" lon="9.2270920">
	<ele>420.80</ele>
	<time>2025-02-15T06:55:25.000Z</time>
</trkpt>
<trkpt lat="45.8387110" lon="9.2270920">
	<ele>421.00</ele>
	<time>2025-02-15T06:55:26.000Z</time>
</trkpt>
<trkpt lat="45.8387110" lon="9.2270920">
	<ele>421.00</ele>
	<time>2025-02-15T06:55:27.000Z</time>
</trkpt>
<trkpt lat="45.8387110" lon="9.2270920">
	<ele>421.00</ele>
	<time>2025-02-15T06:55:28.000Z</time>
</trkpt>
<trkpt lat="45.8387110" lon="9.2270920">
	<ele>421.00</ele>
	<time>2025-02-15T06:55:29.000Z</time>
</trkpt>
<trkpt lat="45.8387110" lon="9.2270920">
	<ele>421.00</ele>
	<time>2025-02-15T06:55:30.000Z</time>
</trkpt>
<trkpt lat="45.8387110" lon="9.2270920">
	<ele>421.00</ele>
	<time>2025-02-15T06:55:31.000Z</time>
</trkpt>
<trkpt lat="45.8387110" lon="9.2270920">
	<ele>421.00</ele>
	<time>2025-02-15T06:55:32.000Z</time>
</trkpt>
<trkpt lat="45.8387110" lon="9.2270920">
	<ele>420.80</ele>
	<time>2025-02-15T06:55:33.000Z</time>
</trkpt>
<trkpt lat="45.8387160" lon="9.2270970">
	<ele>420.80</ele>
	<time>2025-02-15T06:55:34.000Z</time>
</trkpt>
<trkpt lat="45.8387310" lon="9.2271060">
	<ele>420.80</ele>
	<time>2025-02-15T06:55:35.000Z</time>
</trkpt>
<trkpt lat="45.8387460" lon="9.2271060">
	<ele>420.80</ele>
	<time>2025-02-15T06:55:36.000Z</time>
</trkpt>
<trkpt lat="45.8387610" lon="9.2271130">
	<ele>421.00</ele>
	<time>2025-02-15T06:55:37.000Z</time>
</trkpt>
<trkpt lat="45.8387770" lon="9.2271220">
	<ele>421.20</ele>
	<time>2025-02-15T06:55:38.000Z</time>
</trkpt>
<trkpt lat="45.8387800" lon="9.2271430">
	<ele>421.60</ele>
	<time>2025-02-15T06:55:39.000Z</time>
</trkpt>
<trkpt lat="45.8387870" lon="9.2271680">
	<ele>421.80</ele>
	<time>2025-02-15T06:55:40.000Z</time>
</trkpt>
<trkpt lat="45.8387970" lon="9.2271900">
	<ele>422.20</ele>
	<time>2025-02-15T06:55:41.000Z</time>
</trkpt>
<trkpt lat="45.8388080" lon="9.2272090">
	<ele>422.40</ele>
	<time>2025-02-15T06:55:42.000Z</time>
</trkpt>
<trkpt lat="45.8388160" lon="9.2272240">
	<ele>422.60</ele>
	<time>2025-02-15T06:55:43.000Z</time>
</trkpt>
<trkpt lat="45.8388230" lon="9.2272250">
	<ele>422.80</ele>
	<time>2025-02-15T06:55:44.000Z</time>
</trkpt>
<trkpt lat="45.8388370" lon="9.2272220">
	<ele>423.00</ele>
	<time>2025-02-15T06:55:45.000Z</time>
</trkpt>
<trkpt lat="45.8388590" lon="9.2272220">
	<ele>423.40</ele>
	<time>2025-02-15T06:55:46.000Z</time>
</trkpt>
<trkpt lat="45.8388750" lon="9.2272160">
	<ele>423.40</ele>
	<time>2025-02-15T06:55:47.000Z</time>
</trkpt>
<trkpt lat="45.8388870" lon="9.2272030">
	<ele>423.60</ele>
	<time>2025-02-15T06:55:48.000Z</time>
</trkpt>
<trkpt lat="45.8389050" lon="9.2272000">
	<ele>423.80</ele>
	<time>2025-02-15T06:55:49.000Z</time>
</trkpt>
<trkpt lat="45.8389130" lon="9.2271880">
	<ele>423.80</ele>
	<time>2025-02-15T06:55:50.000Z</time>
</trkpt>
<trkpt lat="45.8389220" lon="9.2271720">
	<ele>424.00</ele>
	<time>2025-02-15T06:55:51.000Z</time>
</trkpt>
<trkpt lat="45.8389350" lon="9.2271620">
	<ele>424.00</ele>
	<time>2025-02-15T06:55:52.000Z</time>
</trkpt>
<trkpt lat="45.8389490" lon="9.2271560">
	<ele>424.20</ele>
	<time>2025-02-15T06:55:53.000Z</time>
</trkpt>
<trkpt lat="45.8389510" lon="9.2271430">
	<ele>424.20</ele>
	<time>2025-02-15T06:55:54.000Z</time>
</trkpt>
<trkpt lat="45.8389550" lon="9.2271300">
	<ele>424.20</ele>
	<time>2025-02-15T06:55:55.000Z</time>
</trkpt>
<trkpt lat="45.8389510" lon="9.2271060">
	<ele>424.40</ele>
	<time>2025-02-15T06:55:56.000Z</time>
</trkpt>
<trkpt lat="45.8389650" lon="9.2270990">
	<ele>424.40</ele>
	<time>2025-02-15T06:55:57.000Z</time>
</trkpt>
<trkpt lat="45.8389820" lon="9.2270940">
	<ele>424.40</ele>
	<time>2025-02-15T06:55:58.000Z</time>
</trkpt>
<trkpt lat="45.8389980" lon="9.2270890">
	<ele>424.60</ele>
	<time>2025-02-15T06:55:59.000Z</time>
</trkpt>
<trkpt lat="45.8390280" lon="9.2270900">
	<ele>424.80</ele>
	<time>2025-02-15T06:56:00.000Z</time>
</trkpt>
<trkpt lat="45.8390460" lon="9.2270820">
	<ele>424.80</ele>
	<time>2025-02-15T06:56:01.000Z</time>
</trkpt>
<trkpt lat="45.8390710" lon="9.2270790">
	<ele>424.80</ele>
	<time>2025-02-15T06:56:02.000Z</time>
</trkpt>
<trkpt lat="45.8391030" lon="9.2270870">
	<ele>425.00</ele>
	<time>2025-02-15T06:56:03.000Z</time>
</trkpt>
<trkpt lat="45.8391350" lon="9.2270920">
	<ele>425.00</ele>
	<time>2025-02-15T06:56:04.000Z</time>
</trkpt>
<trkpt lat="45.8391620" lon="9.2270970">
	<ele>425.20</ele>
	<time>2025-02-15T06:56:05.000Z</time>
</trkpt>
<trkpt lat="45.8391890" lon="9.2270950">
	<ele>425.20</ele>
	<time>2025-02-15T06:56:06.000Z</time>
</trkpt>
<trkpt lat="45.8392200" lon="9.2270990">
	<ele>425.40</ele>
	<time>2025-02-15T06:56:07.000Z</time>
</trkpt>
<trkpt lat="45.8392410" lon="9.2270880">
	<ele>425.40</ele>
	<time>2025-02-15T06:56:08.000Z</time>
</trkpt>
<trkpt lat="45.8392480" lon="9.2270700">
	<ele>425.60</ele>
	<time>2025-02-15T06:56:09.000Z</time>
</trkpt>
<trkpt lat="45.8392610" lon="9.2270580">
	<ele>425.60</ele>
	<time>2025-02-15T06:56:10.000Z</time>
</trkpt>
<trkpt lat="45.8392710" lon="9.2270470">
	<ele>425.80</ele>
	<time>2025-02-15T06:56:11.000Z</time>
</trkpt>
<trkpt lat="45.8392870" lon="9.2270380">
	<ele>425.80</ele>
	<time>2025-02-15T06:56:12.000Z</time>
</trkpt>
<trkpt lat="45.8392990" lon="9.2270260">
	<ele>425.80</ele>
	<time>2025-02-15T06:56:13.000Z</time>
</trkpt>
<trkpt lat="45.8393120" lon="9.2270140">
	<ele>426.00</ele>
	<time>2025-02-15T06:56:14.000Z</time>
</trkpt>
<trkpt lat="45.8393210" lon="9.2270000">
	<ele>426.00</ele>
	<time>2025-02-15T06:56:15.000Z</time>
</trkpt>
<trkpt lat="45.8393280" lon="9.2269860">
	<ele>426.00</ele>
	<time>2025-02-15T06:56:16.000Z</time>
</trkpt>
<trkpt lat="45.8393360" lon="9.2269740">
	<ele>426.00</ele>
	<time>2025-02-15T06:56:17.000Z</time>
</trkpt>
<trkpt lat="45.8393460" lon="9.2269640">
	<ele>426.20</ele>
	<time>2025-02-15T06:56:18.000Z</time>
</trkpt>
<trkpt lat="45.8393550" lon="9.2269550">
	<ele>426.20</ele>
	<time>2025-02-15T06:56:19.000Z</time>
</trkpt>
<trkpt lat="45.8393630" lon="9.2269410">
	<ele>426.20</ele>
	<time>2025-02-15T06:56:20.000Z</time>
</trkpt>
<trkpt lat="45.8393710" lon="9.2269300">
	<ele>426.20</ele>
	<time>2025-02-15T06:56:21.000Z</time>
</trkpt>
<trkpt lat="45.8393820" lon="9.2269200">
	<ele>426.20</ele>
	<time>2025-02-15T06:56:22.000Z</time>
</trkpt>
<trkpt lat="45.8393960" lon="9.2269150">
	<ele>426.40</ele>
	<time>2025-02-15T06:56:23.000Z</time>
</trkpt>
<trkpt lat="45.8394090" lon="9.2269120">
	<ele>426.40</ele>
	<time>2025-02-15T06:56:24.000Z</time>
</trkpt>
<trkpt lat="45.8394220" lon="9.2269020">
	<ele>426.60</ele>
	<time>2025-02-15T06:56:25.000Z</time>
</trkpt>
<trkpt lat="45.8394380" lon="9.2268960">
	<ele>426.60</ele>
	<time>2025-02-15T06:56:26.000Z</time>
</trkpt>
<trkpt lat="45.8394530" lon="9.2268970">
	<ele>427.00</ele>
	<time>2025-02-15T06:56:27.000Z</time>
</trkpt>
<trkpt lat="45.8394630" lon="9.2268920">
	<ele>427.00</ele>
	<time>2025-02-15T06:56:28.000Z</time>
</trkpt>
<trkpt lat="45.8394710" lon="9.2268830">
	<ele>427.20</ele>
	<time>2025-02-15T06:56:29.000Z</time>
</trkpt>
<trkpt lat="45.8394750" lon="9.2268850">
	<ele>427.80</ele>
	<time>2025-02-15T06:56:30.000Z</time>
</trkpt>
<trkpt lat="45.8394790" lon="9.2268740">
	<ele>428.00</ele>
	<time>2025-02-15T06:56:31.000Z</time>
</trkpt>
<trkpt lat="45.8394670" lon="9.2268500">
	<ele>428.20</ele>
	<time>2025-02-15T06:56:32.000Z</time>
</trkpt>
<trkpt lat="45.8394610" lon="9.2268440">
	<ele>428.20</ele>
	<time>2025-02-15T06:56:33.000Z</time>
</trkpt>
<trkpt lat="45.8394670" lon="9.2268480">
	<ele>428.40</ele>
	<time>2025-02-15T06:56:34.000Z</time>
</trkpt>
<trkpt lat="45.8394780" lon="9.2268570">
	<ele>428.40</ele>
	<time>2025-02-15T06:56:35.000Z</time>
</trkpt>
<trkpt lat="45.8394900" lon="9.2268630">
	<ele>428.60</ele>
	<time>2025-02-15T06:56:36.000Z</time>
</trkpt>
<trkpt lat="45.8394990" lon="9.2268600">
	<ele>428.60</ele>
	<time>2025-02-15T06:56:37.000Z</time>
</trkpt>
<trkpt lat="45.8395080" lon="9.2268590">
	<ele>428.60</ele>
	<time>2025-02-15T06:56:38.000Z</time>
</trkpt>
<trkpt lat="45.8395160" lon="9.2268540">
	<ele>428.60</ele>
	<time>2025-02-15T06:56:39.000Z</time>
</trkpt>
<trkpt lat="45.8395210" lon="9.2268510">
	<ele>428.80</ele>
	<time>2025-02-15T06:56:40.000Z</time>
</trkpt>
<trkpt lat="45.8395300" lon="9.2268440">
	<ele>429.00</ele>
	<time>2025-02-15T06:56:41.000Z</time>
</trkpt>
<trkpt lat="45.8395400" lon="9.2268330">
	<ele>429.20</ele>
	<time>2025-02-15T06:56:42.000Z</time>
</trkpt>
<trkpt lat="45.8395410" lon="9.2268180">
	<ele>429.40</ele>
	<time>2025-02-15T06:56:43.000Z</time>
</trkpt>
<trkpt lat="45.8395440" lon="9.2268120">
	<ele>429.60</ele>
	<time>2025-02-15T06:56:44.000Z</time>
</trkpt>
<trkpt lat="45.8395530" lon="9.2268050">
	<ele>430.00</ele>
	<time>2025-02-15T06:56:45.000Z</time>
</trkpt>
<trkpt lat="45.8395660" lon="9.2268010">
	<ele>430.20</ele>
	<time>2025-02-15T06:56:46.000Z</time>
</trkpt>
<trkpt lat="45.8395850" lon="9.2267990">
	<ele>430.40</ele>
	<time>2025-02-15T06:56:47.000Z</time>
</trkpt>
<trkpt lat="45.8395970" lon="9.2267980">
	<ele>430.60</ele>
	<time>2025-02-15T06:56:48.000Z</time>
</trkpt>
<trkpt lat="45.8396000" lon="9.2267870">
	<ele>431.00</ele>
	<time>2025-02-15T06:56:49.000Z</time>
</trkpt>
<trkpt lat="45.8396060" lon="9.2267830">
	<ele>431.20</ele>
	<time>2025-02-15T06:56:50.000Z</time>
</trkpt>
<trkpt lat="45.8396120" lon="9.2267750">
	<ele>431.40</ele>
	<time>2025-02-15T06:56:51.000Z</time>
</trkpt>
<trkpt lat="45.8396230" lon="9.2267750">
	<ele>431.60</ele>
	<time>2025-02-15T06:56:52.000Z</time>
</trkpt>
<trkpt lat="45.8396300" lon="9.2267690">
	<ele>432.00</ele>
	<time>2025-02-15T06:56:53.000Z</time>
</trkpt>
<trkpt lat="45.8396310" lon="9.2267470">
	<ele>432.00</ele>
	<time>2025-02-15T06:56:54.000Z</time>
</trkpt>
<trkpt lat="45.8396340" lon="9.2267440">
	<ele>432.40</ele>
	<time>2025-02-15T06:56:55.000Z</time>
</trkpt>
<trkpt lat="45.8396420" lon="9.2267300">
	<ele>432.80</ele>
	<time>2025-02-15T06:56:56.000Z</time>
</trkpt>
<trkpt lat="45.8396480" lon="9.2267150">
	<ele>433.00</ele>
	<time>2025-02-15T06:56:57.000Z</time>
</trkpt>
<trkpt lat="45.8396570" lon="9.2267010">
	<ele>433.20</ele>
	<time>2025-02-15T06:56:58.000Z</time>
</trkpt>
<trkpt lat="45.8396710" lon="9.2267050">
	<ele>433.40</ele>
	<time>2025-02-15T06:56:59.000Z</time>
</trkpt>
<trkpt lat="45.8396860" lon="9.2267030">
	<ele>433.40</ele>
	<time>2025-02-15T06:57:00.000Z</time>
</trkpt>
<trkpt lat="45.8396890" lon="9.2266860">
	<ele>433.80</ele>
	<time>2025-02-15T06:57:01.000Z</time>
</trkpt>
<trkpt lat="45.8396930" lon="9.2266710">
	<ele>433.80</ele>
	<time>2025-02-15T06:57:02.000Z</time>
</trkpt>
<trkpt lat="45.8397010" lon="9.2266610">
	<ele>434.20</ele>
	<time>2025-02-15T06:57:03.000Z</time>
</trkpt>
<trkpt lat="45.8397050" lon="9.2266510">
	<ele>434.40</ele>
	<time>2025-02-15T06:57:04.000Z</time>
</trkpt>
<trkpt lat="45.8397040" lon="9.2266340">
	<ele>434.80</ele>
	<time>2025-02-15T06:57:05.000Z</time>
</trkpt>
<trkpt lat="45.8397060" lon="9.2266290">
	<ele>434.80</ele>
	<time>2025-02-15T06:57:06.000Z</time>
</trkpt>
<trkpt lat="45.8397060" lon="9.2266290">
	<ele>435.00</ele>
	<time>2025-02-15T06:57:07.000Z</time>
</trkpt>
<trkpt lat="45.8397060" lon="9.2266290">
	<ele>435.00</ele>
	<time>2025-02-15T06:57:08.000Z</time>
</trkpt>
<trkpt lat="45.8397060" lon="9.2266290">
	<ele>435.20</ele>
	<time>2025-02-15T06:57:09.000Z</time>
</trkpt>
<trkpt lat="45.8397040" lon="9.2266270">
	<ele>435.20</ele>
	<time>2025-02-15T06:57:10.000Z</time>
</trkpt>
<trkpt lat="45.8397000" lon="9.2266260">
	<ele>435.20</ele>
	<time>2025-02-15T06:57:11.000Z</time>
</trkpt>
<trkpt lat="45.8396980" lon="9.2266240">
	<ele>435.20</ele>
	<time>2025-02-15T06:57:12.000Z</time>
</trkpt>
<trkpt lat="45.8396910" lon="9.2266080">
	<ele>435.40</ele>
	<time>2025-02-15T06:57:13.000Z</time>
</trkpt>
<trkpt lat="45.8396850" lon="9.2266070">
	<ele>435.40</ele>
	<time>2025-02-15T06:57:14.000Z</time>
</trkpt>
<trkpt lat="45.8396880" lon="9.2266090">
	<ele>435.40</ele>
	<time>2025-02-15T06:57:15.000Z</time>
</trkpt>
<trkpt lat="45.8396930" lon="9.2266010">
	<ele>435.40</ele>
	<time>2025-02-15T06:57:16.000Z</time>
</trkpt>
<trkpt lat="45.8396980" lon="9.2265880">
	<ele>435.40</ele>
	<time>2025-02-15T06:57:17.000Z</time>
</trkpt>
<trkpt lat="45.8397020" lon="9.2265860">
	<ele>435.60</ele>
	<time>2025-02-15T06:57:18.000Z</time>
</trkpt>
<trkpt lat="45.8397050" lon="9.2265760">
	<ele>435.60</ele>
	<time>2025-02-15T06:57:19.000Z</time>
</trkpt>
<trkpt lat="45.8397060" lon="9.2265700">
	<ele>435.80</ele>
	<time>2025-02-15T06:57:20.000Z</time>
</trkpt>
<trkpt lat="45.8397080" lon="9.2265690">
	<ele>435.80</ele>
	<time>2025-02-15T06:57:21.000Z</time>
</trkpt>
<trkpt lat="45.8397160" lon="9.2265750">
	<ele>436.00</ele>
	<time>2025-02-15T06:57:22.000Z</time>
</trkpt>
<trkpt lat="45.8397170" lon="9.2265780">
	<ele>436.20</ele>
	<time>2025-02-15T06:57:23.000Z</time>
</trkpt>
<trkpt lat="45.8397220" lon="9.2265810">
	<ele>436.40</ele>
	<time>2025-02-15T06:57:24.000Z</time>
</trkpt>
<trkpt lat="45.8397230" lon="9.2265820">
	<ele>436.60</ele>
	<time>2025-02-15T06:57:25.000Z</time>
</trkpt>
<trkpt lat="45.8397250" lon="9.2265840">
	<ele>436.80</ele>
	<time>2025-02-15T06:57:26.000Z</time>
</trkpt>
<trkpt lat="45.8397270" lon="9.2265820">
	<ele>437.00</ele>
	<time>2025-02-15T06:57:27.000Z</time>
</trkpt>
<trkpt lat="45.8397270" lon="9.2265800">
	<ele>437.40</ele>
	<time>2025-02-15T06:57:28.000Z</time>
</trkpt>
<trkpt lat="45.8397350" lon="9.2265840">
	<ele>437.60</ele>
	<time>2025-02-15T06:57:29.000Z</time>
</trkpt>
<trkpt lat="45.8397430" lon="9.2265830">
	<ele>437.60</ele>
	<time>2025-02-15T06:57:30.000Z</time>
</trkpt>
<trkpt lat="45.8397500" lon="9.2265780">
	<ele>438.00</ele>
	<time>2025-02-15T06:57:31.000Z</time>
</trkpt>
<trkpt lat="45.8397520" lon="9.2265690">
	<ele>438.20</ele>
	<time>2025-02-15T06:57:32.000Z</time>
</trkpt>
<trkpt lat="45.8397610" lon="9.2265650">
	<ele>438.40</ele>
	<time>2025-02-15T06:57:33.000Z</time>
</trkpt>
<trkpt lat="45.8397680" lon="9.2265600">
	<ele>438.60</ele>
	<time>2025-02-15T06:57:34.000Z</time>
</trkpt>
<trkpt lat="45.8397720" lon="9.2265520">
	<ele>438.80</ele>
	<time>2025-02-15T06:57:35.000Z</time>
</trkpt>
<trkpt lat="45.8397790" lon="9.2265460">
	<ele>439.00</ele>
	<time>2025-02-15T06:57:36.000Z</time>
</trkpt>
<trkpt lat="45.8397920" lon="9.2265460">
	<ele>439.00</ele>
	<time>2025-02-15T06:57:37.000Z</time>
</trkpt>
<trkpt lat="45.8398020" lon="9.2265440">
	<ele>439.20</ele>
	<time>2025-02-15T06:57:38.000Z</time>
</trkpt>
<trkpt lat="45.8398110" lon="9.2265380">
	<ele>439.60</ele>
	<time>2025-02-15T06:57:39.000Z</time>
</trkpt>
<trkpt lat="45.8398200" lon="9.2265350">
	<ele>439.60</ele>
	<time>2025-02-15T06:57:40.000Z</time>
</trkpt>
<trkpt lat="45.8398280" lon="9.2265290">
	<ele>439.80</ele>
	<time>2025-02-15T06:57:41.000Z</time>
</trkpt>
<trkpt lat="45.8398380" lon="9.2265210">
	<ele>440.00</ele>
	<time>2025-02-15T06:57:42.000Z</time>
</trkpt>
<trkpt lat="45.8398490" lon="9.2265140">
	<ele>440.20</ele>
	<time>2025-02-15T06:57:43.000Z</time>
</trkpt>
<trkpt lat="45.8398650" lon="9.2265090">
	<ele>440.40</ele>
	<time>2025-02-15T06:57:44.000Z</time>
</trkpt>
<trkpt lat="45.8398810" lon="9.2265050">
	<ele>440.60</ele>
	<time>2025-02-15T06:57:45.000Z</time>
</trkpt>
<trkpt lat="45.8398920" lon="9.2264970">
	<ele>440.80</ele>
	<time>2025-02-15T06:57:46.000Z</time>
</trkpt>
<trkpt lat="45.8398920" lon="9.2264850">
	<ele>441.00</ele>
	<time>2025-02-15T06:57:47.000Z</time>
</trkpt>
<trkpt lat="45.8398980" lon="9.2264770">
	<ele>441.20</ele>
	<time>2025-02-15T06:57:48.000Z</time>
</trkpt>
<trkpt lat="45.8399080" lon="9.2264730">
	<ele>441.60</ele>
	<time>2025-02-15T06:57:49.000Z</time>
</trkpt>
<trkpt lat="45.8399160" lon="9.2264650">
	<ele>441.80</ele>
	<time>2025-02-15T06:57:50.000Z</time>
</trkpt>
<trkpt lat="45.8399230" lon="9.2264540">
	<ele>442.20</ele>
	<time>2025-02-15T06:57:51.000Z</time>
</trkpt>
<trkpt lat="45.8399310" lon="9.2264410">
	<ele>442.40</ele>
	<time>2025-02-15T06:57:52.000Z</time>
</trkpt>
<trkpt lat="45.8399380" lon="9.2264320">
	<ele>442.60</ele>
	<time>2025-02-15T06:57:53.000Z</time>
</trkpt>
<trkpt lat="45.8399500" lon="9.2264350">
	<ele>442.80</ele>
	<time>2025-02-15T06:57:54.000Z</time>
</trkpt>
<trkpt lat="45.8399600" lon="9.2264320">
	<ele>443.00</ele>
	<time>2025-02-15T06:57:55.000Z</time>
</trkpt>
<trkpt lat="45.8399690" lon="9.2264270">
	<ele>443.20</ele>
	<time>2025-02-15T06:57:56.000Z</time>
</trkpt>
<trkpt lat="45.8399780" lon="9.2264220">
	<ele>443.20</ele>
	<time>2025-02-15T06:57:57.000Z</time>
</trkpt>
<trkpt lat="45.8399910" lon="9.2264200">
	<ele>443.40</ele>
	<time>2025-02-15T06:57:58.000Z</time>
</trkpt>
<trkpt lat="45.8400000" lon="9.2264120">
	<ele>443.40</ele>
	<time>2025-02-15T06:57:59.000Z</time>
</trkpt>
<trkpt lat="45.8400100" lon="9.2264090">
	<ele>443.60</ele>
	<time>2025-02-15T06:58:00.000Z</time>
</trkpt>
<trkpt lat="45.8400230" lon="9.2264070">
	<ele>443.80</ele>
	<time>2025-02-15T06:58:01.000Z</time>
</trkpt>
<trkpt lat="45.8400330" lon="9.2264020">
	<ele>444.20</ele>
	<time>2025-02-15T06:58:02.000Z</time>
</trkpt>
<trkpt lat="45.8400410" lon="9.2263950">
	<ele>444.40</ele>
	<time>2025-02-15T06:58:03.000Z</time>
</trkpt>
<trkpt lat="45.8400490" lon="9.2263870">
	<ele>444.40</ele>
	<time>2025-02-15T06:58:04.000Z</time>
</trkpt>
<trkpt lat="45.8400610" lon="9.2263780">
	<ele>444.80</ele>
	<time>2025-02-15T06:58:05.000Z</time>
</trkpt>
<trkpt lat="45.8400640" lon="9.2263710">
	<ele>444.80</ele>
	<time>2025-02-15T06:58:06.000Z</time>
</trkpt>
<trkpt lat="45.8400700" lon="9.2263610">
	<ele>445.00</ele>
	<time>2025-02-15T06:58:07.000Z</time>
</trkpt>
<trkpt lat="45.8400710" lon="9.2263490">
	<ele>445.40</ele>
	<time>2025-02-15T06:58:08.000Z</time>
</trkpt>
<trkpt lat="45.8400780" lon="9.2263430">
	<ele>445.60</ele>
	<time>2025-02-15T06:58:09.000Z</time>
</trkpt>
<trkpt lat="45.8400920" lon="9.2263400">
	<ele>445.80</ele>
	<time>2025-02-15T06:58:10.000Z</time>
</trkpt>
<trkpt lat="45.8400990" lon="9.2263340">
	<ele>446.20</ele>
	<time>2025-02-15T06:58:11.000Z</time>
</trkpt>
<trkpt lat="45.8401040" lon="9.2263250">
	<ele>446.40</ele>
	<time>2025-02-15T06:58:12.000Z</time>
</trkpt>
<trkpt lat="45.8401050" lon="9.2263170">
	<ele>446.60</ele>
	<time>2025-02-15T06:58:13.000Z</time>
</trkpt>
<trkpt lat="45.8401090" lon="9.2263040">
	<ele>446.80</ele>
	<time>2025-02-15T06:58:14.000Z</time>
</trkpt>
<trkpt lat="45.8401180" lon="9.2262940">
	<ele>446.80</ele>
	<time>2025-02-15T06:58:15.000Z</time>
</trkpt>
<trkpt lat="45.8401310" lon="9.2262880">
	<ele>447.00</ele>
	<time>2025-02-15T06:58:16.000Z</time>
</trkpt>
<trkpt lat="45.8401380" lon="9.2262780">
	<ele>447.00</ele>
	<time>2025-02-15T06:58:17.000Z</time>
</trkpt>
<trkpt lat="45.8401500" lon="9.2262710">
	<ele>447.00</ele>
	<time>2025-02-15T06:58:18.000Z</time>
</trkpt>
<trkpt lat="45.8401540" lon="9.2262570">
	<ele>447.20</ele>
	<time>2025-02-15T06:58:19.000Z</time>
</trkpt>
<trkpt lat="45.8401470" lon="9.2262390">
	<ele>447.40</ele>
	<time>2025-02-15T06:58:20.000Z</time>
</trkpt>
<trkpt lat="45.8401540" lon="9.2262300">
	<ele>447.60</ele>
	<time>2025-02-15T06:58:21.000Z</time>
</trkpt>
<trkpt lat="45.8401620" lon="9.2262240">
	<ele>447.60</ele>
	<time>2025-02-15T06:58:22.000Z</time>
</trkpt>
<trkpt lat="45.8401740" lon="9.2262180">
	<ele>447.80</ele>
	<time>2025-02-15T06:58:23.000Z</time>
</trkpt>
<trkpt lat="45.8401830" lon="9.2262090">
	<ele>448.00</ele>
	<time>2025-02-15T06:58:24.000Z</time>
</trkpt>
<trkpt lat="45.8401790" lon="9.2261850">
	<ele>448.40</ele>
	<time>2025-02-15T06:58:25.000Z</time>
</trkpt>
<trkpt lat="45.8401760" lon="9.2261670">
	<ele>448.60</ele>
	<time>2025-02-15T06:58:26.000Z</time>
</trkpt>
<trkpt lat="45.8401780" lon="9.2261540">
	<ele>448.80</ele>
	<time>2025-02-15T06:58:27.000Z</time>
</trkpt>
<trkpt lat="45.8401960" lon="9.2261560">
	<ele>449.00</ele>
	<time>2025-02-15T06:58:28.000Z</time>
</trkpt>
<trkpt lat="45.8401940" lon="9.2261400">
	<ele>449.20</ele>
	<time>2025-02-15T06:58:29.000Z</time>
</trkpt>
<trkpt lat="45.8401900" lon="9.2261280">
	<ele>449.40</ele>
	<time>2025-02-15T06:58:30.000Z</time>
</trkpt>
<trkpt lat="45.8401860" lon="9.2261180">
	<ele>449.40</ele>
	<time>2025-02-15T06:58:31.000Z</time>
</trkpt>
<trkpt lat="45.8401940" lon="9.2261110">
	<ele>449.60</ele>
	<time>2025-02-15T06:58:32.000Z</time>
</trkpt>
<trkpt lat="45.8402080" lon="9.2261050">
	<ele>449.80</ele>
	<time>2025-02-15T06:58:33.000Z</time>
</trkpt>
<trkpt lat="45.8402140" lon="9.2260810">
	<ele>450.00</ele>
	<time>2025-02-15T06:58:34.000Z</time>
</trkpt>
<trkpt lat="45.8402290" lon="9.2260720">
	<ele>450.20</ele>
	<time>2025-02-15T06:58:35.000Z</time>
</trkpt>
<trkpt lat="45.8402280" lon="9.2260610">
	<ele>450.20</ele>
	<time>2025-02-15T06:58:36.000Z</time>
</trkpt>
<trkpt lat="45.8402190" lon="9.2260360">
	<ele>450.40</ele>
	<time>2025-02-15T06:58:37.000Z</time>
</trkpt>
<trkpt lat="45.8402100" lon="9.2260180">
	<ele>450.60</ele>
	<time>2025-02-15T06:58:38.000Z</time>
</trkpt>
<trkpt lat="45.8402150" lon="9.2260100">
	<ele>450.80</ele>
	<time>2025-02-15T06:58:39.000Z</time>
</trkpt>
<trkpt lat="45.8402140" lon="9.2260040">
	<ele>451.00</ele>
	<time>2025-02-15T06:58:40.000Z</time>
</trkpt>
<trkpt lat="45.8402120" lon="9.2260020">
	<ele>451.20</ele>
	<time>2025-02-15T06:58:41.000Z</time>
</trkpt>
<trkpt lat="45.8402200" lon="9.2259950">
	<ele>451.20</ele>
	<time>2025-02-15T06:58:42.000Z</time>
</trkpt>
<trkpt lat="45.8402320" lon="9.2259860">
	<ele>451.40</ele>
	<time>2025-02-15T06:58:43.000Z</time>
</trkpt>
<trkpt lat="45.8402430" lon="9.2259770">
	<ele>451.80</ele>
	<time>2025-02-15T06:58:44.000Z</time>
</trkpt>
<trkpt lat="45.8402730" lon="9.2259730">
	<ele>452.00</ele>
	<time>2025-02-15T06:58:45.000Z</time>
</trkpt>
<trkpt lat="45.8402930" lon="9.2259830">
	<ele>452.00</ele>
	<time>2025-02-15T06:58:46.000Z</time>
</trkpt>
<trkpt lat="45.8402970" lon="9.2259850">
	<ele>452.20</ele>
	<time>2025-02-15T06:58:47.000Z</time>
</trkpt>
<trkpt lat="45.8403110" lon="9.2259820">
	<ele>452.20</ele>
	<time>2025-02-15T06:58:48.000Z</time>
</trkpt>
<trkpt lat="45.8403220" lon="9.2259740">
	<ele>452.60</ele>
	<time>2025-02-15T06:58:49.000Z</time>
</trkpt>
<trkpt lat="45.8403430" lon="9.2259620">
	<ele>452.80</ele>
	<time>2025-02-15T06:58:50.000Z</time>
</trkpt>
<trkpt lat="45.8403550" lon="9.2259510">
	<ele>453.00</ele>
	<time>2025-02-15T06:58:51.000Z</time>
</trkpt>
<trkpt lat="45.8403670" lon="9.2259430">
	<ele>453.00</ele>
	<time>2025-02-15T06:58:52.000Z</time>
</trkpt>
<trkpt lat="45.8403700" lon="9.2259390">
	<ele>453.20</ele>
	<time>2025-02-15T06:58:53.000Z</time>
</trkpt>
<trkpt lat="45.8403740" lon="9.2259330">
	<ele>453.40</ele>
	<time>2025-02-15T06:58:54.000Z</time>
</trkpt>
<trkpt lat="45.8403770" lon="9.2259240">
	<ele>453.60</ele>
	<time>2025-02-15T06:58:55.000Z</time>
</trkpt>
<trkpt lat="45.8403850" lon="9.2259140">
	<ele>453.60</ele>
	<time>2025-02-15T06:58:56.000Z</time>
</trkpt>
<trkpt lat="45.8403890" lon="9.2259020">
	<ele>453.80</ele>
	<time>2025-02-15T06:58:57.000Z</time>
</trkpt>
<trkpt lat="45.8403960" lon="9.2258900">
	<ele>454.00</ele>
	<time>2025-02-15T06:58:58.000Z</time>
</trkpt>
<trkpt lat="45.8404100" lon="9.2258710">
	<ele>454.40</ele>
	<time>2025-02-15T06:58:59.000Z</time>
</trkpt>
<trkpt lat="45.8404230" lon="9.2258590">
	<ele>454.60</ele>
	<time>2025-02-15T06:59:00.000Z</time>
</trkpt>
<trkpt lat="45.8404290" lon="9.2258460">
	<ele>454.80</ele>
	<time>2025-02-15T06:59:01.000Z</time>
</trkpt>
<trkpt lat="45.8404390" lon="9.2258410">
	<ele>455.00</ele>
	<time>2025-02-15T06:59:02.000Z</time>
</trkpt>
<trkpt lat="45.8404470" lon="9.2258270">
	<ele>455.20</ele>
	<time>2025-02-15T06:59:03.000Z</time>
</trkpt>
<trkpt lat="45.8404570" lon="9.2258220">
	<ele>455.40</ele>
	<time>2025-02-15T06:59:04.000Z</time>
</trkpt>
<trkpt lat="45.8404600" lon="9.2258170">
	<ele>455.60</ele>
	<time>2025-02-15T06:59:05.000Z</time>
</trkpt>
<trkpt lat="45.8404660" lon="9.2258020">
	<ele>455.80</ele>
	<time>2025-02-15T06:59:06.000Z</time>
</trkpt>
<trkpt lat="45.8404690" lon="9.2257990">
	<ele>456.00</ele>
	<time>2025-02-15T06:59:07.000Z</time>
</trkpt>
<trkpt lat="45.8404650" lon="9.2257860">
	<ele>456.40</ele>
	<time>2025-02-15T06:59:08.000Z</time>
</trkpt>
<trkpt lat="45.8404620" lon="9.2257810">
	<ele>456.60</ele>
	<time>2025-02-15T06:59:09.000Z</time>
</trkpt>
<trkpt lat="45.8404610" lon="9.2257790">
	<ele>456.60</ele>
	<time>2025-02-15T06:59:10.000Z</time>
</trkpt>
<trkpt lat="45.8404620" lon="9.2257780">
	<ele>456.80</ele>
	<time>2025-02-15T06:59:11.000Z</time>
</trkpt>
<trkpt lat="45.8404600" lon="9.2257780">
	<ele>456.80</ele>
	<time>2025-02-15T06:59:12.000Z</time>
</trkpt>
<trkpt lat="45.8404610" lon="9.2257800">
	<ele>457.00</ele>
	<time>2025-02-15T06:59:13.000Z</time>
</trkpt>
<trkpt lat="45.8404500" lon="9.2257750">
	<ele>457.00</ele>
	<time>2025-02-15T06:59:14.000Z</time>
</trkpt>
<trkpt lat="45.8404410" lon="9.2257680">
	<ele>457.00</ele>
	<time>2025-02-15T06:59:15.000Z</time>
</trkpt>
<trkpt lat="45.8404390" lon="9.2257630">
	<ele>457.00</ele>
	<time>2025-02-15T06:59:16.000Z</time>
</trkpt>
<trkpt lat="45.8404340" lon="9.2257600">
	<ele>457.00</ele>
	<time>2025-02-15T06:59:17.000Z</time>
</trkpt>
<trkpt lat="45.8404320" lon="9.2257580">
	<ele>457.00</ele>
	<time>2025-02-15T06:59:18.000Z</time>
</trkpt>
<trkpt lat="45.8404310" lon="9.2257540">
	<ele>457.00</ele>
	<time>2025-02-15T06:59:19.000Z</time>
</trkpt>
<trkpt lat="45.8404340" lon="9.2257500">
	<ele>457.00</ele>
	<time>2025-02-15T06:59:20.000Z</time>
</trkpt>
<trkpt lat="45.8404400" lon="9.2257530">
	<ele>457.00</ele>
	<time>2025-02-15T06:59:21.000Z</time>
</trkpt>
<trkpt lat="45.8404480" lon="9.2257580">
	<ele>457.00</ele>
	<time>2025-02-15T06:59:22.000Z</time>
</trkpt>
<trkpt lat="45.8404540" lon="9.2257570">
	<ele>457.00</ele>
	<time>2025-02-15T06:59:23.000Z</time>
</trkpt>
<trkpt lat="45.8404610" lon="9.2257510">
	<ele>457.20</ele>
	<time>2025-02-15T06:59:24.000Z</time>
</trkpt>
<trkpt lat="45.8404680" lon="9.2257500">
	<ele>457.20</ele>
	<time>2025-02-15T06:59:25.000Z</time>
</trkpt>
<trkpt lat="45.8404740" lon="9.2257440">
	<ele>457.60</ele>
	<time>2025-02-15T06:59:26.000Z</time>
</trkpt>
<trkpt lat="45.8404810" lon="9.2257390">
	<ele>457.80</ele>
	<time>2025-02-15T06:59:27.000Z</time>
</trkpt>
<trkpt lat="45.8404900" lon="9.2257360">
	<ele>458.00</ele>
	<time>2025-02-15T06:59:28.000Z</time>
</trkpt>
<trkpt lat="45.8404990" lon="9.2257330">
	<ele>458.00</ele>
	<time>2025-02-15T06:59:29.000Z</time>
</trkpt>
<trkpt lat="45.8405110" lon="9.2257300">
	<ele>458.20</ele>
	<time>2025-02-15T06:59:30.000Z</time>
</trkpt>
<trkpt lat="45.8405230" lon="9.2257270">
	<ele>458.40</ele>
	<time>2025-02-15T06:59:31.000Z</time>
</trkpt>
<trkpt lat="45.8405320" lon="9.2257220">
	<ele>458.40</ele>
	<time>2025-02-15T06:59:32.000Z</time>
</trkpt>
<trkpt lat="45.8405390" lon="9.2257180">
	<ele>458.60</ele>
	<time>2025-02-15T06:59:33.000Z</time>
</trkpt>
<trkpt lat="45.8405460" lon="9.2257120">
	<ele>459.00</ele>
	<time>2025-02-15T06:59:34.000Z</time>
</trkpt>
<trkpt lat="45.8405460" lon="9.2256980">
	<ele>459.20</ele>
	<time>2025-02-15T06:59:35.000Z</time>
</trkpt>
<trkpt lat="45.8405450" lon="9.2256840">
	<ele>459.40</ele>
	<time>2025-02-15T06:59:36.000Z</time>
</trkpt>
<trkpt lat="45.8405380" lon="9.2256620">
	<ele>459.60</ele>
	<time>2025-02-15T06:59:37.000Z</time>
</trkpt>
<trkpt lat="45.8405370" lon="9.2256510">
	<ele>459.80</ele>
	<time>2025-02-15T06:59:38.000Z</time>
</trkpt>
<trkpt lat="45.8405530" lon="9.2256500">
	<ele>460.00</ele>
	<time>2025-02-15T06:59:39.000Z</time>
</trkpt>
<trkpt lat="45.8405640" lon="9.2256490">
	<ele>460.20</ele>
	<time>2025-02-15T06:59:40.000Z</time>
</trkpt>
<trkpt lat="45.8405800" lon="9.2256540">
	<ele>460.40</ele>
	<time>2025-02-15T06:59:41.000Z</time>
</trkpt>
<trkpt lat="45.8405870" lon="9.2256510">
	<ele>460.60</ele>
	<time>2025-02-15T06:59:42.000Z</time>
</trkpt>
<trkpt lat="45.8405780" lon="9.2256320">
	<ele>460.80</ele>
	<time>2025-02-15T06:59:43.000Z</time>
</trkpt>
<trkpt lat="45.8405740" lon="9.2256180">
	<ele>461.00</ele>
	<time>2025-02-15T06:59:44.000Z</time>
</trkpt>
<trkpt lat="45.8405730" lon="9.2256140">
	<ele>461.20</ele>
	<time>2025-02-15T06:59:45.000Z</time>
</trkpt>
<trkpt lat="45.8405680" lon="9.2256020">
	<ele>461.40</ele>
	<time>2025-02-15T06:59:46.000Z</time>
</trkpt>
<trkpt lat="45.8405630" lon="9.2255950">
	<ele>461.60</ele>
	<time>2025-02-15T06:59:47.000Z</time>
</trkpt>
<trkpt lat="45.8405620" lon="9.2255890">
	<ele>462.00</ele>
	<time>2025-02-15T06:59:48.000Z</time>
</trkpt>
<trkpt lat="45.8405630" lon="9.2255830">
	<ele>462.20</ele>
	<time>2025-02-15T06:59:49.000Z</time>
</trkpt>
<trkpt lat="45.8405610" lon="9.2255770">
	<ele>462.40</ele>
	<time>2025-02-15T06:59:50.000Z</time>
</trkpt>
<trkpt lat="45.8405680" lon="9.2255770">
	<ele>462.80</ele>
	<time>2025-02-15T06:59:51.000Z</time>
</trkpt>
<trkpt lat="45.8405750" lon="9.2255750">
	<ele>463.20</ele>
	<time>2025-02-15T06:59:52.000Z</time>
</trkpt>
<trkpt lat="45.8405820" lon="9.2255710">
	<ele>463.60</ele>
	<time>2025-02-15T06:59:53.000Z</time>
</trkpt>
<trkpt lat="45.8405910" lon="9.2255670">
	<ele>463.80</ele>
	<time>2025-02-15T06:59:54.000Z</time>
</trkpt>
<trkpt lat="45.8405910" lon="9.2255620">
	<ele>464.00</ele>
	<time>2025-02-15T06:59:55.000Z</time>
</trkpt>
<trkpt lat="45.8406000" lon="9.2255630">
	<ele>464.00</ele>
	<time>2025-02-15T06:59:56.000Z</time>
</trkpt>
<trkpt lat="45.8406130" lon="9.2255620">
	<ele>464.00</ele>
	<time>2025-02-15T06:59:57.000Z</time>
</trkpt>
<trkpt lat="45.8406240" lon="9.2255570">
	<ele>464.20</ele>
	<time>2025-02-15T06:59:58.000Z</time>
</trkpt>
<trkpt lat="45.8406340" lon="9.2255590">
	<ele>464.40</ele>
	<time>2025-02-15T06:59:59.000Z</time>
</trkpt>
<trkpt lat="45.8406350" lon="9.2255540">
	<ele>464.60</ele>
	<time>2025-02-15T07:00:00.000Z</time>
</trkpt>
<trkpt lat="45.8406390" lon="9.2255460">
	<ele>464.80</ele>
	<time>2025-02-15T07:00:01.000Z</time>
</trkpt>
<trkpt lat="45.8406410" lon="9.2255420">
	<ele>465.00</ele>
	<time>2025-02-15T07:00:02.000Z</time>
</trkpt>
<trkpt lat="45.8406420" lon="9.2255360">
	<ele>465.20</ele>
	<time>2025-02-15T07:00:03.000Z</time>
</trkpt>
<trkpt lat="45.8406440" lon="9.2255370">
	<ele>465.40</ele>
	<time>2025-02-15T07:00:04.000Z</time>
</trkpt>
<trkpt lat="45.8406440" lon="9.2255360">
	<ele>465.80</ele>
	<time>2025-02-15T07:00:05.000Z</time>
</trkpt>
<trkpt lat="45.8406470" lon="9.2255370">
	<ele>466.00</ele>
	<time>2025-02-15T07:00:06.000Z</time>
</trkpt>
<trkpt lat="45.8406550" lon="9.2255350">
	<ele>466.20</ele>
	<time>2025-02-15T07:00:07.000Z</time>
</trkpt>
<trkpt lat="45.8406640" lon="9.2255280">
	<ele>466.20</ele>
	<time>2025-02-15T07:00:08.000Z</time>
</trkpt>
<trkpt lat="45.8406760" lon="9.2255190">
	<ele>466.60</ele>
	<time>2025-02-15T07:00:09.000Z</time>
</trkpt>
<trkpt lat="45.8406850" lon="9.2255120">
	<ele>466.80</ele>
	<time>2025-02-15T07:00:10.000Z</time>
</trkpt>
<trkpt lat="45.8406890" lon="9.2255080">
	<ele>466.80</ele>
	<time>2025-02-15T07:00:11.000Z</time>
</trkpt>
<trkpt lat="45.8406910" lon="9.2255050">
	<ele>467.20</ele>
	<time>2025-02-15T07:00:12.000Z</time>
</trkpt>
<trkpt lat="45.8406900" lon="9.2255060">
	<ele>467.60</ele>
	<time>2025-02-15T07:00:13.000Z</time>
</trkpt>
<trkpt lat="45.8406950" lon="9.2254920">
	<ele>467.80</ele>
	<time>2025-02-15T07:00:14.000Z</time>
</trkpt>
<trkpt lat="45.8407000" lon="9.2254820">
	<ele>468.00</ele>
	<time>2025-02-15T07:00:15.000Z</time>
</trkpt>
<trkpt lat="45.8407130" lon="9.2254700">
	<ele>468.20</ele>
	<time>2025-02-15T07:00:16.000Z</time>
</trkpt>
<trkpt lat="45.8407220" lon="9.2254630">
	<ele>468.20</ele>
	<time>2025-02-15T07:00:17.000Z</time>
</trkpt>
<trkpt lat="45.8407230" lon="9.2254630">
	<ele>468.40</ele>
	<time>2025-02-15T07:00:18.000Z</time>
</trkpt>
<trkpt lat="45.8407240" lon="9.2254690">
	<ele>468.60</ele>
	<time>2025-02-15T07:00:19.000Z</time>
</trkpt>
<trkpt lat="45.8407270" lon="9.2254670">
	<ele>469.00</ele>
	<time>2025-02-15T07:00:20.000Z</time>
</trkpt>
<trkpt lat="45.8407400" lon="9.2254670">
	<ele>469.20</ele>
	<time>2025-02-15T07:00:21.000Z</time>
</trkpt>
<trkpt lat="45.8407540" lon="9.2254620">
	<ele>469.40</ele>
	<time>2025-02-15T07:00:22.000Z</time>
</trkpt>
<trkpt lat="45.8407620" lon="9.2254590">
	<ele>469.80</ele>
	<time>2025-02-15T07:00:23.000Z</time>
</trkpt>
<trkpt lat="45.8407700" lon="9.2254560">
	<ele>470.00</ele>
	<time>2025-02-15T07:00:24.000Z</time>
</trkpt>
<trkpt lat="45.8407810" lon="9.2254500">
	<ele>470.40</ele>
	<time>2025-02-15T07:00:25.000Z</time>
</trkpt>
<trkpt lat="45.8407890" lon="9.2254440">
	<ele>470.60</ele>
	<time>2025-02-15T07:00:26.000Z</time>
</trkpt>
<trkpt lat="45.8407940" lon="9.2254420">
	<ele>470.80</ele>
	<time>2025-02-15T07:00:27.000Z</time>
</trkpt>
<trkpt lat="45.8407970" lon="9.2254370">
	<ele>471.00</ele>
	<time>2025-02-15T07:00:28.000Z</time>
</trkpt>
<trkpt lat="45.8408060" lon="9.2254310">
	<ele>471.60</ele>
	<time>2025-02-15T07:00:29.000Z</time>
</trkpt>
<trkpt lat="45.8408120" lon="9.2254280">
	<ele>472.00</ele>
	<time>2025-02-15T07:00:30.000Z</time>
</trkpt>
<trkpt lat="45.8408180" lon="9.2254230">
	<ele>472.20</ele>
	<time>2025-02-15T07:00:31.000Z</time>
</trkpt>
<trkpt lat="45.8408210" lon="9.2254180">
	<ele>472.40</ele>
	<time>2025-02-15T07:00:32.000Z</time>
</trkpt>
<trkpt lat="45.8408310" lon="9.2254190">
	<ele>472.60</ele>
	<time>2025-02-15T07:00:33.000Z</time>
</trkpt>
<trkpt lat="45.8408380" lon="9.2254140">
	<ele>473.20</ele>
	<time>2025-02-15T07:00:34.000Z</time>
</trkpt>
<trkpt lat="45.8408480" lon="9.2254080">
	<ele>473.40</ele>
	<time>2025-02-15T07:00:35.000Z</time>
</trkpt>
<trkpt lat="45.8408490" lon="9.2253990">
	<ele>473.60</ele>
	<time>2025-02-15T07:00:36.000Z</time>
</trkpt>
<trkpt lat="45.8408500" lon="9.2253920">
	<ele>473.60</ele>
	<time>2025-02-15T07:00:37.000Z</time>
</trkpt>
<trkpt lat="45.8408490" lon="9.2253890">
	<ele>474.00</ele>
	<time>2025-02-15T07:00:38.000Z</time>
</trkpt>
<trkpt lat="45.8408490" lon="9.2253870">
	<ele>474.00</ele>
	<time>2025-02-15T07:00:39.000Z</time>
</trkpt>
<trkpt lat="45.8408480" lon="9.2253820">
	<ele>474.20</ele>
	<time>2025-02-15T07:00:40.000Z</time>
</trkpt>
<trkpt lat="45.8408490" lon="9.2253790">
	<ele>474.40</ele>
	<time>2025-02-15T07:00:41.000Z</time>
</trkpt>
<trkpt lat="45.8408500" lon="9.2253760">
	<ele>474.60</ele>
	<time>2025-02-15T07:00:42.000Z</time>
</trkpt>
<trkpt lat="45.8408520" lon="9.2253720">
	<ele>475.00</ele>
	<time>2025-02-15T07:00:43.000Z</time>
</trkpt>
<trkpt lat="45.8408570" lon="9.2253660">
	<ele>475.20</ele>
	<time>2025-02-15T07:00:44.000Z</time>
</trkpt>
<trkpt lat="45.8408620" lon="9.2253620">
	<ele>475.60</ele>
	<time>2025-02-15T07:00:45.000Z</time>
</trkpt>
<trkpt lat="45.8408630" lon="9.2253590">
	<ele>475.60</ele>
	<time>2025-02-15T07:00:46.000Z</time>
</trkpt>
<trkpt lat="45.8408610" lon="9.2253550">
	<ele>475.80</ele>
	<time>2025-02-15T07:00:47.000Z</time>
</trkpt>
<trkpt lat="45.8408610" lon="9.2253540">
	<ele>475.80</ele>
	<time>2025-02-15T07:00:48.000Z</time>
</trkpt>
<trkpt lat="45.8408670" lon="9.2253430">
	<ele>475.80</ele>
	<time>2025-02-15T07:00:49.000Z</time>
</trkpt>
<trkpt lat="45.8408740" lon="9.2253430">
	<ele>475.80</ele>
	<time>2025-02-15T07:00:50.000Z</time>
</trkpt>
<trkpt lat="45.8408790" lon="9.2253440">
	<ele>476.00</ele>
	<time>2025-02-15T07:00:51.000Z</time>
</trkpt>
<trkpt lat="45.8408850" lon="9.2253500">
	<ele>476.20</ele>
	<time>2025-02-15T07:00:52.000Z</time>
</trkpt>
<trkpt lat="45.8408890" lon="9.2253520">
	<ele>476.40</ele>
	<time>2025-02-15T07:00:53.000Z</time>
</trkpt>
<trkpt lat="45.8408930" lon="9.2253540">
	<ele>476.60</ele>
	<time>2025-02-15T07:00:54.000Z</time>
</trkpt>
<trkpt lat="45.8408940" lon="9.2253550">
	<ele>476.60</ele>
	<time>2025-02-15T07:00:55.000Z</time>
</trkpt>
<trkpt lat="45.8408950" lon="9.2253580">
	<ele>476.60</ele>
	<time>2025-02-15T07:00:56.000Z</time>
</trkpt>
<trkpt lat="45.8408930" lon="9.2253580">
	<ele>476.80</ele>
	<time>2025-02-15T07:00:57.000Z</time>
</trkpt>
<trkpt lat="45.8408940" lon="9.2253580">
	<ele>476.80</ele>
	<time>2025-02-15T07:00:58.000Z</time>
</trkpt>
<trkpt lat="45.8409030" lon="9.2253620">
	<ele>476.80</ele>
	<time>2025-02-15T07:00:59.000Z</time>
</trkpt>
<trkpt lat="45.8409030" lon="9.2253630">
	<ele>476.80</ele>
	<time>2025-02-15T07:01:00.000Z</time>
</trkpt>
<trkpt lat="45.8408910" lon="9.2253540">
	<ele>476.80</ele>
	<time>2025-02-15T07:01:01.000Z</time>
</trkpt>
<trkpt lat="45.8408820" lon="9.2253520">
	<ele>476.80</ele>
	<time>2025-02-15T07:01:02.000Z</time>
</trkpt>
<trkpt lat="45.8408690" lon="9.2253420">
	<ele>476.80</ele>
	<time>2025-02-15T07:01:03.000Z</time>
</trkpt>
<trkpt lat="45.8408580" lon="9.2253350">
	<ele>476.80</ele>
	<time>2025-02-15T07:01:04.000Z</time>
</trkpt>
<trkpt lat="45.8408570" lon="9.2253320">
	<ele>476.80</ele>
	<time>2025-02-15T07:01:05.000Z</time>
</trkpt>
<trkpt lat="45.8408590" lon="9.2253310">
	<ele>476.80</ele>
	<time>2025-02-15T07:01:06.000Z</time>
</trkpt>
<trkpt lat="45.8408690" lon="9.2253330">
	<ele>476.80</ele>
	<time>2025-02-15T07:01:07.000Z</time>
</trkpt>
<trkpt lat="45.8408720" lon="9.2253310">
	<ele>476.80</ele>
	<time>2025-02-15T07:01:08.000Z</time>
</trkpt>
<trkpt lat="45.8408800" lon="9.2253300">
	<ele>477.00</ele>
	<time>2025-02-15T07:01:09.000Z</time>
</trkpt>
<trkpt lat="45.8408810" lon="9.2253290">
	<ele>477.00</ele>
	<time>2025-02-15T07:01:10.000Z</time>
</trkpt>
<trkpt lat="45.8408890" lon="9.2253290">
	<ele>477.20</ele>
	<time>2025-02-15T07:01:11.000Z</time>
</trkpt>
<trkpt lat="45.8408980" lon="9.2253290">
	<ele>477.40</ele>
	<time>2025-02-15T07:01:12.000Z</time>
</trkpt>
<trkpt lat="45.8408980" lon="9.2253220">
	<ele>477.40</ele>
	<time>2025-02-15T07:01:13.000Z</time>
</trkpt>
<trkpt lat="45.8408930" lon="9.2253090">
	<ele>477.60</ele>
	<time>2025-02-15T07:01:14.000Z</time>
</trkpt>
<trkpt lat="45.8408910" lon="9.2253020">
	<ele>477.80</ele>
	<time>2025-02-15T07:01:15.000Z</time>
</trkpt>
<trkpt lat="45.8408890" lon="9.2252980">
	<ele>478.00</ele>
	<time>2025-02-15T07:01:16.000Z</time>
</trkpt>
<trkpt lat="45.8408930" lon="9.2253040">
	<ele>478.20</ele>
	<time>2025-02-15T07:01:17.000Z</time>
</trkpt>
<trkpt lat="45.8409000" lon="9.2253110">
	<ele>478.40</ele>
	<time>2025-02-15T07:01:18.000Z</time>
</trkpt>
<trkpt lat="45.8409040" lon="9.2253130">
	<ele>478.40</ele>
	<time>2025-02-15T07:01:19.000Z</time>
</trkpt>
<trkpt lat="45.8409130" lon="9.2253200">
	<ele>478.40</ele>
	<time>2025-02-15T07:01:20.000Z</time>
</trkpt>
<trkpt lat="45.8409210" lon="9.2253250">
	<ele>478.60</ele>
	<time>2025-02-15T07:01:21.000Z</time>
</trkpt>
<trkpt lat="45.8409230" lon="9.2253270">
	<ele>478.60</ele>
	<time>2025-02-15T07:01:22.000Z</time>
</trkpt>
<trkpt lat="45.8409240" lon="9.2253290">
	<ele>478.60</ele>
	<time>2025-02-15T07:01:23.000Z</time>
</trkpt>
<trkpt lat="45.8409250" lon="9.2253320">
	<ele>478.60</ele>
	<time>2025-02-15T07:01:24.000Z</time>
</trkpt>
<trkpt lat="45.8409240" lon="9.2253250">
	<ele>478.60</ele>
	<time>2025-02-15T07:01:25.000Z</time>
</trkpt>
<trkpt lat="45.8409220" lon="9.2253230">
	<ele>478.60</ele>
	<time>2025-02-15T07:01:26.000Z</time>
</trkpt>
<trkpt lat="45.8409220" lon="9.2253220">
	<ele>478.80</ele>
	<time>2025-02-15T07:01:27.000Z</time>
</trkpt>
<trkpt lat="45.8409220" lon="9.2253220">
	<ele>478.80</ele>
	<time>2025-02-15T07:01:28.000Z</time>
</trkpt>
<trkpt lat="45.8409220" lon="9.2253220">
	<ele>478.80</ele>
	<time>2025-02-15T07:01:29.000Z</time>
</trkpt>
<trkpt lat="45.8409220" lon="9.2253220">
	<ele>478.80</ele>
	<time>2025-02-15T07:01:30.000Z</time>
</trkpt>
<trkpt lat="45.8409220" lon="9.2253220">
	<ele>478.60</ele>
	<time>2025-02-15T07:01:31.000Z</time>
</trkpt>
<trkpt lat="45.8409220" lon="9.2253220">
	<ele>478.60</ele>
	<time>2025-02-15T07:01:32.000Z</time>
</trkpt>
<trkpt lat="45.8409220" lon="9.2253220">
	<ele>478.40</ele>
	<time>2025-02-15T07:01:33.000Z</time>
</trkpt>
<trkpt lat="45.8409220" lon="9.2253220">
	<ele>478.40</ele>
	<time>2025-02-15T07:01:34.000Z</time>
</trkpt>
<trkpt lat="45.8409220" lon="9.2253220">
	<ele>478.40</ele>
	<time>2025-02-15T07:01:35.000Z</time>
</trkpt>
<trkpt lat="45.8409220" lon="9.2253220">
	<ele>478.40</ele>
	<time>2025-02-15T07:01:36.000Z</time>
</trkpt>
<trkpt lat="45.8409220" lon="9.2253220">
	<ele>478.40</ele>
	<time>2025-02-15T07:01:37.000Z</time>
</trkpt>
<trkpt lat="45.8409220" lon="9.2253220">
	<ele>478.80</ele>
	<time>2025-02-15T07:01:38.000Z</time>
</trkpt>
<trkpt lat="45.8409220" lon="9.2253230">
	<ele>479.00</ele>
	<time>2025-02-15T07:01:39.000Z</time>
</trkpt>
<trkpt lat="45.8409220" lon="9.2253240">
	<ele>479.20</ele>
	<time>2025-02-15T07:01:40.000Z</time>
</trkpt>
<trkpt lat="45.8409230" lon="9.2253240">
	<ele>479.40</ele>
	<time>2025-02-15T07:01:41.000Z</time>
</trkpt>
<trkpt lat="45.8409230" lon="9.2253240">
	<ele>479.60</ele>
	<time>2025-02-15T07:01:42.000Z</time>
</trkpt>
<trkpt lat="45.8409240" lon="9.2253240">
	<ele>479.80</ele>
	<time>2025-02-15T07:01:43.000Z</time>
</trkpt>
<trkpt lat="45.8409240" lon="9.2253240">
	<ele>480.00</ele>
	<time>2025-02-15T07:01:44.000Z</time>
</trkpt>
<trkpt lat="45.8409250" lon="9.2253240">
	<ele>480.20</ele>
	<time>2025-02-15T07:01:45.000Z</time>
</trkpt>
<trkpt lat="45.8409260" lon="9.2253240">
	<ele>480.40</ele>
	<time>2025-02-15T07:01:46.000Z</time>
</trkpt>
<trkpt lat="45.8409260" lon="9.2253240">
	<ele>480.60</ele>
	<time>2025-02-15T07:01:47.000Z</time>
</trkpt>
<trkpt lat="45.8409280" lon="9.2253240">
	<ele>480.60</ele>
	<time>2025-02-15T07:01:48.000Z</time>
</trkpt>
<trkpt lat="45.8409290" lon="9.2253240">
	<ele>480.80</ele>
	<time>2025-02-15T07:01:49.000Z</time>
</trkpt>
<trkpt lat="45.8409300" lon="9.2253240">
	<ele>481.00</ele>
	<time>2025-02-15T07:01:50.000Z</time>
</trkpt>
<trkpt lat="45.8409350" lon="9.2253240">
	<ele>481.40</ele>
	<time>2025-02-15T07:01:51.000Z</time>
</trkpt>
<trkpt lat="45.8409400" lon="9.2253230">
	<ele>481.80</ele>
	<time>2025-02-15T07:01:52.000Z</time>
</trkpt>
<trkpt lat="45.8409440" lon="9.2253220">
	<ele>482.00</ele>
	<time>2025-02-15T07:01:53.000Z</time>
</trkpt>
<trkpt lat="45.8409470" lon="9.2253220">
	<ele>482.20</ele>
	<time>2025-02-15T07:01:54.000Z</time>
</trkpt>
<trkpt lat="45.8409590" lon="9.2253220">
	<ele>482.00</ele>
	<time>2025-02-15T07:01:55.000Z</time>
</trkpt>
<trkpt lat="45.8409610" lon="9.2253210">
	<ele>482.00</ele>
	<time>2025-02-15T07:01:56.000Z</time>
</trkpt>
<trkpt lat="45.8409620" lon="9.2253210">
	<ele>482.00</ele>
	<time>2025-02-15T07:01:57.000Z</time>
</trkpt>
<trkpt lat="45.8409630" lon="9.2253120">
	<ele>482.00</ele>
	<time>2025-02-15T07:01:58.000Z</time>
</trkpt>
<trkpt lat="45.8409640" lon="9.2253110">
	<ele>482.00</ele>
	<time>2025-02-15T07:01:59.000Z</time>
</trkpt>
<trkpt lat="45.8409650" lon="9.2253090">
	<ele>482.00</ele>
	<time>2025-02-15T07:02:00.000Z</time>
</trkpt>
<trkpt lat="45.8409690" lon="9.2253090">
	<ele>482.20</ele>
	<time>2025-02-15T07:02:01.000Z</time>
</trkpt>
<trkpt lat="45.8409730" lon="9.2253090">
	<ele>482.20</ele>
	<time>2025-02-15T07:02:02.000Z</time>
</trkpt>
<trkpt lat="45.8409750" lon="9.2253080">
	<ele>482.60</ele>
	<time>2025-02-15T07:02:03.000Z</time>
</trkpt>
<trkpt lat="45.8409760" lon="9.2253070">
	<ele>482.80</ele>
	<time>2025-02-15T07:02:04.000Z</time>
</trkpt>
<trkpt lat="45.8409760" lon="9.2253060">
	<ele>483.00</ele>
	<time>2025-02-15T07:02:05.000Z</time>
</trkpt>
<trkpt lat="45.8409760" lon="9.2253060">
	<ele>483.20</ele>
	<time>2025-02-15T07:02:06.000Z</time>
</trkpt>
<trkpt lat="45.8409760" lon="9.2253060">
	<ele>483.40</ele>
	<time>2025-02-15T07:02:07.000Z</time>
</trkpt>
<trkpt lat="45.8409760" lon="9.2253060">
	<ele>483.60</ele>
	<time>2025-02-15T07:02:08.000Z</time>
</trkpt>
<trkpt lat="45.8409770" lon="9.2253060">
	<ele>483.80</ele>
	<time>2025-02-15T07:02:09.000Z</time>
</trkpt>
<trkpt lat="45.8409780" lon="9.2253050">
	<ele>483.80</ele>
	<time>2025-02-15T07:02:10.000Z</time>
</trkpt>
<trkpt lat="45.8409810" lon="9.2253050">
	<ele>484.20</ele>
	<time>2025-02-15T07:02:11.000Z</time>
</trkpt>
<trkpt lat="45.8409830" lon="9.2253050">
	<ele>484.40</ele>
	<time>2025-02-15T07:02:12.000Z</time>
</trkpt>
<trkpt lat="45.8409860" lon="9.2253040">
	<ele>484.40</ele>
	<time>2025-02-15T07:02:13.000Z</time>
</trkpt>
<trkpt lat="45.8409920" lon="9.2253040">
	<ele>484.60</ele>
	<time>2025-02-15T07:02:14.000Z</time>
</trkpt>
<trkpt lat="45.8409950" lon="9.2253030">
	<ele>484.60</ele>
	<time>2025-02-15T07:02:15.000Z</time>
</trkpt>
<trkpt lat="45.8409990" lon="9.2253030">
	<ele>484.80</ele>
	<time>2025-02-15T07:02:16.000Z</time>
</trkpt>
<trkpt lat="45.8410030" lon="9.2253020">
	<ele>485.00</ele>
	<time>2025-02-15T07:02:17.000Z</time>
</trkpt>
<trkpt lat="45.8410110" lon="9.2253020">
	<ele>485.20</ele>
	<time>2025-02-15T07:02:18.000Z</time>
</trkpt>
<trkpt lat="45.8410190" lon="9.2253020">
	<ele>485.40</ele>
	<time>2025-02-15T07:02:19.000Z</time>
</trkpt>
<trkpt lat="45.8410230" lon="9.2253020">
	<ele>486.00</ele>
	<time>2025-02-15T07:02:20.000Z</time>
</trkpt>
<trkpt lat="45.8410250" lon="9.2253020">
	<ele>486.20</ele>
	<time>2025-02-15T07:02:21.000Z</time>
</trkpt>
<trkpt lat="45.8410270" lon="9.2253020">
	<ele>486.40</ele>
	<time>2025-02-15T07:02:22.000Z</time>
</trkpt>
<trkpt lat="45.8410340" lon="9.2253020">
	<ele>486.40</ele>
	<time>2025-02-15T07:02:23.000Z</time>
</trkpt>
<trkpt lat="45.8410360" lon="9.2253010">
	<ele>487.00</ele>
	<time>2025-02-15T07:02:24.000Z</time>
</trkpt>
<trkpt lat="45.8410380" lon="9.2253010">
	<ele>487.20</ele>
	<time>2025-02-15T07:02:25.000Z</time>
</trkpt>
<trkpt lat="45.8410390" lon="9.2253010">
	<ele>487.60</ele>
	<time>2025-02-15T07:02:26.000Z</time>
</trkpt>
<trkpt lat="45.8410410" lon="9.2253000">
	<ele>487.80</ele>
	<time>2025-02-15T07:02:27.000Z</time>
</trkpt>
<trkpt lat="45.8410440" lon="9.2253000">
	<ele>488.00</ele>
	<time>2025-02-15T07:02:28.000Z</time>
</trkpt>
<trkpt lat="45.8410490" lon="9.2253000">
	<ele>488.20</ele>
	<time>2025-02-15T07:02:29.000Z</time>
</trkpt>
<trkpt lat="45.8410540" lon="9.2253000">
	<ele>488.40</ele>
	<time>2025-02-15T07:02:30.000Z</time>
</trkpt>
<trkpt lat="45.8410560" lon="9.2253000">
	<ele>488.60</ele>
	<time>2025-02-15T07:02:31.000Z</time>
</trkpt>
<trkpt lat="45.8410570" lon="9.2253000">
	<ele>488.80</ele>
	<time>2025-02-15T07:02:32.000Z</time>
</trkpt>
<trkpt lat="45.8410590" lon="9.2253000">
	<ele>489.00</ele>
	<time>2025-02-15T07:02:33.000Z</time>
</trkpt>
<trkpt lat="45.8410590" lon="9.2253000">
	<ele>489.20</ele>
	<time>2025-02-15T07:02:34.000Z</time>
</trkpt>
<trkpt lat="45.8410650" lon="9.2252990">
	<ele>489.60</ele>
	<time>2025-02-15T07:02:35.000Z</time>
</trkpt>
<trkpt lat="45.8410670" lon="9.2252990">
	<ele>489.80</ele>
	<time>2025-02-15T07:02:36.000Z</time>
</trkpt>
<trkpt lat="45.8410740" lon="9.2252980">
	<ele>490.00</ele>
	<time>2025-02-15T07:02:37.000Z</time>
</trkpt>
<trkpt lat="45.8410840" lon="9.2252970">
	<ele>490.40</ele>
	<time>2025-02-15T07:02:38.000Z</time>
</trkpt>
<trkpt lat="45.8410930" lon="9.2252960">
	<ele>490.60</ele>
	<time>2025-02-15T07:02:39.000Z</time>
</trkpt>
<trkpt lat="45.8411010" lon="9.2252940">
	<ele>490.80</ele>
	<time>2025-02-15T07:02:40.000Z</time>
</trkpt>
<trkpt lat="45.8411050" lon="9.2252930">
	<ele>491.00</ele>
	<time>2025-02-15T07:02:41.000Z</time>
</trkpt>
<trkpt lat="45.8411090" lon="9.2252920">
	<ele>491.00</ele>
	<time>2025-02-15T07:02:42.000Z</time>
</trkpt>
<trkpt lat="45.8411150" lon="9.2252920">
	<ele>491.00</ele>
	<time>2025-02-15T07:02:43.000Z</time>
</trkpt>
<trkpt lat="45.8411230" lon="9.2252920">
	<ele>491.00</ele>
	<time>2025-02-15T07:02:44.000Z</time>
</trkpt>
<trkpt lat="45.8411280" lon="9.2252900">
	<ele>491.20</ele>
	<time>2025-02-15T07:02:45.000Z</time>
</trkpt>
<trkpt lat="45.8411320" lon="9.2252890">
	<ele>491.20</ele>
	<time>2025-02-15T07:02:46.000Z</time>
</trkpt>
<trkpt lat="45.8411380" lon="9.2252880">
	<ele>491.40</ele>
	<time>2025-02-15T07:02:47.000Z</time>
</trkpt>
<trkpt lat="45.8411450" lon="9.2252870">
	<ele>491.60</ele>
	<time>2025-02-15T07:02:48.000Z</time>
</trkpt>
<trkpt lat="45.8411520" lon="9.2252870">
	<ele>491.80</ele>
	<time>2025-02-15T07:02:49.000Z</time>
</trkpt>
<trkpt lat="45.8411590" lon="9.2252860">
	<ele>492.00</ele>
	<time>2025-02-15T07:02:50.000Z</time>
</trkpt>
<trkpt lat="45.8411670" lon="9.2252850">
	<ele>492.20</ele>
	<time>2025-02-15T07:02:51.000Z</time>
</trkpt>
<trkpt lat="45.8411750" lon="9.2252850">
	<ele>492.40</ele>
	<time>2025-02-15T07:02:52.000Z</time>
</trkpt>
<trkpt lat="45.8411800" lon="9.2252850">
	<ele>492.60</ele>
	<time>2025-02-15T07:02:53.000Z</time>
</trkpt>
<trkpt lat="45.8411870" lon="9.2252840">
	<ele>492.80</ele>
	<time>2025-02-15T07:02:54.000Z</time>
</trkpt>
<trkpt lat="45.8411930" lon="9.2252840">
	<ele>492.80</ele>
	<time>2025-02-15T07:02:55.000Z</time>
</trkpt>
<trkpt lat="45.8411960" lon="9.2252840">
	<ele>493.00</ele>
	<time>2025-02-15T07:02:56.000Z</time>
</trkpt>
<trkpt lat="45.8411980" lon="9.2252830">
	<ele>493.40</ele>
	<time>2025-02-15T07:02:57.000Z</time>
</trkpt>
<trkpt lat="45.8411990" lon="9.2252790">
	<ele>493.40</ele>
	<time>2025-02-15T07:02:58.000Z</time>
</trkpt>
<trkpt lat="45.8412000" lon="9.2252750">
	<ele>493.60</ele>
	<time>2025-02-15T07:02:59.000Z</time>
</trkpt>
<trkpt lat="45.8412010" lon="9.2252710">
	<ele>493.80</ele>
	<time>2025-02-15T07:03:00.000Z</time>
</trkpt>
<trkpt lat="45.8412020" lon="9.2252700">
	<ele>494.20</ele>
	<time>2025-02-15T07:03:01.000Z</time>
</trkpt>
<trkpt lat="45.8412040" lon="9.2252690">
	<ele>494.40</ele>
	<time>2025-02-15T07:03:02.000Z</time>
</trkpt>
<trkpt lat="45.8412060" lon="9.2252680">
	<ele>494.60</ele>
	<time>2025-02-15T07:03:03.000Z</time>
</trkpt>
<trkpt lat="45.8412070" lon="9.2252670">
	<ele>494.80</ele>
	<time>2025-02-15T07:03:04.000Z</time>
</trkpt>
<trkpt lat="45.8412100" lon="9.2252660">
	<ele>495.00</ele>
	<time>2025-02-15T07:03:05.000Z</time>
</trkpt>
<trkpt lat="45.8412160" lon="9.2252650">
	<ele>495.20</ele>
	<time>2025-02-15T07:03:06.000Z</time>
</trkpt>
<trkpt lat="45.8412210" lon="9.2252640">
	<ele>495.20</ele>
	<time>2025-02-15T07:03:07.000Z</time>
</trkpt>
<trkpt lat="45.8412270" lon="9.2252640">
	<ele>495.40</ele>
	<time>2025-02-15T07:03:08.000Z</time>
</trkpt>
<trkpt lat="45.8412330" lon="9.2252630">
	<ele>495.40</ele>
	<time>2025-02-15T07:03:09.000Z</time>
</trkpt>
<trkpt lat="45.8412370" lon="9.2252630">
	<ele>495.60</ele>
	<time>2025-02-15T07:03:10.000Z</time>
</trkpt>
<trkpt lat="45.8412430" lon="9.2252630">
	<ele>495.60</ele>
	<time>2025-02-15T07:03:11.000Z</time>
</trkpt>
<trkpt lat="45.8412470" lon="9.2252630">
	<ele>495.80</ele>
	<time>2025-02-15T07:03:12.000Z</time>
</trkpt>
<trkpt lat="45.8412500" lon="9.2252630">
	<ele>496.00</ele>
	<time>2025-02-15T07:03:13.000Z</time>
</trkpt>
<trkpt lat="45.8412520" lon="9.2252630">
	<ele>496.40</ele>
	<time>2025-02-15T07:03:14.000Z</time>
</trkpt>
<trkpt lat="45.8412540" lon="9.2252630">
	<ele>496.60</ele>
	<time>2025-02-15T07:03:15.000Z</time>
</trkpt>
<trkpt lat="45.8412570" lon="9.2252630">
	<ele>496.80</ele>
	<time>2025-02-15T07:03:16.000Z</time>
</trkpt>
<trkpt lat="45.8412630" lon="9.2252630">
	<ele>497.00</ele>
	<time>2025-02-15T07:03:17.000Z</time>
</trkpt>
<trkpt lat="45.8412670" lon="9.2252630">
	<ele>497.20</ele>
	<time>2025-02-15T07:03:18.000Z</time>
</trkpt>
<trkpt lat="45.8412710" lon="9.2252640">
	<ele>497.20</ele>
	<time>2025-02-15T07:03:19.000Z</time>
</trkpt>
<trkpt lat="45.8412750" lon="9.2252640">
	<ele>497.60</ele>
	<time>2025-02-15T07:03:20.000Z</time>
</trkpt>
<trkpt lat="45.8412800" lon="9.2252650">
	<ele>497.80</ele>
	<time>2025-02-15T07:03:21.000Z</time>
</trkpt>
<trkpt lat="45.8412830" lon="9.2252660">
	<ele>498.20</ele>
	<time>2025-02-15T07:03:22.000Z</time>
</trkpt>
<trkpt lat="45.8412880" lon="9.2252660">
	<ele>498.20</ele>
	<time>2025-02-15T07:03:23.000Z</time>
</trkpt>
<trkpt lat="45.8412920" lon="9.2252670">
	<ele>498.20</ele>
	<time>2025-02-15T07:03:24.000Z</time>
</trkpt>
<trkpt lat="45.8412970" lon="9.2252680">
	<ele>498.40</ele>
	<time>2025-02-15T07:03:25.000Z</time>
</trkpt>
<trkpt lat="45.8413010" lon="9.2252690">
	<ele>498.80</ele>
	<time>2025-02-15T07:03:26.000Z</time>
</trkpt>
<trkpt lat="45.8413030" lon="9.2252700">
	<ele>499.00</ele>
	<time>2025-02-15T07:03:27.000Z</time>
</trkpt>
<trkpt lat="45.8413050" lon="9.2252710">
	<ele>499.20</ele>
	<time>2025-02-15T07:03:28.000Z</time>
</trkpt>
<trkpt lat="45.8413100" lon="9.2252730">
	<ele>499.40</ele>
	<time>2025-02-15T07:03:29.000Z</time>
</trkpt>
<trkpt lat="45.8413150" lon="9.2252770">
	<ele>499.60</ele>
	<time>2025-02-15T07:03:30.000Z</time>
</trkpt>
<trkpt lat="45.8413190" lon="9.2252800">
	<ele>499.80</ele>
	<time>2025-02-15T07:03:31.000Z</time>
</trkpt>
<trkpt lat="45.8413210" lon="9.2252820">
	<ele>500.00</ele>
	<time>2025-02-15T07:03:32.000Z</time>
</trkpt>
<trkpt lat="45.8413240" lon="9.2252850">
	<ele>500.20</ele>
	<time>2025-02-15T07:03:33.000Z</time>
</trkpt>
<trkpt lat="45.8413250" lon="9.2252870">
	<ele>500.20</ele>
	<time>2025-02-15T07:03:34.000Z</time>
</trkpt>
<trkpt lat="45.8413280" lon="9.2252890">
	<ele>500.40</ele>
	<time>2025-02-15T07:03:35.000Z</time>
</trkpt>
<trkpt lat="45.8413340" lon="9.2252910">
	<ele>500.60</ele>
	<time>2025-02-15T07:03:36.000Z</time>
</trkpt>
<trkpt lat="45.8413390" lon="9.2252930">
	<ele>501.00</ele>
	<time>2025-02-15T07:03:37.000Z</time>
</trkpt>
<trkpt lat="45.8413460" lon="9.2252940">
	<ele>501.40</ele>
	<time>2025-02-15T07:03:38.000Z</time>
</trkpt>
<trkpt lat="45.8413510" lon="9.2252970">
	<ele>501.40</ele>
	<time>2025-02-15T07:03:39.000Z</time>
</trkpt>
<trkpt lat="45.8413540" lon="9.2252990">
	<ele>501.60</ele>
	<time>2025-02-15T07:03:40.000Z</time>
</trkpt>
<trkpt lat="45.8413590" lon="9.2253030">
	<ele>501.80</ele>
	<time>2025-02-15T07:03:41.000Z</time>
</trkpt>
<trkpt lat="45.8413640" lon="9.2253080">
	<ele>502.00</ele>
	<time>2025-02-15T07:03:42.000Z</time>
</trkpt>
<trkpt lat="45.8413730" lon="9.2253160">
	<ele>502.20</ele>
	<time>2025-02-15T07:03:43.000Z</time>
</trkpt>
<trkpt lat="45.8413840" lon="9.2253310">
	<ele>502.20</ele>
	<time>2025-02-15T07:03:44.000Z</time>
</trkpt>
<trkpt lat="45.8413950" lon="9.2253410">
	<ele>502.60</ele>
	<time>2025-02-15T07:03:45.000Z</time>
</trkpt>
<trkpt lat="45.8414030" lon="9.2253560">
	<ele>502.80</ele>
	<time>2025-02-15T07:03:46.000Z</time>
</trkpt>
<trkpt lat="45.8414100" lon="9.2253680">
	<ele>503.00</ele>
	<time>2025-02-15T07:03:47.000Z</time>
</trkpt>
<trkpt lat="45.8414190" lon="9.2253780">
	<ele>503.40</ele>
	<time>2025-02-15T07:03:48.000Z</time>
</trkpt>
<trkpt lat="45.8414300" lon="9.2253840">
	<ele>503.80</ele>
	<time>2025-02-15T07:03:49.000Z</time>
</trkpt>
<trkpt lat="45.8414380" lon="9.2253930">
	<ele>504.00</ele>
	<time>2025-02-15T07:03:50.000Z</time>
</trkpt>
<trkpt lat="45.8414480" lon="9.2253950">
	<ele>504.00</ele>
	<time>2025-02-15T07:03:51.000Z</time>
</trkpt>
<trkpt lat="45.8414600" lon="9.2254070">
	<ele>504.20</ele>
	<time>2025-02-15T07:03:52.000Z</time>
</trkpt>
<trkpt lat="45.8414710" lon="9.2254160">
	<ele>504.20</ele>
	<time>2025-02-15T07:03:53.000Z</time>
</trkpt>
<trkpt lat="45.8414780" lon="9.2254200">
	<ele>504.40</ele>
	<time>2025-02-15T07:03:54.000Z</time>
</trkpt>
<trkpt lat="45.8414820" lon="9.2254220">
	<ele>504.40</ele>
	<time>2025-02-15T07:03:55.000Z</time>
</trkpt>
<trkpt lat="45.8414800" lon="9.2254250">
	<ele>504.60</ele>
	<time>2025-02-15T07:03:56.000Z</time>
</trkpt>
<trkpt lat="45.8414850" lon="9.2254280">
	<ele>504.80</ele>
	<time>2025-02-15T07:03:57.000Z</time>
</trkpt>
<trkpt lat="45.8414950" lon="9.2254290">
	<ele>505.00</ele>
	<time>2025-02-15T07:03:58.000Z</time>
</trkpt>
<trkpt lat="45.8415000" lon="9.2254280">
	<ele>505.40</ele>
	<time>2025-02-15T07:03:59.000Z</time>
</trkpt>
<trkpt lat="45.8415010" lon="9.2254290">
	<ele>505.60</ele>
	<time>2025-02-15T07:04:00.000Z</time>
</trkpt>
<trkpt lat="45.8415030" lon="9.2254310">
	<ele>505.80</ele>
	<time>2025-02-15T07:04:01.000Z</time>
</trkpt>
<trkpt lat="45.8415040" lon="9.2254350">
	<ele>506.00</ele>
	<time>2025-02-15T07:04:02.000Z</time>
</trkpt>
<trkpt lat="45.8415080" lon="9.2254390">
	<ele>506.20</ele>
	<time>2025-02-15T07:04:03.000Z</time>
</trkpt>
<trkpt lat="45.8415110" lon="9.2254390">
	<ele>506.40</ele>
	<time>2025-02-15T07:04:04.000Z</time>
</trkpt>
<trkpt lat="45.8415160" lon="9.2254410">
	<ele>506.60</ele>
	<time>2025-02-15T07:04:05.000Z</time>
</trkpt>
<trkpt lat="45.8415220" lon="9.2254470">
	<ele>506.80</ele>
	<time>2025-02-15T07:04:06.000Z</time>
</trkpt>
<trkpt lat="45.8415330" lon="9.2254540">
	<ele>506.80</ele>
	<time>2025-02-15T07:04:07.000Z</time>
</trkpt>
<trkpt lat="45.8415400" lon="9.2254530">
	<ele>506.80</ele>
	<time>2025-02-15T07:04:08.000Z</time>
</trkpt>
<trkpt lat="45.8415450" lon="9.2254520">
	<ele>507.00</ele>
	<time>2025-02-15T07:04:09.000Z</time>
</trkpt>
<trkpt lat="45.8415480" lon="9.2254560">
	<ele>507.00</ele>
	<time>2025-02-15T07:04:10.000Z</time>
</trkpt>
<trkpt lat="45.8415550" lon="9.2254570">
	<ele>507.20</ele>
	<time>2025-02-15T07:04:11.000Z</time>
</trkpt>
<trkpt lat="45.8415620" lon="9.2254550">
	<ele>507.40</ele>
	<time>2025-02-15T07:04:12.000Z</time>
</trkpt>
<trkpt lat="45.8415660" lon="9.2254510">
	<ele>507.60</ele>
	<time>2025-02-15T07:04:13.000Z</time>
</trkpt>
<trkpt lat="45.8415670" lon="9.2254420">
	<ele>507.60</ele>
	<time>2025-02-15T07:04:14.000Z</time>
</trkpt>
<trkpt lat="45.8415650" lon="9.2254450">
	<ele>507.60</ele>
	<time>2025-02-15T07:04:15.000Z</time>
</trkpt>
<trkpt lat="45.8415640" lon="9.2254520">
	<ele>507.80</ele>
	<time>2025-02-15T07:04:16.000Z</time>
</trkpt>
<trkpt lat="45.8415620" lon="9.2254470">
	<ele>508.20</ele>
	<time>2025-02-15T07:04:17.000Z</time>
</trkpt>
<trkpt lat="45.8415580" lon="9.2254510">
	<ele>508.40</ele>
	<time>2025-02-15T07:04:18.000Z</time>
</trkpt>
<trkpt lat="45.8415600" lon="9.2254540">
	<ele>508.80</ele>
	<time>2025-02-15T07:04:19.000Z</time>
</trkpt>
<trkpt lat="45.8415620" lon="9.2254470">
	<ele>509.00</ele>
	<time>2025-02-15T07:04:20.000Z</time>
</trkpt>
<trkpt lat="45.8415630" lon="9.2254450">
	<ele>509.20</ele>
	<time>2025-02-15T07:04:21.000Z</time>
</trkpt>
<trkpt lat="45.8415650" lon="9.2254490">
	<ele>509.40</ele>
	<time>2025-02-15T07:04:22.000Z</time>
</trkpt>
<trkpt lat="45.8415720" lon="9.2254550">
	<ele>509.40</ele>
	<time>2025-02-15T07:04:23.000Z</time>
</trkpt>
<trkpt lat="45.8415790" lon="9.2254620">
	<ele>509.60</ele>
	<time>2025-02-15T07:04:24.000Z</time>
</trkpt>
<trkpt lat="45.8415830" lon="9.2254650">
	<ele>510.00</ele>
	<time>2025-02-15T07:04:25.000Z</time>
</trkpt>
<trkpt lat="45.8415920" lon="9.2254650">
	<ele>510.20</ele>
	<time>2025-02-15T07:04:26.000Z</time>
</trkpt>
<trkpt lat="45.8415990" lon="9.2254660">
	<ele>510.40</ele>
	<time>2025-02-15T07:04:27.000Z</time>
</trkpt>
<trkpt lat="45.8416000" lon="9.2254670">
	<ele>510.40</ele>
	<time>2025-02-15T07:04:28.000Z</time>
</trkpt>
<trkpt lat="45.8416070" lon="9.2254670">
	<ele>510.60</ele>
	<time>2025-02-15T07:04:29.000Z</time>
</trkpt>
<trkpt lat="45.8416090" lon="9.2254660">
	<ele>510.80</ele>
	<time>2025-02-15T07:04:30.000Z</time>
</trkpt>
<trkpt lat="45.8416080" lon="9.2254630">
	<ele>511.00</ele>
	<time>2025-02-15T07:04:31.000Z</time>
</trkpt>
<trkpt lat="45.8416020" lon="9.2254690">
	<ele>511.00</ele>
	<time>2025-02-15T07:04:32.000Z</time>
</trkpt>
<trkpt lat="45.8415970" lon="9.2254730">
	<ele>511.20</ele>
	<time>2025-02-15T07:04:33.000Z</time>
</trkpt>
<trkpt lat="45.8416000" lon="9.2254820">
	<ele>511.80</ele>
	<time>2025-02-15T07:04:34.000Z</time>
</trkpt>
<trkpt lat="45.8416030" lon="9.2254880">
	<ele>512.00</ele>
	<time>2025-02-15T07:04:35.000Z</time>
</trkpt>
<trkpt lat="45.8416000" lon="9.2254790">
	<ele>512.20</ele>
	<time>2025-02-15T07:04:36.000Z</time>
</trkpt>
<trkpt lat="45.8415950" lon="9.2254710">
	<ele>512.20</ele>
	<time>2025-02-15T07:04:37.000Z</time>
</trkpt>
<trkpt lat="45.8415940" lon="9.2254720">
	<ele>512.40</ele>
	<time>2025-02-15T07:04:38.000Z</time>
</trkpt>
<trkpt lat="45.8415990" lon="9.2254620">
	<ele>512.40</ele>
	<time>2025-02-15T07:04:39.000Z</time>
</trkpt>
<trkpt lat="45.8416040" lon="9.2254620">
	<ele>512.60</ele>
	<time>2025-02-15T07:04:40.000Z</time>
</trkpt>
<trkpt lat="45.8416080" lon="9.2254620">
	<ele>512.60</ele>
	<time>2025-02-15T07:04:41.000Z</time>
</trkpt>
<trkpt lat="45.8416150" lon="9.2254580">
	<ele>512.60</ele>
	<time>2025-02-15T07:04:42.000Z</time>
</trkpt>
<trkpt lat="45.8416240" lon="9.2254560">
	<ele>513.20</ele>
	<time>2025-02-15T07:04:43.000Z</time>
</trkpt>
<trkpt lat="45.8416280" lon="9.2254550">
	<ele>513.40</ele>
	<time>2025-02-15T07:04:44.000Z</time>
</trkpt>
<trkpt lat="45.8416380" lon="9.2254530">
	<ele>513.60</ele>
	<time>2025-02-15T07:04:45.000Z</time>
</trkpt>
<trkpt lat="45.8416510" lon="9.2254550">
	<ele>514.00</ele>
	<time>2025-02-15T07:04:46.000Z</time>
</trkpt>
<trkpt lat="45.8416550" lon="9.2254560">
	<ele>514.20</ele>
	<time>2025-02-15T07:04:47.000Z</time>
</trkpt>
<trkpt lat="45.8416550" lon="9.2254580">
	<ele>514.20</ele>
	<time>2025-02-15T07:04:48.000Z</time>
</trkpt>
<trkpt lat="45.8416590" lon="9.2254630">
	<ele>514.40</ele>
	<time>2025-02-15T07:04:49.000Z</time>
</trkpt>
<trkpt lat="45.8416660" lon="9.2254700">
	<ele>514.60</ele>
	<time>2025-02-15T07:04:50.000Z</time>
</trkpt>
<trkpt lat="45.8416660" lon="9.2254680">
	<ele>514.80</ele>
	<time>2025-02-15T07:04:51.000Z</time>
</trkpt>
<trkpt lat="45.8416660" lon="9.2254650">
	<ele>515.00</ele>
	<time>2025-02-15T07:04:52.000Z</time>
</trkpt>
<trkpt lat="45.8416660" lon="9.2254640">
	<ele>515.00</ele>
	<time>2025-02-15T07:04:53.000Z</time>
</trkpt>
<trkpt lat="45.8416670" lon="9.2254630">
	<ele>515.20</ele>
	<time>2025-02-15T07:04:54.000Z</time>
</trkpt>
<trkpt lat="45.8416690" lon="9.2254640">
	<ele>515.20</ele>
	<time>2025-02-15T07:04:55.000Z</time>
</trkpt>
<trkpt lat="45.8416720" lon="9.2254640">
	<ele>515.20</ele>
	<time>2025-02-15T07:04:56.000Z</time>
</trkpt>
<trkpt lat="45.8416860" lon="9.2254710">
	<ele>515.40</ele>
	<time>2025-02-15T07:04:57.000Z</time>
</trkpt>
<trkpt lat="45.8416970" lon="9.2254760">
	<ele>515.60</ele>
	<time>2025-02-15T07:04:58.000Z</time>
</trkpt>
<trkpt lat="45.8417090" lon="9.2254840">
	<ele>516.00</ele>
	<time>2025-02-15T07:04:59.000Z</time>
</trkpt>
<trkpt lat="45.8417120" lon="9.2254840">
	<ele>516.20</ele>
	<time>2025-02-15T07:05:00.000Z</time>
</trkpt>
<trkpt lat="45.8417130" lon="9.2254820">
	<ele>516.60</ele>
	<time>2025-02-15T07:05:01.000Z</time>
</trkpt>
<trkpt lat="45.8417160" lon="9.2254850">
	<ele>516.80</ele>
	<time>2025-02-15T07:05:02.000Z</time>
</trkpt>
<trkpt lat="45.8417180" lon="9.2254850">
	<ele>516.80</ele>
	<time>2025-02-15T07:05:03.000Z</time>
</trkpt>
<trkpt lat="45.8417190" lon="9.2254820">
	<ele>517.00</ele>
	<time>2025-02-15T07:05:04.000Z</time>
</trkpt>
<trkpt lat="45.8417240" lon="9.2254840">
	<ele>517.00</ele>
	<time>2025-02-15T07:05:05.000Z</time>
</trkpt>
<trkpt lat="45.8417290" lon="9.2254940">
	<ele>517.20</ele>
	<time>2025-02-15T07:05:06.000Z</time>
</trkpt>
<trkpt lat="45.8417330" lon="9.2255060">
	<ele>517.20</ele>
	<time>2025-02-15T07:05:07.000Z</time>
</trkpt>
<trkpt lat="45.8417330" lon="9.2255090">
	<ele>517.40</ele>
	<time>2025-02-15T07:05:08.000Z</time>
</trkpt>
<trkpt lat="45.8417330" lon="9.2255080">
	<ele>517.60</ele>
	<time>2025-02-15T07:05:09.000Z</time>
</trkpt>
<trkpt lat="45.8417350" lon="9.2255090">
	<ele>517.80</ele>
	<time>2025-02-15T07:05:10.000Z</time>
</trkpt>
<trkpt lat="45.8417370" lon="9.2255090">
	<ele>517.80</ele>
	<time>2025-02-15T07:05:11.000Z</time>
</trkpt>
<trkpt lat="45.8417360" lon="9.2255030">
	<ele>518.00</ele>
	<time>2025-02-15T07:05:12.000Z</time>
</trkpt>
<trkpt lat="45.8417340" lon="9.2255010">
	<ele>518.00</ele>
	<time>2025-02-15T07:05:13.000Z</time>
</trkpt>
<trkpt lat="45.8417330" lon="9.2255010">
	<ele>518.40</ele>
	<time>2025-02-15T07:05:14.000Z</time>
</trkpt>
<trkpt lat="45.8417330" lon="9.2255020">
	<ele>518.60</ele>
	<time>2025-02-15T07:05:15.000Z</time>
</trkpt>
<trkpt lat="45.8417340" lon="9.2255000">
	<ele>518.80</ele>
	<time>2025-02-15T07:05:16.000Z</time>
</trkpt>
<trkpt lat="45.8417350" lon="9.2255000">
	<ele>519.00</ele>
	<time>2025-02-15T07:05:17.000Z</time>
</trkpt>
<trkpt lat="45.8417350" lon="9.2255000">
	<ele>519.00</ele>
	<time>2025-02-15T07:05:18.000Z</time>
</trkpt>
<trkpt lat="45.8417350" lon="9.2255000">
	<ele>519.20</ele>
	<time>2025-02-15T07:05:19.000Z</time>
</trkpt>
<trkpt lat="45.8417350" lon="9.2255000">
	<ele>519.20</ele>
	<time>2025-02-15T07:05:20.000Z</time>
</trkpt>
<trkpt lat="45.8417350" lon="9.2255000">
	<ele>519.40</ele>
	<time>2025-02-15T07:05:21.000Z</time>
</trkpt>
<trkpt lat="45.8417350" lon="9.2255000">
	<ele>519.80</ele>
	<time>2025-02-15T07:05:22.000Z</time>
</trkpt>
<trkpt lat="45.8417350" lon="9.2255000">
	<ele>520.00</ele>
	<time>2025-02-15T07:05:23.000Z</time>
</trkpt>
<trkpt lat="45.8417350" lon="9.2255000">
	<ele>520.20</ele>
	<time>2025-02-15T07:05:24.000Z</time>
</trkpt>
<trkpt lat="45.8417350" lon="9.2255000">
	<ele>520.20</ele>
	<time>2025-02-15T07:05:25.000Z</time>
</trkpt>
<trkpt lat="45.8417350" lon="9.2255000">
	<ele>520.20</ele>
	<time>2025-02-15T07:05:26.000Z</time>
</trkpt>
<trkpt lat="45.8417350" lon="9.2255010">
	<ele>520.40</ele>
	<time>2025-02-15T07:05:27.000Z</time>
</trkpt>
<trkpt lat="45.8417350" lon="9.2255010">
	<ele>520.60</ele>
	<time>2025-02-15T07:05:28.000Z</time>
</trkpt>
<trkpt lat="45.8417350" lon="9.2255020">
	<ele>521.00</ele>
	<time>2025-02-15T07:05:29.000Z</time>
</trkpt>
<trkpt lat="45.8417350" lon="9.2255020">
	<ele>521.20</ele>
	<time>2025-02-15T07:05:30.000Z</time>
</trkpt>
<trkpt lat="45.8417360" lon="9.2255030">
	<ele>521.20</ele>
	<time>2025-02-15T07:05:31.000Z</time>
</trkpt>
<trkpt lat="45.8417370" lon="9.2255030">
	<ele>521.40</ele>
	<time>2025-02-15T07:05:32.000Z</time>
</trkpt>
<trkpt lat="45.8417370" lon="9.2255050">
	<ele>521.40</ele>
	<time>2025-02-15T07:05:33.000Z</time>
</trkpt>
<trkpt lat="45.8417380" lon="9.2255060">
	<ele>521.80</ele>
	<time>2025-02-15T07:05:34.000Z</time>
</trkpt>
<trkpt lat="45.8417410" lon="9.2255070">
	<ele>522.00</ele>
	<time>2025-02-15T07:05:35.000Z</time>
</trkpt>
<trkpt lat="45.8417420" lon="9.2255070">
	<ele>522.20</ele>
	<time>2025-02-15T07:05:36.000Z</time>
</trkpt>
<trkpt lat="45.8417430" lon="9.2255080">
	<ele>522.60</ele>
	<time>2025-02-15T07:05:37.000Z</time>
</trkpt>
<trkpt lat="45.8417430" lon="9.2255080">
	<ele>522.80</ele>
	<time>2025-02-15T07:05:38.000Z</time>
</trkpt>
<trkpt lat="45.8417440" lon="9.2255090">
	<ele>522.80</ele>
	<time>2025-02-15T07:05:39.000Z</time>
</trkpt>
<trkpt lat="45.8417450" lon="9.2255090">
	<ele>523.00</ele>
	<time>2025-02-15T07:05:40.000Z</time>
</trkpt>
<trkpt lat="45.8417450" lon="9.2255120">
	<ele>523.20</ele>
	<time>2025-02-15T07:05:41.000Z</time>
</trkpt>
<trkpt lat="45.8417450" lon="9.2255150">
	<ele>523.40</ele>
	<time>2025-02-15T07:05:42.000Z</time>
</trkpt>
<trkpt lat="45.8417460" lon="9.2255190">
	<ele>523.40</ele>
	<time>2025-02-15T07:05:43.000Z</time>
</trkpt>
<trkpt lat="45.8417470" lon="9.2255220">
	<ele>523.80</ele>
	<time>2025-02-15T07:05:44.000Z</time>
</trkpt>
<trkpt lat="45.8417480" lon="9.2255230">
	<ele>524.00</ele>
	<time>2025-02-15T07:05:45.000Z</time>
</trkpt>
<trkpt lat="45.8417480" lon="9.2255240">
	<ele>524.00</ele>
	<time>2025-02-15T07:05:46.000Z</time>
</trkpt>
<trkpt lat="45.8417490" lon="9.2255250">
	<ele>524.00</ele>
	<time>2025-02-15T07:05:47.000Z</time>
</trkpt>
<trkpt lat="45.8417500" lon="9.2255260">
	<ele>524.20</ele>
	<time>2025-02-15T07:05:48.000Z</time>
</trkpt>
<trkpt lat="45.8417510" lon="9.2255310">
	<ele>524.20</ele>
	<time>2025-02-15T07:05:49.000Z</time>
</trkpt>
<trkpt lat="45.8417550" lon="9.2255370">
	<ele>524.20</ele>
	<time>2025-02-15T07:05:50.000Z</time>
</trkpt>
<trkpt lat="45.8417590" lon="9.2255440">
	<ele>524.20</ele>
	<time>2025-02-15T07:05:51.000Z</time>
</trkpt>
<trkpt lat="45.8417650" lon="9.2255470">
	<ele>524.60</ele>
	<time>2025-02-15T07:05:52.000Z</time>
</trkpt>
<trkpt lat="45.8417680" lon="9.2255500">
	<ele>524.80</ele>
	<time>2025-02-15T07:05:53.000Z</time>
</trkpt>
<trkpt lat="45.8417740" lon="9.2255580">
	<ele>524.80</ele>
	<time>2025-02-15T07:05:54.000Z</time>
</trkpt>
<trkpt lat="45.8417750" lon="9.2255630">
	<ele>524.80</ele>
	<time>2025-02-15T07:05:55.000Z</time>
</trkpt>
<trkpt lat="45.8417770" lon="9.2255630">
	<ele>525.00</ele>
	<time>2025-02-15T07:05:56.000Z</time>
</trkpt>
<trkpt lat="45.8417780" lon="9.2255630">
	<ele>525.00</ele>
	<time>2025-02-15T07:05:57.000Z</time>
</trkpt>
<trkpt lat="45.8417790" lon="9.2255640">
	<ele>525.00</ele>
	<time>2025-02-15T07:05:58.000Z</time>
</trkpt>
<trkpt lat="45.8417810" lon="9.2255640">
	<ele>525.20</ele>
	<time>2025-02-15T07:05:59.000Z</time>
</trkpt>
<trkpt lat="45.8417810" lon="9.2255640">
	<ele>525.20</ele>
	<time>2025-02-15T07:06:00.000Z</time>
</trkpt>
<trkpt lat="45.8417840" lon="9.2255640">
	<ele>525.60</ele>
	<time>2025-02-15T07:06:01.000Z</time>
</trkpt>
<trkpt lat="45.8417870" lon="9.2255640">
	<ele>525.80</ele>
	<time>2025-02-15T07:06:02.000Z</time>
</trkpt>
<trkpt lat="45.8417880" lon="9.2255640">
	<ele>526.00</ele>
	<time>2025-02-15T07:06:03.000Z</time>
</trkpt>
<trkpt lat="45.8417920" lon="9.2255660">
	<ele>526.00</ele>
	<time>2025-02-15T07:06:04.000Z</time>
</trkpt>
<trkpt lat="45.8417960" lon="9.2255670">
	<ele>526.20</ele>
	<time>2025-02-15T07:06:05.000Z</time>
</trkpt>
<trkpt lat="45.8417980" lon="9.2255710">
	<ele>526.40</ele>
	<time>2025-02-15T07:06:06.000Z</time>
</trkpt>
<trkpt lat="45.8417990" lon="9.2255720">
	<ele>526.60</ele>
	<time>2025-02-15T07:06:07.000Z</time>
</trkpt>
<trkpt lat="45.8418010" lon="9.2255740">
	<ele>526.80</ele>
	<time>2025-02-15T07:06:08.000Z</time>
</trkpt>
<trkpt lat="45.8418010" lon="9.2255740">
	<ele>527.00</ele>
	<time>2025-02-15T07:06:09.000Z</time>
</trkpt>
<trkpt lat="45.8418030" lon="9.2255740">
	<ele>527.20</ele>
	<time>2025-02-15T07:06:10.000Z</time>
</trkpt>
<trkpt lat="45.8418060" lon="9.2255750">
	<ele>527.40</ele>
	<time>2025-02-15T07:06:11.000Z</time>
</trkpt>
<trkpt lat="45.8418110" lon="9.2255760">
	<ele>527.60</ele>
	<time>2025-02-15T07:06:12.000Z</time>
</trkpt>
<trkpt lat="45.8418140" lon="9.2255760">
	<ele>527.80</ele>
	<time>2025-02-15T07:06:13.000Z</time>
</trkpt>
<trkpt lat="45.8418170" lon="9.2255760">
	<ele>528.00</ele>
	<time>2025-02-15T07:06:14.000Z</time>
</trkpt>
<trkpt lat="45.8418200" lon="9.2255760">
	<ele>528.00</ele>
	<time>2025-02-15T07:06:15.000Z</time>
</trkpt>
<trkpt lat="45.8418200" lon="9.2255760">
	<ele>528.00</ele>
	<time>2025-02-15T07:06:16.000Z</time>
</trkpt>
<trkpt lat="45.8418210" lon="9.2255760">
	<ele>528.00</ele>
	<time>2025-02-15T07:06:17.000Z</time>
</trkpt>
<trkpt lat="45.8418230" lon="9.2255760">
	<ele>528.20</ele>
	<time>2025-02-15T07:06:18.000Z</time>
</trkpt>
<trkpt lat="45.8418250" lon="9.2255760">
	<ele>528.20</ele>
	<time>2025-02-15T07:06:19.000Z</time>
</trkpt>
<trkpt lat="45.8418260" lon="9.2255710">
	<ele>528.20</ele>
	<time>2025-02-15T07:06:20.000Z</time>
</trkpt>
<trkpt lat="45.8418280" lon="9.2255640">
	<ele>528.20</ele>
	<time>2025-02-15T07:06:21.000Z</time>
</trkpt>
<trkpt lat="45.8418260" lon="9.2255570">
	<ele>528.20</ele>
	<time>2025-02-15T07:06:22.000Z</time>
</trkpt>
<trkpt lat="45.8418200" lon="9.2255550">
	<ele>528.20</ele>
	<time>2025-02-15T07:06:23.000Z</time>
</trkpt>
<trkpt lat="45.8418180" lon="9.2255490">
	<ele>528.20</ele>
	<time>2025-02-15T07:06:24.000Z</time>
</trkpt>
<trkpt lat="45.8418110" lon="9.2255380">
	<ele>528.20</ele>
	<time>2025-02-15T07:06:25.000Z</time>
</trkpt>
<trkpt lat="45.8418100" lon="9.2255360">
	<ele>528.20</ele>
	<time>2025-02-15T07:06:26.000Z</time>
</trkpt>
<trkpt lat="45.8418100" lon="9.2255360">
	<ele>528.20</ele>
	<time>2025-02-15T07:06:27.000Z</time>
</trkpt>
<trkpt lat="45.8418100" lon="9.2255360">
	<ele>528.00</ele>
	<time>2025-02-15T07:06:28.000Z</time>
</trkpt>
<trkpt lat="45.8418100" lon="9.2255360">
	<ele>528.00</ele>
	<time>2025-02-15T07:06:29.000Z</time>
</trkpt>
<trkpt lat="45.8418100" lon="9.2255360">
	<ele>528.20</ele>
	<time>2025-02-15T07:06:30.000Z</time>
</trkpt>
<trkpt lat="45.8418100" lon="9.2255360">
	<ele>528.20</ele>
	<time>2025-02-15T07:06:31.000Z</time>
</trkpt>
<trkpt lat="45.8418100" lon="9.2255360">
	<ele>528.20</ele>
	<time>2025-02-15T07:06:32.000Z</time>
</trkpt>
<trkpt lat="45.8418100" lon="9.2255360">
	<ele>528.20</ele>
	<time>2025-02-15T07:06:33.000Z</time>
</trkpt>
<trkpt lat="45.8418110" lon="9.2255330">
	<ele>528.20</ele>
	<time>2025-02-15T07:06:34.000Z</time>
</trkpt>
<trkpt lat="45.8418120" lon="9.2255300">
	<ele>528.20</ele>
	<time>2025-02-15T07:06:35.000Z</time>
</trkpt>
<trkpt lat="45.8418130" lon="9.2255260">
	<ele>528.00</ele>
	<time>2025-02-15T07:06:36.000Z</time>
</trkpt>
<trkpt lat="45.8418150" lon="9.2255220">
	<ele>528.00</ele>
	<time>2025-02-15T07:06:37.000Z</time>
</trkpt>
<trkpt lat="45.8418140" lon="9.2255170">
	<ele>528.00</ele>
	<time>2025-02-15T07:06:38.000Z</time>
</trkpt>
<trkpt lat="45.8418120" lon="9.2255120">
	<ele>528.00</ele>
	<time>2025-02-15T07:06:39.000Z</time>
</trkpt>
<trkpt lat="45.8418120" lon="9.2255090">
	<ele>528.00</ele>
	<time>2025-02-15T07:06:40.000Z</time>
</trkpt>
<trkpt lat="45.8418130" lon="9.2255050">
	<ele>528.00</ele>
	<time>2025-02-15T07:06:41.000Z</time>
</trkpt>
<trkpt lat="45.8418150" lon="9.2255020">
	<ele>528.00</ele>
	<time>2025-02-15T07:06:42.000Z</time>
</trkpt>
<trkpt lat="45.8418150" lon="9.2255020">
	<ele>528.00</ele>
	<time>2025-02-15T07:06:43.000Z</time>
</trkpt>
<trkpt lat="45.8418150" lon="9.2255020">
	<ele>528.00</ele>
	<time>2025-02-15T07:06:44.000Z</time>
</trkpt>
<trkpt lat="45.8418150" lon="9.2255020">
	<ele>528.00</ele>
	<time>2025-02-15T07:06:45.000Z</time>
</trkpt>
<trkpt lat="45.8418160" lon="9.2255020">
	<ele>528.20</ele>
	<time>2025-02-15T07:06:46.000Z</time>
</trkpt>
<trkpt lat="45.8418240" lon="9.2255110">
	<ele>528.20</ele>
	<time>2025-02-15T07:06:47.000Z</time>
</trkpt>
<trkpt lat="45.8418280" lon="9.2255220">
	<ele>528.40</ele>
	<time>2025-02-15T07:06:48.000Z</time>
</trkpt>
<trkpt lat="45.8418300" lon="9.2255240">
	<ele>528.40</ele>
	<time>2025-02-15T07:06:49.000Z</time>
</trkpt>
<trkpt lat="45.8418300" lon="9.2255240">
	<ele>528.40</ele>
	<time>2025-02-15T07:06:50.000Z</time>
</trkpt>
<trkpt lat="45.8418300" lon="9.2255240">
	<ele>528.40</ele>
	<time>2025-02-15T07:06:51.000Z</time>
</trkpt>
<trkpt lat="45.8418300" lon="9.2255240">
	<ele>528.40</ele>
	<time>2025-02-15T07:06:52.000Z</time>
</trkpt>
<trkpt lat="45.8418300" lon="9.2255240">
	<ele>528.40</ele>
	<time>2025-02-15T07:06:53.000Z</time>
</trkpt>
<trkpt lat="45.8418300" lon="9.2255240">
	<ele>528.40</ele>
	<time>2025-02-15T07:06:54.000Z</time>
</trkpt>
<trkpt lat="45.8418300" lon="9.2255240">
	<ele>528.40</ele>
	<time>2025-02-15T07:06:55.000Z</time>
</trkpt>
<trkpt lat="45.8418300" lon="9.2255210">
	<ele>528.40</ele>
	<time>2025-02-15T07:06:56.000Z</time>
</trkpt>
<trkpt lat="45.8418300" lon="9.2255190">
	<ele>528.40</ele>
	<time>2025-02-15T07:06:57.000Z</time>
</trkpt>
<trkpt lat="45.8418300" lon="9.2255180">
	<ele>528.40</ele>
	<time>2025-02-15T07:06:58.000Z</time>
</trkpt>
<trkpt lat="45.8418300" lon="9.2255160">
	<ele>528.40</ele>
	<time>2025-02-15T07:06:59.000Z</time>
</trkpt>
<trkpt lat="45.8418300" lon="9.2255160">
	<ele>528.40</ele>
	<time>2025-02-15T07:07:00.000Z</time>
</trkpt>
<trkpt lat="45.8418300" lon="9.2255150">
	<ele>528.40</ele>
	<time>2025-02-15T07:07:01.000Z</time>
</trkpt>
<trkpt lat="45.8418300" lon="9.2255140">
	<ele>528.40</ele>
	<time>2025-02-15T07:07:02.000Z</time>
</trkpt>
<trkpt lat="45.8418300" lon="9.2255110">
	<ele>528.40</ele>
	<time>2025-02-15T07:07:03.000Z</time>
</trkpt>
<trkpt lat="45.8418300" lon="9.2255110">
	<ele>528.40</ele>
	<time>2025-02-15T07:07:04.000Z</time>
</trkpt>
<trkpt lat="45.8418300" lon="9.2255110">
	<ele>528.40</ele>
	<time>2025-02-15T07:07:05.000Z</time>
</trkpt>
<trkpt lat="45.8418300" lon="9.2255090">
	<ele>528.40</ele>
	<time>2025-02-15T07:07:06.000Z</time>
</trkpt>
<trkpt lat="45.8418290" lon="9.2255070">
	<ele>528.40</ele>
	<time>2025-02-15T07:07:07.000Z</time>
</trkpt>
<trkpt lat="45.8418270" lon="9.2255060">
	<ele>528.40</ele>
	<time>2025-02-15T07:07:08.000Z</time>
</trkpt>
<trkpt lat="45.8418230" lon="9.2255050">
	<ele>528.40</ele>
	<time>2025-02-15T07:07:09.000Z</time>
</trkpt>
<trkpt lat="45.8418210" lon="9.2255040">
	<ele>528.40</ele>
	<time>2025-02-15T07:07:10.000Z</time>
</trkpt>
<trkpt lat="45.8418200" lon="9.2255040">
	<ele>528.20</ele>
	<time>2025-02-15T07:07:11.000Z</time>
</trkpt>
<trkpt lat="45.8418200" lon="9.2255040">
	<ele>528.20</ele>
	<time>2025-02-15T07:07:12.000Z</time>
</trkpt>
<trkpt lat="45.8418200" lon="9.2255040">
	<ele>528.20</ele>
	<time>2025-02-15T07:07:13.000Z</time>
</trkpt>
<trkpt lat="45.8418200" lon="9.2255040">
	<ele>528.20</ele>
	<time>2025-02-15T07:07:14.000Z</time>
</trkpt>
<trkpt lat="45.8418200" lon="9.2255050">
	<ele>528.20</ele>
	<time>2025-02-15T07:07:15.000Z</time>
</trkpt>
<trkpt lat="45.8418200" lon="9.2255060">
	<ele>528.20</ele>
	<time>2025-02-15T07:07:16.000Z</time>
</trkpt>
<trkpt lat="45.8418200" lon="9.2255060">
	<ele>528.20</ele>
	<time>2025-02-15T07:07:17.000Z</time>
</trkpt>
<trkpt lat="45.8418200" lon="9.2255060">
	<ele>528.20</ele>
	<time>2025-02-15T07:07:18.000Z</time>
</trkpt>
<trkpt lat="45.8418190" lon="9.2255060">
	<ele>528.20</ele>
	<time>2025-02-15T07:07:19.000Z</time>
</trkpt>
<trkpt lat="45.8418180" lon="9.2255060">
	<ele>528.20</ele>
	<time>2025-02-15T07:07:20.000Z</time>
</trkpt>
<trkpt lat="45.8418180" lon="9.2255060">
	<ele>528.20</ele>
	<time>2025-02-15T07:07:21.000Z</time>
</trkpt>
<trkpt lat="45.8418180" lon="9.2255060">
	<ele>528.20</ele>
	<time>2025-02-15T07:07:22.000Z</time>
</trkpt>
<trkpt lat="45.8418170" lon="9.2255060">
	<ele>528.20</ele>
	<time>2025-02-15T07:07:23.000Z</time>
</trkpt>
<trkpt lat="45.8418170" lon="9.2255060">
	<ele>528.20</ele>
	<time>2025-02-15T07:07:24.000Z</time>
</trkpt>
<trkpt lat="45.8418170" lon="9.2255060">
	<ele>528.40</ele>
	<time>2025-02-15T07:07:25.000Z</time>
</trkpt>
<trkpt lat="45.8418170" lon="9.2255060">
	<ele>528.60</ele>
	<time>2025-02-15T07:07:26.000Z</time>
</trkpt>
<trkpt lat="45.8418170" lon="9.2255060">
	<ele>528.60</ele>
	<time>2025-02-15T07:07:27.000Z</time>
</trkpt>
<trkpt lat="45.8418170" lon="9.2255060">
	<ele>528.80</ele>
	<time>2025-02-15T07:07:28.000Z</time>
</trkpt>
<trkpt lat="45.8418170" lon="9.2255060">
	<ele>528.80</ele>
	<time>2025-02-15T07:07:29.000Z</time>
</trkpt>
<trkpt lat="45.8418150" lon="9.2255070">
	<ele>529.00</ele>
	<time>2025-02-15T07:07:30.000Z</time>
</trkpt>
<trkpt lat="45.8418110" lon="9.2255090">
	<ele>529.00</ele>
	<time>2025-02-15T07:07:31.000Z</time>
</trkpt>
<trkpt lat="45.8418100" lon="9.2255100">
	<ele>529.00</ele>
	<time>2025-02-15T07:07:32.000Z</time>
</trkpt>
<trkpt lat="45.8418100" lon="9.2255100">
	<ele>529.00</ele>
	<time>2025-02-15T07:07:33.000Z</time>
</trkpt>
<trkpt lat="45.8418100" lon="9.2255100">
	<ele>529.00</ele>
	<time>2025-02-15T07:07:34.000Z</time>
</trkpt>
<trkpt lat="45.8418100" lon="9.2255100">
	<ele>529.00</ele>
	<time>2025-02-15T07:07:35.000Z</time>
</trkpt>
<trkpt lat="45.8418100" lon="9.2255100">
	<ele>529.00</ele>
	<time>2025-02-15T07:07:36.000Z</time>
</trkpt>
<trkpt lat="45.8418100" lon="9.2255100">
	<ele>529.00</ele>
	<time>2025-02-15T07:07:37.000Z</time>
</trkpt>
<trkpt lat="45.8418100" lon="9.2255100">
	<ele>529.00</ele>
	<time>2025-02-15T07:07:38.000Z</time>
</trkpt>
<trkpt lat="45.8418110" lon="9.2255020">
	<ele>529.00</ele>
	<time>2025-02-15T07:07:39.000Z</time>
</trkpt>
<trkpt lat="45.8418130" lon="9.2254990">
	<ele>529.20</ele>
	<time>2025-02-15T07:07:40.000Z</time>
</trkpt>
<trkpt lat="45.8418140" lon="9.2254960">
	<ele>529.40</ele>
	<time>2025-02-15T07:07:41.000Z</time>
</trkpt>
<trkpt lat="45.8418160" lon="9.2254970">
	<ele>529.40</ele>
	<time>2025-02-15T07:07:42.000Z</time>
</trkpt>
<trkpt lat="45.8418190" lon="9.2255050">
	<ele>529.40</ele>
	<time>2025-02-15T07:07:43.000Z</time>
</trkpt>
<trkpt lat="45.8418190" lon="9.2255060">
	<ele>528.00</ele>
	<time>2025-02-15T07:07:44.000Z</time>
</trkpt>
<trkpt lat="45.8418270" lon="9.2255120">
	<ele>528.00</ele>
	<time>2025-02-15T07:07:45.000Z</time>
</trkpt>
<trkpt lat="45.8418280" lon="9.2255120">
	<ele>528.00</ele>
	<time>2025-02-15T07:07:46.000Z</time>
</trkpt>
<trkpt lat="45.8418290" lon="9.2255120">
	<ele>528.00</ele>
	<time>2025-02-15T07:07:47.000Z</time>
</trkpt>
<trkpt lat="45.8418300" lon="9.2255120">
	<ele>528.60</ele>
	<time>2025-02-15T07:07:48.000Z</time>
</trkpt>
<trkpt lat="45.8418390" lon="9.2255080">
	<ele>529.20</ele>
	<time>2025-02-15T07:07:49.000Z</time>
</trkpt>
<trkpt lat="45.8418420" lon="9.2255060">
	<ele>529.80</ele>
	<time>2025-02-15T07:07:50.000Z</time>
</trkpt>
<trkpt lat="45.8418440" lon="9.2255140">
	<ele>530.00</ele>
	<time>2025-02-15T07:07:51.000Z</time>
</trkpt>
<trkpt lat="45.8418500" lon="9.2255240">
	<ele>530.20</ele>
	<time>2025-02-15T07:07:52.000Z</time>
</trkpt>
<trkpt lat="45.8418620" lon="9.2255290">
	<ele>530.40</ele>
	<time>2025-02-15T07:07:53.000Z</time>
</trkpt>
<trkpt lat="45.8418660" lon="9.2255290">
	<ele>530.60</ele>
	<time>2025-02-15T07:07:54.000Z</time>
</trkpt>
<trkpt lat="45.8418670" lon="9.2255320">
	<ele>530.80</ele>
	<time>2025-02-15T07:07:55.000Z</time>
</trkpt>
<trkpt lat="45.8418660" lon="9.2255350">
	<ele>531.00</ele>
	<time>2025-02-15T07:07:56.000Z</time>
</trkpt>
<trkpt lat="45.8418670" lon="9.2255360">
	<ele>531.20</ele>
	<time>2025-02-15T07:07:57.000Z</time>
</trkpt>
<trkpt lat="45.8418740" lon="9.2255430">
	<ele>531.40</ele>
	<time>2025-02-15T07:07:58.000Z</time>
</trkpt>
<trkpt lat="45.8418840" lon="9.2255490">
	<ele>531.40</ele>
	<time>2025-02-15T07:07:59.000Z</time>
</trkpt>
<trkpt lat="45.8418950" lon="9.2255560">
	<ele>531.40</ele>
	<time>2025-02-15T07:08:00.000Z</time>
</trkpt>
<trkpt lat="45.8419050" lon="9.2255660">
	<ele>531.60</ele>
	<time>2025-02-15T07:08:01.000Z</time>
</trkpt>
<trkpt lat="45.8419100" lon="9.2255760">
	<ele>531.80</ele>
	<time>2025-02-15T07:08:02.000Z</time>
</trkpt>
<trkpt lat="45.8419130" lon="9.2255810">
	<ele>531.80</ele>
	<time>2025-02-15T07:08:03.000Z</time>
</trkpt>
<trkpt lat="45.8419180" lon="9.2255810">
	<ele>532.00</ele>
	<time>2025-02-15T07:08:04.000Z</time>
</trkpt>
<trkpt lat="45.8419260" lon="9.2255850">
	<ele>532.20</ele>
	<time>2025-02-15T07:08:05.000Z</time>
</trkpt>
<trkpt lat="45.8419290" lon="9.2255880">
	<ele>532.40</ele>
	<time>2025-02-15T07:08:06.000Z</time>
</trkpt>
<trkpt lat="45.8419360" lon="9.2255850">
	<ele>532.60</ele>
	<time>2025-02-15T07:08:07.000Z</time>
</trkpt>
<trkpt lat="45.8419370" lon="9.2255810">
	<ele>532.60</ele>
	<time>2025-02-15T07:08:08.000Z</time>
</trkpt>
<trkpt lat="45.8419470" lon="9.2255840">
	<ele>532.80</ele>
	<time>2025-02-15T07:08:09.000Z</time>
</trkpt>
<trkpt lat="45.8419510" lon="9.2255860">
	<ele>533.00</ele>
	<time>2025-02-15T07:08:10.000Z</time>
</trkpt>
<trkpt lat="45.8419540" lon="9.2255880">
	<ele>533.00</ele>
	<time>2025-02-15T07:08:11.000Z</time>
</trkpt>
<trkpt lat="45.8419560" lon="9.2255880">
	<ele>533.40</ele>
	<time>2025-02-15T07:08:12.000Z</time>
</trkpt>
<trkpt lat="45.8419570" lon="9.2255880">
	<ele>533.80</ele>
	<time>2025-02-15T07:08:13.000Z</time>
</trkpt>
<trkpt lat="45.8419680" lon="9.2255990">
	<ele>534.00</ele>
	<time>2025-02-15T07:08:14.000Z</time>
</trkpt>
<trkpt lat="45.8419700" lon="9.2255990">
	<ele>534.00</ele>
	<time>2025-02-15T07:08:15.000Z</time>
</trkpt>
<trkpt lat="45.8419740" lon="9.2255990">
	<ele>534.00</ele>
	<time>2025-02-15T07:08:16.000Z</time>
</trkpt>
<trkpt lat="45.8419860" lon="9.2256040">
	<ele>534.20</ele>
	<time>2025-02-15T07:08:17.000Z</time>
</trkpt>
<trkpt lat="45.8420000" lon="9.2256120">
	<ele>534.20</ele>
	<time>2025-02-15T07:08:18.000Z</time>
</trkpt>
<trkpt lat="45.8420140" lon="9.2256210">
	<ele>534.20</ele>
	<time>2025-02-15T07:08:19.000Z</time>
</trkpt>
<trkpt lat="45.8420230" lon="9.2256320">
	<ele>534.40</ele>
	<time>2025-02-15T07:08:20.000Z</time>
</trkpt>
<trkpt lat="45.8420260" lon="9.2256430">
	<ele>534.60</ele>
	<time>2025-02-15T07:08:21.000Z</time>
</trkpt>
<trkpt lat="45.8420280" lon="9.2256450">
	<ele>534.80</ele>
	<time>2025-02-15T07:08:22.000Z</time>
</trkpt>
<trkpt lat="45.8420290" lon="9.2256460">
	<ele>535.00</ele>
	<time>2025-02-15T07:08:23.000Z</time>
</trkpt>
<trkpt lat="45.8420390" lon="9.2256520">
	<ele>535.20</ele>
	<time>2025-02-15T07:08:24.000Z</time>
</trkpt>
<trkpt lat="45.8420470" lon="9.2256600">
	<ele>535.40</ele>
	<time>2025-02-15T07:08:25.000Z</time>
</trkpt>
<trkpt lat="45.8420550" lon="9.2256610">
	<ele>535.40</ele>
	<time>2025-02-15T07:08:26.000Z</time>
</trkpt>
<trkpt lat="45.8420680" lon="9.2256650">
	<ele>535.60</ele>
	<time>2025-02-15T07:08:27.000Z</time>
</trkpt>
<trkpt lat="45.8420800" lon="9.2256680">
	<ele>535.60</ele>
	<time>2025-02-15T07:08:28.000Z</time>
</trkpt>
<trkpt lat="45.8420850" lon="9.2256660">
	<ele>535.60</ele>
	<time>2025-02-15T07:08:29.000Z</time>
</trkpt>
<trkpt lat="45.8420960" lon="9.2256750">
	<ele>535.80</ele>
	<time>2025-02-15T07:08:30.000Z</time>
</trkpt>
<trkpt lat="45.8420980" lon="9.2256780">
	<ele>536.00</ele>
	<time>2025-02-15T07:08:31.000Z</time>
</trkpt>
<trkpt lat="45.8421050" lon="9.2256830">
	<ele>536.20</ele>
	<time>2025-02-15T07:08:32.000Z</time>
</trkpt>
<trkpt lat="45.8421070" lon="9.2256810">
	<ele>536.40</ele>
	<time>2025-02-15T07:08:33.000Z</time>
</trkpt>
<trkpt lat="45.8421080" lon="9.2256830">
	<ele>536.40</ele>
	<time>2025-02-15T07:08:34.000Z</time>
</trkpt>
<trkpt lat="45.8421040" lon="9.2256860">
	<ele>536.60</ele>
	<time>2025-02-15T07:08:35.000Z</time>
</trkpt>
<trkpt lat="45.8421060" lon="9.2256950">
	<ele>536.80</ele>
	<time>2025-02-15T07:08:36.000Z</time>
</trkpt>
<trkpt lat="45.8421080" lon="9.2256990">
	<ele>537.00</ele>
	<time>2025-02-15T07:08:37.000Z</time>
</trkpt>
<trkpt lat="45.8421180" lon="9.2257050">
	<ele>537.00</ele>
	<time>2025-02-15T07:08:38.000Z</time>
</trkpt>
<trkpt lat="45.8421300" lon="9.2257090">
	<ele>537.20</ele>
	<time>2025-02-15T07:08:39.000Z</time>
</trkpt>
<trkpt lat="45.8421350" lon="9.2257130">
	<ele>537.40</ele>
	<time>2025-02-15T07:08:40.000Z</time>
</trkpt>
<trkpt lat="45.8421370" lon="9.2257110">
	<ele>537.60</ele>
	<time>2025-02-15T07:08:41.000Z</time>
</trkpt>
<trkpt lat="45.8421410" lon="9.2257090">
	<ele>537.60</ele>
	<time>2025-02-15T07:08:42.000Z</time>
</trkpt>
<trkpt lat="45.8421590" lon="9.2257110">
	<ele>537.80</ele>
	<time>2025-02-15T07:08:43.000Z</time>
</trkpt>
<trkpt lat="45.8421710" lon="9.2257130">
	<ele>537.80</ele>
	<time>2025-02-15T07:08:44.000Z</time>
</trkpt>
<trkpt lat="45.8421720" lon="9.2257170">
	<ele>538.20</ele>
	<time>2025-02-15T07:08:45.000Z</time>
</trkpt>
<trkpt lat="45.8421720" lon="9.2257190">
	<ele>538.40</ele>
	<time>2025-02-15T07:08:46.000Z</time>
</trkpt>
<trkpt lat="45.8421740" lon="9.2257190">
	<ele>538.40</ele>
	<time>2025-02-15T07:08:47.000Z</time>
</trkpt>
<trkpt lat="45.8421770" lon="9.2257230">
	<ele>538.60</ele>
	<time>2025-02-15T07:08:48.000Z</time>
</trkpt>
<trkpt lat="45.8421800" lon="9.2257310">
	<ele>538.80</ele>
	<time>2025-02-15T07:08:49.000Z</time>
</trkpt>
<trkpt lat="45.8421840" lon="9.2257380">
	<ele>538.80</ele>
	<time>2025-02-15T07:08:50.000Z</time>
</trkpt>
<trkpt lat="45.8421840" lon="9.2257370">
	<ele>538.80</ele>
	<time>2025-02-15T07:08:51.000Z</time>
</trkpt>
<trkpt lat="45.8421860" lon="9.2257350">
	<ele>539.20</ele>
	<time>2025-02-15T07:08:52.000Z</time>
</trkpt>
<trkpt lat="45.8421950" lon="9.2257340">
	<ele>539.40</ele>
	<time>2025-02-15T07:08:53.000Z</time>
</trkpt>
<trkpt lat="45.8422020" lon="9.2257270">
	<ele>539.40</ele>
	<time>2025-02-15T07:08:54.000Z</time>
</trkpt>
<trkpt lat="45.8422060" lon="9.2257260">
	<ele>539.80</ele>
	<time>2025-02-15T07:08:55.000Z</time>
</trkpt>
<trkpt lat="45.8422100" lon="9.2257190">
	<ele>539.80</ele>
	<time>2025-02-15T07:08:56.000Z</time>
</trkpt>
<trkpt lat="45.8422130" lon="9.2257150">
	<ele>540.00</ele>
	<time>2025-02-15T07:08:57.000Z</time>
</trkpt>
<trkpt lat="45.8422150" lon="9.2257090">
	<ele>540.20</ele>
	<time>2025-02-15T07:08:58.000Z</time>
</trkpt>
<trkpt lat="45.8422140" lon="9.2257090">
	<ele>540.20</ele>
	<time>2025-02-15T07:08:59.000Z</time>
</trkpt>
<trkpt lat="45.8422110" lon="9.2257120">
	<ele>540.20</ele>
	<time>2025-02-15T07:09:00.000Z</time>
</trkpt>
<trkpt lat="45.8422120" lon="9.2257130">
	<ele>540.40</ele>
	<time>2025-02-15T07:09:01.000Z</time>
</trkpt>
<trkpt lat="45.8422150" lon="9.2257060">
	<ele>540.40</ele>
	<time>2025-02-15T07:09:02.000Z</time>
</trkpt>
<trkpt lat="45.8422200" lon="9.2257010">
	<ele>540.60</ele>
	<time>2025-02-15T07:09:03.000Z</time>
</trkpt>
<trkpt lat="45.8422220" lon="9.2257000">
	<ele>540.80</ele>
	<time>2025-02-15T07:09:04.000Z</time>
</trkpt>
<trkpt lat="45.8422260" lon="9.2257000">
	<ele>541.40</ele>
	<time>2025-02-15T07:09:05.000Z</time>
</trkpt>
<trkpt lat="45.8422310" lon="9.2257050">
	<ele>541.60</ele>
	<time>2025-02-15T07:09:06.000Z</time>
</trkpt>
<trkpt lat="45.8422300" lon="9.2257020">
	<ele>541.80</ele>
	<time>2025-02-15T07:09:07.000Z</time>
</trkpt>
<trkpt lat="45.8422360" lon="9.2257010">
	<ele>542.00</ele>
	<time>2025-02-15T07:09:08.000Z</time>
</trkpt>
<trkpt lat="45.8422450" lon="9.2257110">
	<ele>542.20</ele>
	<time>2025-02-15T07:09:09.000Z</time>
</trkpt>
<trkpt lat="45.8422440" lon="9.2257100">
	<ele>542.20</ele>
	<time>2025-02-15T07:09:10.000Z</time>
</trkpt>
<trkpt lat="45.8422440" lon="9.2257070">
	<ele>542.40</ele>
	<time>2025-02-15T07:09:11.000Z</time>
</trkpt>
<trkpt lat="45.8422490" lon="9.2257060">
	<ele>542.60</ele>
	<time>2025-02-15T07:09:12.000Z</time>
</trkpt>
<trkpt lat="45.8422500" lon="9.2257050">
	<ele>542.60</ele>
	<time>2025-02-15T07:09:13.000Z</time>
</trkpt>
<trkpt lat="45.8422510" lon="9.2257080">
	<ele>542.80</ele>
	<time>2025-02-15T07:09:14.000Z</time>
</trkpt>
<trkpt lat="45.8422540" lon="9.2257120">
	<ele>543.00</ele>
	<time>2025-02-15T07:09:15.000Z</time>
</trkpt>
<trkpt lat="45.8422530" lon="9.2257120">
	<ele>543.20</ele>
	<time>2025-02-15T07:09:16.000Z</time>
</trkpt>
<trkpt lat="45.8422510" lon="9.2257120">
	<ele>543.60</ele>
	<time>2025-02-15T07:09:17.000Z</time>
</trkpt>
<trkpt lat="45.8422500" lon="9.2257140">
	<ele>543.80</ele>
	<time>2025-02-15T07:09:18.000Z</time>
</trkpt>
<trkpt lat="45.8422490" lon="9.2257160">
	<ele>543.80</ele>
	<time>2025-02-15T07:09:19.000Z</time>
</trkpt>
<trkpt lat="45.8422480" lon="9.2257200">
	<ele>544.00</ele>
	<time>2025-02-15T07:09:20.000Z</time>
</trkpt>
<trkpt lat="45.8422470" lon="9.2257280">
	<ele>544.00</ele>
	<time>2025-02-15T07:09:21.000Z</time>
</trkpt>
<trkpt lat="45.8422490" lon="9.2257380">
	<ele>544.00</ele>
	<time>2025-02-15T07:09:22.000Z</time>
</trkpt>
<trkpt lat="45.8422540" lon="9.2257520">
	<ele>544.00</ele>
	<time>2025-02-15T07:09:23.000Z</time>
</trkpt>
<trkpt lat="45.8422560" lon="9.2257600">
	<ele>544.20</ele>
	<time>2025-02-15T07:09:24.000Z</time>
</trkpt>
<trkpt lat="45.8422580" lon="9.2257660">
	<ele>544.40</ele>
	<time>2025-02-15T07:09:25.000Z</time>
</trkpt>
<trkpt lat="45.8422660" lon="9.2257780">
	<ele>544.60</ele>
	<time>2025-02-15T07:09:26.000Z</time>
</trkpt>
<trkpt lat="45.8422770" lon="9.2257910">
	<ele>544.80</ele>
	<time>2025-02-15T07:09:27.000Z</time>
</trkpt>
<trkpt lat="45.8422810" lon="9.2257950">
	<ele>545.00</ele>
	<time>2025-02-15T07:09:28.000Z</time>
</trkpt>
<trkpt lat="45.8422850" lon="9.2257960">
	<ele>545.20</ele>
	<time>2025-02-15T07:09:29.000Z</time>
</trkpt>
<trkpt lat="45.8422960" lon="9.2258010">
	<ele>545.20</ele>
	<time>2025-02-15T07:09:30.000Z</time>
</trkpt>
<trkpt lat="45.8423090" lon="9.2258100">
	<ele>545.40</ele>
	<time>2025-02-15T07:09:31.000Z</time>
</trkpt>
<trkpt lat="45.8423170" lon="9.2258150">
	<ele>545.40</ele>
	<time>2025-02-15T07:09:32.000Z</time>
</trkpt>
<trkpt lat="45.8423240" lon="9.2258240">
	<ele>545.60</ele>
	<time>2025-02-15T07:09:33.000Z</time>
</trkpt>
<trkpt lat="45.8423250" lon="9.2258300">
	<ele>545.60</ele>
	<time>2025-02-15T07:09:34.000Z</time>
</trkpt>
<trkpt lat="45.8423190" lon="9.2258350">
	<ele>545.60</ele>
	<time>2025-02-15T07:09:35.000Z</time>
</trkpt>
<trkpt lat="45.8423190" lon="9.2258380">
	<ele>545.80</ele>
	<time>2025-02-15T07:09:36.000Z</time>
</trkpt>
<trkpt lat="45.8423190" lon="9.2258400">
	<ele>546.00</ele>
	<time>2025-02-15T07:09:37.000Z</time>
</trkpt>
<trkpt lat="45.8423180" lon="9.2258450">
	<ele>546.20</ele>
	<time>2025-02-15T07:09:38.000Z</time>
</trkpt>
<trkpt lat="45.8423180" lon="9.2258490">
	<ele>546.40</ele>
	<time>2025-02-15T07:09:39.000Z</time>
</trkpt>
<trkpt lat="45.8423160" lon="9.2258520">
	<ele>546.60</ele>
	<time>2025-02-15T07:09:40.000Z</time>
</trkpt>
<trkpt lat="45.8423170" lon="9.2258500">
	<ele>546.80</ele>
	<time>2025-02-15T07:09:41.000Z</time>
</trkpt>
<trkpt lat="45.8423180" lon="9.2258470">
	<ele>546.80</ele>
	<time>2025-02-15T07:09:42.000Z</time>
</trkpt>
<trkpt lat="45.8423290" lon="9.2258470">
	<ele>547.00</ele>
	<time>2025-02-15T07:09:43.000Z</time>
</trkpt>
<trkpt lat="45.8423370" lon="9.2258470">
	<ele>547.00</ele>
	<time>2025-02-15T07:09:44.000Z</time>
</trkpt>
<trkpt lat="45.8423400" lon="9.2258480">
	<ele>547.40</ele>
	<time>2025-02-15T07:09:45.000Z</time>
</trkpt>
<trkpt lat="45.8423370" lon="9.2258350">
	<ele>547.60</ele>
	<time>2025-02-15T07:09:46.000Z</time>
</trkpt>
<trkpt lat="45.8423380" lon="9.2258340">
	<ele>547.60</ele>
	<time>2025-02-15T07:09:47.000Z</time>
</trkpt>
<trkpt lat="45.8423410" lon="9.2258410">
	<ele>547.80</ele>
	<time>2025-02-15T07:09:48.000Z</time>
</trkpt>
<trkpt lat="45.8423390" lon="9.2258510">
	<ele>547.80</ele>
	<time>2025-02-15T07:09:49.000Z</time>
</trkpt>
<trkpt lat="45.8423410" lon="9.2258590">
	<ele>548.00</ele>
	<time>2025-02-15T07:09:50.000Z</time>
</trkpt>
<trkpt lat="45.8423350" lon="9.2258670">
	<ele>548.00</ele>
	<time>2025-02-15T07:09:51.000Z</time>
</trkpt>
<trkpt lat="45.8423330" lon="9.2258700">
	<ele>548.20</ele>
	<time>2025-02-15T07:09:52.000Z</time>
</trkpt>
<trkpt lat="45.8423300" lon="9.2258720">
	<ele>548.40</ele>
	<time>2025-02-15T07:09:53.000Z</time>
</trkpt>
<trkpt lat="45.8423260" lon="9.2258780">
	<ele>548.40</ele>
	<time>2025-02-15T07:09:54.000Z</time>
</trkpt>
<trkpt lat="45.8423240" lon="9.2258790">
	<ele>548.60</ele>
	<time>2025-02-15T07:09:55.000Z</time>
</trkpt>
<trkpt lat="45.8423350" lon="9.2258890">
	<ele>548.80</ele>
	<time>2025-02-15T07:09:56.000Z</time>
</trkpt>
<trkpt lat="45.8423360" lon="9.2258880">
	<ele>548.80</ele>
	<time>2025-02-15T07:09:57.000Z</time>
</trkpt>
<trkpt lat="45.8423470" lon="9.2258890">
	<ele>549.00</ele>
	<time>2025-02-15T07:09:58.000Z</time>
</trkpt>
<trkpt lat="45.8423490" lon="9.2258880">
	<ele>549.00</ele>
	<time>2025-02-15T07:09:59.000Z</time>
</trkpt>
<trkpt lat="45.8423530" lon="9.2258870">
	<ele>549.00</ele>
	<time>2025-02-15T07:10:00.000Z</time>
</trkpt>
<trkpt lat="45.8423590" lon="9.2258820">
	<ele>549.20</ele>
	<time>2025-02-15T07:10:01.000Z</time>
</trkpt>
<trkpt lat="45.8423570" lon="9.2258770">
	<ele>549.40</ele>
	<time>2025-02-15T07:10:02.000Z</time>
</trkpt>
<trkpt lat="45.8423580" lon="9.2258820">
	<ele>549.60</ele>
	<time>2025-02-15T07:10:03.000Z</time>
</trkpt>
<trkpt lat="45.8423580" lon="9.2258840">
	<ele>549.60</ele>
	<time>2025-02-15T07:10:04.000Z</time>
</trkpt>
<trkpt lat="45.8423650" lon="9.2258850">
	<ele>549.80</ele>
	<time>2025-02-15T07:10:05.000Z</time>
</trkpt>
<trkpt lat="45.8423700" lon="9.2258930">
	<ele>549.80</ele>
	<time>2025-02-15T07:10:06.000Z</time>
</trkpt>
<trkpt lat="45.8423700" lon="9.2258970">
	<ele>550.00</ele>
	<time>2025-02-15T07:10:07.000Z</time>
</trkpt>
<trkpt lat="45.8423700" lon="9.2258960">
	<ele>550.20</ele>
	<time>2025-02-15T07:10:08.000Z</time>
</trkpt>
<trkpt lat="45.8423740" lon="9.2258970">
	<ele>550.40</ele>
	<time>2025-02-15T07:10:09.000Z</time>
</trkpt>
<trkpt lat="45.8423760" lon="9.2258970">
	<ele>550.40</ele>
	<time>2025-02-15T07:10:10.000Z</time>
</trkpt>
<trkpt lat="45.8423760" lon="9.2258800">
	<ele>550.60</ele>
	<time>2025-02-15T07:10:11.000Z</time>
</trkpt>
<trkpt lat="45.8423800" lon="9.2258830">
	<ele>550.60</ele>
	<time>2025-02-15T07:10:12.000Z</time>
</trkpt>
<trkpt lat="45.8423900" lon="9.2258780">
	<ele>550.80</ele>
	<time>2025-02-15T07:10:13.000Z</time>
</trkpt>
<trkpt lat="45.8424000" lon="9.2258780">
	<ele>550.80</ele>
	<time>2025-02-15T07:10:14.000Z</time>
</trkpt>
<trkpt lat="45.8424120" lon="9.2258760">
	<ele>551.20</ele>
	<time>2025-02-15T07:10:15.000Z</time>
</trkpt>
<trkpt lat="45.8424130" lon="9.2258760">
	<ele>551.40</ele>
	<time>2025-02-15T07:10:16.000Z</time>
</trkpt>
<trkpt lat="45.8424250" lon="9.2258900">
	<ele>551.60</ele>
	<time>2025-02-15T07:10:17.000Z</time>
</trkpt>
<trkpt lat="45.8424340" lon="9.2259000">
	<ele>551.80</ele>
	<time>2025-02-15T07:10:18.000Z</time>
</trkpt>
<trkpt lat="45.8424370" lon="9.2259080">
	<ele>551.80</ele>
	<time>2025-02-15T07:10:19.000Z</time>
</trkpt>
<trkpt lat="45.8424370" lon="9.2259090">
	<ele>552.00</ele>
	<time>2025-02-15T07:10:20.000Z</time>
</trkpt>
<trkpt lat="45.8424370" lon="9.2259060">
	<ele>552.40</ele>
	<time>2025-02-15T07:10:21.000Z</time>
</trkpt>
<trkpt lat="45.8424380" lon="9.2259040">
	<ele>552.80</ele>
	<time>2025-02-15T07:10:22.000Z</time>
</trkpt>
<trkpt lat="45.8424360" lon="9.2259040">
	<ele>553.00</ele>
	<time>2025-02-15T07:10:23.000Z</time>
</trkpt>
<trkpt lat="45.8424440" lon="9.2259100">
	<ele>553.20</ele>
	<time>2025-02-15T07:10:24.000Z</time>
</trkpt>
<trkpt lat="45.8424440" lon="9.2259120">
	<ele>553.40</ele>
	<time>2025-02-15T07:10:25.000Z</time>
</trkpt>
<trkpt lat="45.8424450" lon="9.2259160">
	<ele>553.40</ele>
	<time>2025-02-15T07:10:26.000Z</time>
</trkpt>
<trkpt lat="45.8424440" lon="9.2259170">
	<ele>553.60</ele>
	<time>2025-02-15T07:10:27.000Z</time>
</trkpt>
<trkpt lat="45.8424430" lon="9.2259150">
	<ele>553.60</ele>
	<time>2025-02-15T07:10:28.000Z</time>
</trkpt>
<trkpt lat="45.8424430" lon="9.2259140">
	<ele>553.60</ele>
	<time>2025-02-15T07:10:29.000Z</time>
</trkpt>
<trkpt lat="45.8424440" lon="9.2259180">
	<ele>553.60</ele>
	<time>2025-02-15T07:10:30.000Z</time>
</trkpt>
<trkpt lat="45.8424450" lon="9.2259170">
	<ele>553.60</ele>
	<time>2025-02-15T07:10:31.000Z</time>
</trkpt>
<trkpt lat="45.8424460" lon="9.2259060">
	<ele>553.80</ele>
	<time>2025-02-15T07:10:32.000Z</time>
</trkpt>
<trkpt lat="45.8424430" lon="9.2259030">
	<ele>553.80</ele>
	<time>2025-02-15T07:10:33.000Z</time>
</trkpt>
<trkpt lat="45.8424460" lon="9.2258980">
	<ele>553.80</ele>
	<time>2025-02-15T07:10:34.000Z</time>
</trkpt>
<trkpt lat="45.8424630" lon="9.2259030">
	<ele>554.00</ele>
	<time>2025-02-15T07:10:35.000Z</time>
</trkpt>
<trkpt lat="45.8424650" lon="9.2258920">
	<ele>554.00</ele>
	<time>2025-02-15T07:10:36.000Z</time>
</trkpt>
<trkpt lat="45.8424670" lon="9.2258850">
	<ele>554.20</ele>
	<time>2025-02-15T07:10:37.000Z</time>
</trkpt>
<trkpt lat="45.8424790" lon="9.2258920">
	<ele>554.40</ele>
	<time>2025-02-15T07:10:38.000Z</time>
</trkpt>
<trkpt lat="45.8424840" lon="9.2258920">
	<ele>554.60</ele>
	<time>2025-02-15T07:10:39.000Z</time>
</trkpt>
<trkpt lat="45.8424850" lon="9.2258920">
	<ele>554.80</ele>
	<time>2025-02-15T07:10:40.000Z</time>
</trkpt>
<trkpt lat="45.8424890" lon="9.2259010">
	<ele>555.00</ele>
	<time>2025-02-15T07:10:41.000Z</time>
</trkpt>
<trkpt lat="45.8424890" lon="9.2259030">
	<ele>555.20</ele>
	<time>2025-02-15T07:10:42.000Z</time>
</trkpt>
<trkpt lat="45.8424920" lon="9.2259050">
	<ele>555.40</ele>
	<time>2025-02-15T07:10:43.000Z</time>
</trkpt>
<trkpt lat="45.8424990" lon="9.2259120">
	<ele>555.40</ele>
	<time>2025-02-15T07:10:44.000Z</time>
</trkpt>
<trkpt lat="45.8425010" lon="9.2259150">
	<ele>555.60</ele>
	<time>2025-02-15T07:10:45.000Z</time>
</trkpt>
<trkpt lat="45.8425020" lon="9.2259160">
	<ele>555.60</ele>
	<time>2025-02-15T07:10:46.000Z</time>
</trkpt>
<trkpt lat="45.8424980" lon="9.2259190">
	<ele>556.00</ele>
	<time>2025-02-15T07:10:47.000Z</time>
</trkpt>
<trkpt lat="45.8425030" lon="9.2259240">
	<ele>556.00</ele>
	<time>2025-02-15T07:10:48.000Z</time>
</trkpt>
<trkpt lat="45.8425040" lon="9.2259290">
	<ele>556.40</ele>
	<time>2025-02-15T07:10:49.000Z</time>
</trkpt>
<trkpt lat="45.8425060" lon="9.2259320">
	<ele>556.40</ele>
	<time>2025-02-15T07:10:50.000Z</time>
</trkpt>
<trkpt lat="45.8425170" lon="9.2259480">
	<ele>556.60</ele>
	<time>2025-02-15T07:10:51.000Z</time>
</trkpt>
<trkpt lat="45.8425170" lon="9.2259540">
	<ele>556.60</ele>
	<time>2025-02-15T07:10:52.000Z</time>
</trkpt>
<trkpt lat="45.8425180" lon="9.2259560">
	<ele>557.00</ele>
	<time>2025-02-15T07:10:53.000Z</time>
</trkpt>
<trkpt lat="45.8425240" lon="9.2259560">
	<ele>557.20</ele>
	<time>2025-02-15T07:10:54.000Z</time>
</trkpt>
<trkpt lat="45.8425310" lon="9.2259590">
	<ele>557.20</ele>
	<time>2025-02-15T07:10:55.000Z</time>
</trkpt>
<trkpt lat="45.8425320" lon="9.2259600">
	<ele>557.40</ele>
	<time>2025-02-15T07:10:56.000Z</time>
</trkpt>
<trkpt lat="45.8425310" lon="9.2259590">
	<ele>557.60</ele>
	<time>2025-02-15T07:10:57.000Z</time>
</trkpt>
<trkpt lat="45.8425290" lon="9.2259570">
	<ele>557.80</ele>
	<time>2025-02-15T07:10:58.000Z</time>
</trkpt>
<trkpt lat="45.8425240" lon="9.2259700">
	<ele>557.80</ele>
	<time>2025-02-15T07:10:59.000Z</time>
</trkpt>
<trkpt lat="45.8425220" lon="9.2259740">
	<ele>558.00</ele>
	<time>2025-02-15T07:11:00.000Z</time>
</trkpt>
<trkpt lat="45.8425220" lon="9.2259780">
	<ele>558.00</ele>
	<time>2025-02-15T07:11:01.000Z</time>
</trkpt>
<trkpt lat="45.8425310" lon="9.2259820">
	<ele>558.20</ele>
	<time>2025-02-15T07:11:02.000Z</time>
</trkpt>
<trkpt lat="45.8425410" lon="9.2259860">
	<ele>558.40</ele>
	<time>2025-02-15T07:11:03.000Z</time>
</trkpt>
<trkpt lat="45.8425490" lon="9.2259950">
	<ele>558.40</ele>
	<time>2025-02-15T07:11:04.000Z</time>
</trkpt>
<trkpt lat="45.8425470" lon="9.2260010">
	<ele>558.60</ele>
	<time>2025-02-15T07:11:05.000Z</time>
</trkpt>
<trkpt lat="45.8425470" lon="9.2260040">
	<ele>558.80</ele>
	<time>2025-02-15T07:11:06.000Z</time>
</trkpt>
<trkpt lat="45.8425450" lon="9.2260060">
	<ele>559.20</ele>
	<time>2025-02-15T07:11:07.000Z</time>
</trkpt>
<trkpt lat="45.8425470" lon="9.2260090">
	<ele>559.20</ele>
	<time>2025-02-15T07:11:08.000Z</time>
</trkpt>
<trkpt lat="45.8425520" lon="9.2260140">
	<ele>559.40</ele>
	<time>2025-02-15T07:11:09.000Z</time>
</trkpt>
<trkpt lat="45.8425560" lon="9.2260200">
	<ele>559.60</ele>
	<time>2025-02-15T07:11:10.000Z</time>
</trkpt>
<trkpt lat="45.8425600" lon="9.2260260">
	<ele>559.60</ele>
	<time>2025-02-15T07:11:11.000Z</time>
</trkpt>
<trkpt lat="45.8425660" lon="9.2260300">
	<ele>559.80</ele>
	<time>2025-02-15T07:11:12.000Z</time>
</trkpt>
<trkpt lat="45.8425670" lon="9.2260320">
	<ele>559.80</ele>
	<time>2025-02-15T07:11:13.000Z</time>
</trkpt>
<trkpt lat="45.8425700" lon="9.2260340">
	<ele>560.00</ele>
	<time>2025-02-15T07:11:14.000Z</time>
</trkpt>
<trkpt lat="45.8425720" lon="9.2260360">
	<ele>560.20</ele>
	<time>2025-02-15T07:11:15.000Z</time>
</trkpt>
<trkpt lat="45.8425760" lon="9.2260430">
	<ele>560.20</ele>
	<time>2025-02-15T07:11:16.000Z</time>
</trkpt>
<trkpt lat="45.8425760" lon="9.2260480">
	<ele>560.40</ele>
	<time>2025-02-15T07:11:17.000Z</time>
</trkpt>
<trkpt lat="45.8425770" lon="9.2260510">
	<ele>560.40</ele>
	<time>2025-02-15T07:11:18.000Z</time>
</trkpt>
<trkpt lat="45.8425770" lon="9.2260610">
	<ele>560.60</ele>
	<time>2025-02-15T07:11:19.000Z</time>
</trkpt>
<trkpt lat="45.8425770" lon="9.2260720">
	<ele>560.80</ele>
	<time>2025-02-15T07:11:20.000Z</time>
</trkpt>
<trkpt lat="45.8425860" lon="9.2260800">
	<ele>561.00</ele>
	<time>2025-02-15T07:11:21.000Z</time>
</trkpt>
<trkpt lat="45.8425880" lon="9.2260840">
	<ele>561.20</ele>
	<time>2025-02-15T07:11:22.000Z</time>
</trkpt>
<trkpt lat="45.8425910" lon="9.2260870">
	<ele>561.20</ele>
	<time>2025-02-15T07:11:23.000Z</time>
</trkpt>
<trkpt lat="45.8425930" lon="9.2260900">
	<ele>561.20</ele>
	<time>2025-02-15T07:11:24.000Z</time>
</trkpt>
<trkpt lat="45.8425970" lon="9.2260990">
	<ele>561.60</ele>
	<time>2025-02-15T07:11:25.000Z</time>
</trkpt>
<trkpt lat="45.8425970" lon="9.2261060">
	<ele>561.80</ele>
	<time>2025-02-15T07:11:26.000Z</time>
</trkpt>
<trkpt lat="45.8425970" lon="9.2261120">
	<ele>561.80</ele>
	<time>2025-02-15T07:11:27.000Z</time>
</trkpt>
<trkpt lat="45.8426070" lon="9.2261230">
	<ele>562.00</ele>
	<time>2025-02-15T07:11:28.000Z</time>
</trkpt>
<trkpt lat="45.8426080" lon="9.2261220">
	<ele>562.20</ele>
	<time>2025-02-15T07:11:29.000Z</time>
</trkpt>
<trkpt lat="45.8426120" lon="9.2261370">
	<ele>562.40</ele>
	<time>2025-02-15T07:11:30.000Z</time>
</trkpt>
<trkpt lat="45.8426130" lon="9.2261430">
	<ele>562.40</ele>
	<time>2025-02-15T07:11:31.000Z</time>
</trkpt>
<trkpt lat="45.8426140" lon="9.2261480">
	<ele>562.60</ele>
	<time>2025-02-15T07:11:32.000Z</time>
</trkpt>
<trkpt lat="45.8426160" lon="9.2261500">
	<ele>562.60</ele>
	<time>2025-02-15T07:11:33.000Z</time>
</trkpt>
<trkpt lat="45.8426160" lon="9.2261530">
	<ele>563.00</ele>
	<time>2025-02-15T07:11:34.000Z</time>
</trkpt>
<trkpt lat="45.8426090" lon="9.2261680">
	<ele>563.00</ele>
	<time>2025-02-15T07:11:35.000Z</time>
</trkpt>
<trkpt lat="45.8426120" lon="9.2261780">
	<ele>563.20</ele>
	<time>2025-02-15T07:11:36.000Z</time>
</trkpt>
<trkpt lat="45.8426120" lon="9.2261880">
	<ele>563.20</ele>
	<time>2025-02-15T07:11:37.000Z</time>
</trkpt>
<trkpt lat="45.8426220" lon="9.2261940">
	<ele>563.40</ele>
	<time>2025-02-15T07:11:38.000Z</time>
</trkpt>
<trkpt lat="45.8426300" lon="9.2262040">
	<ele>563.40</ele>
	<time>2025-02-15T07:11:39.000Z</time>
</trkpt>
<trkpt lat="45.8426290" lon="9.2262070">
	<ele>563.40</ele>
	<time>2025-02-15T07:11:40.000Z</time>
</trkpt>
<trkpt lat="45.8426290" lon="9.2262080">
	<ele>563.40</ele>
	<time>2025-02-15T07:11:41.000Z</time>
</trkpt>
<trkpt lat="45.8426290" lon="9.2262070">
	<ele>563.40</ele>
	<time>2025-02-15T07:11:42.000Z</time>
</trkpt>
<trkpt lat="45.8426290" lon="9.2262070">
	<ele>563.40</ele>
	<time>2025-02-15T07:11:43.000Z</time>
</trkpt>
<trkpt lat="45.8426280" lon="9.2262060">
	<ele>563.20</ele>
	<time>2025-02-15T07:11:44.000Z</time>
</trkpt>
<trkpt lat="45.8426260" lon="9.2262030">
	<ele>563.20</ele>
	<time>2025-02-15T07:11:45.000Z</time>
</trkpt>
<trkpt lat="45.8426260" lon="9.2262010">
	<ele>563.20</ele>
	<time>2025-02-15T07:11:46.000Z</time>
</trkpt>
<trkpt lat="45.8426270" lon="9.2262010">
	<ele>563.20</ele>
	<time>2025-02-15T07:11:47.000Z</time>
</trkpt>
<trkpt lat="45.8426260" lon="9.2262010">
	<ele>563.20</ele>
	<time>2025-02-15T07:11:48.000Z</time>
</trkpt>
<trkpt lat="45.8426270" lon="9.2262000">
	<ele>563.20</ele>
	<time>2025-02-15T07:11:49.000Z</time>
</trkpt>
<trkpt lat="45.8426250" lon="9.2262010">
	<ele>563.40</ele>
	<time>2025-02-15T07:11:50.000Z</time>
</trkpt>
<trkpt lat="45.8426260" lon="9.2262000">
	<ele>563.40</ele>
	<time>2025-02-15T07:11:51.000Z</time>
</trkpt>
<trkpt lat="45.8426340" lon="9.2262000">
	<ele>563.60</ele>
	<time>2025-02-15T07:11:52.000Z</time>
</trkpt>
<trkpt lat="45.8426350" lon="9.2261990">
	<ele>563.60</ele>
	<time>2025-02-15T07:11:53.000Z</time>
</trkpt>
<trkpt lat="45.8426370" lon="9.2261950">
	<ele>563.60</ele>
	<time>2025-02-15T07:11:54.000Z</time>
</trkpt>
<trkpt lat="45.8426470" lon="9.2261920">
	<ele>563.60</ele>
	<time>2025-02-15T07:11:55.000Z</time>
</trkpt>
<trkpt lat="45.8426490" lon="9.2261880">
	<ele>563.60</ele>
	<time>2025-02-15T07:11:56.000Z</time>
</trkpt>
<trkpt lat="45.8426590" lon="9.2261810">
	<ele>563.60</ele>
	<time>2025-02-15T07:11:57.000Z</time>
</trkpt>
<trkpt lat="45.8426590" lon="9.2261810">
	<ele>563.60</ele>
	<time>2025-02-15T07:11:58.000Z</time>
</trkpt>
<trkpt lat="45.8426590" lon="9.2261810">
	<ele>563.40</ele>
	<time>2025-02-15T07:11:59.000Z</time>
</trkpt>
<trkpt lat="45.8426590" lon="9.2261810">
	<ele>563.40</ele>
	<time>2025-02-15T07:12:00.000Z</time>
</trkpt>
<trkpt lat="45.8426590" lon="9.2261810">
	<ele>563.40</ele>
	<time>2025-02-15T07:12:01.000Z</time>
</trkpt>
<trkpt lat="45.8426590" lon="9.2261810">
	<ele>563.40</ele>
	<time>2025-02-15T07:12:02.000Z</time>
</trkpt>
<trkpt lat="45.8426590" lon="9.2261810">
	<ele>563.40</ele>
	<time>2025-02-15T07:12:03.000Z</time>
</trkpt>
<trkpt lat="45.8426590" lon="9.2261810">
	<ele>563.40</ele>
	<time>2025-02-15T07:12:04.000Z</time>
</trkpt>
<trkpt lat="45.8426590" lon="9.2261810">
	<ele>563.40</ele>
	<time>2025-02-15T07:12:05.000Z</time>
</trkpt>
<trkpt lat="45.8426590" lon="9.2261810">
	<ele>563.60</ele>
	<time>2025-02-15T07:12:06.000Z</time>
</trkpt>
<trkpt lat="45.8426590" lon="9.2261810">
	<ele>563.60</ele>
	<time>2025-02-15T07:12:07.000Z</time>
</trkpt>
<trkpt lat="45.8426590" lon="9.2261810">
	<ele>564.20</ele>
	<time>2025-02-15T07:12:08.000Z</time>
</trkpt>
<trkpt lat="45.8426590" lon="9.2261810">
	<ele>564.60</ele>
	<time>2025-02-15T07:12:09.000Z</time>
</trkpt>
<trkpt lat="45.8426590" lon="9.2261820">
	<ele>565.00</ele>
	<time>2025-02-15T07:12:10.000Z</time>
</trkpt>
<trkpt lat="45.8426590" lon="9.2261820">
	<ele>565.20</ele>
	<time>2025-02-15T07:12:11.000Z</time>
</trkpt>
<trkpt lat="45.8426590" lon="9.2261830">
	<ele>565.20</ele>
	<time>2025-02-15T07:12:12.000Z</time>
</trkpt>
<trkpt lat="45.8426590" lon="9.2261840">
	<ele>565.20</ele>
	<time>2025-02-15T07:12:13.000Z</time>
</trkpt>
<trkpt lat="45.8426590" lon="9.2261850">
	<ele>565.40</ele>
	<time>2025-02-15T07:12:14.000Z</time>
</trkpt>
<trkpt lat="45.8426590" lon="9.2261850">
	<ele>565.60</ele>
	<time>2025-02-15T07:12:15.000Z</time>
</trkpt>
<trkpt lat="45.8426590" lon="9.2261850">
	<ele>565.60</ele>
	<time>2025-02-15T07:12:16.000Z</time>
</trkpt>
<trkpt lat="45.8426590" lon="9.2261850">
	<ele>565.60</ele>
	<time>2025-02-15T07:12:17.000Z</time>
</trkpt>
<trkpt lat="45.8426590" lon="9.2261850">
	<ele>565.60</ele>
	<time>2025-02-15T07:12:18.000Z</time>
</trkpt>
<trkpt lat="45.8426590" lon="9.2261850">
	<ele>566.20</ele>
	<time>2025-02-15T07:12:19.000Z</time>
</trkpt>
<trkpt lat="45.8426590" lon="9.2261850">
	<ele>566.20</ele>
	<time>2025-02-15T07:12:20.000Z</time>
</trkpt>
<trkpt lat="45.8426600" lon="9.2261850">
	<ele>566.20</ele>
	<time>2025-02-15T07:12:21.000Z</time>
</trkpt>
<trkpt lat="45.8426600" lon="9.2261840">
	<ele>566.20</ele>
	<time>2025-02-15T07:12:22.000Z</time>
</trkpt>
<trkpt lat="45.8426630" lon="9.2261830">
	<ele>566.20</ele>
	<time>2025-02-15T07:12:23.000Z</time>
</trkpt>
<trkpt lat="45.8426640" lon="9.2261820">
	<ele>566.60</ele>
	<time>2025-02-15T07:12:24.000Z</time>
</trkpt>
<trkpt lat="45.8426640" lon="9.2261820">
	<ele>566.80</ele>
	<time>2025-02-15T07:12:25.000Z</time>
</trkpt>
<trkpt lat="45.8426650" lon="9.2261820">
	<ele>567.00</ele>
	<time>2025-02-15T07:12:26.000Z</time>
</trkpt>
<trkpt lat="45.8426660" lon="9.2261820">
	<ele>567.40</ele>
	<time>2025-02-15T07:12:27.000Z</time>
</trkpt>
<trkpt lat="45.8426690" lon="9.2261820">
	<ele>567.60</ele>
	<time>2025-02-15T07:12:28.000Z</time>
</trkpt>
<trkpt lat="45.8426720" lon="9.2261820">
	<ele>567.60</ele>
	<time>2025-02-15T07:12:29.000Z</time>
</trkpt>
<trkpt lat="45.8426740" lon="9.2261810">
	<ele>567.60</ele>
	<time>2025-02-15T07:12:30.000Z</time>
</trkpt>
<trkpt lat="45.8426750" lon="9.2261810">
	<ele>567.80</ele>
	<time>2025-02-15T07:12:31.000Z</time>
</trkpt>
<trkpt lat="45.8426800" lon="9.2261800">
	<ele>567.80</ele>
	<time>2025-02-15T07:12:32.000Z</time>
</trkpt>
<trkpt lat="45.8426810" lon="9.2261800">
	<ele>568.00</ele>
	<time>2025-02-15T07:12:33.000Z</time>
</trkpt>
<trkpt lat="45.8426820" lon="9.2261800">
	<ele>568.00</ele>
	<time>2025-02-15T07:12:34.000Z</time>
</trkpt>
<trkpt lat="45.8426840" lon="9.2261800">
	<ele>568.20</ele>
	<time>2025-02-15T07:12:35.000Z</time>
</trkpt>
<trkpt lat="45.8426860" lon="9.2261800">
	<ele>568.40</ele>
	<time>2025-02-15T07:12:36.000Z</time>
</trkpt>
<trkpt lat="45.8426860" lon="9.2261800">
	<ele>568.60</ele>
	<time>2025-02-15T07:12:37.000Z</time>
</trkpt>
<trkpt lat="45.8426870" lon="9.2261800">
	<ele>568.80</ele>
	<time>2025-02-15T07:12:38.000Z</time>
</trkpt>
<trkpt lat="45.8426870" lon="9.2261800">
	<ele>568.80</ele>
	<time>2025-02-15T07:12:39.000Z</time>
</trkpt>
<trkpt lat="45.8426870" lon="9.2261800">
	<ele>569.00</ele>
	<time>2025-02-15T07:12:40.000Z</time>
</trkpt>
<trkpt lat="45.8426880" lon="9.2261800">
	<ele>569.20</ele>
	<time>2025-02-15T07:12:41.000Z</time>
</trkpt>
<trkpt lat="45.8426880" lon="9.2261800">
	<ele>569.40</ele>
	<time>2025-02-15T07:12:42.000Z</time>
</trkpt>
<trkpt lat="45.8426890" lon="9.2261800">
	<ele>569.40</ele>
	<time>2025-02-15T07:12:43.000Z</time>
</trkpt>
<trkpt lat="45.8426890" lon="9.2261800">
	<ele>569.60</ele>
	<time>2025-02-15T07:12:44.000Z</time>
</trkpt>
<trkpt lat="45.8426890" lon="9.2261800">
	<ele>569.80</ele>
	<time>2025-02-15T07:12:45.000Z</time>
</trkpt>
<trkpt lat="45.8426890" lon="9.2261800">
	<ele>570.00</ele>
	<time>2025-02-15T07:12:46.000Z</time>
</trkpt>
<trkpt lat="45.8426900" lon="9.2261800">
	<ele>570.20</ele>
	<time>2025-02-15T07:12:47.000Z</time>
</trkpt>
<trkpt lat="45.8426900" lon="9.2261810">
	<ele>570.40</ele>
	<time>2025-02-15T07:12:48.000Z</time>
</trkpt>
<trkpt lat="45.8426910" lon="9.2261830">
	<ele>570.60</ele>
	<time>2025-02-15T07:12:49.000Z</time>
</trkpt>
<trkpt lat="45.8426920" lon="9.2261860">
	<ele>570.80</ele>
	<time>2025-02-15T07:12:50.000Z</time>
</trkpt>
<trkpt lat="45.8426930" lon="9.2261880">
	<ele>570.80</ele>
	<time>2025-02-15T07:12:51.000Z</time>
</trkpt>
<trkpt lat="45.8426940" lon="9.2261910">
	<ele>570.80</ele>
	<time>2025-02-15T07:12:52.000Z</time>
</trkpt>
<trkpt lat="45.8426940" lon="9.2261970">
	<ele>571.00</ele>
	<time>2025-02-15T07:12:53.000Z</time>
</trkpt>
<trkpt lat="45.8426940" lon="9.2261990">
	<ele>571.00</ele>
	<time>2025-02-15T07:12:54.000Z</time>
</trkpt>
<trkpt lat="45.8426940" lon="9.2262010">
	<ele>571.20</ele>
	<time>2025-02-15T07:12:55.000Z</time>
</trkpt>
<trkpt lat="45.8426940" lon="9.2262020">
	<ele>571.40</ele>
	<time>2025-02-15T07:12:56.000Z</time>
</trkpt>
<trkpt lat="45.8426950" lon="9.2262030">
	<ele>571.40</ele>
	<time>2025-02-15T07:12:57.000Z</time>
</trkpt>
<trkpt lat="45.8426950" lon="9.2262050">
	<ele>571.80</ele>
	<time>2025-02-15T07:12:58.000Z</time>
</trkpt>
<trkpt lat="45.8426950" lon="9.2262050">
	<ele>572.00</ele>
	<time>2025-02-15T07:12:59.000Z</time>
</trkpt>
<trkpt lat="45.8426950" lon="9.2262090">
	<ele>572.00</ele>
	<time>2025-02-15T07:13:00.000Z</time>
</trkpt>
<trkpt lat="45.8426960" lon="9.2262130">
	<ele>572.40</ele>
	<time>2025-02-15T07:13:01.000Z</time>
</trkpt>
<trkpt lat="45.8426970" lon="9.2262160">
	<ele>572.60</ele>
	<time>2025-02-15T07:13:02.000Z</time>
</trkpt>
<trkpt lat="45.8426970" lon="9.2262190">
	<ele>572.60</ele>
	<time>2025-02-15T07:13:03.000Z</time>
</trkpt>
<trkpt lat="45.8426980" lon="9.2262220">
	<ele>572.80</ele>
	<time>2025-02-15T07:13:04.000Z</time>
</trkpt>
<trkpt lat="45.8426980" lon="9.2262250">
	<ele>572.80</ele>
	<time>2025-02-15T07:13:05.000Z</time>
</trkpt>
<trkpt lat="45.8426990" lon="9.2262330">
	<ele>573.00</ele>
	<time>2025-02-15T07:13:06.000Z</time>
</trkpt>
<trkpt lat="45.8427040" lon="9.2262400">
	<ele>573.20</ele>
	<time>2025-02-15T07:13:07.000Z</time>
</trkpt>
<trkpt lat="45.8427070" lon="9.2262450">
	<ele>573.40</ele>
	<time>2025-02-15T07:13:08.000Z</time>
</trkpt>
<trkpt lat="45.8427100" lon="9.2262500">
	<ele>573.60</ele>
	<time>2025-02-15T07:13:09.000Z</time>
</trkpt>
<trkpt lat="45.8427130" lon="9.2262540">
	<ele>573.80</ele>
	<time>2025-02-15T07:13:10.000Z</time>
</trkpt>
<trkpt lat="45.8427190" lon="9.2262590">
	<ele>573.80</ele>
	<time>2025-02-15T07:13:11.000Z</time>
</trkpt>
<trkpt lat="45.8427230" lon="9.2262630">
	<ele>573.80</ele>
	<time>2025-02-15T07:13:12.000Z</time>
</trkpt>
<trkpt lat="45.8427260" lon="9.2262640">
	<ele>573.80</ele>
	<time>2025-02-15T07:13:13.000Z</time>
</trkpt>
<trkpt lat="45.8427270" lon="9.2262660">
	<ele>573.80</ele>
	<time>2025-02-15T07:13:14.000Z</time>
</trkpt>
<trkpt lat="45.8427290" lon="9.2262670">
	<ele>573.60</ele>
	<time>2025-02-15T07:13:15.000Z</time>
</trkpt>
<trkpt lat="45.8427290" lon="9.2262680">
	<ele>573.60</ele>
	<time>2025-02-15T07:13:16.000Z</time>
</trkpt>
<trkpt lat="45.8427300" lon="9.2262690">
	<ele>573.60</ele>
	<time>2025-02-15T07:13:17.000Z</time>
</trkpt>
<trkpt lat="45.8427320" lon="9.2262700">
	<ele>573.60</ele>
	<time>2025-02-15T07:13:18.000Z</time>
</trkpt>
<trkpt lat="45.8427330" lon="9.2262700">
	<ele>573.60</ele>
	<time>2025-02-15T07:13:19.000Z</time>
</trkpt>
<trkpt lat="45.8427310" lon="9.2262790">
	<ele>573.60</ele>
	<time>2025-02-15T07:13:20.000Z</time>
</trkpt>
<trkpt lat="45.8427280" lon="9.2262920">
	<ele>573.60</ele>
	<time>2025-02-15T07:13:21.000Z</time>
</trkpt>
<trkpt lat="45.8427260" lon="9.2263050">
	<ele>573.40</ele>
	<time>2025-02-15T07:13:22.000Z</time>
</trkpt>
<trkpt lat="45.8427230" lon="9.2263170">
	<ele>573.40</ele>
	<time>2025-02-15T07:13:23.000Z</time>
</trkpt>
<trkpt lat="45.8427270" lon="9.2263220">
	<ele>573.40</ele>
	<time>2025-02-15T07:13:24.000Z</time>
</trkpt>
<trkpt lat="45.8427250" lon="9.2263290">
	<ele>573.40</ele>
	<time>2025-02-15T07:13:25.000Z</time>
</trkpt>
<trkpt lat="45.8427240" lon="9.2263360">
	<ele>573.40</ele>
	<time>2025-02-15T07:13:26.000Z</time>
</trkpt>
<trkpt lat="45.8427250" lon="9.2263420">
	<ele>573.40</ele>
	<time>2025-02-15T07:13:27.000Z</time>
</trkpt>
<trkpt lat="45.8427260" lon="9.2263490">
	<ele>573.40</ele>
	<time>2025-02-15T07:13:28.000Z</time>
</trkpt>
<trkpt lat="45.8427270" lon="9.2263580">
	<ele>573.40</ele>
	<time>2025-02-15T07:13:29.000Z</time>
</trkpt>
<trkpt lat="45.8427260" lon="9.2263580">
	<ele>573.40</ele>
	<time>2025-02-15T07:13:30.000Z</time>
</trkpt>
<trkpt lat="45.8427250" lon="9.2263600">
	<ele>573.40</ele>
	<time>2025-02-15T07:13:31.000Z</time>
</trkpt>
<trkpt lat="45.8427280" lon="9.2263700">
	<ele>573.40</ele>
	<time>2025-02-15T07:13:32.000Z</time>
</trkpt>
<trkpt lat="45.8427300" lon="9.2263730">
	<ele>573.40</ele>
	<time>2025-02-15T07:13:33.000Z</time>
</trkpt>
<trkpt lat="45.8427420" lon="9.2263810">
	<ele>573.40</ele>
	<time>2025-02-15T07:13:34.000Z</time>
</trkpt>
<trkpt lat="45.8427450" lon="9.2263830">
	<ele>573.60</ele>
	<time>2025-02-15T07:13:35.000Z</time>
</trkpt>
<trkpt lat="45.8427460" lon="9.2263860">
	<ele>573.60</ele>
	<time>2025-02-15T07:13:36.000Z</time>
</trkpt>
<trkpt lat="45.8427510" lon="9.2263910">
	<ele>574.00</ele>
	<time>2025-02-15T07:13:37.000Z</time>
</trkpt>
<trkpt lat="45.8427570" lon="9.2263990">
	<ele>574.20</ele>
	<time>2025-02-15T07:13:38.000Z</time>
</trkpt>
<trkpt lat="45.8427570" lon="9.2264020">
	<ele>574.40</ele>
	<time>2025-02-15T07:13:39.000Z</time>
</trkpt>
<trkpt lat="45.8427570" lon="9.2264000">
	<ele>574.60</ele>
	<time>2025-02-15T07:13:40.000Z</time>
</trkpt>
<trkpt lat="45.8427560" lon="9.2264000">
	<ele>574.80</ele>
	<time>2025-02-15T07:13:41.000Z</time>
</trkpt>
<trkpt lat="45.8427600" lon="9.2264030">
	<ele>575.00</ele>
	<time>2025-02-15T07:13:42.000Z</time>
</trkpt>
<trkpt lat="45.8427610" lon="9.2264040">
	<ele>575.00</ele>
	<time>2025-02-15T07:13:43.000Z</time>
</trkpt>
<trkpt lat="45.8427610" lon="9.2264040">
	<ele>575.00</ele>
	<time>2025-02-15T07:13:44.000Z</time>
</trkpt>
<trkpt lat="45.8427600" lon="9.2264040">
	<ele>575.00</ele>
	<time>2025-02-15T07:13:45.000Z</time>
</trkpt>
<trkpt lat="45.8427580" lon="9.2264070">
	<ele>575.20</ele>
	<time>2025-02-15T07:13:46.000Z</time>
</trkpt>
<trkpt lat="45.8427580" lon="9.2264110">
	<ele>575.20</ele>
	<time>2025-02-15T07:13:47.000Z</time>
</trkpt>
<trkpt lat="45.8427680" lon="9.2264130">
	<ele>575.40</ele>
	<time>2025-02-15T07:13:48.000Z</time>
</trkpt>
<trkpt lat="45.8427710" lon="9.2264170">
	<ele>575.40</ele>
	<time>2025-02-15T07:13:49.000Z</time>
</trkpt>
<trkpt lat="45.8427700" lon="9.2264210">
	<ele>575.40</ele>
	<time>2025-02-15T07:13:50.000Z</time>
</trkpt>
<trkpt lat="45.8427730" lon="9.2264210">
	<ele>575.60</ele>
	<time>2025-02-15T07:13:51.000Z</time>
</trkpt>
<trkpt lat="45.8427740" lon="9.2264250">
	<ele>575.80</ele>
	<time>2025-02-15T07:13:52.000Z</time>
</trkpt>
<trkpt lat="45.8427730" lon="9.2264280">
	<ele>575.80</ele>
	<time>2025-02-15T07:13:53.000Z</time>
</trkpt>
<trkpt lat="45.8427720" lon="9.2264310">
	<ele>576.00</ele>
	<time>2025-02-15T07:13:54.000Z</time>
</trkpt>
<trkpt lat="45.8427710" lon="9.2264340">
	<ele>576.00</ele>
	<time>2025-02-15T07:13:55.000Z</time>
</trkpt>
<trkpt lat="45.8427760" lon="9.2264370">
	<ele>576.00</ele>
	<time>2025-02-15T07:13:56.000Z</time>
</trkpt>
<trkpt lat="45.8427810" lon="9.2264410">
	<ele>576.20</ele>
	<time>2025-02-15T07:13:57.000Z</time>
</trkpt>
<trkpt lat="45.8427840" lon="9.2264440">
	<ele>576.20</ele>
	<time>2025-02-15T07:13:58.000Z</time>
</trkpt>
<trkpt lat="45.8427870" lon="9.2264460">
	<ele>576.20</ele>
	<time>2025-02-15T07:13:59.000Z</time>
</trkpt>
<trkpt lat="45.8427890" lon="9.2264450">
	<ele>576.20</ele>
	<time>2025-02-15T07:14:00.000Z</time>
</trkpt>
<trkpt lat="45.8427920" lon="9.2264460">
	<ele>576.40</ele>
	<time>2025-02-15T07:14:01.000Z</time>
</trkpt>
<trkpt lat="45.8427940" lon="9.2264470">
	<ele>576.40</ele>
	<time>2025-02-15T07:14:02.000Z</time>
</trkpt>
<trkpt lat="45.8427960" lon="9.2264490">
	<ele>576.40</ele>
	<time>2025-02-15T07:14:03.000Z</time>
</trkpt>
<trkpt lat="45.8427980" lon="9.2264480">
	<ele>576.40</ele>
	<time>2025-02-15T07:14:04.000Z</time>
</trkpt>
<trkpt lat="45.8427990" lon="9.2264520">
	<ele>576.40</ele>
	<time>2025-02-15T07:14:05.000Z</time>
</trkpt>
<trkpt lat="45.8428030" lon="9.2264630">
	<ele>576.60</ele>
	<time>2025-02-15T07:14:06.000Z</time>
</trkpt>
<trkpt lat="45.8428030" lon="9.2264690">
	<ele>576.80</ele>
	<time>2025-02-15T07:14:07.000Z</time>
</trkpt>
<trkpt lat="45.8428030" lon="9.2264740">
	<ele>577.00</ele>
	<time>2025-02-15T07:14:08.000Z</time>
</trkpt>
<trkpt lat="45.8428030" lon="9.2264760">
	<ele>577.20</ele>
	<time>2025-02-15T07:14:09.000Z</time>
</trkpt>
<trkpt lat="45.8428040" lon="9.2264790">
	<ele>577.40</ele>
	<time>2025-02-15T07:14:10.000Z</time>
</trkpt>
<trkpt lat="45.8428050" lon="9.2264820">
	<ele>577.40</ele>
	<time>2025-02-15T07:14:11.000Z</time>
</trkpt>
<trkpt lat="45.8428060" lon="9.2264860">
	<ele>577.60</ele>
	<time>2025-02-15T07:14:12.000Z</time>
</trkpt>
<trkpt lat="45.8428070" lon="9.2264880">
	<ele>577.80</ele>
	<time>2025-02-15T07:14:13.000Z</time>
</trkpt>
<trkpt lat="45.8428100" lon="9.2264910">
	<ele>577.80</ele>
	<time>2025-02-15T07:14:14.000Z</time>
</trkpt>
<trkpt lat="45.8428150" lon="9.2264930">
	<ele>577.80</ele>
	<time>2025-02-15T07:14:15.000Z</time>
</trkpt>
<trkpt lat="45.8428150" lon="9.2264920">
	<ele>578.00</ele>
	<time>2025-02-15T07:14:16.000Z</time>
</trkpt>
<trkpt lat="45.8428150" lon="9.2264920">
	<ele>577.80</ele>
	<time>2025-02-15T07:14:17.000Z</time>
</trkpt>
<trkpt lat="45.8428150" lon="9.2264920">
	<ele>577.80</ele>
	<time>2025-02-15T07:14:18.000Z</time>
</trkpt>
<trkpt lat="45.8428150" lon="9.2264920">
	<ele>577.80</ele>
	<time>2025-02-15T07:14:19.000Z</time>
</trkpt>
<trkpt lat="45.8428150" lon="9.2264920">
	<ele>577.80</ele>
	<time>2025-02-15T07:14:20.000Z</time>
</trkpt>
<trkpt lat="45.8428150" lon="9.2264920">
	<ele>577.80</ele>
	<time>2025-02-15T07:14:21.000Z</time>
</trkpt>
<trkpt lat="45.8428150" lon="9.2264920">
	<ele>577.80</ele>
	<time>2025-02-15T07:14:22.000Z</time>
</trkpt>
<trkpt lat="45.8428150" lon="9.2264920">
	<ele>577.60</ele>
	<time>2025-02-15T07:14:23.000Z</time>
</trkpt>
<trkpt lat="45.8428150" lon="9.2264920">
	<ele>577.60</ele>
	<time>2025-02-15T07:14:24.000Z</time>
</trkpt>
<trkpt lat="45.8428100" lon="9.2264920">
	<ele>577.40</ele>
	<time>2025-02-15T07:14:25.000Z</time>
</trkpt>
<trkpt lat="45.8428080" lon="9.2264920">
	<ele>577.40</ele>
	<time>2025-02-15T07:14:26.000Z</time>
</trkpt>
<trkpt lat="45.8428080" lon="9.2264920">
	<ele>577.40</ele>
	<time>2025-02-15T07:14:27.000Z</time>
</trkpt>
<trkpt lat="45.8428080" lon="9.2264920">
	<ele>577.40</ele>
	<time>2025-02-15T07:14:28.000Z</time>
</trkpt>
<trkpt lat="45.8428080" lon="9.2264920">
	<ele>577.40</ele>
	<time>2025-02-15T07:14:29.000Z</time>
</trkpt>
<trkpt lat="45.8428080" lon="9.2264920">
	<ele>577.40</ele>
	<time>2025-02-15T07:14:30.000Z</time>
</trkpt>
<trkpt lat="45.8428080" lon="9.2264930">
	<ele>577.40</ele>
	<time>2025-02-15T07:14:31.000Z</time>
</trkpt>
<trkpt lat="45.8428080" lon="9.2264940">
	<ele>577.40</ele>
	<time>2025-02-15T07:14:32.000Z</time>
</trkpt>
<trkpt lat="45.8428080" lon="9.2264950">
	<ele>577.40</ele>
	<time>2025-02-15T07:14:33.000Z</time>
</trkpt>
<trkpt lat="45.8428080" lon="9.2264960">
	<ele>577.40</ele>
	<time>2025-02-15T07:14:34.000Z</time>
</trkpt>
<trkpt lat="45.8428080" lon="9.2264990">
	<ele>577.40</ele>
	<time>2025-02-15T07:14:35.000Z</time>
</trkpt>
<trkpt lat="45.8428080" lon="9.2265000">
	<ele>577.40</ele>
	<time>2025-02-15T07:14:36.000Z</time>
</trkpt>
<trkpt lat="45.8428080" lon="9.2265070">
	<ele>577.60</ele>
	<time>2025-02-15T07:14:37.000Z</time>
</trkpt>
<trkpt lat="45.8428100" lon="9.2265090">
	<ele>577.60</ele>
	<time>2025-02-15T07:14:38.000Z</time>
</trkpt>
<trkpt lat="45.8428140" lon="9.2265100">
	<ele>577.60</ele>
	<time>2025-02-15T07:14:39.000Z</time>
</trkpt>
<trkpt lat="45.8428150" lon="9.2265100">
	<ele>577.60</ele>
	<time>2025-02-15T07:14:40.000Z</time>
</trkpt>
<trkpt lat="45.8428150" lon="9.2265110">
	<ele>577.80</ele>
	<time>2025-02-15T07:14:41.000Z</time>
</trkpt>
<trkpt lat="45.8428150" lon="9.2265110">
	<ele>577.80</ele>
	<time>2025-02-15T07:14:42.000Z</time>
</trkpt>
<trkpt lat="45.8428150" lon="9.2265110">
	<ele>578.00</ele>
	<time>2025-02-15T07:14:43.000Z</time>
</trkpt>
<trkpt lat="45.8428150" lon="9.2265120">
	<ele>578.40</ele>
	<time>2025-02-15T07:14:44.000Z</time>
</trkpt>
<trkpt lat="45.8428150" lon="9.2265120">
	<ele>578.60</ele>
	<time>2025-02-15T07:14:45.000Z</time>
</trkpt>
<trkpt lat="45.8428150" lon="9.2265130">
	<ele>578.80</ele>
	<time>2025-02-15T07:14:46.000Z</time>
</trkpt>
<trkpt lat="45.8428160" lon="9.2265130">
	<ele>578.80</ele>
	<time>2025-02-15T07:14:47.000Z</time>
</trkpt>
<trkpt lat="45.8428160" lon="9.2265140">
	<ele>578.80</ele>
	<time>2025-02-15T07:14:48.000Z</time>
</trkpt>
<trkpt lat="45.8428160" lon="9.2265140">
	<ele>579.00</ele>
	<time>2025-02-15T07:14:49.000Z</time>
</trkpt>
<trkpt lat="45.8428160" lon="9.2265150">
	<ele>579.20</ele>
	<time>2025-02-15T07:14:50.000Z</time>
</trkpt>
<trkpt lat="45.8428160" lon="9.2265160">
	<ele>579.40</ele>
	<time>2025-02-15T07:14:51.000Z</time>
</trkpt>
<trkpt lat="45.8428160" lon="9.2265160">
	<ele>579.60</ele>
	<time>2025-02-15T07:14:52.000Z</time>
</trkpt>
<trkpt lat="45.8428160" lon="9.2265160">
	<ele>579.60</ele>
	<time>2025-02-15T07:14:53.000Z</time>
</trkpt>
<trkpt lat="45.8428160" lon="9.2265180">
	<ele>579.60</ele>
	<time>2025-02-15T07:14:54.000Z</time>
</trkpt>
<trkpt lat="45.8428160" lon="9.2265190">
	<ele>579.60</ele>
	<time>2025-02-15T07:14:55.000Z</time>
</trkpt>
<trkpt lat="45.8428160" lon="9.2265230">
	<ele>579.80</ele>
	<time>2025-02-15T07:14:56.000Z</time>
</trkpt>
<trkpt lat="45.8428160" lon="9.2265310">
	<ele>579.80</ele>
	<time>2025-02-15T07:14:57.000Z</time>
</trkpt>
<trkpt lat="45.8428160" lon="9.2265350">
	<ele>580.00</ele>
	<time>2025-02-15T07:14:58.000Z</time>
</trkpt>
<trkpt lat="45.8428150" lon="9.2265370">
	<ele>580.40</ele>
	<time>2025-02-15T07:14:59.000Z</time>
</trkpt>
<trkpt lat="45.8428150" lon="9.2265370">
	<ele>580.80</ele>
	<time>2025-02-15T07:15:00.000Z</time>
</trkpt>
<trkpt lat="45.8428150" lon="9.2265400">
	<ele>581.00</ele>
	<time>2025-02-15T07:15:01.000Z</time>
</trkpt>
<trkpt lat="45.8428150" lon="9.2265400">
	<ele>581.20</ele>
	<time>2025-02-15T07:15:02.000Z</time>
</trkpt>
<trkpt lat="45.8428140" lon="9.2265410">
	<ele>581.40</ele>
	<time>2025-02-15T07:15:03.000Z</time>
</trkpt>
<trkpt lat="45.8428140" lon="9.2265420">
	<ele>581.60</ele>
	<time>2025-02-15T07:15:04.000Z</time>
</trkpt>
<trkpt lat="45.8428140" lon="9.2265430">
	<ele>581.60</ele>
	<time>2025-02-15T07:15:05.000Z</time>
</trkpt>
<trkpt lat="45.8428130" lon="9.2265430">
	<ele>581.80</ele>
	<time>2025-02-15T07:15:06.000Z</time>
</trkpt>
<trkpt lat="45.8428130" lon="9.2265460">
	<ele>581.80</ele>
	<time>2025-02-15T07:15:07.000Z</time>
</trkpt>
<trkpt lat="45.8428130" lon="9.2265470">
	<ele>581.80</ele>
	<time>2025-02-15T07:15:08.000Z</time>
</trkpt>
<trkpt lat="45.8428110" lon="9.2265550">
	<ele>581.80</ele>
	<time>2025-02-15T07:15:09.000Z</time>
</trkpt>
<trkpt lat="45.8428090" lon="9.2265660">
	<ele>582.00</ele>
	<time>2025-02-15T07:15:10.000Z</time>
</trkpt>
<trkpt lat="45.8428080" lon="9.2265710">
	<ele>582.20</ele>
	<time>2025-02-15T07:15:11.000Z</time>
</trkpt>
<trkpt lat="45.8428080" lon="9.2265720">
	<ele>582.40</ele>
	<time>2025-02-15T07:15:12.000Z</time>
</trkpt>
<trkpt lat="45.8428070" lon="9.2265730">
	<ele>582.40</ele>
	<time>2025-02-15T07:15:13.000Z</time>
</trkpt>
<trkpt lat="45.8428060" lon="9.2265730">
	<ele>582.60</ele>
	<time>2025-02-15T07:15:14.000Z</time>
</trkpt>
<trkpt lat="45.8428050" lon="9.2265730">
	<ele>582.60</ele>
	<time>2025-02-15T07:15:15.000Z</time>
</trkpt>
<trkpt lat="45.8428030" lon="9.2265740">
	<ele>582.80</ele>
	<time>2025-02-15T07:15:16.000Z</time>
</trkpt>
<trkpt lat="45.8428030" lon="9.2265760">
	<ele>582.80</ele>
	<time>2025-02-15T07:15:17.000Z</time>
</trkpt>
<trkpt lat="45.8428020" lon="9.2265760">
	<ele>582.80</ele>
	<time>2025-02-15T07:15:18.000Z</time>
</trkpt>
<trkpt lat="45.8428010" lon="9.2265770">
	<ele>583.20</ele>
	<time>2025-02-15T07:15:19.000Z</time>
</trkpt>
<trkpt lat="45.8427990" lon="9.2265770">
	<ele>583.40</ele>
	<time>2025-02-15T07:15:20.000Z</time>
</trkpt>
<trkpt lat="45.8427970" lon="9.2265780">
	<ele>583.80</ele>
	<time>2025-02-15T07:15:21.000Z</time>
</trkpt>
<trkpt lat="45.8427940" lon="9.2265790">
	<ele>584.00</ele>
	<time>2025-02-15T07:15:22.000Z</time>
</trkpt>
<trkpt lat="45.8427930" lon="9.2265820">
	<ele>584.00</ele>
	<time>2025-02-15T07:15:23.000Z</time>
</trkpt>
<trkpt lat="45.8427920" lon="9.2265850">
	<ele>584.00</ele>
	<time>2025-02-15T07:15:24.000Z</time>
</trkpt>
<trkpt lat="45.8427920" lon="9.2265910">
	<ele>584.40</ele>
	<time>2025-02-15T07:15:25.000Z</time>
</trkpt>
<trkpt lat="45.8427910" lon="9.2265950">
	<ele>584.60</ele>
	<time>2025-02-15T07:15:26.000Z</time>
</trkpt>
<trkpt lat="45.8427870" lon="9.2265980">
	<ele>584.60</ele>
	<time>2025-02-15T07:15:27.000Z</time>
</trkpt>
<trkpt lat="45.8427830" lon="9.2265990">
	<ele>584.60</ele>
	<time>2025-02-15T07:15:28.000Z</time>
</trkpt>
<trkpt lat="45.8427820" lon="9.2266000">
	<ele>584.80</ele>
	<time>2025-02-15T07:15:29.000Z</time>
</trkpt>
<trkpt lat="45.8427810" lon="9.2266010">
	<ele>585.20</ele>
	<time>2025-02-15T07:15:30.000Z</time>
</trkpt>
<trkpt lat="45.8427810" lon="9.2266030">
	<ele>585.40</ele>
	<time>2025-02-15T07:15:31.000Z</time>
</trkpt>
<trkpt lat="45.8427810" lon="9.2266040">
	<ele>585.60</ele>
	<time>2025-02-15T07:15:32.000Z</time>
</trkpt>
<trkpt lat="45.8427810" lon="9.2266070">
	<ele>585.60</ele>
	<time>2025-02-15T07:15:33.000Z</time>
</trkpt>
<trkpt lat="45.8427810" lon="9.2266080">
	<ele>585.60</ele>
	<time>2025-02-15T07:15:34.000Z</time>
</trkpt>
<trkpt lat="45.8427810" lon="9.2266090">
	<ele>585.80</ele>
	<time>2025-02-15T07:15:35.000Z</time>
</trkpt>
<trkpt lat="45.8427810" lon="9.2266100">
	<ele>585.80</ele>
	<time>2025-02-15T07:15:36.000Z</time>
</trkpt>
<trkpt lat="45.8427810" lon="9.2266110">
	<ele>586.00</ele>
	<time>2025-02-15T07:15:37.000Z</time>
</trkpt>
<trkpt lat="45.8427810" lon="9.2266120">
	<ele>586.20</ele>
	<time>2025-02-15T07:15:38.000Z</time>
</trkpt>
<trkpt lat="45.8427810" lon="9.2266160">
	<ele>586.40</ele>
	<time>2025-02-15T07:15:39.000Z</time>
</trkpt>
<trkpt lat="45.8427810" lon="9.2266220">
	<ele>586.60</ele>
	<time>2025-02-15T07:15:40.000Z</time>
</trkpt>
<trkpt lat="45.8427810" lon="9.2266290">
	<ele>586.60</ele>
	<time>2025-02-15T07:15:41.000Z</time>
</trkpt>
<trkpt lat="45.8427810" lon="9.2266360">
	<ele>586.80</ele>
	<time>2025-02-15T07:15:42.000Z</time>
</trkpt>
<trkpt lat="45.8427810" lon="9.2266410">
	<ele>587.00</ele>
	<time>2025-02-15T07:15:43.000Z</time>
</trkpt>
<trkpt lat="45.8427820" lon="9.2266440">
	<ele>587.20</ele>
	<time>2025-02-15T07:15:44.000Z</time>
</trkpt>
<trkpt lat="45.8427830" lon="9.2266500">
	<ele>587.20</ele>
	<time>2025-02-15T07:15:45.000Z</time>
</trkpt>
<trkpt lat="45.8427840" lon="9.2266580">
	<ele>587.20</ele>
	<time>2025-02-15T07:15:46.000Z</time>
</trkpt>
<trkpt lat="45.8427850" lon="9.2266630">
	<ele>587.40</ele>
	<time>2025-02-15T07:15:47.000Z</time>
</trkpt>
<trkpt lat="45.8427870" lon="9.2266680">
	<ele>587.40</ele>
	<time>2025-02-15T07:15:48.000Z</time>
</trkpt>
<trkpt lat="45.8427880" lon="9.2266700">
	<ele>587.40</ele>
	<time>2025-02-15T07:15:49.000Z</time>
</trkpt>
<trkpt lat="45.8427920" lon="9.2266710">
	<ele>587.60</ele>
	<time>2025-02-15T07:15:50.000Z</time>
</trkpt>
<trkpt lat="45.8427930" lon="9.2266700">
	<ele>587.80</ele>
	<time>2025-02-15T07:15:51.000Z</time>
</trkpt>
<trkpt lat="45.8427930" lon="9.2266830">
	<ele>587.80</ele>
	<time>2025-02-15T07:15:52.000Z</time>
</trkpt>
<trkpt lat="45.8427950" lon="9.2266910">
	<ele>588.00</ele>
	<time>2025-02-15T07:15:53.000Z</time>
</trkpt>
<trkpt lat="45.8427970" lon="9.2266970">
	<ele>588.20</ele>
	<time>2025-02-15T07:15:54.000Z</time>
</trkpt>
<trkpt lat="45.8427950" lon="9.2267010">
	<ele>588.60</ele>
	<time>2025-02-15T07:15:55.000Z</time>
</trkpt>
<trkpt lat="45.8427980" lon="9.2267050">
	<ele>588.80</ele>
	<time>2025-02-15T07:15:56.000Z</time>
</trkpt>
<trkpt lat="45.8427980" lon="9.2267020">
	<ele>589.00</ele>
	<time>2025-02-15T07:15:57.000Z</time>
</trkpt>
<trkpt lat="45.8427990" lon="9.2267010">
	<ele>589.00</ele>
	<time>2025-02-15T07:15:58.000Z</time>
</trkpt>
<trkpt lat="45.8428010" lon="9.2267060">
	<ele>589.00</ele>
	<time>2025-02-15T07:15:59.000Z</time>
</trkpt>
<trkpt lat="45.8428040" lon="9.2267210">
	<ele>589.00</ele>
	<time>2025-02-15T07:16:00.000Z</time>
</trkpt>
<trkpt lat="45.8428040" lon="9.2267270">
	<ele>589.00</ele>
	<time>2025-02-15T07:16:01.000Z</time>
</trkpt>
<trkpt lat="45.8428060" lon="9.2267330">
	<ele>589.00</ele>
	<time>2025-02-15T07:16:02.000Z</time>
</trkpt>
<trkpt lat="45.8428130" lon="9.2267400">
	<ele>589.00</ele>
	<time>2025-02-15T07:16:03.000Z</time>
</trkpt>
<trkpt lat="45.8428180" lon="9.2267450">
	<ele>589.00</ele>
	<time>2025-02-15T07:16:04.000Z</time>
</trkpt>
<trkpt lat="45.8428200" lon="9.2267500">
	<ele>589.20</ele>
	<time>2025-02-15T07:16:05.000Z</time>
</trkpt>
<trkpt lat="45.8428200" lon="9.2267620">
	<ele>589.20</ele>
	<time>2025-02-15T07:16:06.000Z</time>
</trkpt>
<trkpt lat="45.8428110" lon="9.2267630">
	<ele>589.40</ele>
	<time>2025-02-15T07:16:07.000Z</time>
</trkpt>
<trkpt lat="45.8428060" lon="9.2267760">
	<ele>589.60</ele>
	<time>2025-02-15T07:16:08.000Z</time>
</trkpt>
<trkpt lat="45.8428040" lon="9.2267800">
	<ele>589.80</ele>
	<time>2025-02-15T07:16:09.000Z</time>
</trkpt>
<trkpt lat="45.8428030" lon="9.2267830">
	<ele>590.40</ele>
	<time>2025-02-15T07:16:10.000Z</time>
</trkpt>
<trkpt lat="45.8428180" lon="9.2267890">
	<ele>590.60</ele>
	<time>2025-02-15T07:16:11.000Z</time>
</trkpt>
<trkpt lat="45.8428190" lon="9.2267870">
	<ele>590.80</ele>
	<time>2025-02-15T07:16:12.000Z</time>
</trkpt>
<trkpt lat="45.8428190" lon="9.2267880">
	<ele>590.80</ele>
	<time>2025-02-15T07:16:13.000Z</time>
</trkpt>
<trkpt lat="45.8428060" lon="9.2267890">
	<ele>591.00</ele>
	<time>2025-02-15T07:16:14.000Z</time>
</trkpt>
<trkpt lat="45.8428030" lon="9.2267900">
	<ele>591.20</ele>
	<time>2025-02-15T07:16:15.000Z</time>
</trkpt>
<trkpt lat="45.8428000" lon="9.2267900">
	<ele>591.20</ele>
	<time>2025-02-15T07:16:16.000Z</time>
</trkpt>
<trkpt lat="45.8427990" lon="9.2267870">
	<ele>591.40</ele>
	<time>2025-02-15T07:16:17.000Z</time>
</trkpt>
<trkpt lat="45.8427990" lon="9.2267850">
	<ele>591.40</ele>
	<time>2025-02-15T07:16:18.000Z</time>
</trkpt>
<trkpt lat="45.8428020" lon="9.2267860">
	<ele>591.40</ele>
	<time>2025-02-15T07:16:19.000Z</time>
</trkpt>
<trkpt lat="45.8428060" lon="9.2267920">
	<ele>591.40</ele>
	<time>2025-02-15T07:16:20.000Z</time>
</trkpt>
<trkpt lat="45.8428070" lon="9.2267970">
	<ele>591.40</ele>
	<time>2025-02-15T07:16:21.000Z</time>
</trkpt>
<trkpt lat="45.8428120" lon="9.2268100">
	<ele>591.40</ele>
	<time>2025-02-15T07:16:22.000Z</time>
</trkpt>
<trkpt lat="45.8428100" lon="9.2268090">
	<ele>591.40</ele>
	<time>2025-02-15T07:16:23.000Z</time>
</trkpt>
<trkpt lat="45.8428030" lon="9.2268030">
	<ele>591.40</ele>
	<time>2025-02-15T07:16:24.000Z</time>
</trkpt>
<trkpt lat="45.8428070" lon="9.2268040">
	<ele>591.40</ele>
	<time>2025-02-15T07:16:25.000Z</time>
</trkpt>
<trkpt lat="45.8428050" lon="9.2268030">
	<ele>591.40</ele>
	<time>2025-02-15T07:16:26.000Z</time>
</trkpt>
<trkpt lat="45.8428140" lon="9.2268000">
	<ele>591.40</ele>
	<time>2025-02-15T07:16:27.000Z</time>
</trkpt>
<trkpt lat="45.8428110" lon="9.2267960">
	<ele>591.40</ele>
	<time>2025-02-15T07:16:28.000Z</time>
</trkpt>
<trkpt lat="45.8428280" lon="9.2268060">
	<ele>591.40</ele>
	<time>2025-02-15T07:16:29.000Z</time>
</trkpt>
<trkpt lat="45.8428280" lon="9.2268070">
	<ele>591.40</ele>
	<time>2025-02-15T07:16:30.000Z</time>
</trkpt>
<trkpt lat="45.8428290" lon="9.2268050">
	<ele>591.40</ele>
	<time>2025-02-15T07:16:31.000Z</time>
</trkpt>
<trkpt lat="45.8428430" lon="9.2268080">
	<ele>591.40</ele>
	<time>2025-02-15T07:16:32.000Z</time>
</trkpt>
<trkpt lat="45.8428500" lon="9.2268130">
	<ele>591.40</ele>
	<time>2025-02-15T07:16:33.000Z</time>
</trkpt>
<trkpt lat="45.8428600" lon="9.2268180">
	<ele>591.40</ele>
	<time>2025-02-15T07:16:34.000Z</time>
</trkpt>
<trkpt lat="45.8428680" lon="9.2268200">
	<ele>591.40</ele>
	<time>2025-02-15T07:16:35.000Z</time>
</trkpt>
<trkpt lat="45.8428730" lon="9.2268220">
	<ele>591.40</ele>
	<time>2025-02-15T07:16:36.000Z</time>
</trkpt>
<trkpt lat="45.8428750" lon="9.2268210">
	<ele>591.40</ele>
	<time>2025-02-15T07:16:37.000Z</time>
</trkpt>
<trkpt lat="45.8428860" lon="9.2268260">
	<ele>591.40</ele>
	<time>2025-02-15T07:16:38.000Z</time>
</trkpt>
<trkpt lat="45.8428910" lon="9.2268290">
	<ele>591.40</ele>
	<time>2025-02-15T07:16:39.000Z</time>
</trkpt>
<trkpt lat="45.8428900" lon="9.2268290">
	<ele>591.40</ele>
	<time>2025-02-15T07:16:40.000Z</time>
</trkpt>
<trkpt lat="45.8428880" lon="9.2268370">
	<ele>591.40</ele>
	<time>2025-02-15T07:16:41.000Z</time>
</trkpt>
<trkpt lat="45.8428880" lon="9.2268460">
	<ele>591.40</ele>
	<time>2025-02-15T07:16:42.000Z</time>
</trkpt>
<trkpt lat="45.8428960" lon="9.2268570">
	<ele>591.40</ele>
	<time>2025-02-15T07:16:43.000Z</time>
</trkpt>
<trkpt lat="45.8428980" lon="9.2268630">
	<ele>591.60</ele>
	<time>2025-02-15T07:16:44.000Z</time>
</trkpt>
<trkpt lat="45.8428990" lon="9.2268680">
	<ele>591.80</ele>
	<time>2025-02-15T07:16:45.000Z</time>
</trkpt>
<trkpt lat="45.8429080" lon="9.2268840">
	<ele>591.80</ele>
	<time>2025-02-15T07:16:46.000Z</time>
</trkpt>
<trkpt lat="45.8429100" lon="9.2268880">
	<ele>592.00</ele>
	<time>2025-02-15T07:16:47.000Z</time>
</trkpt>
<trkpt lat="45.8429210" lon="9.2268820">
	<ele>592.00</ele>
	<time>2025-02-15T07:16:48.000Z</time>
</trkpt>
<trkpt lat="45.8429250" lon="9.2268840">
	<ele>592.20</ele>
	<time>2025-02-15T07:16:49.000Z</time>
</trkpt>
<trkpt lat="45.8429260" lon="9.2268850">
	<ele>592.20</ele>
	<time>2025-02-15T07:16:50.000Z</time>
</trkpt>
<trkpt lat="45.8429190" lon="9.2268840">
	<ele>592.20</ele>
	<time>2025-02-15T07:16:51.000Z</time>
</trkpt>
<trkpt lat="45.8429190" lon="9.2268860">
	<ele>592.40</ele>
	<time>2025-02-15T07:16:52.000Z</time>
</trkpt>
<trkpt lat="45.8429180" lon="9.2268670">
	<ele>592.40</ele>
	<time>2025-02-15T07:16:53.000Z</time>
</trkpt>
<trkpt lat="45.8429260" lon="9.2268650">
	<ele>592.60</ele>
	<time>2025-02-15T07:16:54.000Z</time>
</trkpt>
<trkpt lat="45.8429300" lon="9.2268670">
	<ele>592.80</ele>
	<time>2025-02-15T07:16:55.000Z</time>
</trkpt>
<trkpt lat="45.8429300" lon="9.2268680">
	<ele>593.00</ele>
	<time>2025-02-15T07:16:56.000Z</time>
</trkpt>
<trkpt lat="45.8429290" lon="9.2268720">
	<ele>593.00</ele>
	<time>2025-02-15T07:16:57.000Z</time>
</trkpt>
<trkpt lat="45.8429280" lon="9.2268740">
	<ele>593.20</ele>
	<time>2025-02-15T07:16:58.000Z</time>
</trkpt>
<trkpt lat="45.8429270" lon="9.2268770">
	<ele>593.40</ele>
	<time>2025-02-15T07:16:59.000Z</time>
</trkpt>
<trkpt lat="45.8429300" lon="9.2268800">
	<ele>593.60</ele>
	<time>2025-02-15T07:17:00.000Z</time>
</trkpt>
<trkpt lat="45.8429290" lon="9.2268860">
	<ele>593.80</ele>
	<time>2025-02-15T07:17:01.000Z</time>
</trkpt>
<trkpt lat="45.8429320" lon="9.2268870">
	<ele>593.80</ele>
	<time>2025-02-15T07:17:02.000Z</time>
</trkpt>
<trkpt lat="45.8429360" lon="9.2268840">
	<ele>594.00</ele>
	<time>2025-02-15T07:17:03.000Z</time>
</trkpt>
<trkpt lat="45.8429320" lon="9.2268830">
	<ele>594.20</ele>
	<time>2025-02-15T07:17:04.000Z</time>
</trkpt>
<trkpt lat="45.8429290" lon="9.2268860">
	<ele>594.40</ele>
	<time>2025-02-15T07:17:05.000Z</time>
</trkpt>
<trkpt lat="45.8429290" lon="9.2268860">
	<ele>594.40</ele>
	<time>2025-02-15T07:17:06.000Z</time>
</trkpt>
<trkpt lat="45.8429290" lon="9.2268860">
	<ele>594.40</ele>
	<time>2025-02-15T07:17:07.000Z</time>
</trkpt>
<trkpt lat="45.8429290" lon="9.2268860">
	<ele>594.80</ele>
	<time>2025-02-15T07:17:08.000Z</time>
</trkpt>
<trkpt lat="45.8429290" lon="9.2268860">
	<ele>594.80</ele>
	<time>2025-02-15T07:17:09.000Z</time>
</trkpt>
<trkpt lat="45.8429290" lon="9.2268860">
	<ele>595.00</ele>
	<time>2025-02-15T07:17:10.000Z</time>
</trkpt>
<trkpt lat="45.8429290" lon="9.2268860">
	<ele>595.00</ele>
	<time>2025-02-15T07:17:11.000Z</time>
</trkpt>
<trkpt lat="45.8429290" lon="9.2268860">
	<ele>595.20</ele>
	<time>2025-02-15T07:17:12.000Z</time>
</trkpt>
<trkpt lat="45.8429290" lon="9.2268860">
	<ele>595.20</ele>
	<time>2025-02-15T07:17:13.000Z</time>
</trkpt>
<trkpt lat="45.8429290" lon="9.2268860">
	<ele>595.20</ele>
	<time>2025-02-15T07:17:14.000Z</time>
</trkpt>
<trkpt lat="45.8429290" lon="9.2268860">
	<ele>595.40</ele>
	<time>2025-02-15T07:17:15.000Z</time>
</trkpt>
<trkpt lat="45.8429290" lon="9.2268860">
	<ele>595.60</ele>
	<time>2025-02-15T07:17:16.000Z</time>
</trkpt>
<trkpt lat="45.8429290" lon="9.2268860">
	<ele>595.80</ele>
	<time>2025-02-15T07:17:17.000Z</time>
</trkpt>
<trkpt lat="45.8429290" lon="9.2268860">
	<ele>596.00</ele>
	<time>2025-02-15T07:17:18.000Z</time>
</trkpt>
<trkpt lat="45.8429290" lon="9.2268860">
	<ele>596.20</ele>
	<time>2025-02-15T07:17:19.000Z</time>
</trkpt>
<trkpt lat="45.8429290" lon="9.2268870">
	<ele>596.20</ele>
	<time>2025-02-15T07:17:20.000Z</time>
</trkpt>
<trkpt lat="45.8429290" lon="9.2268900">
	<ele>596.20</ele>
	<time>2025-02-15T07:17:21.000Z</time>
</trkpt>
<trkpt lat="45.8429290" lon="9.2268970">
	<ele>596.40</ele>
	<time>2025-02-15T07:17:22.000Z</time>
</trkpt>
<trkpt lat="45.8429290" lon="9.2268990">
	<ele>596.60</ele>
	<time>2025-02-15T07:17:23.000Z</time>
</trkpt>
<trkpt lat="45.8429300" lon="9.2268990">
	<ele>596.80</ele>
	<time>2025-02-15T07:17:24.000Z</time>
</trkpt>
<trkpt lat="45.8429300" lon="9.2269030">
	<ele>597.00</ele>
	<time>2025-02-15T07:17:25.000Z</time>
</trkpt>
<trkpt lat="45.8429310" lon="9.2269030">
	<ele>597.00</ele>
	<time>2025-02-15T07:17:26.000Z</time>
</trkpt>
<trkpt lat="45.8429310" lon="9.2269040">
	<ele>597.20</ele>
	<time>2025-02-15T07:17:27.000Z</time>
</trkpt>
<trkpt lat="45.8429320" lon="9.2269050">
	<ele>597.20</ele>
	<time>2025-02-15T07:17:28.000Z</time>
</trkpt>
<trkpt lat="45.8429400" lon="9.2269110">
	<ele>597.20</ele>
	<time>2025-02-15T07:17:29.000Z</time>
</trkpt>
<trkpt lat="45.8429490" lon="9.2269200">
	<ele>597.40</ele>
	<time>2025-02-15T07:17:30.000Z</time>
</trkpt>
<trkpt lat="45.8429580" lon="9.2269300">
	<ele>597.60</ele>
	<time>2025-02-15T07:17:31.000Z</time>
</trkpt>
<trkpt lat="45.8429640" lon="9.2269440">
	<ele>597.80</ele>
	<time>2025-02-15T07:17:32.000Z</time>
</trkpt>
<trkpt lat="45.8429720" lon="9.2269550">
	<ele>598.20</ele>
	<time>2025-02-15T07:17:33.000Z</time>
</trkpt>
<trkpt lat="45.8429820" lon="9.2269640">
	<ele>598.40</ele>
	<time>2025-02-15T07:17:34.000Z</time>
</trkpt>
<trkpt lat="45.8429890" lon="9.2269760">
	<ele>598.40</ele>
	<time>2025-02-15T07:17:35.000Z</time>
</trkpt>
<trkpt lat="45.8429970" lon="9.2269830">
	<ele>598.60</ele>
	<time>2025-02-15T07:17:36.000Z</time>
</trkpt>
<trkpt lat="45.8430050" lon="9.2269910">
	<ele>598.60</ele>
	<time>2025-02-15T07:17:37.000Z</time>
</trkpt>
<trkpt lat="45.8430180" lon="9.2270020">
	<ele>598.60</ele>
	<time>2025-02-15T07:17:38.000Z</time>
</trkpt>
<trkpt lat="45.8430220" lon="9.2270080">
	<ele>598.60</ele>
	<time>2025-02-15T07:17:39.000Z</time>
</trkpt>
<trkpt lat="45.8430210" lon="9.2270140">
	<ele>598.80</ele>
	<time>2025-02-15T07:17:40.000Z</time>
</trkpt>
<trkpt lat="45.8430250" lon="9.2270120">
	<ele>599.00</ele>
	<time>2025-02-15T07:17:41.000Z</time>
</trkpt>
<trkpt lat="45.8430290" lon="9.2270080">
	<ele>599.00</ele>
	<time>2025-02-15T07:17:42.000Z</time>
</trkpt>
<trkpt lat="45.8430260" lon="9.2270110">
	<ele>599.20</ele>
	<time>2025-02-15T07:17:43.000Z</time>
</trkpt>
<trkpt lat="45.8430210" lon="9.2270190">
	<ele>599.20</ele>
	<time>2025-02-15T07:17:44.000Z</time>
</trkpt>
<trkpt lat="45.8430190" lon="9.2270240">
	<ele>599.20</ele>
	<time>2025-02-15T07:17:45.000Z</time>
</trkpt>
<trkpt lat="45.8430180" lon="9.2270280">
	<ele>599.40</ele>
	<time>2025-02-15T07:17:46.000Z</time>
</trkpt>
<trkpt lat="45.8430210" lon="9.2270290">
	<ele>599.60</ele>
	<time>2025-02-15T07:17:47.000Z</time>
</trkpt>
<trkpt lat="45.8430240" lon="9.2270280">
	<ele>599.80</ele>
	<time>2025-02-15T07:17:48.000Z</time>
</trkpt>
<trkpt lat="45.8430260" lon="9.2270250">
	<ele>599.80</ele>
	<time>2025-02-15T07:17:49.000Z</time>
</trkpt>
<trkpt lat="45.8430280" lon="9.2270210">
	<ele>599.80</ele>
	<time>2025-02-15T07:17:50.000Z</time>
</trkpt>
<trkpt lat="45.8430260" lon="9.2270120">
	<ele>599.80</ele>
	<time>2025-02-15T07:17:51.000Z</time>
</trkpt>
<trkpt lat="45.8430230" lon="9.2270110">
	<ele>599.80</ele>
	<time>2025-02-15T07:17:52.000Z</time>
</trkpt>
<trkpt lat="45.8430220" lon="9.2270110">
	<ele>599.80</ele>
	<time>2025-02-15T07:17:53.000Z</time>
</trkpt>
<trkpt lat="45.8430200" lon="9.2270090">
	<ele>599.80</ele>
	<time>2025-02-15T07:17:54.000Z</time>
</trkpt>
<trkpt lat="45.8430200" lon="9.2270110">
	<ele>599.80</ele>
	<time>2025-02-15T07:17:55.000Z</time>
</trkpt>
<trkpt lat="45.8430210" lon="9.2270090">
	<ele>599.80</ele>
	<time>2025-02-15T07:17:56.000Z</time>
</trkpt>
<trkpt lat="45.8430240" lon="9.2270090">
	<ele>599.80</ele>
	<time>2025-02-15T07:17:57.000Z</time>
</trkpt>
<trkpt lat="45.8430320" lon="9.2270150">
	<ele>600.00</ele>
	<time>2025-02-15T07:17:58.000Z</time>
</trkpt>
<trkpt lat="45.8430310" lon="9.2270140">
	<ele>600.00</ele>
	<time>2025-02-15T07:17:59.000Z</time>
</trkpt>
<trkpt lat="45.8430310" lon="9.2270140">
	<ele>600.00</ele>
	<time>2025-02-15T07:18:00.000Z</time>
</trkpt>
<trkpt lat="45.8430310" lon="9.2270140">
	<ele>600.00</ele>
	<time>2025-02-15T07:18:01.000Z</time>
</trkpt>
<trkpt lat="45.8430310" lon="9.2270140">
	<ele>600.00</ele>
	<time>2025-02-15T07:18:02.000Z</time>
</trkpt>
<trkpt lat="45.8430310" lon="9.2270140">
	<ele>600.20</ele>
	<time>2025-02-15T07:18:03.000Z</time>
</trkpt>
<trkpt lat="45.8430310" lon="9.2270140">
	<ele>600.20</ele>
	<time>2025-02-15T07:18:04.000Z</time>
</trkpt>
<trkpt lat="45.8430310" lon="9.2270140">
	<ele>600.20</ele>
	<time>2025-02-15T07:18:05.000Z</time>
</trkpt>
<trkpt lat="45.8430310" lon="9.2270140">
	<ele>600.20</ele>
	<time>2025-02-15T07:18:06.000Z</time>
</trkpt>
<trkpt lat="45.8430310" lon="9.2270140">
	<ele>600.20</ele>
	<time>2025-02-15T07:18:07.000Z</time>
</trkpt>
<trkpt lat="45.8430270" lon="9.2270120">
	<ele>600.20</ele>
	<time>2025-02-15T07:18:08.000Z</time>
</trkpt>
<trkpt lat="45.8430260" lon="9.2270110">
	<ele>600.20</ele>
	<time>2025-02-15T07:18:09.000Z</time>
</trkpt>
<trkpt lat="45.8430250" lon="9.2270110">
	<ele>600.20</ele>
	<time>2025-02-15T07:18:10.000Z</time>
</trkpt>
<trkpt lat="45.8430240" lon="9.2270110">
	<ele>600.20</ele>
	<time>2025-02-15T07:18:11.000Z</time>
</trkpt>
<trkpt lat="45.8430240" lon="9.2270110">
	<ele>600.20</ele>
	<time>2025-02-15T07:18:12.000Z</time>
</trkpt>
<trkpt lat="45.8430230" lon="9.2270110">
	<ele>600.00</ele>
	<time>2025-02-15T07:18:13.000Z</time>
</trkpt>
<trkpt lat="45.8430170" lon="9.2270060">
	<ele>600.00</ele>
	<time>2025-02-15T07:18:14.000Z</time>
</trkpt>
<trkpt lat="45.8429940" lon="9.2269810">
	<ele>599.80</ele>
	<time>2025-02-15T07:18:15.000Z</time>
</trkpt>
<trkpt lat="45.8429810" lon="9.2269620">
	<ele>599.80</ele>
	<time>2025-02-15T07:18:16.000Z</time>
</trkpt>
<trkpt lat="45.8429740" lon="9.2269500">
	<ele>599.80</ele>
	<time>2025-02-15T07:18:17.000Z</time>
</trkpt>
<trkpt lat="45.8429700" lon="9.2269380">
	<ele>599.60</ele>
	<time>2025-02-15T07:18:18.000Z</time>
</trkpt>
<trkpt lat="45.8429640" lon="9.2269290">
	<ele>597.80</ele>
	<time>2025-02-15T07:18:19.000Z</time>
</trkpt>
<trkpt lat="45.8429550" lon="9.2269180">
	<ele>597.80</ele>
	<time>2025-02-15T07:18:20.000Z</time>
</trkpt>
<trkpt lat="45.8429510" lon="9.2269100">
	<ele>597.80</ele>
	<time>2025-02-15T07:18:21.000Z</time>
</trkpt>
<trkpt lat="45.8429410" lon="9.2268990">
	<ele>597.40</ele>
	<time>2025-02-15T07:18:22.000Z</time>
</trkpt>
<trkpt lat="45.8429360" lon="9.2268930">
	<ele>597.40</ele>
	<time>2025-02-15T07:18:23.000Z</time>
</trkpt>
<trkpt lat="45.8429390" lon="9.2268930">
	<ele>597.20</ele>
	<time>2025-02-15T07:18:24.000Z</time>
</trkpt>
<trkpt lat="45.8429390" lon="9.2268880">
	<ele>597.20</ele>
	<time>2025-02-15T07:18:25.000Z</time>
</trkpt>
<trkpt lat="45.8429380" lon="9.2268890">
	<ele>597.20</ele>
	<time>2025-02-15T07:18:26.000Z</time>
</trkpt>
<trkpt lat="45.8429390" lon="9.2268920">
	<ele>597.20</ele>
	<time>2025-02-15T07:18:27.000Z</time>
</trkpt>
<trkpt lat="45.8429530" lon="9.2268990">
	<ele>597.20</ele>
	<time>2025-02-15T07:18:28.000Z</time>
</trkpt>
<trkpt lat="45.8429620" lon="9.2269080">
	<ele>597.20</ele>
	<time>2025-02-15T07:18:29.000Z</time>
</trkpt>
<trkpt lat="45.8429750" lon="9.2269090">
	<ele>597.20</ele>
	<time>2025-02-15T07:18:30.000Z</time>
</trkpt>
<trkpt lat="45.8429810" lon="9.2269030">
	<ele>597.20</ele>
	<time>2025-02-15T07:18:31.000Z</time>
</trkpt>
<trkpt lat="45.8429820" lon="9.2268990">
	<ele>597.20</ele>
	<time>2025-02-15T07:18:32.000Z</time>
</trkpt>
<trkpt lat="45.8429910" lon="9.2269050">
	<ele>597.20</ele>
	<time>2025-02-15T07:18:33.000Z</time>
</trkpt>
<trkpt lat="45.8429950" lon="9.2269050">
	<ele>597.20</ele>
	<time>2025-02-15T07:18:34.000Z</time>
</trkpt>
<trkpt lat="45.8429990" lon="9.2269100">
	<ele>597.20</ele>
	<time>2025-02-15T07:18:35.000Z</time>
</trkpt>
<trkpt lat="45.8429980" lon="9.2269170">
	<ele>597.20</ele>
	<time>2025-02-15T07:18:36.000Z</time>
</trkpt>
<trkpt lat="45.8429960" lon="9.2269240">
	<ele>597.00</ele>
	<time>2025-02-15T07:18:37.000Z</time>
</trkpt>
<trkpt lat="45.8429950" lon="9.2269280">
	<ele>597.00</ele>
	<time>2025-02-15T07:18:38.000Z</time>
</trkpt>
<trkpt lat="45.8429940" lon="9.2269280">
	<ele>597.00</ele>
	<time>2025-02-15T07:18:39.000Z</time>
</trkpt>
<trkpt lat="45.8429940" lon="9.2269280">
	<ele>597.00</ele>
	<time>2025-02-15T07:18:40.000Z</time>
</trkpt>
<trkpt lat="45.8429940" lon="9.2269280">
	<ele>597.00</ele>
	<time>2025-02-15T07:18:41.000Z</time>
</trkpt>
<trkpt lat="45.8429940" lon="9.2269280">
	<ele>597.00</ele>
	<time>2025-02-15T07:18:42.000Z</time>
</trkpt>
<trkpt lat="45.8429940" lon="9.2269280">
	<ele>597.00</ele>
	<time>2025-02-15T07:18:43.000Z</time>
</trkpt>
<trkpt lat="45.8429940" lon="9.2269280">
	<ele>597.00</ele>
	<time>2025-02-15T07:18:44.000Z</time>
</trkpt>
<trkpt lat="45.8429940" lon="9.2269280">
	<ele>597.20</ele>
	<time>2025-02-15T07:18:45.000Z</time>
</trkpt>
<trkpt lat="45.8429940" lon="9.2269280">
	<ele>597.20</ele>
	<time>2025-02-15T07:18:46.000Z</time>
</trkpt>
<trkpt lat="45.8429940" lon="9.2269280">
	<ele>597.40</ele>
	<time>2025-02-15T07:18:47.000Z</time>
</trkpt>
<trkpt lat="45.8429970" lon="9.2269300">
	<ele>597.40</ele>
	<time>2025-02-15T07:18:48.000Z</time>
</trkpt>
<trkpt lat="45.8430000" lon="9.2269430">
	<ele>597.40</ele>
	<time>2025-02-15T07:18:49.000Z</time>
</trkpt>
<trkpt lat="45.8430000" lon="9.2269480">
	<ele>597.40</ele>
	<time>2025-02-15T07:18:50.000Z</time>
</trkpt>
<trkpt lat="45.8429890" lon="9.2269440">
	<ele>597.40</ele>
	<time>2025-02-15T07:18:51.000Z</time>
</trkpt>
<trkpt lat="45.8429880" lon="9.2269440">
	<ele>597.40</ele>
	<time>2025-02-15T07:18:52.000Z</time>
</trkpt>
<trkpt lat="45.8429900" lon="9.2269490">
	<ele>597.40</ele>
	<time>2025-02-15T07:18:53.000Z</time>
</trkpt>
<trkpt lat="45.8429880" lon="9.2269560">
	<ele>597.40</ele>
	<time>2025-02-15T07:18:54.000Z</time>
</trkpt>
<trkpt lat="45.8429910" lon="9.2269580">
	<ele>597.40</ele>
	<time>2025-02-15T07:18:55.000Z</time>
</trkpt>
<trkpt lat="45.8429960" lon="9.2269570">
	<ele>597.60</ele>
	<time>2025-02-15T07:18:56.000Z</time>
</trkpt>
<trkpt lat="45.8430030" lon="9.2269570">
	<ele>597.60</ele>
	<time>2025-02-15T07:18:57.000Z</time>
</trkpt>
<trkpt lat="45.8430220" lon="9.2269640">
	<ele>597.60</ele>
	<time>2025-02-15T07:18:58.000Z</time>
</trkpt>
<trkpt lat="45.8430250" lon="9.2269680">
	<ele>597.60</ele>
	<time>2025-02-15T07:18:59.000Z</time>
</trkpt>
<trkpt lat="45.8430260" lon="9.2269710">
	<ele>597.60</ele>
	<time>2025-02-15T07:19:00.000Z</time>
</trkpt>
<trkpt lat="45.8430240" lon="9.2269730">
	<ele>597.40</ele>
	<time>2025-02-15T07:19:01.000Z</time>
</trkpt>
<trkpt lat="45.8430190" lon="9.2269770">
	<ele>597.40</ele>
	<time>2025-02-15T07:19:02.000Z</time>
</trkpt>
<trkpt lat="45.8430150" lon="9.2269720">
	<ele>597.40</ele>
	<time>2025-02-15T07:19:03.000Z</time>
</trkpt>
<trkpt lat="45.8430130" lon="9.2269690">
	<ele>597.40</ele>
	<time>2025-02-15T07:19:04.000Z</time>
</trkpt>
<trkpt lat="45.8430090" lon="9.2269700">
	<ele>597.40</ele>
	<time>2025-02-15T07:19:05.000Z</time>
</trkpt>
<trkpt lat="45.8430090" lon="9.2269730">
	<ele>597.60</ele>
	<time>2025-02-15T07:19:06.000Z</time>
</trkpt>
<trkpt lat="45.8430150" lon="9.2269800">
	<ele>597.80</ele>
	<time>2025-02-15T07:19:07.000Z</time>
</trkpt>
<trkpt lat="45.8430180" lon="9.2269830">
	<ele>598.00</ele>
	<time>2025-02-15T07:19:08.000Z</time>
</trkpt>
<trkpt lat="45.8430190" lon="9.2269820">
	<ele>598.00</ele>
	<time>2025-02-15T07:19:09.000Z</time>
</trkpt>
<trkpt lat="45.8430170" lon="9.2269830">
	<ele>598.20</ele>
	<time>2025-02-15T07:19:10.000Z</time>
</trkpt>
<trkpt lat="45.8430170" lon="9.2269880">
	<ele>598.20</ele>
	<time>2025-02-15T07:19:11.000Z</time>
</trkpt>
<trkpt lat="45.8430220" lon="9.2269950">
	<ele>598.40</ele>
	<time>2025-02-15T07:19:12.000Z</time>
</trkpt>
<trkpt lat="45.8430230" lon="9.2270000">
	<ele>598.40</ele>
	<time>2025-02-15T07:19:13.000Z</time>
</trkpt>
<trkpt lat="45.8430270" lon="9.2269970">
	<ele>598.60</ele>
	<time>2025-02-15T07:19:14.000Z</time>
</trkpt>
<trkpt lat="45.8430290" lon="9.2269970">
	<ele>598.80</ele>
	<time>2025-02-15T07:19:15.000Z</time>
</trkpt>
<trkpt lat="45.8430310" lon="9.2269960">
	<ele>598.80</ele>
	<time>2025-02-15T07:19:16.000Z</time>
</trkpt>
<trkpt lat="45.8430330" lon="9.2269930">
	<ele>598.80</ele>
	<time>2025-02-15T07:19:17.000Z</time>
</trkpt>
<trkpt lat="45.8430400" lon="9.2269880">
	<ele>599.20</ele>
	<time>2025-02-15T07:19:18.000Z</time>
</trkpt>
<trkpt lat="45.8430430" lon="9.2269890">
	<ele>599.40</ele>
	<time>2025-02-15T07:19:19.000Z</time>
</trkpt>
<trkpt lat="45.8430460" lon="9.2269820">
	<ele>599.60</ele>
	<time>2025-02-15T07:19:20.000Z</time>
</trkpt>
<trkpt lat="45.8430490" lon="9.2269790">
	<ele>599.60</ele>
	<time>2025-02-15T07:19:21.000Z</time>
</trkpt>
<trkpt lat="45.8430490" lon="9.2269790">
	<ele>599.80</ele>
	<time>2025-02-15T07:19:22.000Z</time>
</trkpt>
<trkpt lat="45.8430510" lon="9.2269760">
	<ele>600.00</ele>
	<time>2025-02-15T07:19:23.000Z</time>
</trkpt>
<trkpt lat="45.8430540" lon="9.2269730">
	<ele>600.20</ele>
	<time>2025-02-15T07:19:24.000Z</time>
</trkpt>
<trkpt lat="45.8430590" lon="9.2269810">
	<ele>600.40</ele>
	<time>2025-02-15T07:19:25.000Z</time>
</trkpt>
<trkpt lat="45.8430630" lon="9.2269970">
	<ele>600.40</ele>
	<time>2025-02-15T07:19:26.000Z</time>
</trkpt>
<trkpt lat="45.8430660" lon="9.2270010">
	<ele>600.60</ele>
	<time>2025-02-15T07:19:27.000Z</time>
</trkpt>
<trkpt lat="45.8430640" lon="9.2270060">
	<ele>600.80</ele>
	<time>2025-02-15T07:19:28.000Z</time>
</trkpt>
<trkpt lat="45.8430650" lon="9.2270160">
	<ele>601.40</ele>
	<time>2025-02-15T07:19:29.000Z</time>
</trkpt>
<trkpt lat="45.8430670" lon="9.2270330">
	<ele>601.60</ele>
	<time>2025-02-15T07:19:30.000Z</time>
</trkpt>
<trkpt lat="45.8430710" lon="9.2270380">
	<ele>601.80</ele>
	<time>2025-02-15T07:19:31.000Z</time>
</trkpt>
<trkpt lat="45.8430650" lon="9.2270390">
	<ele>602.00</ele>
	<time>2025-02-15T07:19:32.000Z</time>
</trkpt>
<trkpt lat="45.8430630" lon="9.2270380">
	<ele>602.00</ele>
	<time>2025-02-15T07:19:33.000Z</time>
</trkpt>
<trkpt lat="45.8430620" lon="9.2270250">
	<ele>602.20</ele>
	<time>2025-02-15T07:19:34.000Z</time>
</trkpt>
<trkpt lat="45.8430640" lon="9.2270230">
	<ele>602.20</ele>
	<time>2025-02-15T07:19:35.000Z</time>
</trkpt>
<trkpt lat="45.8430650" lon="9.2270240">
	<ele>602.40</ele>
	<time>2025-02-15T07:19:36.000Z</time>
</trkpt>
<trkpt lat="45.8430640" lon="9.2270250">
	<ele>602.40</ele>
	<time>2025-02-15T07:19:37.000Z</time>
</trkpt>
<trkpt lat="45.8430620" lon="9.2270280">
	<ele>602.60</ele>
	<time>2025-02-15T07:19:38.000Z</time>
</trkpt>
<trkpt lat="45.8430690" lon="9.2270420">
	<ele>602.60</ele>
	<time>2025-02-15T07:19:39.000Z</time>
</trkpt>
<trkpt lat="45.8430750" lon="9.2270590">
	<ele>602.60</ele>
	<time>2025-02-15T07:19:40.000Z</time>
</trkpt>
<trkpt lat="45.8430790" lon="9.2270590">
	<ele>602.80</ele>
	<time>2025-02-15T07:19:41.000Z</time>
</trkpt>
<trkpt lat="45.8430810" lon="9.2270540">
	<ele>603.00</ele>
	<time>2025-02-15T07:19:42.000Z</time>
</trkpt>
<trkpt lat="45.8430880" lon="9.2270530">
	<ele>603.20</ele>
	<time>2025-02-15T07:19:43.000Z</time>
</trkpt>
<trkpt lat="45.8430910" lon="9.2270500">
	<ele>603.40</ele>
	<time>2025-02-15T07:19:44.000Z</time>
</trkpt>
<trkpt lat="45.8430930" lon="9.2270490">
	<ele>603.60</ele>
	<time>2025-02-15T07:19:45.000Z</time>
</trkpt>
<trkpt lat="45.8431070" lon="9.2270600">
	<ele>603.80</ele>
	<time>2025-02-15T07:19:46.000Z</time>
</trkpt>
<trkpt lat="45.8431100" lon="9.2270620">
	<ele>603.80</ele>
	<time>2025-02-15T07:19:47.000Z</time>
</trkpt>
<trkpt lat="45.8431100" lon="9.2270640">
	<ele>603.80</ele>
	<time>2025-02-15T07:19:48.000Z</time>
</trkpt>
<trkpt lat="45.8431110" lon="9.2270670">
	<ele>604.00</ele>
	<time>2025-02-15T07:19:49.000Z</time>
</trkpt>
<trkpt lat="45.8431120" lon="9.2270690">
	<ele>604.20</ele>
	<time>2025-02-15T07:19:50.000Z</time>
</trkpt>
<trkpt lat="45.8431140" lon="9.2270730">
	<ele>604.40</ele>
	<time>2025-02-15T07:19:51.000Z</time>
</trkpt>
<trkpt lat="45.8431190" lon="9.2270770">
	<ele>604.40</ele>
	<time>2025-02-15T07:19:52.000Z</time>
</trkpt>
<trkpt lat="45.8431230" lon="9.2270770">
	<ele>604.60</ele>
	<time>2025-02-15T07:19:53.000Z</time>
</trkpt>
<trkpt lat="45.8431300" lon="9.2270730">
	<ele>604.80</ele>
	<time>2025-02-15T07:19:54.000Z</time>
</trkpt>
<trkpt lat="45.8431240" lon="9.2270710">
	<ele>604.80</ele>
	<time>2025-02-15T07:19:55.000Z</time>
</trkpt>
<trkpt lat="45.8431260" lon="9.2270740">
	<ele>605.00</ele>
	<time>2025-02-15T07:19:56.000Z</time>
</trkpt>
<trkpt lat="45.8431300" lon="9.2270800">
	<ele>605.00</ele>
	<time>2025-02-15T07:19:57.000Z</time>
</trkpt>
<trkpt lat="45.8431330" lon="9.2270830">
	<ele>605.20</ele>
	<time>2025-02-15T07:19:58.000Z</time>
</trkpt>
<trkpt lat="45.8431380" lon="9.2270910">
	<ele>605.40</ele>
	<time>2025-02-15T07:19:59.000Z</time>
</trkpt>
<trkpt lat="45.8431380" lon="9.2270950">
	<ele>605.60</ele>
	<time>2025-02-15T07:20:00.000Z</time>
</trkpt>
<trkpt lat="45.8431360" lon="9.2271070">
	<ele>605.80</ele>
	<time>2025-02-15T07:20:01.000Z</time>
</trkpt>
<trkpt lat="45.8431410" lon="9.2271150">
	<ele>606.00</ele>
	<time>2025-02-15T07:20:02.000Z</time>
</trkpt>
<trkpt lat="45.8431410" lon="9.2271200">
	<ele>606.00</ele>
	<time>2025-02-15T07:20:03.000Z</time>
</trkpt>
<trkpt lat="45.8431460" lon="9.2271120">
	<ele>606.20</ele>
	<time>2025-02-15T07:20:04.000Z</time>
</trkpt>
<trkpt lat="45.8431500" lon="9.2271090">
	<ele>606.40</ele>
	<time>2025-02-15T07:20:05.000Z</time>
</trkpt>
<trkpt lat="45.8431520" lon="9.2271060">
	<ele>606.60</ele>
	<time>2025-02-15T07:20:06.000Z</time>
</trkpt>
<trkpt lat="45.8431520" lon="9.2271030">
	<ele>606.60</ele>
	<time>2025-02-15T07:20:07.000Z</time>
</trkpt>
<trkpt lat="45.8431530" lon="9.2271050">
	<ele>606.60</ele>
	<time>2025-02-15T07:20:08.000Z</time>
</trkpt>
<trkpt lat="45.8431520" lon="9.2271050">
	<ele>607.00</ele>
	<time>2025-02-15T07:20:09.000Z</time>
</trkpt>
<trkpt lat="45.8431520" lon="9.2271050">
	<ele>607.20</ele>
	<time>2025-02-15T07:20:10.000Z</time>
</trkpt>
<trkpt lat="45.8431520" lon="9.2271050">
	<ele>607.20</ele>
	<time>2025-02-15T07:20:11.000Z</time>
</trkpt>
<trkpt lat="45.8431520" lon="9.2271050">
	<ele>607.20</ele>
	<time>2025-02-15T07:20:12.000Z</time>
</trkpt>
<trkpt lat="45.8431520" lon="9.2271050">
	<ele>607.40</ele>
	<time>2025-02-15T07:20:13.000Z</time>
</trkpt>
<trkpt lat="45.8431520" lon="9.2271050">
	<ele>607.40</ele>
	<time>2025-02-15T07:20:14.000Z</time>
</trkpt>
<trkpt lat="45.8431520" lon="9.2271050">
	<ele>607.60</ele>
	<time>2025-02-15T07:20:15.000Z</time>
</trkpt>
<trkpt lat="45.8431520" lon="9.2271050">
	<ele>607.80</ele>
	<time>2025-02-15T07:20:16.000Z</time>
</trkpt>
<trkpt lat="45.8431520" lon="9.2271050">
	<ele>608.00</ele>
	<time>2025-02-15T07:20:17.000Z</time>
</trkpt>
<trkpt lat="45.8431520" lon="9.2271050">
	<ele>608.20</ele>
	<time>2025-02-15T07:20:18.000Z</time>
</trkpt>
<trkpt lat="45.8431520" lon="9.2271050">
	<ele>608.40</ele>
	<time>2025-02-15T07:20:19.000Z</time>
</trkpt>
<trkpt lat="45.8431520" lon="9.2271050">
	<ele>608.60</ele>
	<time>2025-02-15T07:20:20.000Z</time>
</trkpt>
<trkpt lat="45.8431520" lon="9.2271050">
	<ele>608.60</ele>
	<time>2025-02-15T07:20:21.000Z</time>
</trkpt>
<trkpt lat="45.8431520" lon="9.2271060">
	<ele>608.80</ele>
	<time>2025-02-15T07:20:22.000Z</time>
</trkpt>
<trkpt lat="45.8431520" lon="9.2271060">
	<ele>609.00</ele>
	<time>2025-02-15T07:20:23.000Z</time>
</trkpt>
<trkpt lat="45.8431590" lon="9.2271100">
	<ele>609.20</ele>
	<time>2025-02-15T07:20:24.000Z</time>
</trkpt>
<trkpt lat="45.8431710" lon="9.2271100">
	<ele>609.40</ele>
	<time>2025-02-15T07:20:25.000Z</time>
</trkpt>
<trkpt lat="45.8431760" lon="9.2271190">
	<ele>609.60</ele>
	<time>2025-02-15T07:20:26.000Z</time>
</trkpt>
<trkpt lat="45.8431850" lon="9.2271370">
	<ele>609.60</ele>
	<time>2025-02-15T07:20:27.000Z</time>
</trkpt>
<trkpt lat="45.8432030" lon="9.2271590">
	<ele>609.80</ele>
	<time>2025-02-15T07:20:28.000Z</time>
</trkpt>
<trkpt lat="45.8432180" lon="9.2271650">
	<ele>609.80</ele>
	<time>2025-02-15T07:20:29.000Z</time>
</trkpt>
<trkpt lat="45.8432460" lon="9.2271670">
	<ele>609.80</ele>
	<time>2025-02-15T07:20:30.000Z</time>
</trkpt>
<trkpt lat="45.8432470" lon="9.2271520">
	<ele>609.80</ele>
	<time>2025-02-15T07:20:31.000Z</time>
</trkpt>
<trkpt lat="45.8432430" lon="9.2271400">
	<ele>609.80</ele>
	<time>2025-02-15T07:20:32.000Z</time>
</trkpt>
<trkpt lat="45.8432400" lon="9.2271280">
	<ele>609.80</ele>
	<time>2025-02-15T07:20:33.000Z</time>
</trkpt>
<trkpt lat="45.8432370" lon="9.2271120">
	<ele>609.80</ele>
	<time>2025-02-15T07:20:34.000Z</time>
</trkpt>
<trkpt lat="45.8432340" lon="9.2271020">
	<ele>609.80</ele>
	<time>2025-02-15T07:20:35.000Z</time>
</trkpt>
<trkpt lat="45.8432330" lon="9.2271000">
	<ele>609.80</ele>
	<time>2025-02-15T07:20:36.000Z</time>
</trkpt>
<trkpt lat="45.8432370" lon="9.2271040">
	<ele>609.80</ele>
	<time>2025-02-15T07:20:37.000Z</time>
</trkpt>
<trkpt lat="45.8432380" lon="9.2271090">
	<ele>609.80</ele>
	<time>2025-02-15T07:20:38.000Z</time>
</trkpt>
<trkpt lat="45.8432380" lon="9.2271090">
	<ele>609.60</ele>
	<time>2025-02-15T07:20:39.000Z</time>
</trkpt>
<trkpt lat="45.8432400" lon="9.2271100">
	<ele>609.60</ele>
	<time>2025-02-15T07:20:40.000Z</time>
</trkpt>
<trkpt lat="45.8432390" lon="9.2271130">
	<ele>609.60</ele>
	<time>2025-02-15T07:20:41.000Z</time>
</trkpt>
<trkpt lat="45.8432380" lon="9.2271160">
	<ele>609.60</ele>
	<time>2025-02-15T07:20:42.000Z</time>
</trkpt>
<trkpt lat="45.8432370" lon="9.2271180">
	<ele>609.60</ele>
	<time>2025-02-15T07:20:43.000Z</time>
</trkpt>
<trkpt lat="45.8432380" lon="9.2271190">
	<ele>609.60</ele>
	<time>2025-02-15T07:20:44.000Z</time>
</trkpt>
<trkpt lat="45.8432380" lon="9.2271190">
	<ele>609.40</ele>
	<time>2025-02-15T07:20:45.000Z</time>
</trkpt>
<trkpt lat="45.8432380" lon="9.2271190">
	<ele>609.40</ele>
	<time>2025-02-15T07:20:46.000Z</time>
</trkpt>
<trkpt lat="45.8432380" lon="9.2271190">
	<ele>609.40</ele>
	<time>2025-02-15T07:20:47.000Z</time>
</trkpt>
<trkpt lat="45.8432380" lon="9.2271190">
	<ele>609.40</ele>
	<time>2025-02-15T07:20:48.000Z</time>
</trkpt>
<trkpt lat="45.8432380" lon="9.2271190">
	<ele>609.60</ele>
	<time>2025-02-15T07:20:49.000Z</time>
</trkpt>
<trkpt lat="45.8432380" lon="9.2271190">
	<ele>609.80</ele>
	<time>2025-02-15T07:20:50.000Z</time>
</trkpt>
<trkpt lat="45.8432380" lon="9.2271190">
	<ele>610.00</ele>
	<time>2025-02-15T07:20:51.000Z</time>
</trkpt>
<trkpt lat="45.8432380" lon="9.2271180">
	<ele>610.20</ele>
	<time>2025-02-15T07:20:52.000Z</time>
</trkpt>
<trkpt lat="45.8432380" lon="9.2271170">
	<ele>610.40</ele>
	<time>2025-02-15T07:20:53.000Z</time>
</trkpt>
<trkpt lat="45.8432380" lon="9.2271170">
	<ele>610.60</ele>
	<time>2025-02-15T07:20:54.000Z</time>
</trkpt>
<trkpt lat="45.8432380" lon="9.2271160">
	<ele>610.60</ele>
	<time>2025-02-15T07:20:55.000Z</time>
</trkpt>
<trkpt lat="45.8432380" lon="9.2271150">
	<ele>610.80</ele>
	<time>2025-02-15T07:20:56.000Z</time>
</trkpt>
<trkpt lat="45.8432380" lon="9.2271150">
	<ele>610.80</ele>
	<time>2025-02-15T07:20:57.000Z</time>
</trkpt>
<trkpt lat="45.8432390" lon="9.2271130">
	<ele>611.00</ele>
	<time>2025-02-15T07:20:58.000Z</time>
</trkpt>
<trkpt lat="45.8432400" lon="9.2271130">
	<ele>611.00</ele>
	<time>2025-02-15T07:20:59.000Z</time>
</trkpt>
<trkpt lat="45.8432430" lon="9.2271120">
	<ele>611.00</ele>
	<time>2025-02-15T07:21:00.000Z</time>
</trkpt>
<trkpt lat="45.8432470" lon="9.2271120">
	<ele>611.00</ele>
	<time>2025-02-15T07:21:01.000Z</time>
</trkpt>
<trkpt lat="45.8432470" lon="9.2271110">
	<ele>611.00</ele>
	<time>2025-02-15T07:21:02.000Z</time>
</trkpt>
<trkpt lat="45.8432480" lon="9.2271110">
	<ele>611.20</ele>
	<time>2025-02-15T07:21:03.000Z</time>
</trkpt>
<trkpt lat="45.8432480" lon="9.2271110">
	<ele>611.20</ele>
	<time>2025-02-15T07:21:04.000Z</time>
</trkpt>
<trkpt lat="45.8432480" lon="9.2271110">
	<ele>611.20</ele>
	<time>2025-02-15T07:21:05.000Z</time>
</trkpt>
<trkpt lat="45.8432480" lon="9.2271110">
	<ele>611.20</ele>
	<time>2025-02-15T07:21:06.000Z</time>
</trkpt>
<trkpt lat="45.8432480" lon="9.2271120">
	<ele>611.20</ele>
	<time>2025-02-15T07:21:07.000Z</time>
</trkpt>
<trkpt lat="45.8432480" lon="9.2271120">
	<ele>611.20</ele>
	<time>2025-02-15T07:21:08.000Z</time>
</trkpt>
<trkpt lat="45.8432480" lon="9.2271120">
	<ele>611.40</ele>
	<time>2025-02-15T07:21:09.000Z</time>
</trkpt>
<trkpt lat="45.8432480" lon="9.2271130">
	<ele>611.40</ele>
	<time>2025-02-15T07:21:10.000Z</time>
</trkpt>
<trkpt lat="45.8432480" lon="9.2271130">
	<ele>611.60</ele>
	<time>2025-02-15T07:21:11.000Z</time>
</trkpt>
<trkpt lat="45.8432480" lon="9.2271130">
	<ele>611.80</ele>
	<time>2025-02-15T07:21:12.000Z</time>
</trkpt>
<trkpt lat="45.8432490" lon="9.2271130">
	<ele>612.00</ele>
	<time>2025-02-15T07:21:13.000Z</time>
</trkpt>
<trkpt lat="45.8432510" lon="9.2271130">
	<ele>612.20</ele>
	<time>2025-02-15T07:21:14.000Z</time>
</trkpt>
<trkpt lat="45.8432510" lon="9.2271130">
	<ele>612.40</ele>
	<time>2025-02-15T07:21:15.000Z</time>
</trkpt>
<trkpt lat="45.8432510" lon="9.2271130">
	<ele>612.40</ele>
	<time>2025-02-15T07:21:16.000Z</time>
</trkpt>
<trkpt lat="45.8432560" lon="9.2271230">
	<ele>612.60</ele>
	<time>2025-02-15T07:21:17.000Z</time>
</trkpt>
<trkpt lat="45.8432650" lon="9.2271380">
	<ele>612.80</ele>
	<time>2025-02-15T07:21:18.000Z</time>
</trkpt>
<trkpt lat="45.8432720" lon="9.2271510">
	<ele>612.80</ele>
	<time>2025-02-15T07:21:19.000Z</time>
</trkpt>
<trkpt lat="45.8432830" lon="9.2271670">
	<ele>613.00</ele>
	<time>2025-02-15T07:21:20.000Z</time>
</trkpt>
<trkpt lat="45.8432970" lon="9.2271860">
	<ele>613.20</ele>
	<time>2025-02-15T07:21:21.000Z</time>
</trkpt>
<trkpt lat="45.8433070" lon="9.2272010">
	<ele>613.20</ele>
	<time>2025-02-15T07:21:22.000Z</time>
</trkpt>
<trkpt lat="45.8433140" lon="9.2272120">
	<ele>613.40</ele>
	<time>2025-02-15T07:21:23.000Z</time>
</trkpt>
<trkpt lat="45.8433260" lon="9.2272340">
	<ele>613.40</ele>
	<time>2025-02-15T07:21:24.000Z</time>
</trkpt>
<trkpt lat="45.8433350" lon="9.2272530">
	<ele>613.40</ele>
	<time>2025-02-15T07:21:25.000Z</time>
</trkpt>
<trkpt lat="45.8433420" lon="9.2272680">
	<ele>613.60</ele>
	<time>2025-02-15T07:21:26.000Z</time>
</trkpt>
<trkpt lat="45.8433440" lon="9.2272700">
	<ele>614.00</ele>
	<time>2025-02-15T07:21:27.000Z</time>
</trkpt>
<trkpt lat="45.8433460" lon="9.2272720">
	<ele>614.20</ele>
	<time>2025-02-15T07:21:28.000Z</time>
</trkpt>
<trkpt lat="45.8433470" lon="9.2272740">
	<ele>614.40</ele>
	<time>2025-02-15T07:21:29.000Z</time>
</trkpt>
<trkpt lat="45.8433510" lon="9.2272820">
	<ele>614.60</ele>
	<time>2025-02-15T07:21:30.000Z</time>
</trkpt>
<trkpt lat="45.8433510" lon="9.2272840">
	<ele>615.00</ele>
	<time>2025-02-15T07:21:31.000Z</time>
</trkpt>
<trkpt lat="45.8433520" lon="9.2272860">
	<ele>615.00</ele>
	<time>2025-02-15T07:21:32.000Z</time>
</trkpt>
<trkpt lat="45.8433550" lon="9.2272880">
	<ele>615.20</ele>
	<time>2025-02-15T07:21:33.000Z</time>
</trkpt>
<trkpt lat="45.8433570" lon="9.2272880">
	<ele>615.40</ele>
	<time>2025-02-15T07:21:34.000Z</time>
</trkpt>
<trkpt lat="45.8433580" lon="9.2272910">
	<ele>615.40</ele>
	<time>2025-02-15T07:21:35.000Z</time>
</trkpt>
<trkpt lat="45.8433660" lon="9.2272960">
	<ele>615.60</ele>
	<time>2025-02-15T07:21:36.000Z</time>
</trkpt>
<trkpt lat="45.8433670" lon="9.2272960">
	<ele>615.80</ele>
	<time>2025-02-15T07:21:37.000Z</time>
</trkpt>
<trkpt lat="45.8433670" lon="9.2273000">
	<ele>616.20</ele>
	<time>2025-02-15T07:21:38.000Z</time>
</trkpt>
<trkpt lat="45.8433730" lon="9.2273070">
	<ele>616.40</ele>
	<time>2025-02-15T07:21:39.000Z</time>
</trkpt>
<trkpt lat="45.8433740" lon="9.2273090">
	<ele>616.40</ele>
	<time>2025-02-15T07:21:40.000Z</time>
</trkpt>
<trkpt lat="45.8433760" lon="9.2273120">
	<ele>616.80</ele>
	<time>2025-02-15T07:21:41.000Z</time>
</trkpt>
<trkpt lat="45.8433780" lon="9.2273150">
	<ele>617.00</ele>
	<time>2025-02-15T07:21:42.000Z</time>
</trkpt>
<trkpt lat="45.8433800" lon="9.2273170">
	<ele>617.20</ele>
	<time>2025-02-15T07:21:43.000Z</time>
</trkpt>
<trkpt lat="45.8433810" lon="9.2273170">
	<ele>617.20</ele>
	<time>2025-02-15T07:21:44.000Z</time>
</trkpt>
<trkpt lat="45.8433870" lon="9.2273200">
	<ele>617.40</ele>
	<time>2025-02-15T07:21:45.000Z</time>
</trkpt>
<trkpt lat="45.8433940" lon="9.2273230">
	<ele>617.40</ele>
	<time>2025-02-15T07:21:46.000Z</time>
</trkpt>
<trkpt lat="45.8433990" lon="9.2273220">
	<ele>617.40</ele>
	<time>2025-02-15T07:21:47.000Z</time>
</trkpt>
<trkpt lat="45.8434020" lon="9.2273230">
	<ele>617.60</ele>
	<time>2025-02-15T07:21:48.000Z</time>
</trkpt>
<trkpt lat="45.8434050" lon="9.2273310">
	<ele>617.60</ele>
	<time>2025-02-15T07:21:49.000Z</time>
</trkpt>
<trkpt lat="45.8434050" lon="9.2273340">
	<ele>617.80</ele>
	<time>2025-02-15T07:21:50.000Z</time>
</trkpt>
<trkpt lat="45.8434060" lon="9.2273340">
	<ele>618.00</ele>
	<time>2025-02-15T07:21:51.000Z</time>
</trkpt>
<trkpt lat="45.8434060" lon="9.2273360">
	<ele>618.40</ele>
	<time>2025-02-15T07:21:52.000Z</time>
</trkpt>
<trkpt lat="45.8434080" lon="9.2273380">
	<ele>618.60</ele>
	<time>2025-02-15T07:21:53.000Z</time>
</trkpt>
<trkpt lat="45.8434070" lon="9.2273400">
	<ele>618.60</ele>
	<time>2025-02-15T07:21:54.000Z</time>
</trkpt>
<trkpt lat="45.8434100" lon="9.2273400">
	<ele>618.80</ele>
	<time>2025-02-15T07:21:55.000Z</time>
</trkpt>
<trkpt lat="45.8434130" lon="9.2273400">
	<ele>619.00</ele>
	<time>2025-02-15T07:21:56.000Z</time>
</trkpt>
<trkpt lat="45.8434150" lon="9.2273420">
	<ele>619.20</ele>
	<time>2025-02-15T07:21:57.000Z</time>
</trkpt>
<trkpt lat="45.8434190" lon="9.2273420">
	<ele>619.40</ele>
	<time>2025-02-15T07:21:58.000Z</time>
</trkpt>
<trkpt lat="45.8434220" lon="9.2273460">
	<ele>619.40</ele>
	<time>2025-02-15T07:21:59.000Z</time>
</trkpt>
<trkpt lat="45.8434250" lon="9.2273480">
	<ele>619.60</ele>
	<time>2025-02-15T07:22:00.000Z</time>
</trkpt>
<trkpt lat="45.8434260" lon="9.2273450">
	<ele>619.80</ele>
	<time>2025-02-15T07:22:01.000Z</time>
</trkpt>
<trkpt lat="45.8434290" lon="9.2273460">
	<ele>619.80</ele>
	<time>2025-02-15T07:22:02.000Z</time>
</trkpt>
<trkpt lat="45.8434330" lon="9.2273480">
	<ele>620.00</ele>
	<time>2025-02-15T07:22:03.000Z</time>
</trkpt>
<trkpt lat="45.8434380" lon="9.2273550">
	<ele>620.00</ele>
	<time>2025-02-15T07:22:04.000Z</time>
</trkpt>
<trkpt lat="45.8434410" lon="9.2273570">
	<ele>620.20</ele>
	<time>2025-02-15T07:22:05.000Z</time>
</trkpt>
<trkpt lat="45.8434410" lon="9.2273590">
	<ele>620.40</ele>
	<time>2025-02-15T07:22:06.000Z</time>
</trkpt>
<trkpt lat="45.8434410" lon="9.2273590">
	<ele>620.80</ele>
	<time>2025-02-15T07:22:07.000Z</time>
</trkpt>
<trkpt lat="45.8434410" lon="9.2273590">
	<ele>620.80</ele>
	<time>2025-02-15T07:22:08.000Z</time>
</trkpt>
<trkpt lat="45.8434410" lon="9.2273590">
	<ele>621.00</ele>
	<time>2025-02-15T07:22:09.000Z</time>
</trkpt>
<trkpt lat="45.8434410" lon="9.2273590">
	<ele>621.00</ele>
	<time>2025-02-15T07:22:10.000Z</time>
</trkpt>
<trkpt lat="45.8434410" lon="9.2273590">
	<ele>621.20</ele>
	<time>2025-02-15T07:22:11.000Z</time>
</trkpt>
<trkpt lat="45.8434410" lon="9.2273590">
	<ele>621.40</ele>
	<time>2025-02-15T07:22:12.000Z</time>
</trkpt>
<trkpt lat="45.8434410" lon="9.2273590">
	<ele>621.60</ele>
	<time>2025-02-15T07:22:13.000Z</time>
</trkpt>
<trkpt lat="45.8434410" lon="9.2273590">
	<ele>621.60</ele>
	<time>2025-02-15T07:22:14.000Z</time>
</trkpt>
<trkpt lat="45.8434410" lon="9.2273590">
	<ele>621.60</ele>
	<time>2025-02-15T07:22:15.000Z</time>
</trkpt>
<trkpt lat="45.8434410" lon="9.2273590">
	<ele>621.80</ele>
	<time>2025-02-15T07:22:16.000Z</time>
</trkpt>
<trkpt lat="45.8434410" lon="9.2273590">
	<ele>622.20</ele>
	<time>2025-02-15T07:22:17.000Z</time>
</trkpt>
<trkpt lat="45.8434410" lon="9.2273590">
	<ele>622.40</ele>
	<time>2025-02-15T07:22:18.000Z</time>
</trkpt>
<trkpt lat="45.8434410" lon="9.2273590">
	<ele>622.40</ele>
	<time>2025-02-15T07:22:19.000Z</time>
</trkpt>
<trkpt lat="45.8434410" lon="9.2273590">
	<ele>622.60</ele>
	<time>2025-02-15T07:22:20.000Z</time>
</trkpt>
<trkpt lat="45.8434410" lon="9.2273590">
	<ele>622.60</ele>
	<time>2025-02-15T07:22:21.000Z</time>
</trkpt>
<trkpt lat="45.8434420" lon="9.2273590">
	<ele>622.80</ele>
	<time>2025-02-15T07:22:22.000Z</time>
</trkpt>
<trkpt lat="45.8434450" lon="9.2273590">
	<ele>623.20</ele>
	<time>2025-02-15T07:22:23.000Z</time>
</trkpt>
<trkpt lat="45.8434450" lon="9.2273630">
	<ele>623.40</ele>
	<time>2025-02-15T07:22:24.000Z</time>
</trkpt>
<trkpt lat="45.8434460" lon="9.2273670">
	<ele>623.80</ele>
	<time>2025-02-15T07:22:25.000Z</time>
</trkpt>
<trkpt lat="45.8434500" lon="9.2273760">
	<ele>623.80</ele>
	<time>2025-02-15T07:22:26.000Z</time>
</trkpt>
<trkpt lat="45.8434540" lon="9.2273840">
	<ele>623.80</ele>
	<time>2025-02-15T07:22:27.000Z</time>
</trkpt>
<trkpt lat="45.8434570" lon="9.2273870">
	<ele>624.00</ele>
	<time>2025-02-15T07:22:28.000Z</time>
</trkpt>
<trkpt lat="45.8434580" lon="9.2273890">
	<ele>624.20</ele>
	<time>2025-02-15T07:22:29.000Z</time>
</trkpt>
<trkpt lat="45.8434600" lon="9.2273900">
	<ele>624.20</ele>
	<time>2025-02-15T07:22:30.000Z</time>
</trkpt>
<trkpt lat="45.8434600" lon="9.2273910">
	<ele>624.20</ele>
	<time>2025-02-15T07:22:31.000Z</time>
</trkpt>
<trkpt lat="45.8434610" lon="9.2273940">
	<ele>624.20</ele>
	<time>2025-02-15T07:22:32.000Z</time>
</trkpt>
<trkpt lat="45.8434610" lon="9.2273970">
	<ele>624.40</ele>
	<time>2025-02-15T07:22:33.000Z</time>
</trkpt>
<trkpt lat="45.8434620" lon="9.2273990">
	<ele>624.60</ele>
	<time>2025-02-15T07:22:34.000Z</time>
</trkpt>
<trkpt lat="45.8434630" lon="9.2274000">
	<ele>624.60</ele>
	<time>2025-02-15T07:22:35.000Z</time>
</trkpt>
<trkpt lat="45.8434630" lon="9.2274050">
	<ele>625.00</ele>
	<time>2025-02-15T07:22:36.000Z</time>
</trkpt>
<trkpt lat="45.8434640" lon="9.2274060">
	<ele>625.20</ele>
	<time>2025-02-15T07:22:37.000Z</time>
</trkpt>
<trkpt lat="45.8434660" lon="9.2274080">
	<ele>625.20</ele>
	<time>2025-02-15T07:22:38.000Z</time>
</trkpt>
<trkpt lat="45.8434660" lon="9.2274120">
	<ele>625.40</ele>
	<time>2025-02-15T07:22:39.000Z</time>
</trkpt>
<trkpt lat="45.8434670" lon="9.2274130">
	<ele>625.40</ele>
	<time>2025-02-15T07:22:40.000Z</time>
</trkpt>
<trkpt lat="45.8434680" lon="9.2274140">
	<ele>625.60</ele>
	<time>2025-02-15T07:22:41.000Z</time>
</trkpt>
<trkpt lat="45.8434720" lon="9.2274140">
	<ele>625.60</ele>
	<time>2025-02-15T07:22:42.000Z</time>
</trkpt>
<trkpt lat="45.8434760" lon="9.2274160">
	<ele>625.80</ele>
	<time>2025-02-15T07:22:43.000Z</time>
</trkpt>
<trkpt lat="45.8434780" lon="9.2274170">
	<ele>626.00</ele>
	<time>2025-02-15T07:22:44.000Z</time>
</trkpt>
<trkpt lat="45.8434800" lon="9.2274200">
	<ele>626.20</ele>
	<time>2025-02-15T07:22:45.000Z</time>
</trkpt>
<trkpt lat="45.8434820" lon="9.2274220">
	<ele>626.20</ele>
	<time>2025-02-15T07:22:46.000Z</time>
</trkpt>
<trkpt lat="45.8434820" lon="9.2274280">
	<ele>626.40</ele>
	<time>2025-02-15T07:22:47.000Z</time>
</trkpt>
<trkpt lat="45.8434820" lon="9.2274330">
	<ele>626.40</ele>
	<time>2025-02-15T07:22:48.000Z</time>
</trkpt>
<trkpt lat="45.8434830" lon="9.2274400">
	<ele>626.40</ele>
	<time>2025-02-15T07:22:49.000Z</time>
</trkpt>
<trkpt lat="45.8434840" lon="9.2274460">
	<ele>626.60</ele>
	<time>2025-02-15T07:22:50.000Z</time>
</trkpt>
<trkpt lat="45.8434840" lon="9.2274470">
	<ele>626.80</ele>
	<time>2025-02-15T07:22:51.000Z</time>
</trkpt>
<trkpt lat="45.8434850" lon="9.2274490">
	<ele>627.00</ele>
	<time>2025-02-15T07:22:52.000Z</time>
</trkpt>
<trkpt lat="45.8434850" lon="9.2274490">
	<ele>627.20</ele>
	<time>2025-02-15T07:22:53.000Z</time>
</trkpt>
<trkpt lat="45.8434850" lon="9.2274500">
	<ele>627.20</ele>
	<time>2025-02-15T07:22:54.000Z</time>
</trkpt>
<trkpt lat="45.8434870" lon="9.2274500">
	<ele>627.40</ele>
	<time>2025-02-15T07:22:55.000Z</time>
</trkpt>
<trkpt lat="45.8434880" lon="9.2274500">
	<ele>627.60</ele>
	<time>2025-02-15T07:22:56.000Z</time>
</trkpt>
<trkpt lat="45.8434890" lon="9.2274510">
	<ele>627.80</ele>
	<time>2025-02-15T07:22:57.000Z</time>
</trkpt>
<trkpt lat="45.8434890" lon="9.2274570">
	<ele>628.00</ele>
	<time>2025-02-15T07:22:58.000Z</time>
</trkpt>
<trkpt lat="45.8434890" lon="9.2274650">
	<ele>628.20</ele>
	<time>2025-02-15T07:22:59.000Z</time>
</trkpt>
<trkpt lat="45.8434900" lon="9.2274710">
	<ele>628.40</ele>
	<time>2025-02-15T07:23:00.000Z</time>
</trkpt>
<trkpt lat="45.8434910" lon="9.2274740">
	<ele>628.40</ele>
	<time>2025-02-15T07:23:01.000Z</time>
</trkpt>
<trkpt lat="45.8434920" lon="9.2274810">
	<ele>628.80</ele>
	<time>2025-02-15T07:23:02.000Z</time>
</trkpt>
<trkpt lat="45.8434920" lon="9.2274860">
	<ele>629.00</ele>
	<time>2025-02-15T07:23:03.000Z</time>
</trkpt>
<trkpt lat="45.8434950" lon="9.2274950">
	<ele>629.00</ele>
	<time>2025-02-15T07:23:04.000Z</time>
</trkpt>
<trkpt lat="45.8434960" lon="9.2274990">
	<ele>629.20</ele>
	<time>2025-02-15T07:23:05.000Z</time>
</trkpt>
<trkpt lat="45.8434970" lon="9.2275000">
	<ele>629.40</ele>
	<time>2025-02-15T07:23:06.000Z</time>
</trkpt>
<trkpt lat="45.8435010" lon="9.2275010">
	<ele>629.60</ele>
	<time>2025-02-15T07:23:07.000Z</time>
</trkpt>
<trkpt lat="45.8435030" lon="9.2275020">
	<ele>629.80</ele>
	<time>2025-02-15T07:23:08.000Z</time>
</trkpt>
<trkpt lat="45.8435030" lon="9.2275030">
	<ele>630.00</ele>
	<time>2025-02-15T07:23:09.000Z</time>
</trkpt>
<trkpt lat="45.8435040" lon="9.2275030">
	<ele>630.00</ele>
	<time>2025-02-15T07:23:10.000Z</time>
</trkpt>
<trkpt lat="45.8435050" lon="9.2275030">
	<ele>630.20</ele>
	<time>2025-02-15T07:23:11.000Z</time>
</trkpt>
<trkpt lat="45.8435050" lon="9.2275040">
	<ele>630.40</ele>
	<time>2025-02-15T07:23:12.000Z</time>
</trkpt>
<trkpt lat="45.8435060" lon="9.2275040">
	<ele>630.40</ele>
	<time>2025-02-15T07:23:13.000Z</time>
</trkpt>
<trkpt lat="45.8435070" lon="9.2275050">
	<ele>630.60</ele>
	<time>2025-02-15T07:23:14.000Z</time>
</trkpt>
<trkpt lat="45.8435090" lon="9.2275050">
	<ele>630.60</ele>
	<time>2025-02-15T07:23:15.000Z</time>
</trkpt>
<trkpt lat="45.8435100" lon="9.2275050">
	<ele>630.60</ele>
	<time>2025-02-15T07:23:16.000Z</time>
</trkpt>
<trkpt lat="45.8435110" lon="9.2275070">
	<ele>630.80</ele>
	<time>2025-02-15T07:23:17.000Z</time>
</trkpt>
<trkpt lat="45.8435110" lon="9.2275090">
	<ele>631.00</ele>
	<time>2025-02-15T07:23:18.000Z</time>
</trkpt>
<trkpt lat="45.8435110" lon="9.2275150">
	<ele>631.20</ele>
	<time>2025-02-15T07:23:19.000Z</time>
</trkpt>
<trkpt lat="45.8435120" lon="9.2275170">
	<ele>631.40</ele>
	<time>2025-02-15T07:23:20.000Z</time>
</trkpt>
<trkpt lat="45.8435140" lon="9.2275190">
	<ele>631.60</ele>
	<time>2025-02-15T07:23:21.000Z</time>
</trkpt>
<trkpt lat="45.8435150" lon="9.2275190">
	<ele>631.60</ele>
	<time>2025-02-15T07:23:22.000Z</time>
</trkpt>
<trkpt lat="45.8435150" lon="9.2275190">
	<ele>631.80</ele>
	<time>2025-02-15T07:23:23.000Z</time>
</trkpt>
<trkpt lat="45.8435150" lon="9.2275290">
	<ele>632.00</ele>
	<time>2025-02-15T07:23:24.000Z</time>
</trkpt>
<trkpt lat="45.8435150" lon="9.2275380">
	<ele>632.20</ele>
	<time>2025-02-15T07:23:25.000Z</time>
</trkpt>
<trkpt lat="45.8435160" lon="9.2275440">
	<ele>632.20</ele>
	<time>2025-02-15T07:23:26.000Z</time>
</trkpt>
<trkpt lat="45.8435160" lon="9.2275470">
	<ele>632.40</ele>
	<time>2025-02-15T07:23:27.000Z</time>
</trkpt>
<trkpt lat="45.8435170" lon="9.2275490">
	<ele>632.40</ele>
	<time>2025-02-15T07:23:28.000Z</time>
</trkpt>
<trkpt lat="45.8435170" lon="9.2275490">
	<ele>632.80</ele>
	<time>2025-02-15T07:23:29.000Z</time>
</trkpt>
<trkpt lat="45.8435170" lon="9.2275500">
	<ele>633.00</ele>
	<time>2025-02-15T07:23:30.000Z</time>
</trkpt>
<trkpt lat="45.8435180" lon="9.2275520">
	<ele>633.20</ele>
	<time>2025-02-15T07:23:31.000Z</time>
</trkpt>
<trkpt lat="45.8435180" lon="9.2275550">
	<ele>633.40</ele>
	<time>2025-02-15T07:23:32.000Z</time>
</trkpt>
<trkpt lat="45.8435180" lon="9.2275560">
	<ele>633.40</ele>
	<time>2025-02-15T07:23:33.000Z</time>
</trkpt>
<trkpt lat="45.8435180" lon="9.2275560">
	<ele>633.40</ele>
	<time>2025-02-15T07:23:34.000Z</time>
</trkpt>
<trkpt lat="45.8435180" lon="9.2275570">
	<ele>633.60</ele>
	<time>2025-02-15T07:23:35.000Z</time>
</trkpt>
<trkpt lat="45.8435180" lon="9.2275570">
	<ele>633.80</ele>
	<time>2025-02-15T07:23:36.000Z</time>
</trkpt>
<trkpt lat="45.8435180" lon="9.2275580">
	<ele>633.80</ele>
	<time>2025-02-15T07:23:37.000Z</time>
</trkpt>
<trkpt lat="45.8435190" lon="9.2275590">
	<ele>634.00</ele>
	<time>2025-02-15T07:23:38.000Z</time>
</trkpt>
<trkpt lat="45.8435190" lon="9.2275640">
	<ele>634.00</ele>
	<time>2025-02-15T07:23:39.000Z</time>
</trkpt>
<trkpt lat="45.8435180" lon="9.2275690">
	<ele>634.20</ele>
	<time>2025-02-15T07:23:40.000Z</time>
</trkpt>
<trkpt lat="45.8435180" lon="9.2275770">
	<ele>634.40</ele>
	<time>2025-02-15T07:23:41.000Z</time>
</trkpt>
<trkpt lat="45.8435180" lon="9.2275810">
	<ele>634.60</ele>
	<time>2025-02-15T07:23:42.000Z</time>
</trkpt>
<trkpt lat="45.8435180" lon="9.2275880">
	<ele>634.80</ele>
	<time>2025-02-15T07:23:43.000Z</time>
</trkpt>
<trkpt lat="45.8435180" lon="9.2275920">
	<ele>634.80</ele>
	<time>2025-02-15T07:23:44.000Z</time>
</trkpt>
<trkpt lat="45.8435180" lon="9.2275940">
	<ele>635.00</ele>
	<time>2025-02-15T07:23:45.000Z</time>
</trkpt>
<trkpt lat="45.8435180" lon="9.2275970">
	<ele>635.20</ele>
	<time>2025-02-15T07:23:46.000Z</time>
</trkpt>
<trkpt lat="45.8435180" lon="9.2276000">
	<ele>635.40</ele>
	<time>2025-02-15T07:23:47.000Z</time>
</trkpt>
<trkpt lat="45.8435180" lon="9.2276040">
	<ele>635.40</ele>
	<time>2025-02-15T07:23:48.000Z</time>
</trkpt>
<trkpt lat="45.8435180" lon="9.2276120">
	<ele>635.60</ele>
	<time>2025-02-15T07:23:49.000Z</time>
</trkpt>
<trkpt lat="45.8435180" lon="9.2276200">
	<ele>635.60</ele>
	<time>2025-02-15T07:23:50.000Z</time>
</trkpt>
<trkpt lat="45.8435180" lon="9.2276270">
	<ele>635.60</ele>
	<time>2025-02-15T07:23:51.000Z</time>
</trkpt>
<trkpt lat="45.8435180" lon="9.2276360">
	<ele>635.60</ele>
	<time>2025-02-15T07:23:52.000Z</time>
</trkpt>
<trkpt lat="45.8435180" lon="9.2276490">
	<ele>635.60</ele>
	<time>2025-02-15T07:23:53.000Z</time>
</trkpt>
<trkpt lat="45.8435180" lon="9.2276590">
	<ele>635.80</ele>
	<time>2025-02-15T07:23:54.000Z</time>
</trkpt>
<trkpt lat="45.8435180" lon="9.2276670">
	<ele>635.80</ele>
	<time>2025-02-15T07:23:55.000Z</time>
</trkpt>
<trkpt lat="45.8435180" lon="9.2276730">
	<ele>636.00</ele>
	<time>2025-02-15T07:23:56.000Z</time>
</trkpt>
<trkpt lat="45.8435180" lon="9.2276800">
	<ele>636.20</ele>
	<time>2025-02-15T07:23:57.000Z</time>
</trkpt>
<trkpt lat="45.8435180" lon="9.2276840">
	<ele>636.40</ele>
	<time>2025-02-15T07:23:58.000Z</time>
</trkpt>
<trkpt lat="45.8435180" lon="9.2276880">
	<ele>636.60</ele>
	<time>2025-02-15T07:23:59.000Z</time>
</trkpt>
<trkpt lat="45.8435180" lon="9.2276900">
	<ele>636.80</ele>
	<time>2025-02-15T07:24:00.000Z</time>
</trkpt>
<trkpt lat="45.8435180" lon="9.2276910">
	<ele>636.80</ele>
	<time>2025-02-15T07:24:01.000Z</time>
</trkpt>
<trkpt lat="45.8435180" lon="9.2276920">
	<ele>637.20</ele>
	<time>2025-02-15T07:24:02.000Z</time>
</trkpt>
<trkpt lat="45.8435180" lon="9.2276950">
	<ele>637.40</ele>
	<time>2025-02-15T07:24:03.000Z</time>
</trkpt>
<trkpt lat="45.8435180" lon="9.2277030">
	<ele>637.40</ele>
	<time>2025-02-15T07:24:04.000Z</time>
</trkpt>
<trkpt lat="45.8435200" lon="9.2277140">
	<ele>637.60</ele>
	<time>2025-02-15T07:24:05.000Z</time>
</trkpt>
<trkpt lat="45.8435220" lon="9.2277210">
	<ele>637.80</ele>
	<time>2025-02-15T07:24:06.000Z</time>
</trkpt>
<trkpt lat="45.8435240" lon="9.2277260">
	<ele>637.80</ele>
	<time>2025-02-15T07:24:07.000Z</time>
</trkpt>
<trkpt lat="45.8435250" lon="9.2277290">
	<ele>638.00</ele>
	<time>2025-02-15T07:24:08.000Z</time>
</trkpt>
<trkpt lat="45.8435260" lon="9.2277310">
	<ele>638.20</ele>
	<time>2025-02-15T07:24:09.000Z</time>
</trkpt>
<trkpt lat="45.8435290" lon="9.2277320">
	<ele>638.40</ele>
	<time>2025-02-15T07:24:10.000Z</time>
</trkpt>
<trkpt lat="45.8435350" lon="9.2277330">
	<ele>638.60</ele>
	<time>2025-02-15T07:24:11.000Z</time>
</trkpt>
<trkpt lat="45.8435400" lon="9.2277370">
	<ele>638.80</ele>
	<time>2025-02-15T07:24:12.000Z</time>
</trkpt>
<trkpt lat="45.8435440" lon="9.2277410">
	<ele>638.80</ele>
	<time>2025-02-15T07:24:13.000Z</time>
</trkpt>
<trkpt lat="45.8435480" lon="9.2277440">
	<ele>638.80</ele>
	<time>2025-02-15T07:24:14.000Z</time>
</trkpt>
<trkpt lat="45.8435510" lon="9.2277460">
	<ele>638.80</ele>
	<time>2025-02-15T07:24:15.000Z</time>
</trkpt>
<trkpt lat="45.8435530" lon="9.2277490">
	<ele>638.80</ele>
	<time>2025-02-15T07:24:16.000Z</time>
</trkpt>
<trkpt lat="45.8435550" lon="9.2277510">
	<ele>638.80</ele>
	<time>2025-02-15T07:24:17.000Z</time>
</trkpt>
<trkpt lat="45.8435560" lon="9.2277530">
	<ele>638.80</ele>
	<time>2025-02-15T07:24:18.000Z</time>
</trkpt>
<trkpt lat="45.8435570" lon="9.2277540">
	<ele>638.80</ele>
	<time>2025-02-15T07:24:19.000Z</time>
</trkpt>
<trkpt lat="45.8435580" lon="9.2277550">
	<ele>638.80</ele>
	<time>2025-02-15T07:24:20.000Z</time>
</trkpt>
<trkpt lat="45.8435580" lon="9.2277570">
	<ele>639.00</ele>
	<time>2025-02-15T07:24:21.000Z</time>
</trkpt>
<trkpt lat="45.8435600" lon="9.2277590">
	<ele>639.00</ele>
	<time>2025-02-15T07:24:22.000Z</time>
</trkpt>
<trkpt lat="45.8435620" lon="9.2277620">
	<ele>639.00</ele>
	<time>2025-02-15T07:24:23.000Z</time>
</trkpt>
<trkpt lat="45.8435630" lon="9.2277650">
	<ele>639.00</ele>
	<time>2025-02-15T07:24:24.000Z</time>
</trkpt>
<trkpt lat="45.8435640" lon="9.2277660">
	<ele>639.00</ele>
	<time>2025-02-15T07:24:25.000Z</time>
</trkpt>
<trkpt lat="45.8435640" lon="9.2277670">
	<ele>639.00</ele>
	<time>2025-02-15T07:24:26.000Z</time>
</trkpt>
<trkpt lat="45.8435650" lon="9.2277680">
	<ele>639.00</ele>
	<time>2025-02-15T07:24:27.000Z</time>
</trkpt>
<trkpt lat="45.8435660" lon="9.2277700">
	<ele>639.00</ele>
	<time>2025-02-15T07:24:28.000Z</time>
</trkpt>
<trkpt lat="45.8435660" lon="9.2277710">
	<ele>638.80</ele>
	<time>2025-02-15T07:24:29.000Z</time>
</trkpt>
<trkpt lat="45.8435670" lon="9.2277730">
	<ele>638.80</ele>
	<time>2025-02-15T07:24:30.000Z</time>
</trkpt>
<trkpt lat="45.8435680" lon="9.2277740">
	<ele>638.80</ele>
	<time>2025-02-15T07:24:31.000Z</time>
</trkpt>
<trkpt lat="45.8435690" lon="9.2277760">
	<ele>638.80</ele>
	<time>2025-02-15T07:24:32.000Z</time>
</trkpt>
<trkpt lat="45.8435670" lon="9.2277810">
	<ele>638.80</ele>
	<time>2025-02-15T07:24:33.000Z</time>
</trkpt>
<trkpt lat="45.8435640" lon="9.2277820">
	<ele>638.80</ele>
	<time>2025-02-15T07:24:34.000Z</time>
</trkpt>
<trkpt lat="45.8435620" lon="9.2277880">
	<ele>638.80</ele>
	<time>2025-02-15T07:24:35.000Z</time>
</trkpt>
<trkpt lat="45.8435520" lon="9.2277880">
	<ele>638.80</ele>
	<time>2025-02-15T07:24:36.000Z</time>
</trkpt>
<trkpt lat="45.8435490" lon="9.2277880">
	<ele>638.80</ele>
	<time>2025-02-15T07:24:37.000Z</time>
</trkpt>
<trkpt lat="45.8435580" lon="9.2278070">
	<ele>638.80</ele>
	<time>2025-02-15T07:24:38.000Z</time>
</trkpt>
<trkpt lat="45.8435680" lon="9.2278130">
	<ele>638.60</ele>
	<time>2025-02-15T07:24:39.000Z</time>
</trkpt>
<trkpt lat="45.8435750" lon="9.2278190">
	<ele>638.60</ele>
	<time>2025-02-15T07:24:40.000Z</time>
</trkpt>
<trkpt lat="45.8435740" lon="9.2278230">
	<ele>638.80</ele>
	<time>2025-02-15T07:24:41.000Z</time>
</trkpt>
<trkpt lat="45.8435740" lon="9.2278270">
	<ele>638.80</ele>
	<time>2025-02-15T07:24:42.000Z</time>
</trkpt>
<trkpt lat="45.8435750" lon="9.2278240">
	<ele>638.80</ele>
	<time>2025-02-15T07:24:43.000Z</time>
</trkpt>
<trkpt lat="45.8435750" lon="9.2278200">
	<ele>638.60</ele>
	<time>2025-02-15T07:24:44.000Z</time>
</trkpt>
<trkpt lat="45.8435740" lon="9.2278180">
	<ele>638.80</ele>
	<time>2025-02-15T07:24:45.000Z</time>
</trkpt>
<trkpt lat="45.8435760" lon="9.2278160">
	<ele>638.80</ele>
	<time>2025-02-15T07:24:46.000Z</time>
</trkpt>
<trkpt lat="45.8435780" lon="9.2278150">
	<ele>638.80</ele>
	<time>2025-02-15T07:24:47.000Z</time>
</trkpt>
<trkpt lat="45.8435850" lon="9.2278150">
	<ele>638.80</ele>
	<time>2025-02-15T07:24:48.000Z</time>
</trkpt>
<trkpt lat="45.8435870" lon="9.2278150">
	<ele>638.80</ele>
	<time>2025-02-15T07:24:49.000Z</time>
</trkpt>
<trkpt lat="45.8435890" lon="9.2278170">
	<ele>638.60</ele>
	<time>2025-02-15T07:24:50.000Z</time>
</trkpt>
<trkpt lat="45.8435890" lon="9.2278300">
	<ele>638.60</ele>
	<time>2025-02-15T07:24:51.000Z</time>
</trkpt>
<trkpt lat="45.8436220" lon="9.2278440">
	<ele>638.60</ele>
	<time>2025-02-15T07:24:52.000Z</time>
</trkpt>
<trkpt lat="45.8436310" lon="9.2278440">
	<ele>638.60</ele>
	<time>2025-02-15T07:24:53.000Z</time>
</trkpt>
<trkpt lat="45.8436330" lon="9.2278470">
	<ele>638.60</ele>
	<time>2025-02-15T07:24:54.000Z</time>
</trkpt>
<trkpt lat="45.8436350" lon="9.2278530">
	<ele>638.60</ele>
	<time>2025-02-15T07:24:55.000Z</time>
</trkpt>
<trkpt lat="45.8436440" lon="9.2278630">
	<ele>638.60</ele>
	<time>2025-02-15T07:24:56.000Z</time>
</trkpt>
<trkpt lat="45.8436520" lon="9.2278690">
	<ele>638.60</ele>
	<time>2025-02-15T07:24:57.000Z</time>
</trkpt>
<trkpt lat="45.8436530" lon="9.2278690">
	<ele>638.60</ele>
	<time>2025-02-15T07:24:58.000Z</time>
</trkpt>
<trkpt lat="45.8436510" lon="9.2278670">
	<ele>638.60</ele>
	<time>2025-02-15T07:24:59.000Z</time>
</trkpt>
<trkpt lat="45.8436430" lon="9.2278650">
	<ele>638.60</ele>
	<time>2025-02-15T07:25:00.000Z</time>
</trkpt>
<trkpt lat="45.8436370" lon="9.2278680">
	<ele>638.60</ele>
	<time>2025-02-15T07:25:01.000Z</time>
</trkpt>
<trkpt lat="45.8436320" lon="9.2278600">
	<ele>638.60</ele>
	<time>2025-02-15T07:25:02.000Z</time>
</trkpt>
<trkpt lat="45.8436290" lon="9.2278600">
	<ele>638.60</ele>
	<time>2025-02-15T07:25:03.000Z</time>
</trkpt>
<trkpt lat="45.8436260" lon="9.2278630">
	<ele>638.60</ele>
	<time>2025-02-15T07:25:04.000Z</time>
</trkpt>
<trkpt lat="45.8436250" lon="9.2278650">
	<ele>638.60</ele>
	<time>2025-02-15T07:25:05.000Z</time>
</trkpt>
<trkpt lat="45.8436240" lon="9.2278660">
	<ele>639.00</ele>
	<time>2025-02-15T07:25:06.000Z</time>
</trkpt>
<trkpt lat="45.8436280" lon="9.2278630">
	<ele>639.20</ele>
	<time>2025-02-15T07:25:07.000Z</time>
</trkpt>
<trkpt lat="45.8436340" lon="9.2278660">
	<ele>639.20</ele>
	<time>2025-02-15T07:25:08.000Z</time>
</trkpt>
<trkpt lat="45.8436230" lon="9.2278440">
	<ele>639.20</ele>
	<time>2025-02-15T07:25:09.000Z</time>
</trkpt>
<trkpt lat="45.8436260" lon="9.2278340">
	<ele>639.20</ele>
	<time>2025-02-15T07:25:10.000Z</time>
</trkpt>
<trkpt lat="45.8436260" lon="9.2278330">
	<ele>639.00</ele>
	<time>2025-02-15T07:25:11.000Z</time>
</trkpt>
<trkpt lat="45.8436250" lon="9.2278160">
	<ele>639.00</ele>
	<time>2025-02-15T07:25:12.000Z</time>
</trkpt>
<trkpt lat="45.8436230" lon="9.2278020">
	<ele>638.80</ele>
	<time>2025-02-15T07:25:13.000Z</time>
</trkpt>
<trkpt lat="45.8436230" lon="9.2277960">
	<ele>638.80</ele>
	<time>2025-02-15T07:25:14.000Z</time>
</trkpt>
<trkpt lat="45.8436190" lon="9.2277900">
	<ele>638.80</ele>
	<time>2025-02-15T07:25:15.000Z</time>
</trkpt>
<trkpt lat="45.8436170" lon="9.2277960">
	<ele>639.00</ele>
	<time>2025-02-15T07:25:16.000Z</time>
</trkpt>
<trkpt lat="45.8436210" lon="9.2277980">
	<ele>639.00</ele>
	<time>2025-02-15T07:25:17.000Z</time>
</trkpt>
<trkpt lat="45.8436310" lon="9.2277980">
	<ele>639.00</ele>
	<time>2025-02-15T07:25:18.000Z</time>
</trkpt>
<trkpt lat="45.8436380" lon="9.2278000">
	<ele>639.00</ele>
	<time>2025-02-15T07:25:19.000Z</time>
</trkpt>
<trkpt lat="45.8436390" lon="9.2278010">
	<ele>639.00</ele>
	<time>2025-02-15T07:25:20.000Z</time>
</trkpt>
<trkpt lat="45.8436380" lon="9.2278120">
	<ele>639.20</ele>
	<time>2025-02-15T07:25:21.000Z</time>
</trkpt>
<trkpt lat="45.8436360" lon="9.2278140">
	<ele>639.20</ele>
	<time>2025-02-15T07:25:22.000Z</time>
</trkpt>
<trkpt lat="45.8436340" lon="9.2278140">
	<ele>639.20</ele>
	<time>2025-02-15T07:25:23.000Z</time>
</trkpt>
<trkpt lat="45.8436350" lon="9.2278150">
	<ele>639.20</ele>
	<time>2025-02-15T07:25:24.000Z</time>
</trkpt>
<trkpt lat="45.8436390" lon="9.2278180">
	<ele>639.20</ele>
	<time>2025-02-15T07:25:25.000Z</time>
</trkpt>
<trkpt lat="45.8436380" lon="9.2278150">
	<ele>639.40</ele>
	<time>2025-02-15T07:25:26.000Z</time>
</trkpt>
<trkpt lat="45.8436380" lon="9.2278170">
	<ele>639.60</ele>
	<time>2025-02-15T07:25:27.000Z</time>
</trkpt>
<trkpt lat="45.8436430" lon="9.2278190">
	<ele>639.80</ele>
	<time>2025-02-15T07:25:28.000Z</time>
</trkpt>
<trkpt lat="45.8436340" lon="9.2278310">
	<ele>640.00</ele>
	<time>2025-02-15T07:25:29.000Z</time>
</trkpt>
<trkpt lat="45.8436360" lon="9.2278410">
	<ele>640.20</ele>
	<time>2025-02-15T07:25:30.000Z</time>
</trkpt>
<trkpt lat="45.8436370" lon="9.2278410">
	<ele>640.40</ele>
	<time>2025-02-15T07:25:31.000Z</time>
</trkpt>
<trkpt lat="45.8436390" lon="9.2278420">
	<ele>640.40</ele>
	<time>2025-02-15T07:25:32.000Z</time>
</trkpt>
<trkpt lat="45.8436290" lon="9.2278440">
	<ele>640.40</ele>
	<time>2025-02-15T07:25:33.000Z</time>
</trkpt>
<trkpt lat="45.8436170" lon="9.2278570">
	<ele>640.60</ele>
	<time>2025-02-15T07:25:34.000Z</time>
</trkpt>
<trkpt lat="45.8436070" lon="9.2278640">
	<ele>640.80</ele>
	<time>2025-02-15T07:25:35.000Z</time>
</trkpt>
<trkpt lat="45.8436000" lon="9.2278650">
	<ele>641.00</ele>
	<time>2025-02-15T07:25:36.000Z</time>
</trkpt>
<trkpt lat="45.8435900" lon="9.2278660">
	<ele>641.20</ele>
	<time>2025-02-15T07:25:37.000Z</time>
</trkpt>
<trkpt lat="45.8435870" lon="9.2278680">
	<ele>641.40</ele>
	<time>2025-02-15T07:25:38.000Z</time>
</trkpt>
<trkpt lat="45.8435820" lon="9.2278640">
	<ele>641.40</ele>
	<time>2025-02-15T07:25:39.000Z</time>
</trkpt>
<trkpt lat="45.8435790" lon="9.2278610">
	<ele>641.60</ele>
	<time>2025-02-15T07:25:40.000Z</time>
</trkpt>
<trkpt lat="45.8435810" lon="9.2278560">
	<ele>641.60</ele>
	<time>2025-02-15T07:25:41.000Z</time>
</trkpt>
<trkpt lat="45.8435860" lon="9.2278600">
	<ele>641.60</ele>
	<time>2025-02-15T07:25:42.000Z</time>
</trkpt>
<trkpt lat="45.8435860" lon="9.2278630">
	<ele>642.00</ele>
	<time>2025-02-15T07:25:43.000Z</time>
</trkpt>
<trkpt lat="45.8435760" lon="9.2278670">
	<ele>642.20</ele>
	<time>2025-02-15T07:25:44.000Z</time>
</trkpt>
<trkpt lat="45.8435650" lon="9.2278690">
	<ele>642.40</ele>
	<time>2025-02-15T07:25:45.000Z</time>
</trkpt>
<trkpt lat="45.8435640" lon="9.2278700">
	<ele>642.60</ele>
	<time>2025-02-15T07:25:46.000Z</time>
</trkpt>
<trkpt lat="45.8435630" lon="9.2278730">
	<ele>642.80</ele>
	<time>2025-02-15T07:25:47.000Z</time>
</trkpt>
<trkpt lat="45.8435600" lon="9.2278720">
	<ele>643.00</ele>
	<time>2025-02-15T07:25:48.000Z</time>
</trkpt>
<trkpt lat="45.8435610" lon="9.2278710">
	<ele>643.00</ele>
	<time>2025-02-15T07:25:49.000Z</time>
</trkpt>
<trkpt lat="45.8435640" lon="9.2278770">
	<ele>643.20</ele>
	<time>2025-02-15T07:25:50.000Z</time>
</trkpt>
<trkpt lat="45.8435680" lon="9.2278770">
	<ele>643.40</ele>
	<time>2025-02-15T07:25:51.000Z</time>
</trkpt>
<trkpt lat="45.8435700" lon="9.2278740">
	<ele>643.40</ele>
	<time>2025-02-15T07:25:52.000Z</time>
</trkpt>
<trkpt lat="45.8435770" lon="9.2278750">
	<ele>643.60</ele>
	<time>2025-02-15T07:25:53.000Z</time>
</trkpt>
<trkpt lat="45.8435770" lon="9.2278790">
	<ele>643.60</ele>
	<time>2025-02-15T07:25:54.000Z</time>
</trkpt>
<trkpt lat="45.8435730" lon="9.2278770">
	<ele>643.60</ele>
	<time>2025-02-15T07:25:55.000Z</time>
</trkpt>
<trkpt lat="45.8435720" lon="9.2278750">
	<ele>643.80</ele>
	<time>2025-02-15T07:25:56.000Z</time>
</trkpt>
<trkpt lat="45.8435690" lon="9.2278760">
	<ele>643.80</ele>
	<time>2025-02-15T07:25:57.000Z</time>
</trkpt>
<trkpt lat="45.8435640" lon="9.2278860">
	<ele>644.00</ele>
	<time>2025-02-15T07:25:58.000Z</time>
</trkpt>
<trkpt lat="45.8435580" lon="9.2278870">
	<ele>644.20</ele>
	<time>2025-02-15T07:25:59.000Z</time>
</trkpt>
<trkpt lat="45.8435530" lon="9.2278870">
	<ele>644.40</ele>
	<time>2025-02-15T07:26:00.000Z</time>
</trkpt>
<trkpt lat="45.8435490" lon="9.2278880">
	<ele>644.60</ele>
	<time>2025-02-15T07:26:01.000Z</time>
</trkpt>
<trkpt lat="45.8435500" lon="9.2278960">
	<ele>644.80</ele>
	<time>2025-02-15T07:26:02.000Z</time>
</trkpt>
<trkpt lat="45.8435510" lon="9.2278980">
	<ele>644.80</ele>
	<time>2025-02-15T07:26:03.000Z</time>
</trkpt>
<trkpt lat="45.8435540" lon="9.2279100">
	<ele>644.80</ele>
	<time>2025-02-15T07:26:04.000Z</time>
</trkpt>
<trkpt lat="45.8435540" lon="9.2279190">
	<ele>644.80</ele>
	<time>2025-02-15T07:26:05.000Z</time>
</trkpt>
<trkpt lat="45.8435630" lon="9.2279230">
	<ele>645.00</ele>
	<time>2025-02-15T07:26:06.000Z</time>
</trkpt>
<trkpt lat="45.8435630" lon="9.2279430">
	<ele>645.20</ele>
	<time>2025-02-15T07:26:07.000Z</time>
</trkpt>
<trkpt lat="45.8435670" lon="9.2279480">
	<ele>645.20</ele>
	<time>2025-02-15T07:26:08.000Z</time>
</trkpt>
<trkpt lat="45.8435690" lon="9.2279450">
	<ele>645.80</ele>
	<time>2025-02-15T07:26:09.000Z</time>
</trkpt>
<trkpt lat="45.8435680" lon="9.2279410">
	<ele>646.00</ele>
	<time>2025-02-15T07:26:10.000Z</time>
</trkpt>
<trkpt lat="45.8435710" lon="9.2279370">
	<ele>646.20</ele>
	<time>2025-02-15T07:26:11.000Z</time>
</trkpt>
<trkpt lat="45.8435690" lon="9.2279330">
	<ele>646.20</ele>
	<time>2025-02-15T07:26:12.000Z</time>
</trkpt>
<trkpt lat="45.8435660" lon="9.2279340">
	<ele>646.20</ele>
	<time>2025-02-15T07:26:13.000Z</time>
</trkpt>
<trkpt lat="45.8435670" lon="9.2279340">
	<ele>646.20</ele>
	<time>2025-02-15T07:26:14.000Z</time>
</trkpt>
<trkpt lat="45.8435680" lon="9.2279330">
	<ele>646.40</ele>
	<time>2025-02-15T07:26:15.000Z</time>
</trkpt>
<trkpt lat="45.8435730" lon="9.2279410">
	<ele>646.60</ele>
	<time>2025-02-15T07:26:16.000Z</time>
</trkpt>
<trkpt lat="45.8435740" lon="9.2279400">
	<ele>646.80</ele>
	<time>2025-02-15T07:26:17.000Z</time>
</trkpt>
<trkpt lat="45.8435740" lon="9.2279400">
	<ele>646.80</ele>
	<time>2025-02-15T07:26:18.000Z</time>
</trkpt>
<trkpt lat="45.8435740" lon="9.2279400">
	<ele>647.00</ele>
	<time>2025-02-15T07:26:19.000Z</time>
</trkpt>
<trkpt lat="45.8435740" lon="9.2279400">
	<ele>647.00</ele>
	<time>2025-02-15T07:26:20.000Z</time>
</trkpt>
<trkpt lat="45.8435740" lon="9.2279400">
	<ele>647.00</ele>
	<time>2025-02-15T07:26:21.000Z</time>
</trkpt>
<trkpt lat="45.8435740" lon="9.2279400">
	<ele>647.00</ele>
	<time>2025-02-15T07:26:22.000Z</time>
</trkpt>
<trkpt lat="45.8435740" lon="9.2279400">
	<ele>647.20</ele>
	<time>2025-02-15T07:26:23.000Z</time>
</trkpt>
<trkpt lat="45.8435740" lon="9.2279400">
	<ele>647.40</ele>
	<time>2025-02-15T07:26:24.000Z</time>
</trkpt>
<trkpt lat="45.8435740" lon="9.2279400">
	<ele>647.80</ele>
	<time>2025-02-15T07:26:25.000Z</time>
</trkpt>
<trkpt lat="45.8435740" lon="9.2279400">
	<ele>648.00</ele>
	<time>2025-02-15T07:26:26.000Z</time>
</trkpt>
<trkpt lat="45.8435740" lon="9.2279400">
	<ele>648.20</ele>
	<time>2025-02-15T07:26:27.000Z</time>
</trkpt>
<trkpt lat="45.8435740" lon="9.2279400">
	<ele>648.20</ele>
	<time>2025-02-15T07:26:28.000Z</time>
</trkpt>
<trkpt lat="45.8435740" lon="9.2279400">
	<ele>648.40</ele>
	<time>2025-02-15T07:26:29.000Z</time>
</trkpt>
<trkpt lat="45.8435740" lon="9.2279410">
	<ele>648.40</ele>
	<time>2025-02-15T07:26:30.000Z</time>
</trkpt>
<trkpt lat="45.8435740" lon="9.2279410">
	<ele>648.60</ele>
	<time>2025-02-15T07:26:31.000Z</time>
</trkpt>
<trkpt lat="45.8435740" lon="9.2279440">
	<ele>648.60</ele>
	<time>2025-02-15T07:26:32.000Z</time>
</trkpt>
<trkpt lat="45.8435740" lon="9.2279460">
	<ele>648.80</ele>
	<time>2025-02-15T07:26:33.000Z</time>
</trkpt>
<trkpt lat="45.8435740" lon="9.2279500">
	<ele>649.00</ele>
	<time>2025-02-15T07:26:34.000Z</time>
</trkpt>
<trkpt lat="45.8435740" lon="9.2279620">
	<ele>649.20</ele>
	<time>2025-02-15T07:26:35.000Z</time>
</trkpt>
<trkpt lat="45.8435740" lon="9.2279650">
	<ele>649.40</ele>
	<time>2025-02-15T07:26:36.000Z</time>
</trkpt>
<trkpt lat="45.8435740" lon="9.2279660">
	<ele>649.40</ele>
	<time>2025-02-15T07:26:37.000Z</time>
</trkpt>
<trkpt lat="45.8435740" lon="9.2279670">
	<ele>649.40</ele>
	<time>2025-02-15T07:26:38.000Z</time>
</trkpt>
<trkpt lat="45.8435740" lon="9.2279760">
	<ele>649.60</ele>
	<time>2025-02-15T07:26:39.000Z</time>
</trkpt>
<trkpt lat="45.8435740" lon="9.2279770">
	<ele>649.60</ele>
	<time>2025-02-15T07:26:40.000Z</time>
</trkpt>
<trkpt lat="45.8435750" lon="9.2279820">
	<ele>649.80</ele>
	<time>2025-02-15T07:26:41.000Z</time>
</trkpt>
<trkpt lat="45.8435760" lon="9.2279830">
	<ele>649.80</ele>
	<time>2025-02-15T07:26:42.000Z</time>
</trkpt>
<trkpt lat="45.8435760" lon="9.2279830">
	<ele>650.00</ele>
	<time>2025-02-15T07:26:43.000Z</time>
</trkpt>
<trkpt lat="45.8435760" lon="9.2279840">
	<ele>650.20</ele>
	<time>2025-02-15T07:26:44.000Z</time>
</trkpt>
<trkpt lat="45.8435780" lon="9.2279870">
	<ele>650.40</ele>
	<time>2025-02-15T07:26:45.000Z</time>
</trkpt>
<trkpt lat="45.8435780" lon="9.2279940">
	<ele>650.60</ele>
	<time>2025-02-15T07:26:46.000Z</time>
</trkpt>
<trkpt lat="45.8435780" lon="9.2279980">
	<ele>650.80</ele>
	<time>2025-02-15T07:26:47.000Z</time>
</trkpt>
<trkpt lat="45.8435800" lon="9.2280010">
	<ele>650.80</ele>
	<time>2025-02-15T07:26:48.000Z</time>
</trkpt>
<trkpt lat="45.8435810" lon="9.2280020">
	<ele>651.00</ele>
	<time>2025-02-15T07:26:49.000Z</time>
</trkpt>
<trkpt lat="45.8435830" lon="9.2280090">
	<ele>651.20</ele>
	<time>2025-02-15T07:26:50.000Z</time>
</trkpt>
<trkpt lat="45.8435830" lon="9.2280100">
	<ele>651.20</ele>
	<time>2025-02-15T07:26:51.000Z</time>
</trkpt>
<trkpt lat="45.8435860" lon="9.2280180">
	<ele>651.20</ele>
	<time>2025-02-15T07:26:52.000Z</time>
</trkpt>
<trkpt lat="45.8435910" lon="9.2280250">
	<ele>651.40</ele>
	<time>2025-02-15T07:26:53.000Z</time>
</trkpt>
<trkpt lat="45.8435980" lon="9.2280350">
	<ele>651.40</ele>
	<time>2025-02-15T07:26:54.000Z</time>
</trkpt>
<trkpt lat="45.8436000" lon="9.2280400">
	<ele>651.40</ele>
	<time>2025-02-15T07:26:55.000Z</time>
</trkpt>
<trkpt lat="45.8436030" lon="9.2280490">
	<ele>651.80</ele>
	<time>2025-02-15T07:26:56.000Z</time>
</trkpt>
<trkpt lat="45.8436060" lon="9.2280620">
	<ele>652.00</ele>
	<time>2025-02-15T07:26:57.000Z</time>
</trkpt>
<trkpt lat="45.8436080" lon="9.2280820">
	<ele>652.20</ele>
	<time>2025-02-15T07:26:58.000Z</time>
</trkpt>
<trkpt lat="45.8436080" lon="9.2280990">
	<ele>652.40</ele>
	<time>2025-02-15T07:26:59.000Z</time>
</trkpt>
<trkpt lat="45.8436100" lon="9.2281150">
	<ele>652.40</ele>
	<time>2025-02-15T07:27:00.000Z</time>
</trkpt>
<trkpt lat="45.8436170" lon="9.2281360">
	<ele>652.40</ele>
	<time>2025-02-15T07:27:01.000Z</time>
</trkpt>
<trkpt lat="45.8436250" lon="9.2281520">
	<ele>652.60</ele>
	<time>2025-02-15T07:27:02.000Z</time>
</trkpt>
<trkpt lat="45.8436300" lon="9.2281710">
	<ele>652.80</ele>
	<time>2025-02-15T07:27:03.000Z</time>
</trkpt>
<trkpt lat="45.8436290" lon="9.2281840">
	<ele>652.80</ele>
	<time>2025-02-15T07:27:04.000Z</time>
</trkpt>
<trkpt lat="45.8436260" lon="9.2281980">
	<ele>653.00</ele>
	<time>2025-02-15T07:27:05.000Z</time>
</trkpt>
<trkpt lat="45.8436240" lon="9.2282030">
	<ele>653.00</ele>
	<time>2025-02-15T07:27:06.000Z</time>
</trkpt>
<trkpt lat="45.8436230" lon="9.2282080">
	<ele>653.40</ele>
	<time>2025-02-15T07:27:07.000Z</time>
</trkpt>
<trkpt lat="45.8436220" lon="9.2282110">
	<ele>653.60</ele>
	<time>2025-02-15T07:27:08.000Z</time>
</trkpt>
<trkpt lat="45.8436250" lon="9.2282180">
	<ele>653.80</ele>
	<time>2025-02-15T07:27:09.000Z</time>
</trkpt>
<trkpt lat="45.8436290" lon="9.2282400">
	<ele>654.00</ele>
	<time>2025-02-15T07:27:10.000Z</time>
</trkpt>
<trkpt lat="45.8436270" lon="9.2282420">
	<ele>654.00</ele>
	<time>2025-02-15T07:27:11.000Z</time>
</trkpt>
<trkpt lat="45.8436310" lon="9.2282360">
	<ele>654.20</ele>
	<time>2025-02-15T07:27:12.000Z</time>
</trkpt>
<trkpt lat="45.8436270" lon="9.2282360">
	<ele>654.40</ele>
	<time>2025-02-15T07:27:13.000Z</time>
</trkpt>
<trkpt lat="45.8436150" lon="9.2282420">
	<ele>654.60</ele>
	<time>2025-02-15T07:27:14.000Z</time>
</trkpt>
<trkpt lat="45.8436070" lon="9.2282520">
	<ele>654.80</ele>
	<time>2025-02-15T07:27:15.000Z</time>
</trkpt>
<trkpt lat="45.8436070" lon="9.2282540">
	<ele>654.80</ele>
	<time>2025-02-15T07:27:16.000Z</time>
</trkpt>
<trkpt lat="45.8436080" lon="9.2282590">
	<ele>654.80</ele>
	<time>2025-02-15T07:27:17.000Z</time>
</trkpt>
<trkpt lat="45.8436130" lon="9.2282570">
	<ele>655.00</ele>
	<time>2025-02-15T07:27:18.000Z</time>
</trkpt>
<trkpt lat="45.8436150" lon="9.2282560">
	<ele>655.20</ele>
	<time>2025-02-15T07:27:19.000Z</time>
</trkpt>
<trkpt lat="45.8436170" lon="9.2282550">
	<ele>655.40</ele>
	<time>2025-02-15T07:27:20.000Z</time>
</trkpt>
<trkpt lat="45.8436240" lon="9.2282500">
	<ele>655.40</ele>
	<time>2025-02-15T07:27:21.000Z</time>
</trkpt>
<trkpt lat="45.8436250" lon="9.2282470">
	<ele>655.60</ele>
	<time>2025-02-15T07:27:22.000Z</time>
</trkpt>
<trkpt lat="45.8436270" lon="9.2282450">
	<ele>655.80</ele>
	<time>2025-02-15T07:27:23.000Z</time>
</trkpt>
<trkpt lat="45.8436320" lon="9.2282420">
	<ele>656.00</ele>
	<time>2025-02-15T07:27:24.000Z</time>
</trkpt>
<trkpt lat="45.8436320" lon="9.2282350">
	<ele>656.00</ele>
	<time>2025-02-15T07:27:25.000Z</time>
</trkpt>
<trkpt lat="45.8436280" lon="9.2282350">
	<ele>656.20</ele>
	<time>2025-02-15T07:27:26.000Z</time>
</trkpt>
<trkpt lat="45.8436270" lon="9.2282390">
	<ele>656.20</ele>
	<time>2025-02-15T07:27:27.000Z</time>
</trkpt>
<trkpt lat="45.8436370" lon="9.2282420">
	<ele>656.40</ele>
	<time>2025-02-15T07:27:28.000Z</time>
</trkpt>
<trkpt lat="45.8436480" lon="9.2282460">
	<ele>656.60</ele>
	<time>2025-02-15T07:27:29.000Z</time>
</trkpt>
<trkpt lat="45.8436540" lon="9.2282530">
	<ele>656.80</ele>
	<time>2025-02-15T07:27:30.000Z</time>
</trkpt>
<trkpt lat="45.8436630" lon="9.2282580">
	<ele>657.00</ele>
	<time>2025-02-15T07:27:31.000Z</time>
</trkpt>
<trkpt lat="45.8436700" lon="9.2282600">
	<ele>657.00</ele>
	<time>2025-02-15T07:27:32.000Z</time>
</trkpt>
<trkpt lat="45.8436810" lon="9.2282620">
	<ele>657.20</ele>
	<time>2025-02-15T07:27:33.000Z</time>
</trkpt>
<trkpt lat="45.8436880" lon="9.2282600">
	<ele>657.40</ele>
	<time>2025-02-15T07:27:34.000Z</time>
</trkpt>
<trkpt lat="45.8436970" lon="9.2282540">
	<ele>657.40</ele>
	<time>2025-02-15T07:27:35.000Z</time>
</trkpt>
<trkpt lat="45.8437020" lon="9.2282510">
	<ele>657.40</ele>
	<time>2025-02-15T07:27:36.000Z</time>
</trkpt>
<trkpt lat="45.8437050" lon="9.2282460">
	<ele>657.40</ele>
	<time>2025-02-15T07:27:37.000Z</time>
</trkpt>
<trkpt lat="45.8437070" lon="9.2282480">
	<ele>657.40</ele>
	<time>2025-02-15T07:27:38.000Z</time>
</trkpt>
<trkpt lat="45.8436990" lon="9.2282510">
	<ele>657.40</ele>
	<time>2025-02-15T07:27:39.000Z</time>
</trkpt>
<trkpt lat="45.8437070" lon="9.2282490">
	<ele>657.40</ele>
	<time>2025-02-15T07:27:40.000Z</time>
</trkpt>
<trkpt lat="45.8437170" lon="9.2282400">
	<ele>657.40</ele>
	<time>2025-02-15T07:27:41.000Z</time>
</trkpt>
<trkpt lat="45.8437210" lon="9.2282350">
	<ele>657.40</ele>
	<time>2025-02-15T07:27:42.000Z</time>
</trkpt>
<trkpt lat="45.8437230" lon="9.2282310">
	<ele>657.60</ele>
	<time>2025-02-15T07:27:43.000Z</time>
</trkpt>
<trkpt lat="45.8437290" lon="9.2282330">
	<ele>657.80</ele>
	<time>2025-02-15T07:27:44.000Z</time>
</trkpt>
<trkpt lat="45.8437250" lon="9.2282410">
	<ele>657.80</ele>
	<time>2025-02-15T07:27:45.000Z</time>
</trkpt>
<trkpt lat="45.8437190" lon="9.2282500">
	<ele>657.60</ele>
	<time>2025-02-15T07:27:46.000Z</time>
</trkpt>
<trkpt lat="45.8437160" lon="9.2282620">
	<ele>657.60</ele>
	<time>2025-02-15T07:27:47.000Z</time>
</trkpt>
<trkpt lat="45.8437160" lon="9.2282770">
	<ele>657.60</ele>
	<time>2025-02-15T07:27:48.000Z</time>
</trkpt>
<trkpt lat="45.8437150" lon="9.2282910">
	<ele>657.60</ele>
	<time>2025-02-15T07:27:49.000Z</time>
</trkpt>
<trkpt lat="45.8437120" lon="9.2282960">
	<ele>657.60</ele>
	<time>2025-02-15T07:27:50.000Z</time>
</trkpt>
<trkpt lat="45.8437120" lon="9.2283000">
	<ele>657.80</ele>
	<time>2025-02-15T07:27:51.000Z</time>
</trkpt>
<trkpt lat="45.8437110" lon="9.2283010">
	<ele>657.80</ele>
	<time>2025-02-15T07:27:52.000Z</time>
</trkpt>
<trkpt lat="45.8437080" lon="9.2283030">
	<ele>657.80</ele>
	<time>2025-02-15T07:27:53.000Z</time>
</trkpt>
<trkpt lat="45.8437070" lon="9.2283050">
	<ele>657.80</ele>
	<time>2025-02-15T07:27:54.000Z</time>
</trkpt>
<trkpt lat="45.8437070" lon="9.2283070">
	<ele>657.80</ele>
	<time>2025-02-15T07:27:55.000Z</time>
</trkpt>
<trkpt lat="45.8437140" lon="9.2282990">
	<ele>657.80</ele>
	<time>2025-02-15T07:27:56.000Z</time>
</trkpt>
<trkpt lat="45.8437190" lon="9.2282960">
	<ele>657.60</ele>
	<time>2025-02-15T07:27:57.000Z</time>
</trkpt>
<trkpt lat="45.8437200" lon="9.2282910">
	<ele>657.60</ele>
	<time>2025-02-15T07:27:58.000Z</time>
</trkpt>
<trkpt lat="45.8437210" lon="9.2282870">
	<ele>657.40</ele>
	<time>2025-02-15T07:27:59.000Z</time>
</trkpt>
<trkpt lat="45.8437160" lon="9.2282880">
	<ele>657.40</ele>
	<time>2025-02-15T07:28:00.000Z</time>
</trkpt>
<trkpt lat="45.8437170" lon="9.2282840">
	<ele>657.40</ele>
	<time>2025-02-15T07:28:01.000Z</time>
</trkpt>
<trkpt lat="45.8437150" lon="9.2282780">
	<ele>657.40</ele>
	<time>2025-02-15T07:28:02.000Z</time>
</trkpt>
<trkpt lat="45.8437180" lon="9.2282730">
	<ele>657.40</ele>
	<time>2025-02-15T07:28:03.000Z</time>
</trkpt>
<trkpt lat="45.8437210" lon="9.2282680">
	<ele>657.40</ele>
	<time>2025-02-15T07:28:04.000Z</time>
</trkpt>
<trkpt lat="45.8437320" lon="9.2282620">
	<ele>657.40</ele>
	<time>2025-02-15T07:28:05.000Z</time>
</trkpt>
<trkpt lat="45.8437350" lon="9.2282580">
	<ele>657.20</ele>
	<time>2025-02-15T07:28:06.000Z</time>
</trkpt>
<trkpt lat="45.8437360" lon="9.2282570">
	<ele>657.20</ele>
	<time>2025-02-15T07:28:07.000Z</time>
</trkpt>
<trkpt lat="45.8437360" lon="9.2282480">
	<ele>657.20</ele>
	<time>2025-02-15T07:28:08.000Z</time>
</trkpt>
<trkpt lat="45.8437370" lon="9.2282410">
	<ele>657.40</ele>
	<time>2025-02-15T07:28:09.000Z</time>
</trkpt>
<trkpt lat="45.8437410" lon="9.2282580">
	<ele>657.40</ele>
	<time>2025-02-15T07:28:10.000Z</time>
</trkpt>
<trkpt lat="45.8437440" lon="9.2282690">
	<ele>657.60</ele>
	<time>2025-02-15T07:28:11.000Z</time>
</trkpt>
<trkpt lat="45.8437420" lon="9.2282800">
	<ele>657.80</ele>
	<time>2025-02-15T07:28:12.000Z</time>
</trkpt>
<trkpt lat="45.8437410" lon="9.2282890">
	<ele>658.00</ele>
	<time>2025-02-15T07:28:13.000Z</time>
</trkpt>
<trkpt lat="45.8437400" lon="9.2282940">
	<ele>658.20</ele>
	<time>2025-02-15T07:28:14.000Z</time>
</trkpt>
<trkpt lat="45.8437390" lon="9.2283040">
	<ele>658.20</ele>
	<time>2025-02-15T07:28:15.000Z</time>
</trkpt>
<trkpt lat="45.8437420" lon="9.2283120">
	<ele>658.40</ele>
	<time>2025-02-15T07:28:16.000Z</time>
</trkpt>
<trkpt lat="45.8437470" lon="9.2283160">
	<ele>658.40</ele>
	<time>2025-02-15T07:28:17.000Z</time>
</trkpt>
<trkpt lat="45.8437570" lon="9.2283130">
	<ele>658.60</ele>
	<time>2025-02-15T07:28:18.000Z</time>
</trkpt>
<trkpt lat="45.8437600" lon="9.2283080">
	<ele>658.80</ele>
	<time>2025-02-15T07:28:19.000Z</time>
</trkpt>
<trkpt lat="45.8437630" lon="9.2283050">
	<ele>659.00</ele>
	<time>2025-02-15T07:28:20.000Z</time>
</trkpt>
<trkpt lat="45.8437630" lon="9.2283020">
	<ele>659.00</ele>
	<time>2025-02-15T07:28:21.000Z</time>
</trkpt>
<trkpt lat="45.8437600" lon="9.2283010">
	<ele>659.20</ele>
	<time>2025-02-15T07:28:22.000Z</time>
</trkpt>
<trkpt lat="45.8437640" lon="9.2283060">
	<ele>659.20</ele>
	<time>2025-02-15T07:28:23.000Z</time>
</trkpt>
<trkpt lat="45.8437650" lon="9.2283110">
	<ele>659.20</ele>
	<time>2025-02-15T07:28:24.000Z</time>
</trkpt>
<trkpt lat="45.8437690" lon="9.2283150">
	<ele>659.20</ele>
	<time>2025-02-15T07:28:25.000Z</time>
</trkpt>
<trkpt lat="45.8437720" lon="9.2283130">
	<ele>659.40</ele>
	<time>2025-02-15T07:28:26.000Z</time>
</trkpt>
<trkpt lat="45.8437780" lon="9.2283150">
	<ele>659.40</ele>
	<time>2025-02-15T07:28:27.000Z</time>
</trkpt>
<trkpt lat="45.8437660" lon="9.2282950">
	<ele>659.40</ele>
	<time>2025-02-15T07:28:28.000Z</time>
</trkpt>
<trkpt lat="45.8437670" lon="9.2282960">
	<ele>659.40</ele>
	<time>2025-02-15T07:28:29.000Z</time>
</trkpt>
<trkpt lat="45.8437670" lon="9.2282940">
	<ele>659.40</ele>
	<time>2025-02-15T07:28:30.000Z</time>
</trkpt>
<trkpt lat="45.8437650" lon="9.2283140">
	<ele>659.40</ele>
	<time>2025-02-15T07:28:31.000Z</time>
</trkpt>
<trkpt lat="45.8437590" lon="9.2283400">
	<ele>659.40</ele>
	<time>2025-02-15T07:28:32.000Z</time>
</trkpt>
<trkpt lat="45.8437510" lon="9.2283620">
	<ele>659.40</ele>
	<time>2025-02-15T07:28:33.000Z</time>
</trkpt>
<trkpt lat="45.8437480" lon="9.2283620">
	<ele>659.40</ele>
	<time>2025-02-15T07:28:34.000Z</time>
</trkpt>
<trkpt lat="45.8437490" lon="9.2283590">
	<ele>659.40</ele>
	<time>2025-02-15T07:28:35.000Z</time>
</trkpt>
<trkpt lat="45.8437460" lon="9.2283590">
	<ele>659.40</ele>
	<time>2025-02-15T07:28:36.000Z</time>
</trkpt>
<trkpt lat="45.8437460" lon="9.2283650">
	<ele>659.40</ele>
	<time>2025-02-15T07:28:37.000Z</time>
</trkpt>
<trkpt lat="45.8437460" lon="9.2283670">
	<ele>659.40</ele>
	<time>2025-02-15T07:28:38.000Z</time>
</trkpt>
<trkpt lat="45.8437440" lon="9.2283570">
	<ele>659.40</ele>
	<time>2025-02-15T07:28:39.000Z</time>
</trkpt>
<trkpt lat="45.8437470" lon="9.2283500">
	<ele>659.20</ele>
	<time>2025-02-15T07:28:40.000Z</time>
</trkpt>
<trkpt lat="45.8437530" lon="9.2283460">
	<ele>659.20</ele>
	<time>2025-02-15T07:28:41.000Z</time>
</trkpt>
<trkpt lat="45.8437620" lon="9.2283470">
	<ele>659.20</ele>
	<time>2025-02-15T07:28:42.000Z</time>
</trkpt>
<trkpt lat="45.8437460" lon="9.2283460">
	<ele>659.20</ele>
	<time>2025-02-15T07:28:43.000Z</time>
</trkpt>
<trkpt lat="45.8437420" lon="9.2283480">
	<ele>659.20</ele>
	<time>2025-02-15T07:28:44.000Z</time>
</trkpt>
<trkpt lat="45.8437330" lon="9.2283440">
	<ele>659.20</ele>
	<time>2025-02-15T07:28:45.000Z</time>
</trkpt>
<trkpt lat="45.8437260" lon="9.2283450">
	<ele>659.20</ele>
	<time>2025-02-15T07:28:46.000Z</time>
</trkpt>
<trkpt lat="45.8437230" lon="9.2283470">
	<ele>659.20</ele>
	<time>2025-02-15T07:28:47.000Z</time>
</trkpt>
<trkpt lat="45.8437260" lon="9.2283500">
	<ele>659.20</ele>
	<time>2025-02-15T07:28:48.000Z</time>
</trkpt>
<trkpt lat="45.8437270" lon="9.2283530">
	<ele>659.20</ele>
	<time>2025-02-15T07:28:49.000Z</time>
</trkpt>
<trkpt lat="45.8437290" lon="9.2283550">
	<ele>659.20</ele>
	<time>2025-02-15T07:28:50.000Z</time>
</trkpt>
<trkpt lat="45.8437320" lon="9.2283590">
	<ele>659.20</ele>
	<time>2025-02-15T07:28:51.000Z</time>
</trkpt>
<trkpt lat="45.8437370" lon="9.2283530">
	<ele>659.20</ele>
	<time>2025-02-15T07:28:52.000Z</time>
</trkpt>
<trkpt lat="45.8437450" lon="9.2283450">
	<ele>659.40</ele>
	<time>2025-02-15T07:28:53.000Z</time>
</trkpt>
<trkpt lat="45.8437470" lon="9.2283520">
	<ele>659.40</ele>
	<time>2025-02-15T07:28:54.000Z</time>
</trkpt>
<trkpt lat="45.8437460" lon="9.2283250">
	<ele>659.40</ele>
	<time>2025-02-15T07:28:55.000Z</time>
</trkpt>
<trkpt lat="45.8437350" lon="9.2283110">
	<ele>659.40</ele>
	<time>2025-02-15T07:28:56.000Z</time>
</trkpt>
<trkpt lat="45.8437240" lon="9.2282870">
	<ele>659.20</ele>
	<time>2025-02-15T07:28:57.000Z</time>
</trkpt>
<trkpt lat="45.8437200" lon="9.2282930">
	<ele>657.60</ele>
	<time>2025-02-15T07:28:58.000Z</time>
</trkpt>
<trkpt lat="45.8437210" lon="9.2282960">
	<ele>657.60</ele>
	<time>2025-02-15T07:28:59.000Z</time>
</trkpt>
<trkpt lat="45.8437220" lon="9.2282940">
	<ele>657.60</ele>
	<time>2025-02-15T07:29:00.000Z</time>
</trkpt>
<trkpt lat="45.8437220" lon="9.2282900">
	<ele>657.60</ele>
	<time>2025-02-15T07:29:01.000Z</time>
</trkpt>
<trkpt lat="45.8437220" lon="9.2282830">
	<ele>658.60</ele>
	<time>2025-02-15T07:29:02.000Z</time>
</trkpt>
<trkpt lat="45.8437210" lon="9.2282820">
	<ele>659.00</ele>
	<time>2025-02-15T07:29:03.000Z</time>
</trkpt>
<trkpt lat="45.8437150" lon="9.2282740">
	<ele>659.20</ele>
	<time>2025-02-15T07:29:04.000Z</time>
</trkpt>
<trkpt lat="45.8437160" lon="9.2282730">
	<ele>659.40</ele>
	<time>2025-02-15T07:29:05.000Z</time>
</trkpt>
<trkpt lat="45.8437110" lon="9.2282530">
	<ele>659.40</ele>
	<time>2025-02-15T07:29:06.000Z</time>
</trkpt>
<trkpt lat="45.8437030" lon="9.2282400">
	<ele>659.60</ele>
	<time>2025-02-15T07:29:07.000Z</time>
</trkpt>
<trkpt lat="45.8437050" lon="9.2282470">
	<ele>659.60</ele>
	<time>2025-02-15T07:29:08.000Z</time>
</trkpt>
<trkpt lat="45.8437130" lon="9.2282550">
	<ele>659.60</ele>
	<time>2025-02-15T07:29:09.000Z</time>
</trkpt>
<trkpt lat="45.8437210" lon="9.2282630">
	<ele>659.60</ele>
	<time>2025-02-15T07:29:10.000Z</time>
</trkpt>
<trkpt lat="45.8437290" lon="9.2282720">
	<ele>659.60</ele>
	<time>2025-02-15T07:29:11.000Z</time>
</trkpt>
<trkpt lat="45.8437350" lon="9.2282820">
	<ele>659.60</ele>
	<time>2025-02-15T07:29:12.000Z</time>
</trkpt>
<trkpt lat="45.8437360" lon="9.2282670">
	<ele>659.60</ele>
	<time>2025-02-15T07:29:13.000Z</time>
</trkpt>
<trkpt lat="45.8437380" lon="9.2282660">
	<ele>659.60</ele>
	<time>2025-02-15T07:29:14.000Z</time>
</trkpt>
<trkpt lat="45.8437420" lon="9.2282700">
	<ele>659.60</ele>
	<time>2025-02-15T07:29:15.000Z</time>
</trkpt>
<trkpt lat="45.8437480" lon="9.2282750">
	<ele>659.60</ele>
	<time>2025-02-15T07:29:16.000Z</time>
</trkpt>
<trkpt lat="45.8437470" lon="9.2282720">
	<ele>659.80</ele>
	<time>2025-02-15T07:29:17.000Z</time>
</trkpt>
<trkpt lat="45.8437500" lon="9.2282690">
	<ele>659.80</ele>
	<time>2025-02-15T07:29:18.000Z</time>
</trkpt>
<trkpt lat="45.8437510" lon="9.2282810">
	<ele>659.80</ele>
	<time>2025-02-15T07:29:19.000Z</time>
</trkpt>
<trkpt lat="45.8437520" lon="9.2283030">
	<ele>659.80</ele>
	<time>2025-02-15T07:29:20.000Z</time>
</trkpt>
<trkpt lat="45.8437520" lon="9.2283150">
	<ele>659.80</ele>
	<time>2025-02-15T07:29:21.000Z</time>
</trkpt>
<trkpt lat="45.8437610" lon="9.2283260">
	<ele>659.80</ele>
	<time>2025-02-15T07:29:22.000Z</time>
</trkpt>
<trkpt lat="45.8437560" lon="9.2283290">
	<ele>659.80</ele>
	<time>2025-02-15T07:29:23.000Z</time>
</trkpt>
<trkpt lat="45.8437540" lon="9.2283340">
	<ele>659.80</ele>
	<time>2025-02-15T07:29:24.000Z</time>
</trkpt>
<trkpt lat="45.8437610" lon="9.2283420">
	<ele>660.00</ele>
	<time>2025-02-15T07:29:25.000Z</time>
</trkpt>
<trkpt lat="45.8437720" lon="9.2283480">
	<ele>660.20</ele>
	<time>2025-02-15T07:29:26.000Z</time>
</trkpt>
<trkpt lat="45.8437830" lon="9.2283530">
	<ele>660.20</ele>
	<time>2025-02-15T07:29:27.000Z</time>
</trkpt>
<trkpt lat="45.8437840" lon="9.2283500">
	<ele>660.40</ele>
	<time>2025-02-15T07:29:28.000Z</time>
</trkpt>
<trkpt lat="45.8437650" lon="9.2283040">
	<ele>660.40</ele>
	<time>2025-02-15T07:29:29.000Z</time>
</trkpt>
<trkpt lat="45.8437600" lon="9.2282940">
	<ele>660.60</ele>
	<time>2025-02-15T07:29:30.000Z</time>
</trkpt>
<trkpt lat="45.8437610" lon="9.2282870">
	<ele>660.80</ele>
	<time>2025-02-15T07:29:31.000Z</time>
</trkpt>
<trkpt lat="45.8437620" lon="9.2282970">
	<ele>661.00</ele>
	<time>2025-02-15T07:29:32.000Z</time>
</trkpt>
<trkpt lat="45.8437640" lon="9.2283010">
	<ele>661.20</ele>
	<time>2025-02-15T07:29:33.000Z</time>
</trkpt>
<trkpt lat="45.8437740" lon="9.2283090">
	<ele>661.60</ele>
	<time>2025-02-15T07:29:34.000Z</time>
</trkpt>
<trkpt lat="45.8437820" lon="9.2283160">
	<ele>661.60</ele>
	<time>2025-02-15T07:29:35.000Z</time>
</trkpt>
<trkpt lat="45.8437820" lon="9.2283210">
	<ele>661.80</ele>
	<time>2025-02-15T07:29:36.000Z</time>
</trkpt>
<trkpt lat="45.8437990" lon="9.2283280">
	<ele>662.00</ele>
	<time>2025-02-15T07:29:37.000Z</time>
</trkpt>
<trkpt lat="45.8438050" lon="9.2283430">
	<ele>662.20</ele>
	<time>2025-02-15T07:29:38.000Z</time>
</trkpt>
<trkpt lat="45.8438120" lon="9.2283350">
	<ele>662.40</ele>
	<time>2025-02-15T07:29:39.000Z</time>
</trkpt>
<trkpt lat="45.8438110" lon="9.2283410">
	<ele>662.60</ele>
	<time>2025-02-15T07:29:40.000Z</time>
</trkpt>
<trkpt lat="45.8438130" lon="9.2283450">
	<ele>662.60</ele>
	<time>2025-02-15T07:29:41.000Z</time>
</trkpt>
<trkpt lat="45.8438070" lon="9.2283500">
	<ele>662.80</ele>
	<time>2025-02-15T07:29:42.000Z</time>
</trkpt>
<trkpt lat="45.8438020" lon="9.2283520">
	<ele>662.60</ele>
	<time>2025-02-15T07:29:43.000Z</time>
</trkpt>
<trkpt lat="45.8437930" lon="9.2283520">
	<ele>662.60</ele>
	<time>2025-02-15T07:29:44.000Z</time>
</trkpt>
<trkpt lat="45.8437900" lon="9.2283510">
	<ele>662.60</ele>
	<time>2025-02-15T07:29:45.000Z</time>
</trkpt>
<trkpt lat="45.8437940" lon="9.2283520">
	<ele>662.60</ele>
	<time>2025-02-15T07:29:46.000Z</time>
</trkpt>
<trkpt lat="45.8437940" lon="9.2283520">
	<ele>662.60</ele>
	<time>2025-02-15T07:29:47.000Z</time>
</trkpt>
<trkpt lat="45.8437940" lon="9.2283520">
	<ele>662.60</ele>
	<time>2025-02-15T07:29:48.000Z</time>
</trkpt>
<trkpt lat="45.8437940" lon="9.2283520">
	<ele>662.60</ele>
	<time>2025-02-15T07:29:49.000Z</time>
</trkpt>
<trkpt lat="45.8437940" lon="9.2283520">
	<ele>662.60</ele>
	<time>2025-02-15T07:29:50.000Z</time>
</trkpt>
<trkpt lat="45.8437940" lon="9.2283520">
	<ele>662.80</ele>
	<time>2025-02-15T07:29:51.000Z</time>
</trkpt>
<trkpt lat="45.8437940" lon="9.2283520">
	<ele>662.80</ele>
	<time>2025-02-15T07:29:52.000Z</time>
</trkpt>
<trkpt lat="45.8437940" lon="9.2283520">
	<ele>663.00</ele>
	<time>2025-02-15T07:29:53.000Z</time>
</trkpt>
<trkpt lat="45.8437940" lon="9.2283520">
	<ele>663.20</ele>
	<time>2025-02-15T07:29:54.000Z</time>
</trkpt>
<trkpt lat="45.8437940" lon="9.2283520">
	<ele>663.20</ele>
	<time>2025-02-15T07:29:55.000Z</time>
</trkpt>
<trkpt lat="45.8437940" lon="9.2283520">
	<ele>663.20</ele>
	<time>2025-02-15T07:29:56.000Z</time>
</trkpt>
<trkpt lat="45.8437940" lon="9.2283520">
	<ele>663.20</ele>
	<time>2025-02-15T07:29:57.000Z</time>
</trkpt>
<trkpt lat="45.8437950" lon="9.2283520">
	<ele>663.20</ele>
	<time>2025-02-15T07:29:58.000Z</time>
</trkpt>
<trkpt lat="45.8437950" lon="9.2283520">
	<ele>663.20</ele>
	<time>2025-02-15T07:29:59.000Z</time>
</trkpt>
<trkpt lat="45.8437950" lon="9.2283520">
	<ele>663.20</ele>
	<time>2025-02-15T07:30:00.000Z</time>
</trkpt>
<trkpt lat="45.8437950" lon="9.2283520">
	<ele>663.20</ele>
	<time>2025-02-15T07:30:01.000Z</time>
</trkpt>
<trkpt lat="45.8437950" lon="9.2283520">
	<ele>663.20</ele>
	<time>2025-02-15T07:30:02.000Z</time>
</trkpt>
<trkpt lat="45.8437950" lon="9.2283530">
	<ele>663.20</ele>
	<time>2025-02-15T07:30:03.000Z</time>
</trkpt>
<trkpt lat="45.8437950" lon="9.2283540">
	<ele>663.20</ele>
	<time>2025-02-15T07:30:04.000Z</time>
</trkpt>
<trkpt lat="45.8437950" lon="9.2283620">
	<ele>663.40</ele>
	<time>2025-02-15T07:30:05.000Z</time>
</trkpt>
<trkpt lat="45.8437950" lon="9.2283630">
	<ele>663.40</ele>
	<time>2025-02-15T07:30:06.000Z</time>
</trkpt>
<trkpt lat="45.8437950" lon="9.2283640">
	<ele>663.40</ele>
	<time>2025-02-15T07:30:07.000Z</time>
</trkpt>
<trkpt lat="45.8437950" lon="9.2283660">
	<ele>663.60</ele>
	<time>2025-02-15T07:30:08.000Z</time>
</trkpt>
<trkpt lat="45.8437940" lon="9.2283760">
	<ele>663.80</ele>
	<time>2025-02-15T07:30:09.000Z</time>
</trkpt>
<trkpt lat="45.8437940" lon="9.2283780">
	<ele>663.80</ele>
	<time>2025-02-15T07:30:10.000Z</time>
</trkpt>
<trkpt lat="45.8437930" lon="9.2283780">
	<ele>664.00</ele>
	<time>2025-02-15T07:30:11.000Z</time>
</trkpt>
<trkpt lat="45.8437920" lon="9.2283890">
	<ele>664.20</ele>
	<time>2025-02-15T07:30:12.000Z</time>
</trkpt>
<trkpt lat="45.8437900" lon="9.2284050">
	<ele>664.40</ele>
	<time>2025-02-15T07:30:13.000Z</time>
</trkpt>
<trkpt lat="45.8437900" lon="9.2284200">
	<ele>664.60</ele>
	<time>2025-02-15T07:30:14.000Z</time>
</trkpt>
<trkpt lat="45.8437920" lon="9.2284330">
	<ele>664.60</ele>
	<time>2025-02-15T07:30:15.000Z</time>
</trkpt>
<trkpt lat="45.8437920" lon="9.2284380">
	<ele>664.60</ele>
	<time>2025-02-15T07:30:16.000Z</time>
</trkpt>
<trkpt lat="45.8437920" lon="9.2284410">
	<ele>664.80</ele>
	<time>2025-02-15T07:30:17.000Z</time>
</trkpt>
<trkpt lat="45.8437920" lon="9.2284430">
	<ele>665.00</ele>
	<time>2025-02-15T07:30:18.000Z</time>
</trkpt>
<trkpt lat="45.8437920" lon="9.2284450">
	<ele>665.00</ele>
	<time>2025-02-15T07:30:19.000Z</time>
</trkpt>
<trkpt lat="45.8437920" lon="9.2284460">
	<ele>665.20</ele>
	<time>2025-02-15T07:30:20.000Z</time>
</trkpt>
<trkpt lat="45.8437920" lon="9.2284470">
	<ele>665.20</ele>
	<time>2025-02-15T07:30:21.000Z</time>
</trkpt>
<trkpt lat="45.8437960" lon="9.2284490">
	<ele>665.20</ele>
	<time>2025-02-15T07:30:22.000Z</time>
</trkpt>
<trkpt lat="45.8438100" lon="9.2284550">
	<ele>665.20</ele>
	<time>2025-02-15T07:30:23.000Z</time>
</trkpt>
<trkpt lat="45.8438150" lon="9.2284570">
	<ele>665.20</ele>
	<time>2025-02-15T07:30:24.000Z</time>
</trkpt>
<trkpt lat="45.8438180" lon="9.2284560">
	<ele>665.40</ele>
	<time>2025-02-15T07:30:25.000Z</time>
</trkpt>
<trkpt lat="45.8438230" lon="9.2284580">
	<ele>665.40</ele>
	<time>2025-02-15T07:30:26.000Z</time>
</trkpt>
<trkpt lat="45.8438290" lon="9.2284570">
	<ele>665.20</ele>
	<time>2025-02-15T07:30:27.000Z</time>
</trkpt>
<trkpt lat="45.8438400" lon="9.2284600">
	<ele>665.20</ele>
	<time>2025-02-15T07:30:28.000Z</time>
</trkpt>
<trkpt lat="45.8438480" lon="9.2284610">
	<ele>665.20</ele>
	<time>2025-02-15T07:30:29.000Z</time>
</trkpt>
<trkpt lat="45.8438530" lon="9.2284630">
	<ele>665.20</ele>
	<time>2025-02-15T07:30:30.000Z</time>
</trkpt>
<trkpt lat="45.8438580" lon="9.2284650">
	<ele>665.20</ele>
	<time>2025-02-15T07:30:31.000Z</time>
</trkpt>
<trkpt lat="45.8438620" lon="9.2284630">
	<ele>665.20</ele>
	<time>2025-02-15T07:30:32.000Z</time>
</trkpt>
<trkpt lat="45.8438610" lon="9.2284530">
	<ele>665.20</ele>
	<time>2025-02-15T07:30:33.000Z</time>
</trkpt>
<trkpt lat="45.8438590" lon="9.2284440">
	<ele>665.20</ele>
	<time>2025-02-15T07:30:34.000Z</time>
</trkpt>
<trkpt lat="45.8438620" lon="9.2284440">
	<ele>665.20</ele>
	<time>2025-02-15T07:30:35.000Z</time>
</trkpt>
<trkpt lat="45.8438620" lon="9.2284460">
	<ele>665.00</ele>
	<time>2025-02-15T07:30:36.000Z</time>
</trkpt>
<trkpt lat="45.8438610" lon="9.2284450">
	<ele>665.00</ele>
	<time>2025-02-15T07:30:37.000Z</time>
</trkpt>
<trkpt lat="45.8438670" lon="9.2284490">
	<ele>665.00</ele>
	<time>2025-02-15T07:30:38.000Z</time>
</trkpt>
<trkpt lat="45.8438740" lon="9.2284490">
	<ele>665.00</ele>
	<time>2025-02-15T07:30:39.000Z</time>
</trkpt>
<trkpt lat="45.8438850" lon="9.2284490">
	<ele>664.80</ele>
	<time>2025-02-15T07:30:40.000Z</time>
</trkpt>
<trkpt lat="45.8438880" lon="9.2284190">
	<ele>664.80</ele>
	<time>2025-02-15T07:30:41.000Z</time>
</trkpt>
<trkpt lat="45.8438920" lon="9.2284110">
	<ele>664.80</ele>
	<time>2025-02-15T07:30:42.000Z</time>
</trkpt>
<trkpt lat="45.8438960" lon="9.2283980">
	<ele>664.80</ele>
	<time>2025-02-15T07:30:43.000Z</time>
</trkpt>
<trkpt lat="45.8438980" lon="9.2283890">
	<ele>664.60</ele>
	<time>2025-02-15T07:30:44.000Z</time>
</trkpt>
<trkpt lat="45.8439030" lon="9.2283950">
	<ele>664.60</ele>
	<time>2025-02-15T07:30:45.000Z</time>
</trkpt>
<trkpt lat="45.8439240" lon="9.2284040">
	<ele>664.60</ele>
	<time>2025-02-15T07:30:46.000Z</time>
</trkpt>
<trkpt lat="45.8439430" lon="9.2284190">
	<ele>664.60</ele>
	<time>2025-02-15T07:30:47.000Z</time>
</trkpt>
<trkpt lat="45.8439640" lon="9.2284320">
	<ele>664.60</ele>
	<time>2025-02-15T07:30:48.000Z</time>
</trkpt>
<trkpt lat="45.8439310" lon="9.2284780">
	<ele>664.60</ele>
	<time>2025-02-15T07:30:49.000Z</time>
</trkpt>
<trkpt lat="45.8439220" lon="9.2284940">
	<ele>664.60</ele>
	<time>2025-02-15T07:30:50.000Z</time>
</trkpt>
<trkpt lat="45.8439250" lon="9.2285180">
	<ele>664.60</ele>
	<time>2025-02-15T07:30:51.000Z</time>
</trkpt>
<trkpt lat="45.8439200" lon="9.2285460">
	<ele>664.60</ele>
	<time>2025-02-15T07:30:52.000Z</time>
</trkpt>
<trkpt lat="45.8439240" lon="9.2285680">
	<ele>664.60</ele>
	<time>2025-02-15T07:30:53.000Z</time>
</trkpt>
<trkpt lat="45.8439300" lon="9.2285810">
	<ele>664.60</ele>
	<time>2025-02-15T07:30:54.000Z</time>
</trkpt>
<trkpt lat="45.8439370" lon="9.2285850">
	<ele>664.60</ele>
	<time>2025-02-15T07:30:55.000Z</time>
</trkpt>
<trkpt lat="45.8439450" lon="9.2285940">
	<ele>664.60</ele>
	<time>2025-02-15T07:30:56.000Z</time>
</trkpt>
<trkpt lat="45.8439520" lon="9.2286040">
	<ele>664.80</ele>
	<time>2025-02-15T07:30:57.000Z</time>
</trkpt>
<trkpt lat="45.8439610" lon="9.2286130">
	<ele>664.80</ele>
	<time>2025-02-15T07:30:58.000Z</time>
</trkpt>
<trkpt lat="45.8439600" lon="9.2286160">
	<ele>664.80</ele>
	<time>2025-02-15T07:30:59.000Z</time>
</trkpt>
<trkpt lat="45.8439560" lon="9.2286180">
	<ele>664.80</ele>
	<time>2025-02-15T07:31:00.000Z</time>
</trkpt>
<trkpt lat="45.8439350" lon="9.2286200">
	<ele>664.80</ele>
	<time>2025-02-15T07:31:01.000Z</time>
</trkpt>
<trkpt lat="45.8439620" lon="9.2285960">
	<ele>665.00</ele>
	<time>2025-02-15T07:31:02.000Z</time>
</trkpt>
<trkpt lat="45.8439760" lon="9.2285960">
	<ele>665.00</ele>
	<time>2025-02-15T07:31:03.000Z</time>
</trkpt>
<trkpt lat="45.8439820" lon="9.2286010">
	<ele>665.00</ele>
	<time>2025-02-15T07:31:04.000Z</time>
</trkpt>
<trkpt lat="45.8439890" lon="9.2286040">
	<ele>665.00</ele>
	<time>2025-02-15T07:31:05.000Z</time>
</trkpt>
<trkpt lat="45.8439940" lon="9.2286060">
	<ele>665.00</ele>
	<time>2025-02-15T07:31:06.000Z</time>
</trkpt>
<trkpt lat="45.8439970" lon="9.2286100">
	<ele>665.00</ele>
	<time>2025-02-15T07:31:07.000Z</time>
</trkpt>
<trkpt lat="45.8440010" lon="9.2286160">
	<ele>665.00</ele>
	<time>2025-02-15T07:31:08.000Z</time>
</trkpt>
<trkpt lat="45.8440060" lon="9.2286200">
	<ele>665.00</ele>
	<time>2025-02-15T07:31:09.000Z</time>
</trkpt>
<trkpt lat="45.8440100" lon="9.2286180">
	<ele>665.00</ele>
	<time>2025-02-15T07:31:10.000Z</time>
</trkpt>
<trkpt lat="45.8440170" lon="9.2286140">
	<ele>665.00</ele>
	<time>2025-02-15T07:31:11.000Z</time>
</trkpt>
<trkpt lat="45.8440270" lon="9.2286080">
	<ele>665.00</ele>
	<time>2025-02-15T07:31:12.000Z</time>
</trkpt>
<trkpt lat="45.8440370" lon="9.2286070">
	<ele>665.00</ele>
	<time>2025-02-15T07:31:13.000Z</time>
</trkpt>
<trkpt lat="45.8440530" lon="9.2286070">
	<ele>665.00</ele>
	<time>2025-02-15T07:31:14.000Z</time>
</trkpt>
<trkpt lat="45.8440610" lon="9.2285970">
	<ele>665.00</ele>
	<time>2025-02-15T07:31:15.000Z</time>
</trkpt>
<trkpt lat="45.8440610" lon="9.2285900">
	<ele>664.80</ele>
	<time>2025-02-15T07:31:16.000Z</time>
</trkpt>
<trkpt lat="45.8440650" lon="9.2285900">
	<ele>664.80</ele>
	<time>2025-02-15T07:31:17.000Z</time>
</trkpt>
<trkpt lat="45.8440550" lon="9.2285850">
	<ele>664.80</ele>
	<time>2025-02-15T07:31:18.000Z</time>
</trkpt>
<trkpt lat="45.8440430" lon="9.2285660">
	<ele>664.80</ele>
	<time>2025-02-15T07:31:19.000Z</time>
</trkpt>
<trkpt lat="45.8440370" lon="9.2285490">
	<ele>665.00</ele>
	<time>2025-02-15T07:31:20.000Z</time>
</trkpt>
<trkpt lat="45.8440380" lon="9.2285370">
	<ele>664.80</ele>
	<time>2025-02-15T07:31:21.000Z</time>
</trkpt>
<trkpt lat="45.8440430" lon="9.2285340">
	<ele>664.80</ele>
	<time>2025-02-15T07:31:22.000Z</time>
</trkpt>
<trkpt lat="45.8440430" lon="9.2285280">
	<ele>665.00</ele>
	<time>2025-02-15T07:31:23.000Z</time>
</trkpt>
<trkpt lat="45.8440350" lon="9.2285230">
	<ele>665.00</ele>
	<time>2025-02-15T07:31:24.000Z</time>
</trkpt>
<trkpt lat="45.8440310" lon="9.2285280">
	<ele>665.00</ele>
	<time>2025-02-15T07:31:25.000Z</time>
</trkpt>
<trkpt lat="45.8440210" lon="9.2285230">
	<ele>665.00</ele>
	<time>2025-02-15T07:31:26.000Z</time>
</trkpt>
<trkpt lat="45.8440210" lon="9.2285140">
	<ele>665.20</ele>
	<time>2025-02-15T07:31:27.000Z</time>
</trkpt>
<trkpt lat="45.8440250" lon="9.2285060">
	<ele>665.20</ele>
	<time>2025-02-15T07:31:28.000Z</time>
</trkpt>
<trkpt lat="45.8440290" lon="9.2284810">
	<ele>665.20</ele>
	<time>2025-02-15T07:31:29.000Z</time>
</trkpt>
<trkpt lat="45.8440310" lon="9.2284590">
	<ele>665.40</ele>
	<time>2025-02-15T07:31:30.000Z</time>
</trkpt>
<trkpt lat="45.8440270" lon="9.2284260">
	<ele>665.40</ele>
	<time>2025-02-15T07:31:31.000Z</time>
</trkpt>
<trkpt lat="45.8440290" lon="9.2284400">
	<ele>665.40</ele>
	<time>2025-02-15T07:31:32.000Z</time>
</trkpt>
<trkpt lat="45.8440250" lon="9.2284360">
	<ele>665.60</ele>
	<time>2025-02-15T07:31:33.000Z</time>
</trkpt>
<trkpt lat="45.8440170" lon="9.2284070">
	<ele>665.60</ele>
	<time>2025-02-15T07:31:34.000Z</time>
</trkpt>
<trkpt lat="45.8440170" lon="9.2284020">
	<ele>665.60</ele>
	<time>2025-02-15T07:31:35.000Z</time>
</trkpt>
<trkpt lat="45.8440210" lon="9.2283920">
	<ele>665.80</ele>
	<time>2025-02-15T07:31:36.000Z</time>
</trkpt>
<trkpt lat="45.8440300" lon="9.2283730">
	<ele>665.80</ele>
	<time>2025-02-15T07:31:37.000Z</time>
</trkpt>
<trkpt lat="45.8440370" lon="9.2283540">
	<ele>665.80</ele>
	<time>2025-02-15T07:31:38.000Z</time>
</trkpt>
<trkpt lat="45.8440400" lon="9.2283420">
	<ele>666.00</ele>
	<time>2025-02-15T07:31:39.000Z</time>
</trkpt>
<trkpt lat="45.8440440" lon="9.2283470">
	<ele>666.00</ele>
	<time>2025-02-15T07:31:40.000Z</time>
</trkpt>
<trkpt lat="45.8440460" lon="9.2283630">
	<ele>666.20</ele>
	<time>2025-02-15T07:31:41.000Z</time>
</trkpt>
<trkpt lat="45.8440390" lon="9.2283350">
	<ele>666.20</ele>
	<time>2025-02-15T07:31:42.000Z</time>
</trkpt>
<trkpt lat="45.8440320" lon="9.2283160">
	<ele>666.20</ele>
	<time>2025-02-15T07:31:43.000Z</time>
</trkpt>
<trkpt lat="45.8440330" lon="9.2283130">
	<ele>666.40</ele>
	<time>2025-02-15T07:31:44.000Z</time>
</trkpt>
<trkpt lat="45.8440340" lon="9.2282950">
	<ele>666.60</ele>
	<time>2025-02-15T07:31:45.000Z</time>
</trkpt>
<trkpt lat="45.8440310" lon="9.2282790">
	<ele>666.60</ele>
	<time>2025-02-15T07:31:46.000Z</time>
</trkpt>
<trkpt lat="45.8440310" lon="9.2282810">
	<ele>666.80</ele>
	<time>2025-02-15T07:31:47.000Z</time>
</trkpt>
<trkpt lat="45.8440340" lon="9.2282710">
	<ele>666.80</ele>
	<time>2025-02-15T07:31:48.000Z</time>
</trkpt>
<trkpt lat="45.8440390" lon="9.2282710">
	<ele>666.80</ele>
	<time>2025-02-15T07:31:49.000Z</time>
</trkpt>
<trkpt lat="45.8440450" lon="9.2282730">
	<ele>667.00</ele>
	<time>2025-02-15T07:31:50.000Z</time>
</trkpt>
<trkpt lat="45.8440540" lon="9.2282720">
	<ele>667.20</ele>
	<time>2025-02-15T07:31:51.000Z</time>
</trkpt>
<trkpt lat="45.8440570" lon="9.2282400">
	<ele>667.20</ele>
	<time>2025-02-15T07:31:52.000Z</time>
</trkpt>
<trkpt lat="45.8440660" lon="9.2282410">
	<ele>667.20</ele>
	<time>2025-02-15T07:31:53.000Z</time>
</trkpt>
<trkpt lat="45.8440820" lon="9.2282590">
	<ele>667.20</ele>
	<time>2025-02-15T07:31:54.000Z</time>
</trkpt>
<trkpt lat="45.8440850" lon="9.2282640">
	<ele>667.40</ele>
	<time>2025-02-15T07:31:55.000Z</time>
</trkpt>
<trkpt lat="45.8440920" lon="9.2282660">
	<ele>667.40</ele>
	<time>2025-02-15T07:31:56.000Z</time>
</trkpt>
<trkpt lat="45.8441110" lon="9.2282700">
	<ele>667.40</ele>
	<time>2025-02-15T07:31:57.000Z</time>
</trkpt>
<trkpt lat="45.8441250" lon="9.2282700">
	<ele>667.40</ele>
	<time>2025-02-15T07:31:58.000Z</time>
</trkpt>
<trkpt lat="45.8441210" lon="9.2282220">
	<ele>667.40</ele>
	<time>2025-02-15T07:31:59.000Z</time>
</trkpt>
<trkpt lat="45.8441220" lon="9.2282250">
	<ele>667.40</ele>
	<time>2025-02-15T07:32:00.000Z</time>
</trkpt>
<trkpt lat="45.8441380" lon="9.2282380">
	<ele>667.40</ele>
	<time>2025-02-15T07:32:01.000Z</time>
</trkpt>
<trkpt lat="45.8441480" lon="9.2282000">
	<ele>667.40</ele>
	<time>2025-02-15T07:32:02.000Z</time>
</trkpt>
<trkpt lat="45.8441510" lon="9.2281890">
	<ele>667.60</ele>
	<time>2025-02-15T07:32:03.000Z</time>
</trkpt>
<trkpt lat="45.8441600" lon="9.2281780">
	<ele>667.80</ele>
	<time>2025-02-15T07:32:04.000Z</time>
</trkpt>
<trkpt lat="45.8441770" lon="9.2281770">
	<ele>668.00</ele>
	<time>2025-02-15T07:32:05.000Z</time>
</trkpt>
<trkpt lat="45.8441880" lon="9.2282150">
	<ele>668.00</ele>
	<time>2025-02-15T07:32:06.000Z</time>
</trkpt>
<trkpt lat="45.8441840" lon="9.2282470">
	<ele>668.20</ele>
	<time>2025-02-15T07:32:07.000Z</time>
</trkpt>
<trkpt lat="45.8441790" lon="9.2282790">
	<ele>668.20</ele>
	<time>2025-02-15T07:32:08.000Z</time>
</trkpt>
<trkpt lat="45.8441790" lon="9.2282770">
	<ele>668.40</ele>
	<time>2025-02-15T07:32:09.000Z</time>
</trkpt>
<trkpt lat="45.8441780" lon="9.2282760">
	<ele>668.40</ele>
	<time>2025-02-15T07:32:10.000Z</time>
</trkpt>
<trkpt lat="45.8441790" lon="9.2282970">
	<ele>668.60</ele>
	<time>2025-02-15T07:32:11.000Z</time>
</trkpt>
<trkpt lat="45.8441780" lon="9.2282950">
	<ele>668.60</ele>
	<time>2025-02-15T07:32:12.000Z</time>
</trkpt>
<trkpt lat="45.8441750" lon="9.2282920">
	<ele>668.40</ele>
	<time>2025-02-15T07:32:13.000Z</time>
</trkpt>
<trkpt lat="45.8441740" lon="9.2282870">
	<ele>668.20</ele>
	<time>2025-02-15T07:32:14.000Z</time>
</trkpt>
<trkpt lat="45.8441760" lon="9.2282860">
	<ele>668.00</ele>
	<time>2025-02-15T07:32:15.000Z</time>
</trkpt>
<trkpt lat="45.8441830" lon="9.2282770">
	<ele>668.00</ele>
	<time>2025-02-15T07:32:16.000Z</time>
</trkpt>
<trkpt lat="45.8441920" lon="9.2282700">
	<ele>668.00</ele>
	<time>2025-02-15T07:32:17.000Z</time>
</trkpt>
<trkpt lat="45.8442020" lon="9.2282650">
	<ele>667.80</ele>
	<time>2025-02-15T07:32:18.000Z</time>
</trkpt>
<trkpt lat="45.8442120" lon="9.2282670">
	<ele>667.80</ele>
	<time>2025-02-15T07:32:19.000Z</time>
</trkpt>
<trkpt lat="45.8442160" lon="9.2282630">
	<ele>667.80</ele>
	<time>2025-02-15T07:32:20.000Z</time>
</trkpt>
<trkpt lat="45.8442090" lon="9.2282940">
	<ele>667.60</ele>
	<time>2025-02-15T07:32:21.000Z</time>
</trkpt>
<trkpt lat="45.8442060" lon="9.2283010">
	<ele>667.60</ele>
	<time>2025-02-15T07:32:22.000Z</time>
</trkpt>
<trkpt lat="45.8442010" lon="9.2283060">
	<ele>667.40</ele>
	<time>2025-02-15T07:32:23.000Z</time>
</trkpt>
<trkpt lat="45.8441990" lon="9.2283040">
	<ele>667.40</ele>
	<time>2025-02-15T07:32:24.000Z</time>
</trkpt>
<trkpt lat="45.8441960" lon="9.2283120">
	<ele>667.20</ele>
	<time>2025-02-15T07:32:25.000Z</time>
</trkpt>
<trkpt lat="45.8441960" lon="9.2283100">
	<ele>667.20</ele>
	<time>2025-02-15T07:32:26.000Z</time>
</trkpt>
<trkpt lat="45.8442040" lon="9.2283160">
	<ele>667.00</ele>
	<time>2025-02-15T07:32:27.000Z</time>
</trkpt>
<trkpt lat="45.8442150" lon="9.2283230">
	<ele>667.00</ele>
	<time>2025-02-15T07:32:28.000Z</time>
</trkpt>
<trkpt lat="45.8442230" lon="9.2283290">
	<ele>667.00</ele>
	<time>2025-02-15T07:32:29.000Z</time>
</trkpt>
<trkpt lat="45.8442280" lon="9.2283340">
	<ele>667.00</ele>
	<time>2025-02-15T07:32:30.000Z</time>
</trkpt>
<trkpt lat="45.8442300" lon="9.2283330">
	<ele>667.00</ele>
	<time>2025-02-15T07:32:31.000Z</time>
</trkpt>
<trkpt lat="45.8442300" lon="9.2283350">
	<ele>667.20</ele>
	<time>2025-02-15T07:32:32.000Z</time>
</trkpt>
<trkpt lat="45.8442340" lon="9.2283380">
	<ele>667.20</ele>
	<time>2025-02-15T07:32:33.000Z</time>
</trkpt>
<trkpt lat="45.8442460" lon="9.2283390">
	<ele>667.20</ele>
	<time>2025-02-15T07:32:34.000Z</time>
</trkpt>
<trkpt lat="45.8442710" lon="9.2283490">
	<ele>667.20</ele>
	<time>2025-02-15T07:32:35.000Z</time>
</trkpt>
<trkpt lat="45.8442790" lon="9.2283570">
	<ele>667.20</ele>
	<time>2025-02-15T07:32:36.000Z</time>
</trkpt>
<trkpt lat="45.8442860" lon="9.2283570">
	<ele>667.20</ele>
	<time>2025-02-15T07:32:37.000Z</time>
</trkpt>
<trkpt lat="45.8442970" lon="9.2283630">
	<ele>667.20</ele>
	<time>2025-02-15T07:32:38.000Z</time>
</trkpt>
<trkpt lat="45.8443010" lon="9.2283660">
	<ele>667.00</ele>
	<time>2025-02-15T07:32:39.000Z</time>
</trkpt>
<trkpt lat="45.8443010" lon="9.2283620">
	<ele>667.20</ele>
	<time>2025-02-15T07:32:40.000Z</time>
</trkpt>
<trkpt lat="45.8443060" lon="9.2283600">
	<ele>667.20</ele>
	<time>2025-02-15T07:32:41.000Z</time>
</trkpt>
<trkpt lat="45.8443070" lon="9.2283470">
	<ele>667.20</ele>
	<time>2025-02-15T07:32:42.000Z</time>
</trkpt>
<trkpt lat="45.8443190" lon="9.2283490">
	<ele>667.20</ele>
	<time>2025-02-15T07:32:43.000Z</time>
</trkpt>
<trkpt lat="45.8443340" lon="9.2283540">
	<ele>667.40</ele>
	<time>2025-02-15T07:32:44.000Z</time>
</trkpt>
<trkpt lat="45.8443390" lon="9.2283520">
	<ele>667.40</ele>
	<time>2025-02-15T07:32:45.000Z</time>
</trkpt>
<trkpt lat="45.8443540" lon="9.2283550">
	<ele>667.40</ele>
	<time>2025-02-15T07:32:46.000Z</time>
</trkpt>
<trkpt lat="45.8443610" lon="9.2283550">
	<ele>667.40</ele>
	<time>2025-02-15T07:32:47.000Z</time>
</trkpt>
<trkpt lat="45.8443690" lon="9.2283570">
	<ele>667.60</ele>
	<time>2025-02-15T07:32:48.000Z</time>
</trkpt>
<trkpt lat="45.8443710" lon="9.2283550">
	<ele>667.60</ele>
	<time>2025-02-15T07:32:49.000Z</time>
</trkpt>
<trkpt lat="45.8443660" lon="9.2283490">
	<ele>667.80</ele>
	<time>2025-02-15T07:32:50.000Z</time>
</trkpt>
<trkpt lat="45.8443620" lon="9.2283520">
	<ele>667.80</ele>
	<time>2025-02-15T07:32:51.000Z</time>
</trkpt>
<trkpt lat="45.8443610" lon="9.2283510">
	<ele>668.00</ele>
	<time>2025-02-15T07:32:52.000Z</time>
</trkpt>
<trkpt lat="45.8443510" lon="9.2283490">
	<ele>668.00</ele>
	<time>2025-02-15T07:32:53.000Z</time>
</trkpt>
<trkpt lat="45.8443490" lon="9.2283500">
	<ele>668.00</ele>
	<time>2025-02-15T07:32:54.000Z</time>
</trkpt>
<trkpt lat="45.8443460" lon="9.2283500">
	<ele>668.20</ele>
	<time>2025-02-15T07:32:55.000Z</time>
</trkpt>
<trkpt lat="45.8443450" lon="9.2283470">
	<ele>668.20</ele>
	<time>2025-02-15T07:32:56.000Z</time>
</trkpt>
<trkpt lat="45.8443640" lon="9.2283590">
	<ele>668.40</ele>
	<time>2025-02-15T07:32:57.000Z</time>
</trkpt>
<trkpt lat="45.8443640" lon="9.2283580">
	<ele>668.40</ele>
	<time>2025-02-15T07:32:58.000Z</time>
</trkpt>
<trkpt lat="45.8443890" lon="9.2283840">
	<ele>668.60</ele>
	<time>2025-02-15T07:32:59.000Z</time>
</trkpt>
<trkpt lat="45.8444030" lon="9.2284020">
	<ele>668.60</ele>
	<time>2025-02-15T07:33:00.000Z</time>
</trkpt>
<trkpt lat="45.8444150" lon="9.2284140">
	<ele>668.60</ele>
	<time>2025-02-15T07:33:01.000Z</time>
</trkpt>
<trkpt lat="45.8444190" lon="9.2284130">
	<ele>669.00</ele>
	<time>2025-02-15T07:33:02.000Z</time>
</trkpt>
<trkpt lat="45.8444230" lon="9.2284130">
	<ele>669.20</ele>
	<time>2025-02-15T07:33:03.000Z</time>
</trkpt>
<trkpt lat="45.8444260" lon="9.2284350">
	<ele>669.40</ele>
	<time>2025-02-15T07:33:04.000Z</time>
</trkpt>
<trkpt lat="45.8444260" lon="9.2284400">
	<ele>669.60</ele>
	<time>2025-02-15T07:33:05.000Z</time>
</trkpt>
<trkpt lat="45.8444280" lon="9.2284420">
	<ele>669.60</ele>
	<time>2025-02-15T07:33:06.000Z</time>
</trkpt>
<trkpt lat="45.8444340" lon="9.2284390">
	<ele>669.80</ele>
	<time>2025-02-15T07:33:07.000Z</time>
</trkpt>
<trkpt lat="45.8444420" lon="9.2284430">
	<ele>670.00</ele>
	<time>2025-02-15T07:33:08.000Z</time>
</trkpt>
<trkpt lat="45.8444430" lon="9.2284440">
	<ele>670.20</ele>
	<time>2025-02-15T07:33:09.000Z</time>
</trkpt>
<trkpt lat="45.8444420" lon="9.2284460">
	<ele>670.40</ele>
	<time>2025-02-15T07:33:10.000Z</time>
</trkpt>
<trkpt lat="45.8444550" lon="9.2284510">
	<ele>670.40</ele>
	<time>2025-02-15T07:33:11.000Z</time>
</trkpt>
<trkpt lat="45.8444650" lon="9.2284670">
	<ele>670.60</ele>
	<time>2025-02-15T07:33:12.000Z</time>
</trkpt>
<trkpt lat="45.8444690" lon="9.2284830">
	<ele>670.60</ele>
	<time>2025-02-15T07:33:13.000Z</time>
</trkpt>
<trkpt lat="45.8444740" lon="9.2285030">
	<ele>670.80</ele>
	<time>2025-02-15T07:33:14.000Z</time>
</trkpt>
<trkpt lat="45.8444890" lon="9.2285230">
	<ele>670.80</ele>
	<time>2025-02-15T07:33:15.000Z</time>
</trkpt>
<trkpt lat="45.8445070" lon="9.2285270">
	<ele>671.20</ele>
	<time>2025-02-15T07:33:16.000Z</time>
</trkpt>
<trkpt lat="45.8445160" lon="9.2285280">
	<ele>671.20</ele>
	<time>2025-02-15T07:33:17.000Z</time>
</trkpt>
<trkpt lat="45.8445180" lon="9.2285300">
	<ele>671.40</ele>
	<time>2025-02-15T07:33:18.000Z</time>
</trkpt>
<trkpt lat="45.8445190" lon="9.2285320">
	<ele>671.40</ele>
	<time>2025-02-15T07:33:19.000Z</time>
</trkpt>
<trkpt lat="45.8445170" lon="9.2285170">
	<ele>671.40</ele>
	<time>2025-02-15T07:33:20.000Z</time>
</trkpt>
<trkpt lat="45.8445170" lon="9.2285210">
	<ele>671.60</ele>
	<time>2025-02-15T07:33:21.000Z</time>
</trkpt>
<trkpt lat="45.8445300" lon="9.2285330">
	<ele>671.60</ele>
	<time>2025-02-15T07:33:22.000Z</time>
</trkpt>
<trkpt lat="45.8445300" lon="9.2285190">
	<ele>672.00</ele>
	<time>2025-02-15T07:33:23.000Z</time>
</trkpt>
<trkpt lat="45.8445300" lon="9.2285070">
	<ele>672.00</ele>
	<time>2025-02-15T07:33:24.000Z</time>
</trkpt>
<trkpt lat="45.8445340" lon="9.2285110">
	<ele>672.20</ele>
	<time>2025-02-15T07:33:25.000Z</time>
</trkpt>
<trkpt lat="45.8445370" lon="9.2285190">
	<ele>672.20</ele>
	<time>2025-02-15T07:33:26.000Z</time>
</trkpt>
<trkpt lat="45.8445360" lon="9.2285190">
	<ele>672.60</ele>
	<time>2025-02-15T07:33:27.000Z</time>
</trkpt>
<trkpt lat="45.8445290" lon="9.2285170">
	<ele>672.60</ele>
	<time>2025-02-15T07:33:28.000Z</time>
</trkpt>
<trkpt lat="45.8445310" lon="9.2285150">
	<ele>672.80</ele>
	<time>2025-02-15T07:33:29.000Z</time>
</trkpt>
<trkpt lat="45.8445430" lon="9.2285240">
	<ele>673.00</ele>
	<time>2025-02-15T07:33:30.000Z</time>
</trkpt>
<trkpt lat="45.8445460" lon="9.2285370">
	<ele>673.00</ele>
	<time>2025-02-15T07:33:31.000Z</time>
</trkpt>
<trkpt lat="45.8445490" lon="9.2285390">
	<ele>673.20</ele>
	<time>2025-02-15T07:33:32.000Z</time>
</trkpt>
<trkpt lat="45.8445510" lon="9.2285420">
	<ele>673.40</ele>
	<time>2025-02-15T07:33:33.000Z</time>
</trkpt>
<trkpt lat="45.8445580" lon="9.2285360">
	<ele>673.40</ele>
	<time>2025-02-15T07:33:34.000Z</time>
</trkpt>
<trkpt lat="45.8445630" lon="9.2285330">
	<ele>673.60</ele>
	<time>2025-02-15T07:33:35.000Z</time>
</trkpt>
<trkpt lat="45.8445750" lon="9.2285240">
	<ele>673.80</ele>
	<time>2025-02-15T07:33:36.000Z</time>
</trkpt>
<trkpt lat="45.8445720" lon="9.2285190">
	<ele>674.00</ele>
	<time>2025-02-15T07:33:37.000Z</time>
</trkpt>
<trkpt lat="45.8445720" lon="9.2285170">
	<ele>674.00</ele>
	<time>2025-02-15T07:33:38.000Z</time>
</trkpt>
<trkpt lat="45.8445760" lon="9.2285180">
	<ele>674.20</ele>
	<time>2025-02-15T07:33:39.000Z</time>
</trkpt>
<trkpt lat="45.8445770" lon="9.2285220">
	<ele>674.20</ele>
	<time>2025-02-15T07:33:40.000Z</time>
</trkpt>
<trkpt lat="45.8445790" lon="9.2285290">
	<ele>674.20</ele>
	<time>2025-02-15T07:33:41.000Z</time>
</trkpt>
<trkpt lat="45.8445860" lon="9.2285260">
	<ele>674.40</ele>
	<time>2025-02-15T07:33:42.000Z</time>
</trkpt>
<trkpt lat="45.8445900" lon="9.2285280">
	<ele>674.40</ele>
	<time>2025-02-15T07:33:43.000Z</time>
</trkpt>
<trkpt lat="45.8445900" lon="9.2285280">
	<ele>674.40</ele>
	<time>2025-02-15T07:33:44.000Z</time>
</trkpt>
<trkpt lat="45.8445900" lon="9.2285200">
	<ele>674.60</ele>
	<time>2025-02-15T07:33:45.000Z</time>
</trkpt>
<trkpt lat="45.8445910" lon="9.2285190">
	<ele>674.60</ele>
	<time>2025-02-15T07:33:46.000Z</time>
</trkpt>
<trkpt lat="45.8445960" lon="9.2285290">
	<ele>674.60</ele>
	<time>2025-02-15T07:33:47.000Z</time>
</trkpt>
<trkpt lat="45.8445950" lon="9.2285300">
	<ele>674.80</ele>
	<time>2025-02-15T07:33:48.000Z</time>
</trkpt>
<trkpt lat="45.8446040" lon="9.2285410">
	<ele>675.00</ele>
	<time>2025-02-15T07:33:49.000Z</time>
</trkpt>
<trkpt lat="45.8445980" lon="9.2285380">
	<ele>675.20</ele>
	<time>2025-02-15T07:33:50.000Z</time>
</trkpt>
<trkpt lat="45.8445960" lon="9.2285380">
	<ele>675.20</ele>
	<time>2025-02-15T07:33:51.000Z</time>
</trkpt>
<trkpt lat="45.8446010" lon="9.2285390">
	<ele>675.20</ele>
	<time>2025-02-15T07:33:52.000Z</time>
</trkpt>
<trkpt lat="45.8446040" lon="9.2285360">
	<ele>675.40</ele>
	<time>2025-02-15T07:33:53.000Z</time>
</trkpt>
<trkpt lat="45.8446080" lon="9.2285310">
	<ele>675.60</ele>
	<time>2025-02-15T07:33:54.000Z</time>
</trkpt>
<trkpt lat="45.8446140" lon="9.2285300">
	<ele>675.60</ele>
	<time>2025-02-15T07:33:55.000Z</time>
</trkpt>
<trkpt lat="45.8446250" lon="9.2285330">
	<ele>675.60</ele>
	<time>2025-02-15T07:33:56.000Z</time>
</trkpt>
<trkpt lat="45.8446300" lon="9.2285360">
	<ele>675.80</ele>
	<time>2025-02-15T07:33:57.000Z</time>
</trkpt>
<trkpt lat="45.8446260" lon="9.2285280">
	<ele>675.80</ele>
	<time>2025-02-15T07:33:58.000Z</time>
</trkpt>
<trkpt lat="45.8446250" lon="9.2285230">
	<ele>675.80</ele>
	<time>2025-02-15T07:33:59.000Z</time>
</trkpt>
<trkpt lat="45.8446240" lon="9.2285210">
	<ele>675.80</ele>
	<time>2025-02-15T07:34:00.000Z</time>
</trkpt>
<trkpt lat="45.8446230" lon="9.2285230">
	<ele>675.80</ele>
	<time>2025-02-15T07:34:01.000Z</time>
</trkpt>
<trkpt lat="45.8446230" lon="9.2285230">
	<ele>675.80</ele>
	<time>2025-02-15T07:34:02.000Z</time>
</trkpt>
<trkpt lat="45.8446230" lon="9.2285220">
	<ele>675.80</ele>
	<time>2025-02-15T07:34:03.000Z</time>
</trkpt>
<trkpt lat="45.8446350" lon="9.2285120">
	<ele>675.80</ele>
	<time>2025-02-15T07:34:04.000Z</time>
</trkpt>
<trkpt lat="45.8446460" lon="9.2284940">
	<ele>675.80</ele>
	<time>2025-02-15T07:34:05.000Z</time>
</trkpt>
<trkpt lat="45.8446640" lon="9.2284350">
	<ele>675.80</ele>
	<time>2025-02-15T07:34:06.000Z</time>
</trkpt>
<trkpt lat="45.8446730" lon="9.2284110">
	<ele>675.80</ele>
	<time>2025-02-15T07:34:07.000Z</time>
</trkpt>
<trkpt lat="45.8446790" lon="9.2283910">
	<ele>675.80</ele>
	<time>2025-02-15T07:34:08.000Z</time>
</trkpt>
<trkpt lat="45.8446860" lon="9.2283960">
	<ele>675.80</ele>
	<time>2025-02-15T07:34:09.000Z</time>
</trkpt>
<trkpt lat="45.8446900" lon="9.2284120">
	<ele>675.80</ele>
	<time>2025-02-15T07:34:10.000Z</time>
</trkpt>
<trkpt lat="45.8446960" lon="9.2284300">
	<ele>675.80</ele>
	<time>2025-02-15T07:34:11.000Z</time>
</trkpt>
<trkpt lat="45.8447000" lon="9.2284280">
	<ele>675.80</ele>
	<time>2025-02-15T07:34:12.000Z</time>
</trkpt>
<trkpt lat="45.8446990" lon="9.2284270">
	<ele>675.80</ele>
	<time>2025-02-15T07:34:13.000Z</time>
</trkpt>
<trkpt lat="45.8446830" lon="9.2284330">
	<ele>675.80</ele>
	<time>2025-02-15T07:34:14.000Z</time>
</trkpt>
<trkpt lat="45.8446790" lon="9.2284300">
	<ele>675.80</ele>
	<time>2025-02-15T07:34:15.000Z</time>
</trkpt>
<trkpt lat="45.8446790" lon="9.2284290">
	<ele>676.00</ele>
	<time>2025-02-15T07:34:16.000Z</time>
</trkpt>
<trkpt lat="45.8446750" lon="9.2284250">
	<ele>676.20</ele>
	<time>2025-02-15T07:34:17.000Z</time>
</trkpt>
<trkpt lat="45.8446700" lon="9.2284150">
	<ele>676.60</ele>
	<time>2025-02-15T07:34:18.000Z</time>
</trkpt>
<trkpt lat="45.8446680" lon="9.2284050">
	<ele>676.80</ele>
	<time>2025-02-15T07:34:19.000Z</time>
</trkpt>
<trkpt lat="45.8446660" lon="9.2284010">
	<ele>676.80</ele>
	<time>2025-02-15T07:34:20.000Z</time>
</trkpt>
<trkpt lat="45.8446680" lon="9.2283990">
	<ele>676.80</ele>
	<time>2025-02-15T07:34:21.000Z</time>
</trkpt>
<trkpt lat="45.8446660" lon="9.2283990">
	<ele>677.00</ele>
	<time>2025-02-15T07:34:22.000Z</time>
</trkpt>
<trkpt lat="45.8446630" lon="9.2283980">
	<ele>677.00</ele>
	<time>2025-02-15T07:34:23.000Z</time>
</trkpt>
<trkpt lat="45.8446630" lon="9.2283990">
	<ele>676.80</ele>
	<time>2025-02-15T07:34:24.000Z</time>
</trkpt>
<trkpt lat="45.8446640" lon="9.2283990">
	<ele>676.80</ele>
	<time>2025-02-15T07:34:25.000Z</time>
</trkpt>
<trkpt lat="45.8446660" lon="9.2283980">
	<ele>676.80</ele>
	<time>2025-02-15T07:34:26.000Z</time>
</trkpt>
<trkpt lat="45.8446660" lon="9.2283950">
	<ele>677.00</ele>
	<time>2025-02-15T07:34:27.000Z</time>
</trkpt>
<trkpt lat="45.8446650" lon="9.2283960">
	<ele>677.00</ele>
	<time>2025-02-15T07:34:28.000Z</time>
</trkpt>
<trkpt lat="45.8446790" lon="9.2284020">
	<ele>677.20</ele>
	<time>2025-02-15T07:34:29.000Z</time>
</trkpt>
<trkpt lat="45.8447000" lon="9.2284120">
	<ele>677.20</ele>
	<time>2025-02-15T07:34:30.000Z</time>
</trkpt>
<trkpt lat="45.8447170" lon="9.2284200">
	<ele>677.40</ele>
	<time>2025-02-15T07:34:31.000Z</time>
</trkpt>
<trkpt lat="45.8447270" lon="9.2284270">
	<ele>677.60</ele>
	<time>2025-02-15T07:34:32.000Z</time>
</trkpt>
<trkpt lat="45.8447190" lon="9.2284230">
	<ele>677.80</ele>
	<time>2025-02-15T07:34:33.000Z</time>
</trkpt>
<trkpt lat="45.8447160" lon="9.2284360">
	<ele>678.00</ele>
	<time>2025-02-15T07:34:34.000Z</time>
</trkpt>
<trkpt lat="45.8447160" lon="9.2284520">
	<ele>678.20</ele>
	<time>2025-02-15T07:34:35.000Z</time>
</trkpt>
<trkpt lat="45.8447180" lon="9.2284480">
	<ele>678.20</ele>
	<time>2025-02-15T07:34:36.000Z</time>
</trkpt>
<trkpt lat="45.8447120" lon="9.2284420">
	<ele>678.20</ele>
	<time>2025-02-15T07:34:37.000Z</time>
</trkpt>
<trkpt lat="45.8447130" lon="9.2284350">
	<ele>678.20</ele>
	<time>2025-02-15T07:34:38.000Z</time>
</trkpt>
<trkpt lat="45.8447200" lon="9.2284350">
	<ele>678.20</ele>
	<time>2025-02-15T07:34:39.000Z</time>
</trkpt>
<trkpt lat="45.8447230" lon="9.2284370">
	<ele>678.20</ele>
	<time>2025-02-15T07:34:40.000Z</time>
</trkpt>
<trkpt lat="45.8447280" lon="9.2284360">
	<ele>678.20</ele>
	<time>2025-02-15T07:34:41.000Z</time>
</trkpt>
<trkpt lat="45.8447290" lon="9.2284330">
	<ele>678.40</ele>
	<time>2025-02-15T07:34:42.000Z</time>
</trkpt>
<trkpt lat="45.8447280" lon="9.2284360">
	<ele>678.40</ele>
	<time>2025-02-15T07:34:43.000Z</time>
</trkpt>
<trkpt lat="45.8447260" lon="9.2284450">
	<ele>678.60</ele>
	<time>2025-02-15T07:34:44.000Z</time>
</trkpt>
<trkpt lat="45.8447260" lon="9.2284460">
	<ele>678.80</ele>
	<time>2025-02-15T07:34:45.000Z</time>
</trkpt>
<trkpt lat="45.8447250" lon="9.2284420">
	<ele>679.00</ele>
	<time>2025-02-15T07:34:46.000Z</time>
</trkpt>
<trkpt lat="45.8447270" lon="9.2284310">
	<ele>679.00</ele>
	<time>2025-02-15T07:34:47.000Z</time>
</trkpt>
<trkpt lat="45.8447350" lon="9.2284250">
	<ele>679.00</ele>
	<time>2025-02-15T07:34:48.000Z</time>
</trkpt>
<trkpt lat="45.8447370" lon="9.2284280">
	<ele>679.00</ele>
	<time>2025-02-15T07:34:49.000Z</time>
</trkpt>
<trkpt lat="45.8447300" lon="9.2284320">
	<ele>679.00</ele>
	<time>2025-02-15T07:34:50.000Z</time>
</trkpt>
<trkpt lat="45.8447310" lon="9.2284410">
	<ele>679.20</ele>
	<time>2025-02-15T07:34:51.000Z</time>
</trkpt>
<trkpt lat="45.8447310" lon="9.2284440">
	<ele>679.40</ele>
	<time>2025-02-15T07:34:52.000Z</time>
</trkpt>
<trkpt lat="45.8447350" lon="9.2284550">
	<ele>679.60</ele>
	<time>2025-02-15T07:34:53.000Z</time>
</trkpt>
<trkpt lat="45.8447350" lon="9.2284580">
	<ele>679.80</ele>
	<time>2025-02-15T07:34:54.000Z</time>
</trkpt>
<trkpt lat="45.8447300" lon="9.2284720">
	<ele>679.80</ele>
	<time>2025-02-15T07:34:55.000Z</time>
</trkpt>
<trkpt lat="45.8447280" lon="9.2284870">
	<ele>680.00</ele>
	<time>2025-02-15T07:34:56.000Z</time>
</trkpt>
<trkpt lat="45.8447220" lon="9.2284990">
	<ele>680.00</ele>
	<time>2025-02-15T07:34:57.000Z</time>
</trkpt>
<trkpt lat="45.8447200" lon="9.2285090">
	<ele>680.00</ele>
	<time>2025-02-15T07:34:58.000Z</time>
</trkpt>
<trkpt lat="45.8447180" lon="9.2285140">
	<ele>680.00</ele>
	<time>2025-02-15T07:34:59.000Z</time>
</trkpt>
<trkpt lat="45.8447160" lon="9.2285160">
	<ele>680.00</ele>
	<time>2025-02-15T07:35:00.000Z</time>
</trkpt>
<trkpt lat="45.8447170" lon="9.2285210">
	<ele>680.00</ele>
	<time>2025-02-15T07:35:01.000Z</time>
</trkpt>
<trkpt lat="45.8447150" lon="9.2285190">
	<ele>680.00</ele>
	<time>2025-02-15T07:35:02.000Z</time>
</trkpt>
<trkpt lat="45.8447110" lon="9.2285160">
	<ele>680.00</ele>
	<time>2025-02-15T07:35:03.000Z</time>
</trkpt>
<trkpt lat="45.8447270" lon="9.2285000">
	<ele>680.00</ele>
	<time>2025-02-15T07:35:04.000Z</time>
</trkpt>
<trkpt lat="45.8447310" lon="9.2284970">
	<ele>680.00</ele>
	<time>2025-02-15T07:35:05.000Z</time>
</trkpt>
<trkpt lat="45.8447310" lon="9.2284970">
	<ele>680.20</ele>
	<time>2025-02-15T07:35:06.000Z</time>
</trkpt>
<trkpt lat="45.8447300" lon="9.2284910">
	<ele>680.40</ele>
	<time>2025-02-15T07:35:07.000Z</time>
</trkpt>
<trkpt lat="45.8447340" lon="9.2284750">
	<ele>680.40</ele>
	<time>2025-02-15T07:35:08.000Z</time>
</trkpt>
<trkpt lat="45.8447380" lon="9.2284560">
	<ele>680.60</ele>
	<time>2025-02-15T07:35:09.000Z</time>
</trkpt>
<trkpt lat="45.8447470" lon="9.2284600">
	<ele>680.60</ele>
	<time>2025-02-15T07:35:10.000Z</time>
</trkpt>
<trkpt lat="45.8447590" lon="9.2284660">
	<ele>680.60</ele>
	<time>2025-02-15T07:35:11.000Z</time>
</trkpt>
<trkpt lat="45.8447600" lon="9.2284650">
	<ele>680.60</ele>
	<time>2025-02-15T07:35:12.000Z</time>
</trkpt>
<trkpt lat="45.8447600" lon="9.2284650">
	<ele>680.60</ele>
	<time>2025-02-15T07:35:13.000Z</time>
</trkpt>
<trkpt lat="45.8447600" lon="9.2284650">
	<ele>680.80</ele>
	<time>2025-02-15T07:35:14.000Z</time>
</trkpt>
<trkpt lat="45.8447600" lon="9.2284650">
	<ele>680.80</ele>
	<time>2025-02-15T07:35:15.000Z</time>
</trkpt>
<trkpt lat="45.8447600" lon="9.2284650">
	<ele>680.80</ele>
	<time>2025-02-15T07:35:16.000Z</time>
</trkpt>
<trkpt lat="45.8447600" lon="9.2284650">
	<ele>681.00</ele>
	<time>2025-02-15T07:35:17.000Z</time>
</trkpt>
<trkpt lat="45.8447600" lon="9.2284650">
	<ele>681.20</ele>
	<time>2025-02-15T07:35:18.000Z</time>
</trkpt>
<trkpt lat="45.8447600" lon="9.2284650">
	<ele>681.40</ele>
	<time>2025-02-15T07:35:19.000Z</time>
</trkpt>
<trkpt lat="45.8447600" lon="9.2284650">
	<ele>681.40</ele>
	<time>2025-02-15T07:35:20.000Z</time>
</trkpt>
<trkpt lat="45.8447600" lon="9.2284650">
	<ele>681.60</ele>
	<time>2025-02-15T07:35:21.000Z</time>
</trkpt>
<trkpt lat="45.8447600" lon="9.2284650">
	<ele>681.80</ele>
	<time>2025-02-15T07:35:22.000Z</time>
</trkpt>
<trkpt lat="45.8447600" lon="9.2284650">
	<ele>682.00</ele>
	<time>2025-02-15T07:35:23.000Z</time>
</trkpt>
<trkpt lat="45.8447600" lon="9.2284650">
	<ele>682.00</ele>
	<time>2025-02-15T07:35:24.000Z</time>
</trkpt>
<trkpt lat="45.8447600" lon="9.2284650">
	<ele>682.20</ele>
	<time>2025-02-15T07:35:25.000Z</time>
</trkpt>
<trkpt lat="45.8447600" lon="9.2284650">
	<ele>682.40</ele>
	<time>2025-02-15T07:35:26.000Z</time>
</trkpt>
<trkpt lat="45.8447600" lon="9.2284650">
	<ele>682.40</ele>
	<time>2025-02-15T07:35:27.000Z</time>
</trkpt>
<trkpt lat="45.8447600" lon="9.2284650">
	<ele>682.60</ele>
	<time>2025-02-15T07:35:28.000Z</time>
</trkpt>
<trkpt lat="45.8447600" lon="9.2284650">
	<ele>682.60</ele>
	<time>2025-02-15T07:35:29.000Z</time>
</trkpt>
<trkpt lat="45.8447600" lon="9.2284650">
	<ele>682.80</ele>
	<time>2025-02-15T07:35:30.000Z</time>
</trkpt>
<trkpt lat="45.8447600" lon="9.2284650">
	<ele>682.80</ele>
	<time>2025-02-15T07:35:31.000Z</time>
</trkpt>
<trkpt lat="45.8447660" lon="9.2284660">
	<ele>683.00</ele>
	<time>2025-02-15T07:35:32.000Z</time>
</trkpt>
<trkpt lat="45.8447740" lon="9.2284670">
	<ele>683.60</ele>
	<time>2025-02-15T07:35:33.000Z</time>
</trkpt>
<trkpt lat="45.8447750" lon="9.2284670">
	<ele>683.80</ele>
	<time>2025-02-15T07:35:34.000Z</time>
</trkpt>
<trkpt lat="45.8447760" lon="9.2284670">
	<ele>684.00</ele>
	<time>2025-02-15T07:35:35.000Z</time>
</trkpt>
<trkpt lat="45.8447770" lon="9.2284670">
	<ele>684.20</ele>
	<time>2025-02-15T07:35:36.000Z</time>
</trkpt>
<trkpt lat="45.8447790" lon="9.2284670">
	<ele>684.40</ele>
	<time>2025-02-15T07:35:37.000Z</time>
</trkpt>
<trkpt lat="45.8447800" lon="9.2284670">
	<ele>684.40</ele>
	<time>2025-02-15T07:35:38.000Z</time>
</trkpt>
<trkpt lat="45.8447820" lon="9.2284670">
	<ele>684.40</ele>
	<time>2025-02-15T07:35:39.000Z</time>
</trkpt>
<trkpt lat="45.8447840" lon="9.2284680">
	<ele>684.60</ele>
	<time>2025-02-15T07:35:40.000Z</time>
</trkpt>
<trkpt lat="45.8447930" lon="9.2284830">
	<ele>684.60</ele>
	<time>2025-02-15T07:35:41.000Z</time>
</trkpt>
<trkpt lat="45.8448040" lon="9.2285090">
	<ele>684.80</ele>
	<time>2025-02-15T07:35:42.000Z</time>
</trkpt>
<trkpt lat="45.8448130" lon="9.2285260">
	<ele>684.80</ele>
	<time>2025-02-15T07:35:43.000Z</time>
</trkpt>
<trkpt lat="45.8448180" lon="9.2285290">
	<ele>684.80</ele>
	<time>2025-02-15T07:35:44.000Z</time>
</trkpt>
<trkpt lat="45.8448240" lon="9.2285320">
	<ele>685.00</ele>
	<time>2025-02-15T07:35:45.000Z</time>
</trkpt>
<trkpt lat="45.8448250" lon="9.2285330">
	<ele>685.20</ele>
	<time>2025-02-15T07:35:46.000Z</time>
</trkpt>
<trkpt lat="45.8448270" lon="9.2285340">
	<ele>685.20</ele>
	<time>2025-02-15T07:35:47.000Z</time>
</trkpt>
<trkpt lat="45.8448280" lon="9.2285350">
	<ele>685.40</ele>
	<time>2025-02-15T07:35:48.000Z</time>
</trkpt>
<trkpt lat="45.8448280" lon="9.2285370">
	<ele>685.60</ele>
	<time>2025-02-15T07:35:49.000Z</time>
</trkpt>
<trkpt lat="45.8448290" lon="9.2285370">
	<ele>685.80</ele>
	<time>2025-02-15T07:35:50.000Z</time>
</trkpt>
<trkpt lat="45.8448300" lon="9.2285380">
	<ele>686.00</ele>
	<time>2025-02-15T07:35:51.000Z</time>
</trkpt>
<trkpt lat="45.8448300" lon="9.2285390">
	<ele>686.00</ele>
	<time>2025-02-15T07:35:52.000Z</time>
</trkpt>
<trkpt lat="45.8448310" lon="9.2285390">
	<ele>686.20</ele>
	<time>2025-02-15T07:35:53.000Z</time>
</trkpt>
<trkpt lat="45.8448380" lon="9.2285400">
	<ele>686.20</ele>
	<time>2025-02-15T07:35:54.000Z</time>
</trkpt>
<trkpt lat="45.8448400" lon="9.2285410">
	<ele>686.20</ele>
	<time>2025-02-15T07:35:55.000Z</time>
</trkpt>
<trkpt lat="45.8448470" lon="9.2285420">
	<ele>686.40</ele>
	<time>2025-02-15T07:35:56.000Z</time>
</trkpt>
<trkpt lat="45.8448540" lon="9.2285420">
	<ele>686.60</ele>
	<time>2025-02-15T07:35:57.000Z</time>
</trkpt>
<trkpt lat="45.8448630" lon="9.2285440">
	<ele>686.80</ele>
	<time>2025-02-15T07:35:58.000Z</time>
</trkpt>
<trkpt lat="45.8448710" lon="9.2285440">
	<ele>687.00</ele>
	<time>2025-02-15T07:35:59.000Z</time>
</trkpt>
<trkpt lat="45.8448760" lon="9.2285440">
	<ele>687.00</ele>
	<time>2025-02-15T07:36:00.000Z</time>
</trkpt>
<trkpt lat="45.8448790" lon="9.2285540">
	<ele>687.40</ele>
	<time>2025-02-15T07:36:01.000Z</time>
</trkpt>
<trkpt lat="45.8448820" lon="9.2285620">
	<ele>687.40</ele>
	<time>2025-02-15T07:36:02.000Z</time>
</trkpt>
<trkpt lat="45.8448870" lon="9.2285670">
	<ele>687.60</ele>
	<time>2025-02-15T07:36:03.000Z</time>
</trkpt>
<trkpt lat="45.8448930" lon="9.2285730">
	<ele>687.60</ele>
	<time>2025-02-15T07:36:04.000Z</time>
</trkpt>
<trkpt lat="45.8448950" lon="9.2285750">
	<ele>687.80</ele>
	<time>2025-02-15T07:36:05.000Z</time>
</trkpt>
<trkpt lat="45.8448950" lon="9.2285760">
	<ele>688.00</ele>
	<time>2025-02-15T07:36:06.000Z</time>
</trkpt>
<trkpt lat="45.8448980" lon="9.2285780">
	<ele>688.40</ele>
	<time>2025-02-15T07:36:07.000Z</time>
</trkpt>
<trkpt lat="45.8449000" lon="9.2285810">
	<ele>688.60</ele>
	<time>2025-02-15T07:36:08.000Z</time>
</trkpt>
<trkpt lat="45.8449010" lon="9.2285840">
	<ele>688.60</ele>
	<time>2025-02-15T07:36:09.000Z</time>
</trkpt>
<trkpt lat="45.8449010" lon="9.2285860">
	<ele>688.60</ele>
	<time>2025-02-15T07:36:10.000Z</time>
</trkpt>
<trkpt lat="45.8449020" lon="9.2285900">
	<ele>688.40</ele>
	<time>2025-02-15T07:36:11.000Z</time>
</trkpt>
<trkpt lat="45.8449070" lon="9.2285960">
	<ele>688.40</ele>
	<time>2025-02-15T07:36:12.000Z</time>
</trkpt>
<trkpt lat="45.8449090" lon="9.2285980">
	<ele>688.40</ele>
	<time>2025-02-15T07:36:13.000Z</time>
</trkpt>
<trkpt lat="45.8449110" lon="9.2285990">
	<ele>688.40</ele>
	<time>2025-02-15T07:36:14.000Z</time>
</trkpt>
<trkpt lat="45.8449120" lon="9.2286000">
	<ele>688.40</ele>
	<time>2025-02-15T07:36:15.000Z</time>
</trkpt>
<trkpt lat="45.8449120" lon="9.2286000">
	<ele>688.40</ele>
	<time>2025-02-15T07:36:16.000Z</time>
</trkpt>
<trkpt lat="45.8449130" lon="9.2286000">
	<ele>688.40</ele>
	<time>2025-02-15T07:36:17.000Z</time>
</trkpt>
<trkpt lat="45.8449150" lon="9.2286000">
	<ele>688.40</ele>
	<time>2025-02-15T07:36:18.000Z</time>
</trkpt>
<trkpt lat="45.8449160" lon="9.2286000">
	<ele>688.40</ele>
	<time>2025-02-15T07:36:19.000Z</time>
</trkpt>
<trkpt lat="45.8449170" lon="9.2286000">
	<ele>688.40</ele>
	<time>2025-02-15T07:36:20.000Z</time>
</trkpt>
<trkpt lat="45.8449170" lon="9.2286000">
	<ele>688.20</ele>
	<time>2025-02-15T07:36:21.000Z</time>
</trkpt>
<trkpt lat="45.8449170" lon="9.2286000">
	<ele>688.20</ele>
	<time>2025-02-15T07:36:22.000Z</time>
</trkpt>
<trkpt lat="45.8449180" lon="9.2286000">
	<ele>688.20</ele>
	<time>2025-02-15T07:36:23.000Z</time>
</trkpt>
<trkpt lat="45.8449180" lon="9.2286000">
	<ele>688.20</ele>
	<time>2025-02-15T07:36:24.000Z</time>
</trkpt>
<trkpt lat="45.8449180" lon="9.2286000">
	<ele>688.00</ele>
	<time>2025-02-15T07:36:25.000Z</time>
</trkpt>
<trkpt lat="45.8449190" lon="9.2286000">
	<ele>688.20</ele>
	<time>2025-02-15T07:36:26.000Z</time>
</trkpt>
<trkpt lat="45.8449190" lon="9.2286000">
	<ele>688.20</ele>
	<time>2025-02-15T07:36:27.000Z</time>
</trkpt>
<trkpt lat="45.8449180" lon="9.2285960">
	<ele>688.20</ele>
	<time>2025-02-15T07:36:28.000Z</time>
</trkpt>
<trkpt lat="45.8449150" lon="9.2285970">
	<ele>688.20</ele>
	<time>2025-02-15T07:36:29.000Z</time>
</trkpt>
<trkpt lat="45.8449100" lon="9.2285930">
	<ele>688.20</ele>
	<time>2025-02-15T07:36:30.000Z</time>
</trkpt>
<trkpt lat="45.8449100" lon="9.2285900">
	<ele>688.20</ele>
	<time>2025-02-15T07:36:31.000Z</time>
</trkpt>
<trkpt lat="45.8449050" lon="9.2285860">
	<ele>688.20</ele>
	<time>2025-02-15T07:36:32.000Z</time>
</trkpt>
<trkpt lat="45.8449000" lon="9.2285800">
	<ele>688.40</ele>
	<time>2025-02-15T07:36:33.000Z</time>
</trkpt>
<trkpt lat="45.8448960" lon="9.2285830">
	<ele>688.40</ele>
	<time>2025-02-15T07:36:34.000Z</time>
</trkpt>
<trkpt lat="45.8448930" lon="9.2285840">
	<ele>688.40</ele>
	<time>2025-02-15T07:36:35.000Z</time>
</trkpt>
<trkpt lat="45.8448890" lon="9.2285850">
	<ele>688.60</ele>
	<time>2025-02-15T07:36:36.000Z</time>
</trkpt>
<trkpt lat="45.8448850" lon="9.2285790">
	<ele>688.60</ele>
	<time>2025-02-15T07:36:37.000Z</time>
</trkpt>
<trkpt lat="45.8448880" lon="9.2285770">
	<ele>688.60</ele>
	<time>2025-02-15T07:36:38.000Z</time>
</trkpt>
<trkpt lat="45.8448860" lon="9.2285750">
	<ele>688.60</ele>
	<time>2025-02-15T07:36:39.000Z</time>
</trkpt>
<trkpt lat="45.8448880" lon="9.2285760">
	<ele>688.60</ele>
	<time>2025-02-15T07:36:40.000Z</time>
</trkpt>
<trkpt lat="45.8448860" lon="9.2285790">
	<ele>688.60</ele>
	<time>2025-02-15T07:36:41.000Z</time>
</trkpt>
<trkpt lat="45.8448970" lon="9.2285940">
	<ele>688.60</ele>
	<time>2025-02-15T07:36:42.000Z</time>
</trkpt>
<trkpt lat="45.8448970" lon="9.2285970">
	<ele>688.80</ele>
	<time>2025-02-15T07:36:43.000Z</time>
</trkpt>
<trkpt lat="45.8448970" lon="9.2286000">
	<ele>688.80</ele>
	<time>2025-02-15T07:36:44.000Z</time>
</trkpt>
<trkpt lat="45.8449130" lon="9.2286030">
	<ele>689.00</ele>
	<time>2025-02-15T07:36:45.000Z</time>
</trkpt>
<trkpt lat="45.8449210" lon="9.2286040">
	<ele>689.00</ele>
	<time>2025-02-15T07:36:46.000Z</time>
</trkpt>
<trkpt lat="45.8449260" lon="9.2286080">
	<ele>689.20</ele>
	<time>2025-02-15T07:36:47.000Z</time>
</trkpt>
<trkpt lat="45.8449260" lon="9.2286100">
	<ele>689.40</ele>
	<time>2025-02-15T07:36:48.000Z</time>
</trkpt>
<trkpt lat="45.8449270" lon="9.2286140">
	<ele>689.40</ele>
	<time>2025-02-15T07:36:49.000Z</time>
</trkpt>
<trkpt lat="45.8449530" lon="9.2286310">
	<ele>689.60</ele>
	<time>2025-02-15T07:36:50.000Z</time>
</trkpt>
<trkpt lat="45.8449740" lon="9.2286490">
	<ele>689.60</ele>
	<time>2025-02-15T07:36:51.000Z</time>
</trkpt>
<trkpt lat="45.8449960" lon="9.2286690">
	<ele>689.80</ele>
	<time>2025-02-15T07:36:52.000Z</time>
</trkpt>
<trkpt lat="45.8450020" lon="9.2286780">
	<ele>690.00</ele>
	<time>2025-02-15T07:36:53.000Z</time>
</trkpt>
<trkpt lat="45.8450060" lon="9.2286950">
	<ele>690.20</ele>
	<time>2025-02-15T07:36:54.000Z</time>
</trkpt>
<trkpt lat="45.8450070" lon="9.2287030">
	<ele>690.20</ele>
	<time>2025-02-15T07:36:55.000Z</time>
</trkpt>
<trkpt lat="45.8450110" lon="9.2287160">
	<ele>690.20</ele>
	<time>2025-02-15T07:36:56.000Z</time>
</trkpt>
<trkpt lat="45.8450080" lon="9.2287190">
	<ele>690.20</ele>
	<time>2025-02-15T07:36:57.000Z</time>
</trkpt>
<trkpt lat="45.8450050" lon="9.2287200">
	<ele>690.40</ele>
	<time>2025-02-15T07:36:58.000Z</time>
</trkpt>
<trkpt lat="45.8450050" lon="9.2287220">
	<ele>690.40</ele>
	<time>2025-02-15T07:36:59.000Z</time>
</trkpt>
<trkpt lat="45.8450140" lon="9.2287380">
	<ele>690.40</ele>
	<time>2025-02-15T07:37:00.000Z</time>
</trkpt>
<trkpt lat="45.8450190" lon="9.2287480">
	<ele>690.60</ele>
	<time>2025-02-15T07:37:01.000Z</time>
</trkpt>
<trkpt lat="45.8450160" lon="9.2287560">
	<ele>690.80</ele>
	<time>2025-02-15T07:37:02.000Z</time>
</trkpt>
<trkpt lat="45.8450150" lon="9.2287630">
	<ele>691.00</ele>
	<time>2025-02-15T07:37:03.000Z</time>
</trkpt>
<trkpt lat="45.8450210" lon="9.2287710">
	<ele>691.20</ele>
	<time>2025-02-15T07:37:04.000Z</time>
</trkpt>
<trkpt lat="45.8450240" lon="9.2287800">
	<ele>691.40</ele>
	<time>2025-02-15T07:37:05.000Z</time>
</trkpt>
<trkpt lat="45.8450240" lon="9.2287810">
	<ele>691.60</ele>
	<time>2025-02-15T07:37:06.000Z</time>
</trkpt>
<trkpt lat="45.8450230" lon="9.2287830">
	<ele>691.80</ele>
	<time>2025-02-15T07:37:07.000Z</time>
</trkpt>
<trkpt lat="45.8450160" lon="9.2287860">
	<ele>691.80</ele>
	<time>2025-02-15T07:37:08.000Z</time>
</trkpt>
<trkpt lat="45.8450080" lon="9.2287860">
	<ele>691.80</ele>
	<time>2025-02-15T07:37:09.000Z</time>
</trkpt>
<trkpt lat="45.8450000" lon="9.2287960">
	<ele>692.00</ele>
	<time>2025-02-15T07:37:10.000Z</time>
</trkpt>
<trkpt lat="45.8449960" lon="9.2287970">
	<ele>692.20</ele>
	<time>2025-02-15T07:37:11.000Z</time>
</trkpt>
<trkpt lat="45.8449950" lon="9.2287970">
	<ele>692.40</ele>
	<time>2025-02-15T07:37:12.000Z</time>
</trkpt>
<trkpt lat="45.8449940" lon="9.2288000">
	<ele>692.60</ele>
	<time>2025-02-15T07:37:13.000Z</time>
</trkpt>
<trkpt lat="45.8449940" lon="9.2288020">
	<ele>692.60</ele>
	<time>2025-02-15T07:37:14.000Z</time>
</trkpt>
<trkpt lat="45.8449860" lon="9.2287990">
	<ele>692.80</ele>
	<time>2025-02-15T07:37:15.000Z</time>
</trkpt>
<trkpt lat="45.8449790" lon="9.2287970">
	<ele>693.00</ele>
	<time>2025-02-15T07:37:16.000Z</time>
</trkpt>
<trkpt lat="45.8449790" lon="9.2288050">
	<ele>693.00</ele>
	<time>2025-02-15T07:37:17.000Z</time>
</trkpt>
<trkpt lat="45.8449630" lon="9.2287910">
	<ele>693.20</ele>
	<time>2025-02-15T07:37:18.000Z</time>
</trkpt>
<trkpt lat="45.8449600" lon="9.2287890">
	<ele>693.20</ele>
	<time>2025-02-15T07:37:19.000Z</time>
</trkpt>
<trkpt lat="45.8449580" lon="9.2287900">
	<ele>693.60</ele>
	<time>2025-02-15T07:37:20.000Z</time>
</trkpt>
<trkpt lat="45.8449500" lon="9.2287910">
	<ele>693.60</ele>
	<time>2025-02-15T07:37:21.000Z</time>
</trkpt>
<trkpt lat="45.8449410" lon="9.2287910">
	<ele>693.80</ele>
	<time>2025-02-15T07:37:22.000Z</time>
</trkpt>
<trkpt lat="45.8449470" lon="9.2288030">
	<ele>694.00</ele>
	<time>2025-02-15T07:37:23.000Z</time>
</trkpt>
<trkpt lat="45.8449420" lon="9.2288070">
	<ele>694.20</ele>
	<time>2025-02-15T07:37:24.000Z</time>
</trkpt>
<trkpt lat="45.8449390" lon="9.2288100">
	<ele>694.20</ele>
	<time>2025-02-15T07:37:25.000Z</time>
</trkpt>
<trkpt lat="45.8449360" lon="9.2288130">
	<ele>694.40</ele>
	<time>2025-02-15T07:37:26.000Z</time>
</trkpt>
<trkpt lat="45.8449350" lon="9.2288160">
	<ele>694.40</ele>
	<time>2025-02-15T07:37:27.000Z</time>
</trkpt>
<trkpt lat="45.8449350" lon="9.2288250">
	<ele>694.60</ele>
	<time>2025-02-15T07:37:28.000Z</time>
</trkpt>
<trkpt lat="45.8449350" lon="9.2288280">
	<ele>694.60</ele>
	<time>2025-02-15T07:37:29.000Z</time>
</trkpt>
<trkpt lat="45.8449330" lon="9.2288300">
	<ele>694.80</ele>
	<time>2025-02-15T07:37:30.000Z</time>
</trkpt>
<trkpt lat="45.8449260" lon="9.2288240">
	<ele>695.00</ele>
	<time>2025-02-15T07:37:31.000Z</time>
</trkpt>
<trkpt lat="45.8449190" lon="9.2288220">
	<ele>695.20</ele>
	<time>2025-02-15T07:37:32.000Z</time>
</trkpt>
<trkpt lat="45.8449180" lon="9.2288270">
	<ele>695.40</ele>
	<time>2025-02-15T07:37:33.000Z</time>
</trkpt>
<trkpt lat="45.8449130" lon="9.2288340">
	<ele>695.40</ele>
	<time>2025-02-15T07:37:34.000Z</time>
</trkpt>
<trkpt lat="45.8449080" lon="9.2288420">
	<ele>695.40</ele>
	<time>2025-02-15T07:37:35.000Z</time>
</trkpt>
<trkpt lat="45.8449060" lon="9.2288470">
	<ele>695.40</ele>
	<time>2025-02-15T07:37:36.000Z</time>
</trkpt>
<trkpt lat="45.8449000" lon="9.2288490">
	<ele>695.60</ele>
	<time>2025-02-15T07:37:37.000Z</time>
</trkpt>
<trkpt lat="45.8448990" lon="9.2288520">
	<ele>695.80</ele>
	<time>2025-02-15T07:37:38.000Z</time>
</trkpt>
<trkpt lat="45.8448970" lon="9.2288510">
	<ele>696.00</ele>
	<time>2025-02-15T07:37:39.000Z</time>
</trkpt>
<trkpt lat="45.8448970" lon="9.2288460">
	<ele>696.00</ele>
	<time>2025-02-15T07:37:40.000Z</time>
</trkpt>
<trkpt lat="45.8448970" lon="9.2288420">
	<ele>696.20</ele>
	<time>2025-02-15T07:37:41.000Z</time>
</trkpt>
<trkpt lat="45.8448970" lon="9.2288420">
	<ele>696.20</ele>
	<time>2025-02-15T07:37:42.000Z</time>
</trkpt>
<trkpt lat="45.8448950" lon="9.2288420">
	<ele>696.20</ele>
	<time>2025-02-15T07:37:43.000Z</time>
</trkpt>
<trkpt lat="45.8448910" lon="9.2288380">
	<ele>696.20</ele>
	<time>2025-02-15T07:37:44.000Z</time>
</trkpt>
<trkpt lat="45.8448860" lon="9.2288370">
	<ele>696.40</ele>
	<time>2025-02-15T07:37:45.000Z</time>
</trkpt>
<trkpt lat="45.8448830" lon="9.2288430">
	<ele>696.40</ele>
	<time>2025-02-15T07:37:46.000Z</time>
</trkpt>
<trkpt lat="45.8448820" lon="9.2288540">
	<ele>696.40</ele>
	<time>2025-02-15T07:37:47.000Z</time>
</trkpt>
<trkpt lat="45.8448830" lon="9.2288610">
	<ele>696.60</ele>
	<time>2025-02-15T07:37:48.000Z</time>
</trkpt>
<trkpt lat="45.8448820" lon="9.2288680">
	<ele>696.60</ele>
	<time>2025-02-15T07:37:49.000Z</time>
</trkpt>
<trkpt lat="45.8448850" lon="9.2288730">
	<ele>696.80</ele>
	<time>2025-02-15T07:37:50.000Z</time>
</trkpt>
<trkpt lat="45.8448840" lon="9.2288780">
	<ele>697.00</ele>
	<time>2025-02-15T07:37:51.000Z</time>
</trkpt>
<trkpt lat="45.8448800" lon="9.2288800">
	<ele>697.20</ele>
	<time>2025-02-15T07:37:52.000Z</time>
</trkpt>
<trkpt lat="45.8448770" lon="9.2288860">
	<ele>697.40</ele>
	<time>2025-02-15T07:37:53.000Z</time>
</trkpt>
<trkpt lat="45.8448780" lon="9.2288980">
	<ele>697.40</ele>
	<time>2025-02-15T07:37:54.000Z</time>
</trkpt>
<trkpt lat="45.8448780" lon="9.2289050">
	<ele>697.60</ele>
	<time>2025-02-15T07:37:55.000Z</time>
</trkpt>
<trkpt lat="45.8448840" lon="9.2289230">
	<ele>697.80</ele>
	<time>2025-02-15T07:37:56.000Z</time>
</trkpt>
<trkpt lat="45.8448750" lon="9.2289300">
	<ele>697.80</ele>
	<time>2025-02-15T07:37:57.000Z</time>
</trkpt>
<trkpt lat="45.8448710" lon="9.2289350">
	<ele>698.00</ele>
	<time>2025-02-15T07:37:58.000Z</time>
</trkpt>
<trkpt lat="45.8448710" lon="9.2289400">
	<ele>698.20</ele>
	<time>2025-02-15T07:37:59.000Z</time>
</trkpt>
<trkpt lat="45.8448690" lon="9.2289440">
	<ele>698.40</ele>
	<time>2025-02-15T07:38:00.000Z</time>
</trkpt>
<trkpt lat="45.8448670" lon="9.2289420">
	<ele>698.40</ele>
	<time>2025-02-15T07:38:01.000Z</time>
</trkpt>
<trkpt lat="45.8448650" lon="9.2289480">
	<ele>698.60</ele>
	<time>2025-02-15T07:38:02.000Z</time>
</trkpt>
<trkpt lat="45.8448590" lon="9.2289400">
	<ele>698.60</ele>
	<time>2025-02-15T07:38:03.000Z</time>
</trkpt>
<trkpt lat="45.8448570" lon="9.2289450">
	<ele>698.80</ele>
	<time>2025-02-15T07:38:04.000Z</time>
</trkpt>
<trkpt lat="45.8448560" lon="9.2289550">
	<ele>698.80</ele>
	<time>2025-02-15T07:38:05.000Z</time>
</trkpt>
<trkpt lat="45.8448570" lon="9.2289590">
	<ele>699.00</ele>
	<time>2025-02-15T07:38:06.000Z</time>
</trkpt>
<trkpt lat="45.8448570" lon="9.2289650">
	<ele>699.00</ele>
	<time>2025-02-15T07:38:07.000Z</time>
</trkpt>
<trkpt lat="45.8448540" lon="9.2289700">
	<ele>699.00</ele>
	<time>2025-02-15T07:38:08.000Z</time>
</trkpt>
<trkpt lat="45.8448410" lon="9.2289640">
	<ele>699.20</ele>
	<time>2025-02-15T07:38:09.000Z</time>
</trkpt>
<trkpt lat="45.8448340" lon="9.2289640">
	<ele>699.40</ele>
	<time>2025-02-15T07:38:10.000Z</time>
</trkpt>
<trkpt lat="45.8448300" lon="9.2289660">
	<ele>699.40</ele>
	<time>2025-02-15T07:38:11.000Z</time>
</trkpt>
<trkpt lat="45.8448280" lon="9.2289690">
	<ele>699.40</ele>
	<time>2025-02-15T07:38:12.000Z</time>
</trkpt>
<trkpt lat="45.8448260" lon="9.2289650">
	<ele>699.40</ele>
	<time>2025-02-15T07:38:13.000Z</time>
</trkpt>
<trkpt lat="45.8448240" lon="9.2289650">
	<ele>699.60</ele>
	<time>2025-02-15T07:38:14.000Z</time>
</trkpt>
<trkpt lat="45.8448250" lon="9.2289670">
	<ele>699.60</ele>
	<time>2025-02-15T07:38:15.000Z</time>
</trkpt>
<trkpt lat="45.8448240" lon="9.2289690">
	<ele>699.80</ele>
	<time>2025-02-15T07:38:16.000Z</time>
</trkpt>
<trkpt lat="45.8448230" lon="9.2289730">
	<ele>699.80</ele>
	<time>2025-02-15T07:38:17.000Z</time>
</trkpt>
<trkpt lat="45.8448200" lon="9.2289740">
	<ele>700.00</ele>
	<time>2025-02-15T07:38:18.000Z</time>
</trkpt>
<trkpt lat="45.8448150" lon="9.2289740">
	<ele>700.20</ele>
	<time>2025-02-15T07:38:19.000Z</time>
</trkpt>
<trkpt lat="45.8448090" lon="9.2289730">
	<ele>700.20</ele>
	<time>2025-02-15T07:38:20.000Z</time>
</trkpt>
<trkpt lat="45.8448050" lon="9.2289670">
	<ele>700.40</ele>
	<time>2025-02-15T07:38:21.000Z</time>
</trkpt>
<trkpt lat="45.8448020" lon="9.2289580">
	<ele>700.40</ele>
	<time>2025-02-15T07:38:22.000Z</time>
</trkpt>
<trkpt lat="45.8448000" lon="9.2289540">
	<ele>700.60</ele>
	<time>2025-02-15T07:38:23.000Z</time>
</trkpt>
<trkpt lat="45.8447940" lon="9.2289490">
	<ele>700.80</ele>
	<time>2025-02-15T07:38:24.000Z</time>
</trkpt>
<trkpt lat="45.8447860" lon="9.2289480">
	<ele>701.00</ele>
	<time>2025-02-15T07:38:25.000Z</time>
</trkpt>
<trkpt lat="45.8447840" lon="9.2289510">
	<ele>701.20</ele>
	<time>2025-02-15T07:38:26.000Z</time>
</trkpt>
<trkpt lat="45.8447800" lon="9.2289560">
	<ele>701.20</ele>
	<time>2025-02-15T07:38:27.000Z</time>
</trkpt>
<trkpt lat="45.8447700" lon="9.2289520">
	<ele>701.40</ele>
	<time>2025-02-15T07:38:28.000Z</time>
</trkpt>
<trkpt lat="45.8447650" lon="9.2289530">
	<ele>701.60</ele>
	<time>2025-02-15T07:38:29.000Z</time>
</trkpt>
<trkpt lat="45.8447610" lon="9.2289560">
	<ele>701.80</ele>
	<time>2025-02-15T07:38:30.000Z</time>
</trkpt>
<trkpt lat="45.8447560" lon="9.2289540">
	<ele>701.80</ele>
	<time>2025-02-15T07:38:31.000Z</time>
</trkpt>
<trkpt lat="45.8447550" lon="9.2289570">
	<ele>702.00</ele>
	<time>2025-02-15T07:38:32.000Z</time>
</trkpt>
<trkpt lat="45.8447520" lon="9.2289650">
	<ele>702.20</ele>
	<time>2025-02-15T07:38:33.000Z</time>
</trkpt>
<trkpt lat="45.8447470" lon="9.2289670">
	<ele>702.40</ele>
	<time>2025-02-15T07:38:34.000Z</time>
</trkpt>
<trkpt lat="45.8447440" lon="9.2289660">
	<ele>702.60</ele>
	<time>2025-02-15T07:38:35.000Z</time>
</trkpt>
<trkpt lat="45.8447420" lon="9.2289670">
	<ele>702.60</ele>
	<time>2025-02-15T07:38:36.000Z</time>
</trkpt>
<trkpt lat="45.8447400" lon="9.2289700">
	<ele>702.60</ele>
	<time>2025-02-15T07:38:37.000Z</time>
</trkpt>
<trkpt lat="45.8447390" lon="9.2289580">
	<ele>703.00</ele>
	<time>2025-02-15T07:38:38.000Z</time>
</trkpt>
<trkpt lat="45.8447370" lon="9.2289540">
	<ele>703.20</ele>
	<time>2025-02-15T07:38:39.000Z</time>
</trkpt>
<trkpt lat="45.8447350" lon="9.2289530">
	<ele>703.20</ele>
	<time>2025-02-15T07:38:40.000Z</time>
</trkpt>
<trkpt lat="45.8447310" lon="9.2289530">
	<ele>703.40</ele>
	<time>2025-02-15T07:38:41.000Z</time>
</trkpt>
<trkpt lat="45.8447290" lon="9.2289540">
	<ele>703.40</ele>
	<time>2025-02-15T07:38:42.000Z</time>
</trkpt>
<trkpt lat="45.8447260" lon="9.2289560">
	<ele>703.40</ele>
	<time>2025-02-15T07:38:43.000Z</time>
</trkpt>
<trkpt lat="45.8447230" lon="9.2289570">
	<ele>703.60</ele>
	<time>2025-02-15T07:38:44.000Z</time>
</trkpt>
<trkpt lat="45.8447300" lon="9.2289460">
	<ele>703.80</ele>
	<time>2025-02-15T07:38:45.000Z</time>
</trkpt>
<trkpt lat="45.8447230" lon="9.2289440">
	<ele>704.00</ele>
	<time>2025-02-15T07:38:46.000Z</time>
</trkpt>
<trkpt lat="45.8447200" lon="9.2289390">
	<ele>704.20</ele>
	<time>2025-02-15T07:38:47.000Z</time>
</trkpt>
<trkpt lat="45.8447180" lon="9.2289350">
	<ele>704.40</ele>
	<time>2025-02-15T07:38:48.000Z</time>
</trkpt>
<trkpt lat="45.8447160" lon="9.2289360">
	<ele>704.60</ele>
	<time>2025-02-15T07:38:49.000Z</time>
</trkpt>
<trkpt lat="45.8447170" lon="9.2289440">
	<ele>704.80</ele>
	<time>2025-02-15T07:38:50.000Z</time>
</trkpt>
<trkpt lat="45.8447190" lon="9.2289470">
	<ele>705.00</ele>
	<time>2025-02-15T07:38:51.000Z</time>
</trkpt>
<trkpt lat="45.8447210" lon="9.2289570">
	<ele>705.20</ele>
	<time>2025-02-15T07:38:52.000Z</time>
</trkpt>
<trkpt lat="45.8447230" lon="9.2289590">
	<ele>705.20</ele>
	<time>2025-02-15T07:38:53.000Z</time>
</trkpt>
<trkpt lat="45.8447220" lon="9.2289630">
	<ele>705.40</ele>
	<time>2025-02-15T07:38:54.000Z</time>
</trkpt>
<trkpt lat="45.8447200" lon="9.2289740">
	<ele>705.40</ele>
	<time>2025-02-15T07:38:55.000Z</time>
</trkpt>
<trkpt lat="45.8447170" lon="9.2289890">
	<ele>705.40</ele>
	<time>2025-02-15T07:38:56.000Z</time>
</trkpt>
<trkpt lat="45.8447130" lon="9.2289990">
	<ele>705.40</ele>
	<time>2025-02-15T07:38:57.000Z</time>
</trkpt>
<trkpt lat="45.8447100" lon="9.2290200">
	<ele>705.60</ele>
	<time>2025-02-15T07:38:58.000Z</time>
</trkpt>
<trkpt lat="45.8447040" lon="9.2290340">
	<ele>705.60</ele>
	<time>2025-02-15T07:38:59.000Z</time>
</trkpt>
<trkpt lat="45.8446960" lon="9.2290390">
	<ele>705.80</ele>
	<time>2025-02-15T07:39:00.000Z</time>
</trkpt>
<trkpt lat="45.8446920" lon="9.2290440">
	<ele>706.00</ele>
	<time>2025-02-15T07:39:01.000Z</time>
</trkpt>
<trkpt lat="45.8446900" lon="9.2290490">
	<ele>706.40</ele>
	<time>2025-02-15T07:39:02.000Z</time>
</trkpt>
<trkpt lat="45.8446900" lon="9.2290510">
	<ele>706.40</ele>
	<time>2025-02-15T07:39:03.000Z</time>
</trkpt>
<trkpt lat="45.8446890" lon="9.2290550">
	<ele>706.60</ele>
	<time>2025-02-15T07:39:04.000Z</time>
</trkpt>
<trkpt lat="45.8446920" lon="9.2290620">
	<ele>706.60</ele>
	<time>2025-02-15T07:39:05.000Z</time>
</trkpt>
<trkpt lat="45.8446960" lon="9.2290820">
	<ele>706.80</ele>
	<time>2025-02-15T07:39:06.000Z</time>
</trkpt>
<trkpt lat="45.8446980" lon="9.2291080">
	<ele>706.80</ele>
	<time>2025-02-15T07:39:07.000Z</time>
</trkpt>
<trkpt lat="45.8446960" lon="9.2291150">
	<ele>707.00</ele>
	<time>2025-02-15T07:39:08.000Z</time>
</trkpt>
<trkpt lat="45.8446880" lon="9.2290970">
	<ele>707.00</ele>
	<time>2025-02-15T07:39:09.000Z</time>
</trkpt>
<trkpt lat="45.8446870" lon="9.2290860">
	<ele>707.00</ele>
	<time>2025-02-15T07:39:10.000Z</time>
</trkpt>
<trkpt lat="45.8446800" lon="9.2290890">
	<ele>707.20</ele>
	<time>2025-02-15T07:39:11.000Z</time>
</trkpt>
<trkpt lat="45.8446770" lon="9.2290870">
	<ele>707.20</ele>
	<time>2025-02-15T07:39:12.000Z</time>
</trkpt>
<trkpt lat="45.8446770" lon="9.2290850">
	<ele>707.40</ele>
	<time>2025-02-15T07:39:13.000Z</time>
</trkpt>
<trkpt lat="45.8446790" lon="9.2290870">
	<ele>707.60</ele>
	<time>2025-02-15T07:39:14.000Z</time>
</trkpt>
<trkpt lat="45.8446760" lon="9.2290870">
	<ele>707.80</ele>
	<time>2025-02-15T07:39:15.000Z</time>
</trkpt>
<trkpt lat="45.8446770" lon="9.2290890">
	<ele>707.80</ele>
	<time>2025-02-15T07:39:16.000Z</time>
</trkpt>
<trkpt lat="45.8446780" lon="9.2290930">
	<ele>708.00</ele>
	<time>2025-02-15T07:39:17.000Z</time>
</trkpt>
<trkpt lat="45.8446790" lon="9.2291000">
	<ele>708.20</ele>
	<time>2025-02-15T07:39:18.000Z</time>
</trkpt>
<trkpt lat="45.8446860" lon="9.2291190">
	<ele>708.20</ele>
	<time>2025-02-15T07:39:19.000Z</time>
</trkpt>
<trkpt lat="45.8446890" lon="9.2291250">
	<ele>708.20</ele>
	<time>2025-02-15T07:39:20.000Z</time>
</trkpt>
<trkpt lat="45.8446890" lon="9.2291340">
	<ele>708.40</ele>
	<time>2025-02-15T07:39:21.000Z</time>
</trkpt>
<trkpt lat="45.8446920" lon="9.2291400">
	<ele>708.60</ele>
	<time>2025-02-15T07:39:22.000Z</time>
</trkpt>
<trkpt lat="45.8446890" lon="9.2291450">
	<ele>708.60</ele>
	<time>2025-02-15T07:39:23.000Z</time>
</trkpt>
<trkpt lat="45.8446910" lon="9.2291380">
	<ele>708.80</ele>
	<time>2025-02-15T07:39:24.000Z</time>
</trkpt>
<trkpt lat="45.8446870" lon="9.2291460">
	<ele>708.80</ele>
	<time>2025-02-15T07:39:25.000Z</time>
</trkpt>
<trkpt lat="45.8446910" lon="9.2291430">
	<ele>709.20</ele>
	<time>2025-02-15T07:39:26.000Z</time>
</trkpt>
<trkpt lat="45.8446960" lon="9.2291420">
	<ele>709.40</ele>
	<time>2025-02-15T07:39:27.000Z</time>
</trkpt>
<trkpt lat="45.8446970" lon="9.2291470">
	<ele>709.60</ele>
	<time>2025-02-15T07:39:28.000Z</time>
</trkpt>
<trkpt lat="45.8446980" lon="9.2291510">
	<ele>709.60</ele>
	<time>2025-02-15T07:39:29.000Z</time>
</trkpt>
<trkpt lat="45.8446990" lon="9.2291530">
	<ele>709.80</ele>
	<time>2025-02-15T07:39:30.000Z</time>
</trkpt>
<trkpt lat="45.8447090" lon="9.2291480">
	<ele>709.80</ele>
	<time>2025-02-15T07:39:31.000Z</time>
</trkpt>
<trkpt lat="45.8447180" lon="9.2291280">
	<ele>709.80</ele>
	<time>2025-02-15T07:39:32.000Z</time>
</trkpt>
<trkpt lat="45.8447260" lon="9.2291170">
	<ele>709.80</ele>
	<time>2025-02-15T07:39:33.000Z</time>
</trkpt>
<trkpt lat="45.8447310" lon="9.2291140">
	<ele>709.80</ele>
	<time>2025-02-15T07:39:34.000Z</time>
</trkpt>
<trkpt lat="45.8447420" lon="9.2291120">
	<ele>709.80</ele>
	<time>2025-02-15T07:39:35.000Z</time>
</trkpt>
<trkpt lat="45.8447530" lon="9.2291080">
	<ele>710.00</ele>
	<time>2025-02-15T07:39:36.000Z</time>
</trkpt>
<trkpt lat="45.8447580" lon="9.2290980">
	<ele>710.00</ele>
	<time>2025-02-15T07:39:37.000Z</time>
</trkpt>
<trkpt lat="45.8447600" lon="9.2290970">
	<ele>710.20</ele>
	<time>2025-02-15T07:39:38.000Z</time>
</trkpt>
<trkpt lat="45.8447600" lon="9.2290930">
	<ele>710.40</ele>
	<time>2025-02-15T07:39:39.000Z</time>
</trkpt>
<trkpt lat="45.8447570" lon="9.2290970">
	<ele>710.40</ele>
	<time>2025-02-15T07:39:40.000Z</time>
</trkpt>
<trkpt lat="45.8447520" lon="9.2291030">
	<ele>710.60</ele>
	<time>2025-02-15T07:39:41.000Z</time>
</trkpt>
<trkpt lat="45.8447550" lon="9.2291140">
	<ele>710.60</ele>
	<time>2025-02-15T07:39:42.000Z</time>
</trkpt>
<trkpt lat="45.8447670" lon="9.2291260">
	<ele>710.80</ele>
	<time>2025-02-15T07:39:43.000Z</time>
</trkpt>
<trkpt lat="45.8447680" lon="9.2291310">
	<ele>711.00</ele>
	<time>2025-02-15T07:39:44.000Z</time>
</trkpt>
<trkpt lat="45.8447690" lon="9.2291310">
	<ele>711.00</ele>
	<time>2025-02-15T07:39:45.000Z</time>
</trkpt>
<trkpt lat="45.8447700" lon="9.2291410">
	<ele>711.20</ele>
	<time>2025-02-15T07:39:46.000Z</time>
</trkpt>
<trkpt lat="45.8447720" lon="9.2291420">
	<ele>711.20</ele>
	<time>2025-02-15T07:39:47.000Z</time>
</trkpt>
<trkpt lat="45.8447750" lon="9.2291360">
	<ele>711.60</ele>
	<time>2025-02-15T07:39:48.000Z</time>
</trkpt>
<trkpt lat="45.8447730" lon="9.2291290">
	<ele>711.60</ele>
	<time>2025-02-15T07:39:49.000Z</time>
</trkpt>
<trkpt lat="45.8447730" lon="9.2291230">
	<ele>711.80</ele>
	<time>2025-02-15T07:39:50.000Z</time>
</trkpt>
<trkpt lat="45.8447780" lon="9.2291200">
	<ele>711.80</ele>
	<time>2025-02-15T07:39:51.000Z</time>
</trkpt>
<trkpt lat="45.8447830" lon="9.2291230">
	<ele>712.00</ele>
	<time>2025-02-15T07:39:52.000Z</time>
</trkpt>
<trkpt lat="45.8447990" lon="9.2291210">
	<ele>712.20</ele>
	<time>2025-02-15T07:39:53.000Z</time>
</trkpt>
<trkpt lat="45.8448000" lon="9.2291080">
	<ele>712.20</ele>
	<time>2025-02-15T07:39:54.000Z</time>
</trkpt>
<trkpt lat="45.8448020" lon="9.2291050">
	<ele>712.40</ele>
	<time>2025-02-15T07:39:55.000Z</time>
</trkpt>
<trkpt lat="45.8447980" lon="9.2290910">
	<ele>712.40</ele>
	<time>2025-02-15T07:39:56.000Z</time>
</trkpt>
<trkpt lat="45.8447960" lon="9.2290740">
	<ele>712.60</ele>
	<time>2025-02-15T07:39:57.000Z</time>
</trkpt>
<trkpt lat="45.8448010" lon="9.2290640">
	<ele>712.80</ele>
	<time>2025-02-15T07:39:58.000Z</time>
</trkpt>
<trkpt lat="45.8448060" lon="9.2290610">
	<ele>712.80</ele>
	<time>2025-02-15T07:39:59.000Z</time>
</trkpt>
<trkpt lat="45.8448070" lon="9.2290580">
	<ele>713.00</ele>
	<time>2025-02-15T07:40:00.000Z</time>
</trkpt>
<trkpt lat="45.8448080" lon="9.2290500">
	<ele>713.20</ele>
	<time>2025-02-15T07:40:01.000Z</time>
</trkpt>
<trkpt lat="45.8448150" lon="9.2290640">
	<ele>713.40</ele>
	<time>2025-02-15T07:40:02.000Z</time>
</trkpt>
<trkpt lat="45.8448150" lon="9.2290590">
	<ele>713.60</ele>
	<time>2025-02-15T07:40:03.000Z</time>
</trkpt>
<trkpt lat="45.8448150" lon="9.2290570">
	<ele>713.60</ele>
	<time>2025-02-15T07:40:04.000Z</time>
</trkpt>
<trkpt lat="45.8448170" lon="9.2290540">
	<ele>713.80</ele>
	<time>2025-02-15T07:40:05.000Z</time>
</trkpt>
<trkpt lat="45.8448190" lon="9.2290520">
	<ele>713.80</ele>
	<time>2025-02-15T07:40:06.000Z</time>
</trkpt>
<trkpt lat="45.8448310" lon="9.2290520">
	<ele>714.00</ele>
	<time>2025-02-15T07:40:07.000Z</time>
</trkpt>
<trkpt lat="45.8448350" lon="9.2290510">
	<ele>714.00</ele>
	<time>2025-02-15T07:40:08.000Z</time>
</trkpt>
<trkpt lat="45.8448360" lon="9.2290480">
	<ele>714.20</ele>
	<time>2025-02-15T07:40:09.000Z</time>
</trkpt>
<trkpt lat="45.8448480" lon="9.2290510">
	<ele>714.20</ele>
	<time>2025-02-15T07:40:10.000Z</time>
</trkpt>
<trkpt lat="45.8448680" lon="9.2290560">
	<ele>714.40</ele>
	<time>2025-02-15T07:40:11.000Z</time>
</trkpt>
<trkpt lat="45.8448790" lon="9.2290660">
	<ele>714.40</ele>
	<time>2025-02-15T07:40:12.000Z</time>
</trkpt>
<trkpt lat="45.8448900" lon="9.2290780">
	<ele>714.40</ele>
	<time>2025-02-15T07:40:13.000Z</time>
</trkpt>
<trkpt lat="45.8448900" lon="9.2291010">
	<ele>714.40</ele>
	<time>2025-02-15T07:40:14.000Z</time>
</trkpt>
<trkpt lat="45.8448880" lon="9.2291070">
	<ele>714.40</ele>
	<time>2025-02-15T07:40:15.000Z</time>
</trkpt>
<trkpt lat="45.8448840" lon="9.2291020">
	<ele>714.40</ele>
	<time>2025-02-15T07:40:16.000Z</time>
</trkpt>
<trkpt lat="45.8448810" lon="9.2290930">
	<ele>714.40</ele>
	<time>2025-02-15T07:40:17.000Z</time>
</trkpt>
<trkpt lat="45.8448830" lon="9.2290900">
	<ele>714.40</ele>
	<time>2025-02-15T07:40:18.000Z</time>
</trkpt>
<trkpt lat="45.8448860" lon="9.2290960">
	<ele>714.40</ele>
	<time>2025-02-15T07:40:19.000Z</time>
</trkpt>
<trkpt lat="45.8448850" lon="9.2290950">
	<ele>714.60</ele>
	<time>2025-02-15T07:40:20.000Z</time>
</trkpt>
<trkpt lat="45.8448860" lon="9.2290850">
	<ele>714.60</ele>
	<time>2025-02-15T07:40:21.000Z</time>
</trkpt>
<trkpt lat="45.8448840" lon="9.2290780">
	<ele>714.60</ele>
	<time>2025-02-15T07:40:22.000Z</time>
</trkpt>
<trkpt lat="45.8448850" lon="9.2290780">
	<ele>714.60</ele>
	<time>2025-02-15T07:40:23.000Z</time>
</trkpt>
<trkpt lat="45.8448850" lon="9.2290780">
	<ele>714.60</ele>
	<time>2025-02-15T07:40:24.000Z</time>
</trkpt>
<trkpt lat="45.8448860" lon="9.2290760">
	<ele>714.60</ele>
	<time>2025-02-15T07:40:25.000Z</time>
</trkpt>
<trkpt lat="45.8448860" lon="9.2290760">
	<ele>714.60</ele>
	<time>2025-02-15T07:40:26.000Z</time>
</trkpt>
<trkpt lat="45.8448860" lon="9.2290760">
	<ele>714.60</ele>
	<time>2025-02-15T07:40:27.000Z</time>
</trkpt>
<trkpt lat="45.8448860" lon="9.2290760">
	<ele>714.60</ele>
	<time>2025-02-15T07:40:28.000Z</time>
</trkpt>
<trkpt lat="45.8448860" lon="9.2290760">
	<ele>714.60</ele>
	<time>2025-02-15T07:40:29.000Z</time>
</trkpt>
<trkpt lat="45.8448860" lon="9.2290760">
	<ele>714.20</ele>
	<time>2025-02-15T07:40:30.000Z</time>
</trkpt>
<trkpt lat="45.8448860" lon="9.2290760">
	<ele>714.20</ele>
	<time>2025-02-15T07:40:31.000Z</time>
</trkpt>
<trkpt lat="45.8448860" lon="9.2290760">
	<ele>714.00</ele>
	<time>2025-02-15T07:40:32.000Z</time>
</trkpt>
<trkpt lat="45.8448860" lon="9.2290760">
	<ele>714.00</ele>
	<time>2025-02-15T07:40:33.000Z</time>
</trkpt>
<trkpt lat="45.8448860" lon="9.2290760">
	<ele>713.80</ele>
	<time>2025-02-15T07:40:34.000Z</time>
</trkpt>
<trkpt lat="45.8448860" lon="9.2290760">
	<ele>713.80</ele>
	<time>2025-02-15T07:40:35.000Z</time>
</trkpt>
<trkpt lat="45.8448850" lon="9.2290760">
	<ele>713.80</ele>
	<time>2025-02-15T07:40:36.000Z</time>
</trkpt>
<trkpt lat="45.8448850" lon="9.2290770">
	<ele>713.80</ele>
	<time>2025-02-15T07:40:37.000Z</time>
</trkpt>
<trkpt lat="45.8448850" lon="9.2290780">
	<ele>713.80</ele>
	<time>2025-02-15T07:40:38.000Z</time>
</trkpt>
<trkpt lat="45.8448850" lon="9.2290780">
	<ele>713.80</ele>
	<time>2025-02-15T07:40:39.000Z</time>
</trkpt>
<trkpt lat="45.8448840" lon="9.2290850">
	<ele>713.80</ele>
	<time>2025-02-15T07:40:40.000Z</time>
</trkpt>
<trkpt lat="45.8448840" lon="9.2290850">
	<ele>713.80</ele>
	<time>2025-02-15T07:40:41.000Z</time>
</trkpt>
<trkpt lat="45.8448840" lon="9.2290860">
	<ele>713.80</ele>
	<time>2025-02-15T07:40:42.000Z</time>
</trkpt>
<trkpt lat="45.8448840" lon="9.2290860">
	<ele>713.80</ele>
	<time>2025-02-15T07:40:43.000Z</time>
</trkpt>
<trkpt lat="45.8448840" lon="9.2290860">
	<ele>713.80</ele>
	<time>2025-02-15T07:40:44.000Z</time>
</trkpt>
<trkpt lat="45.8448830" lon="9.2290860">
	<ele>713.80</ele>
	<time>2025-02-15T07:40:45.000Z</time>
</trkpt>
<trkpt lat="45.8448830" lon="9.2290860">
	<ele>713.80</ele>
	<time>2025-02-15T07:40:46.000Z</time>
</trkpt>
<trkpt lat="45.8448830" lon="9.2290860">
	<ele>713.80</ele>
	<time>2025-02-15T07:40:47.000Z</time>
</trkpt>
<trkpt lat="45.8448830" lon="9.2290850">
	<ele>713.80</ele>
	<time>2025-02-15T07:40:48.000Z</time>
</trkpt>
<trkpt lat="45.8448830" lon="9.2290850">
	<ele>713.80</ele>
	<time>2025-02-15T07:40:49.000Z</time>
</trkpt>
<trkpt lat="45.8448820" lon="9.2290850">
	<ele>713.80</ele>
	<time>2025-02-15T07:40:50.000Z</time>
</trkpt>
<trkpt lat="45.8448820" lon="9.2290850">
	<ele>713.80</ele>
	<time>2025-02-15T07:40:51.000Z</time>
</trkpt>
<trkpt lat="45.8448820" lon="9.2290850">
	<ele>713.80</ele>
	<time>2025-02-15T07:40:52.000Z</time>
</trkpt>
<trkpt lat="45.8448820" lon="9.2290860">
	<ele>713.80</ele>
	<time>2025-02-15T07:40:53.000Z</time>
</trkpt>
<trkpt lat="45.8448820" lon="9.2290860">
	<ele>713.80</ele>
	<time>2025-02-15T07:40:54.000Z</time>
</trkpt>
<trkpt lat="45.8448820" lon="9.2290860">
	<ele>713.80</ele>
	<time>2025-02-15T07:40:55.000Z</time>
</trkpt>
<trkpt lat="45.8448820" lon="9.2290860">
	<ele>714.00</ele>
	<time>2025-02-15T07:40:56.000Z</time>
</trkpt>
<trkpt lat="45.8448820" lon="9.2290860">
	<ele>714.00</ele>
	<time>2025-02-15T07:40:57.000Z</time>
</trkpt>
<trkpt lat="45.8448820" lon="9.2290860">
	<ele>714.20</ele>
	<time>2025-02-15T07:40:58.000Z</time>
</trkpt>
<trkpt lat="45.8448820" lon="9.2290860">
	<ele>714.20</ele>
	<time>2025-02-15T07:40:59.000Z</time>
</trkpt>
<trkpt lat="45.8448820" lon="9.2290850">
	<ele>714.20</ele>
	<time>2025-02-15T07:41:00.000Z</time>
</trkpt>
<trkpt lat="45.8448820" lon="9.2290850">
	<ele>714.40</ele>
	<time>2025-02-15T07:41:01.000Z</time>
</trkpt>
<trkpt lat="45.8448820" lon="9.2290850">
	<ele>714.40</ele>
	<time>2025-02-15T07:41:02.000Z</time>
</trkpt>
<trkpt lat="45.8448820" lon="9.2290850">
	<ele>714.60</ele>
	<time>2025-02-15T07:41:03.000Z</time>
</trkpt>
<trkpt lat="45.8448820" lon="9.2290840">
	<ele>714.80</ele>
	<time>2025-02-15T07:41:04.000Z</time>
</trkpt>
<trkpt lat="45.8448820" lon="9.2290840">
	<ele>714.80</ele>
	<time>2025-02-15T07:41:05.000Z</time>
</trkpt>
<trkpt lat="45.8448830" lon="9.2290830">
	<ele>715.00</ele>
	<time>2025-02-15T07:41:06.000Z</time>
</trkpt>
<trkpt lat="45.8448830" lon="9.2290810">
	<ele>715.00</ele>
	<time>2025-02-15T07:41:07.000Z</time>
</trkpt>
<trkpt lat="45.8448840" lon="9.2290750">
	<ele>715.20</ele>
	<time>2025-02-15T07:41:08.000Z</time>
</trkpt>
<trkpt lat="45.8448880" lon="9.2290710">
	<ele>715.20</ele>
	<time>2025-02-15T07:41:09.000Z</time>
</trkpt>
<trkpt lat="45.8448900" lon="9.2290680">
	<ele>715.20</ele>
	<time>2025-02-15T07:41:10.000Z</time>
</trkpt>
<trkpt lat="45.8448940" lon="9.2290670">
	<ele>715.40</ele>
	<time>2025-02-15T07:41:11.000Z</time>
</trkpt>
<trkpt lat="45.8449000" lon="9.2290670">
	<ele>715.60</ele>
	<time>2025-02-15T07:41:12.000Z</time>
</trkpt>
<trkpt lat="45.8449110" lon="9.2290690">
	<ele>715.80</ele>
	<time>2025-02-15T07:41:13.000Z</time>
</trkpt>
<trkpt lat="45.8449220" lon="9.2290780">
	<ele>715.80</ele>
	<time>2025-02-15T07:41:14.000Z</time>
</trkpt>
<trkpt lat="45.8449310" lon="9.2290830">
	<ele>716.00</ele>
	<time>2025-02-15T07:41:15.000Z</time>
</trkpt>
<trkpt lat="45.8449420" lon="9.2290940">
	<ele>716.20</ele>
	<time>2025-02-15T07:41:16.000Z</time>
</trkpt>
<trkpt lat="45.8449500" lon="9.2290930">
	<ele>716.40</ele>
	<time>2025-02-15T07:41:17.000Z</time>
</trkpt>
<trkpt lat="45.8449550" lon="9.2290910">
	<ele>716.40</ele>
	<time>2025-02-15T07:41:18.000Z</time>
</trkpt>
<trkpt lat="45.8449610" lon="9.2290910">
	<ele>716.60</ele>
	<time>2025-02-15T07:41:19.000Z</time>
</trkpt>
<trkpt lat="45.8449650" lon="9.2290900">
	<ele>716.60</ele>
	<time>2025-02-15T07:41:20.000Z</time>
</trkpt>
<trkpt lat="45.8449670" lon="9.2290940">
	<ele>716.80</ele>
	<time>2025-02-15T07:41:21.000Z</time>
</trkpt>
<trkpt lat="45.8449710" lon="9.2290920">
	<ele>716.80</ele>
	<time>2025-02-15T07:41:22.000Z</time>
</trkpt>
<trkpt lat="45.8449810" lon="9.2290910">
	<ele>716.80</ele>
	<time>2025-02-15T07:41:23.000Z</time>
</trkpt>
<trkpt lat="45.8449850" lon="9.2290910">
	<ele>717.00</ele>
	<time>2025-02-15T07:41:24.000Z</time>
</trkpt>
<trkpt lat="45.8449860" lon="9.2290940">
	<ele>717.00</ele>
	<time>2025-02-15T07:41:25.000Z</time>
</trkpt>
<trkpt lat="45.8449840" lon="9.2290900">
	<ele>717.20</ele>
	<time>2025-02-15T07:41:26.000Z</time>
</trkpt>
<trkpt lat="45.8449850" lon="9.2290930">
	<ele>717.20</ele>
	<time>2025-02-15T07:41:27.000Z</time>
</trkpt>
<trkpt lat="45.8449890" lon="9.2291000">
	<ele>717.20</ele>
	<time>2025-02-15T07:41:28.000Z</time>
</trkpt>
<trkpt lat="45.8449960" lon="9.2291100">
	<ele>717.40</ele>
	<time>2025-02-15T07:41:29.000Z</time>
</trkpt>
<trkpt lat="45.8450050" lon="9.2291160">
	<ele>717.60</ele>
	<time>2025-02-15T07:41:30.000Z</time>
</trkpt>
<trkpt lat="45.8450120" lon="9.2291200">
	<ele>717.80</ele>
	<time>2025-02-15T07:41:31.000Z</time>
</trkpt>
<trkpt lat="45.8450180" lon="9.2291120">
	<ele>717.80</ele>
	<time>2025-02-15T07:41:32.000Z</time>
</trkpt>
<trkpt lat="45.8450180" lon="9.2291130">
	<ele>718.00</ele>
	<time>2025-02-15T07:41:33.000Z</time>
</trkpt>
<trkpt lat="45.8450180" lon="9.2291090">
	<ele>718.00</ele>
	<time>2025-02-15T07:41:34.000Z</time>
</trkpt>
<trkpt lat="45.8450180" lon="9.2291090">
	<ele>718.20</ele>
	<time>2025-02-15T07:41:35.000Z</time>
</trkpt>
<trkpt lat="45.8450190" lon="9.2291170">
	<ele>718.40</ele>
	<time>2025-02-15T07:41:36.000Z</time>
</trkpt>
<trkpt lat="45.8450260" lon="9.2291270">
	<ele>718.60</ele>
	<time>2025-02-15T07:41:37.000Z</time>
</trkpt>
<trkpt lat="45.8450320" lon="9.2291230">
	<ele>718.60</ele>
	<time>2025-02-15T07:41:38.000Z</time>
</trkpt>
<trkpt lat="45.8450330" lon="9.2291200">
	<ele>718.80</ele>
	<time>2025-02-15T07:41:39.000Z</time>
</trkpt>
<trkpt lat="45.8450310" lon="9.2291160">
	<ele>719.00</ele>
	<time>2025-02-15T07:41:40.000Z</time>
</trkpt>
<trkpt lat="45.8450360" lon="9.2291210">
	<ele>719.20</ele>
	<time>2025-02-15T07:41:41.000Z</time>
</trkpt>
<trkpt lat="45.8450400" lon="9.2291240">
	<ele>719.20</ele>
	<time>2025-02-15T07:41:42.000Z</time>
</trkpt>
<trkpt lat="45.8450540" lon="9.2291220">
	<ele>719.40</ele>
	<time>2025-02-15T07:41:43.000Z</time>
</trkpt>
<trkpt lat="45.8450660" lon="9.2291090">
	<ele>719.60</ele>
	<time>2025-02-15T07:41:44.000Z</time>
</trkpt>
<trkpt lat="45.8450640" lon="9.2290990">
	<ele>719.60</ele>
	<time>2025-02-15T07:41:45.000Z</time>
</trkpt>
<trkpt lat="45.8450730" lon="9.2291080">
	<ele>719.80</ele>
	<time>2025-02-15T07:41:46.000Z</time>
</trkpt>
<trkpt lat="45.8450770" lon="9.2291070">
	<ele>719.80</ele>
	<time>2025-02-15T07:41:47.000Z</time>
</trkpt>
<trkpt lat="45.8450780" lon="9.2291080">
	<ele>719.80</ele>
	<time>2025-02-15T07:41:48.000Z</time>
</trkpt>
<trkpt lat="45.8450830" lon="9.2291020">
	<ele>720.00</ele>
	<time>2025-02-15T07:41:49.000Z</time>
</trkpt>
<trkpt lat="45.8450820" lon="9.2291020">
	<ele>720.20</ele>
	<time>2025-02-15T07:41:50.000Z</time>
</trkpt>
<trkpt lat="45.8450850" lon="9.2291070">
	<ele>720.20</ele>
	<time>2025-02-15T07:41:51.000Z</time>
</trkpt>
<trkpt lat="45.8450870" lon="9.2291090">
	<ele>720.40</ele>
	<time>2025-02-15T07:41:52.000Z</time>
</trkpt>
<trkpt lat="45.8450940" lon="9.2291220">
	<ele>720.40</ele>
	<time>2025-02-15T07:41:53.000Z</time>
</trkpt>
<trkpt lat="45.8451020" lon="9.2291300">
	<ele>720.40</ele>
	<time>2025-02-15T07:41:54.000Z</time>
</trkpt>
<trkpt lat="45.8451120" lon="9.2291360">
	<ele>720.60</ele>
	<time>2025-02-15T07:41:55.000Z</time>
</trkpt>
<trkpt lat="45.8451190" lon="9.2291510">
	<ele>720.60</ele>
	<time>2025-02-15T07:41:56.000Z</time>
</trkpt>
<trkpt lat="45.8451230" lon="9.2291640">
	<ele>720.80</ele>
	<time>2025-02-15T07:41:57.000Z</time>
</trkpt>
<trkpt lat="45.8451300" lon="9.2291620">
	<ele>720.80</ele>
	<time>2025-02-15T07:41:58.000Z</time>
</trkpt>
<trkpt lat="45.8451350" lon="9.2291580">
	<ele>721.00</ele>
	<time>2025-02-15T07:41:59.000Z</time>
</trkpt>
<trkpt lat="45.8451350" lon="9.2291590">
	<ele>721.20</ele>
	<time>2025-02-15T07:42:00.000Z</time>
</trkpt>
<trkpt lat="45.8451350" lon="9.2291700">
	<ele>721.20</ele>
	<time>2025-02-15T07:42:01.000Z</time>
</trkpt>
<trkpt lat="45.8451400" lon="9.2291820">
	<ele>721.40</ele>
	<time>2025-02-15T07:42:02.000Z</time>
</trkpt>
<trkpt lat="45.8451450" lon="9.2291910">
	<ele>721.60</ele>
	<time>2025-02-15T07:42:03.000Z</time>
</trkpt>
<trkpt lat="45.8451480" lon="9.2292040">
	<ele>721.60</ele>
	<time>2025-02-15T07:42:04.000Z</time>
</trkpt>
<trkpt lat="45.8451550" lon="9.2292160">
	<ele>721.80</ele>
	<time>2025-02-15T07:42:05.000Z</time>
</trkpt>
<trkpt lat="45.8451620" lon="9.2292320">
	<ele>721.80</ele>
	<time>2025-02-15T07:42:06.000Z</time>
</trkpt>
<trkpt lat="45.8451640" lon="9.2292330">
	<ele>721.80</ele>
	<time>2025-02-15T07:42:07.000Z</time>
</trkpt>
<trkpt lat="45.8451740" lon="9.2292440">
	<ele>722.20</ele>
	<time>2025-02-15T07:42:08.000Z</time>
</trkpt>
<trkpt lat="45.8451820" lon="9.2292400">
	<ele>722.40</ele>
	<time>2025-02-15T07:42:09.000Z</time>
</trkpt>
<trkpt lat="45.8451830" lon="9.2292150">
	<ele>722.60</ele>
	<time>2025-02-15T07:42:10.000Z</time>
</trkpt>
<trkpt lat="45.8451840" lon="9.2291930">
	<ele>722.60</ele>
	<time>2025-02-15T07:42:11.000Z</time>
</trkpt>
<trkpt lat="45.8451820" lon="9.2291900">
	<ele>722.80</ele>
	<time>2025-02-15T07:42:12.000Z</time>
</trkpt>
<trkpt lat="45.8451760" lon="9.2291960">
	<ele>722.80</ele>
	<time>2025-02-15T07:42:13.000Z</time>
</trkpt>
<trkpt lat="45.8451790" lon="9.2291990">
	<ele>722.80</ele>
	<time>2025-02-15T07:42:14.000Z</time>
</trkpt>
<trkpt lat="45.8451810" lon="9.2292080">
	<ele>722.80</ele>
	<time>2025-02-15T07:42:15.000Z</time>
</trkpt>
<trkpt lat="45.8451920" lon="9.2292200">
	<ele>723.00</ele>
	<time>2025-02-15T07:42:16.000Z</time>
</trkpt>
<trkpt lat="45.8452020" lon="9.2292280">
	<ele>723.20</ele>
	<time>2025-02-15T07:42:17.000Z</time>
</trkpt>
<trkpt lat="45.8452080" lon="9.2292250">
	<ele>723.40</ele>
	<time>2025-02-15T07:42:18.000Z</time>
</trkpt>
<trkpt lat="45.8452120" lon="9.2292170">
	<ele>723.40</ele>
	<time>2025-02-15T07:42:19.000Z</time>
</trkpt>
<trkpt lat="45.8452160" lon="9.2292160">
	<ele>723.60</ele>
	<time>2025-02-15T07:42:20.000Z</time>
</trkpt>
<trkpt lat="45.8452240" lon="9.2292210">
	<ele>723.80</ele>
	<time>2025-02-15T07:42:21.000Z</time>
</trkpt>
<trkpt lat="45.8452260" lon="9.2292170">
	<ele>723.80</ele>
	<time>2025-02-15T07:42:22.000Z</time>
</trkpt>
<trkpt lat="45.8452270" lon="9.2292200">
	<ele>724.00</ele>
	<time>2025-02-15T07:42:23.000Z</time>
</trkpt>
<trkpt lat="45.8452280" lon="9.2292150">
	<ele>724.20</ele>
	<time>2025-02-15T07:42:24.000Z</time>
</trkpt>
<trkpt lat="45.8452330" lon="9.2292130">
	<ele>724.20</ele>
	<time>2025-02-15T07:42:25.000Z</time>
</trkpt>
<trkpt lat="45.8452330" lon="9.2292120">
	<ele>724.40</ele>
	<time>2025-02-15T07:42:26.000Z</time>
</trkpt>
<trkpt lat="45.8452390" lon="9.2292140">
	<ele>725.00</ele>
	<time>2025-02-15T07:42:27.000Z</time>
</trkpt>
<trkpt lat="45.8452450" lon="9.2292220">
	<ele>725.20</ele>
	<time>2025-02-15T07:42:28.000Z</time>
</trkpt>
<trkpt lat="45.8452520" lon="9.2292310">
	<ele>725.40</ele>
	<time>2025-02-15T07:42:29.000Z</time>
</trkpt>
<trkpt lat="45.8452540" lon="9.2292230">
	<ele>725.40</ele>
	<time>2025-02-15T07:42:30.000Z</time>
</trkpt>
<trkpt lat="45.8452540" lon="9.2292210">
	<ele>725.40</ele>
	<time>2025-02-15T07:42:31.000Z</time>
</trkpt>
<trkpt lat="45.8452550" lon="9.2292240">
	<ele>725.40</ele>
	<time>2025-02-15T07:42:32.000Z</time>
</trkpt>
<trkpt lat="45.8452550" lon="9.2292230">
	<ele>725.40</ele>
	<time>2025-02-15T07:42:33.000Z</time>
</trkpt>
<trkpt lat="45.8452530" lon="9.2292220">
	<ele>725.40</ele>
	<time>2025-02-15T07:42:34.000Z</time>
</trkpt>
<trkpt lat="45.8452520" lon="9.2292320">
	<ele>725.60</ele>
	<time>2025-02-15T07:42:35.000Z</time>
</trkpt>
<trkpt lat="45.8452580" lon="9.2292460">
	<ele>725.60</ele>
	<time>2025-02-15T07:42:36.000Z</time>
</trkpt>
<trkpt lat="45.8452630" lon="9.2292570">
	<ele>725.80</ele>
	<time>2025-02-15T07:42:37.000Z</time>
</trkpt>
<trkpt lat="45.8452710" lon="9.2292620">
	<ele>725.80</ele>
	<time>2025-02-15T07:42:38.000Z</time>
</trkpt>
<trkpt lat="45.8452730" lon="9.2292650">
	<ele>726.00</ele>
	<time>2025-02-15T07:42:39.000Z</time>
</trkpt>
<trkpt lat="45.8452760" lon="9.2292670">
	<ele>726.20</ele>
	<time>2025-02-15T07:42:40.000Z</time>
</trkpt>
<trkpt lat="45.8452770" lon="9.2292650">
	<ele>726.20</ele>
	<time>2025-02-15T07:42:41.000Z</time>
</trkpt>
<trkpt lat="45.8452780" lon="9.2292620">
	<ele>726.40</ele>
	<time>2025-02-15T07:42:42.000Z</time>
</trkpt>
<trkpt lat="45.8452830" lon="9.2292940">
	<ele>726.60</ele>
	<time>2025-02-15T07:42:43.000Z</time>
</trkpt>
<trkpt lat="45.8452890" lon="9.2293230">
	<ele>726.60</ele>
	<time>2025-02-15T07:42:44.000Z</time>
</trkpt>
<trkpt lat="45.8452970" lon="9.2293360">
	<ele>726.80</ele>
	<time>2025-02-15T07:42:45.000Z</time>
</trkpt>
<trkpt lat="45.8453070" lon="9.2293400">
	<ele>726.80</ele>
	<time>2025-02-15T07:42:46.000Z</time>
</trkpt>
<trkpt lat="45.8453080" lon="9.2293360">
	<ele>727.00</ele>
	<time>2025-02-15T07:42:47.000Z</time>
</trkpt>
<trkpt lat="45.8453100" lon="9.2293350">
	<ele>727.20</ele>
	<time>2025-02-15T07:42:48.000Z</time>
</trkpt>
<trkpt lat="45.8453220" lon="9.2293320">
	<ele>727.20</ele>
	<time>2025-02-15T07:42:49.000Z</time>
</trkpt>
<trkpt lat="45.8453250" lon="9.2293310">
	<ele>727.40</ele>
	<time>2025-02-15T07:42:50.000Z</time>
</trkpt>
<trkpt lat="45.8453430" lon="9.2293510">
	<ele>727.60</ele>
	<time>2025-02-15T07:42:51.000Z</time>
</trkpt>
<trkpt lat="45.8453470" lon="9.2293540">
	<ele>727.60</ele>
	<time>2025-02-15T07:42:52.000Z</time>
</trkpt>
<trkpt lat="45.8453620" lon="9.2293720">
	<ele>727.80</ele>
	<time>2025-02-15T07:42:53.000Z</time>
</trkpt>
<trkpt lat="45.8453690" lon="9.2293660">
	<ele>727.80</ele>
	<time>2025-02-15T07:42:54.000Z</time>
</trkpt>
<trkpt lat="45.8453760" lon="9.2293590">
	<ele>727.80</ele>
	<time>2025-02-15T07:42:55.000Z</time>
</trkpt>
<trkpt lat="45.8453770" lon="9.2293600">
	<ele>727.80</ele>
	<time>2025-02-15T07:42:56.000Z</time>
</trkpt>
<trkpt lat="45.8453780" lon="9.2293590">
	<ele>728.00</ele>
	<time>2025-02-15T07:42:57.000Z</time>
</trkpt>
<trkpt lat="45.8453810" lon="9.2293600">
	<ele>728.00</ele>
	<time>2025-02-15T07:42:58.000Z</time>
</trkpt>
<trkpt lat="45.8453910" lon="9.2293650">
	<ele>728.20</ele>
	<time>2025-02-15T07:42:59.000Z</time>
</trkpt>
<trkpt lat="45.8453970" lon="9.2293730">
	<ele>728.20</ele>
	<time>2025-02-15T07:43:00.000Z</time>
</trkpt>
<trkpt lat="45.8454040" lon="9.2293780">
	<ele>728.40</ele>
	<time>2025-02-15T07:43:01.000Z</time>
</trkpt>
<trkpt lat="45.8454060" lon="9.2293810">
	<ele>728.40</ele>
	<time>2025-02-15T07:43:02.000Z</time>
</trkpt>
<trkpt lat="45.8454100" lon="9.2293810">
	<ele>728.40</ele>
	<time>2025-02-15T07:43:03.000Z</time>
</trkpt>
<trkpt lat="45.8454160" lon="9.2293880">
	<ele>728.60</ele>
	<time>2025-02-15T07:43:04.000Z</time>
</trkpt>
<trkpt lat="45.8454200" lon="9.2293950">
	<ele>728.60</ele>
	<time>2025-02-15T07:43:05.000Z</time>
</trkpt>
<trkpt lat="45.8454230" lon="9.2294010">
	<ele>728.60</ele>
	<time>2025-02-15T07:43:06.000Z</time>
</trkpt>
<trkpt lat="45.8454280" lon="9.2294040">
	<ele>728.60</ele>
	<time>2025-02-15T07:43:07.000Z</time>
</trkpt>
<trkpt lat="45.8454320" lon="9.2294110">
	<ele>728.60</ele>
	<time>2025-02-15T07:43:08.000Z</time>
</trkpt>
<trkpt lat="45.8454330" lon="9.2294270">
	<ele>728.60</ele>
	<time>2025-02-15T07:43:09.000Z</time>
</trkpt>
<trkpt lat="45.8454370" lon="9.2294400">
	<ele>728.60</ele>
	<time>2025-02-15T07:43:10.000Z</time>
</trkpt>
<trkpt lat="45.8454450" lon="9.2294520">
	<ele>728.60</ele>
	<time>2025-02-15T07:43:11.000Z</time>
</trkpt>
<trkpt lat="45.8454470" lon="9.2294570">
	<ele>728.80</ele>
	<time>2025-02-15T07:43:12.000Z</time>
</trkpt>
<trkpt lat="45.8454510" lon="9.2294680">
	<ele>728.80</ele>
	<time>2025-02-15T07:43:13.000Z</time>
</trkpt>
<trkpt lat="45.8454490" lon="9.2294730">
	<ele>729.00</ele>
	<time>2025-02-15T07:43:14.000Z</time>
</trkpt>
<trkpt lat="45.8454490" lon="9.2294800">
	<ele>729.00</ele>
	<time>2025-02-15T07:43:15.000Z</time>
</trkpt>
<trkpt lat="45.8454560" lon="9.2294990">
	<ele>729.20</ele>
	<time>2025-02-15T07:43:16.000Z</time>
</trkpt>
<trkpt lat="45.8454540" lon="9.2295060">
	<ele>729.40</ele>
	<time>2025-02-15T07:43:17.000Z</time>
</trkpt>
<trkpt lat="45.8454530" lon="9.2295050">
	<ele>729.40</ele>
	<time>2025-02-15T07:43:18.000Z</time>
</trkpt>
<trkpt lat="45.8454540" lon="9.2295010">
	<ele>729.60</ele>
	<time>2025-02-15T07:43:19.000Z</time>
</trkpt>
<trkpt lat="45.8454690" lon="9.2294900">
	<ele>729.60</ele>
	<time>2025-02-15T07:43:20.000Z</time>
</trkpt>
<trkpt lat="45.8454810" lon="9.2294790">
	<ele>729.60</ele>
	<time>2025-02-15T07:43:21.000Z</time>
</trkpt>
<trkpt lat="45.8454820" lon="9.2294920">
	<ele>729.60</ele>
	<time>2025-02-15T07:43:22.000Z</time>
</trkpt>
<trkpt lat="45.8454830" lon="9.2294700">
	<ele>729.80</ele>
	<time>2025-02-15T07:43:23.000Z</time>
</trkpt>
<trkpt lat="45.8454860" lon="9.2294740">
	<ele>729.80</ele>
	<time>2025-02-15T07:43:24.000Z</time>
</trkpt>
<trkpt lat="45.8454940" lon="9.2294460">
	<ele>729.80</ele>
	<time>2025-02-15T07:43:25.000Z</time>
</trkpt>
<trkpt lat="45.8455060" lon="9.2294420">
	<ele>730.00</ele>
	<time>2025-02-15T07:43:26.000Z</time>
</trkpt>
<trkpt lat="45.8455080" lon="9.2294440">
	<ele>730.00</ele>
	<time>2025-02-15T07:43:27.000Z</time>
</trkpt>
<trkpt lat="45.8455100" lon="9.2294460">
	<ele>730.00</ele>
	<time>2025-02-15T07:43:28.000Z</time>
</trkpt>
<trkpt lat="45.8455110" lon="9.2294470">
	<ele>730.00</ele>
	<time>2025-02-15T07:43:29.000Z</time>
</trkpt>
<trkpt lat="45.8455140" lon="9.2294460">
	<ele>730.20</ele>
	<time>2025-02-15T07:43:30.000Z</time>
</trkpt>
<trkpt lat="45.8455140" lon="9.2294430">
	<ele>730.20</ele>
	<time>2025-02-15T07:43:31.000Z</time>
</trkpt>
<trkpt lat="45.8455200" lon="9.2294360">
	<ele>730.20</ele>
	<time>2025-02-15T07:43:32.000Z</time>
</trkpt>
<trkpt lat="45.8455200" lon="9.2294370">
	<ele>730.20</ele>
	<time>2025-02-15T07:43:33.000Z</time>
</trkpt>
<trkpt lat="45.8455210" lon="9.2294400">
	<ele>730.40</ele>
	<time>2025-02-15T07:43:34.000Z</time>
</trkpt>
<trkpt lat="45.8455220" lon="9.2294400">
	<ele>730.60</ele>
	<time>2025-02-15T07:43:35.000Z</time>
</trkpt>
<trkpt lat="45.8455220" lon="9.2294400">
	<ele>730.80</ele>
	<time>2025-02-15T07:43:36.000Z</time>
</trkpt>
<trkpt lat="45.8455220" lon="9.2294400">
	<ele>730.80</ele>
	<time>2025-02-15T07:43:37.000Z</time>
</trkpt>
<trkpt lat="45.8455220" lon="9.2294400">
	<ele>731.00</ele>
	<time>2025-02-15T07:43:38.000Z</time>
</trkpt>
<trkpt lat="45.8455220" lon="9.2294400">
	<ele>731.00</ele>
	<time>2025-02-15T07:43:39.000Z</time>
</trkpt>
<trkpt lat="45.8455220" lon="9.2294400">
	<ele>731.00</ele>
	<time>2025-02-15T07:43:40.000Z</time>
</trkpt>
<trkpt lat="45.8455220" lon="9.2294400">
	<ele>731.00</ele>
	<time>2025-02-15T07:43:41.000Z</time>
</trkpt>
<trkpt lat="45.8455220" lon="9.2294400">
	<ele>731.00</ele>
	<time>2025-02-15T07:43:42.000Z</time>
</trkpt>
<trkpt lat="45.8455220" lon="9.2294400">
	<ele>731.00</ele>
	<time>2025-02-15T07:43:43.000Z</time>
</trkpt>
<trkpt lat="45.8455220" lon="9.2294400">
	<ele>731.20</ele>
	<time>2025-02-15T07:43:44.000Z</time>
</trkpt>
<trkpt lat="45.8455220" lon="9.2294400">
	<ele>731.20</ele>
	<time>2025-02-15T07:43:45.000Z</time>
</trkpt>
<trkpt lat="45.8455220" lon="9.2294400">
	<ele>731.20</ele>
	<time>2025-02-15T07:43:46.000Z</time>
</trkpt>
<trkpt lat="45.8455220" lon="9.2294400">
	<ele>731.40</ele>
	<time>2025-02-15T07:43:47.000Z</time>
</trkpt>
<trkpt lat="45.8455300" lon="9.2294380">
	<ele>731.40</ele>
	<time>2025-02-15T07:43:48.000Z</time>
</trkpt>
<trkpt lat="45.8455430" lon="9.2294320">
	<ele>731.60</ele>
	<time>2025-02-15T07:43:49.000Z</time>
</trkpt>
<trkpt lat="45.8455550" lon="9.2294230">
	<ele>731.60</ele>
	<time>2025-02-15T07:43:50.000Z</time>
</trkpt>
<trkpt lat="45.8455700" lon="9.2294180">
	<ele>731.80</ele>
	<time>2025-02-15T07:43:51.000Z</time>
</trkpt>
<trkpt lat="45.8455870" lon="9.2294120">
	<ele>731.80</ele>
	<time>2025-02-15T07:43:52.000Z</time>
</trkpt>
<trkpt lat="45.8455980" lon="9.2294050">
	<ele>732.00</ele>
	<time>2025-02-15T07:43:53.000Z</time>
</trkpt>
<trkpt lat="45.8456080" lon="9.2294060">
	<ele>732.00</ele>
	<time>2025-02-15T07:43:54.000Z</time>
</trkpt>
<trkpt lat="45.8456170" lon="9.2294080">
	<ele>732.00</ele>
	<time>2025-02-15T07:43:55.000Z</time>
</trkpt>
<trkpt lat="45.8456360" lon="9.2294040">
	<ele>732.20</ele>
	<time>2025-02-15T07:43:56.000Z</time>
</trkpt>
<trkpt lat="45.8456460" lon="9.2293960">
	<ele>732.20</ele>
	<time>2025-02-15T07:43:57.000Z</time>
</trkpt>
<trkpt lat="45.8456530" lon="9.2293850">
	<ele>732.20</ele>
	<time>2025-02-15T07:43:58.000Z</time>
</trkpt>
<trkpt lat="45.8456620" lon="9.2293800">
	<ele>732.20</ele>
	<time>2025-02-15T07:43:59.000Z</time>
</trkpt>
<trkpt lat="45.8456670" lon="9.2293740">
	<ele>732.40</ele>
	<time>2025-02-15T07:44:00.000Z</time>
</trkpt>
<trkpt lat="45.8456730" lon="9.2293770">
	<ele>732.60</ele>
	<time>2025-02-15T07:44:01.000Z</time>
</trkpt>
<trkpt lat="45.8456770" lon="9.2293750">
	<ele>732.80</ele>
	<time>2025-02-15T07:44:02.000Z</time>
</trkpt>
<trkpt lat="45.8456800" lon="9.2293730">
	<ele>733.00</ele>
	<time>2025-02-15T07:44:03.000Z</time>
</trkpt>
<trkpt lat="45.8456900" lon="9.2293720">
	<ele>733.00</ele>
	<time>2025-02-15T07:44:04.000Z</time>
</trkpt>
<trkpt lat="45.8456970" lon="9.2293720">
	<ele>733.20</ele>
	<time>2025-02-15T07:44:05.000Z</time>
</trkpt>
<trkpt lat="45.8457110" lon="9.2293760">
	<ele>733.20</ele>
	<time>2025-02-15T07:44:06.000Z</time>
</trkpt>
<trkpt lat="45.8457250" lon="9.2293850">
	<ele>733.20</ele>
	<time>2025-02-15T07:44:07.000Z</time>
</trkpt>
<trkpt lat="45.8457260" lon="9.2293880">
	<ele>733.40</ele>
	<time>2025-02-15T07:44:08.000Z</time>
</trkpt>
<trkpt lat="45.8457250" lon="9.2293840">
	<ele>733.40</ele>
	<time>2025-02-15T07:44:09.000Z</time>
</trkpt>
<trkpt lat="45.8457270" lon="9.2293840">
	<ele>733.60</ele>
	<time>2025-02-15T07:44:10.000Z</time>
</trkpt>
<trkpt lat="45.8457290" lon="9.2293810">
	<ele>733.60</ele>
	<time>2025-02-15T07:44:11.000Z</time>
</trkpt>
<trkpt lat="45.8457310" lon="9.2293800">
	<ele>733.80</ele>
	<time>2025-02-15T07:44:12.000Z</time>
</trkpt>
<trkpt lat="45.8457380" lon="9.2293710">
	<ele>733.80</ele>
	<time>2025-02-15T07:44:13.000Z</time>
</trkpt>
<trkpt lat="45.8457540" lon="9.2293580">
	<ele>733.80</ele>
	<time>2025-02-15T07:44:14.000Z</time>
</trkpt>
<trkpt lat="45.8457690" lon="9.2293510">
	<ele>733.80</ele>
	<time>2025-02-15T07:44:15.000Z</time>
</trkpt>
<trkpt lat="45.8457810" lon="9.2293440">
	<ele>733.80</ele>
	<time>2025-02-15T07:44:16.000Z</time>
</trkpt>
<trkpt lat="45.8457900" lon="9.2293400">
	<ele>733.80</ele>
	<time>2025-02-15T07:44:17.000Z</time>
</trkpt>
<trkpt lat="45.8457970" lon="9.2293340">
	<ele>733.80</ele>
	<time>2025-02-15T07:44:18.000Z</time>
</trkpt>
<trkpt lat="45.8458030" lon="9.2293340">
	<ele>733.80</ele>
	<time>2025-02-15T07:44:19.000Z</time>
</trkpt>
<trkpt lat="45.8458110" lon="9.2293300">
	<ele>734.00</ele>
	<time>2025-02-15T07:44:20.000Z</time>
</trkpt>
<trkpt lat="45.8458220" lon="9.2293240">
	<ele>734.00</ele>
	<time>2025-02-15T07:44:21.000Z</time>
</trkpt>
<trkpt lat="45.8458260" lon="9.2293220">
	<ele>734.00</ele>
	<time>2025-02-15T07:44:22.000Z</time>
</trkpt>
<trkpt lat="45.8458280" lon="9.2293200">
	<ele>734.00</ele>
	<time>2025-02-15T07:44:23.000Z</time>
</trkpt>
<trkpt lat="45.8458300" lon="9.2293100">
	<ele>734.20</ele>
	<time>2025-02-15T07:44:24.000Z</time>
</trkpt>
<trkpt lat="45.8458300" lon="9.2293120">
	<ele>734.20</ele>
	<time>2025-02-15T07:44:25.000Z</time>
</trkpt>
<trkpt lat="45.8458290" lon="9.2293080">
	<ele>734.40</ele>
	<time>2025-02-15T07:44:26.000Z</time>
</trkpt>
<trkpt lat="45.8458210" lon="9.2292950">
	<ele>734.40</ele>
	<time>2025-02-15T07:44:27.000Z</time>
</trkpt>
<trkpt lat="45.8458090" lon="9.2292880">
	<ele>734.40</ele>
	<time>2025-02-15T07:44:28.000Z</time>
</trkpt>
<trkpt lat="45.8458090" lon="9.2292840">
	<ele>734.40</ele>
	<time>2025-02-15T07:44:29.000Z</time>
</trkpt>
<trkpt lat="45.8458090" lon="9.2292810">
	<ele>734.60</ele>
	<time>2025-02-15T07:44:30.000Z</time>
</trkpt>
<trkpt lat="45.8458220" lon="9.2292840">
	<ele>734.60</ele>
	<time>2025-02-15T07:44:31.000Z</time>
</trkpt>
<trkpt lat="45.8458320" lon="9.2292840">
	<ele>734.80</ele>
	<time>2025-02-15T07:44:32.000Z</time>
</trkpt>
<trkpt lat="45.8458350" lon="9.2292820">
	<ele>735.00</ele>
	<time>2025-02-15T07:44:33.000Z</time>
</trkpt>
<trkpt lat="45.8458400" lon="9.2292800">
	<ele>735.00</ele>
	<time>2025-02-15T07:44:34.000Z</time>
</trkpt>
<trkpt lat="45.8458650" lon="9.2292880">
	<ele>735.20</ele>
	<time>2025-02-15T07:44:35.000Z</time>
</trkpt>
<trkpt lat="45.8458660" lon="9.2292880">
	<ele>735.20</ele>
	<time>2025-02-15T07:44:36.000Z</time>
</trkpt>
<trkpt lat="45.8458820" lon="9.2292920">
	<ele>735.40</ele>
	<time>2025-02-15T07:44:37.000Z</time>
</trkpt>
<trkpt lat="45.8458940" lon="9.2292940">
	<ele>735.40</ele>
	<time>2025-02-15T07:44:38.000Z</time>
</trkpt>
<trkpt lat="45.8459010" lon="9.2292970">
	<ele>735.60</ele>
	<time>2025-02-15T07:44:39.000Z</time>
</trkpt>
<trkpt lat="45.8459110" lon="9.2293010">
	<ele>735.60</ele>
	<time>2025-02-15T07:44:40.000Z</time>
</trkpt>
<trkpt lat="45.8459180" lon="9.2293010">
	<ele>735.60</ele>
	<time>2025-02-15T07:44:41.000Z</time>
</trkpt>
<trkpt lat="45.8459220" lon="9.2293000">
	<ele>735.60</ele>
	<time>2025-02-15T07:44:42.000Z</time>
</trkpt>
<trkpt lat="45.8459250" lon="9.2292950">
	<ele>735.60</ele>
	<time>2025-02-15T07:44:43.000Z</time>
</trkpt>
<trkpt lat="45.8459290" lon="9.2292950">
	<ele>735.60</ele>
	<time>2025-02-15T07:44:44.000Z</time>
</trkpt>
<trkpt lat="45.8459320" lon="9.2292930">
	<ele>735.80</ele>
	<time>2025-02-15T07:44:45.000Z</time>
</trkpt>
<trkpt lat="45.8459350" lon="9.2292880">
	<ele>735.80</ele>
	<time>2025-02-15T07:44:46.000Z</time>
</trkpt>
<trkpt lat="45.8459360" lon="9.2292780">
	<ele>735.80</ele>
	<time>2025-02-15T07:44:47.000Z</time>
</trkpt>
<trkpt lat="45.8459390" lon="9.2292790">
	<ele>735.80</ele>
	<time>2025-02-15T07:44:48.000Z</time>
</trkpt>
<trkpt lat="45.8459390" lon="9.2292780">
	<ele>735.80</ele>
	<time>2025-02-15T07:44:49.000Z</time>
</trkpt>
<trkpt lat="45.8459400" lon="9.2292760">
	<ele>736.00</ele>
	<time>2025-02-15T07:44:50.000Z</time>
</trkpt>
<trkpt lat="45.8459510" lon="9.2292810">
	<ele>736.00</ele>
	<time>2025-02-15T07:44:51.000Z</time>
</trkpt>
<trkpt lat="45.8459620" lon="9.2292810">
	<ele>736.00</ele>
	<time>2025-02-15T07:44:52.000Z</time>
</trkpt>
<trkpt lat="45.8459740" lon="9.2292840">
	<ele>736.00</ele>
	<time>2025-02-15T07:44:53.000Z</time>
</trkpt>
<trkpt lat="45.8459820" lon="9.2292790">
	<ele>736.20</ele>
	<time>2025-02-15T07:44:54.000Z</time>
</trkpt>
<trkpt lat="45.8459830" lon="9.2292760">
	<ele>736.40</ele>
	<time>2025-02-15T07:44:55.000Z</time>
</trkpt>
<trkpt lat="45.8459820" lon="9.2292730">
	<ele>736.40</ele>
	<time>2025-02-15T07:44:56.000Z</time>
</trkpt>
<trkpt lat="45.8459780" lon="9.2292600">
	<ele>736.60</ele>
	<time>2025-02-15T07:44:57.000Z</time>
</trkpt>
<trkpt lat="45.8459770" lon="9.2292550">
	<ele>736.60</ele>
	<time>2025-02-15T07:44:58.000Z</time>
</trkpt>
<trkpt lat="45.8459750" lon="9.2292500">
	<ele>736.80</ele>
	<time>2025-02-15T07:44:59.000Z</time>
</trkpt>
<trkpt lat="45.8459740" lon="9.2292520">
	<ele>736.80</ele>
	<time>2025-02-15T07:45:00.000Z</time>
</trkpt>
<trkpt lat="45.8459810" lon="9.2292600">
	<ele>736.80</ele>
	<time>2025-02-15T07:45:01.000Z</time>
</trkpt>
<trkpt lat="45.8459800" lon="9.2292600">
	<ele>736.80</ele>
	<time>2025-02-15T07:45:02.000Z</time>
</trkpt>
<trkpt lat="45.8459780" lon="9.2292620">
	<ele>737.00</ele>
	<time>2025-02-15T07:45:03.000Z</time>
</trkpt>
<trkpt lat="45.8459780" lon="9.2292640">
	<ele>737.00</ele>
	<time>2025-02-15T07:45:04.000Z</time>
</trkpt>
<trkpt lat="45.8459830" lon="9.2292730">
	<ele>737.00</ele>
	<time>2025-02-15T07:45:05.000Z</time>
</trkpt>
<trkpt lat="45.8459880" lon="9.2292800">
	<ele>737.00</ele>
	<time>2025-02-15T07:45:06.000Z</time>
</trkpt>
<trkpt lat="45.8459960" lon="9.2292890">
	<ele>737.00</ele>
	<time>2025-02-15T07:45:07.000Z</time>
</trkpt>
<trkpt lat="45.8460050" lon="9.2293030">
	<ele>737.00</ele>
	<time>2025-02-15T07:45:08.000Z</time>
</trkpt>
<trkpt lat="45.8460080" lon="9.2293070">
	<ele>737.20</ele>
	<time>2025-02-15T07:45:09.000Z</time>
</trkpt>
<trkpt lat="45.8460100" lon="9.2293080">
	<ele>737.20</ele>
	<time>2025-02-15T07:45:10.000Z</time>
</trkpt>
<trkpt lat="45.8460110" lon="9.2293060">
	<ele>737.20</ele>
	<time>2025-02-15T07:45:11.000Z</time>
</trkpt>
<trkpt lat="45.8460100" lon="9.2293050">
	<ele>737.20</ele>
	<time>2025-02-15T07:45:12.000Z</time>
</trkpt>
<trkpt lat="45.8460100" lon="9.2293050">
	<ele>737.20</ele>
	<time>2025-02-15T07:45:13.000Z</time>
</trkpt>
<trkpt lat="45.8460100" lon="9.2293050">
	<ele>737.20</ele>
	<time>2025-02-15T07:45:14.000Z</time>
</trkpt>
<trkpt lat="45.8460100" lon="9.2293050">
	<ele>737.40</ele>
	<time>2025-02-15T07:45:15.000Z</time>
</trkpt>
<trkpt lat="45.8460100" lon="9.2293050">
	<ele>737.20</ele>
	<time>2025-02-15T07:45:16.000Z</time>
</trkpt>
<trkpt lat="45.8460100" lon="9.2293050">
	<ele>737.20</ele>
	<time>2025-02-15T07:45:17.000Z</time>
</trkpt>
<trkpt lat="45.8460100" lon="9.2293050">
	<ele>737.20</ele>
	<time>2025-02-15T07:45:18.000Z</time>
</trkpt>
<trkpt lat="45.8460100" lon="9.2293050">
	<ele>737.20</ele>
	<time>2025-02-15T07:45:19.000Z</time>
</trkpt>
<trkpt lat="45.8460100" lon="9.2293050">
	<ele>737.20</ele>
	<time>2025-02-15T07:45:20.000Z</time>
</trkpt>
<trkpt lat="45.8460100" lon="9.2293050">
	<ele>737.20</ele>
	<time>2025-02-15T07:45:21.000Z</time>
</trkpt>
<trkpt lat="45.8460100" lon="9.2293050">
	<ele>737.20</ele>
	<time>2025-02-15T07:45:22.000Z</time>
</trkpt>
<trkpt lat="45.8460090" lon="9.2293050">
	<ele>737.20</ele>
	<time>2025-02-15T07:45:23.000Z</time>
</trkpt>
<trkpt lat="45.8460080" lon="9.2293040">
	<ele>737.20</ele>
	<time>2025-02-15T07:45:24.000Z</time>
</trkpt>
<trkpt lat="45.8460070" lon="9.2293030">
	<ele>737.40</ele>
	<time>2025-02-15T07:45:25.000Z</time>
</trkpt>
<trkpt lat="45.8460070" lon="9.2293010">
	<ele>737.60</ele>
	<time>2025-02-15T07:45:26.000Z</time>
</trkpt>
<trkpt lat="45.8460070" lon="9.2292990">
	<ele>737.60</ele>
	<time>2025-02-15T07:45:27.000Z</time>
</trkpt>
<trkpt lat="45.8460070" lon="9.2292990">
	<ele>737.80</ele>
	<time>2025-02-15T07:45:28.000Z</time>
</trkpt>
<trkpt lat="45.8460070" lon="9.2292990">
	<ele>737.80</ele>
	<time>2025-02-15T07:45:29.000Z</time>
</trkpt>
<trkpt lat="45.8460070" lon="9.2292990">
	<ele>737.80</ele>
	<time>2025-02-15T07:45:30.000Z</time>
</trkpt>
<trkpt lat="45.8460070" lon="9.2292990">
	<ele>738.00</ele>
	<time>2025-02-15T07:45:31.000Z</time>
</trkpt>
<trkpt lat="45.8460070" lon="9.2292990">
	<ele>738.00</ele>
	<time>2025-02-15T07:45:32.000Z</time>
</trkpt>
<trkpt lat="45.8460070" lon="9.2292990">
	<ele>738.00</ele>
	<time>2025-02-15T07:45:33.000Z</time>
</trkpt>
<trkpt lat="45.8460070" lon="9.2293000">
	<ele>738.20</ele>
	<time>2025-02-15T07:45:34.000Z</time>
</trkpt>
<trkpt lat="45.8460080" lon="9.2293010">
	<ele>738.20</ele>
	<time>2025-02-15T07:45:35.000Z</time>
</trkpt>
<trkpt lat="45.8460100" lon="9.2293010">
	<ele>738.40</ele>
	<time>2025-02-15T07:45:36.000Z</time>
</trkpt>
<trkpt lat="45.8460100" lon="9.2293010">
	<ele>738.60</ele>
	<time>2025-02-15T07:45:37.000Z</time>
</trkpt>
<trkpt lat="45.8460110" lon="9.2293010">
	<ele>738.80</ele>
	<time>2025-02-15T07:45:38.000Z</time>
</trkpt>
<trkpt lat="45.8460110" lon="9.2293010">
	<ele>738.80</ele>
	<time>2025-02-15T07:45:39.000Z</time>
</trkpt>
<trkpt lat="45.8460110" lon="9.2293010">
	<ele>739.00</ele>
	<time>2025-02-15T07:45:40.000Z</time>
</trkpt>
<trkpt lat="45.8460120" lon="9.2292990">
	<ele>739.00</ele>
	<time>2025-02-15T07:45:41.000Z</time>
</trkpt>
<trkpt lat="45.8460150" lon="9.2292990">
	<ele>739.20</ele>
	<time>2025-02-15T07:45:42.000Z</time>
</trkpt>
<trkpt lat="45.8460170" lon="9.2292990">
	<ele>739.40</ele>
	<time>2025-02-15T07:45:43.000Z</time>
</trkpt>
<trkpt lat="45.8460180" lon="9.2292990">
	<ele>739.40</ele>
	<time>2025-02-15T07:45:44.000Z</time>
</trkpt>
<trkpt lat="45.8460190" lon="9.2292990">
	<ele>739.60</ele>
	<time>2025-02-15T07:45:45.000Z</time>
</trkpt>
<trkpt lat="45.8460270" lon="9.2293000">
	<ele>739.60</ele>
	<time>2025-02-15T07:45:46.000Z</time>
</trkpt>
<trkpt lat="45.8460300" lon="9.2293010">
	<ele>739.60</ele>
	<time>2025-02-15T07:45:47.000Z</time>
</trkpt>
<trkpt lat="45.8460300" lon="9.2293010">
	<ele>739.80</ele>
	<time>2025-02-15T07:45:48.000Z</time>
</trkpt>
<trkpt lat="45.8460310" lon="9.2293010">
	<ele>739.80</ele>
	<time>2025-02-15T07:45:49.000Z</time>
</trkpt>
<trkpt lat="45.8460320" lon="9.2293010">
	<ele>739.80</ele>
	<time>2025-02-15T07:45:50.000Z</time>
</trkpt>
<trkpt lat="45.8460320" lon="9.2293010">
	<ele>739.80</ele>
	<time>2025-02-15T07:45:51.000Z</time>
</trkpt>
<trkpt lat="45.8460330" lon="9.2293010">
	<ele>740.00</ele>
	<time>2025-02-15T07:45:52.000Z</time>
</trkpt>
<trkpt lat="45.8460340" lon="9.2293010">
	<ele>740.00</ele>
	<time>2025-02-15T07:45:53.000Z</time>
</trkpt>
<trkpt lat="45.8460380" lon="9.2293010">
	<ele>740.20</ele>
	<time>2025-02-15T07:45:54.000Z</time>
</trkpt>
<trkpt lat="45.8460440" lon="9.2293010">
	<ele>740.40</ele>
	<time>2025-02-15T07:45:55.000Z</time>
</trkpt>
<trkpt lat="45.8460480" lon="9.2293010">
	<ele>740.60</ele>
	<time>2025-02-15T07:45:56.000Z</time>
</trkpt>
<trkpt lat="45.8460520" lon="9.2293010">
	<ele>740.60</ele>
	<time>2025-02-15T07:45:57.000Z</time>
</trkpt>
<trkpt lat="45.8460550" lon="9.2293010">
	<ele>740.80</ele>
	<time>2025-02-15T07:45:58.000Z</time>
</trkpt>
<trkpt lat="45.8460580" lon="9.2292990">
	<ele>741.00</ele>
	<time>2025-02-15T07:45:59.000Z</time>
</trkpt>
<trkpt lat="45.8460620" lon="9.2292990">
	<ele>741.00</ele>
	<time>2025-02-15T07:46:00.000Z</time>
</trkpt>
<trkpt lat="45.8460650" lon="9.2292980">
	<ele>741.20</ele>
	<time>2025-02-15T07:46:01.000Z</time>
</trkpt>
<trkpt lat="45.8460670" lon="9.2292980">
	<ele>741.20</ele>
	<time>2025-02-15T07:46:02.000Z</time>
</trkpt>
<trkpt lat="45.8460680" lon="9.2292970">
	<ele>741.40</ele>
	<time>2025-02-15T07:46:03.000Z</time>
</trkpt>
<trkpt lat="45.8460700" lon="9.2292960">
	<ele>741.40</ele>
	<time>2025-02-15T07:46:04.000Z</time>
</trkpt>
<trkpt lat="45.8460780" lon="9.2292880">
	<ele>741.60</ele>
	<time>2025-02-15T07:46:05.000Z</time>
</trkpt>
<trkpt lat="45.8460800" lon="9.2292820">
	<ele>741.80</ele>
	<time>2025-02-15T07:46:06.000Z</time>
</trkpt>
<trkpt lat="45.8460850" lon="9.2292760">
	<ele>741.80</ele>
	<time>2025-02-15T07:46:07.000Z</time>
</trkpt>
<trkpt lat="45.8460930" lon="9.2292800">
	<ele>741.80</ele>
	<time>2025-02-15T07:46:08.000Z</time>
</trkpt>
<trkpt lat="45.8461030" lon="9.2292690">
	<ele>742.00</ele>
	<time>2025-02-15T07:46:09.000Z</time>
</trkpt>
<trkpt lat="45.8461090" lon="9.2292660">
	<ele>742.00</ele>
	<time>2025-02-15T07:46:10.000Z</time>
</trkpt>
<trkpt lat="45.8461220" lon="9.2292590">
	<ele>742.00</ele>
	<time>2025-02-15T07:46:11.000Z</time>
</trkpt>
<trkpt lat="45.8461350" lon="9.2292490">
	<ele>742.00</ele>
	<time>2025-02-15T07:46:12.000Z</time>
</trkpt>
<trkpt lat="45.8461500" lon="9.2292450">
	<ele>742.20</ele>
	<time>2025-02-15T07:46:13.000Z</time>
</trkpt>
<trkpt lat="45.8461530" lon="9.2292410">
	<ele>742.20</ele>
	<time>2025-02-15T07:46:14.000Z</time>
</trkpt>
<trkpt lat="45.8461570" lon="9.2292360">
	<ele>742.40</ele>
	<time>2025-02-15T07:46:15.000Z</time>
</trkpt>
<trkpt lat="45.8461620" lon="9.2292300">
	<ele>742.40</ele>
	<time>2025-02-15T07:46:16.000Z</time>
</trkpt>
<trkpt lat="45.8461620" lon="9.2292120">
	<ele>742.40</ele>
	<time>2025-02-15T07:46:17.000Z</time>
</trkpt>
<trkpt lat="45.8461590" lon="9.2291950">
	<ele>742.60</ele>
	<time>2025-02-15T07:46:18.000Z</time>
</trkpt>
<trkpt lat="45.8461560" lon="9.2291810">
	<ele>742.80</ele>
	<time>2025-02-15T07:46:19.000Z</time>
</trkpt>
<trkpt lat="45.8461590" lon="9.2291760">
	<ele>743.00</ele>
	<time>2025-02-15T07:46:20.000Z</time>
</trkpt>
<trkpt lat="45.8461630" lon="9.2291720">
	<ele>743.00</ele>
	<time>2025-02-15T07:46:21.000Z</time>
</trkpt>
<trkpt lat="45.8461670" lon="9.2291680">
	<ele>743.00</ele>
	<time>2025-02-15T07:46:22.000Z</time>
</trkpt>
<trkpt lat="45.8461700" lon="9.2291640">
	<ele>743.20</ele>
	<time>2025-02-15T07:46:23.000Z</time>
</trkpt>
<trkpt lat="45.8461730" lon="9.2291620">
	<ele>743.20</ele>
	<time>2025-02-15T07:46:24.000Z</time>
</trkpt>
<trkpt lat="45.8461760" lon="9.2291610">
	<ele>743.20</ele>
	<time>2025-02-15T07:46:25.000Z</time>
</trkpt>
<trkpt lat="45.8461790" lon="9.2291600">
	<ele>743.40</ele>
	<time>2025-02-15T07:46:26.000Z</time>
</trkpt>
<trkpt lat="45.8461860" lon="9.2291510">
	<ele>743.60</ele>
	<time>2025-02-15T07:46:27.000Z</time>
</trkpt>
<trkpt lat="45.8461970" lon="9.2291460">
	<ele>743.80</ele>
	<time>2025-02-15T07:46:28.000Z</time>
</trkpt>
<trkpt lat="45.8462000" lon="9.2291410">
	<ele>744.20</ele>
	<time>2025-02-15T07:46:29.000Z</time>
</trkpt>
<trkpt lat="45.8462010" lon="9.2291430">
	<ele>744.40</ele>
	<time>2025-02-15T07:46:30.000Z</time>
</trkpt>
<trkpt lat="45.8462050" lon="9.2291480">
	<ele>744.40</ele>
	<time>2025-02-15T07:46:31.000Z</time>
</trkpt>
<trkpt lat="45.8462070" lon="9.2291510">
	<ele>744.60</ele>
	<time>2025-02-15T07:46:32.000Z</time>
</trkpt>
<trkpt lat="45.8462070" lon="9.2291570">
	<ele>744.60</ele>
	<time>2025-02-15T07:46:33.000Z</time>
</trkpt>
<trkpt lat="45.8462140" lon="9.2291650">
	<ele>744.80</ele>
	<time>2025-02-15T07:46:34.000Z</time>
</trkpt>
<trkpt lat="45.8462160" lon="9.2291640">
	<ele>744.80</ele>
	<time>2025-02-15T07:46:35.000Z</time>
</trkpt>
<trkpt lat="45.8462240" lon="9.2291650">
	<ele>744.80</ele>
	<time>2025-02-15T07:46:36.000Z</time>
</trkpt>
<trkpt lat="45.8462310" lon="9.2291690">
	<ele>745.00</ele>
	<time>2025-02-15T07:46:37.000Z</time>
</trkpt>
<trkpt lat="45.8462330" lon="9.2291700">
	<ele>745.20</ele>
	<time>2025-02-15T07:46:38.000Z</time>
</trkpt>
<trkpt lat="45.8462340" lon="9.2291710">
	<ele>745.20</ele>
	<time>2025-02-15T07:46:39.000Z</time>
</trkpt>
<trkpt lat="45.8462350" lon="9.2291690">
	<ele>745.40</ele>
	<time>2025-02-15T07:46:40.000Z</time>
</trkpt>
<trkpt lat="45.8462370" lon="9.2291700">
	<ele>745.60</ele>
	<time>2025-02-15T07:46:41.000Z</time>
</trkpt>
<trkpt lat="45.8462370" lon="9.2291770">
	<ele>745.60</ele>
	<time>2025-02-15T07:46:42.000Z</time>
</trkpt>
<trkpt lat="45.8462380" lon="9.2291880">
	<ele>745.60</ele>
	<time>2025-02-15T07:46:43.000Z</time>
</trkpt>
<trkpt lat="45.8462420" lon="9.2291930">
	<ele>745.80</ele>
	<time>2025-02-15T07:46:44.000Z</time>
</trkpt>
<trkpt lat="45.8462460" lon="9.2292020">
	<ele>745.80</ele>
	<time>2025-02-15T07:46:45.000Z</time>
</trkpt>
<trkpt lat="45.8462470" lon="9.2292030">
	<ele>746.20</ele>
	<time>2025-02-15T07:46:46.000Z</time>
</trkpt>
<trkpt lat="45.8462460" lon="9.2292040">
	<ele>746.20</ele>
	<time>2025-02-15T07:46:47.000Z</time>
</trkpt>
<trkpt lat="45.8462490" lon="9.2292050">
	<ele>746.20</ele>
	<time>2025-02-15T07:46:48.000Z</time>
</trkpt>
<trkpt lat="45.8462570" lon="9.2292060">
	<ele>746.40</ele>
	<time>2025-02-15T07:46:49.000Z</time>
</trkpt>
<trkpt lat="45.8462650" lon="9.2292120">
	<ele>746.60</ele>
	<time>2025-02-15T07:46:50.000Z</time>
</trkpt>
<trkpt lat="45.8462660" lon="9.2292170">
	<ele>746.80</ele>
	<time>2025-02-15T07:46:51.000Z</time>
</trkpt>
<trkpt lat="45.8462640" lon="9.2292100">
	<ele>747.00</ele>
	<time>2025-02-15T07:46:52.000Z</time>
</trkpt>
<trkpt lat="45.8462640" lon="9.2292100">
	<ele>747.20</ele>
	<time>2025-02-15T07:46:53.000Z</time>
</trkpt>
<trkpt lat="45.8462640" lon="9.2292160">
	<ele>747.20</ele>
	<time>2025-02-15T07:46:54.000Z</time>
</trkpt>
<trkpt lat="45.8462630" lon="9.2292260">
	<ele>747.20</ele>
	<time>2025-02-15T07:46:55.000Z</time>
</trkpt>
<trkpt lat="45.8462680" lon="9.2292360">
	<ele>747.60</ele>
	<time>2025-02-15T07:46:56.000Z</time>
</trkpt>
<trkpt lat="45.8462680" lon="9.2292410">
	<ele>747.80</ele>
	<time>2025-02-15T07:46:57.000Z</time>
</trkpt>
<trkpt lat="45.8462670" lon="9.2292470">
	<ele>748.00</ele>
	<time>2025-02-15T07:46:58.000Z</time>
</trkpt>
<trkpt lat="45.8462700" lon="9.2292510">
	<ele>748.20</ele>
	<time>2025-02-15T07:46:59.000Z</time>
</trkpt>
<trkpt lat="45.8462730" lon="9.2292570">
	<ele>748.40</ele>
	<time>2025-02-15T07:47:00.000Z</time>
</trkpt>
<trkpt lat="45.8462730" lon="9.2292580">
	<ele>748.40</ele>
	<time>2025-02-15T07:47:01.000Z</time>
</trkpt>
<trkpt lat="45.8462770" lon="9.2292620">
	<ele>748.40</ele>
	<time>2025-02-15T07:47:02.000Z</time>
</trkpt>
<trkpt lat="45.8462790" lon="9.2292710">
	<ele>748.60</ele>
	<time>2025-02-15T07:47:03.000Z</time>
</trkpt>
<trkpt lat="45.8462800" lon="9.2292710">
	<ele>748.60</ele>
	<time>2025-02-15T07:47:04.000Z</time>
</trkpt>
<trkpt lat="45.8462860" lon="9.2292760">
	<ele>748.60</ele>
	<time>2025-02-15T07:47:05.000Z</time>
</trkpt>
<trkpt lat="45.8462890" lon="9.2292790">
	<ele>748.80</ele>
	<time>2025-02-15T07:47:06.000Z</time>
</trkpt>
<trkpt lat="45.8462960" lon="9.2292830">
	<ele>749.20</ele>
	<time>2025-02-15T07:47:07.000Z</time>
</trkpt>
<trkpt lat="45.8463020" lon="9.2292850">
	<ele>749.20</ele>
	<time>2025-02-15T07:47:08.000Z</time>
</trkpt>
<trkpt lat="45.8463030" lon="9.2292900">
	<ele>749.40</ele>
	<time>2025-02-15T07:47:09.000Z</time>
</trkpt>
<trkpt lat="45.8463040" lon="9.2292890">
	<ele>749.40</ele>
	<time>2025-02-15T07:47:10.000Z</time>
</trkpt>
<trkpt lat="45.8463090" lon="9.2292920">
	<ele>749.40</ele>
	<time>2025-02-15T07:47:11.000Z</time>
</trkpt>
<trkpt lat="45.8463110" lon="9.2292920">
	<ele>749.60</ele>
	<time>2025-02-15T07:47:12.000Z</time>
</trkpt>
<trkpt lat="45.8463100" lon="9.2292910">
	<ele>749.60</ele>
	<time>2025-02-15T07:47:13.000Z</time>
</trkpt>
<trkpt lat="45.8463140" lon="9.2292930">
	<ele>749.80</ele>
	<time>2025-02-15T07:47:14.000Z</time>
</trkpt>
<trkpt lat="45.8463160" lon="9.2292950">
	<ele>749.80</ele>
	<time>2025-02-15T07:47:15.000Z</time>
</trkpt>
<trkpt lat="45.8463180" lon="9.2292950">
	<ele>750.00</ele>
	<time>2025-02-15T07:47:16.000Z</time>
</trkpt>
<trkpt lat="45.8463230" lon="9.2293040">
	<ele>750.20</ele>
	<time>2025-02-15T07:47:17.000Z</time>
</trkpt>
<trkpt lat="45.8463250" lon="9.2293040">
	<ele>750.40</ele>
	<time>2025-02-15T07:47:18.000Z</time>
</trkpt>
<trkpt lat="45.8463270" lon="9.2293050">
	<ele>750.60</ele>
	<time>2025-02-15T07:47:19.000Z</time>
</trkpt>
<trkpt lat="45.8463290" lon="9.2293050">
	<ele>750.80</ele>
	<time>2025-02-15T07:47:20.000Z</time>
</trkpt>
<trkpt lat="45.8463310" lon="9.2293040">
	<ele>750.80</ele>
	<time>2025-02-15T07:47:21.000Z</time>
</trkpt>
<trkpt lat="45.8463340" lon="9.2293050">
	<ele>750.80</ele>
	<time>2025-02-15T07:47:22.000Z</time>
</trkpt>
<trkpt lat="45.8463360" lon="9.2293080">
	<ele>751.00</ele>
	<time>2025-02-15T07:47:23.000Z</time>
</trkpt>
<trkpt lat="45.8463370" lon="9.2293110">
	<ele>751.00</ele>
	<time>2025-02-15T07:47:24.000Z</time>
</trkpt>
<trkpt lat="45.8463410" lon="9.2293110">
	<ele>751.20</ele>
	<time>2025-02-15T07:47:25.000Z</time>
</trkpt>
<trkpt lat="45.8463470" lon="9.2293180">
	<ele>751.20</ele>
	<time>2025-02-15T07:47:26.000Z</time>
</trkpt>
<trkpt lat="45.8463500" lon="9.2293210">
	<ele>751.20</ele>
	<time>2025-02-15T07:47:27.000Z</time>
</trkpt>
<trkpt lat="45.8463530" lon="9.2293220">
	<ele>751.40</ele>
	<time>2025-02-15T07:47:28.000Z</time>
</trkpt>
<trkpt lat="45.8463540" lon="9.2293190">
	<ele>751.40</ele>
	<time>2025-02-15T07:47:29.000Z</time>
</trkpt>
<trkpt lat="45.8463590" lon="9.2293230">
	<ele>751.40</ele>
	<time>2025-02-15T07:47:30.000Z</time>
</trkpt>
<trkpt lat="45.8463590" lon="9.2293250">
	<ele>751.40</ele>
	<time>2025-02-15T07:47:31.000Z</time>
</trkpt>
<trkpt lat="45.8463600" lon="9.2293370">
	<ele>751.60</ele>
	<time>2025-02-15T07:47:32.000Z</time>
</trkpt>
<trkpt lat="45.8463640" lon="9.2293430">
	<ele>751.60</ele>
	<time>2025-02-15T07:47:33.000Z</time>
</trkpt>
<trkpt lat="45.8463670" lon="9.2293500">
	<ele>751.80</ele>
	<time>2025-02-15T07:47:34.000Z</time>
</trkpt>
<trkpt lat="45.8463700" lon="9.2293550">
	<ele>752.00</ele>
	<time>2025-02-15T07:47:35.000Z</time>
</trkpt>
<trkpt lat="45.8463670" lon="9.2293490">
	<ele>752.20</ele>
	<time>2025-02-15T07:47:36.000Z</time>
</trkpt>
<trkpt lat="45.8463690" lon="9.2293560">
	<ele>752.40</ele>
	<time>2025-02-15T07:47:37.000Z</time>
</trkpt>
<trkpt lat="45.8463700" lon="9.2293600">
	<ele>752.60</ele>
	<time>2025-02-15T07:47:38.000Z</time>
</trkpt>
<trkpt lat="45.8463710" lon="9.2293670">
	<ele>752.60</ele>
	<time>2025-02-15T07:47:39.000Z</time>
</trkpt>
<trkpt lat="45.8463730" lon="9.2293710">
	<ele>752.60</ele>
	<time>2025-02-15T07:47:40.000Z</time>
</trkpt>
<trkpt lat="45.8463780" lon="9.2293820">
	<ele>752.80</ele>
	<time>2025-02-15T07:47:41.000Z</time>
</trkpt>
<trkpt lat="45.8463790" lon="9.2293840">
	<ele>753.00</ele>
	<time>2025-02-15T07:47:42.000Z</time>
</trkpt>
<trkpt lat="45.8463840" lon="9.2293920">
	<ele>753.20</ele>
	<time>2025-02-15T07:47:43.000Z</time>
</trkpt>
<trkpt lat="45.8463890" lon="9.2293990">
	<ele>753.40</ele>
	<time>2025-02-15T07:47:44.000Z</time>
</trkpt>
<trkpt lat="45.8463930" lon="9.2294030">
	<ele>753.40</ele>
	<time>2025-02-15T07:47:45.000Z</time>
</trkpt>
<trkpt lat="45.8463930" lon="9.2294030">
	<ele>753.60</ele>
	<time>2025-02-15T07:47:46.000Z</time>
</trkpt>
<trkpt lat="45.8463990" lon="9.2294020">
	<ele>753.80</ele>
	<time>2025-02-15T07:47:47.000Z</time>
</trkpt>
<trkpt lat="45.8464030" lon="9.2294020">
	<ele>753.80</ele>
	<time>2025-02-15T07:47:48.000Z</time>
</trkpt>
<trkpt lat="45.8464040" lon="9.2294040">
	<ele>753.80</ele>
	<time>2025-02-15T07:47:49.000Z</time>
</trkpt>
<trkpt lat="45.8464070" lon="9.2293970">
	<ele>754.00</ele>
	<time>2025-02-15T07:47:50.000Z</time>
</trkpt>
<trkpt lat="45.8464070" lon="9.2293970">
	<ele>754.00</ele>
	<time>2025-02-15T07:47:51.000Z</time>
</trkpt>
<trkpt lat="45.8464100" lon="9.2294010">
	<ele>754.00</ele>
	<time>2025-02-15T07:47:52.000Z</time>
</trkpt>
<trkpt lat="45.8464090" lon="9.2294020">
	<ele>754.20</ele>
	<time>2025-02-15T07:47:53.000Z</time>
</trkpt>
<trkpt lat="45.8464100" lon="9.2294050">
	<ele>754.20</ele>
	<time>2025-02-15T07:47:54.000Z</time>
</trkpt>
<trkpt lat="45.8464030" lon="9.2294110">
	<ele>754.20</ele>
	<time>2025-02-15T07:47:55.000Z</time>
</trkpt>
<trkpt lat="45.8464030" lon="9.2294150">
	<ele>754.20</ele>
	<time>2025-02-15T07:47:56.000Z</time>
</trkpt>
<trkpt lat="45.8464020" lon="9.2294190">
	<ele>754.20</ele>
	<time>2025-02-15T07:47:57.000Z</time>
</trkpt>
<trkpt lat="45.8464010" lon="9.2294140">
	<ele>754.20</ele>
	<time>2025-02-15T07:47:58.000Z</time>
</trkpt>
<trkpt lat="45.8464030" lon="9.2294200">
	<ele>754.20</ele>
	<time>2025-02-15T07:47:59.000Z</time>
</trkpt>
<trkpt lat="45.8464040" lon="9.2294220">
	<ele>754.20</ele>
	<time>2025-02-15T07:48:00.000Z</time>
</trkpt>
<trkpt lat="45.8464020" lon="9.2294220">
	<ele>754.20</ele>
	<time>2025-02-15T07:48:01.000Z</time>
</trkpt>
<trkpt lat="45.8464040" lon="9.2294230">
	<ele>754.20</ele>
	<time>2025-02-15T07:48:02.000Z</time>
</trkpt>
<trkpt lat="45.8464120" lon="9.2294320">
	<ele>754.20</ele>
	<time>2025-02-15T07:48:03.000Z</time>
</trkpt>
<trkpt lat="45.8464130" lon="9.2294360">
	<ele>754.20</ele>
	<time>2025-02-15T07:48:04.000Z</time>
</trkpt>
<trkpt lat="45.8464120" lon="9.2294370">
	<ele>754.20</ele>
	<time>2025-02-15T07:48:05.000Z</time>
</trkpt>
<trkpt lat="45.8464060" lon="9.2294300">
	<ele>754.20</ele>
	<time>2025-02-15T07:48:06.000Z</time>
</trkpt>
<trkpt lat="45.8463990" lon="9.2294250">
	<ele>754.20</ele>
	<time>2025-02-15T07:48:07.000Z</time>
</trkpt>
<trkpt lat="45.8463880" lon="9.2294090">
	<ele>754.20</ele>
	<time>2025-02-15T07:48:08.000Z</time>
</trkpt>
<trkpt lat="45.8463850" lon="9.2294040">
	<ele>754.20</ele>
	<time>2025-02-15T07:48:09.000Z</time>
</trkpt>
<trkpt lat="45.8463830" lon="9.2294000">
	<ele>754.20</ele>
	<time>2025-02-15T07:48:10.000Z</time>
</trkpt>
<trkpt lat="45.8463840" lon="9.2293990">
	<ele>754.20</ele>
	<time>2025-02-15T07:48:11.000Z</time>
</trkpt>
<trkpt lat="45.8463840" lon="9.2293970">
	<ele>754.20</ele>
	<time>2025-02-15T07:48:12.000Z</time>
</trkpt>
<trkpt lat="45.8463910" lon="9.2294020">
	<ele>754.20</ele>
	<time>2025-02-15T07:48:13.000Z</time>
</trkpt>
<trkpt lat="45.8463960" lon="9.2294040">
	<ele>754.20</ele>
	<time>2025-02-15T07:48:14.000Z</time>
</trkpt>
<trkpt lat="45.8463920" lon="9.2294030">
	<ele>754.40</ele>
	<time>2025-02-15T07:48:15.000Z</time>
</trkpt>
<trkpt lat="45.8463920" lon="9.2294070">
	<ele>754.40</ele>
	<time>2025-02-15T07:48:16.000Z</time>
</trkpt>
<trkpt lat="45.8463880" lon="9.2294160">
	<ele>754.40</ele>
	<time>2025-02-15T07:48:17.000Z</time>
</trkpt>
<trkpt lat="45.8463800" lon="9.2294160">
	<ele>754.40</ele>
	<time>2025-02-15T07:48:18.000Z</time>
</trkpt>
<trkpt lat="45.8463810" lon="9.2294200">
	<ele>754.40</ele>
	<time>2025-02-15T07:48:19.000Z</time>
</trkpt>
<trkpt lat="45.8463710" lon="9.2294060">
	<ele>754.40</ele>
	<time>2025-02-15T07:48:20.000Z</time>
</trkpt>
<trkpt lat="45.8463680" lon="9.2294080">
	<ele>754.40</ele>
	<time>2025-02-15T07:48:21.000Z</time>
</trkpt>
<trkpt lat="45.8463630" lon="9.2294080">
	<ele>754.40</ele>
	<time>2025-02-15T07:48:22.000Z</time>
</trkpt>
<trkpt lat="45.8463650" lon="9.2294150">
	<ele>754.40</ele>
	<time>2025-02-15T07:48:23.000Z</time>
</trkpt>
<trkpt lat="45.8463700" lon="9.2294160">
	<ele>754.40</ele>
	<time>2025-02-15T07:48:24.000Z</time>
</trkpt>
<trkpt lat="45.8463680" lon="9.2294190">
	<ele>754.40</ele>
	<time>2025-02-15T07:48:25.000Z</time>
</trkpt>
<trkpt lat="45.8463680" lon="9.2294190">
	<ele>754.80</ele>
	<time>2025-02-15T07:48:26.000Z</time>
</trkpt>
<trkpt lat="45.8463690" lon="9.2294140">
	<ele>755.20</ele>
	<time>2025-02-15T07:48:27.000Z</time>
</trkpt>
<trkpt lat="45.8463650" lon="9.2294130">
	<ele>755.40</ele>
	<time>2025-02-15T07:48:28.000Z</time>
</trkpt>
<trkpt lat="45.8463640" lon="9.2294150">
	<ele>755.40</ele>
	<time>2025-02-15T07:48:29.000Z</time>
</trkpt>
<trkpt lat="45.8463630" lon="9.2294180">
	<ele>755.60</ele>
	<time>2025-02-15T07:48:30.000Z</time>
</trkpt>
<trkpt lat="45.8463620" lon="9.2294170">
	<ele>755.80</ele>
	<time>2025-02-15T07:48:31.000Z</time>
</trkpt>
<trkpt lat="45.8463620" lon="9.2294140">
	<ele>755.80</ele>
	<time>2025-02-15T07:48:32.000Z</time>
</trkpt>
<trkpt lat="45.8463590" lon="9.2294110">
	<ele>756.00</ele>
	<time>2025-02-15T07:48:33.000Z</time>
</trkpt>
<trkpt lat="45.8463590" lon="9.2294170">
	<ele>756.00</ele>
	<time>2025-02-15T07:48:34.000Z</time>
</trkpt>
<trkpt lat="45.8463570" lon="9.2294130">
	<ele>756.20</ele>
	<time>2025-02-15T07:48:35.000Z</time>
</trkpt>
<trkpt lat="45.8463590" lon="9.2294100">
	<ele>756.40</ele>
	<time>2025-02-15T07:48:36.000Z</time>
</trkpt>
<trkpt lat="45.8463600" lon="9.2294030">
	<ele>756.40</ele>
	<time>2025-02-15T07:48:37.000Z</time>
</trkpt>
<trkpt lat="45.8463580" lon="9.2294010">
	<ele>756.40</ele>
	<time>2025-02-15T07:48:38.000Z</time>
</trkpt>
<trkpt lat="45.8463550" lon="9.2293980">
	<ele>756.60</ele>
	<time>2025-02-15T07:48:39.000Z</time>
</trkpt>
<trkpt lat="45.8463540" lon="9.2293950">
	<ele>756.80</ele>
	<time>2025-02-15T07:48:40.000Z</time>
</trkpt>
<trkpt lat="45.8463510" lon="9.2293890">
	<ele>756.80</ele>
	<time>2025-02-15T07:48:41.000Z</time>
</trkpt>
<trkpt lat="45.8463490" lon="9.2293810">
	<ele>757.00</ele>
	<time>2025-02-15T07:48:42.000Z</time>
</trkpt>
<trkpt lat="45.8463460" lon="9.2293750">
	<ele>757.00</ele>
	<time>2025-02-15T07:48:43.000Z</time>
</trkpt>
<trkpt lat="45.8463540" lon="9.2293680">
	<ele>757.20</ele>
	<time>2025-02-15T07:48:44.000Z</time>
</trkpt>
<trkpt lat="45.8463530" lon="9.2293510">
	<ele>757.20</ele>
	<time>2025-02-15T07:48:45.000Z</time>
</trkpt>
<trkpt lat="45.8463470" lon="9.2293390">
	<ele>757.40</ele>
	<time>2025-02-15T07:48:46.000Z</time>
</trkpt>
<trkpt lat="45.8463420" lon="9.2293240">
	<ele>757.40</ele>
	<time>2025-02-15T07:48:47.000Z</time>
</trkpt>
<trkpt lat="45.8463380" lon="9.2293180">
	<ele>757.40</ele>
	<time>2025-02-15T07:48:48.000Z</time>
</trkpt>
<trkpt lat="45.8463350" lon="9.2293270">
	<ele>757.60</ele>
	<time>2025-02-15T07:48:49.000Z</time>
</trkpt>
<trkpt lat="45.8463310" lon="9.2293370">
	<ele>757.80</ele>
	<time>2025-02-15T07:48:50.000Z</time>
</trkpt>
<trkpt lat="45.8463260" lon="9.2293360">
	<ele>758.00</ele>
	<time>2025-02-15T07:48:51.000Z</time>
</trkpt>
<trkpt lat="45.8463220" lon="9.2293350">
	<ele>758.20</ele>
	<time>2025-02-15T07:48:52.000Z</time>
</trkpt>
<trkpt lat="45.8463190" lon="9.2293320">
	<ele>758.20</ele>
	<time>2025-02-15T07:48:53.000Z</time>
</trkpt>
<trkpt lat="45.8463120" lon="9.2293410">
	<ele>758.40</ele>
	<time>2025-02-15T07:48:54.000Z</time>
</trkpt>
<trkpt lat="45.8463050" lon="9.2293410">
	<ele>758.40</ele>
	<time>2025-02-15T07:48:55.000Z</time>
</trkpt>
<trkpt lat="45.8463010" lon="9.2293400">
	<ele>758.80</ele>
	<time>2025-02-15T07:48:56.000Z</time>
</trkpt>
<trkpt lat="45.8463010" lon="9.2293480">
	<ele>759.00</ele>
	<time>2025-02-15T07:48:57.000Z</time>
</trkpt>
<trkpt lat="45.8462990" lon="9.2293560">
	<ele>759.00</ele>
	<time>2025-02-15T07:48:58.000Z</time>
</trkpt>
<trkpt lat="45.8462960" lon="9.2293620">
	<ele>759.20</ele>
	<time>2025-02-15T07:48:59.000Z</time>
</trkpt>
<trkpt lat="45.8462890" lon="9.2293620">
	<ele>759.40</ele>
	<time>2025-02-15T07:49:00.000Z</time>
</trkpt>
<trkpt lat="45.8462840" lon="9.2293640">
	<ele>759.60</ele>
	<time>2025-02-15T07:49:01.000Z</time>
</trkpt>
<trkpt lat="45.8462790" lon="9.2293640">
	<ele>759.60</ele>
	<time>2025-02-15T07:49:02.000Z</time>
</trkpt>
<trkpt lat="45.8462750" lon="9.2293650">
	<ele>759.80</ele>
	<time>2025-02-15T07:49:03.000Z</time>
</trkpt>
<trkpt lat="45.8462680" lon="9.2293660">
	<ele>759.80</ele>
	<time>2025-02-15T07:49:04.000Z</time>
</trkpt>
<trkpt lat="45.8462630" lon="9.2293720">
	<ele>760.00</ele>
	<time>2025-02-15T07:49:05.000Z</time>
</trkpt>
<trkpt lat="45.8462570" lon="9.2293820">
	<ele>760.00</ele>
	<time>2025-02-15T07:49:06.000Z</time>
</trkpt>
<trkpt lat="45.8462500" lon="9.2293890">
	<ele>760.20</ele>
	<time>2025-02-15T07:49:07.000Z</time>
</trkpt>
<trkpt lat="45.8462440" lon="9.2293870">
	<ele>760.40</ele>
	<time>2025-02-15T07:49:08.000Z</time>
</trkpt>
<trkpt lat="45.8462410" lon="9.2293880">
	<ele>760.60</ele>
	<time>2025-02-15T07:49:09.000Z</time>
</trkpt>
<trkpt lat="45.8462400" lon="9.2293880">
	<ele>760.60</ele>
	<time>2025-02-15T07:49:10.000Z</time>
</trkpt>
<trkpt lat="45.8462320" lon="9.2293940">
	<ele>760.80</ele>
	<time>2025-02-15T07:49:11.000Z</time>
</trkpt>
<trkpt lat="45.8462320" lon="9.2294050">
	<ele>760.80</ele>
	<time>2025-02-15T07:49:12.000Z</time>
</trkpt>
<trkpt lat="45.8462350" lon="9.2294150">
	<ele>761.00</ele>
	<time>2025-02-15T07:49:13.000Z</time>
</trkpt>
<trkpt lat="45.8462350" lon="9.2294210">
	<ele>761.00</ele>
	<time>2025-02-15T07:49:14.000Z</time>
</trkpt>
<trkpt lat="45.8462260" lon="9.2294350">
	<ele>761.20</ele>
	<time>2025-02-15T07:49:15.000Z</time>
</trkpt>
<trkpt lat="45.8462250" lon="9.2294360">
	<ele>761.20</ele>
	<time>2025-02-15T07:49:16.000Z</time>
</trkpt>
<trkpt lat="45.8462260" lon="9.2294360">
	<ele>761.20</ele>
	<time>2025-02-15T07:49:17.000Z</time>
</trkpt>
<trkpt lat="45.8462260" lon="9.2294330">
	<ele>761.20</ele>
	<time>2025-02-15T07:49:18.000Z</time>
</trkpt>
<trkpt lat="45.8462200" lon="9.2294300">
	<ele>761.20</ele>
	<time>2025-02-15T07:49:19.000Z</time>
</trkpt>
<trkpt lat="45.8462200" lon="9.2294280">
	<ele>761.20</ele>
	<time>2025-02-15T07:49:20.000Z</time>
</trkpt>
<trkpt lat="45.8462200" lon="9.2294290">
	<ele>761.20</ele>
	<time>2025-02-15T07:49:21.000Z</time>
</trkpt>
<trkpt lat="45.8462180" lon="9.2294300">
	<ele>761.40</ele>
	<time>2025-02-15T07:49:22.000Z</time>
</trkpt>
<trkpt lat="45.8462100" lon="9.2294350">
	<ele>761.60</ele>
	<time>2025-02-15T07:49:23.000Z</time>
</trkpt>
<trkpt lat="45.8462080" lon="9.2294340">
	<ele>761.60</ele>
	<time>2025-02-15T07:49:24.000Z</time>
</trkpt>
<trkpt lat="45.8462070" lon="9.2294330">
	<ele>761.80</ele>
	<time>2025-02-15T07:49:25.000Z</time>
</trkpt>
<trkpt lat="45.8462060" lon="9.2294320">
	<ele>761.80</ele>
	<time>2025-02-15T07:49:26.000Z</time>
</trkpt>
<trkpt lat="45.8462060" lon="9.2294320">
	<ele>761.80</ele>
	<time>2025-02-15T07:49:27.000Z</time>
</trkpt>
<trkpt lat="45.8462070" lon="9.2294400">
	<ele>761.60</ele>
	<time>2025-02-15T07:49:28.000Z</time>
</trkpt>
<trkpt lat="45.8462110" lon="9.2294440">
	<ele>761.60</ele>
	<time>2025-02-15T07:49:29.000Z</time>
</trkpt>
<trkpt lat="45.8462130" lon="9.2294470">
	<ele>761.40</ele>
	<time>2025-02-15T07:49:30.000Z</time>
</trkpt>
<trkpt lat="45.8462140" lon="9.2294510">
	<ele>761.40</ele>
	<time>2025-02-15T07:49:31.000Z</time>
</trkpt>
<trkpt lat="45.8462150" lon="9.2294640">
	<ele>761.40</ele>
	<time>2025-02-15T07:49:32.000Z</time>
</trkpt>
<trkpt lat="45.8462140" lon="9.2294700">
	<ele>761.60</ele>
	<time>2025-02-15T07:49:33.000Z</time>
</trkpt>
<trkpt lat="45.8462140" lon="9.2294740">
	<ele>761.60</ele>
	<time>2025-02-15T07:49:34.000Z</time>
</trkpt>
<trkpt lat="45.8462150" lon="9.2294760">
	<ele>761.80</ele>
	<time>2025-02-15T07:49:35.000Z</time>
</trkpt>
<trkpt lat="45.8462150" lon="9.2294790">
	<ele>761.80</ele>
	<time>2025-02-15T07:49:36.000Z</time>
</trkpt>
<trkpt lat="45.8462170" lon="9.2294800">
	<ele>762.00</ele>
	<time>2025-02-15T07:49:37.000Z</time>
</trkpt>
<trkpt lat="45.8462170" lon="9.2294840">
	<ele>762.00</ele>
	<time>2025-02-15T07:49:38.000Z</time>
</trkpt>
<trkpt lat="45.8462130" lon="9.2294920">
	<ele>762.20</ele>
	<time>2025-02-15T07:49:39.000Z</time>
</trkpt>
<trkpt lat="45.8462110" lon="9.2294970">
	<ele>762.20</ele>
	<time>2025-02-15T07:49:40.000Z</time>
</trkpt>
<trkpt lat="45.8462120" lon="9.2295000">
	<ele>762.60</ele>
	<time>2025-02-15T07:49:41.000Z</time>
</trkpt>
<trkpt lat="45.8462140" lon="9.2295090">
	<ele>762.80</ele>
	<time>2025-02-15T07:49:42.000Z</time>
</trkpt>
<trkpt lat="45.8462160" lon="9.2295170">
	<ele>763.00</ele>
	<time>2025-02-15T07:49:43.000Z</time>
</trkpt>
<trkpt lat="45.8462190" lon="9.2295180">
	<ele>763.20</ele>
	<time>2025-02-15T07:49:44.000Z</time>
</trkpt>
<trkpt lat="45.8462160" lon="9.2295240">
	<ele>763.40</ele>
	<time>2025-02-15T07:49:45.000Z</time>
</trkpt>
<trkpt lat="45.8462160" lon="9.2295260">
	<ele>763.60</ele>
	<time>2025-02-15T07:49:46.000Z</time>
</trkpt>
<trkpt lat="45.8462170" lon="9.2295310">
	<ele>763.60</ele>
	<time>2025-02-15T07:49:47.000Z</time>
</trkpt>
<trkpt lat="45.8462180" lon="9.2295380">
	<ele>763.80</ele>
	<time>2025-02-15T07:49:48.000Z</time>
</trkpt>
<trkpt lat="45.8462200" lon="9.2295450">
	<ele>764.00</ele>
	<time>2025-02-15T07:49:49.000Z</time>
</trkpt>
<trkpt lat="45.8462230" lon="9.2295450">
	<ele>764.20</ele>
	<time>2025-02-15T07:49:50.000Z</time>
</trkpt>
<trkpt lat="45.8462250" lon="9.2295460">
	<ele>764.60</ele>
	<time>2025-02-15T07:49:51.000Z</time>
</trkpt>
<trkpt lat="45.8462240" lon="9.2295460">
	<ele>764.80</ele>
	<time>2025-02-15T07:49:52.000Z</time>
</trkpt>
<trkpt lat="45.8462260" lon="9.2295460">
	<ele>765.00</ele>
	<time>2025-02-15T07:49:53.000Z</time>
</trkpt>
<trkpt lat="45.8462260" lon="9.2295480">
	<ele>765.20</ele>
	<time>2025-02-15T07:49:54.000Z</time>
</trkpt>
<trkpt lat="45.8462260" lon="9.2295480">
	<ele>765.20</ele>
	<time>2025-02-15T07:49:55.000Z</time>
</trkpt>
<trkpt lat="45.8462260" lon="9.2295480">
	<ele>765.20</ele>
	<time>2025-02-15T07:49:56.000Z</time>
</trkpt>
<trkpt lat="45.8462260" lon="9.2295480">
	<ele>765.20</ele>
	<time>2025-02-15T07:49:57.000Z</time>
</trkpt>
<trkpt lat="45.8462260" lon="9.2295480">
	<ele>765.60</ele>
	<time>2025-02-15T07:49:58.000Z</time>
</trkpt>
<trkpt lat="45.8462260" lon="9.2295480">
	<ele>765.80</ele>
	<time>2025-02-15T07:49:59.000Z</time>
</trkpt>
<trkpt lat="45.8462260" lon="9.2295480">
	<ele>766.00</ele>
	<time>2025-02-15T07:50:00.000Z</time>
</trkpt>
<trkpt lat="45.8462260" lon="9.2295480">
	<ele>766.00</ele>
	<time>2025-02-15T07:50:01.000Z</time>
</trkpt>
<trkpt lat="45.8462260" lon="9.2295480">
	<ele>766.20</ele>
	<time>2025-02-15T07:50:02.000Z</time>
</trkpt>
<trkpt lat="45.8462260" lon="9.2295480">
	<ele>766.20</ele>
	<time>2025-02-15T07:50:03.000Z</time>
</trkpt>
<trkpt lat="45.8462260" lon="9.2295480">
	<ele>766.40</ele>
	<time>2025-02-15T07:50:04.000Z</time>
</trkpt>
<trkpt lat="45.8462260" lon="9.2295480">
	<ele>766.60</ele>
	<time>2025-02-15T07:50:05.000Z</time>
</trkpt>
<trkpt lat="45.8462260" lon="9.2295480">
	<ele>766.60</ele>
	<time>2025-02-15T07:50:06.000Z</time>
</trkpt>
<trkpt lat="45.8462260" lon="9.2295480">
	<ele>766.80</ele>
	<time>2025-02-15T07:50:07.000Z</time>
</trkpt>
<trkpt lat="45.8462260" lon="9.2295480">
	<ele>767.00</ele>
	<time>2025-02-15T07:50:08.000Z</time>
</trkpt>
<trkpt lat="45.8462260" lon="9.2295480">
	<ele>767.00</ele>
	<time>2025-02-15T07:50:09.000Z</time>
</trkpt>
<trkpt lat="45.8462280" lon="9.2295480">
	<ele>767.20</ele>
	<time>2025-02-15T07:50:10.000Z</time>
</trkpt>
<trkpt lat="45.8462290" lon="9.2295480">
	<ele>767.40</ele>
	<time>2025-02-15T07:50:11.000Z</time>
</trkpt>
<trkpt lat="45.8462290" lon="9.2295480">
	<ele>767.40</ele>
	<time>2025-02-15T07:50:12.000Z</time>
</trkpt>
<trkpt lat="45.8462300" lon="9.2295490">
	<ele>767.40</ele>
	<time>2025-02-15T07:50:13.000Z</time>
</trkpt>
<trkpt lat="45.8462300" lon="9.2295500">
	<ele>767.60</ele>
	<time>2025-02-15T07:50:14.000Z</time>
</trkpt>
<trkpt lat="45.8462320" lon="9.2295500">
	<ele>767.60</ele>
	<time>2025-02-15T07:50:15.000Z</time>
</trkpt>
<trkpt lat="45.8462320" lon="9.2295510">
	<ele>767.60</ele>
	<time>2025-02-15T07:50:16.000Z</time>
</trkpt>
<trkpt lat="45.8462350" lon="9.2295520">
	<ele>767.80</ele>
	<time>2025-02-15T07:50:17.000Z</time>
</trkpt>
<trkpt lat="45.8462400" lon="9.2295530">
	<ele>767.80</ele>
	<time>2025-02-15T07:50:18.000Z</time>
</trkpt>
<trkpt lat="45.8462440" lon="9.2295530">
	<ele>768.00</ele>
	<time>2025-02-15T07:50:19.000Z</time>
</trkpt>
<trkpt lat="45.8462490" lon="9.2295540">
	<ele>768.00</ele>
	<time>2025-02-15T07:50:20.000Z</time>
</trkpt>
<trkpt lat="45.8462520" lon="9.2295540">
	<ele>768.20</ele>
	<time>2025-02-15T07:50:21.000Z</time>
</trkpt>
<trkpt lat="45.8462530" lon="9.2295690">
	<ele>768.20</ele>
	<time>2025-02-15T07:50:22.000Z</time>
</trkpt>
<trkpt lat="45.8462540" lon="9.2295740">
	<ele>768.40</ele>
	<time>2025-02-15T07:50:23.000Z</time>
</trkpt>
<trkpt lat="45.8462560" lon="9.2295850">
	<ele>768.60</ele>
	<time>2025-02-15T07:50:24.000Z</time>
</trkpt>
<trkpt lat="45.8462570" lon="9.2295880">
	<ele>768.60</ele>
	<time>2025-02-15T07:50:25.000Z</time>
</trkpt>
<trkpt lat="45.8462580" lon="9.2295960">
	<ele>768.80</ele>
	<time>2025-02-15T07:50:26.000Z</time>
</trkpt>
<trkpt lat="45.8462600" lon="9.2295980">
	<ele>768.80</ele>
	<time>2025-02-15T07:50:27.000Z</time>
</trkpt>
<trkpt lat="45.8462600" lon="9.2295990">
	<ele>769.00</ele>
	<time>2025-02-15T07:50:28.000Z</time>
</trkpt>
<trkpt lat="45.8462610" lon="9.2296000">
	<ele>769.20</ele>
	<time>2025-02-15T07:50:29.000Z</time>
</trkpt>
<trkpt lat="45.8462620" lon="9.2296000">
	<ele>769.20</ele>
	<time>2025-02-15T07:50:30.000Z</time>
</trkpt>
<trkpt lat="45.8462680" lon="9.2296070">
	<ele>769.40</ele>
	<time>2025-02-15T07:50:31.000Z</time>
</trkpt>
<trkpt lat="45.8462730" lon="9.2296190">
	<ele>769.40</ele>
	<time>2025-02-15T07:50:32.000Z</time>
</trkpt>
<trkpt lat="45.8462760" lon="9.2296220">
	<ele>769.60</ele>
	<time>2025-02-15T07:50:33.000Z</time>
</trkpt>
<trkpt lat="45.8462780" lon="9.2296250">
	<ele>769.80</ele>
	<time>2025-02-15T07:50:34.000Z</time>
</trkpt>
<trkpt lat="45.8462800" lon="9.2296280">
	<ele>770.00</ele>
	<time>2025-02-15T07:50:35.000Z</time>
</trkpt>
<trkpt lat="45.8462820" lon="9.2296310">
	<ele>770.20</ele>
	<time>2025-02-15T07:50:36.000Z</time>
</trkpt>
<trkpt lat="45.8462850" lon="9.2296350">
	<ele>770.20</ele>
	<time>2025-02-15T07:50:37.000Z</time>
</trkpt>
<trkpt lat="45.8462880" lon="9.2296400">
	<ele>770.40</ele>
	<time>2025-02-15T07:50:38.000Z</time>
</trkpt>
<trkpt lat="45.8462900" lon="9.2296440">
	<ele>770.60</ele>
	<time>2025-02-15T07:50:39.000Z</time>
</trkpt>
<trkpt lat="45.8462930" lon="9.2296520">
	<ele>770.60</ele>
	<time>2025-02-15T07:50:40.000Z</time>
</trkpt>
<trkpt lat="45.8462980" lon="9.2296630">
	<ele>770.60</ele>
	<time>2025-02-15T07:50:41.000Z</time>
</trkpt>
<trkpt lat="45.8463030" lon="9.2296780">
	<ele>770.80</ele>
	<time>2025-02-15T07:50:42.000Z</time>
</trkpt>
<trkpt lat="45.8463090" lon="9.2297060">
	<ele>770.80</ele>
	<time>2025-02-15T07:50:43.000Z</time>
</trkpt>
<trkpt lat="45.8463150" lon="9.2297190">
	<ele>771.00</ele>
	<time>2025-02-15T07:50:44.000Z</time>
</trkpt>
<trkpt lat="45.8463230" lon="9.2297310">
	<ele>771.00</ele>
	<time>2025-02-15T07:50:45.000Z</time>
</trkpt>
<trkpt lat="45.8463300" lon="9.2297430">
	<ele>771.40</ele>
	<time>2025-02-15T07:50:46.000Z</time>
</trkpt>
<trkpt lat="45.8463390" lon="9.2297640">
	<ele>771.60</ele>
	<time>2025-02-15T07:50:47.000Z</time>
</trkpt>
<trkpt lat="45.8463420" lon="9.2297780">
	<ele>771.60</ele>
	<time>2025-02-15T07:50:48.000Z</time>
</trkpt>
<trkpt lat="45.8463470" lon="9.2297880">
	<ele>771.80</ele>
	<time>2025-02-15T07:50:49.000Z</time>
</trkpt>
<trkpt lat="45.8463550" lon="9.2297990">
	<ele>772.00</ele>
	<time>2025-02-15T07:50:50.000Z</time>
</trkpt>
<trkpt lat="45.8463490" lon="9.2298120">
	<ele>772.00</ele>
	<time>2025-02-15T07:50:51.000Z</time>
</trkpt>
<trkpt lat="45.8463520" lon="9.2298160">
	<ele>772.20</ele>
	<time>2025-02-15T07:50:52.000Z</time>
</trkpt>
<trkpt lat="45.8463480" lon="9.2298250">
	<ele>772.20</ele>
	<time>2025-02-15T07:50:53.000Z</time>
</trkpt>
<trkpt lat="45.8463520" lon="9.2298270">
	<ele>772.20</ele>
	<time>2025-02-15T07:50:54.000Z</time>
</trkpt>
<trkpt lat="45.8463530" lon="9.2298300">
	<ele>772.60</ele>
	<time>2025-02-15T07:50:55.000Z</time>
</trkpt>
<trkpt lat="45.8463540" lon="9.2298350">
	<ele>772.80</ele>
	<time>2025-02-15T07:50:56.000Z</time>
</trkpt>
<trkpt lat="45.8463570" lon="9.2298400">
	<ele>772.80</ele>
	<time>2025-02-15T07:50:57.000Z</time>
</trkpt>
<trkpt lat="45.8463580" lon="9.2298420">
	<ele>773.00</ele>
	<time>2025-02-15T07:50:58.000Z</time>
</trkpt>
<trkpt lat="45.8463590" lon="9.2298530">
	<ele>773.00</ele>
	<time>2025-02-15T07:50:59.000Z</time>
</trkpt>
<trkpt lat="45.8463600" lon="9.2298740">
	<ele>773.00</ele>
	<time>2025-02-15T07:51:00.000Z</time>
</trkpt>
<trkpt lat="45.8463660" lon="9.2298930">
	<ele>773.20</ele>
	<time>2025-02-15T07:51:01.000Z</time>
</trkpt>
<trkpt lat="45.8463710" lon="9.2299070">
	<ele>773.40</ele>
	<time>2025-02-15T07:51:02.000Z</time>
</trkpt>
<trkpt lat="45.8463780" lon="9.2299270">
	<ele>773.60</ele>
	<time>2025-02-15T07:51:03.000Z</time>
</trkpt>
<trkpt lat="45.8463860" lon="9.2299180">
	<ele>773.80</ele>
	<time>2025-02-15T07:51:04.000Z</time>
</trkpt>
<trkpt lat="45.8463910" lon="9.2299160">
	<ele>773.80</ele>
	<time>2025-02-15T07:51:05.000Z</time>
</trkpt>
<trkpt lat="45.8463940" lon="9.2299160">
	<ele>773.80</ele>
	<time>2025-02-15T07:51:06.000Z</time>
</trkpt>
<trkpt lat="45.8463940" lon="9.2299120">
	<ele>774.00</ele>
	<time>2025-02-15T07:51:07.000Z</time>
</trkpt>
<trkpt lat="45.8463960" lon="9.2299080">
	<ele>774.20</ele>
	<time>2025-02-15T07:51:08.000Z</time>
</trkpt>
<trkpt lat="45.8464020" lon="9.2299010">
	<ele>774.20</ele>
	<time>2025-02-15T07:51:09.000Z</time>
</trkpt>
<trkpt lat="45.8464130" lon="9.2298950">
	<ele>774.40</ele>
	<time>2025-02-15T07:51:10.000Z</time>
</trkpt>
<trkpt lat="45.8464290" lon="9.2299090">
	<ele>774.60</ele>
	<time>2025-02-15T07:51:11.000Z</time>
</trkpt>
<trkpt lat="45.8464420" lon="9.2299260">
	<ele>774.60</ele>
	<time>2025-02-15T07:51:12.000Z</time>
</trkpt>
<trkpt lat="45.8464440" lon="9.2299320">
	<ele>774.80</ele>
	<time>2025-02-15T07:51:13.000Z</time>
</trkpt>
<trkpt lat="45.8464460" lon="9.2299340">
	<ele>774.80</ele>
	<time>2025-02-15T07:51:14.000Z</time>
</trkpt>
<trkpt lat="45.8464490" lon="9.2299360">
	<ele>774.80</ele>
	<time>2025-02-15T07:51:15.000Z</time>
</trkpt>
<trkpt lat="45.8464450" lon="9.2299410">
	<ele>775.00</ele>
	<time>2025-02-15T07:51:16.000Z</time>
</trkpt>
<trkpt lat="45.8464450" lon="9.2299410">
	<ele>775.00</ele>
	<time>2025-02-15T07:51:17.000Z</time>
</trkpt>
<trkpt lat="45.8464460" lon="9.2299370">
	<ele>775.20</ele>
	<time>2025-02-15T07:51:18.000Z</time>
</trkpt>
<trkpt lat="45.8464450" lon="9.2299220">
	<ele>775.20</ele>
	<time>2025-02-15T07:51:19.000Z</time>
</trkpt>
<trkpt lat="45.8464440" lon="9.2299080">
	<ele>775.20</ele>
	<time>2025-02-15T07:51:20.000Z</time>
</trkpt>
<trkpt lat="45.8464450" lon="9.2298980">
	<ele>775.40</ele>
	<time>2025-02-15T07:51:21.000Z</time>
</trkpt>
<trkpt lat="45.8464460" lon="9.2298900">
	<ele>775.60</ele>
	<time>2025-02-15T07:51:22.000Z</time>
</trkpt>
<trkpt lat="45.8464490" lon="9.2298840">
	<ele>775.80</ele>
	<time>2025-02-15T07:51:23.000Z</time>
</trkpt>
<trkpt lat="45.8464500" lon="9.2298840">
	<ele>775.80</ele>
	<time>2025-02-15T07:51:24.000Z</time>
</trkpt>
<trkpt lat="45.8464500" lon="9.2298840">
	<ele>776.00</ele>
	<time>2025-02-15T07:51:25.000Z</time>
</trkpt>
<trkpt lat="45.8464500" lon="9.2298840">
	<ele>776.00</ele>
	<time>2025-02-15T07:51:26.000Z</time>
</trkpt>
<trkpt lat="45.8464510" lon="9.2298870">
	<ele>776.00</ele>
	<time>2025-02-15T07:51:27.000Z</time>
</trkpt>
<trkpt lat="45.8464520" lon="9.2298950">
	<ele>776.20</ele>
	<time>2025-02-15T07:51:28.000Z</time>
</trkpt>
<trkpt lat="45.8464540" lon="9.2299020">
	<ele>776.20</ele>
	<time>2025-02-15T07:51:29.000Z</time>
</trkpt>
<trkpt lat="45.8464540" lon="9.2299030">
	<ele>776.20</ele>
	<time>2025-02-15T07:51:30.000Z</time>
</trkpt>
<trkpt lat="45.8464530" lon="9.2299060">
	<ele>776.40</ele>
	<time>2025-02-15T07:51:31.000Z</time>
</trkpt>
<trkpt lat="45.8464540" lon="9.2299090">
	<ele>776.60</ele>
	<time>2025-02-15T07:51:32.000Z</time>
</trkpt>
<trkpt lat="45.8464570" lon="9.2299090">
	<ele>776.60</ele>
	<time>2025-02-15T07:51:33.000Z</time>
</trkpt>
<trkpt lat="45.8464570" lon="9.2299110">
	<ele>776.80</ele>
	<time>2025-02-15T07:51:34.000Z</time>
</trkpt>
<trkpt lat="45.8464570" lon="9.2299110">
	<ele>776.80</ele>
	<time>2025-02-15T07:51:35.000Z</time>
</trkpt>
<trkpt lat="45.8464570" lon="9.2299110">
	<ele>776.80</ele>
	<time>2025-02-15T07:51:36.000Z</time>
</trkpt>
<trkpt lat="45.8464570" lon="9.2299110">
	<ele>777.00</ele>
	<time>2025-02-15T07:51:37.000Z</time>
</trkpt>
<trkpt lat="45.8464570" lon="9.2299110">
	<ele>777.00</ele>
	<time>2025-02-15T07:51:38.000Z</time>
</trkpt>
<trkpt lat="45.8464570" lon="9.2299110">
	<ele>777.20</ele>
	<time>2025-02-15T07:51:39.000Z</time>
</trkpt>
<trkpt lat="45.8464570" lon="9.2299110">
	<ele>777.20</ele>
	<time>2025-02-15T07:51:40.000Z</time>
</trkpt>
<trkpt lat="45.8464570" lon="9.2299110">
	<ele>777.40</ele>
	<time>2025-02-15T07:51:41.000Z</time>
</trkpt>
<trkpt lat="45.8464570" lon="9.2299160">
	<ele>777.60</ele>
	<time>2025-02-15T07:51:42.000Z</time>
</trkpt>
<trkpt lat="45.8464570" lon="9.2299180">
	<ele>777.60</ele>
	<time>2025-02-15T07:51:43.000Z</time>
</trkpt>
<trkpt lat="45.8464580" lon="9.2299190">
	<ele>777.80</ele>
	<time>2025-02-15T07:51:44.000Z</time>
</trkpt>
<trkpt lat="45.8464580" lon="9.2299210">
	<ele>778.00</ele>
	<time>2025-02-15T07:51:45.000Z</time>
</trkpt>
<trkpt lat="45.8464590" lon="9.2299220">
	<ele>778.20</ele>
	<time>2025-02-15T07:51:46.000Z</time>
</trkpt>
<trkpt lat="45.8464590" lon="9.2299230">
	<ele>778.40</ele>
	<time>2025-02-15T07:51:47.000Z</time>
</trkpt>
<trkpt lat="45.8464590" lon="9.2299230">
	<ele>778.60</ele>
	<time>2025-02-15T07:51:48.000Z</time>
</trkpt>
<trkpt lat="45.8464590" lon="9.2299240">
	<ele>778.60</ele>
	<time>2025-02-15T07:51:49.000Z</time>
</trkpt>
<trkpt lat="45.8464630" lon="9.2299240">
	<ele>778.80</ele>
	<time>2025-02-15T07:51:50.000Z</time>
</trkpt>
<trkpt lat="45.8464670" lon="9.2299250">
	<ele>778.80</ele>
	<time>2025-02-15T07:51:51.000Z</time>
</trkpt>
<trkpt lat="45.8464680" lon="9.2299260">
	<ele>778.80</ele>
	<time>2025-02-15T07:51:52.000Z</time>
</trkpt>
<trkpt lat="45.8464700" lon="9.2299280">
	<ele>778.80</ele>
	<time>2025-02-15T07:51:53.000Z</time>
</trkpt>
<trkpt lat="45.8464700" lon="9.2299370">
	<ele>779.00</ele>
	<time>2025-02-15T07:51:54.000Z</time>
</trkpt>
<trkpt lat="45.8464710" lon="9.2299400">
	<ele>779.20</ele>
	<time>2025-02-15T07:51:55.000Z</time>
</trkpt>
<trkpt lat="45.8464720" lon="9.2299400">
	<ele>779.40</ele>
	<time>2025-02-15T07:51:56.000Z</time>
</trkpt>
<trkpt lat="45.8464730" lon="9.2299460">
	<ele>779.40</ele>
	<time>2025-02-15T07:51:57.000Z</time>
</trkpt>
<trkpt lat="45.8464740" lon="9.2299510">
	<ele>779.60</ele>
	<time>2025-02-15T07:51:58.000Z</time>
</trkpt>
<trkpt lat="45.8464740" lon="9.2299520">
	<ele>779.80</ele>
	<time>2025-02-15T07:51:59.000Z</time>
</trkpt>
<trkpt lat="45.8464780" lon="9.2299540">
	<ele>779.80</ele>
	<time>2025-02-15T07:52:00.000Z</time>
</trkpt>
<trkpt lat="45.8464780" lon="9.2299570">
	<ele>780.00</ele>
	<time>2025-02-15T07:52:01.000Z</time>
</trkpt>
<trkpt lat="45.8464780" lon="9.2299620">
	<ele>780.20</ele>
	<time>2025-02-15T07:52:02.000Z</time>
</trkpt>
<trkpt lat="45.8464790" lon="9.2299660">
	<ele>780.40</ele>
	<time>2025-02-15T07:52:03.000Z</time>
</trkpt>
<trkpt lat="45.8464800" lon="9.2299670">
	<ele>780.60</ele>
	<time>2025-02-15T07:52:04.000Z</time>
</trkpt>
<trkpt lat="45.8464830" lon="9.2299680">
	<ele>780.60</ele>
	<time>2025-02-15T07:52:05.000Z</time>
</trkpt>
<trkpt lat="45.8464830" lon="9.2299690">
	<ele>780.80</ele>
	<time>2025-02-15T07:52:06.000Z</time>
</trkpt>
<trkpt lat="45.8464840" lon="9.2299710">
	<ele>781.00</ele>
	<time>2025-02-15T07:52:07.000Z</time>
</trkpt>
<trkpt lat="45.8464850" lon="9.2299710">
	<ele>781.20</ele>
	<time>2025-02-15T07:52:08.000Z</time>
</trkpt>
<trkpt lat="45.8464850" lon="9.2299730">
	<ele>781.20</ele>
	<time>2025-02-15T07:52:09.000Z</time>
</trkpt>
<trkpt lat="45.8464900" lon="9.2299750">
	<ele>781.20</ele>
	<time>2025-02-15T07:52:10.000Z</time>
</trkpt>
<trkpt lat="45.8464930" lon="9.2299750">
	<ele>781.40</ele>
	<time>2025-02-15T07:52:11.000Z</time>
</trkpt>
<trkpt lat="45.8464940" lon="9.2299760">
	<ele>781.60</ele>
	<time>2025-02-15T07:52:12.000Z</time>
</trkpt>
<trkpt lat="45.8464960" lon="9.2299760">
	<ele>781.80</ele>
	<time>2025-02-15T07:52:13.000Z</time>
</trkpt>
<trkpt lat="45.8464970" lon="9.2299770">
	<ele>782.00</ele>
	<time>2025-02-15T07:52:14.000Z</time>
</trkpt>
<trkpt lat="45.8464970" lon="9.2299810">
	<ele>782.00</ele>
	<time>2025-02-15T07:52:15.000Z</time>
</trkpt>
<trkpt lat="45.8464980" lon="9.2299840">
	<ele>782.20</ele>
	<time>2025-02-15T07:52:16.000Z</time>
</trkpt>
<trkpt lat="45.8464990" lon="9.2299870">
	<ele>782.20</ele>
	<time>2025-02-15T07:52:17.000Z</time>
</trkpt>
<trkpt lat="45.8464990" lon="9.2299880">
	<ele>782.40</ele>
	<time>2025-02-15T07:52:18.000Z</time>
</trkpt>
<trkpt lat="45.8464990" lon="9.2299910">
	<ele>782.40</ele>
	<time>2025-02-15T07:52:19.000Z</time>
</trkpt>
<trkpt lat="45.8465000" lon="9.2299960">
	<ele>782.60</ele>
	<time>2025-02-15T07:52:20.000Z</time>
</trkpt>
<trkpt lat="45.8465010" lon="9.2300060">
	<ele>782.60</ele>
	<time>2025-02-15T07:52:21.000Z</time>
</trkpt>
<trkpt lat="45.8465010" lon="9.2300090">
	<ele>782.80</ele>
	<time>2025-02-15T07:52:22.000Z</time>
</trkpt>
<trkpt lat="45.8465010" lon="9.2300100">
	<ele>783.00</ele>
	<time>2025-02-15T07:52:23.000Z</time>
</trkpt>
<trkpt lat="45.8465020" lon="9.2300110">
	<ele>783.00</ele>
	<time>2025-02-15T07:52:24.000Z</time>
</trkpt>
<trkpt lat="45.8465020" lon="9.2300110">
	<ele>783.00</ele>
	<time>2025-02-15T07:52:25.000Z</time>
</trkpt>
<trkpt lat="45.8465020" lon="9.2300130">
	<ele>783.00</ele>
	<time>2025-02-15T07:52:26.000Z</time>
</trkpt>
<trkpt lat="45.8465020" lon="9.2300150">
	<ele>783.00</ele>
	<time>2025-02-15T07:52:27.000Z</time>
</trkpt>
<trkpt lat="45.8465020" lon="9.2300160">
	<ele>783.00</ele>
	<time>2025-02-15T07:52:28.000Z</time>
</trkpt>
<trkpt lat="45.8465020" lon="9.2300160">
	<ele>783.00</ele>
	<time>2025-02-15T07:52:29.000Z</time>
</trkpt>
<trkpt lat="45.8465020" lon="9.2300170">
	<ele>782.80</ele>
	<time>2025-02-15T07:52:30.000Z</time>
</trkpt>
<trkpt lat="45.8465030" lon="9.2300180">
	<ele>782.80</ele>
	<time>2025-02-15T07:52:31.000Z</time>
</trkpt>
<trkpt lat="45.8465030" lon="9.2300180">
	<ele>782.80</ele>
	<time>2025-02-15T07:52:32.000Z</time>
</trkpt>
<trkpt lat="45.8465030" lon="9.2300200">
	<ele>782.60</ele>
	<time>2025-02-15T07:52:33.000Z</time>
</trkpt>
<trkpt lat="45.8465030" lon="9.2300240">
	<ele>782.60</ele>
	<time>2025-02-15T07:52:34.000Z</time>
</trkpt>
<trkpt lat="45.8465030" lon="9.2300260">
	<ele>782.60</ele>
	<time>2025-02-15T07:52:35.000Z</time>
</trkpt>
<trkpt lat="45.8465030" lon="9.2300270">
	<ele>782.60</ele>
	<time>2025-02-15T07:52:36.000Z</time>
</trkpt>
<trkpt lat="45.8465030" lon="9.2300280">
	<ele>782.60</ele>
	<time>2025-02-15T07:52:37.000Z</time>
</trkpt>
<trkpt lat="45.8465030" lon="9.2300280">
	<ele>782.60</ele>
	<time>2025-02-15T07:52:38.000Z</time>
</trkpt>
<trkpt lat="45.8465030" lon="9.2300290">
	<ele>782.60</ele>
	<time>2025-02-15T07:52:39.000Z</time>
</trkpt>
<trkpt lat="45.8465030" lon="9.2300320">
	<ele>782.80</ele>
	<time>2025-02-15T07:52:40.000Z</time>
</trkpt>
<trkpt lat="45.8465030" lon="9.2300340">
	<ele>782.80</ele>
	<time>2025-02-15T07:52:41.000Z</time>
</trkpt>
<trkpt lat="45.8465030" lon="9.2300350">
	<ele>783.00</ele>
	<time>2025-02-15T07:52:42.000Z</time>
</trkpt>
<trkpt lat="45.8465030" lon="9.2300360">
	<ele>783.00</ele>
	<time>2025-02-15T07:52:43.000Z</time>
</trkpt>
<trkpt lat="45.8465030" lon="9.2300410">
	<ele>783.20</ele>
	<time>2025-02-15T07:52:44.000Z</time>
</trkpt>
<trkpt lat="45.8465030" lon="9.2300480">
	<ele>783.20</ele>
	<time>2025-02-15T07:52:45.000Z</time>
</trkpt>
<trkpt lat="45.8464970" lon="9.2300510">
	<ele>783.20</ele>
	<time>2025-02-15T07:52:46.000Z</time>
</trkpt>
<trkpt lat="45.8464920" lon="9.2300530">
	<ele>783.20</ele>
	<time>2025-02-15T07:52:47.000Z</time>
</trkpt>
<trkpt lat="45.8464900" lon="9.2300550">
	<ele>783.40</ele>
	<time>2025-02-15T07:52:48.000Z</time>
</trkpt>
<trkpt lat="45.8464890" lon="9.2300550">
	<ele>783.40</ele>
	<time>2025-02-15T07:52:49.000Z</time>
</trkpt>
<trkpt lat="45.8464890" lon="9.2300560">
	<ele>783.60</ele>
	<time>2025-02-15T07:52:50.000Z</time>
</trkpt>
<trkpt lat="45.8464890" lon="9.2300560">
	<ele>783.60</ele>
	<time>2025-02-15T07:52:51.000Z</time>
</trkpt>
<trkpt lat="45.8464890" lon="9.2300560">
	<ele>783.60</ele>
	<time>2025-02-15T07:52:52.000Z</time>
</trkpt>
<trkpt lat="45.8464890" lon="9.2300560">
	<ele>783.40</ele>
	<time>2025-02-15T07:52:53.000Z</time>
</trkpt>
<trkpt lat="45.8464890" lon="9.2300560">
	<ele>783.20</ele>
	<time>2025-02-15T07:52:54.000Z</time>
</trkpt>
<trkpt lat="45.8464890" lon="9.2300560">
	<ele>783.20</ele>
	<time>2025-02-15T07:52:55.000Z</time>
</trkpt>
<trkpt lat="45.8464890" lon="9.2300560">
	<ele>783.00</ele>
	<time>2025-02-15T07:52:56.000Z</time>
</trkpt>
<trkpt lat="45.8464890" lon="9.2300560">
	<ele>783.00</ele>
	<time>2025-02-15T07:52:57.000Z</time>
</trkpt>
<trkpt lat="45.8464890" lon="9.2300560">
	<ele>783.00</ele>
	<time>2025-02-15T07:52:58.000Z</time>
</trkpt>
<trkpt lat="45.8464890" lon="9.2300560">
	<ele>783.00</ele>
	<time>2025-02-15T07:52:59.000Z</time>
</trkpt>
<trkpt lat="45.8464890" lon="9.2300560">
	<ele>783.00</ele>
	<time>2025-02-15T07:53:00.000Z</time>
</trkpt>
<trkpt lat="45.8464890" lon="9.2300550">
	<ele>783.20</ele>
	<time>2025-02-15T07:53:01.000Z</time>
</trkpt>
<trkpt lat="45.8464890" lon="9.2300550">
	<ele>783.20</ele>
	<time>2025-02-15T07:53:02.000Z</time>
</trkpt>
<trkpt lat="45.8464890" lon="9.2300550">
	<ele>783.20</ele>
	<time>2025-02-15T07:53:03.000Z</time>
</trkpt>
<trkpt lat="45.8464900" lon="9.2300550">
	<ele>783.20</ele>
	<time>2025-02-15T07:53:04.000Z</time>
</trkpt>
<trkpt lat="45.8464910" lon="9.2300560">
	<ele>783.20</ele>
	<time>2025-02-15T07:53:05.000Z</time>
</trkpt>
<trkpt lat="45.8464910" lon="9.2300570">
	<ele>783.00</ele>
	<time>2025-02-15T07:53:06.000Z</time>
</trkpt>
<trkpt lat="45.8464920" lon="9.2300580">
	<ele>783.00</ele>
	<time>2025-02-15T07:53:07.000Z</time>
</trkpt>
<trkpt lat="45.8464930" lon="9.2300580">
	<ele>783.00</ele>
	<time>2025-02-15T07:53:08.000Z</time>
</trkpt>
<trkpt lat="45.8464940" lon="9.2300590">
	<ele>783.00</ele>
	<time>2025-02-15T07:53:09.000Z</time>
</trkpt>
<trkpt lat="45.8464990" lon="9.2300590">
	<ele>783.00</ele>
	<time>2025-02-15T07:53:10.000Z</time>
</trkpt>
<trkpt lat="45.8465020" lon="9.2300600">
	<ele>783.00</ele>
	<time>2025-02-15T07:53:11.000Z</time>
</trkpt>
<trkpt lat="45.8465050" lon="9.2300610">
	<ele>783.20</ele>
	<time>2025-02-15T07:53:12.000Z</time>
</trkpt>
<trkpt lat="45.8465090" lon="9.2300620">
	<ele>783.20</ele>
	<time>2025-02-15T07:53:13.000Z</time>
</trkpt>
<trkpt lat="45.8465150" lon="9.2300630">
	<ele>783.20</ele>
	<time>2025-02-15T07:53:14.000Z</time>
</trkpt>
<trkpt lat="45.8465180" lon="9.2300630">
	<ele>783.20</ele>
	<time>2025-02-15T07:53:15.000Z</time>
</trkpt>
<trkpt lat="45.8465190" lon="9.2300630">
	<ele>783.20</ele>
	<time>2025-02-15T07:53:16.000Z</time>
</trkpt>
<trkpt lat="45.8465200" lon="9.2300630">
	<ele>783.20</ele>
	<time>2025-02-15T07:53:17.000Z</time>
</trkpt>
<trkpt lat="45.8465210" lon="9.2300640">
	<ele>783.20</ele>
	<time>2025-02-15T07:53:18.000Z</time>
</trkpt>
<trkpt lat="45.8465220" lon="9.2300670">
	<ele>783.40</ele>
	<time>2025-02-15T07:53:19.000Z</time>
</trkpt>
<trkpt lat="45.8465220" lon="9.2300700">
	<ele>783.60</ele>
	<time>2025-02-15T07:53:20.000Z</time>
</trkpt>
<trkpt lat="45.8465220" lon="9.2300730">
	<ele>783.60</ele>
	<time>2025-02-15T07:53:21.000Z</time>
</trkpt>
<trkpt lat="45.8465230" lon="9.2300780">
	<ele>783.80</ele>
	<time>2025-02-15T07:53:22.000Z</time>
</trkpt>
<trkpt lat="45.8465230" lon="9.2300810">
	<ele>783.80</ele>
	<time>2025-02-15T07:53:23.000Z</time>
</trkpt>
<trkpt lat="45.8465230" lon="9.2300840">
	<ele>783.60</ele>
	<time>2025-02-15T07:53:24.000Z</time>
</trkpt>
<trkpt lat="45.8465230" lon="9.2300870">
	<ele>783.60</ele>
	<time>2025-02-15T07:53:25.000Z</time>
</trkpt>
<trkpt lat="45.8465230" lon="9.2300950">
	<ele>783.40</ele>
	<time>2025-02-15T07:53:26.000Z</time>
</trkpt>
<trkpt lat="45.8465230" lon="9.2301000">
	<ele>783.40</ele>
	<time>2025-02-15T07:53:27.000Z</time>
</trkpt>
<trkpt lat="45.8465230" lon="9.2301020">
	<ele>783.20</ele>
	<time>2025-02-15T07:53:28.000Z</time>
</trkpt>
<trkpt lat="45.8465240" lon="9.2301040">
	<ele>783.20</ele>
	<time>2025-02-15T07:53:29.000Z</time>
</trkpt>
<trkpt lat="45.8465240" lon="9.2301080">
	<ele>783.20</ele>
	<time>2025-02-15T07:53:30.000Z</time>
</trkpt>
<trkpt lat="45.8465240" lon="9.2301170">
	<ele>783.20</ele>
	<time>2025-02-15T07:53:31.000Z</time>
</trkpt>
<trkpt lat="45.8465250" lon="9.2301270">
	<ele>783.20</ele>
	<time>2025-02-15T07:53:32.000Z</time>
</trkpt>
<trkpt lat="45.8465250" lon="9.2301370">
	<ele>783.20</ele>
	<time>2025-02-15T07:53:33.000Z</time>
</trkpt>
<trkpt lat="45.8465260" lon="9.2301430">
	<ele>783.40</ele>
	<time>2025-02-15T07:53:34.000Z</time>
</trkpt>
<trkpt lat="45.8465260" lon="9.2301510">
	<ele>783.40</ele>
	<time>2025-02-15T07:53:35.000Z</time>
</trkpt>
<trkpt lat="45.8465270" lon="9.2301590">
	<ele>783.40</ele>
	<time>2025-02-15T07:53:36.000Z</time>
</trkpt>
<trkpt lat="45.8465270" lon="9.2301660">
	<ele>783.40</ele>
	<time>2025-02-15T07:53:37.000Z</time>
</trkpt>
<trkpt lat="45.8465270" lon="9.2301710">
	<ele>783.40</ele>
	<time>2025-02-15T07:53:38.000Z</time>
</trkpt>
<trkpt lat="45.8465270" lon="9.2301740">
	<ele>783.40</ele>
	<time>2025-02-15T07:53:39.000Z</time>
</trkpt>
<trkpt lat="45.8465280" lon="9.2301760">
	<ele>783.20</ele>
	<time>2025-02-15T07:53:40.000Z</time>
</trkpt>
<trkpt lat="45.8465280" lon="9.2301780">
	<ele>783.00</ele>
	<time>2025-02-15T07:53:41.000Z</time>
</trkpt>
<trkpt lat="45.8465280" lon="9.2301800">
	<ele>783.00</ele>
	<time>2025-02-15T07:53:42.000Z</time>
</trkpt>
<trkpt lat="45.8465290" lon="9.2301810">
	<ele>782.80</ele>
	<time>2025-02-15T07:53:43.000Z</time>
</trkpt>
<trkpt lat="45.8465300" lon="9.2301820">
	<ele>782.80</ele>
	<time>2025-02-15T07:53:44.000Z</time>
</trkpt>
<trkpt lat="45.8465310" lon="9.2301830">
	<ele>782.80</ele>
	<time>2025-02-15T07:53:45.000Z</time>
</trkpt>
<trkpt lat="45.8465320" lon="9.2301840">
	<ele>782.80</ele>
	<time>2025-02-15T07:53:46.000Z</time>
</trkpt>
<trkpt lat="45.8465340" lon="9.2301840">
	<ele>782.80</ele>
	<time>2025-02-15T07:53:47.000Z</time>
</trkpt>
<trkpt lat="45.8465360" lon="9.2301850">
	<ele>782.60</ele>
	<time>2025-02-15T07:53:48.000Z</time>
</trkpt>
<trkpt lat="45.8465380" lon="9.2301850">
	<ele>782.60</ele>
	<time>2025-02-15T07:53:49.000Z</time>
</trkpt>
<trkpt lat="45.8465390" lon="9.2301850">
	<ele>782.80</ele>
	<time>2025-02-15T07:53:50.000Z</time>
</trkpt>
<trkpt lat="45.8465400" lon="9.2301850">
	<ele>782.80</ele>
	<time>2025-02-15T07:53:51.000Z</time>
</trkpt>
<trkpt lat="45.8465410" lon="9.2301850">
	<ele>783.00</ele>
	<time>2025-02-15T07:53:52.000Z</time>
</trkpt>
<trkpt lat="45.8465420" lon="9.2301850">
	<ele>783.00</ele>
	<time>2025-02-15T07:53:53.000Z</time>
</trkpt>
<trkpt lat="45.8465420" lon="9.2301850">
	<ele>783.00</ele>
	<time>2025-02-15T07:53:54.000Z</time>
</trkpt>
<trkpt lat="45.8465430" lon="9.2301850">
	<ele>783.00</ele>
	<time>2025-02-15T07:53:55.000Z</time>
</trkpt>
<trkpt lat="45.8465430" lon="9.2301840">
	<ele>783.00</ele>
	<time>2025-02-15T07:53:56.000Z</time>
</trkpt>
<trkpt lat="45.8465440" lon="9.2301830">
	<ele>783.00</ele>
	<time>2025-02-15T07:53:57.000Z</time>
</trkpt>
<trkpt lat="45.8465450" lon="9.2301820">
	<ele>783.00</ele>
	<time>2025-02-15T07:53:58.000Z</time>
</trkpt>
<trkpt lat="45.8465450" lon="9.2301810">
	<ele>783.00</ele>
	<time>2025-02-15T07:53:59.000Z</time>
</trkpt>
<trkpt lat="45.8465460" lon="9.2301800">
	<ele>782.80</ele>
	<time>2025-02-15T07:54:00.000Z</time>
</trkpt>
<trkpt lat="45.8465460" lon="9.2301800">
	<ele>782.60</ele>
	<time>2025-02-15T07:54:01.000Z</time>
</trkpt>
<trkpt lat="45.8465460" lon="9.2301790">
	<ele>782.60</ele>
	<time>2025-02-15T07:54:02.000Z</time>
</trkpt>
<trkpt lat="45.8465470" lon="9.2301790">
	<ele>782.60</ele>
	<time>2025-02-15T07:54:03.000Z</time>
</trkpt>
<trkpt lat="45.8465480" lon="9.2301790">
	<ele>782.60</ele>
	<time>2025-02-15T07:54:04.000Z</time>
</trkpt>
<trkpt lat="45.8465480" lon="9.2301780">
	<ele>782.60</ele>
	<time>2025-02-15T07:54:05.000Z</time>
</trkpt>
<trkpt lat="45.8465490" lon="9.2301770">
	<ele>782.60</ele>
	<time>2025-02-15T07:54:06.000Z</time>
</trkpt>
<trkpt lat="45.8465490" lon="9.2301770">
	<ele>782.80</ele>
	<time>2025-02-15T07:54:07.000Z</time>
</trkpt>
<trkpt lat="45.8465490" lon="9.2301760">
	<ele>782.80</ele>
	<time>2025-02-15T07:54:08.000Z</time>
</trkpt>
<trkpt lat="45.8465500" lon="9.2301750">
	<ele>782.80</ele>
	<time>2025-02-15T07:54:09.000Z</time>
</trkpt>
<trkpt lat="45.8465500" lon="9.2301750">
	<ele>782.80</ele>
	<time>2025-02-15T07:54:10.000Z</time>
</trkpt>
<trkpt lat="45.8465500" lon="9.2301750">
	<ele>783.00</ele>
	<time>2025-02-15T07:54:11.000Z</time>
</trkpt>
<trkpt lat="45.8465500" lon="9.2301740">
	<ele>783.00</ele>
	<time>2025-02-15T07:54:12.000Z</time>
</trkpt>
<trkpt lat="45.8465500" lon="9.2301740">
	<ele>783.00</ele>
	<time>2025-02-15T07:54:13.000Z</time>
</trkpt>
<trkpt lat="45.8465500" lon="9.2301730">
	<ele>783.00</ele>
	<time>2025-02-15T07:54:14.000Z</time>
</trkpt>
<trkpt lat="45.8465500" lon="9.2301730">
	<ele>783.00</ele>
	<time>2025-02-15T07:54:15.000Z</time>
</trkpt>
<trkpt lat="45.8465500" lon="9.2301710">
	<ele>783.00</ele>
	<time>2025-02-15T07:54:16.000Z</time>
</trkpt>
<trkpt lat="45.8465500" lon="9.2301690">
	<ele>783.00</ele>
	<time>2025-02-15T07:54:17.000Z</time>
</trkpt>
<trkpt lat="45.8465500" lon="9.2301670">
	<ele>783.00</ele>
	<time>2025-02-15T07:54:18.000Z</time>
</trkpt>
<trkpt lat="45.8465500" lon="9.2301650">
	<ele>783.00</ele>
	<time>2025-02-15T07:54:19.000Z</time>
</trkpt>
<trkpt lat="45.8465490" lon="9.2301630">
	<ele>783.00</ele>
	<time>2025-02-15T07:54:20.000Z</time>
</trkpt>
<trkpt lat="45.8465470" lon="9.2301620">
	<ele>783.00</ele>
	<time>2025-02-15T07:54:21.000Z</time>
</trkpt>
<trkpt lat="45.8465450" lon="9.2301610">
	<ele>783.00</ele>
	<time>2025-02-15T07:54:22.000Z</time>
</trkpt>
<trkpt lat="45.8465440" lon="9.2301600">
	<ele>783.00</ele>
	<time>2025-02-15T07:54:23.000Z</time>
</trkpt>
<trkpt lat="45.8465420" lon="9.2301600">
	<ele>783.00</ele>
	<time>2025-02-15T07:54:24.000Z</time>
</trkpt>
<trkpt lat="45.8465390" lon="9.2301590">
	<ele>783.00</ele>
	<time>2025-02-15T07:54:25.000Z</time>
</trkpt>
<trkpt lat="45.8465380" lon="9.2301590">
	<ele>783.00</ele>
	<time>2025-02-15T07:54:26.000Z</time>
</trkpt>
<trkpt lat="45.8465360" lon="9.2301590">
	<ele>783.20</ele>
	<time>2025-02-15T07:54:27.000Z</time>
</trkpt>
<trkpt lat="45.8465350" lon="9.2301630">
	<ele>783.20</ele>
	<time>2025-02-15T07:54:28.000Z</time>
</trkpt>
<trkpt lat="45.8465400" lon="9.2301840">
	<ele>783.20</ele>
	<time>2025-02-15T07:54:29.000Z</time>
</trkpt>
<trkpt lat="45.8465480" lon="9.2302010">
	<ele>783.20</ele>
	<time>2025-02-15T07:54:30.000Z</time>
</trkpt>
<trkpt lat="45.8465540" lon="9.2302190">
	<ele>783.20</ele>
	<time>2025-02-15T07:54:31.000Z</time>
</trkpt>
<trkpt lat="45.8465610" lon="9.2302330">
	<ele>783.40</ele>
	<time>2025-02-15T07:54:32.000Z</time>
</trkpt>
<trkpt lat="45.8465630" lon="9.2302430">
	<ele>783.40</ele>
	<time>2025-02-15T07:54:33.000Z</time>
</trkpt>
<trkpt lat="45.8465610" lon="9.2302460">
	<ele>783.40</ele>
	<time>2025-02-15T07:54:34.000Z</time>
</trkpt>
<trkpt lat="45.8465560" lon="9.2302400">
	<ele>783.40</ele>
	<time>2025-02-15T07:54:35.000Z</time>
</trkpt>
<trkpt lat="45.8465460" lon="9.2302280">
	<ele>783.40</ele>
	<time>2025-02-15T07:54:36.000Z</time>
</trkpt>
<trkpt lat="45.8465390" lon="9.2302150">
	<ele>783.40</ele>
	<time>2025-02-15T07:54:37.000Z</time>
</trkpt>
<trkpt lat="45.8465300" lon="9.2301680">
	<ele>783.40</ele>
	<time>2025-02-15T07:54:38.000Z</time>
</trkpt>
<trkpt lat="45.8465240" lon="9.2301380">
	<ele>783.40</ele>
	<time>2025-02-15T07:54:39.000Z</time>
</trkpt>
<trkpt lat="45.8465210" lon="9.2301170">
	<ele>783.40</ele>
	<time>2025-02-15T07:54:40.000Z</time>
</trkpt>
<trkpt lat="45.8465220" lon="9.2301190">
	<ele>783.40</ele>
	<time>2025-02-15T07:54:41.000Z</time>
</trkpt>
<trkpt lat="45.8465250" lon="9.2301280">
	<ele>783.40</ele>
	<time>2025-02-15T07:54:42.000Z</time>
</trkpt>
<trkpt lat="45.8465290" lon="9.2301440">
	<ele>783.40</ele>
	<time>2025-02-15T07:54:43.000Z</time>
</trkpt>
<trkpt lat="45.8465320" lon="9.2301560">
	<ele>783.40</ele>
	<time>2025-02-15T07:54:44.000Z</time>
</trkpt>
<trkpt lat="45.8465310" lon="9.2301580">
	<ele>783.40</ele>
	<time>2025-02-15T07:54:45.000Z</time>
</trkpt>
<trkpt lat="45.8465290" lon="9.2301600">
	<ele>783.40</ele>
	<time>2025-02-15T07:54:46.000Z</time>
</trkpt>
<trkpt lat="45.8465270" lon="9.2301570">
	<ele>783.40</ele>
	<time>2025-02-15T07:54:47.000Z</time>
</trkpt>
<trkpt lat="45.8465330" lon="9.2301500">
	<ele>783.40</ele>
	<time>2025-02-15T07:54:48.000Z</time>
</trkpt>
<trkpt lat="45.8465410" lon="9.2301300">
	<ele>783.40</ele>
	<time>2025-02-15T07:54:49.000Z</time>
</trkpt>
<trkpt lat="45.8465400" lon="9.2301240">
	<ele>783.40</ele>
	<time>2025-02-15T07:54:50.000Z</time>
</trkpt>
<trkpt lat="45.8465400" lon="9.2301220">
	<ele>783.40</ele>
	<time>2025-02-15T07:54:51.000Z</time>
</trkpt>
<trkpt lat="45.8465340" lon="9.2301170">
	<ele>783.40</ele>
	<time>2025-02-15T07:54:52.000Z</time>
</trkpt>
<trkpt lat="45.8465300" lon="9.2301130">
	<ele>783.40</ele>
	<time>2025-02-15T07:54:53.000Z</time>
</trkpt>
<trkpt lat="45.8465280" lon="9.2301270">
	<ele>783.40</ele>
	<time>2025-02-15T07:54:54.000Z</time>
</trkpt>
<trkpt lat="45.8465290" lon="9.2301420">
	<ele>783.40</ele>
	<time>2025-02-15T07:54:55.000Z</time>
</trkpt>
<trkpt lat="45.8465290" lon="9.2301560">
	<ele>783.40</ele>
	<time>2025-02-15T07:54:56.000Z</time>
</trkpt>
<trkpt lat="45.8465300" lon="9.2301510">
	<ele>783.40</ele>
	<time>2025-02-15T07:54:57.000Z</time>
</trkpt>
<trkpt lat="45.8465220" lon="9.2301550">
	<ele>783.40</ele>
	<time>2025-02-15T07:54:58.000Z</time>
</trkpt>
<trkpt lat="45.8465200" lon="9.2301540">
	<ele>783.40</ele>
	<time>2025-02-15T07:54:59.000Z</time>
</trkpt>
<trkpt lat="45.8465150" lon="9.2301700">
	<ele>783.40</ele>
	<time>2025-02-15T07:55:00.000Z</time>
</trkpt>
<trkpt lat="45.8465190" lon="9.2301870">
	<ele>783.40</ele>
	<time>2025-02-15T07:55:01.000Z</time>
</trkpt>
<trkpt lat="45.8465220" lon="9.2302020">
	<ele>783.40</ele>
	<time>2025-02-15T07:55:02.000Z</time>
</trkpt>
<trkpt lat="45.8465230" lon="9.2302090">
	<ele>783.40</ele>
	<time>2025-02-15T07:55:03.000Z</time>
</trkpt>
<trkpt lat="45.8465260" lon="9.2302090">
	<ele>783.40</ele>
	<time>2025-02-15T07:55:04.000Z</time>
</trkpt>
<trkpt lat="45.8465290" lon="9.2302080">
	<ele>783.40</ele>
	<time>2025-02-15T07:55:05.000Z</time>
</trkpt>
<trkpt lat="45.8465320" lon="9.2302060">
	<ele>783.40</ele>
	<time>2025-02-15T07:55:06.000Z</time>
</trkpt>
<trkpt lat="45.8465340" lon="9.2301990">
	<ele>783.40</ele>
	<time>2025-02-15T07:55:07.000Z</time>
</trkpt>
<trkpt lat="45.8465340" lon="9.2301990">
	<ele>783.40</ele>
	<time>2025-02-15T07:55:08.000Z</time>
</trkpt>
<trkpt lat="45.8465340" lon="9.2301990">
	<ele>783.40</ele>
	<time>2025-02-15T07:55:09.000Z</time>
</trkpt>
<trkpt lat="45.8465340" lon="9.2301990">
	<ele>783.40</ele>
	<time>2025-02-15T07:55:10.000Z</time>
</trkpt>
<trkpt lat="45.8465340" lon="9.2301990">
	<ele>783.40</ele>
	<time>2025-02-15T07:55:11.000Z</time>
</trkpt>
<trkpt lat="45.8465340" lon="9.2301990">
	<ele>783.40</ele>
	<time>2025-02-15T07:55:12.000Z</time>
</trkpt>
<trkpt lat="45.8465340" lon="9.2301990">
	<ele>783.40</ele>
	<time>2025-02-15T07:55:13.000Z</time>
</trkpt>
<trkpt lat="45.8465340" lon="9.2301990">
	<ele>783.40</ele>
	<time>2025-02-15T07:55:14.000Z</time>
</trkpt>
<trkpt lat="45.8465340" lon="9.2301990">
	<ele>783.40</ele>
	<time>2025-02-15T07:55:15.000Z</time>
</trkpt>
<trkpt lat="45.8465340" lon="9.2301990">
	<ele>783.40</ele>
	<time>2025-02-15T07:55:16.000Z</time>
</trkpt>
<trkpt lat="45.8465340" lon="9.2301990">
	<ele>783.40</ele>
	<time>2025-02-15T07:55:17.000Z</time>
</trkpt>
<trkpt lat="45.8465340" lon="9.2301990">
	<ele>783.40</ele>
	<time>2025-02-15T07:55:18.000Z</time>
</trkpt>
<trkpt lat="45.8465320" lon="9.2302020">
	<ele>783.40</ele>
	<time>2025-02-15T07:55:19.000Z</time>
</trkpt>
<trkpt lat="45.8465320" lon="9.2302060">
	<ele>783.40</ele>
	<time>2025-02-15T07:55:20.000Z</time>
</trkpt>
<trkpt lat="45.8465310" lon="9.2302080">
	<ele>783.40</ele>
	<time>2025-02-15T07:55:21.000Z</time>
</trkpt>
<trkpt lat="45.8465300" lon="9.2302090">
	<ele>783.40</ele>
	<time>2025-02-15T07:55:22.000Z</time>
</trkpt>
<trkpt lat="45.8465300" lon="9.2302090">
	<ele>783.40</ele>
	<time>2025-02-15T07:55:23.000Z</time>
</trkpt>
<trkpt lat="45.8465300" lon="9.2302170">
	<ele>783.40</ele>
	<time>2025-02-15T07:55:24.000Z</time>
</trkpt>
<trkpt lat="45.8465290" lon="9.2302190">
	<ele>783.40</ele>
	<time>2025-02-15T07:55:25.000Z</time>
</trkpt>
<trkpt lat="45.8465290" lon="9.2302210">
	<ele>783.40</ele>
	<time>2025-02-15T07:55:26.000Z</time>
</trkpt>
<trkpt lat="45.8465270" lon="9.2302210">
	<ele>783.40</ele>
	<time>2025-02-15T07:55:27.000Z</time>
</trkpt>
<trkpt lat="45.8465260" lon="9.2302210">
	<ele>783.40</ele>
	<time>2025-02-15T07:55:28.000Z</time>
</trkpt>
<trkpt lat="45.8465250" lon="9.2302210">
	<ele>783.40</ele>
	<time>2025-02-15T07:55:29.000Z</time>
</trkpt>
<trkpt lat="45.8465250" lon="9.2302340">
	<ele>783.40</ele>
	<time>2025-02-15T07:55:30.000Z</time>
</trkpt>
<trkpt lat="45.8465250" lon="9.2302400">
	<ele>783.40</ele>
	<time>2025-02-15T07:55:31.000Z</time>
</trkpt>
<trkpt lat="45.8465250" lon="9.2302410">
	<ele>783.40</ele>
	<time>2025-02-15T07:55:32.000Z</time>
</trkpt>
<trkpt lat="45.8465250" lon="9.2302540">
	<ele>783.40</ele>
	<time>2025-02-15T07:55:33.000Z</time>
</trkpt>
<trkpt lat="45.8465240" lon="9.2302570">
	<ele>783.40</ele>
	<time>2025-02-15T07:55:34.000Z</time>
</trkpt>
<trkpt lat="45.8465220" lon="9.2302580">
	<ele>783.40</ele>
	<time>2025-02-15T07:55:35.000Z</time>
</trkpt>
<trkpt lat="45.8465210" lon="9.2302620">
	<ele>783.40</ele>
	<time>2025-02-15T07:55:36.000Z</time>
</trkpt>
<trkpt lat="45.8465190" lon="9.2302630">
	<ele>783.40</ele>
	<time>2025-02-15T07:55:37.000Z</time>
</trkpt>
<trkpt lat="45.8465140" lon="9.2302640">
	<ele>783.40</ele>
	<time>2025-02-15T07:55:38.000Z</time>
</trkpt>
<trkpt lat="45.8465090" lon="9.2302640">
	<ele>783.40</ele>
	<time>2025-02-15T07:55:39.000Z</time>
</trkpt>
<trkpt lat="45.8465070" lon="9.2302640">
	<ele>783.40</ele>
	<time>2025-02-15T07:55:40.000Z</time>
</trkpt>
<trkpt lat="45.8465070" lon="9.2302650">
	<ele>783.40</ele>
	<time>2025-02-15T07:55:41.000Z</time>
</trkpt>
<trkpt lat="45.8465060" lon="9.2302670">
	<ele>783.40</ele>
	<time>2025-02-15T07:55:42.000Z</time>
</trkpt>
<trkpt lat="45.8465050" lon="9.2302690">
	<ele>783.40</ele>
	<time>2025-02-15T07:55:43.000Z</time>
</trkpt>
<trkpt lat="45.8465050" lon="9.2302780">
	<ele>783.40</ele>
	<time>2025-02-15T07:55:44.000Z</time>
</trkpt>
<trkpt lat="45.8465050" lon="9.2302880">
	<ele>783.40</ele>
	<time>2025-02-15T07:55:45.000Z</time>
</trkpt>
<trkpt lat="45.8465040" lon="9.2302910">
	<ele>783.40</ele>
	<time>2025-02-15T07:55:46.000Z</time>
</trkpt>
<trkpt lat="45.8465040" lon="9.2302920">
	<ele>783.40</ele>
	<time>2025-02-15T07:55:47.000Z</time>
</trkpt>
<trkpt lat="45.8465030" lon="9.2302930">
	<ele>783.40</ele>
	<time>2025-02-15T07:55:48.000Z</time>
</trkpt>
<trkpt lat="45.8465020" lon="9.2302930">
	<ele>783.40</ele>
	<time>2025-02-15T07:55:49.000Z</time>
</trkpt>
<trkpt lat="45.8465020" lon="9.2302930">
	<ele>783.40</ele>
	<time>2025-02-15T07:55:50.000Z</time>
</trkpt>
<trkpt lat="45.8465010" lon="9.2302930">
	<ele>783.40</ele>
	<time>2025-02-15T07:55:51.000Z</time>
</trkpt>
<trkpt lat="45.8465000" lon="9.2302930">
	<ele>783.40</ele>
	<time>2025-02-15T07:55:52.000Z</time>
</trkpt>
<trkpt lat="45.8465000" lon="9.2302930">
	<ele>783.40</ele>
	<time>2025-02-15T07:55:53.000Z</time>
</trkpt>
<trkpt lat="45.8465000" lon="9.2302930">
	<ele>783.40</ele>
	<time>2025-02-15T07:55:54.000Z</time>
</trkpt>
<trkpt lat="45.8465000" lon="9.2302930">
	<ele>783.40</ele>
	<time>2025-02-15T07:55:55.000Z</time>
</trkpt>
<trkpt lat="45.8465000" lon="9.2302930">
	<ele>783.40</ele>
	<time>2025-02-15T07:55:56.000Z</time>
</trkpt>
<trkpt lat="45.8465000" lon="9.2302930">
	<ele>783.40</ele>
	<time>2025-02-15T07:55:57.000Z</time>
</trkpt>
<trkpt lat="45.8465000" lon="9.2302930">
	<ele>783.40</ele>
	<time>2025-02-15T07:55:58.000Z</time>
</trkpt>
<trkpt lat="45.8465000" lon="9.2302930">
	<ele>783.40</ele>
	<time>2025-02-15T07:55:59.000Z</time>
</trkpt>
<trkpt lat="45.8465000" lon="9.2302930">
	<ele>783.40</ele>
	<time>2025-02-15T07:56:00.000Z</time>
</trkpt>
<trkpt lat="45.8465000" lon="9.2302930">
	<ele>783.40</ele>
	<time>2025-02-15T07:56:01.000Z</time>
</trkpt>
<trkpt lat="45.8465000" lon="9.2302930">
	<ele>783.40</ele>
	<time>2025-02-15T07:56:02.000Z</time>
</trkpt>
<trkpt lat="45.8465000" lon="9.2302920">
	<ele>783.40</ele>
	<time>2025-02-15T07:56:03.000Z</time>
</trkpt>
<trkpt lat="45.8465000" lon="9.2302840">
	<ele>783.40</ele>
	<time>2025-02-15T07:56:04.000Z</time>
</trkpt>
<trkpt lat="45.8465000" lon="9.2302820">
	<ele>783.40</ele>
	<time>2025-02-15T07:56:05.000Z</time>
</trkpt>
<trkpt lat="45.8465000" lon="9.2302850">
	<ele>783.40</ele>
	<time>2025-02-15T07:56:06.000Z</time>
</trkpt>
<trkpt lat="45.8464990" lon="9.2302860">
	<ele>783.40</ele>
	<time>2025-02-15T07:56:07.000Z</time>
</trkpt>
<trkpt lat="45.8464990" lon="9.2302850">
	<ele>783.40</ele>
	<time>2025-02-15T07:56:08.000Z</time>
</trkpt>
<trkpt lat="45.8465000" lon="9.2302830">
	<ele>783.40</ele>
	<time>2025-02-15T07:56:09.000Z</time>
</trkpt>
<trkpt lat="45.8465010" lon="9.2302810">
	<ele>783.40</ele>
	<time>2025-02-15T07:56:10.000Z</time>
</trkpt>
<trkpt lat="45.8465010" lon="9.2302770">
	<ele>783.40</ele>
	<time>2025-02-15T07:56:11.000Z</time>
</trkpt>
<trkpt lat="45.8465010" lon="9.2302760">
	<ele>783.40</ele>
	<time>2025-02-15T07:56:12.000Z</time>
</trkpt>
<trkpt lat="45.8465000" lon="9.2302720">
	<ele>783.40</ele>
	<time>2025-02-15T07:56:13.000Z</time>
</trkpt>
<trkpt lat="45.8465000" lon="9.2302690">
	<ele>783.40</ele>
	<time>2025-02-15T07:56:14.000Z</time>
</trkpt>
<trkpt lat="45.8465000" lon="9.2302700">
	<ele>783.40</ele>
	<time>2025-02-15T07:56:15.000Z</time>
</trkpt>
<trkpt lat="45.8464990" lon="9.2302700">
	<ele>783.40</ele>
	<time>2025-02-15T07:56:16.000Z</time>
</trkpt>
<trkpt lat="45.8465030" lon="9.2302650">
	<ele>783.40</ele>
	<time>2025-02-15T07:56:17.000Z</time>
</trkpt>
<trkpt lat="45.8465020" lon="9.2302640">
	<ele>783.40</ele>
	<time>2025-02-15T07:56:18.000Z</time>
</trkpt>
<trkpt lat="45.8465020" lon="9.2302640">
	<ele>783.40</ele>
	<time>2025-02-15T07:56:19.000Z</time>
</trkpt>
<trkpt lat="45.8465020" lon="9.2302640">
	<ele>783.40</ele>
	<time>2025-02-15T07:56:20.000Z</time>
</trkpt>
<trkpt lat="45.8465020" lon="9.2302640">
	<ele>783.40</ele>
	<time>2025-02-15T07:56:21.000Z</time>
</trkpt>
<trkpt lat="45.8465020" lon="9.2302640">
	<ele>783.40</ele>
	<time>2025-02-15T07:56:22.000Z</time>
</trkpt>
<trkpt lat="45.8465020" lon="9.2302640">
	<ele>783.40</ele>
	<time>2025-02-15T07:56:23.000Z</time>
</trkpt>
<trkpt lat="45.8465020" lon="9.2302640">
	<ele>783.40</ele>
	<time>2025-02-15T07:56:24.000Z</time>
</trkpt>
<trkpt lat="45.8465020" lon="9.2302640">
	<ele>783.40</ele>
	<time>2025-02-15T07:56:25.000Z</time>
</trkpt>
<trkpt lat="45.8465020" lon="9.2302650">
	<ele>783.40</ele>
	<time>2025-02-15T07:56:26.000Z</time>
</trkpt>
<trkpt lat="45.8465020" lon="9.2302660">
	<ele>783.40</ele>
	<time>2025-02-15T07:56:27.000Z</time>
</trkpt>
<trkpt lat="45.8465020" lon="9.2302680">
	<ele>783.40</ele>
	<time>2025-02-15T07:56:28.000Z</time>
</trkpt>
<trkpt lat="45.8465020" lon="9.2302690">
	<ele>783.40</ele>
	<time>2025-02-15T07:56:29.000Z</time>
</trkpt>
<trkpt lat="45.8465020" lon="9.2302690">
	<ele>783.40</ele>
	<time>2025-02-15T07:56:30.000Z</time>
</trkpt>
<trkpt lat="45.8465020" lon="9.2302700">
	<ele>783.40</ele>
	<time>2025-02-15T07:56:31.000Z</time>
</trkpt>
<trkpt lat="45.8465020" lon="9.2302700">
	<ele>783.40</ele>
	<time>2025-02-15T07:56:32.000Z</time>
</trkpt>
<trkpt lat="45.8465020" lon="9.2302700">
	<ele>783.40</ele>
	<time>2025-02-15T07:56:33.000Z</time>
</trkpt>
<trkpt lat="45.8465030" lon="9.2302700">
	<ele>786.20</ele>
	<time>2025-02-15T07:56:34.000Z</time>
</trkpt>
<trkpt lat="45.8465030" lon="9.2302710">
	<ele>786.20</ele>
	<time>2025-02-15T07:56:35.000Z</time>
</trkpt>
<trkpt lat="45.8465030" lon="9.2302710">
	<ele>786.20</ele>
	<time>2025-02-15T07:56:36.000Z</time>
</trkpt>
<trkpt lat="45.8465030" lon="9.2302710">
	<ele>786.20</ele>
	<time>2025-02-15T07:56:37.000Z</time>
</trkpt>
<trkpt lat="45.8465040" lon="9.2302710">
	<ele>786.20</ele>
	<time>2025-02-15T07:56:38.000Z</time>
</trkpt>
<trkpt lat="45.8465040" lon="9.2302760">
	<ele>786.20</ele>
	<time>2025-02-15T07:56:39.000Z</time>
</trkpt>
<trkpt lat="45.8465040" lon="9.2302770">
	<ele>786.20</ele>
	<time>2025-02-15T07:56:40.000Z</time>
</trkpt>
<trkpt lat="45.8465040" lon="9.2302810">
	<ele>786.40</ele>
	<time>2025-02-15T07:56:41.000Z</time>
</trkpt>
<trkpt lat="45.8465050" lon="9.2302850">
	<ele>786.40</ele>
	<time>2025-02-15T07:56:42.000Z</time>
</trkpt>
<trkpt lat="45.8465070" lon="9.2302970">
	<ele>786.60</ele>
	<time>2025-02-15T07:56:43.000Z</time>
</trkpt>
<trkpt lat="45.8465100" lon="9.2303010">
	<ele>786.60</ele>
	<time>2025-02-15T07:56:44.000Z</time>
</trkpt>
<trkpt lat="45.8465140" lon="9.2303000">
	<ele>786.80</ele>
	<time>2025-02-15T07:56:45.000Z</time>
</trkpt>
<trkpt lat="45.8465250" lon="9.2303070">
	<ele>786.80</ele>
	<time>2025-02-15T07:56:46.000Z</time>
</trkpt>
<trkpt lat="45.8465360" lon="9.2303140">
	<ele>787.00</ele>
	<time>2025-02-15T07:56:47.000Z</time>
</trkpt>
<trkpt lat="45.8465450" lon="9.2303070">
	<ele>787.20</ele>
	<time>2025-02-15T07:56:48.000Z</time>
</trkpt>
<trkpt lat="45.8465540" lon="9.2303070">
	<ele>787.20</ele>
	<time>2025-02-15T07:56:49.000Z</time>
</trkpt>
<trkpt lat="45.8465610" lon="9.2303040">
	<ele>787.40</ele>
	<time>2025-02-15T07:56:50.000Z</time>
</trkpt>
<trkpt lat="45.8465640" lon="9.2302800">
	<ele>787.60</ele>
	<time>2025-02-15T07:56:51.000Z</time>
</trkpt>
<trkpt lat="45.8465670" lon="9.2302770">
	<ele>787.60</ele>
	<time>2025-02-15T07:56:52.000Z</time>
</trkpt>
<trkpt lat="45.8465760" lon="9.2302890">
	<ele>787.80</ele>
	<time>2025-02-15T07:56:53.000Z</time>
</trkpt>
<trkpt lat="45.8465910" lon="9.2303060">
	<ele>787.80</ele>
	<time>2025-02-15T07:56:54.000Z</time>
</trkpt>
<trkpt lat="45.8465960" lon="9.2303220">
	<ele>787.80</ele>
	<time>2025-02-15T07:56:55.000Z</time>
</trkpt>
<trkpt lat="45.8465990" lon="9.2303240">
	<ele>788.00</ele>
	<time>2025-02-15T07:56:56.000Z</time>
</trkpt>
<trkpt lat="45.8466050" lon="9.2303250">
	<ele>788.20</ele>
	<time>2025-02-15T07:56:57.000Z</time>
</trkpt>
<trkpt lat="45.8466070" lon="9.2303230">
	<ele>788.40</ele>
	<time>2025-02-15T07:56:58.000Z</time>
</trkpt>
<trkpt lat="45.8466090" lon="9.2303230">
	<ele>788.80</ele>
	<time>2025-02-15T07:56:59.000Z</time>
</trkpt>
<trkpt lat="45.8466090" lon="9.2303220">
	<ele>789.00</ele>
	<time>2025-02-15T07:57:00.000Z</time>
</trkpt>
<trkpt lat="45.8466080" lon="9.2303170">
	<ele>789.20</ele>
	<time>2025-02-15T07:57:01.000Z</time>
</trkpt>
<trkpt lat="45.8466100" lon="9.2303150">
	<ele>789.20</ele>
	<time>2025-02-15T07:57:02.000Z</time>
</trkpt>
<trkpt lat="45.8466110" lon="9.2303210">
	<ele>789.20</ele>
	<time>2025-02-15T07:57:03.000Z</time>
</trkpt>
<trkpt lat="45.8466110" lon="9.2303220">
	<ele>789.20</ele>
	<time>2025-02-15T07:57:04.000Z</time>
</trkpt>
<trkpt lat="45.8466140" lon="9.2303250">
	<ele>789.60</ele>
	<time>2025-02-15T07:57:05.000Z</time>
</trkpt>
<trkpt lat="45.8466140" lon="9.2303290">
	<ele>789.60</ele>
	<time>2025-02-15T07:57:06.000Z</time>
</trkpt>
<trkpt lat="45.8466140" lon="9.2303330">
	<ele>789.80</ele>
	<time>2025-02-15T07:57:07.000Z</time>
</trkpt>
<trkpt lat="45.8466140" lon="9.2303350">
	<ele>789.80</ele>
	<time>2025-02-15T07:57:08.000Z</time>
</trkpt>
<trkpt lat="45.8466170" lon="9.2303380">
	<ele>790.00</ele>
	<time>2025-02-15T07:57:09.000Z</time>
</trkpt>
<trkpt lat="45.8466180" lon="9.2303380">
	<ele>790.20</ele>
	<time>2025-02-15T07:57:10.000Z</time>
</trkpt>
<trkpt lat="45.8466190" lon="9.2303470">
	<ele>790.40</ele>
	<time>2025-02-15T07:57:11.000Z</time>
</trkpt>
<trkpt lat="45.8466200" lon="9.2303510">
	<ele>790.60</ele>
	<time>2025-02-15T07:57:12.000Z</time>
</trkpt>
<trkpt lat="45.8466200" lon="9.2303560">
	<ele>790.80</ele>
	<time>2025-02-15T07:57:13.000Z</time>
</trkpt>
<trkpt lat="45.8466190" lon="9.2303600">
	<ele>790.80</ele>
	<time>2025-02-15T07:57:14.000Z</time>
</trkpt>
<trkpt lat="45.8466180" lon="9.2303640">
	<ele>791.00</ele>
	<time>2025-02-15T07:57:15.000Z</time>
</trkpt>
<trkpt lat="45.8466190" lon="9.2303660">
	<ele>791.00</ele>
	<time>2025-02-15T07:57:16.000Z</time>
</trkpt>
<trkpt lat="45.8466180" lon="9.2303700">
	<ele>791.20</ele>
	<time>2025-02-15T07:57:17.000Z</time>
</trkpt>
<trkpt lat="45.8466180" lon="9.2303750">
	<ele>791.20</ele>
	<time>2025-02-15T07:57:18.000Z</time>
</trkpt>
<trkpt lat="45.8466200" lon="9.2303840">
	<ele>791.40</ele>
	<time>2025-02-15T07:57:19.000Z</time>
</trkpt>
<trkpt lat="45.8466230" lon="9.2303940">
	<ele>791.60</ele>
	<time>2025-02-15T07:57:20.000Z</time>
</trkpt>
<trkpt lat="45.8466240" lon="9.2304010">
	<ele>791.80</ele>
	<time>2025-02-15T07:57:21.000Z</time>
</trkpt>
<trkpt lat="45.8466270" lon="9.2304020">
	<ele>792.00</ele>
	<time>2025-02-15T07:57:22.000Z</time>
</trkpt>
<trkpt lat="45.8466260" lon="9.2304040">
	<ele>792.20</ele>
	<time>2025-02-15T07:57:23.000Z</time>
</trkpt>
<trkpt lat="45.8466260" lon="9.2304110">
	<ele>792.40</ele>
	<time>2025-02-15T07:57:24.000Z</time>
</trkpt>
<trkpt lat="45.8466270" lon="9.2304110">
	<ele>792.60</ele>
	<time>2025-02-15T07:57:25.000Z</time>
</trkpt>
<trkpt lat="45.8466300" lon="9.2304220">
	<ele>792.60</ele>
	<time>2025-02-15T07:57:26.000Z</time>
</trkpt>
<trkpt lat="45.8466300" lon="9.2304230">
	<ele>792.80</ele>
	<time>2025-02-15T07:57:27.000Z</time>
</trkpt>
<trkpt lat="45.8466310" lon="9.2304240">
	<ele>793.00</ele>
	<time>2025-02-15T07:57:28.000Z</time>
</trkpt>
<trkpt lat="45.8466300" lon="9.2304270">
	<ele>793.00</ele>
	<time>2025-02-15T07:57:29.000Z</time>
</trkpt>
<trkpt lat="45.8466280" lon="9.2304290">
	<ele>793.20</ele>
	<time>2025-02-15T07:57:30.000Z</time>
</trkpt>
<trkpt lat="45.8466280" lon="9.2304310">
	<ele>793.20</ele>
	<time>2025-02-15T07:57:31.000Z</time>
</trkpt>
<trkpt lat="45.8466320" lon="9.2304370">
	<ele>793.40</ele>
	<time>2025-02-15T07:57:32.000Z</time>
</trkpt>
<trkpt lat="45.8466330" lon="9.2304500">
	<ele>793.80</ele>
	<time>2025-02-15T07:57:33.000Z</time>
</trkpt>
<trkpt lat="45.8466360" lon="9.2304560">
	<ele>793.80</ele>
	<time>2025-02-15T07:57:34.000Z</time>
</trkpt>
<trkpt lat="45.8466390" lon="9.2304740">
	<ele>794.00</ele>
	<time>2025-02-15T07:57:35.000Z</time>
</trkpt>
<trkpt lat="45.8466420" lon="9.2304800">
	<ele>794.00</ele>
	<time>2025-02-15T07:57:36.000Z</time>
</trkpt>
<trkpt lat="45.8466460" lon="9.2304910">
	<ele>794.00</ele>
	<time>2025-02-15T07:57:37.000Z</time>
</trkpt>
<trkpt lat="45.8466490" lon="9.2305000">
	<ele>794.20</ele>
	<time>2025-02-15T07:57:38.000Z</time>
</trkpt>
<trkpt lat="45.8466500" lon="9.2305020">
	<ele>794.20</ele>
	<time>2025-02-15T07:57:39.000Z</time>
</trkpt>
<trkpt lat="45.8466490" lon="9.2305120">
	<ele>794.40</ele>
	<time>2025-02-15T07:57:40.000Z</time>
</trkpt>
<trkpt lat="45.8466500" lon="9.2305160">
	<ele>794.60</ele>
	<time>2025-02-15T07:57:41.000Z</time>
</trkpt>
<trkpt lat="45.8466520" lon="9.2305200">
	<ele>794.60</ele>
	<time>2025-02-15T07:57:42.000Z</time>
</trkpt>
<trkpt lat="45.8466540" lon="9.2305230">
	<ele>794.80</ele>
	<time>2025-02-15T07:57:43.000Z</time>
</trkpt>
<trkpt lat="45.8466560" lon="9.2305300">
	<ele>795.00</ele>
	<time>2025-02-15T07:57:44.000Z</time>
</trkpt>
<trkpt lat="45.8466610" lon="9.2305360">
	<ele>795.00</ele>
	<time>2025-02-15T07:57:45.000Z</time>
</trkpt>
<trkpt lat="45.8466630" lon="9.2305360">
	<ele>795.20</ele>
	<time>2025-02-15T07:57:46.000Z</time>
</trkpt>
<trkpt lat="45.8466630" lon="9.2305360">
	<ele>795.20</ele>
	<time>2025-02-15T07:57:47.000Z</time>
</trkpt>
<trkpt lat="45.8466650" lon="9.2305320">
	<ele>795.40</ele>
	<time>2025-02-15T07:57:48.000Z</time>
</trkpt>
<trkpt lat="45.8466640" lon="9.2305310">
	<ele>795.40</ele>
	<time>2025-02-15T07:57:49.000Z</time>
</trkpt>
<trkpt lat="45.8466690" lon="9.2305380">
	<ele>795.40</ele>
	<time>2025-02-15T07:57:50.000Z</time>
</trkpt>
<trkpt lat="45.8466710" lon="9.2305480">
	<ele>795.60</ele>
	<time>2025-02-15T07:57:51.000Z</time>
</trkpt>
<trkpt lat="45.8466710" lon="9.2305580">
	<ele>795.60</ele>
	<time>2025-02-15T07:57:52.000Z</time>
</trkpt>
<trkpt lat="45.8466720" lon="9.2305720">
	<ele>795.80</ele>
	<time>2025-02-15T07:57:53.000Z</time>
</trkpt>
<trkpt lat="45.8466810" lon="9.2305910">
	<ele>796.00</ele>
	<time>2025-02-15T07:57:54.000Z</time>
</trkpt>
<trkpt lat="45.8466800" lon="9.2306020">
	<ele>796.00</ele>
	<time>2025-02-15T07:57:55.000Z</time>
</trkpt>
<trkpt lat="45.8466790" lon="9.2306090">
	<ele>796.20</ele>
	<time>2025-02-15T07:57:56.000Z</time>
</trkpt>
<trkpt lat="45.8466790" lon="9.2306230">
	<ele>796.20</ele>
	<time>2025-02-15T07:57:57.000Z</time>
</trkpt>
<trkpt lat="45.8466830" lon="9.2306310">
	<ele>796.40</ele>
	<time>2025-02-15T07:57:58.000Z</time>
</trkpt>
<trkpt lat="45.8466800" lon="9.2306340">
	<ele>796.60</ele>
	<time>2025-02-15T07:57:59.000Z</time>
</trkpt>
<trkpt lat="45.8466750" lon="9.2306430">
	<ele>796.60</ele>
	<time>2025-02-15T07:58:00.000Z</time>
</trkpt>
<trkpt lat="45.8466720" lon="9.2306450">
	<ele>796.80</ele>
	<time>2025-02-15T07:58:01.000Z</time>
</trkpt>
<trkpt lat="45.8466700" lon="9.2306410">
	<ele>797.20</ele>
	<time>2025-02-15T07:58:02.000Z</time>
</trkpt>
<trkpt lat="45.8466670" lon="9.2306350">
	<ele>797.60</ele>
	<time>2025-02-15T07:58:03.000Z</time>
</trkpt>
<trkpt lat="45.8466680" lon="9.2306380">
	<ele>797.80</ele>
	<time>2025-02-15T07:58:04.000Z</time>
</trkpt>
<trkpt lat="45.8466660" lon="9.2306400">
	<ele>797.80</ele>
	<time>2025-02-15T07:58:05.000Z</time>
</trkpt>
<trkpt lat="45.8466660" lon="9.2306410">
	<ele>798.00</ele>
	<time>2025-02-15T07:58:06.000Z</time>
</trkpt>
<trkpt lat="45.8466670" lon="9.2306460">
	<ele>798.00</ele>
	<time>2025-02-15T07:58:07.000Z</time>
</trkpt>
<trkpt lat="45.8466710" lon="9.2306510">
	<ele>798.00</ele>
	<time>2025-02-15T07:58:08.000Z</time>
</trkpt>
<trkpt lat="45.8466720" lon="9.2306580">
	<ele>798.20</ele>
	<time>2025-02-15T07:58:09.000Z</time>
</trkpt>
<trkpt lat="45.8466770" lon="9.2306590">
	<ele>798.20</ele>
	<time>2025-02-15T07:58:10.000Z</time>
</trkpt>
<trkpt lat="45.8466820" lon="9.2306700">
	<ele>798.20</ele>
	<time>2025-02-15T07:58:11.000Z</time>
</trkpt>
<trkpt lat="45.8466880" lon="9.2306780">
	<ele>798.40</ele>
	<time>2025-02-15T07:58:12.000Z</time>
</trkpt>
<trkpt lat="45.8466970" lon="9.2306800">
	<ele>798.40</ele>
	<time>2025-02-15T07:58:13.000Z</time>
</trkpt>
<trkpt lat="45.8466990" lon="9.2306920">
	<ele>798.40</ele>
	<time>2025-02-15T07:58:14.000Z</time>
</trkpt>
<trkpt lat="45.8467030" lon="9.2306970">
	<ele>798.80</ele>
	<time>2025-02-15T07:58:15.000Z</time>
</trkpt>
<trkpt lat="45.8467070" lon="9.2307040">
	<ele>798.80</ele>
	<time>2025-02-15T07:58:16.000Z</time>
</trkpt>
<trkpt lat="45.8467080" lon="9.2307080">
	<ele>799.00</ele>
	<time>2025-02-15T07:58:17.000Z</time>
</trkpt>
<trkpt lat="45.8467110" lon="9.2307100">
	<ele>799.00</ele>
	<time>2025-02-15T07:58:18.000Z</time>
</trkpt>
<trkpt lat="45.8467060" lon="9.2307110">
	<ele>799.20</ele>
	<time>2025-02-15T07:58:19.000Z</time>
</trkpt>
<trkpt lat="45.8467080" lon="9.2307140">
	<ele>799.40</ele>
	<time>2025-02-15T07:58:20.000Z</time>
</trkpt>
<trkpt lat="45.8467090" lon="9.2307140">
	<ele>799.40</ele>
	<time>2025-02-15T07:58:21.000Z</time>
</trkpt>
<trkpt lat="45.8467090" lon="9.2307250">
	<ele>799.60</ele>
	<time>2025-02-15T07:58:22.000Z</time>
</trkpt>
<trkpt lat="45.8467070" lon="9.2307300">
	<ele>799.60</ele>
	<time>2025-02-15T07:58:23.000Z</time>
</trkpt>
<trkpt lat="45.8467060" lon="9.2307370">
	<ele>799.80</ele>
	<time>2025-02-15T07:58:24.000Z</time>
</trkpt>
<trkpt lat="45.8467060" lon="9.2307500">
	<ele>799.80</ele>
	<time>2025-02-15T07:58:25.000Z</time>
</trkpt>
<trkpt lat="45.8467040" lon="9.2307570">
	<ele>800.00</ele>
	<time>2025-02-15T07:58:26.000Z</time>
</trkpt>
<trkpt lat="45.8467020" lon="9.2307720">
	<ele>800.20</ele>
	<time>2025-02-15T07:58:27.000Z</time>
</trkpt>
<trkpt lat="45.8467090" lon="9.2307780">
	<ele>800.40</ele>
	<time>2025-02-15T07:58:28.000Z</time>
</trkpt>
<trkpt lat="45.8467150" lon="9.2307790">
	<ele>800.60</ele>
	<time>2025-02-15T07:58:29.000Z</time>
</trkpt>
<trkpt lat="45.8467180" lon="9.2307830">
	<ele>800.60</ele>
	<time>2025-02-15T07:58:30.000Z</time>
</trkpt>
<trkpt lat="45.8467200" lon="9.2307850">
	<ele>800.80</ele>
	<time>2025-02-15T07:58:31.000Z</time>
</trkpt>
<trkpt lat="45.8467210" lon="9.2307880">
	<ele>801.00</ele>
	<time>2025-02-15T07:58:32.000Z</time>
</trkpt>
<trkpt lat="45.8467210" lon="9.2307920">
	<ele>801.00</ele>
	<time>2025-02-15T07:58:33.000Z</time>
</trkpt>
<trkpt lat="45.8467180" lon="9.2307710">
	<ele>801.20</ele>
	<time>2025-02-15T07:58:34.000Z</time>
</trkpt>
<trkpt lat="45.8467160" lon="9.2307720">
	<ele>801.40</ele>
	<time>2025-02-15T07:58:35.000Z</time>
</trkpt>
<trkpt lat="45.8467140" lon="9.2307730">
	<ele>801.60</ele>
	<time>2025-02-15T07:58:36.000Z</time>
</trkpt>
<trkpt lat="45.8467130" lon="9.2307750">
	<ele>801.60</ele>
	<time>2025-02-15T07:58:37.000Z</time>
</trkpt>
<trkpt lat="45.8467120" lon="9.2307810">
	<ele>801.80</ele>
	<time>2025-02-15T07:58:38.000Z</time>
</trkpt>
<trkpt lat="45.8467100" lon="9.2307820">
	<ele>802.00</ele>
	<time>2025-02-15T07:58:39.000Z</time>
</trkpt>
<trkpt lat="45.8467050" lon="9.2307860">
	<ele>802.00</ele>
	<time>2025-02-15T07:58:40.000Z</time>
</trkpt>
<trkpt lat="45.8467060" lon="9.2307860">
	<ele>802.20</ele>
	<time>2025-02-15T07:58:41.000Z</time>
</trkpt>
<trkpt lat="45.8467060" lon="9.2307850">
	<ele>802.40</ele>
	<time>2025-02-15T07:58:42.000Z</time>
</trkpt>
<trkpt lat="45.8467070" lon="9.2307870">
	<ele>802.60</ele>
	<time>2025-02-15T07:58:43.000Z</time>
</trkpt>
<trkpt lat="45.8467040" lon="9.2307780">
	<ele>802.60</ele>
	<time>2025-02-15T07:58:44.000Z</time>
</trkpt>
<trkpt lat="45.8467060" lon="9.2307650">
	<ele>802.80</ele>
	<time>2025-02-15T07:58:45.000Z</time>
</trkpt>
<trkpt lat="45.8467080" lon="9.2307530">
	<ele>803.00</ele>
	<time>2025-02-15T07:58:46.000Z</time>
</trkpt>
<trkpt lat="45.8467090" lon="9.2307390">
	<ele>803.00</ele>
	<time>2025-02-15T07:58:47.000Z</time>
</trkpt>
<trkpt lat="45.8467080" lon="9.2307380">
	<ele>803.40</ele>
	<time>2025-02-15T07:58:48.000Z</time>
</trkpt>
<trkpt lat="45.8467090" lon="9.2307370">
	<ele>803.40</ele>
	<time>2025-02-15T07:58:49.000Z</time>
</trkpt>
<trkpt lat="45.8467130" lon="9.2307340">
	<ele>803.60</ele>
	<time>2025-02-15T07:58:50.000Z</time>
</trkpt>
<trkpt lat="45.8467140" lon="9.2307270">
	<ele>803.80</ele>
	<time>2025-02-15T07:58:51.000Z</time>
</trkpt>
<trkpt lat="45.8467130" lon="9.2307250">
	<ele>804.00</ele>
	<time>2025-02-15T07:58:52.000Z</time>
</trkpt>
<trkpt lat="45.8467140" lon="9.2307280">
	<ele>804.00</ele>
	<time>2025-02-15T07:58:53.000Z</time>
</trkpt>
<trkpt lat="45.8467140" lon="9.2307150">
	<ele>804.40</ele>
	<time>2025-02-15T07:58:54.000Z</time>
</trkpt>
<trkpt lat="45.8467100" lon="9.2307100">
	<ele>804.40</ele>
	<time>2025-02-15T07:58:55.000Z</time>
</trkpt>
<trkpt lat="45.8467120" lon="9.2307090">
	<ele>804.60</ele>
	<time>2025-02-15T07:58:56.000Z</time>
</trkpt>
<trkpt lat="45.8467130" lon="9.2307040">
	<ele>804.80</ele>
	<time>2025-02-15T07:58:57.000Z</time>
</trkpt>
<trkpt lat="45.8467140" lon="9.2307060">
	<ele>805.00</ele>
	<time>2025-02-15T07:58:58.000Z</time>
</trkpt>
<trkpt lat="45.8467120" lon="9.2307070">
	<ele>805.20</ele>
	<time>2025-02-15T07:58:59.000Z</time>
</trkpt>
<trkpt lat="45.8467110" lon="9.2307030">
	<ele>805.20</ele>
	<time>2025-02-15T07:59:00.000Z</time>
</trkpt>
<trkpt lat="45.8467070" lon="9.2307070">
	<ele>805.20</ele>
	<time>2025-02-15T07:59:01.000Z</time>
</trkpt>
<trkpt lat="45.8467090" lon="9.2307040">
	<ele>805.20</ele>
	<time>2025-02-15T07:59:02.000Z</time>
</trkpt>
<trkpt lat="45.8467090" lon="9.2307050">
	<ele>805.40</ele>
	<time>2025-02-15T07:59:03.000Z</time>
</trkpt>
<trkpt lat="45.8467070" lon="9.2307060">
	<ele>805.40</ele>
	<time>2025-02-15T07:59:04.000Z</time>
</trkpt>
<trkpt lat="45.8467100" lon="9.2307010">
	<ele>805.80</ele>
	<time>2025-02-15T07:59:05.000Z</time>
</trkpt>
<trkpt lat="45.8467140" lon="9.2306990">
	<ele>806.00</ele>
	<time>2025-02-15T07:59:06.000Z</time>
</trkpt>
<trkpt lat="45.8467190" lon="9.2307090">
	<ele>806.20</ele>
	<time>2025-02-15T07:59:07.000Z</time>
</trkpt>
<trkpt lat="45.8467210" lon="9.2307220">
	<ele>806.20</ele>
	<time>2025-02-15T07:59:08.000Z</time>
</trkpt>
<trkpt lat="45.8467210" lon="9.2307320">
	<ele>806.40</ele>
	<time>2025-02-15T07:59:09.000Z</time>
</trkpt>
<trkpt lat="45.8467210" lon="9.2307360">
	<ele>806.40</ele>
	<time>2025-02-15T07:59:10.000Z</time>
</trkpt>
<trkpt lat="45.8467190" lon="9.2307400">
	<ele>806.60</ele>
	<time>2025-02-15T07:59:11.000Z</time>
</trkpt>
<trkpt lat="45.8467200" lon="9.2307420">
	<ele>806.80</ele>
	<time>2025-02-15T07:59:12.000Z</time>
</trkpt>
<trkpt lat="45.8467190" lon="9.2307350">
	<ele>807.00</ele>
	<time>2025-02-15T07:59:13.000Z</time>
</trkpt>
<trkpt lat="45.8467220" lon="9.2307320">
	<ele>807.20</ele>
	<time>2025-02-15T07:59:14.000Z</time>
</trkpt>
<trkpt lat="45.8467260" lon="9.2307350">
	<ele>807.40</ele>
	<time>2025-02-15T07:59:15.000Z</time>
</trkpt>
<trkpt lat="45.8467270" lon="9.2307360">
	<ele>807.40</ele>
	<time>2025-02-15T07:59:16.000Z</time>
</trkpt>
<trkpt lat="45.8467280" lon="9.2307380">
	<ele>807.60</ele>
	<time>2025-02-15T07:59:17.000Z</time>
</trkpt>
<trkpt lat="45.8467340" lon="9.2307420">
	<ele>807.60</ele>
	<time>2025-02-15T07:59:18.000Z</time>
</trkpt>
<trkpt lat="45.8467350" lon="9.2307470">
	<ele>807.80</ele>
	<time>2025-02-15T07:59:19.000Z</time>
</trkpt>
<trkpt lat="45.8467380" lon="9.2307570">
	<ele>807.80</ele>
	<time>2025-02-15T07:59:20.000Z</time>
</trkpt>
<trkpt lat="45.8467400" lon="9.2307580">
	<ele>808.00</ele>
	<time>2025-02-15T07:59:21.000Z</time>
</trkpt>
<trkpt lat="45.8467430" lon="9.2307600">
	<ele>808.00</ele>
	<time>2025-02-15T07:59:22.000Z</time>
</trkpt>
<trkpt lat="45.8467460" lon="9.2307550">
	<ele>808.20</ele>
	<time>2025-02-15T07:59:23.000Z</time>
</trkpt>
<trkpt lat="45.8467450" lon="9.2307510">
	<ele>808.40</ele>
	<time>2025-02-15T07:59:24.000Z</time>
</trkpt>
<trkpt lat="45.8467460" lon="9.2307530">
	<ele>808.60</ele>
	<time>2025-02-15T07:59:25.000Z</time>
</trkpt>
<trkpt lat="45.8467460" lon="9.2307580">
	<ele>808.80</ele>
	<time>2025-02-15T07:59:26.000Z</time>
</trkpt>
<trkpt lat="45.8467470" lon="9.2307590">
	<ele>808.80</ele>
	<time>2025-02-15T07:59:27.000Z</time>
</trkpt>
<trkpt lat="45.8467500" lon="9.2307600">
	<ele>808.80</ele>
	<time>2025-02-15T07:59:28.000Z</time>
</trkpt>
<trkpt lat="45.8467580" lon="9.2307650">
	<ele>809.00</ele>
	<time>2025-02-15T07:59:29.000Z</time>
</trkpt>
<trkpt lat="45.8467640" lon="9.2307710">
	<ele>809.20</ele>
	<time>2025-02-15T07:59:30.000Z</time>
</trkpt>
<trkpt lat="45.8467660" lon="9.2307860">
	<ele>809.20</ele>
	<time>2025-02-15T07:59:31.000Z</time>
</trkpt>
<trkpt lat="45.8467700" lon="9.2307910">
	<ele>809.40</ele>
	<time>2025-02-15T07:59:32.000Z</time>
</trkpt>
<trkpt lat="45.8467720" lon="9.2307870">
	<ele>809.60</ele>
	<time>2025-02-15T07:59:33.000Z</time>
</trkpt>
<trkpt lat="45.8467710" lon="9.2307750">
	<ele>810.00</ele>
	<time>2025-02-15T07:59:34.000Z</time>
</trkpt>
<trkpt lat="45.8467700" lon="9.2307660">
	<ele>810.20</ele>
	<time>2025-02-15T07:59:35.000Z</time>
</trkpt>
<trkpt lat="45.8467670" lon="9.2307700">
	<ele>810.20</ele>
	<time>2025-02-15T07:59:36.000Z</time>
</trkpt>
<trkpt lat="45.8467650" lon="9.2307760">
	<ele>810.40</ele>
	<time>2025-02-15T07:59:37.000Z</time>
</trkpt>
<trkpt lat="45.8467650" lon="9.2307800">
	<ele>810.60</ele>
	<time>2025-02-15T07:59:38.000Z</time>
</trkpt>
<trkpt lat="45.8467660" lon="9.2307830">
	<ele>810.60</ele>
	<time>2025-02-15T07:59:39.000Z</time>
</trkpt>
<trkpt lat="45.8467670" lon="9.2307890">
	<ele>811.00</ele>
	<time>2025-02-15T07:59:40.000Z</time>
</trkpt>
<trkpt lat="45.8467680" lon="9.2308060">
	<ele>811.00</ele>
	<time>2025-02-15T07:59:41.000Z</time>
</trkpt>
<trkpt lat="45.8467710" lon="9.2308190">
	<ele>811.20</ele>
	<time>2025-02-15T07:59:42.000Z</time>
</trkpt>
<trkpt lat="45.8467730" lon="9.2308260">
	<ele>811.20</ele>
	<time>2025-02-15T07:59:43.000Z</time>
</trkpt>
<trkpt lat="45.8467760" lon="9.2308290">
	<ele>811.40</ele>
	<time>2025-02-15T07:59:44.000Z</time>
</trkpt>
<trkpt lat="45.8467770" lon="9.2308250">
	<ele>811.40</ele>
	<time>2025-02-15T07:59:45.000Z</time>
</trkpt>
<trkpt lat="45.8467770" lon="9.2308310">
	<ele>811.80</ele>
	<time>2025-02-15T07:59:46.000Z</time>
</trkpt>
<trkpt lat="45.8467780" lon="9.2308400">
	<ele>812.00</ele>
	<time>2025-02-15T07:59:47.000Z</time>
</trkpt>
<trkpt lat="45.8467820" lon="9.2308440">
	<ele>812.20</ele>
	<time>2025-02-15T07:59:48.000Z</time>
</trkpt>
<trkpt lat="45.8467810" lon="9.2308500">
	<ele>812.20</ele>
	<time>2025-02-15T07:59:49.000Z</time>
</trkpt>
<trkpt lat="45.8467820" lon="9.2308560">
	<ele>812.20</ele>
	<time>2025-02-15T07:59:50.000Z</time>
</trkpt>
<trkpt lat="45.8467810" lon="9.2308620">
	<ele>812.40</ele>
	<time>2025-02-15T07:59:51.000Z</time>
</trkpt>
<trkpt lat="45.8467830" lon="9.2308670">
	<ele>812.60</ele>
	<time>2025-02-15T07:59:52.000Z</time>
</trkpt>
<trkpt lat="45.8467870" lon="9.2308580">
	<ele>812.80</ele>
	<time>2025-02-15T07:59:53.000Z</time>
</trkpt>
<trkpt lat="45.8467880" lon="9.2308550">
	<ele>813.00</ele>
	<time>2025-02-15T07:59:54.000Z</time>
</trkpt>
<trkpt lat="45.8467880" lon="9.2308520">
	<ele>813.00</ele>
	<time>2025-02-15T07:59:55.000Z</time>
</trkpt>
<trkpt lat="45.8467870" lon="9.2308430">
	<ele>813.20</ele>
	<time>2025-02-15T07:59:56.000Z</time>
</trkpt>
<trkpt lat="45.8467870" lon="9.2308460">
	<ele>813.20</ele>
	<time>2025-02-15T07:59:57.000Z</time>
</trkpt>
<trkpt lat="45.8467870" lon="9.2308460">
	<ele>813.40</ele>
	<time>2025-02-15T07:59:58.000Z</time>
</trkpt>
<trkpt lat="45.8467870" lon="9.2308460">
	<ele>813.60</ele>
	<time>2025-02-15T07:59:59.000Z</time>
</trkpt>
<trkpt lat="45.8467870" lon="9.2308460">
	<ele>813.80</ele>
	<time>2025-02-15T08:00:00.000Z</time>
</trkpt>
<trkpt lat="45.8467870" lon="9.2308460">
	<ele>813.80</ele>
	<time>2025-02-15T08:00:01.000Z</time>
</trkpt>
<trkpt lat="45.8467870" lon="9.2308460">
	<ele>814.20</ele>
	<time>2025-02-15T08:00:02.000Z</time>
</trkpt>
<trkpt lat="45.8467870" lon="9.2308510">
	<ele>814.40</ele>
	<time>2025-02-15T08:00:03.000Z</time>
</trkpt>
<trkpt lat="45.8467850" lon="9.2308610">
	<ele>814.60</ele>
	<time>2025-02-15T08:00:04.000Z</time>
</trkpt>
<trkpt lat="45.8467780" lon="9.2308650">
	<ele>814.80</ele>
	<time>2025-02-15T08:00:05.000Z</time>
</trkpt>
<trkpt lat="45.8467770" lon="9.2308680">
	<ele>814.80</ele>
	<time>2025-02-15T08:00:06.000Z</time>
</trkpt>
<trkpt lat="45.8467760" lon="9.2308760">
	<ele>814.80</ele>
	<time>2025-02-15T08:00:07.000Z</time>
</trkpt>
<trkpt lat="45.8467730" lon="9.2308790">
	<ele>814.80</ele>
	<time>2025-02-15T08:00:08.000Z</time>
</trkpt>
<trkpt lat="45.8467750" lon="9.2308780">
	<ele>815.00</ele>
	<time>2025-02-15T08:00:09.000Z</time>
</trkpt>
<trkpt lat="45.8467800" lon="9.2308760">
	<ele>815.00</ele>
	<time>2025-02-15T08:00:10.000Z</time>
</trkpt>
<trkpt lat="45.8467790" lon="9.2308780">
	<ele>815.20</ele>
	<time>2025-02-15T08:00:11.000Z</time>
</trkpt>
<trkpt lat="45.8467770" lon="9.2308820">
	<ele>815.20</ele>
	<time>2025-02-15T08:00:12.000Z</time>
</trkpt>
<trkpt lat="45.8467840" lon="9.2308940">
	<ele>815.40</ele>
	<time>2025-02-15T08:00:13.000Z</time>
</trkpt>
<trkpt lat="45.8467810" lon="9.2308940">
	<ele>815.40</ele>
	<time>2025-02-15T08:00:14.000Z</time>
</trkpt>
<trkpt lat="45.8467780" lon="9.2308970">
	<ele>815.40</ele>
	<time>2025-02-15T08:00:15.000Z</time>
</trkpt>
<trkpt lat="45.8467780" lon="9.2309110">
	<ele>815.60</ele>
	<time>2025-02-15T08:00:16.000Z</time>
</trkpt>
<trkpt lat="45.8467740" lon="9.2309210">
	<ele>815.60</ele>
	<time>2025-02-15T08:00:17.000Z</time>
</trkpt>
<trkpt lat="45.8467710" lon="9.2309270">
	<ele>815.80</ele>
	<time>2025-02-15T08:00:18.000Z</time>
</trkpt>
<trkpt lat="45.8467710" lon="9.2309370">
	<ele>816.00</ele>
	<time>2025-02-15T08:00:19.000Z</time>
</trkpt>
<trkpt lat="45.8467680" lon="9.2309420">
	<ele>816.00</ele>
	<time>2025-02-15T08:00:20.000Z</time>
</trkpt>
<trkpt lat="45.8467650" lon="9.2309460">
	<ele>816.20</ele>
	<time>2025-02-15T08:00:21.000Z</time>
</trkpt>
<trkpt lat="45.8467610" lon="9.2309440">
	<ele>816.40</ele>
	<time>2025-02-15T08:00:22.000Z</time>
</trkpt>
<trkpt lat="45.8467580" lon="9.2309420">
	<ele>816.40</ele>
	<time>2025-02-15T08:00:23.000Z</time>
</trkpt>
<trkpt lat="45.8467590" lon="9.2309220">
	<ele>816.60</ele>
	<time>2025-02-15T08:00:24.000Z</time>
</trkpt>
<trkpt lat="45.8467570" lon="9.2309180">
	<ele>816.80</ele>
	<time>2025-02-15T08:00:25.000Z</time>
</trkpt>
<trkpt lat="45.8467610" lon="9.2309080">
	<ele>816.80</ele>
	<time>2025-02-15T08:00:26.000Z</time>
</trkpt>
<trkpt lat="45.8467600" lon="9.2309120">
	<ele>817.20</ele>
	<time>2025-02-15T08:00:27.000Z</time>
</trkpt>
<trkpt lat="45.8467540" lon="9.2309130">
	<ele>817.20</ele>
	<time>2025-02-15T08:00:28.000Z</time>
</trkpt>
<trkpt lat="45.8467450" lon="9.2309220">
	<ele>817.60</ele>
	<time>2025-02-15T08:00:29.000Z</time>
</trkpt>
<trkpt lat="45.8467430" lon="9.2309180">
	<ele>817.80</ele>
	<time>2025-02-15T08:00:30.000Z</time>
</trkpt>
<trkpt lat="45.8467400" lon="9.2309160">
	<ele>818.00</ele>
	<time>2025-02-15T08:00:31.000Z</time>
</trkpt>
<trkpt lat="45.8467380" lon="9.2309150">
	<ele>818.00</ele>
	<time>2025-02-15T08:00:32.000Z</time>
</trkpt>
<trkpt lat="45.8467360" lon="9.2309200">
	<ele>818.20</ele>
	<time>2025-02-15T08:00:33.000Z</time>
</trkpt>
<trkpt lat="45.8467380" lon="9.2309270">
	<ele>818.20</ele>
	<time>2025-02-15T08:00:34.000Z</time>
</trkpt>
<trkpt lat="45.8467350" lon="9.2309280">
	<ele>818.20</ele>
	<time>2025-02-15T08:00:35.000Z</time>
</trkpt>
<trkpt lat="45.8467310" lon="9.2309290">
	<ele>818.40</ele>
	<time>2025-02-15T08:00:36.000Z</time>
</trkpt>
<trkpt lat="45.8467290" lon="9.2309310">
	<ele>818.60</ele>
	<time>2025-02-15T08:00:37.000Z</time>
</trkpt>
<trkpt lat="45.8467270" lon="9.2309350">
	<ele>818.80</ele>
	<time>2025-02-15T08:00:38.000Z</time>
</trkpt>
<trkpt lat="45.8467240" lon="9.2309380">
	<ele>819.00</ele>
	<time>2025-02-15T08:00:39.000Z</time>
</trkpt>
<trkpt lat="45.8467230" lon="9.2309380">
	<ele>819.00</ele>
	<time>2025-02-15T08:00:40.000Z</time>
</trkpt>
<trkpt lat="45.8467200" lon="9.2309370">
	<ele>819.20</ele>
	<time>2025-02-15T08:00:41.000Z</time>
</trkpt>
<trkpt lat="45.8467190" lon="9.2309420">
	<ele>819.40</ele>
	<time>2025-02-15T08:00:42.000Z</time>
</trkpt>
<trkpt lat="45.8467180" lon="9.2309480">
	<ele>819.60</ele>
	<time>2025-02-15T08:00:43.000Z</time>
</trkpt>
<trkpt lat="45.8467150" lon="9.2309450">
	<ele>819.60</ele>
	<time>2025-02-15T08:00:44.000Z</time>
</trkpt>
<trkpt lat="45.8467080" lon="9.2309510">
	<ele>819.80</ele>
	<time>2025-02-15T08:00:45.000Z</time>
</trkpt>
<trkpt lat="45.8466950" lon="9.2309410">
	<ele>819.80</ele>
	<time>2025-02-15T08:00:46.000Z</time>
</trkpt>
<trkpt lat="45.8466940" lon="9.2309360">
	<ele>820.00</ele>
	<time>2025-02-15T08:00:47.000Z</time>
</trkpt>
<trkpt lat="45.8466880" lon="9.2309330">
	<ele>820.20</ele>
	<time>2025-02-15T08:00:48.000Z</time>
</trkpt>
<trkpt lat="45.8466830" lon="9.2309270">
	<ele>820.40</ele>
	<time>2025-02-15T08:00:49.000Z</time>
</trkpt>
<trkpt lat="45.8466820" lon="9.2309230">
	<ele>820.60</ele>
	<time>2025-02-15T08:00:50.000Z</time>
</trkpt>
<trkpt lat="45.8466790" lon="9.2309160">
	<ele>820.80</ele>
	<time>2025-02-15T08:00:51.000Z</time>
</trkpt>
<trkpt lat="45.8466760" lon="9.2309070">
	<ele>820.80</ele>
	<time>2025-02-15T08:00:52.000Z</time>
</trkpt>
<trkpt lat="45.8466730" lon="9.2309050">
	<ele>820.80</ele>
	<time>2025-02-15T08:00:53.000Z</time>
</trkpt>
<trkpt lat="45.8466760" lon="9.2309020">
	<ele>820.80</ele>
	<time>2025-02-15T08:00:54.000Z</time>
</trkpt>
<trkpt lat="45.8466780" lon="9.2308940">
	<ele>821.00</ele>
	<time>2025-02-15T08:00:55.000Z</time>
</trkpt>
<trkpt lat="45.8466780" lon="9.2308770">
	<ele>821.20</ele>
	<time>2025-02-15T08:00:56.000Z</time>
</trkpt>
<trkpt lat="45.8466760" lon="9.2308660">
	<ele>821.20</ele>
	<time>2025-02-15T08:00:57.000Z</time>
</trkpt>
<trkpt lat="45.8466730" lon="9.2308590">
	<ele>821.20</ele>
	<time>2025-02-15T08:00:58.000Z</time>
</trkpt>
<trkpt lat="45.8466720" lon="9.2308570">
	<ele>821.40</ele>
	<time>2025-02-15T08:00:59.000Z</time>
</trkpt>
<trkpt lat="45.8466630" lon="9.2308430">
	<ele>821.40</ele>
	<time>2025-02-15T08:01:00.000Z</time>
</trkpt>
<trkpt lat="45.8466570" lon="9.2308400">
	<ele>821.60</ele>
	<time>2025-02-15T08:01:01.000Z</time>
</trkpt>
<trkpt lat="45.8466550" lon="9.2308360">
	<ele>821.80</ele>
	<time>2025-02-15T08:01:02.000Z</time>
</trkpt>
<trkpt lat="45.8466530" lon="9.2308350">
	<ele>822.00</ele>
	<time>2025-02-15T08:01:03.000Z</time>
</trkpt>
<trkpt lat="45.8466510" lon="9.2308370">
	<ele>822.20</ele>
	<time>2025-02-15T08:01:04.000Z</time>
</trkpt>
<trkpt lat="45.8466500" lon="9.2308390">
	<ele>822.20</ele>
	<time>2025-02-15T08:01:05.000Z</time>
</trkpt>
<trkpt lat="45.8466500" lon="9.2308470">
	<ele>822.40</ele>
	<time>2025-02-15T08:01:06.000Z</time>
</trkpt>
<trkpt lat="45.8466520" lon="9.2308510">
	<ele>822.40</ele>
	<time>2025-02-15T08:01:07.000Z</time>
</trkpt>
<trkpt lat="45.8466510" lon="9.2308550">
	<ele>822.60</ele>
	<time>2025-02-15T08:01:08.000Z</time>
</trkpt>
<trkpt lat="45.8466490" lon="9.2308580">
	<ele>822.60</ele>
	<time>2025-02-15T08:01:09.000Z</time>
</trkpt>
<trkpt lat="45.8466470" lon="9.2308580">
	<ele>822.80</ele>
	<time>2025-02-15T08:01:10.000Z</time>
</trkpt>
<trkpt lat="45.8466440" lon="9.2308570">
	<ele>823.00</ele>
	<time>2025-02-15T08:01:11.000Z</time>
</trkpt>
<trkpt lat="45.8466370" lon="9.2308600">
	<ele>823.20</ele>
	<time>2025-02-15T08:01:12.000Z</time>
</trkpt>
<trkpt lat="45.8466370" lon="9.2308660">
	<ele>823.40</ele>
	<time>2025-02-15T08:01:13.000Z</time>
</trkpt>
<trkpt lat="45.8466370" lon="9.2308730">
	<ele>823.60</ele>
	<time>2025-02-15T08:01:14.000Z</time>
</trkpt>
<trkpt lat="45.8466380" lon="9.2308730">
	<ele>823.80</ele>
	<time>2025-02-15T08:01:15.000Z</time>
</trkpt>
<trkpt lat="45.8466380" lon="9.2308740">
	<ele>824.20</ele>
	<time>2025-02-15T08:01:16.000Z</time>
</trkpt>
<trkpt lat="45.8466360" lon="9.2308740">
	<ele>824.20</ele>
	<time>2025-02-15T08:01:17.000Z</time>
</trkpt>
<trkpt lat="45.8466370" lon="9.2308830">
	<ele>824.40</ele>
	<time>2025-02-15T08:01:18.000Z</time>
</trkpt>
<trkpt lat="45.8466390" lon="9.2308830">
	<ele>824.40</ele>
	<time>2025-02-15T08:01:19.000Z</time>
</trkpt>
<trkpt lat="45.8466380" lon="9.2308810">
	<ele>824.60</ele>
	<time>2025-02-15T08:01:20.000Z</time>
</trkpt>
<trkpt lat="45.8466340" lon="9.2308930">
	<ele>824.60</ele>
	<time>2025-02-15T08:01:21.000Z</time>
</trkpt>
<trkpt lat="45.8466320" lon="9.2309010">
	<ele>824.80</ele>
	<time>2025-02-15T08:01:22.000Z</time>
</trkpt>
<trkpt lat="45.8466320" lon="9.2309020">
	<ele>825.00</ele>
	<time>2025-02-15T08:01:23.000Z</time>
</trkpt>
<trkpt lat="45.8466220" lon="9.2309060">
	<ele>825.40</ele>
	<time>2025-02-15T08:01:24.000Z</time>
</trkpt>
<trkpt lat="45.8466160" lon="9.2309210">
	<ele>825.80</ele>
	<time>2025-02-15T08:01:25.000Z</time>
</trkpt>
<trkpt lat="45.8466160" lon="9.2309210">
	<ele>826.00</ele>
	<time>2025-02-15T08:01:26.000Z</time>
</trkpt>
<trkpt lat="45.8466160" lon="9.2309210">
	<ele>826.20</ele>
	<time>2025-02-15T08:01:27.000Z</time>
</trkpt>
<trkpt lat="45.8466160" lon="9.2309210">
	<ele>826.20</ele>
	<time>2025-02-15T08:01:28.000Z</time>
</trkpt>
<trkpt lat="45.8466160" lon="9.2309210">
	<ele>826.40</ele>
	<time>2025-02-15T08:01:29.000Z</time>
</trkpt>
<trkpt lat="45.8466160" lon="9.2309210">
	<ele>826.60</ele>
	<time>2025-02-15T08:01:30.000Z</time>
</trkpt>
<trkpt lat="45.8466160" lon="9.2309210">
	<ele>826.80</ele>
	<time>2025-02-15T08:01:31.000Z</time>
</trkpt>
<trkpt lat="45.8466160" lon="9.2309210">
	<ele>826.80</ele>
	<time>2025-02-15T08:01:32.000Z</time>
</trkpt>
<trkpt lat="45.8466160" lon="9.2309210">
	<ele>827.00</ele>
	<time>2025-02-15T08:01:33.000Z</time>
</trkpt>
<trkpt lat="45.8466160" lon="9.2309210">
	<ele>827.40</ele>
	<time>2025-02-15T08:01:34.000Z</time>
</trkpt>
<trkpt lat="45.8466160" lon="9.2309210">
	<ele>827.60</ele>
	<time>2025-02-15T08:01:35.000Z</time>
</trkpt>
<trkpt lat="45.8466160" lon="9.2309210">
	<ele>827.60</ele>
	<time>2025-02-15T08:01:36.000Z</time>
</trkpt>
<trkpt lat="45.8466160" lon="9.2309210">
	<ele>827.80</ele>
	<time>2025-02-15T08:01:37.000Z</time>
</trkpt>
<trkpt lat="45.8466160" lon="9.2309210">
	<ele>827.80</ele>
	<time>2025-02-15T08:01:38.000Z</time>
</trkpt>
<trkpt lat="45.8466160" lon="9.2309210">
	<ele>828.00</ele>
	<time>2025-02-15T08:01:39.000Z</time>
</trkpt>
<trkpt lat="45.8466160" lon="9.2309210">
	<ele>828.20</ele>
	<time>2025-02-15T08:01:40.000Z</time>
</trkpt>
<trkpt lat="45.8466090" lon="9.2309280">
	<ele>828.20</ele>
	<time>2025-02-15T08:01:41.000Z</time>
</trkpt>
<trkpt lat="45.8466080" lon="9.2309300">
	<ele>828.40</ele>
	<time>2025-02-15T08:01:42.000Z</time>
</trkpt>
<trkpt lat="45.8466080" lon="9.2309310">
	<ele>828.40</ele>
	<time>2025-02-15T08:01:43.000Z</time>
</trkpt>
<trkpt lat="45.8466080" lon="9.2309330">
	<ele>828.60</ele>
	<time>2025-02-15T08:01:44.000Z</time>
</trkpt>
<trkpt lat="45.8466100" lon="9.2309410">
	<ele>828.80</ele>
	<time>2025-02-15T08:01:45.000Z</time>
</trkpt>
<trkpt lat="45.8466190" lon="9.2309510">
	<ele>828.80</ele>
	<time>2025-02-15T08:01:46.000Z</time>
</trkpt>
<trkpt lat="45.8466230" lon="9.2309560">
	<ele>828.80</ele>
	<time>2025-02-15T08:01:47.000Z</time>
</trkpt>
<trkpt lat="45.8466260" lon="9.2309760">
	<ele>829.00</ele>
	<time>2025-02-15T08:01:48.000Z</time>
</trkpt>
<trkpt lat="45.8466290" lon="9.2309990">
	<ele>829.00</ele>
	<time>2025-02-15T08:01:49.000Z</time>
</trkpt>
<trkpt lat="45.8466320" lon="9.2310190">
	<ele>829.20</ele>
	<time>2025-02-15T08:01:50.000Z</time>
</trkpt>
<trkpt lat="45.8466320" lon="9.2310420">
	<ele>829.40</ele>
	<time>2025-02-15T08:01:51.000Z</time>
</trkpt>
<trkpt lat="45.8466310" lon="9.2310650">
	<ele>829.40</ele>
	<time>2025-02-15T08:01:52.000Z</time>
</trkpt>
<trkpt lat="45.8466330" lon="9.2310790">
	<ele>829.60</ele>
	<time>2025-02-15T08:01:53.000Z</time>
</trkpt>
<trkpt lat="45.8466330" lon="9.2310950">
	<ele>829.80</ele>
	<time>2025-02-15T08:01:54.000Z</time>
</trkpt>
<trkpt lat="45.8466330" lon="9.2310940">
	<ele>829.80</ele>
	<time>2025-02-15T08:01:55.000Z</time>
</trkpt>
<trkpt lat="45.8466270" lon="9.2311070">
	<ele>830.20</ele>
	<time>2025-02-15T08:01:56.000Z</time>
</trkpt>
<trkpt lat="45.8466190" lon="9.2311230">
	<ele>830.60</ele>
	<time>2025-02-15T08:01:57.000Z</time>
</trkpt>
<trkpt lat="45.8466190" lon="9.2311230">
	<ele>830.80</ele>
	<time>2025-02-15T08:01:58.000Z</time>
</trkpt>
<trkpt lat="45.8466160" lon="9.2311430">
	<ele>830.80</ele>
	<time>2025-02-15T08:01:59.000Z</time>
</trkpt>
<trkpt lat="45.8466190" lon="9.2311430">
	<ele>831.00</ele>
	<time>2025-02-15T08:02:00.000Z</time>
</trkpt>
<trkpt lat="45.8466200" lon="9.2311440">
	<ele>831.20</ele>
	<time>2025-02-15T08:02:01.000Z</time>
</trkpt>
<trkpt lat="45.8466260" lon="9.2311530">
	<ele>831.40</ele>
	<time>2025-02-15T08:02:02.000Z</time>
</trkpt>
<trkpt lat="45.8466310" lon="9.2311600">
	<ele>831.60</ele>
	<time>2025-02-15T08:02:03.000Z</time>
</trkpt>
<trkpt lat="45.8466320" lon="9.2311630">
	<ele>831.60</ele>
	<time>2025-02-15T08:02:04.000Z</time>
</trkpt>
<trkpt lat="45.8466360" lon="9.2311700">
	<ele>831.80</ele>
	<time>2025-02-15T08:02:05.000Z</time>
</trkpt>
<trkpt lat="45.8466410" lon="9.2311760">
	<ele>831.80</ele>
	<time>2025-02-15T08:02:06.000Z</time>
</trkpt>
<trkpt lat="45.8466480" lon="9.2311770">
	<ele>832.00</ele>
	<time>2025-02-15T08:02:07.000Z</time>
</trkpt>
<trkpt lat="45.8466520" lon="9.2311800">
	<ele>832.00</ele>
	<time>2025-02-15T08:02:08.000Z</time>
</trkpt>
<trkpt lat="45.8466540" lon="9.2311830">
	<ele>832.00</ele>
	<time>2025-02-15T08:02:09.000Z</time>
</trkpt>
<trkpt lat="45.8466560" lon="9.2312000">
	<ele>832.00</ele>
	<time>2025-02-15T08:02:10.000Z</time>
</trkpt>
<trkpt lat="45.8466540" lon="9.2312190">
	<ele>832.20</ele>
	<time>2025-02-15T08:02:11.000Z</time>
</trkpt>
<trkpt lat="45.8466530" lon="9.2312190">
	<ele>832.40</ele>
	<time>2025-02-15T08:02:12.000Z</time>
</trkpt>
<trkpt lat="45.8466530" lon="9.2312140">
	<ele>832.60</ele>
	<time>2025-02-15T08:02:13.000Z</time>
</trkpt>
<trkpt lat="45.8466510" lon="9.2312250">
	<ele>832.80</ele>
	<time>2025-02-15T08:02:14.000Z</time>
</trkpt>
<trkpt lat="45.8466480" lon="9.2312330">
	<ele>832.80</ele>
	<time>2025-02-15T08:02:15.000Z</time>
</trkpt>
<trkpt lat="45.8466500" lon="9.2312440">
	<ele>833.00</ele>
	<time>2025-02-15T08:02:16.000Z</time>
</trkpt>
<trkpt lat="45.8466560" lon="9.2312510">
	<ele>833.20</ele>
	<time>2025-02-15T08:02:17.000Z</time>
</trkpt>
<trkpt lat="45.8466560" lon="9.2312500">
	<ele>833.40</ele>
	<time>2025-02-15T08:02:18.000Z</time>
</trkpt>
<trkpt lat="45.8466530" lon="9.2312510">
	<ele>833.40</ele>
	<time>2025-02-15T08:02:19.000Z</time>
</trkpt>
<trkpt lat="45.8466540" lon="9.2312600">
	<ele>833.40</ele>
	<time>2025-02-15T08:02:20.000Z</time>
</trkpt>
<trkpt lat="45.8466550" lon="9.2312780">
	<ele>833.60</ele>
	<time>2025-02-15T08:02:21.000Z</time>
</trkpt>
<trkpt lat="45.8466570" lon="9.2312890">
	<ele>833.80</ele>
	<time>2025-02-15T08:02:22.000Z</time>
</trkpt>
<trkpt lat="45.8466600" lon="9.2312910">
	<ele>834.00</ele>
	<time>2025-02-15T08:02:23.000Z</time>
</trkpt>
<trkpt lat="45.8466610" lon="9.2312900">
	<ele>834.00</ele>
	<time>2025-02-15T08:02:24.000Z</time>
</trkpt>
<trkpt lat="45.8466620" lon="9.2312940">
	<ele>834.20</ele>
	<time>2025-02-15T08:02:25.000Z</time>
</trkpt>
<trkpt lat="45.8466650" lon="9.2313010">
	<ele>834.20</ele>
	<time>2025-02-15T08:02:26.000Z</time>
</trkpt>
<trkpt lat="45.8466700" lon="9.2313100">
	<ele>834.40</ele>
	<time>2025-02-15T08:02:27.000Z</time>
</trkpt>
<trkpt lat="45.8466730" lon="9.2313130">
	<ele>834.60</ele>
	<time>2025-02-15T08:02:28.000Z</time>
</trkpt>
<trkpt lat="45.8466770" lon="9.2313140">
	<ele>834.80</ele>
	<time>2025-02-15T08:02:29.000Z</time>
</trkpt>
<trkpt lat="45.8466820" lon="9.2313140">
	<ele>834.80</ele>
	<time>2025-02-15T08:02:30.000Z</time>
</trkpt>
<trkpt lat="45.8466870" lon="9.2313200">
	<ele>835.00</ele>
	<time>2025-02-15T08:02:31.000Z</time>
</trkpt>
<trkpt lat="45.8466870" lon="9.2313240">
	<ele>835.00</ele>
	<time>2025-02-15T08:02:32.000Z</time>
</trkpt>
<trkpt lat="45.8466860" lon="9.2313300">
	<ele>835.20</ele>
	<time>2025-02-15T08:02:33.000Z</time>
</trkpt>
<trkpt lat="45.8466850" lon="9.2313420">
	<ele>835.20</ele>
	<time>2025-02-15T08:02:34.000Z</time>
</trkpt>
<trkpt lat="45.8466850" lon="9.2313430">
	<ele>835.20</ele>
	<time>2025-02-15T08:02:35.000Z</time>
</trkpt>
<trkpt lat="45.8466860" lon="9.2313410">
	<ele>835.60</ele>
	<time>2025-02-15T08:02:36.000Z</time>
</trkpt>
<trkpt lat="45.8466920" lon="9.2313430">
	<ele>835.60</ele>
	<time>2025-02-15T08:02:37.000Z</time>
</trkpt>
<trkpt lat="45.8466910" lon="9.2313400">
	<ele>836.00</ele>
	<time>2025-02-15T08:02:38.000Z</time>
</trkpt>
<trkpt lat="45.8466960" lon="9.2313380">
	<ele>836.20</ele>
	<time>2025-02-15T08:02:39.000Z</time>
</trkpt>
<trkpt lat="45.8466980" lon="9.2313460">
	<ele>836.40</ele>
	<time>2025-02-15T08:02:40.000Z</time>
</trkpt>
<trkpt lat="45.8467030" lon="9.2313530">
	<ele>836.60</ele>
	<time>2025-02-15T08:02:41.000Z</time>
</trkpt>
<trkpt lat="45.8467030" lon="9.2313580">
	<ele>836.60</ele>
	<time>2025-02-15T08:02:42.000Z</time>
</trkpt>
<trkpt lat="45.8467090" lon="9.2313610">
	<ele>836.80</ele>
	<time>2025-02-15T08:02:43.000Z</time>
</trkpt>
<trkpt lat="45.8467100" lon="9.2313620">
	<ele>836.80</ele>
	<time>2025-02-15T08:02:44.000Z</time>
</trkpt>
<trkpt lat="45.8467110" lon="9.2313630">
	<ele>836.80</ele>
	<time>2025-02-15T08:02:45.000Z</time>
</trkpt>
<trkpt lat="45.8467170" lon="9.2313650">
	<ele>837.00</ele>
	<time>2025-02-15T08:02:46.000Z</time>
</trkpt>
<trkpt lat="45.8467240" lon="9.2313710">
	<ele>837.00</ele>
	<time>2025-02-15T08:02:47.000Z</time>
</trkpt>
<trkpt lat="45.8467260" lon="9.2313740">
	<ele>837.00</ele>
	<time>2025-02-15T08:02:48.000Z</time>
</trkpt>
<trkpt lat="45.8467270" lon="9.2313690">
	<ele>837.00</ele>
	<time>2025-02-15T08:02:49.000Z</time>
</trkpt>
<trkpt lat="45.8467270" lon="9.2313740">
	<ele>837.00</ele>
	<time>2025-02-15T08:02:50.000Z</time>
</trkpt>
<trkpt lat="45.8467280" lon="9.2313750">
	<ele>837.00</ele>
	<time>2025-02-15T08:02:51.000Z</time>
</trkpt>
<trkpt lat="45.8467290" lon="9.2313750">
	<ele>837.00</ele>
	<time>2025-02-15T08:02:52.000Z</time>
</trkpt>
<trkpt lat="45.8467360" lon="9.2313710">
	<ele>837.00</ele>
	<time>2025-02-15T08:02:53.000Z</time>
</trkpt>
<trkpt lat="45.8467380" lon="9.2313680">
	<ele>837.00</ele>
	<time>2025-02-15T08:02:54.000Z</time>
</trkpt>
<trkpt lat="45.8467380" lon="9.2313650">
	<ele>837.20</ele>
	<time>2025-02-15T08:02:55.000Z</time>
</trkpt>
<trkpt lat="45.8467390" lon="9.2313600">
	<ele>837.20</ele>
	<time>2025-02-15T08:02:56.000Z</time>
</trkpt>
<trkpt lat="45.8467380" lon="9.2313630">
	<ele>837.20</ele>
	<time>2025-02-15T08:02:57.000Z</time>
</trkpt>
<trkpt lat="45.8467380" lon="9.2313630">
	<ele>837.20</ele>
	<time>2025-02-15T08:02:58.000Z</time>
</trkpt>
<trkpt lat="45.8467380" lon="9.2313630">
	<ele>837.20</ele>
	<time>2025-02-15T08:02:59.000Z</time>
</trkpt>
<trkpt lat="45.8467380" lon="9.2313630">
	<ele>837.20</ele>
	<time>2025-02-15T08:03:00.000Z</time>
</trkpt>
<trkpt lat="45.8467380" lon="9.2313630">
	<ele>837.20</ele>
	<time>2025-02-15T08:03:01.000Z</time>
</trkpt>
<trkpt lat="45.8467380" lon="9.2313630">
	<ele>837.40</ele>
	<time>2025-02-15T08:03:02.000Z</time>
</trkpt>
<trkpt lat="45.8467380" lon="9.2313630">
	<ele>837.40</ele>
	<time>2025-02-15T08:03:03.000Z</time>
</trkpt>
<trkpt lat="45.8467380" lon="9.2313630">
	<ele>837.40</ele>
	<time>2025-02-15T08:03:04.000Z</time>
</trkpt>
<trkpt lat="45.8467380" lon="9.2313630">
	<ele>837.40</ele>
	<time>2025-02-15T08:03:05.000Z</time>
</trkpt>
<trkpt lat="45.8467380" lon="9.2313650">
	<ele>837.40</ele>
	<time>2025-02-15T08:03:06.000Z</time>
</trkpt>
<trkpt lat="45.8467380" lon="9.2313650">
	<ele>837.40</ele>
	<time>2025-02-15T08:03:07.000Z</time>
</trkpt>
<trkpt lat="45.8467380" lon="9.2313650">
	<ele>837.40</ele>
	<time>2025-02-15T08:03:08.000Z</time>
</trkpt>
<trkpt lat="45.8467370" lon="9.2313650">
	<ele>837.60</ele>
	<time>2025-02-15T08:03:09.000Z</time>
</trkpt>
<trkpt lat="45.8467360" lon="9.2313650">
	<ele>837.60</ele>
	<time>2025-02-15T08:03:10.000Z</time>
</trkpt>
<trkpt lat="45.8467340" lon="9.2313650">
	<ele>837.80</ele>
	<time>2025-02-15T08:03:11.000Z</time>
</trkpt>
<trkpt lat="45.8467330" lon="9.2313650">
	<ele>838.00</ele>
	<time>2025-02-15T08:03:12.000Z</time>
</trkpt>
<trkpt lat="45.8467300" lon="9.2313660">
	<ele>838.20</ele>
	<time>2025-02-15T08:03:13.000Z</time>
</trkpt>
<trkpt lat="45.8467290" lon="9.2313670">
	<ele>838.20</ele>
	<time>2025-02-15T08:03:14.000Z</time>
</trkpt>
<trkpt lat="45.8467270" lon="9.2313670">
	<ele>838.40</ele>
	<time>2025-02-15T08:03:15.000Z</time>
</trkpt>
<trkpt lat="45.8467270" lon="9.2313680">
	<ele>838.60</ele>
	<time>2025-02-15T08:03:16.000Z</time>
</trkpt>
<trkpt lat="45.8467270" lon="9.2313680">
	<ele>838.80</ele>
	<time>2025-02-15T08:03:17.000Z</time>
</trkpt>
<trkpt lat="45.8467270" lon="9.2313690">
	<ele>838.80</ele>
	<time>2025-02-15T08:03:18.000Z</time>
</trkpt>
<trkpt lat="45.8467250" lon="9.2313680">
	<ele>839.00</ele>
	<time>2025-02-15T08:03:19.000Z</time>
</trkpt>
<trkpt lat="45.8467220" lon="9.2313670">
	<ele>839.00</ele>
	<time>2025-02-15T08:03:20.000Z</time>
</trkpt>
<trkpt lat="45.8467120" lon="9.2313700">
	<ele>839.20</ele>
	<time>2025-02-15T08:03:21.000Z</time>
</trkpt>
<trkpt lat="45.8467070" lon="9.2313790">
	<ele>839.20</ele>
	<time>2025-02-15T08:03:22.000Z</time>
</trkpt>
<trkpt lat="45.8467110" lon="9.2313840">
	<ele>839.60</ele>
	<time>2025-02-15T08:03:23.000Z</time>
</trkpt>
<trkpt lat="45.8467070" lon="9.2313860">
	<ele>839.80</ele>
	<time>2025-02-15T08:03:24.000Z</time>
</trkpt>
<trkpt lat="45.8467000" lon="9.2313720">
	<ele>840.00</ele>
	<time>2025-02-15T08:03:25.000Z</time>
</trkpt>
<trkpt lat="45.8466950" lon="9.2313680">
	<ele>840.20</ele>
	<time>2025-02-15T08:03:26.000Z</time>
</trkpt>
<trkpt lat="45.8466860" lon="9.2313520">
	<ele>840.20</ele>
	<time>2025-02-15T08:03:27.000Z</time>
</trkpt>
<trkpt lat="45.8466790" lon="9.2313340">
	<ele>840.40</ele>
	<time>2025-02-15T08:03:28.000Z</time>
</trkpt>
<trkpt lat="45.8466750" lon="9.2313240">
	<ele>840.40</ele>
	<time>2025-02-15T08:03:29.000Z</time>
</trkpt>
<trkpt lat="45.8466730" lon="9.2313210">
	<ele>840.80</ele>
	<time>2025-02-15T08:03:30.000Z</time>
</trkpt>
<trkpt lat="45.8466700" lon="9.2313160">
	<ele>840.80</ele>
	<time>2025-02-15T08:03:31.000Z</time>
</trkpt>
<trkpt lat="45.8466720" lon="9.2313040">
	<ele>841.00</ele>
	<time>2025-02-15T08:03:32.000Z</time>
</trkpt>
<trkpt lat="45.8466750" lon="9.2312960">
	<ele>841.20</ele>
	<time>2025-02-15T08:03:33.000Z</time>
</trkpt>
<trkpt lat="45.8466750" lon="9.2312950">
	<ele>841.20</ele>
	<time>2025-02-15T08:03:34.000Z</time>
</trkpt>
<trkpt lat="45.8466750" lon="9.2312950">
	<ele>841.20</ele>
	<time>2025-02-15T08:03:35.000Z</time>
</trkpt>
<trkpt lat="45.8466760" lon="9.2312910">
	<ele>841.40</ele>
	<time>2025-02-15T08:03:36.000Z</time>
</trkpt>
<trkpt lat="45.8466760" lon="9.2312880">
	<ele>841.40</ele>
	<time>2025-02-15T08:03:37.000Z</time>
</trkpt>
<trkpt lat="45.8466770" lon="9.2312870">
	<ele>841.60</ele>
	<time>2025-02-15T08:03:38.000Z</time>
</trkpt>
<trkpt lat="45.8466840" lon="9.2313010">
	<ele>841.60</ele>
	<time>2025-02-15T08:03:39.000Z</time>
</trkpt>
<trkpt lat="45.8466830" lon="9.2313010">
	<ele>841.40</ele>
	<time>2025-02-15T08:03:40.000Z</time>
</trkpt>
<trkpt lat="45.8466840" lon="9.2312940">
	<ele>841.40</ele>
	<time>2025-02-15T08:03:41.000Z</time>
</trkpt>
<trkpt lat="45.8466860" lon="9.2312940">
	<ele>841.20</ele>
	<time>2025-02-15T08:03:42.000Z</time>
</trkpt>
<trkpt lat="45.8466870" lon="9.2312960">
	<ele>841.00</ele>
	<time>2025-02-15T08:03:43.000Z</time>
</trkpt>
<trkpt lat="45.8466890" lon="9.2312960">
	<ele>841.00</ele>
	<time>2025-02-15T08:03:44.000Z</time>
</trkpt>
<trkpt lat="45.8466880" lon="9.2312990">
	<ele>841.00</ele>
	<time>2025-02-15T08:03:45.000Z</time>
</trkpt>
<trkpt lat="45.8466880" lon="9.2312990">
	<ele>841.00</ele>
	<time>2025-02-15T08:03:46.000Z</time>
</trkpt>
<trkpt lat="45.8466880" lon="9.2312990">
	<ele>841.00</ele>
	<time>2025-02-15T08:03:47.000Z</time>
</trkpt>
<trkpt lat="45.8466880" lon="9.2312990">
	<ele>841.00</ele>
	<time>2025-02-15T08:03:48.000Z</time>
</trkpt>
<trkpt lat="45.8466880" lon="9.2312990">
	<ele>841.20</ele>
	<time>2025-02-15T08:03:49.000Z</time>
</trkpt>
<trkpt lat="45.8466880" lon="9.2312990">
	<ele>841.40</ele>
	<time>2025-02-15T08:03:50.000Z</time>
</trkpt>
<trkpt lat="45.8466880" lon="9.2312990">
	<ele>841.60</ele>
	<time>2025-02-15T08:03:51.000Z</time>
</trkpt>
<trkpt lat="45.8466880" lon="9.2312990">
	<ele>841.80</ele>
	<time>2025-02-15T08:03:52.000Z</time>
</trkpt>
<trkpt lat="45.8466880" lon="9.2312990">
	<ele>841.80</ele>
	<time>2025-02-15T08:03:53.000Z</time>
</trkpt>
<trkpt lat="45.8466870" lon="9.2312990">
	<ele>842.00</ele>
	<time>2025-02-15T08:03:54.000Z</time>
</trkpt>
<trkpt lat="45.8466870" lon="9.2312960">
	<ele>842.00</ele>
	<time>2025-02-15T08:03:55.000Z</time>
</trkpt>
<trkpt lat="45.8466860" lon="9.2312960">
	<ele>842.40</ele>
	<time>2025-02-15T08:03:56.000Z</time>
</trkpt>
<trkpt lat="45.8466860" lon="9.2312960">
	<ele>842.60</ele>
	<time>2025-02-15T08:03:57.000Z</time>
</trkpt>
<trkpt lat="45.8466840" lon="9.2312960">
	<ele>842.60</ele>
	<time>2025-02-15T08:03:58.000Z</time>
</trkpt>
<trkpt lat="45.8466840" lon="9.2312940">
	<ele>842.80</ele>
	<time>2025-02-15T08:03:59.000Z</time>
</trkpt>
<trkpt lat="45.8466830" lon="9.2312940">
	<ele>842.80</ele>
	<time>2025-02-15T08:04:00.000Z</time>
</trkpt>
<trkpt lat="45.8466790" lon="9.2312880">
	<ele>843.20</ele>
	<time>2025-02-15T08:04:01.000Z</time>
</trkpt>
<trkpt lat="45.8466770" lon="9.2312870">
	<ele>843.40</ele>
	<time>2025-02-15T08:04:02.000Z</time>
</trkpt>
<trkpt lat="45.8466760" lon="9.2312850">
	<ele>843.60</ele>
	<time>2025-02-15T08:04:03.000Z</time>
</trkpt>
<trkpt lat="45.8466760" lon="9.2312850">
	<ele>843.80</ele>
	<time>2025-02-15T08:04:04.000Z</time>
</trkpt>
<trkpt lat="45.8466740" lon="9.2312830">
	<ele>844.00</ele>
	<time>2025-02-15T08:04:05.000Z</time>
</trkpt>
<trkpt lat="45.8466720" lon="9.2312830">
	<ele>844.20</ele>
	<time>2025-02-15T08:04:06.000Z</time>
</trkpt>
<trkpt lat="45.8466700" lon="9.2312830">
	<ele>844.40</ele>
	<time>2025-02-15T08:04:07.000Z</time>
</trkpt>
<trkpt lat="45.8466680" lon="9.2312820">
	<ele>844.80</ele>
	<time>2025-02-15T08:04:08.000Z</time>
</trkpt>
<trkpt lat="45.8466660" lon="9.2312820">
	<ele>845.00</ele>
	<time>2025-02-15T08:04:09.000Z</time>
</trkpt>
<trkpt lat="45.8466620" lon="9.2312820">
	<ele>845.00</ele>
	<time>2025-02-15T08:04:10.000Z</time>
</trkpt>
<trkpt lat="45.8466610" lon="9.2312820">
	<ele>845.20</ele>
	<time>2025-02-15T08:04:11.000Z</time>
</trkpt>
<trkpt lat="45.8466610" lon="9.2312820">
	<ele>845.40</ele>
	<time>2025-02-15T08:04:12.000Z</time>
</trkpt>
<trkpt lat="45.8466550" lon="9.2312820">
	<ele>845.60</ele>
	<time>2025-02-15T08:04:13.000Z</time>
</trkpt>
<trkpt lat="45.8466530" lon="9.2312820">
	<ele>845.60</ele>
	<time>2025-02-15T08:04:14.000Z</time>
</trkpt>
<trkpt lat="45.8466520" lon="9.2312820">
	<ele>845.80</ele>
	<time>2025-02-15T08:04:15.000Z</time>
</trkpt>
<trkpt lat="45.8466510" lon="9.2312820">
	<ele>845.80</ele>
	<time>2025-02-15T08:04:16.000Z</time>
</trkpt>
<trkpt lat="45.8466500" lon="9.2312820">
	<ele>845.80</ele>
	<time>2025-02-15T08:04:17.000Z</time>
</trkpt>
<trkpt lat="45.8466500" lon="9.2312820">
	<ele>846.00</ele>
	<time>2025-02-15T08:04:18.000Z</time>
</trkpt>
<trkpt lat="45.8466490" lon="9.2312820">
	<ele>846.20</ele>
	<time>2025-02-15T08:04:19.000Z</time>
</trkpt>
<trkpt lat="45.8466480" lon="9.2312820">
	<ele>846.20</ele>
	<time>2025-02-15T08:04:20.000Z</time>
</trkpt>
<trkpt lat="45.8466480" lon="9.2312860">
	<ele>846.40</ele>
	<time>2025-02-15T08:04:21.000Z</time>
</trkpt>
<trkpt lat="45.8466460" lon="9.2312890">
	<ele>846.40</ele>
	<time>2025-02-15T08:04:22.000Z</time>
</trkpt>
<trkpt lat="45.8466450" lon="9.2312940">
	<ele>846.60</ele>
	<time>2025-02-15T08:04:23.000Z</time>
</trkpt>
<trkpt lat="45.8466450" lon="9.2312960">
	<ele>846.80</ele>
	<time>2025-02-15T08:04:24.000Z</time>
</trkpt>
<trkpt lat="45.8466430" lon="9.2312960">
	<ele>846.80</ele>
	<time>2025-02-15T08:04:25.000Z</time>
</trkpt>
<trkpt lat="45.8466420" lon="9.2312960">
	<ele>847.00</ele>
	<time>2025-02-15T08:04:26.000Z</time>
</trkpt>
<trkpt lat="45.8466410" lon="9.2312970">
	<ele>847.20</ele>
	<time>2025-02-15T08:04:27.000Z</time>
</trkpt>
<trkpt lat="45.8466400" lon="9.2312980">
	<ele>847.20</ele>
	<time>2025-02-15T08:04:28.000Z</time>
</trkpt>
<trkpt lat="45.8466370" lon="9.2312980">
	<ele>847.40</ele>
	<time>2025-02-15T08:04:29.000Z</time>
</trkpt>
<trkpt lat="45.8466360" lon="9.2312960">
	<ele>847.40</ele>
	<time>2025-02-15T08:04:30.000Z</time>
</trkpt>
<trkpt lat="45.8466360" lon="9.2312960">
	<ele>847.40</ele>
	<time>2025-02-15T08:04:31.000Z</time>
</trkpt>
<trkpt lat="45.8466370" lon="9.2312950">
	<ele>847.40</ele>
	<time>2025-02-15T08:04:32.000Z</time>
</trkpt>
<trkpt lat="45.8466370" lon="9.2312920">
	<ele>847.60</ele>
	<time>2025-02-15T08:04:33.000Z</time>
</trkpt>
<trkpt lat="45.8466360" lon="9.2312960">
	<ele>847.60</ele>
	<time>2025-02-15T08:04:34.000Z</time>
</trkpt>
<trkpt lat="45.8466360" lon="9.2313030">
	<ele>847.80</ele>
	<time>2025-02-15T08:04:35.000Z</time>
</trkpt>
<trkpt lat="45.8466350" lon="9.2313070">
	<ele>847.80</ele>
	<time>2025-02-15T08:04:36.000Z</time>
</trkpt>
<trkpt lat="45.8466340" lon="9.2313120">
	<ele>847.80</ele>
	<time>2025-02-15T08:04:37.000Z</time>
</trkpt>
<trkpt lat="45.8466350" lon="9.2313070">
	<ele>847.80</ele>
	<time>2025-02-15T08:04:38.000Z</time>
</trkpt>
<trkpt lat="45.8466370" lon="9.2313050">
	<ele>847.80</ele>
	<time>2025-02-15T08:04:39.000Z</time>
</trkpt>
<trkpt lat="45.8466350" lon="9.2313080">
	<ele>847.80</ele>
	<time>2025-02-15T08:04:40.000Z</time>
</trkpt>
<trkpt lat="45.8466350" lon="9.2313070">
	<ele>847.80</ele>
	<time>2025-02-15T08:04:41.000Z</time>
</trkpt>
<trkpt lat="45.8466330" lon="9.2313050">
	<ele>847.80</ele>
	<time>2025-02-15T08:04:42.000Z</time>
</trkpt>
<trkpt lat="45.8466420" lon="9.2313100">
	<ele>847.80</ele>
	<time>2025-02-15T08:04:43.000Z</time>
</trkpt>
<trkpt lat="45.8466440" lon="9.2313090">
	<ele>847.80</ele>
	<time>2025-02-15T08:04:44.000Z</time>
</trkpt>
<trkpt lat="45.8466420" lon="9.2313120">
	<ele>847.80</ele>
	<time>2025-02-15T08:04:45.000Z</time>
</trkpt>
<trkpt lat="45.8466420" lon="9.2313120">
	<ele>847.80</ele>
	<time>2025-02-15T08:04:46.000Z</time>
</trkpt>
<trkpt lat="45.8466420" lon="9.2313120">
	<ele>847.80</ele>
	<time>2025-02-15T08:04:47.000Z</time>
</trkpt>
<trkpt lat="45.8466420" lon="9.2313120">
	<ele>847.80</ele>
	<time>2025-02-15T08:04:48.000Z</time>
</trkpt>
<trkpt lat="45.8466420" lon="9.2313120">
	<ele>847.80</ele>
	<time>2025-02-15T08:04:49.000Z</time>
</trkpt>
<trkpt lat="45.8466420" lon="9.2313120">
	<ele>847.80</ele>
	<time>2025-02-15T08:04:50.000Z</time>
</trkpt>
<trkpt lat="45.8466420" lon="9.2313120">
	<ele>847.80</ele>
	<time>2025-02-15T08:04:51.000Z</time>
</trkpt>
<trkpt lat="45.8466420" lon="9.2313120">
	<ele>847.80</ele>
	<time>2025-02-15T08:04:52.000Z</time>
</trkpt>
<trkpt lat="45.8466420" lon="9.2313120">
	<ele>848.00</ele>
	<time>2025-02-15T08:04:53.000Z</time>
</trkpt>
<trkpt lat="45.8466420" lon="9.2313120">
	<ele>848.00</ele>
	<time>2025-02-15T08:04:54.000Z</time>
</trkpt>
<trkpt lat="45.8466420" lon="9.2313120">
	<ele>848.00</ele>
	<time>2025-02-15T08:04:55.000Z</time>
</trkpt>
<trkpt lat="45.8466420" lon="9.2313120">
	<ele>848.00</ele>
	<time>2025-02-15T08:04:56.000Z</time>
</trkpt>
<trkpt lat="45.8466420" lon="9.2313110">
	<ele>848.00</ele>
	<time>2025-02-15T08:04:57.000Z</time>
</trkpt>
<trkpt lat="45.8466430" lon="9.2313140">
	<ele>848.00</ele>
	<time>2025-02-15T08:04:58.000Z</time>
</trkpt>
<trkpt lat="45.8466440" lon="9.2313170">
	<ele>848.00</ele>
	<time>2025-02-15T08:04:59.000Z</time>
</trkpt>
<trkpt lat="45.8466460" lon="9.2313160">
	<ele>848.00</ele>
	<time>2025-02-15T08:05:00.000Z</time>
</trkpt>
<trkpt lat="45.8466470" lon="9.2313290">
	<ele>848.20</ele>
	<time>2025-02-15T08:05:01.000Z</time>
</trkpt>
<trkpt lat="45.8466480" lon="9.2313450">
	<ele>848.40</ele>
	<time>2025-02-15T08:05:02.000Z</time>
</trkpt>
<trkpt lat="45.8466500" lon="9.2313490">
	<ele>848.60</ele>
	<time>2025-02-15T08:05:03.000Z</time>
</trkpt>
<trkpt lat="45.8466510" lon="9.2313510">
	<ele>848.80</ele>
	<time>2025-02-15T08:05:04.000Z</time>
</trkpt>
<trkpt lat="45.8466510" lon="9.2313520">
	<ele>849.00</ele>
	<time>2025-02-15T08:05:05.000Z</time>
</trkpt>
<trkpt lat="45.8466490" lon="9.2313510">
	<ele>849.20</ele>
	<time>2025-02-15T08:05:06.000Z</time>
</trkpt>
<trkpt lat="45.8466440" lon="9.2313570">
	<ele>849.20</ele>
	<time>2025-02-15T08:05:07.000Z</time>
</trkpt>
<trkpt lat="45.8466410" lon="9.2313580">
	<ele>849.40</ele>
	<time>2025-02-15T08:05:08.000Z</time>
</trkpt>
<trkpt lat="45.8466350" lon="9.2313630">
	<ele>849.60</ele>
	<time>2025-02-15T08:05:09.000Z</time>
</trkpt>
<trkpt lat="45.8466270" lon="9.2313750">
	<ele>849.60</ele>
	<time>2025-02-15T08:05:10.000Z</time>
</trkpt>
<trkpt lat="45.8466250" lon="9.2313760">
	<ele>849.80</ele>
	<time>2025-02-15T08:05:11.000Z</time>
</trkpt>
<trkpt lat="45.8466260" lon="9.2313800">
	<ele>850.00</ele>
	<time>2025-02-15T08:05:12.000Z</time>
</trkpt>
<trkpt lat="45.8466230" lon="9.2313860">
	<ele>850.20</ele>
	<time>2025-02-15T08:05:13.000Z</time>
</trkpt>
<trkpt lat="45.8466180" lon="9.2313970">
	<ele>850.40</ele>
	<time>2025-02-15T08:05:14.000Z</time>
</trkpt>
<trkpt lat="45.8466140" lon="9.2314000">
	<ele>850.60</ele>
	<time>2025-02-15T08:05:15.000Z</time>
</trkpt>
<trkpt lat="45.8466130" lon="9.2314000">
	<ele>850.60</ele>
	<time>2025-02-15T08:05:16.000Z</time>
</trkpt>
<trkpt lat="45.8466130" lon="9.2314000">
	<ele>850.60</ele>
	<time>2025-02-15T08:05:17.000Z</time>
</trkpt>
<trkpt lat="45.8466130" lon="9.2314000">
	<ele>850.60</ele>
	<time>2025-02-15T08:05:18.000Z</time>
</trkpt>
<trkpt lat="45.8466130" lon="9.2314000">
	<ele>850.80</ele>
	<time>2025-02-15T08:05:19.000Z</time>
</trkpt>
<trkpt lat="45.8466130" lon="9.2314010">
	<ele>850.80</ele>
	<time>2025-02-15T08:05:20.000Z</time>
</trkpt>
<trkpt lat="45.8466160" lon="9.2314030">
	<ele>850.80</ele>
	<time>2025-02-15T08:05:21.000Z</time>
</trkpt>
<trkpt lat="45.8466210" lon="9.2314130">
	<ele>851.00</ele>
	<time>2025-02-15T08:05:22.000Z</time>
</trkpt>
<trkpt lat="45.8466210" lon="9.2314080">
	<ele>851.00</ele>
	<time>2025-02-15T08:05:23.000Z</time>
</trkpt>
<trkpt lat="45.8466230" lon="9.2314070">
	<ele>851.20</ele>
	<time>2025-02-15T08:05:24.000Z</time>
</trkpt>
<trkpt lat="45.8466260" lon="9.2314100">
	<ele>851.20</ele>
	<time>2025-02-15T08:05:25.000Z</time>
</trkpt>
<trkpt lat="45.8466290" lon="9.2314170">
	<ele>851.40</ele>
	<time>2025-02-15T08:05:26.000Z</time>
</trkpt>
<trkpt lat="45.8466280" lon="9.2314290">
	<ele>851.80</ele>
	<time>2025-02-15T08:05:27.000Z</time>
</trkpt>
<trkpt lat="45.8466260" lon="9.2314370">
	<ele>852.00</ele>
	<time>2025-02-15T08:05:28.000Z</time>
</trkpt>
<trkpt lat="45.8466260" lon="9.2314440">
	<ele>852.00</ele>
	<time>2025-02-15T08:05:29.000Z</time>
</trkpt>
<trkpt lat="45.8466250" lon="9.2314400">
	<ele>852.20</ele>
	<time>2025-02-15T08:05:30.000Z</time>
</trkpt>
<trkpt lat="45.8466250" lon="9.2314370">
	<ele>852.40</ele>
	<time>2025-02-15T08:05:31.000Z</time>
</trkpt>
<trkpt lat="45.8466240" lon="9.2314330">
	<ele>852.60</ele>
	<time>2025-02-15T08:05:32.000Z</time>
</trkpt>
<trkpt lat="45.8466200" lon="9.2314260">
	<ele>852.60</ele>
	<time>2025-02-15T08:05:33.000Z</time>
</trkpt>
<trkpt lat="45.8466080" lon="9.2314080">
	<ele>852.80</ele>
	<time>2025-02-15T08:05:34.000Z</time>
</trkpt>
<trkpt lat="45.8465990" lon="9.2314050">
	<ele>853.00</ele>
	<time>2025-02-15T08:05:35.000Z</time>
</trkpt>
<trkpt lat="45.8465890" lon="9.2314030">
	<ele>853.20</ele>
	<time>2025-02-15T08:05:36.000Z</time>
</trkpt>
<trkpt lat="45.8465850" lon="9.2313970">
	<ele>853.40</ele>
	<time>2025-02-15T08:05:37.000Z</time>
</trkpt>
<trkpt lat="45.8465810" lon="9.2313980">
	<ele>853.40</ele>
	<time>2025-02-15T08:05:38.000Z</time>
</trkpt>
<trkpt lat="45.8465770" lon="9.2313960">
	<ele>853.60</ele>
	<time>2025-02-15T08:05:39.000Z</time>
</trkpt>
<trkpt lat="45.8465740" lon="9.2313920">
	<ele>853.80</ele>
	<time>2025-02-15T08:05:40.000Z</time>
</trkpt>
<trkpt lat="45.8465730" lon="9.2313900">
	<ele>854.00</ele>
	<time>2025-02-15T08:05:41.000Z</time>
</trkpt>
<trkpt lat="45.8465690" lon="9.2313930">
	<ele>854.20</ele>
	<time>2025-02-15T08:05:42.000Z</time>
</trkpt>
<trkpt lat="45.8465620" lon="9.2313980">
	<ele>854.40</ele>
	<time>2025-02-15T08:05:43.000Z</time>
</trkpt>
<trkpt lat="45.8465580" lon="9.2313940">
	<ele>854.40</ele>
	<time>2025-02-15T08:05:44.000Z</time>
</trkpt>
<trkpt lat="45.8465470" lon="9.2313830">
	<ele>854.80</ele>
	<time>2025-02-15T08:05:45.000Z</time>
</trkpt>
<trkpt lat="45.8465390" lon="9.2313840">
	<ele>854.80</ele>
	<time>2025-02-15T08:05:46.000Z</time>
</trkpt>
<trkpt lat="45.8465280" lon="9.2314050">
	<ele>855.00</ele>
	<time>2025-02-15T08:05:47.000Z</time>
</trkpt>
<trkpt lat="45.8465240" lon="9.2314230">
	<ele>855.00</ele>
	<time>2025-02-15T08:05:48.000Z</time>
</trkpt>
<trkpt lat="45.8465200" lon="9.2314220">
	<ele>855.00</ele>
	<time>2025-02-15T08:05:49.000Z</time>
</trkpt>
<trkpt lat="45.8465150" lon="9.2314150">
	<ele>855.20</ele>
	<time>2025-02-15T08:05:50.000Z</time>
</trkpt>
<trkpt lat="45.8465200" lon="9.2314340">
	<ele>855.20</ele>
	<time>2025-02-15T08:05:51.000Z</time>
</trkpt>
<trkpt lat="45.8465270" lon="9.2314530">
	<ele>855.40</ele>
	<time>2025-02-15T08:05:52.000Z</time>
</trkpt>
<trkpt lat="45.8465280" lon="9.2314650">
	<ele>855.60</ele>
	<time>2025-02-15T08:05:53.000Z</time>
</trkpt>
<trkpt lat="45.8465260" lon="9.2314680">
	<ele>855.60</ele>
	<time>2025-02-15T08:05:54.000Z</time>
</trkpt>
<trkpt lat="45.8465270" lon="9.2314770">
	<ele>855.80</ele>
	<time>2025-02-15T08:05:55.000Z</time>
</trkpt>
<trkpt lat="45.8465210" lon="9.2314840">
	<ele>856.00</ele>
	<time>2025-02-15T08:05:56.000Z</time>
</trkpt>
<trkpt lat="45.8465210" lon="9.2315110">
	<ele>856.20</ele>
	<time>2025-02-15T08:05:57.000Z</time>
</trkpt>
<trkpt lat="45.8465200" lon="9.2315110">
	<ele>856.40</ele>
	<time>2025-02-15T08:05:58.000Z</time>
</trkpt>
<trkpt lat="45.8465100" lon="9.2315450">
	<ele>856.60</ele>
	<time>2025-02-15T08:05:59.000Z</time>
</trkpt>
<trkpt lat="45.8465050" lon="9.2315580">
	<ele>856.60</ele>
	<time>2025-02-15T08:06:00.000Z</time>
</trkpt>
<trkpt lat="45.8465080" lon="9.2315760">
	<ele>856.80</ele>
	<time>2025-02-15T08:06:01.000Z</time>
</trkpt>
<trkpt lat="45.8465050" lon="9.2315820">
	<ele>856.80</ele>
	<time>2025-02-15T08:06:02.000Z</time>
</trkpt>
<trkpt lat="45.8465060" lon="9.2315840">
	<ele>857.20</ele>
	<time>2025-02-15T08:06:03.000Z</time>
</trkpt>
<trkpt lat="45.8465070" lon="9.2315850">
	<ele>857.40</ele>
	<time>2025-02-15T08:06:04.000Z</time>
</trkpt>
<trkpt lat="45.8465080" lon="9.2315850">
	<ele>857.40</ele>
	<time>2025-02-15T08:06:05.000Z</time>
</trkpt>
<trkpt lat="45.8465050" lon="9.2315750">
	<ele>857.60</ele>
	<time>2025-02-15T08:06:06.000Z</time>
</trkpt>
<trkpt lat="45.8465050" lon="9.2315710">
	<ele>857.60</ele>
	<time>2025-02-15T08:06:07.000Z</time>
</trkpt>
<trkpt lat="45.8465050" lon="9.2315770">
	<ele>857.80</ele>
	<time>2025-02-15T08:06:08.000Z</time>
</trkpt>
<trkpt lat="45.8465000" lon="9.2315860">
	<ele>858.00</ele>
	<time>2025-02-15T08:06:09.000Z</time>
</trkpt>
<trkpt lat="45.8465000" lon="9.2315870">
	<ele>858.20</ele>
	<time>2025-02-15T08:06:10.000Z</time>
</trkpt>
<trkpt lat="45.8464960" lon="9.2316060">
	<ele>858.40</ele>
	<time>2025-02-15T08:06:11.000Z</time>
</trkpt>
<trkpt lat="45.8464970" lon="9.2316090">
	<ele>858.40</ele>
	<time>2025-02-15T08:06:12.000Z</time>
</trkpt>
<trkpt lat="45.8464900" lon="9.2316290">
	<ele>858.60</ele>
	<time>2025-02-15T08:06:13.000Z</time>
</trkpt>
<trkpt lat="45.8464870" lon="9.2316370">
	<ele>858.80</ele>
	<time>2025-02-15T08:06:14.000Z</time>
</trkpt>
<trkpt lat="45.8464770" lon="9.2316280">
	<ele>859.00</ele>
	<time>2025-02-15T08:06:15.000Z</time>
</trkpt>
<trkpt lat="45.8464740" lon="9.2316320">
	<ele>859.20</ele>
	<time>2025-02-15T08:06:16.000Z</time>
</trkpt>
<trkpt lat="45.8464760" lon="9.2316270">
	<ele>859.40</ele>
	<time>2025-02-15T08:06:17.000Z</time>
</trkpt>
<trkpt lat="45.8464780" lon="9.2316310">
	<ele>859.40</ele>
	<time>2025-02-15T08:06:18.000Z</time>
</trkpt>
<trkpt lat="45.8464870" lon="9.2316420">
	<ele>859.60</ele>
	<time>2025-02-15T08:06:19.000Z</time>
</trkpt>
<trkpt lat="45.8464890" lon="9.2316390">
	<ele>859.80</ele>
	<time>2025-02-15T08:06:20.000Z</time>
</trkpt>
<trkpt lat="45.8464860" lon="9.2316640">
	<ele>859.80</ele>
	<time>2025-02-15T08:06:21.000Z</time>
</trkpt>
<trkpt lat="45.8464890" lon="9.2316690">
	<ele>859.80</ele>
	<time>2025-02-15T08:06:22.000Z</time>
</trkpt>
<trkpt lat="45.8464970" lon="9.2316730">
	<ele>860.00</ele>
	<time>2025-02-15T08:06:23.000Z</time>
</trkpt>
<trkpt lat="45.8464970" lon="9.2316610">
	<ele>860.00</ele>
	<time>2025-02-15T08:06:24.000Z</time>
</trkpt>
<trkpt lat="45.8465110" lon="9.2316490">
	<ele>860.00</ele>
	<time>2025-02-15T08:06:25.000Z</time>
</trkpt>
<trkpt lat="45.8465150" lon="9.2316430">
	<ele>860.00</ele>
	<time>2025-02-15T08:06:26.000Z</time>
</trkpt>
<trkpt lat="45.8465180" lon="9.2316420">
	<ele>860.00</ele>
	<time>2025-02-15T08:06:27.000Z</time>
</trkpt>
<trkpt lat="45.8465120" lon="9.2316410">
	<ele>860.00</ele>
	<time>2025-02-15T08:06:28.000Z</time>
</trkpt>
<trkpt lat="45.8465120" lon="9.2316380">
	<ele>860.20</ele>
	<time>2025-02-15T08:06:29.000Z</time>
</trkpt>
<trkpt lat="45.8465130" lon="9.2316740">
	<ele>860.20</ele>
	<time>2025-02-15T08:06:30.000Z</time>
</trkpt>
<trkpt lat="45.8465210" lon="9.2316860">
	<ele>860.20</ele>
	<time>2025-02-15T08:06:31.000Z</time>
</trkpt>
<trkpt lat="45.8465330" lon="9.2316950">
	<ele>860.40</ele>
	<time>2025-02-15T08:06:32.000Z</time>
</trkpt>
<trkpt lat="45.8465360" lon="9.2316920">
	<ele>860.40</ele>
	<time>2025-02-15T08:06:33.000Z</time>
</trkpt>
<trkpt lat="45.8465440" lon="9.2317210">
	<ele>860.60</ele>
	<time>2025-02-15T08:06:34.000Z</time>
</trkpt>
<trkpt lat="45.8465480" lon="9.2317320">
	<ele>860.60</ele>
	<time>2025-02-15T08:06:35.000Z</time>
</trkpt>
<trkpt lat="45.8465520" lon="9.2317330">
	<ele>860.60</ele>
	<time>2025-02-15T08:06:36.000Z</time>
</trkpt>
<trkpt lat="45.8465550" lon="9.2317390">
	<ele>860.60</ele>
	<time>2025-02-15T08:06:37.000Z</time>
</trkpt>
<trkpt lat="45.8465600" lon="9.2317410">
	<ele>860.80</ele>
	<time>2025-02-15T08:06:38.000Z</time>
</trkpt>
<trkpt lat="45.8465630" lon="9.2317450">
	<ele>860.80</ele>
	<time>2025-02-15T08:06:39.000Z</time>
</trkpt>
<trkpt lat="45.8465690" lon="9.2317500">
	<ele>860.80</ele>
	<time>2025-02-15T08:06:40.000Z</time>
</trkpt>
<trkpt lat="45.8465740" lon="9.2317550">
	<ele>860.80</ele>
	<time>2025-02-15T08:06:41.000Z</time>
</trkpt>
<trkpt lat="45.8465760" lon="9.2317520">
	<ele>861.00</ele>
	<time>2025-02-15T08:06:42.000Z</time>
</trkpt>
<trkpt lat="45.8465810" lon="9.2317510">
	<ele>861.00</ele>
	<time>2025-02-15T08:06:43.000Z</time>
</trkpt>
<trkpt lat="45.8465790" lon="9.2317540">
	<ele>861.20</ele>
	<time>2025-02-15T08:06:44.000Z</time>
</trkpt>
<trkpt lat="45.8465790" lon="9.2317610">
	<ele>861.40</ele>
	<time>2025-02-15T08:06:45.000Z</time>
</trkpt>
<trkpt lat="45.8465780" lon="9.2317690">
	<ele>861.40</ele>
	<time>2025-02-15T08:06:46.000Z</time>
</trkpt>
<trkpt lat="45.8465770" lon="9.2317770">
	<ele>861.40</ele>
	<time>2025-02-15T08:06:47.000Z</time>
</trkpt>
<trkpt lat="45.8465750" lon="9.2317890">
	<ele>861.60</ele>
	<time>2025-02-15T08:06:48.000Z</time>
</trkpt>
<trkpt lat="45.8465740" lon="9.2317960">
	<ele>861.80</ele>
	<time>2025-02-15T08:06:49.000Z</time>
</trkpt>
<trkpt lat="45.8465750" lon="9.2318000">
	<ele>861.80</ele>
	<time>2025-02-15T08:06:50.000Z</time>
</trkpt>
<trkpt lat="45.8465790" lon="9.2318040">
	<ele>861.80</ele>
	<time>2025-02-15T08:06:51.000Z</time>
</trkpt>
<trkpt lat="45.8465800" lon="9.2318100">
	<ele>862.00</ele>
	<time>2025-02-15T08:06:52.000Z</time>
</trkpt>
<trkpt lat="45.8465800" lon="9.2318120">
	<ele>862.00</ele>
	<time>2025-02-15T08:06:53.000Z</time>
</trkpt>
<trkpt lat="45.8465800" lon="9.2318100">
	<ele>862.00</ele>
	<time>2025-02-15T08:06:54.000Z</time>
</trkpt>
<trkpt lat="45.8465670" lon="9.2318360">
	<ele>862.00</ele>
	<time>2025-02-15T08:06:55.000Z</time>
</trkpt>
<trkpt lat="45.8465640" lon="9.2318330">
	<ele>862.20</ele>
	<time>2025-02-15T08:06:56.000Z</time>
</trkpt>
<trkpt lat="45.8465580" lon="9.2318480">
	<ele>862.00</ele>
	<time>2025-02-15T08:06:57.000Z</time>
</trkpt>
<trkpt lat="45.8465570" lon="9.2318490">
	<ele>862.00</ele>
	<time>2025-02-15T08:06:58.000Z</time>
</trkpt>
<trkpt lat="45.8465480" lon="9.2318510">
	<ele>862.20</ele>
	<time>2025-02-15T08:06:59.000Z</time>
</trkpt>
<trkpt lat="45.8465430" lon="9.2318500">
	<ele>862.20</ele>
	<time>2025-02-15T08:07:00.000Z</time>
</trkpt>
<trkpt lat="45.8465410" lon="9.2318480">
	<ele>862.40</ele>
	<time>2025-02-15T08:07:01.000Z</time>
</trkpt>
<trkpt lat="45.8465410" lon="9.2318480">
	<ele>862.60</ele>
	<time>2025-02-15T08:07:02.000Z</time>
</trkpt>
<trkpt lat="45.8465480" lon="9.2318370">
	<ele>862.80</ele>
	<time>2025-02-15T08:07:03.000Z</time>
</trkpt>
<trkpt lat="45.8465540" lon="9.2318460">
	<ele>863.00</ele>
	<time>2025-02-15T08:07:04.000Z</time>
</trkpt>
<trkpt lat="45.8465640" lon="9.2318660">
	<ele>863.00</ele>
	<time>2025-02-15T08:07:05.000Z</time>
</trkpt>
<trkpt lat="45.8465680" lon="9.2318690">
	<ele>863.20</ele>
	<time>2025-02-15T08:07:06.000Z</time>
</trkpt>
<trkpt lat="45.8465670" lon="9.2318840">
	<ele>863.40</ele>
	<time>2025-02-15T08:07:07.000Z</time>
</trkpt>
<trkpt lat="45.8465610" lon="9.2318930">
	<ele>863.40</ele>
	<time>2025-02-15T08:07:08.000Z</time>
</trkpt>
<trkpt lat="45.8465550" lon="9.2318950">
	<ele>863.40</ele>
	<time>2025-02-15T08:07:09.000Z</time>
</trkpt>
<trkpt lat="45.8465560" lon="9.2318950">
	<ele>863.60</ele>
	<time>2025-02-15T08:07:10.000Z</time>
</trkpt>
<trkpt lat="45.8465520" lon="9.2318940">
	<ele>863.60</ele>
	<time>2025-02-15T08:07:11.000Z</time>
</trkpt>
<trkpt lat="45.8465510" lon="9.2318930">
	<ele>863.80</ele>
	<time>2025-02-15T08:07:12.000Z</time>
</trkpt>
<trkpt lat="45.8465480" lon="9.2318970">
	<ele>864.00</ele>
	<time>2025-02-15T08:07:13.000Z</time>
</trkpt>
<trkpt lat="45.8465420" lon="9.2319010">
	<ele>864.00</ele>
	<time>2025-02-15T08:07:14.000Z</time>
</trkpt>
<trkpt lat="45.8465390" lon="9.2319060">
	<ele>864.20</ele>
	<time>2025-02-15T08:07:15.000Z</time>
</trkpt>
<trkpt lat="45.8465380" lon="9.2319120">
	<ele>864.20</ele>
	<time>2025-02-15T08:07:16.000Z</time>
</trkpt>
<trkpt lat="45.8465390" lon="9.2319100">
	<ele>864.40</ele>
	<time>2025-02-15T08:07:17.000Z</time>
</trkpt>
<trkpt lat="45.8465400" lon="9.2319090">
	<ele>864.60</ele>
	<time>2025-02-15T08:07:18.000Z</time>
</trkpt>
<trkpt lat="45.8465370" lon="9.2319160">
	<ele>864.60</ele>
	<time>2025-02-15T08:07:19.000Z</time>
</trkpt>
<trkpt lat="45.8465360" lon="9.2319170">
	<ele>865.00</ele>
	<time>2025-02-15T08:07:20.000Z</time>
</trkpt>
<trkpt lat="45.8465380" lon="9.2319220">
	<ele>865.20</ele>
	<time>2025-02-15T08:07:21.000Z</time>
</trkpt>
<trkpt lat="45.8465400" lon="9.2319190">
	<ele>865.40</ele>
	<time>2025-02-15T08:07:22.000Z</time>
</trkpt>
<trkpt lat="45.8465410" lon="9.2319120">
	<ele>865.60</ele>
	<time>2025-02-15T08:07:23.000Z</time>
</trkpt>
<trkpt lat="45.8465510" lon="9.2319090">
	<ele>865.80</ele>
	<time>2025-02-15T08:07:24.000Z</time>
</trkpt>
<trkpt lat="45.8465540" lon="9.2319160">
	<ele>866.00</ele>
	<time>2025-02-15T08:07:25.000Z</time>
</trkpt>
<trkpt lat="45.8465590" lon="9.2319330">
	<ele>866.20</ele>
	<time>2025-02-15T08:07:26.000Z</time>
</trkpt>
<trkpt lat="45.8465650" lon="9.2319530">
	<ele>866.60</ele>
	<time>2025-02-15T08:07:27.000Z</time>
</trkpt>
<trkpt lat="45.8465740" lon="9.2319710">
	<ele>866.80</ele>
	<time>2025-02-15T08:07:28.000Z</time>
</trkpt>
<trkpt lat="45.8465740" lon="9.2319730">
	<ele>867.00</ele>
	<time>2025-02-15T08:07:29.000Z</time>
</trkpt>
<trkpt lat="45.8465790" lon="9.2319770">
	<ele>867.00</ele>
	<time>2025-02-15T08:07:30.000Z</time>
</trkpt>
<trkpt lat="45.8465720" lon="9.2319740">
	<ele>867.20</ele>
	<time>2025-02-15T08:07:31.000Z</time>
</trkpt>
<trkpt lat="45.8465710" lon="9.2319650">
	<ele>867.20</ele>
	<time>2025-02-15T08:07:32.000Z</time>
</trkpt>
<trkpt lat="45.8465740" lon="9.2319590">
	<ele>867.20</ele>
	<time>2025-02-15T08:07:33.000Z</time>
</trkpt>
<trkpt lat="45.8465800" lon="9.2319450">
	<ele>867.60</ele>
	<time>2025-02-15T08:07:34.000Z</time>
</trkpt>
<trkpt lat="45.8465820" lon="9.2319410">
	<ele>867.80</ele>
	<time>2025-02-15T08:07:35.000Z</time>
</trkpt>
<trkpt lat="45.8465850" lon="9.2319670">
	<ele>868.00</ele>
	<time>2025-02-15T08:07:36.000Z</time>
</trkpt>
<trkpt lat="45.8465870" lon="9.2319710">
	<ele>868.20</ele>
	<time>2025-02-15T08:07:37.000Z</time>
</trkpt>
<trkpt lat="45.8465890" lon="9.2319750">
	<ele>868.40</ele>
	<time>2025-02-15T08:07:38.000Z</time>
</trkpt>
<trkpt lat="45.8465910" lon="9.2319750">
	<ele>868.40</ele>
	<time>2025-02-15T08:07:39.000Z</time>
</trkpt>
<trkpt lat="45.8466110" lon="9.2319730">
	<ele>868.60</ele>
	<time>2025-02-15T08:07:40.000Z</time>
</trkpt>
<trkpt lat="45.8466250" lon="9.2319730">
	<ele>868.80</ele>
	<time>2025-02-15T08:07:41.000Z</time>
</trkpt>
<trkpt lat="45.8466200" lon="9.2319730">
	<ele>869.00</ele>
	<time>2025-02-15T08:07:42.000Z</time>
</trkpt>
<trkpt lat="45.8466180" lon="9.2319870">
	<ele>869.20</ele>
	<time>2025-02-15T08:07:43.000Z</time>
</trkpt>
<trkpt lat="45.8466210" lon="9.2320010">
	<ele>869.40</ele>
	<time>2025-02-15T08:07:44.000Z</time>
</trkpt>
<trkpt lat="45.8466230" lon="9.2320150">
	<ele>869.80</ele>
	<time>2025-02-15T08:07:45.000Z</time>
</trkpt>
<trkpt lat="45.8466260" lon="9.2320150">
	<ele>870.20</ele>
	<time>2025-02-15T08:07:46.000Z</time>
</trkpt>
<trkpt lat="45.8466240" lon="9.2320150">
	<ele>870.40</ele>
	<time>2025-02-15T08:07:47.000Z</time>
</trkpt>
<trkpt lat="45.8466240" lon="9.2320140">
	<ele>870.60</ele>
	<time>2025-02-15T08:07:48.000Z</time>
</trkpt>
<trkpt lat="45.8466280" lon="9.2320330">
	<ele>870.60</ele>
	<time>2025-02-15T08:07:49.000Z</time>
</trkpt>
<trkpt lat="45.8466340" lon="9.2320410">
	<ele>870.80</ele>
	<time>2025-02-15T08:07:50.000Z</time>
</trkpt>
<trkpt lat="45.8466340" lon="9.2320420">
	<ele>870.80</ele>
	<time>2025-02-15T08:07:51.000Z</time>
</trkpt>
<trkpt lat="45.8466340" lon="9.2320410">
	<ele>871.00</ele>
	<time>2025-02-15T08:07:52.000Z</time>
</trkpt>
<trkpt lat="45.8466310" lon="9.2320400">
	<ele>871.00</ele>
	<time>2025-02-15T08:07:53.000Z</time>
</trkpt>
<trkpt lat="45.8466240" lon="9.2320420">
	<ele>871.20</ele>
	<time>2025-02-15T08:07:54.000Z</time>
</trkpt>
<trkpt lat="45.8466230" lon="9.2320390">
	<ele>871.20</ele>
	<time>2025-02-15T08:07:55.000Z</time>
</trkpt>
<trkpt lat="45.8466180" lon="9.2320460">
	<ele>871.20</ele>
	<time>2025-02-15T08:07:56.000Z</time>
</trkpt>
<trkpt lat="45.8466160" lon="9.2320610">
	<ele>871.20</ele>
	<time>2025-02-15T08:07:57.000Z</time>
</trkpt>
<trkpt lat="45.8466180" lon="9.2320780">
	<ele>871.40</ele>
	<time>2025-02-15T08:07:58.000Z</time>
</trkpt>
<trkpt lat="45.8466180" lon="9.2320850">
	<ele>871.40</ele>
	<time>2025-02-15T08:07:59.000Z</time>
</trkpt>
<trkpt lat="45.8466230" lon="9.2321090">
	<ele>871.60</ele>
	<time>2025-02-15T08:08:00.000Z</time>
</trkpt>
<trkpt lat="45.8466250" lon="9.2321250">
	<ele>871.80</ele>
	<time>2025-02-15T08:08:01.000Z</time>
</trkpt>
<trkpt lat="45.8466290" lon="9.2321410">
	<ele>871.80</ele>
	<time>2025-02-15T08:08:02.000Z</time>
</trkpt>
<trkpt lat="45.8466360" lon="9.2321490">
	<ele>872.00</ele>
	<time>2025-02-15T08:08:03.000Z</time>
</trkpt>
<trkpt lat="45.8466450" lon="9.2321490">
	<ele>872.00</ele>
	<time>2025-02-15T08:08:04.000Z</time>
</trkpt>
<trkpt lat="45.8466530" lon="9.2321420">
	<ele>872.00</ele>
	<time>2025-02-15T08:08:05.000Z</time>
</trkpt>
<trkpt lat="45.8466600" lon="9.2321520">
	<ele>872.00</ele>
	<time>2025-02-15T08:08:06.000Z</time>
</trkpt>
<trkpt lat="45.8466630" lon="9.2321510">
	<ele>872.00</ele>
	<time>2025-02-15T08:08:07.000Z</time>
</trkpt>
<trkpt lat="45.8466660" lon="9.2321500">
	<ele>872.00</ele>
	<time>2025-02-15T08:08:08.000Z</time>
</trkpt>
<trkpt lat="45.8466660" lon="9.2321470">
	<ele>872.00</ele>
	<time>2025-02-15T08:08:09.000Z</time>
</trkpt>
<trkpt lat="45.8466600" lon="9.2321620">
	<ele>872.00</ele>
	<time>2025-02-15T08:08:10.000Z</time>
</trkpt>
<trkpt lat="45.8466600" lon="9.2321650">
	<ele>872.00</ele>
	<time>2025-02-15T08:08:11.000Z</time>
</trkpt>
<trkpt lat="45.8466610" lon="9.2321710">
	<ele>872.00</ele>
	<time>2025-02-15T08:08:12.000Z</time>
</trkpt>
<trkpt lat="45.8466610" lon="9.2321690">
	<ele>872.00</ele>
	<time>2025-02-15T08:08:13.000Z</time>
</trkpt>
<trkpt lat="45.8466620" lon="9.2321670">
	<ele>872.00</ele>
	<time>2025-02-15T08:08:14.000Z</time>
</trkpt>
<trkpt lat="45.8466620" lon="9.2321640">
	<ele>872.00</ele>
	<time>2025-02-15T08:08:15.000Z</time>
</trkpt>
<trkpt lat="45.8466650" lon="9.2321680">
	<ele>872.20</ele>
	<time>2025-02-15T08:08:16.000Z</time>
</trkpt>
<trkpt lat="45.8466610" lon="9.2321660">
	<ele>872.20</ele>
	<time>2025-02-15T08:08:17.000Z</time>
</trkpt>
<trkpt lat="45.8466570" lon="9.2321580">
	<ele>872.20</ele>
	<time>2025-02-15T08:08:18.000Z</time>
</trkpt>
<trkpt lat="45.8466570" lon="9.2321550">
	<ele>872.20</ele>
	<time>2025-02-15T08:08:19.000Z</time>
</trkpt>
<trkpt lat="45.8466630" lon="9.2321500">
	<ele>872.20</ele>
	<time>2025-02-15T08:08:20.000Z</time>
</trkpt>
<trkpt lat="45.8466710" lon="9.2321470">
	<ele>872.20</ele>
	<time>2025-02-15T08:08:21.000Z</time>
</trkpt>
<trkpt lat="45.8466770" lon="9.2321430">
	<ele>872.20</ele>
	<time>2025-02-15T08:08:22.000Z</time>
</trkpt>
<trkpt lat="45.8466840" lon="9.2321510">
	<ele>872.20</ele>
	<time>2025-02-15T08:08:23.000Z</time>
</trkpt>
<trkpt lat="45.8466890" lon="9.2321510">
	<ele>872.20</ele>
	<time>2025-02-15T08:08:24.000Z</time>
</trkpt>
<trkpt lat="45.8466950" lon="9.2321460">
	<ele>872.20</ele>
	<time>2025-02-15T08:08:25.000Z</time>
</trkpt>
<trkpt lat="45.8467030" lon="9.2321390">
	<ele>872.20</ele>
	<time>2025-02-15T08:08:26.000Z</time>
</trkpt>
<trkpt lat="45.8467080" lon="9.2321390">
	<ele>872.40</ele>
	<time>2025-02-15T08:08:27.000Z</time>
</trkpt>
<trkpt lat="45.8467120" lon="9.2321410">
	<ele>872.60</ele>
	<time>2025-02-15T08:08:28.000Z</time>
</trkpt>
<trkpt lat="45.8467150" lon="9.2321390">
	<ele>872.60</ele>
	<time>2025-02-15T08:08:29.000Z</time>
</trkpt>
<trkpt lat="45.8467180" lon="9.2321380">
	<ele>872.80</ele>
	<time>2025-02-15T08:08:30.000Z</time>
</trkpt>
<trkpt lat="45.8467250" lon="9.2321350">
	<ele>872.80</ele>
	<time>2025-02-15T08:08:31.000Z</time>
</trkpt>
<trkpt lat="45.8467290" lon="9.2321380">
	<ele>872.80</ele>
	<time>2025-02-15T08:08:32.000Z</time>
</trkpt>
<trkpt lat="45.8467330" lon="9.2321390">
	<ele>872.80</ele>
	<time>2025-02-15T08:08:33.000Z</time>
</trkpt>
<trkpt lat="45.8467360" lon="9.2321360">
	<ele>872.80</ele>
	<time>2025-02-15T08:08:34.000Z</time>
</trkpt>
<trkpt lat="45.8467400" lon="9.2321280">
	<ele>872.80</ele>
	<time>2025-02-15T08:08:35.000Z</time>
</trkpt>
<trkpt lat="45.8467440" lon="9.2321210">
	<ele>873.00</ele>
	<time>2025-02-15T08:08:36.000Z</time>
</trkpt>
<trkpt lat="45.8467460" lon="9.2321200">
	<ele>873.00</ele>
	<time>2025-02-15T08:08:37.000Z</time>
</trkpt>
<trkpt lat="45.8467480" lon="9.2321170">
	<ele>873.00</ele>
	<time>2025-02-15T08:08:38.000Z</time>
</trkpt>
<trkpt lat="45.8467490" lon="9.2321190">
	<ele>873.20</ele>
	<time>2025-02-15T08:08:39.000Z</time>
</trkpt>
<trkpt lat="45.8467520" lon="9.2321170">
	<ele>873.20</ele>
	<time>2025-02-15T08:08:40.000Z</time>
</trkpt>
<trkpt lat="45.8467590" lon="9.2321320">
	<ele>873.20</ele>
	<time>2025-02-15T08:08:41.000Z</time>
</trkpt>
<trkpt lat="45.8467630" lon="9.2321390">
	<ele>873.20</ele>
	<time>2025-02-15T08:08:42.000Z</time>
</trkpt>
<trkpt lat="45.8467650" lon="9.2321480">
	<ele>873.20</ele>
	<time>2025-02-15T08:08:43.000Z</time>
</trkpt>
<trkpt lat="45.8467730" lon="9.2321520">
	<ele>873.20</ele>
	<time>2025-02-15T08:08:44.000Z</time>
</trkpt>
<trkpt lat="45.8467820" lon="9.2321430">
	<ele>873.20</ele>
	<time>2025-02-15T08:08:45.000Z</time>
</trkpt>
<trkpt lat="45.8467940" lon="9.2321440">
	<ele>873.00</ele>
	<time>2025-02-15T08:08:46.000Z</time>
</trkpt>
<trkpt lat="45.8468060" lon="9.2321610">
	<ele>873.00</ele>
	<time>2025-02-15T08:08:47.000Z</time>
</trkpt>
<trkpt lat="45.8468200" lon="9.2321660">
	<ele>873.00</ele>
	<time>2025-02-15T08:08:48.000Z</time>
</trkpt>
<trkpt lat="45.8468320" lon="9.2321740">
	<ele>873.00</ele>
	<time>2025-02-15T08:08:49.000Z</time>
</trkpt>
<trkpt lat="45.8468430" lon="9.2321800">
	<ele>873.00</ele>
	<time>2025-02-15T08:08:50.000Z</time>
</trkpt>
<trkpt lat="45.8468530" lon="9.2321820">
	<ele>873.00</ele>
	<time>2025-02-15T08:08:51.000Z</time>
</trkpt>
<trkpt lat="45.8468630" lon="9.2321780">
	<ele>873.00</ele>
	<time>2025-02-15T08:08:52.000Z</time>
</trkpt>
<trkpt lat="45.8468730" lon="9.2321730">
	<ele>873.00</ele>
	<time>2025-02-15T08:08:53.000Z</time>
</trkpt>
<trkpt lat="45.8468880" lon="9.2321620">
	<ele>873.00</ele>
	<time>2025-02-15T08:08:54.000Z</time>
</trkpt>
<trkpt lat="45.8468990" lon="9.2321460">
	<ele>873.00</ele>
	<time>2025-02-15T08:08:55.000Z</time>
</trkpt>
<trkpt lat="45.8469070" lon="9.2321400">
	<ele>873.00</ele>
	<time>2025-02-15T08:08:56.000Z</time>
</trkpt>
<trkpt lat="45.8469130" lon="9.2321360">
	<ele>873.00</ele>
	<time>2025-02-15T08:08:57.000Z</time>
</trkpt>
<trkpt lat="45.8469170" lon="9.2321290">
	<ele>873.00</ele>
	<time>2025-02-15T08:08:58.000Z</time>
</trkpt>
<trkpt lat="45.8469280" lon="9.2321280">
	<ele>873.20</ele>
	<time>2025-02-15T08:08:59.000Z</time>
</trkpt>
<trkpt lat="45.8469340" lon="9.2321270">
	<ele>873.20</ele>
	<time>2025-02-15T08:09:00.000Z</time>
</trkpt>
<trkpt lat="45.8469380" lon="9.2321250">
	<ele>873.20</ele>
	<time>2025-02-15T08:09:01.000Z</time>
</trkpt>
<trkpt lat="45.8469380" lon="9.2321220">
	<ele>873.20</ele>
	<time>2025-02-15T08:09:02.000Z</time>
</trkpt>
<trkpt lat="45.8469370" lon="9.2321170">
	<ele>873.40</ele>
	<time>2025-02-15T08:09:03.000Z</time>
</trkpt>
<trkpt lat="45.8469420" lon="9.2321270">
	<ele>873.40</ele>
	<time>2025-02-15T08:09:04.000Z</time>
</trkpt>
<trkpt lat="45.8469470" lon="9.2321340">
	<ele>873.40</ele>
	<time>2025-02-15T08:09:05.000Z</time>
</trkpt>
<trkpt lat="45.8469500" lon="9.2321340">
	<ele>873.60</ele>
	<time>2025-02-15T08:09:06.000Z</time>
</trkpt>
<trkpt lat="45.8469540" lon="9.2321250">
	<ele>873.60</ele>
	<time>2025-02-15T08:09:07.000Z</time>
</trkpt>
<trkpt lat="45.8469560" lon="9.2321250">
	<ele>873.60</ele>
	<time>2025-02-15T08:09:08.000Z</time>
</trkpt>
<trkpt lat="45.8469560" lon="9.2321240">
	<ele>873.80</ele>
	<time>2025-02-15T08:09:09.000Z</time>
</trkpt>
<trkpt lat="45.8469590" lon="9.2321230">
	<ele>874.00</ele>
	<time>2025-02-15T08:09:10.000Z</time>
</trkpt>
<trkpt lat="45.8469610" lon="9.2321250">
	<ele>874.00</ele>
	<time>2025-02-15T08:09:11.000Z</time>
</trkpt>
<trkpt lat="45.8469690" lon="9.2321230">
	<ele>874.20</ele>
	<time>2025-02-15T08:09:12.000Z</time>
</trkpt>
<trkpt lat="45.8469710" lon="9.2321230">
	<ele>874.40</ele>
	<time>2025-02-15T08:09:13.000Z</time>
</trkpt>
<trkpt lat="45.8469710" lon="9.2321200">
	<ele>874.60</ele>
	<time>2025-02-15T08:09:14.000Z</time>
</trkpt>
<trkpt lat="45.8469700" lon="9.2321200">
	<ele>874.80</ele>
	<time>2025-02-15T08:09:15.000Z</time>
</trkpt>
<trkpt lat="45.8469700" lon="9.2321200">
	<ele>874.80</ele>
	<time>2025-02-15T08:09:16.000Z</time>
</trkpt>
<trkpt lat="45.8469700" lon="9.2321200">
	<ele>875.00</ele>
	<time>2025-02-15T08:09:17.000Z</time>
</trkpt>
<trkpt lat="45.8469700" lon="9.2321200">
	<ele>875.00</ele>
	<time>2025-02-15T08:09:18.000Z</time>
</trkpt>
<trkpt lat="45.8469700" lon="9.2321200">
	<ele>875.00</ele>
	<time>2025-02-15T08:09:19.000Z</time>
</trkpt>
<trkpt lat="45.8469700" lon="9.2321200">
	<ele>875.20</ele>
	<time>2025-02-15T08:09:20.000Z</time>
</trkpt>
<trkpt lat="45.8469700" lon="9.2321200">
	<ele>875.20</ele>
	<time>2025-02-15T08:09:21.000Z</time>
</trkpt>
<trkpt lat="45.8469700" lon="9.2321200">
	<ele>875.40</ele>
	<time>2025-02-15T08:09:22.000Z</time>
</trkpt>
<trkpt lat="45.8469700" lon="9.2321200">
	<ele>875.40</ele>
	<time>2025-02-15T08:09:23.000Z</time>
</trkpt>
<trkpt lat="45.8469700" lon="9.2321200">
	<ele>875.60</ele>
	<time>2025-02-15T08:09:24.000Z</time>
</trkpt>
<trkpt lat="45.8469700" lon="9.2321200">
	<ele>875.60</ele>
	<time>2025-02-15T08:09:25.000Z</time>
</trkpt>
<trkpt lat="45.8469700" lon="9.2321200">
	<ele>875.80</ele>
	<time>2025-02-15T08:09:26.000Z</time>
</trkpt>
<trkpt lat="45.8469700" lon="9.2321200">
	<ele>875.80</ele>
	<time>2025-02-15T08:09:27.000Z</time>
</trkpt>
<trkpt lat="45.8469700" lon="9.2321200">
	<ele>875.80</ele>
	<time>2025-02-15T08:09:28.000Z</time>
</trkpt>
<trkpt lat="45.8469700" lon="9.2321200">
	<ele>875.80</ele>
	<time>2025-02-15T08:09:29.000Z</time>
</trkpt>
<trkpt lat="45.8469710" lon="9.2321200">
	<ele>876.00</ele>
	<time>2025-02-15T08:09:30.000Z</time>
</trkpt>
<trkpt lat="45.8469710" lon="9.2321180">
	<ele>876.20</ele>
	<time>2025-02-15T08:09:31.000Z</time>
</trkpt>
<trkpt lat="45.8469780" lon="9.2321070">
	<ele>876.40</ele>
	<time>2025-02-15T08:09:32.000Z</time>
</trkpt>
<trkpt lat="45.8469830" lon="9.2320950">
	<ele>876.60</ele>
	<time>2025-02-15T08:09:33.000Z</time>
</trkpt>
<trkpt lat="45.8469840" lon="9.2320900">
	<ele>876.60</ele>
	<time>2025-02-15T08:09:34.000Z</time>
</trkpt>
<trkpt lat="45.8469870" lon="9.2320890">
	<ele>876.80</ele>
	<time>2025-02-15T08:09:35.000Z</time>
</trkpt>
<trkpt lat="45.8469870" lon="9.2320870">
	<ele>876.60</ele>
	<time>2025-02-15T08:09:36.000Z</time>
</trkpt>
<trkpt lat="45.8469890" lon="9.2320870">
	<ele>876.60</ele>
	<time>2025-02-15T08:09:37.000Z</time>
</trkpt>
<trkpt lat="45.8469910" lon="9.2320870">
	<ele>876.60</ele>
	<time>2025-02-15T08:09:38.000Z</time>
</trkpt>
<trkpt lat="45.8469910" lon="9.2320870">
	<ele>876.60</ele>
	<time>2025-02-15T08:09:39.000Z</time>
</trkpt>
<trkpt lat="45.8469980" lon="9.2320870">
	<ele>876.60</ele>
	<time>2025-02-15T08:09:40.000Z</time>
</trkpt>
<trkpt lat="45.8470050" lon="9.2320870">
	<ele>876.60</ele>
	<time>2025-02-15T08:09:41.000Z</time>
</trkpt>
<trkpt lat="45.8470090" lon="9.2320940">
	<ele>876.60</ele>
	<time>2025-02-15T08:09:42.000Z</time>
</trkpt>
<trkpt lat="45.8470220" lon="9.2321080">
	<ele>876.80</ele>
	<time>2025-02-15T08:09:43.000Z</time>
</trkpt>
<trkpt lat="45.8470350" lon="9.2321070">
	<ele>877.00</ele>
	<time>2025-02-15T08:09:44.000Z</time>
</trkpt>
<trkpt lat="45.8470410" lon="9.2321110">
	<ele>877.20</ele>
	<time>2025-02-15T08:09:45.000Z</time>
</trkpt>
<trkpt lat="45.8470490" lon="9.2321170">
	<ele>877.40</ele>
	<time>2025-02-15T08:09:46.000Z</time>
</trkpt>
<trkpt lat="45.8470540" lon="9.2321250">
	<ele>877.60</ele>
	<time>2025-02-15T08:09:47.000Z</time>
</trkpt>
<trkpt lat="45.8470640" lon="9.2321250">
	<ele>877.60</ele>
	<time>2025-02-15T08:09:48.000Z</time>
</trkpt>
<trkpt lat="45.8470740" lon="9.2321200">
	<ele>877.80</ele>
	<time>2025-02-15T08:09:49.000Z</time>
</trkpt>
<trkpt lat="45.8470820" lon="9.2321160">
	<ele>877.80</ele>
	<time>2025-02-15T08:09:50.000Z</time>
</trkpt>
<trkpt lat="45.8470920" lon="9.2321220">
	<ele>878.00</ele>
	<time>2025-02-15T08:09:51.000Z</time>
</trkpt>
<trkpt lat="45.8470960" lon="9.2321190">
	<ele>878.00</ele>
	<time>2025-02-15T08:09:52.000Z</time>
</trkpt>
<trkpt lat="45.8471020" lon="9.2321060">
	<ele>878.00</ele>
	<time>2025-02-15T08:09:53.000Z</time>
</trkpt>
<trkpt lat="45.8471040" lon="9.2321000">
	<ele>878.00</ele>
	<time>2025-02-15T08:09:54.000Z</time>
</trkpt>
<trkpt lat="45.8471150" lon="9.2320970">
	<ele>878.20</ele>
	<time>2025-02-15T08:09:55.000Z</time>
</trkpt>
<trkpt lat="45.8471270" lon="9.2321020">
	<ele>878.40</ele>
	<time>2025-02-15T08:09:56.000Z</time>
</trkpt>
<trkpt lat="45.8471320" lon="9.2321000">
	<ele>878.40</ele>
	<time>2025-02-15T08:09:57.000Z</time>
</trkpt>
<trkpt lat="45.8471340" lon="9.2321010">
	<ele>878.60</ele>
	<time>2025-02-15T08:09:58.000Z</time>
</trkpt>
<trkpt lat="45.8471360" lon="9.2321000">
	<ele>878.60</ele>
	<time>2025-02-15T08:09:59.000Z</time>
</trkpt>
<trkpt lat="45.8471450" lon="9.2320960">
	<ele>878.80</ele>
	<time>2025-02-15T08:10:00.000Z</time>
</trkpt>
<trkpt lat="45.8471500" lon="9.2320930">
	<ele>879.00</ele>
	<time>2025-02-15T08:10:01.000Z</time>
</trkpt>
<trkpt lat="45.8471510" lon="9.2320940">
	<ele>879.60</ele>
	<time>2025-02-15T08:10:02.000Z</time>
</trkpt>
<trkpt lat="45.8471550" lon="9.2320870">
	<ele>879.80</ele>
	<time>2025-02-15T08:10:03.000Z</time>
</trkpt>
<trkpt lat="45.8471630" lon="9.2320830">
	<ele>880.00</ele>
	<time>2025-02-15T08:10:04.000Z</time>
</trkpt>
<trkpt lat="45.8471700" lon="9.2320870">
	<ele>880.20</ele>
	<time>2025-02-15T08:10:05.000Z</time>
</trkpt>
<trkpt lat="45.8471750" lon="9.2320870">
	<ele>880.20</ele>
	<time>2025-02-15T08:10:06.000Z</time>
</trkpt>
<trkpt lat="45.8471800" lon="9.2320890">
	<ele>880.20</ele>
	<time>2025-02-15T08:10:07.000Z</time>
</trkpt>
<trkpt lat="45.8471840" lon="9.2320880">
	<ele>880.20</ele>
	<time>2025-02-15T08:10:08.000Z</time>
</trkpt>
<trkpt lat="45.8471930" lon="9.2321060">
	<ele>880.20</ele>
	<time>2025-02-15T08:10:09.000Z</time>
</trkpt>
<trkpt lat="45.8472050" lon="9.2321120">
	<ele>880.40</ele>
	<time>2025-02-15T08:10:10.000Z</time>
</trkpt>
<trkpt lat="45.8472090" lon="9.2321120">
	<ele>880.40</ele>
	<time>2025-02-15T08:10:11.000Z</time>
</trkpt>
<trkpt lat="45.8472160" lon="9.2321060">
	<ele>880.40</ele>
	<time>2025-02-15T08:10:12.000Z</time>
</trkpt>
<trkpt lat="45.8472260" lon="9.2321050">
	<ele>880.40</ele>
	<time>2025-02-15T08:10:13.000Z</time>
</trkpt>
<trkpt lat="45.8472460" lon="9.2320840">
	<ele>880.60</ele>
	<time>2025-02-15T08:10:14.000Z</time>
</trkpt>
<trkpt lat="45.8472610" lon="9.2320570">
	<ele>880.60</ele>
	<time>2025-02-15T08:10:15.000Z</time>
</trkpt>
<trkpt lat="45.8472780" lon="9.2320500">
	<ele>880.60</ele>
	<time>2025-02-15T08:10:16.000Z</time>
</trkpt>
<trkpt lat="45.8472930" lon="9.2320490">
	<ele>880.60</ele>
	<time>2025-02-15T08:10:17.000Z</time>
</trkpt>
<trkpt lat="45.8473050" lon="9.2320440">
	<ele>880.60</ele>
	<time>2025-02-15T08:10:18.000Z</time>
</trkpt>
<trkpt lat="45.8473180" lon="9.2320340">
	<ele>880.80</ele>
	<time>2025-02-15T08:10:19.000Z</time>
</trkpt>
<trkpt lat="45.8473240" lon="9.2320400">
	<ele>880.80</ele>
	<time>2025-02-15T08:10:20.000Z</time>
</trkpt>
<trkpt lat="45.8473250" lon="9.2320450">
	<ele>880.80</ele>
	<time>2025-02-15T08:10:21.000Z</time>
</trkpt>
<trkpt lat="45.8473280" lon="9.2320460">
	<ele>880.80</ele>
	<time>2025-02-15T08:10:22.000Z</time>
</trkpt>
<trkpt lat="45.8473300" lon="9.2320310">
	<ele>880.80</ele>
	<time>2025-02-15T08:10:23.000Z</time>
</trkpt>
<trkpt lat="45.8473290" lon="9.2320270">
	<ele>880.80</ele>
	<time>2025-02-15T08:10:24.000Z</time>
</trkpt>
<trkpt lat="45.8473300" lon="9.2320120">
	<ele>881.00</ele>
	<time>2025-02-15T08:10:25.000Z</time>
</trkpt>
<trkpt lat="45.8473320" lon="9.2320100">
	<ele>881.20</ele>
	<time>2025-02-15T08:10:26.000Z</time>
</trkpt>
<trkpt lat="45.8473370" lon="9.2320030">
	<ele>881.40</ele>
	<time>2025-02-15T08:10:27.000Z</time>
</trkpt>
<trkpt lat="45.8473450" lon="9.2320010">
	<ele>881.40</ele>
	<time>2025-02-15T08:10:28.000Z</time>
</trkpt>
<trkpt lat="45.8473480" lon="9.2319970">
	<ele>881.40</ele>
	<time>2025-02-15T08:10:29.000Z</time>
</trkpt>
<trkpt lat="45.8473510" lon="9.2319940">
	<ele>881.40</ele>
	<time>2025-02-15T08:10:30.000Z</time>
</trkpt>
<trkpt lat="45.8473590" lon="9.2319850">
	<ele>881.40</ele>
	<time>2025-02-15T08:10:31.000Z</time>
</trkpt>
<trkpt lat="45.8473620" lon="9.2319820">
	<ele>881.40</ele>
	<time>2025-02-15T08:10:32.000Z</time>
</trkpt>
<trkpt lat="45.8473640" lon="9.2319720">
	<ele>881.40</ele>
	<time>2025-02-15T08:10:33.000Z</time>
</trkpt>
<trkpt lat="45.8473630" lon="9.2319650">
	<ele>881.40</ele>
	<time>2025-02-15T08:10:34.000Z</time>
</trkpt>
<trkpt lat="45.8473650" lon="9.2319580">
	<ele>881.20</ele>
	<time>2025-02-15T08:10:35.000Z</time>
</trkpt>
<trkpt lat="45.8473680" lon="9.2319530">
	<ele>881.40</ele>
	<time>2025-02-15T08:10:36.000Z</time>
</trkpt>
<trkpt lat="45.8473700" lon="9.2319340">
	<ele>881.40</ele>
	<time>2025-02-15T08:10:37.000Z</time>
</trkpt>
<trkpt lat="45.8473750" lon="9.2319230">
	<ele>881.40</ele>
	<time>2025-02-15T08:10:38.000Z</time>
</trkpt>
<trkpt lat="45.8473760" lon="9.2319180">
	<ele>881.20</ele>
	<time>2025-02-15T08:10:39.000Z</time>
</trkpt>
<trkpt lat="45.8473790" lon="9.2319110">
	<ele>881.20</ele>
	<time>2025-02-15T08:10:40.000Z</time>
</trkpt>
<trkpt lat="45.8473900" lon="9.2319110">
	<ele>881.20</ele>
	<time>2025-02-15T08:10:41.000Z</time>
</trkpt>
<trkpt lat="45.8473960" lon="9.2319030">
	<ele>881.20</ele>
	<time>2025-02-15T08:10:42.000Z</time>
</trkpt>
<trkpt lat="45.8473990" lon="9.2318870">
	<ele>881.20</ele>
	<time>2025-02-15T08:10:43.000Z</time>
</trkpt>
<trkpt lat="45.8474030" lon="9.2318680">
	<ele>881.20</ele>
	<time>2025-02-15T08:10:44.000Z</time>
</trkpt>
<trkpt lat="45.8474120" lon="9.2318640">
	<ele>881.40</ele>
	<time>2025-02-15T08:10:45.000Z</time>
</trkpt>
<trkpt lat="45.8474200" lon="9.2318620">
	<ele>881.40</ele>
	<time>2025-02-15T08:10:46.000Z</time>
</trkpt>
<trkpt lat="45.8474230" lon="9.2318610">
	<ele>881.40</ele>
	<time>2025-02-15T08:10:47.000Z</time>
</trkpt>
<trkpt lat="45.8474280" lon="9.2318540">
	<ele>881.60</ele>
	<time>2025-02-15T08:10:48.000Z</time>
</trkpt>
<trkpt lat="45.8474300" lon="9.2318580">
	<ele>881.60</ele>
	<time>2025-02-15T08:10:49.000Z</time>
</trkpt>
<trkpt lat="45.8474420" lon="9.2318650">
	<ele>881.60</ele>
	<time>2025-02-15T08:10:50.000Z</time>
</trkpt>
<trkpt lat="45.8474420" lon="9.2318640">
	<ele>881.60</ele>
	<time>2025-02-15T08:10:51.000Z</time>
</trkpt>
<trkpt lat="45.8474440" lon="9.2318610">
	<ele>881.80</ele>
	<time>2025-02-15T08:10:52.000Z</time>
</trkpt>
<trkpt lat="45.8474560" lon="9.2318700">
	<ele>882.00</ele>
	<time>2025-02-15T08:10:53.000Z</time>
</trkpt>
<trkpt lat="45.8474650" lon="9.2318770">
	<ele>882.00</ele>
	<time>2025-02-15T08:10:54.000Z</time>
</trkpt>
<trkpt lat="45.8474680" lon="9.2318720">
	<ele>882.20</ele>
	<time>2025-02-15T08:10:55.000Z</time>
</trkpt>
<trkpt lat="45.8474730" lon="9.2318660">
	<ele>882.40</ele>
	<time>2025-02-15T08:10:56.000Z</time>
</trkpt>
<trkpt lat="45.8474740" lon="9.2318640">
	<ele>882.60</ele>
	<time>2025-02-15T08:10:57.000Z</time>
</trkpt>
<trkpt lat="45.8474750" lon="9.2318630">
	<ele>882.60</ele>
	<time>2025-02-15T08:10:58.000Z</time>
</trkpt>
<trkpt lat="45.8474770" lon="9.2318630">
	<ele>882.80</ele>
	<time>2025-02-15T08:10:59.000Z</time>
</trkpt>
<trkpt lat="45.8474860" lon="9.2318540">
	<ele>882.80</ele>
	<time>2025-02-15T08:11:00.000Z</time>
</trkpt>
<trkpt lat="45.8474880" lon="9.2318550">
	<ele>883.00</ele>
	<time>2025-02-15T08:11:01.000Z</time>
</trkpt>
<trkpt lat="45.8474870" lon="9.2318570">
	<ele>883.20</ele>
	<time>2025-02-15T08:11:02.000Z</time>
</trkpt>
<trkpt lat="45.8474870" lon="9.2318570">
	<ele>883.20</ele>
	<time>2025-02-15T08:11:03.000Z</time>
</trkpt>
<trkpt lat="45.8474890" lon="9.2318540">
	<ele>883.20</ele>
	<time>2025-02-15T08:11:04.000Z</time>
</trkpt>
<trkpt lat="45.8474900" lon="9.2318540">
	<ele>883.40</ele>
	<time>2025-02-15T08:11:05.000Z</time>
</trkpt>
<trkpt lat="45.8474940" lon="9.2318550">
	<ele>883.40</ele>
	<time>2025-02-15T08:11:06.000Z</time>
</trkpt>
<trkpt lat="45.8474960" lon="9.2318740">
	<ele>883.40</ele>
	<time>2025-02-15T08:11:07.000Z</time>
</trkpt>
<trkpt lat="45.8474970" lon="9.2318900">
	<ele>883.40</ele>
	<time>2025-02-15T08:11:08.000Z</time>
</trkpt>
<trkpt lat="45.8474960" lon="9.2318960">
	<ele>883.40</ele>
	<time>2025-02-15T08:11:09.000Z</time>
</trkpt>
<trkpt lat="45.8474960" lon="9.2318930">
	<ele>883.40</ele>
	<time>2025-02-15T08:11:10.000Z</time>
</trkpt>
<trkpt lat="45.8474950" lon="9.2318920">
	<ele>883.40</ele>
	<time>2025-02-15T08:11:11.000Z</time>
</trkpt>
<trkpt lat="45.8474950" lon="9.2318870">
	<ele>883.40</ele>
	<time>2025-02-15T08:11:12.000Z</time>
</trkpt>
<trkpt lat="45.8474970" lon="9.2318830">
	<ele>883.40</ele>
	<time>2025-02-15T08:11:13.000Z</time>
</trkpt>
<trkpt lat="45.8474950" lon="9.2318820">
	<ele>883.40</ele>
	<time>2025-02-15T08:11:14.000Z</time>
</trkpt>
<trkpt lat="45.8474920" lon="9.2318830">
	<ele>883.40</ele>
	<time>2025-02-15T08:11:15.000Z</time>
</trkpt>
<trkpt lat="45.8474870" lon="9.2318860">
	<ele>883.40</ele>
	<time>2025-02-15T08:11:16.000Z</time>
</trkpt>
<trkpt lat="45.8474820" lon="9.2318840">
	<ele>883.40</ele>
	<time>2025-02-15T08:11:17.000Z</time>
</trkpt>
<trkpt lat="45.8474790" lon="9.2318830">
	<ele>883.20</ele>
	<time>2025-02-15T08:11:18.000Z</time>
</trkpt>
<trkpt lat="45.8474890" lon="9.2318750">
	<ele>883.20</ele>
	<time>2025-02-15T08:11:19.000Z</time>
</trkpt>
<trkpt lat="45.8474900" lon="9.2318730">
	<ele>883.20</ele>
	<time>2025-02-15T08:11:20.000Z</time>
</trkpt>
<trkpt lat="45.8474910" lon="9.2318640">
	<ele>883.20</ele>
	<time>2025-02-15T08:11:21.000Z</time>
</trkpt>
<trkpt lat="45.8474960" lon="9.2318570">
	<ele>883.20</ele>
	<time>2025-02-15T08:11:22.000Z</time>
</trkpt>
<trkpt lat="45.8474970" lon="9.2318460">
	<ele>883.20</ele>
	<time>2025-02-15T08:11:23.000Z</time>
</trkpt>
<trkpt lat="45.8474980" lon="9.2318460">
	<ele>883.20</ele>
	<time>2025-02-15T08:11:24.000Z</time>
</trkpt>
<trkpt lat="45.8475010" lon="9.2318370">
	<ele>883.20</ele>
	<time>2025-02-15T08:11:25.000Z</time>
</trkpt>
<trkpt lat="45.8475040" lon="9.2318350">
	<ele>883.20</ele>
	<time>2025-02-15T08:11:26.000Z</time>
</trkpt>
<trkpt lat="45.8475120" lon="9.2318390">
	<ele>883.20</ele>
	<time>2025-02-15T08:11:27.000Z</time>
</trkpt>
<trkpt lat="45.8475250" lon="9.2318430">
	<ele>883.20</ele>
	<time>2025-02-15T08:11:28.000Z</time>
</trkpt>
<trkpt lat="45.8475330" lon="9.2318420">
	<ele>883.20</ele>
	<time>2025-02-15T08:11:29.000Z</time>
</trkpt>
<trkpt lat="45.8475420" lon="9.2318370">
	<ele>883.20</ele>
	<time>2025-02-15T08:11:30.000Z</time>
</trkpt>
<trkpt lat="45.8475460" lon="9.2318360">
	<ele>883.20</ele>
	<time>2025-02-15T08:11:31.000Z</time>
</trkpt>
<trkpt lat="45.8475530" lon="9.2318330">
	<ele>883.20</ele>
	<time>2025-02-15T08:11:32.000Z</time>
</trkpt>
<trkpt lat="45.8475560" lon="9.2318340">
	<ele>883.40</ele>
	<time>2025-02-15T08:11:33.000Z</time>
</trkpt>
<trkpt lat="45.8475600" lon="9.2318340">
	<ele>883.60</ele>
	<time>2025-02-15T08:11:34.000Z</time>
</trkpt>
<trkpt lat="45.8475610" lon="9.2318320">
	<ele>883.60</ele>
	<time>2025-02-15T08:11:35.000Z</time>
</trkpt>
<trkpt lat="45.8475690" lon="9.2318320">
	<ele>883.80</ele>
	<time>2025-02-15T08:11:36.000Z</time>
</trkpt>
<trkpt lat="45.8475700" lon="9.2318310">
	<ele>883.80</ele>
	<time>2025-02-15T08:11:37.000Z</time>
</trkpt>
<trkpt lat="45.8475730" lon="9.2318280">
	<ele>883.80</ele>
	<time>2025-02-15T08:11:38.000Z</time>
</trkpt>
<trkpt lat="45.8475780" lon="9.2318290">
	<ele>884.00</ele>
	<time>2025-02-15T08:11:39.000Z</time>
</trkpt>
<trkpt lat="45.8475850" lon="9.2318220">
	<ele>884.00</ele>
	<time>2025-02-15T08:11:40.000Z</time>
</trkpt>
<trkpt lat="45.8475890" lon="9.2318210">
	<ele>884.00</ele>
	<time>2025-02-15T08:11:41.000Z</time>
</trkpt>
<trkpt lat="45.8475930" lon="9.2318210">
	<ele>884.00</ele>
	<time>2025-02-15T08:11:42.000Z</time>
</trkpt>
<trkpt lat="45.8476010" lon="9.2318250">
	<ele>884.20</ele>
	<time>2025-02-15T08:11:43.000Z</time>
</trkpt>
<trkpt lat="45.8476110" lon="9.2318380">
	<ele>884.20</ele>
	<time>2025-02-15T08:11:44.000Z</time>
</trkpt>
<trkpt lat="45.8476190" lon="9.2318420">
	<ele>884.20</ele>
	<time>2025-02-15T08:11:45.000Z</time>
</trkpt>
<trkpt lat="45.8476250" lon="9.2318430">
	<ele>884.20</ele>
	<time>2025-02-15T08:11:46.000Z</time>
</trkpt>
<trkpt lat="45.8476250" lon="9.2318260">
	<ele>884.20</ele>
	<time>2025-02-15T08:11:47.000Z</time>
</trkpt>
<trkpt lat="45.8476280" lon="9.2318120">
	<ele>884.20</ele>
	<time>2025-02-15T08:11:48.000Z</time>
</trkpt>
<trkpt lat="45.8476260" lon="9.2318000">
	<ele>884.20</ele>
	<time>2025-02-15T08:11:49.000Z</time>
</trkpt>
<trkpt lat="45.8476310" lon="9.2317870">
	<ele>884.00</ele>
	<time>2025-02-15T08:11:50.000Z</time>
</trkpt>
<trkpt lat="45.8476330" lon="9.2317860">
	<ele>884.00</ele>
	<time>2025-02-15T08:11:51.000Z</time>
</trkpt>
<trkpt lat="45.8476340" lon="9.2317770">
	<ele>884.00</ele>
	<time>2025-02-15T08:11:52.000Z</time>
</trkpt>
<trkpt lat="45.8476370" lon="9.2317750">
	<ele>884.00</ele>
	<time>2025-02-15T08:11:53.000Z</time>
</trkpt>
<trkpt lat="45.8476380" lon="9.2317720">
	<ele>884.00</ele>
	<time>2025-02-15T08:11:54.000Z</time>
</trkpt>
<trkpt lat="45.8476390" lon="9.2317680">
	<ele>884.00</ele>
	<time>2025-02-15T08:11:55.000Z</time>
</trkpt>
<trkpt lat="45.8476410" lon="9.2317660">
	<ele>884.00</ele>
	<time>2025-02-15T08:11:56.000Z</time>
</trkpt>
<trkpt lat="45.8476420" lon="9.2317630">
	<ele>884.00</ele>
	<time>2025-02-15T08:11:57.000Z</time>
</trkpt>
<trkpt lat="45.8476440" lon="9.2317630">
	<ele>884.00</ele>
	<time>2025-02-15T08:11:58.000Z</time>
</trkpt>
<trkpt lat="45.8476460" lon="9.2317600">
	<ele>884.00</ele>
	<time>2025-02-15T08:11:59.000Z</time>
</trkpt>
<trkpt lat="45.8476490" lon="9.2317600">
	<ele>884.00</ele>
	<time>2025-02-15T08:12:00.000Z</time>
</trkpt>
<trkpt lat="45.8476510" lon="9.2317590">
	<ele>884.00</ele>
	<time>2025-02-15T08:12:01.000Z</time>
</trkpt>
<trkpt lat="45.8476610" lon="9.2317530">
	<ele>884.00</ele>
	<time>2025-02-15T08:12:02.000Z</time>
</trkpt>
<trkpt lat="45.8476690" lon="9.2317460">
	<ele>884.00</ele>
	<time>2025-02-15T08:12:03.000Z</time>
</trkpt>
<trkpt lat="45.8476750" lon="9.2317390">
	<ele>884.00</ele>
	<time>2025-02-15T08:12:04.000Z</time>
</trkpt>
<trkpt lat="45.8476850" lon="9.2317310">
	<ele>884.00</ele>
	<time>2025-02-15T08:12:05.000Z</time>
</trkpt>
<trkpt lat="45.8476890" lon="9.2317280">
	<ele>884.00</ele>
	<time>2025-02-15T08:12:06.000Z</time>
</trkpt>
<trkpt lat="45.8477030" lon="9.2317280">
	<ele>883.80</ele>
	<time>2025-02-15T08:12:07.000Z</time>
</trkpt>
<trkpt lat="45.8477140" lon="9.2317270">
	<ele>883.60</ele>
	<time>2025-02-15T08:12:08.000Z</time>
</trkpt>
<trkpt lat="45.8477170" lon="9.2317270">
	<ele>883.60</ele>
	<time>2025-02-15T08:12:09.000Z</time>
</trkpt>
<trkpt lat="45.8477190" lon="9.2317240">
	<ele>883.40</ele>
	<time>2025-02-15T08:12:10.000Z</time>
</trkpt>
<trkpt lat="45.8477200" lon="9.2317080">
	<ele>883.40</ele>
	<time>2025-02-15T08:12:11.000Z</time>
</trkpt>
<trkpt lat="45.8477210" lon="9.2317070">
	<ele>883.40</ele>
	<time>2025-02-15T08:12:12.000Z</time>
</trkpt>
<trkpt lat="45.8477240" lon="9.2317030">
	<ele>883.20</ele>
	<time>2025-02-15T08:12:13.000Z</time>
</trkpt>
<trkpt lat="45.8477250" lon="9.2317030">
	<ele>883.20</ele>
	<time>2025-02-15T08:12:14.000Z</time>
</trkpt>
<trkpt lat="45.8477290" lon="9.2317010">
	<ele>883.20</ele>
	<time>2025-02-15T08:12:15.000Z</time>
</trkpt>
<trkpt lat="45.8477340" lon="9.2316890">
	<ele>883.20</ele>
	<time>2025-02-15T08:12:16.000Z</time>
</trkpt>
<trkpt lat="45.8477420" lon="9.2316800">
	<ele>883.00</ele>
	<time>2025-02-15T08:12:17.000Z</time>
</trkpt>
<trkpt lat="45.8477450" lon="9.2316780">
	<ele>883.00</ele>
	<time>2025-02-15T08:12:18.000Z</time>
</trkpt>
<trkpt lat="45.8477490" lon="9.2316750">
	<ele>883.00</ele>
	<time>2025-02-15T08:12:19.000Z</time>
</trkpt>
<trkpt lat="45.8477520" lon="9.2316670">
	<ele>883.00</ele>
	<time>2025-02-15T08:12:20.000Z</time>
</trkpt>
<trkpt lat="45.8477530" lon="9.2316650">
	<ele>883.00</ele>
	<time>2025-02-15T08:12:21.000Z</time>
</trkpt>
<trkpt lat="45.8477560" lon="9.2316650">
	<ele>882.80</ele>
	<time>2025-02-15T08:12:22.000Z</time>
</trkpt>
<trkpt lat="45.8477590" lon="9.2316540">
	<ele>882.80</ele>
	<time>2025-02-15T08:12:23.000Z</time>
</trkpt>
<trkpt lat="45.8477660" lon="9.2316510">
	<ele>882.60</ele>
	<time>2025-02-15T08:12:24.000Z</time>
</trkpt>
<trkpt lat="45.8477700" lon="9.2316410">
	<ele>882.60</ele>
	<time>2025-02-15T08:12:25.000Z</time>
</trkpt>
<trkpt lat="45.8477740" lon="9.2316310">
	<ele>882.60</ele>
	<time>2025-02-15T08:12:26.000Z</time>
</trkpt>
<trkpt lat="45.8477800" lon="9.2316280">
	<ele>882.40</ele>
	<time>2025-02-15T08:12:27.000Z</time>
</trkpt>
<trkpt lat="45.8477890" lon="9.2316250">
	<ele>882.40</ele>
	<time>2025-02-15T08:12:28.000Z</time>
</trkpt>
<trkpt lat="45.8477970" lon="9.2316300">
	<ele>882.20</ele>
	<time>2025-02-15T08:12:29.000Z</time>
</trkpt>
<trkpt lat="45.8478010" lon="9.2316290">
	<ele>882.20</ele>
	<time>2025-02-15T08:12:30.000Z</time>
</trkpt>
<trkpt lat="45.8478030" lon="9.2316210">
	<ele>882.20</ele>
	<time>2025-02-15T08:12:31.000Z</time>
</trkpt>
<trkpt lat="45.8478050" lon="9.2316160">
	<ele>882.00</ele>
	<time>2025-02-15T08:12:32.000Z</time>
</trkpt>
<trkpt lat="45.8478090" lon="9.2316100">
	<ele>882.00</ele>
	<time>2025-02-15T08:12:33.000Z</time>
</trkpt>
<trkpt lat="45.8478100" lon="9.2315980">
	<ele>882.00</ele>
	<time>2025-02-15T08:12:34.000Z</time>
</trkpt>
<trkpt lat="45.8478130" lon="9.2315820">
	<ele>882.00</ele>
	<time>2025-02-15T08:12:35.000Z</time>
</trkpt>
<trkpt lat="45.8478190" lon="9.2315710">
	<ele>882.00</ele>
	<time>2025-02-15T08:12:36.000Z</time>
</trkpt>
<trkpt lat="45.8478240" lon="9.2315510">
	<ele>881.80</ele>
	<time>2025-02-15T08:12:37.000Z</time>
</trkpt>
<trkpt lat="45.8478330" lon="9.2315430">
	<ele>881.80</ele>
	<time>2025-02-15T08:12:38.000Z</time>
</trkpt>
<trkpt lat="45.8478390" lon="9.2315340">
	<ele>881.80</ele>
	<time>2025-02-15T08:12:39.000Z</time>
</trkpt>
<trkpt lat="45.8478430" lon="9.2315250">
	<ele>881.60</ele>
	<time>2025-02-15T08:12:40.000Z</time>
</trkpt>
<trkpt lat="45.8478460" lon="9.2315250">
	<ele>881.60</ele>
	<time>2025-02-15T08:12:41.000Z</time>
</trkpt>
<trkpt lat="45.8478530" lon="9.2315200">
	<ele>881.80</ele>
	<time>2025-02-15T08:12:42.000Z</time>
</trkpt>
<trkpt lat="45.8478630" lon="9.2315160">
	<ele>881.80</ele>
	<time>2025-02-15T08:12:43.000Z</time>
</trkpt>
<trkpt lat="45.8478700" lon="9.2315100">
	<ele>881.80</ele>
	<time>2025-02-15T08:12:44.000Z</time>
</trkpt>
<trkpt lat="45.8478730" lon="9.2315030">
	<ele>882.00</ele>
	<time>2025-02-15T08:12:45.000Z</time>
</trkpt>
<trkpt lat="45.8478770" lon="9.2314910">
	<ele>882.00</ele>
	<time>2025-02-15T08:12:46.000Z</time>
</trkpt>
<trkpt lat="45.8478840" lon="9.2314840">
	<ele>882.00</ele>
	<time>2025-02-15T08:12:47.000Z</time>
</trkpt>
<trkpt lat="45.8478880" lon="9.2314830">
	<ele>882.00</ele>
	<time>2025-02-15T08:12:48.000Z</time>
</trkpt>
<trkpt lat="45.8478960" lon="9.2314690">
	<ele>882.00</ele>
	<time>2025-02-15T08:12:49.000Z</time>
</trkpt>
<trkpt lat="45.8478960" lon="9.2314650">
	<ele>882.00</ele>
	<time>2025-02-15T08:12:50.000Z</time>
</trkpt>
<trkpt lat="45.8478970" lon="9.2314620">
	<ele>882.00</ele>
	<time>2025-02-15T08:12:51.000Z</time>
</trkpt>
<trkpt lat="45.8478990" lon="9.2314600">
	<ele>882.00</ele>
	<time>2025-02-15T08:12:52.000Z</time>
</trkpt>
<trkpt lat="45.8479020" lon="9.2314620">
	<ele>882.00</ele>
	<time>2025-02-15T08:12:53.000Z</time>
</trkpt>
<trkpt lat="45.8479020" lon="9.2314580">
	<ele>882.00</ele>
	<time>2025-02-15T08:12:54.000Z</time>
</trkpt>
<trkpt lat="45.8479080" lon="9.2314570">
	<ele>882.00</ele>
	<time>2025-02-15T08:12:55.000Z</time>
</trkpt>
<trkpt lat="45.8479120" lon="9.2314600">
	<ele>882.00</ele>
	<time>2025-02-15T08:12:56.000Z</time>
</trkpt>
<trkpt lat="45.8479140" lon="9.2314600">
	<ele>882.00</ele>
	<time>2025-02-15T08:12:57.000Z</time>
</trkpt>
<trkpt lat="45.8479130" lon="9.2314600">
	<ele>882.20</ele>
	<time>2025-02-15T08:12:58.000Z</time>
</trkpt>
<trkpt lat="45.8479120" lon="9.2314590">
	<ele>882.20</ele>
	<time>2025-02-15T08:12:59.000Z</time>
</trkpt>
<trkpt lat="45.8479100" lon="9.2314600">
	<ele>882.20</ele>
	<time>2025-02-15T08:13:00.000Z</time>
</trkpt>
<trkpt lat="45.8479110" lon="9.2314590">
	<ele>882.20</ele>
	<time>2025-02-15T08:13:01.000Z</time>
</trkpt>
<trkpt lat="45.8479110" lon="9.2314590">
	<ele>882.20</ele>
	<time>2025-02-15T08:13:02.000Z</time>
</trkpt>
<trkpt lat="45.8479110" lon="9.2314590">
	<ele>882.20</ele>
	<time>2025-02-15T08:13:03.000Z</time>
</trkpt>
<trkpt lat="45.8479110" lon="9.2314590">
	<ele>882.00</ele>
	<time>2025-02-15T08:13:04.000Z</time>
</trkpt>
<trkpt lat="45.8479110" lon="9.2314590">
	<ele>882.00</ele>
	<time>2025-02-15T08:13:05.000Z</time>
</trkpt>
<trkpt lat="45.8479110" lon="9.2314590">
	<ele>882.00</ele>
	<time>2025-02-15T08:13:06.000Z</time>
</trkpt>
<trkpt lat="45.8479110" lon="9.2314590">
	<ele>882.00</ele>
	<time>2025-02-15T08:13:07.000Z</time>
</trkpt>
<trkpt lat="45.8479110" lon="9.2314590">
	<ele>882.20</ele>
	<time>2025-02-15T08:13:08.000Z</time>
</trkpt>
<trkpt lat="45.8479110" lon="9.2314590">
	<ele>882.40</ele>
	<time>2025-02-15T08:13:09.000Z</time>
</trkpt>
<trkpt lat="45.8479110" lon="9.2314590">
	<ele>882.40</ele>
	<time>2025-02-15T08:13:10.000Z</time>
</trkpt>
<trkpt lat="45.8479110" lon="9.2314590">
	<ele>882.40</ele>
	<time>2025-02-15T08:13:11.000Z</time>
</trkpt>
<trkpt lat="45.8479110" lon="9.2314590">
	<ele>882.60</ele>
	<time>2025-02-15T08:13:12.000Z</time>
</trkpt>
<trkpt lat="45.8479170" lon="9.2314610">
	<ele>882.60</ele>
	<time>2025-02-15T08:13:13.000Z</time>
</trkpt>
<trkpt lat="45.8479270" lon="9.2314680">
	<ele>882.60</ele>
	<time>2025-02-15T08:13:14.000Z</time>
</trkpt>
<trkpt lat="45.8479330" lon="9.2314760">
	<ele>882.40</ele>
	<time>2025-02-15T08:13:15.000Z</time>
</trkpt>
<trkpt lat="45.8479390" lon="9.2314830">
	<ele>882.40</ele>
	<time>2025-02-15T08:13:16.000Z</time>
</trkpt>
<trkpt lat="45.8479450" lon="9.2314960">
	<ele>882.20</ele>
	<time>2025-02-15T08:13:17.000Z</time>
</trkpt>
<trkpt lat="45.8479550" lon="9.2315060">
	<ele>882.20</ele>
	<time>2025-02-15T08:13:18.000Z</time>
</trkpt>
<trkpt lat="45.8479670" lon="9.2315110">
	<ele>882.20</ele>
	<time>2025-02-15T08:13:19.000Z</time>
</trkpt>
<trkpt lat="45.8479750" lon="9.2315160">
	<ele>882.40</ele>
	<time>2025-02-15T08:13:20.000Z</time>
</trkpt>
<trkpt lat="45.8479840" lon="9.2315190">
	<ele>882.40</ele>
	<time>2025-02-15T08:13:21.000Z</time>
</trkpt>
<trkpt lat="45.8479960" lon="9.2315220">
	<ele>882.60</ele>
	<time>2025-02-15T08:13:22.000Z</time>
</trkpt>
<trkpt lat="45.8480030" lon="9.2315260">
	<ele>882.80</ele>
	<time>2025-02-15T08:13:23.000Z</time>
</trkpt>
<trkpt lat="45.8480070" lon="9.2315310">
	<ele>882.80</ele>
	<time>2025-02-15T08:13:24.000Z</time>
</trkpt>
<trkpt lat="45.8480120" lon="9.2315370">
	<ele>883.00</ele>
	<time>2025-02-15T08:13:25.000Z</time>
</trkpt>
<trkpt lat="45.8480210" lon="9.2315410">
	<ele>883.20</ele>
	<time>2025-02-15T08:13:26.000Z</time>
</trkpt>
<trkpt lat="45.8480240" lon="9.2315470">
	<ele>883.40</ele>
	<time>2025-02-15T08:13:27.000Z</time>
</trkpt>
<trkpt lat="45.8480260" lon="9.2315470">
	<ele>883.40</ele>
	<time>2025-02-15T08:13:28.000Z</time>
</trkpt>
<trkpt lat="45.8480280" lon="9.2315510">
	<ele>883.40</ele>
	<time>2025-02-15T08:13:29.000Z</time>
</trkpt>
<trkpt lat="45.8480330" lon="9.2315540">
	<ele>883.60</ele>
	<time>2025-02-15T08:13:30.000Z</time>
</trkpt>
<trkpt lat="45.8480420" lon="9.2315550">
	<ele>883.60</ele>
	<time>2025-02-15T08:13:31.000Z</time>
</trkpt>
<trkpt lat="45.8480500" lon="9.2315530">
	<ele>883.60</ele>
	<time>2025-02-15T08:13:32.000Z</time>
</trkpt>
<trkpt lat="45.8480550" lon="9.2315560">
	<ele>883.80</ele>
	<time>2025-02-15T08:13:33.000Z</time>
</trkpt>
<trkpt lat="45.8480580" lon="9.2315650">
	<ele>883.80</ele>
	<time>2025-02-15T08:13:34.000Z</time>
</trkpt>
<trkpt lat="45.8480610" lon="9.2315740">
	<ele>884.00</ele>
	<time>2025-02-15T08:13:35.000Z</time>
</trkpt>
<trkpt lat="45.8480650" lon="9.2315820">
	<ele>884.00</ele>
	<time>2025-02-15T08:13:36.000Z</time>
</trkpt>
<trkpt lat="45.8480660" lon="9.2315950">
	<ele>884.00</ele>
	<time>2025-02-15T08:13:37.000Z</time>
</trkpt>
<trkpt lat="45.8480660" lon="9.2316050">
	<ele>884.20</ele>
	<time>2025-02-15T08:13:38.000Z</time>
</trkpt>
<trkpt lat="45.8480680" lon="9.2316090">
	<ele>884.40</ele>
	<time>2025-02-15T08:13:39.000Z</time>
</trkpt>
<trkpt lat="45.8480710" lon="9.2316190">
	<ele>884.60</ele>
	<time>2025-02-15T08:13:40.000Z</time>
</trkpt>
<trkpt lat="45.8480770" lon="9.2316300">
	<ele>884.60</ele>
	<time>2025-02-15T08:13:41.000Z</time>
</trkpt>
<trkpt lat="45.8480830" lon="9.2316390">
	<ele>884.80</ele>
	<time>2025-02-15T08:13:42.000Z</time>
</trkpt>
<trkpt lat="45.8480880" lon="9.2316480">
	<ele>884.80</ele>
	<time>2025-02-15T08:13:43.000Z</time>
</trkpt>
<trkpt lat="45.8480910" lon="9.2316590">
	<ele>884.80</ele>
	<time>2025-02-15T08:13:44.000Z</time>
</trkpt>
<trkpt lat="45.8480990" lon="9.2316690">
	<ele>884.80</ele>
	<time>2025-02-15T08:13:45.000Z</time>
</trkpt>
<trkpt lat="45.8481030" lon="9.2316720">
	<ele>884.80</ele>
	<time>2025-02-15T08:13:46.000Z</time>
</trkpt>
<trkpt lat="45.8481020" lon="9.2316740">
	<ele>884.80</ele>
	<time>2025-02-15T08:13:47.000Z</time>
</trkpt>
<trkpt lat="45.8481010" lon="9.2316730">
	<ele>884.60</ele>
	<time>2025-02-15T08:13:48.000Z</time>
</trkpt>
<trkpt lat="45.8481020" lon="9.2316820">
	<ele>884.60</ele>
	<time>2025-02-15T08:13:49.000Z</time>
</trkpt>
<trkpt lat="45.8481030" lon="9.2316800">
	<ele>884.40</ele>
	<time>2025-02-15T08:13:50.000Z</time>
</trkpt>
<trkpt lat="45.8481080" lon="9.2316870">
	<ele>884.40</ele>
	<time>2025-02-15T08:13:51.000Z</time>
</trkpt>
<trkpt lat="45.8481110" lon="9.2316870">
	<ele>884.40</ele>
	<time>2025-02-15T08:13:52.000Z</time>
</trkpt>
<trkpt lat="45.8481140" lon="9.2316860">
	<ele>884.40</ele>
	<time>2025-02-15T08:13:53.000Z</time>
</trkpt>
<trkpt lat="45.8481160" lon="9.2316850">
	<ele>884.40</ele>
	<time>2025-02-15T08:13:54.000Z</time>
</trkpt>
<trkpt lat="45.8481090" lon="9.2316950">
	<ele>884.60</ele>
	<time>2025-02-15T08:13:55.000Z</time>
</trkpt>
<trkpt lat="45.8481070" lon="9.2316970">
	<ele>884.60</ele>
	<time>2025-02-15T08:13:56.000Z</time>
</trkpt>
<trkpt lat="45.8481050" lon="9.2316980">
	<ele>884.80</ele>
	<time>2025-02-15T08:13:57.000Z</time>
</trkpt>
<trkpt lat="45.8481030" lon="9.2316980">
	<ele>884.80</ele>
	<time>2025-02-15T08:13:58.000Z</time>
</trkpt>
<trkpt lat="45.8481010" lon="9.2317060">
	<ele>884.80</ele>
	<time>2025-02-15T08:13:59.000Z</time>
</trkpt>
<trkpt lat="45.8480980" lon="9.2317030">
	<ele>884.80</ele>
	<time>2025-02-15T08:14:00.000Z</time>
</trkpt>
<trkpt lat="45.8480950" lon="9.2317050">
	<ele>884.80</ele>
	<time>2025-02-15T08:14:01.000Z</time>
</trkpt>
<trkpt lat="45.8480960" lon="9.2317040">
	<ele>884.60</ele>
	<time>2025-02-15T08:14:02.000Z</time>
</trkpt>
<trkpt lat="45.8480980" lon="9.2317030">
	<ele>884.60</ele>
	<time>2025-02-15T08:14:03.000Z</time>
</trkpt>
<trkpt lat="45.8481080" lon="9.2316960">
	<ele>884.60</ele>
	<time>2025-02-15T08:14:04.000Z</time>
</trkpt>
<trkpt lat="45.8481270" lon="9.2316830">
	<ele>884.60</ele>
	<time>2025-02-15T08:14:05.000Z</time>
</trkpt>
<trkpt lat="45.8481340" lon="9.2316790">
	<ele>884.40</ele>
	<time>2025-02-15T08:14:06.000Z</time>
</trkpt>
<trkpt lat="45.8481330" lon="9.2316830">
	<ele>884.40</ele>
	<time>2025-02-15T08:14:07.000Z</time>
</trkpt>
<trkpt lat="45.8481370" lon="9.2316840">
	<ele>884.60</ele>
	<time>2025-02-15T08:14:08.000Z</time>
</trkpt>
<trkpt lat="45.8481390" lon="9.2316870">
	<ele>884.60</ele>
	<time>2025-02-15T08:14:09.000Z</time>
</trkpt>
<trkpt lat="45.8481410" lon="9.2316880">
	<ele>884.60</ele>
	<time>2025-02-15T08:14:10.000Z</time>
</trkpt>
<trkpt lat="45.8481440" lon="9.2316880">
	<ele>884.40</ele>
	<time>2025-02-15T08:14:11.000Z</time>
</trkpt>
<trkpt lat="45.8481420" lon="9.2316920">
	<ele>884.40</ele>
	<time>2025-02-15T08:14:12.000Z</time>
</trkpt>
<trkpt lat="45.8481470" lon="9.2316940">
	<ele>884.40</ele>
	<time>2025-02-15T08:14:13.000Z</time>
</trkpt>
<trkpt lat="45.8481500" lon="9.2316970">
	<ele>884.60</ele>
	<time>2025-02-15T08:14:14.000Z</time>
</trkpt>
<trkpt lat="45.8481540" lon="9.2316950">
	<ele>884.60</ele>
	<time>2025-02-15T08:14:15.000Z</time>
</trkpt>
<trkpt lat="45.8481580" lon="9.2316930">
	<ele>884.60</ele>
	<time>2025-02-15T08:14:16.000Z</time>
</trkpt>
<trkpt lat="45.8481590" lon="9.2316970">
	<ele>884.60</ele>
	<time>2025-02-15T08:14:17.000Z</time>
</trkpt>
<trkpt lat="45.8481590" lon="9.2317090">
	<ele>884.60</ele>
	<time>2025-02-15T08:14:18.000Z</time>
</trkpt>
<trkpt lat="45.8481590" lon="9.2317140">
	<ele>885.00</ele>
	<time>2025-02-15T08:14:19.000Z</time>
</trkpt>
<trkpt lat="45.8481590" lon="9.2317300">
	<ele>885.00</ele>
	<time>2025-02-15T08:14:20.000Z</time>
</trkpt>
<trkpt lat="45.8481610" lon="9.2317350">
	<ele>885.20</ele>
	<time>2025-02-15T08:14:21.000Z</time>
</trkpt>
<trkpt lat="45.8481600" lon="9.2317490">
	<ele>885.20</ele>
	<time>2025-02-15T08:14:22.000Z</time>
</trkpt>
<trkpt lat="45.8481660" lon="9.2317610">
	<ele>885.20</ele>
	<time>2025-02-15T08:14:23.000Z</time>
</trkpt>
<trkpt lat="45.8481670" lon="9.2317760">
	<ele>885.20</ele>
	<time>2025-02-15T08:14:24.000Z</time>
</trkpt>
<trkpt lat="45.8481680" lon="9.2317920">
	<ele>885.20</ele>
	<time>2025-02-15T08:14:25.000Z</time>
</trkpt>
<trkpt lat="45.8481720" lon="9.2318030">
	<ele>885.40</ele>
	<time>2025-02-15T08:14:26.000Z</time>
</trkpt>
<trkpt lat="45.8481740" lon="9.2318150">
	<ele>885.40</ele>
	<time>2025-02-15T08:14:27.000Z</time>
</trkpt>
<trkpt lat="45.8481770" lon="9.2318260">
	<ele>885.40</ele>
	<time>2025-02-15T08:14:28.000Z</time>
</trkpt>
<trkpt lat="45.8481830" lon="9.2318400">
	<ele>885.40</ele>
	<time>2025-02-15T08:14:29.000Z</time>
</trkpt>
<trkpt lat="45.8481880" lon="9.2318540">
	<ele>885.60</ele>
	<time>2025-02-15T08:14:30.000Z</time>
</trkpt>
<trkpt lat="45.8481940" lon="9.2318620">
	<ele>885.60</ele>
	<time>2025-02-15T08:14:31.000Z</time>
</trkpt>
<trkpt lat="45.8481970" lon="9.2318690">
	<ele>885.80</ele>
	<time>2025-02-15T08:14:32.000Z</time>
</trkpt>
<trkpt lat="45.8481980" lon="9.2318760">
	<ele>886.00</ele>
	<time>2025-02-15T08:14:33.000Z</time>
</trkpt>
<trkpt lat="45.8481980" lon="9.2318860">
	<ele>886.00</ele>
	<time>2025-02-15T08:14:34.000Z</time>
</trkpt>
<trkpt lat="45.8481980" lon="9.2318900">
	<ele>886.00</ele>
	<time>2025-02-15T08:14:35.000Z</time>
</trkpt>
<trkpt lat="45.8481990" lon="9.2318940">
	<ele>886.20</ele>
	<time>2025-02-15T08:14:36.000Z</time>
</trkpt>
<trkpt lat="45.8481990" lon="9.2318980">
	<ele>886.40</ele>
	<time>2025-02-15T08:14:37.000Z</time>
</trkpt>
<trkpt lat="45.8482030" lon="9.2319030">
	<ele>886.40</ele>
	<time>2025-02-15T08:14:38.000Z</time>
</trkpt>
<trkpt lat="45.8482070" lon="9.2319030">
	<ele>886.40</ele>
	<time>2025-02-15T08:14:39.000Z</time>
</trkpt>
<trkpt lat="45.8482130" lon="9.2319120">
	<ele>886.60</ele>
	<time>2025-02-15T08:14:40.000Z</time>
</trkpt>
<trkpt lat="45.8482220" lon="9.2319230">
	<ele>886.60</ele>
	<time>2025-02-15T08:14:41.000Z</time>
</trkpt>
<trkpt lat="45.8482340" lon="9.2319300">
	<ele>886.60</ele>
	<time>2025-02-15T08:14:42.000Z</time>
</trkpt>
<trkpt lat="45.8482470" lon="9.2319350">
	<ele>886.60</ele>
	<time>2025-02-15T08:14:43.000Z</time>
</trkpt>
<trkpt lat="45.8482540" lon="9.2319430">
	<ele>886.60</ele>
	<time>2025-02-15T08:14:44.000Z</time>
</trkpt>
<trkpt lat="45.8482630" lon="9.2319520">
	<ele>886.60</ele>
	<time>2025-02-15T08:14:45.000Z</time>
</trkpt>
<trkpt lat="45.8482710" lon="9.2319610">
	<ele>886.80</ele>
	<time>2025-02-15T08:14:46.000Z</time>
</trkpt>
<trkpt lat="45.8482650" lon="9.2319770">
	<ele>886.80</ele>
	<time>2025-02-15T08:14:47.000Z</time>
</trkpt>
<trkpt lat="45.8482720" lon="9.2319840">
	<ele>886.80</ele>
	<time>2025-02-15T08:14:48.000Z</time>
</trkpt>
<trkpt lat="45.8482740" lon="9.2319930">
	<ele>887.00</ele>
	<time>2025-02-15T08:14:49.000Z</time>
</trkpt>
<trkpt lat="45.8482780" lon="9.2319970">
	<ele>887.20</ele>
	<time>2025-02-15T08:14:50.000Z</time>
</trkpt>
<trkpt lat="45.8482730" lon="9.2320090">
	<ele>887.40</ele>
	<time>2025-02-15T08:14:51.000Z</time>
</trkpt>
<trkpt lat="45.8482700" lon="9.2320260">
	<ele>887.60</ele>
	<time>2025-02-15T08:14:52.000Z</time>
</trkpt>
<trkpt lat="45.8482740" lon="9.2320340">
	<ele>887.60</ele>
	<time>2025-02-15T08:14:53.000Z</time>
</trkpt>
<trkpt lat="45.8482920" lon="9.2320280">
	<ele>887.60</ele>
	<time>2025-02-15T08:14:54.000Z</time>
</trkpt>
<trkpt lat="45.8483070" lon="9.2320200">
	<ele>887.80</ele>
	<time>2025-02-15T08:14:55.000Z</time>
</trkpt>
<trkpt lat="45.8483100" lon="9.2320230">
	<ele>888.00</ele>
	<time>2025-02-15T08:14:56.000Z</time>
</trkpt>
<trkpt lat="45.8483120" lon="9.2320270">
	<ele>888.00</ele>
	<time>2025-02-15T08:14:57.000Z</time>
</trkpt>
<trkpt lat="45.8483160" lon="9.2320310">
	<ele>888.20</ele>
	<time>2025-02-15T08:14:58.000Z</time>
</trkpt>
<trkpt lat="45.8483250" lon="9.2320370">
	<ele>888.40</ele>
	<time>2025-02-15T08:14:59.000Z</time>
</trkpt>
<trkpt lat="45.8483280" lon="9.2320380">
	<ele>888.60</ele>
	<time>2025-02-15T08:15:00.000Z</time>
</trkpt>
<trkpt lat="45.8483330" lon="9.2320380">
	<ele>888.80</ele>
	<time>2025-02-15T08:15:01.000Z</time>
</trkpt>
<trkpt lat="45.8483310" lon="9.2320480">
	<ele>888.80</ele>
	<time>2025-02-15T08:15:02.000Z</time>
</trkpt>
<trkpt lat="45.8483320" lon="9.2320530">
	<ele>889.20</ele>
	<time>2025-02-15T08:15:03.000Z</time>
</trkpt>
<trkpt lat="45.8483330" lon="9.2320580">
	<ele>889.40</ele>
	<time>2025-02-15T08:15:04.000Z</time>
</trkpt>
<trkpt lat="45.8483370" lon="9.2320660">
	<ele>889.40</ele>
	<time>2025-02-15T08:15:05.000Z</time>
</trkpt>
<trkpt lat="45.8483400" lon="9.2320790">
	<ele>889.60</ele>
	<time>2025-02-15T08:15:06.000Z</time>
</trkpt>
<trkpt lat="45.8483420" lon="9.2320870">
	<ele>889.80</ele>
	<time>2025-02-15T08:15:07.000Z</time>
</trkpt>
<trkpt lat="45.8483460" lon="9.2320890">
	<ele>890.00</ele>
	<time>2025-02-15T08:15:08.000Z</time>
</trkpt>
<trkpt lat="45.8483490" lon="9.2320950">
	<ele>890.20</ele>
	<time>2025-02-15T08:15:09.000Z</time>
</trkpt>
<trkpt lat="45.8483560" lon="9.2321070">
	<ele>890.20</ele>
	<time>2025-02-15T08:15:10.000Z</time>
</trkpt>
<trkpt lat="45.8483640" lon="9.2321120">
	<ele>890.40</ele>
	<time>2025-02-15T08:15:11.000Z</time>
</trkpt>
<trkpt lat="45.8483670" lon="9.2321200">
	<ele>890.40</ele>
	<time>2025-02-15T08:15:12.000Z</time>
</trkpt>
<trkpt lat="45.8483690" lon="9.2321220">
	<ele>890.40</ele>
	<time>2025-02-15T08:15:13.000Z</time>
</trkpt>
<trkpt lat="45.8483690" lon="9.2321240">
	<ele>890.40</ele>
	<time>2025-02-15T08:15:14.000Z</time>
</trkpt>
<trkpt lat="45.8483690" lon="9.2321270">
	<ele>890.40</ele>
	<time>2025-02-15T08:15:15.000Z</time>
</trkpt>
<trkpt lat="45.8483690" lon="9.2321310">
	<ele>890.60</ele>
	<time>2025-02-15T08:15:16.000Z</time>
</trkpt>
<trkpt lat="45.8483570" lon="9.2321460">
	<ele>890.60</ele>
	<time>2025-02-15T08:15:17.000Z</time>
</trkpt>
<trkpt lat="45.8483510" lon="9.2321630">
	<ele>890.80</ele>
	<time>2025-02-15T08:15:18.000Z</time>
</trkpt>
<trkpt lat="45.8483470" lon="9.2321870">
	<ele>891.00</ele>
	<time>2025-02-15T08:15:19.000Z</time>
</trkpt>
<trkpt lat="45.8483430" lon="9.2322080">
	<ele>891.20</ele>
	<time>2025-02-15T08:15:20.000Z</time>
</trkpt>
<trkpt lat="45.8483420" lon="9.2322180">
	<ele>891.40</ele>
	<time>2025-02-15T08:15:21.000Z</time>
</trkpt>
<trkpt lat="45.8483460" lon="9.2322230">
	<ele>891.40</ele>
	<time>2025-02-15T08:15:22.000Z</time>
</trkpt>
<trkpt lat="45.8483480" lon="9.2322290">
	<ele>891.60</ele>
	<time>2025-02-15T08:15:23.000Z</time>
</trkpt>
<trkpt lat="45.8483560" lon="9.2322380">
	<ele>891.60</ele>
	<time>2025-02-15T08:15:24.000Z</time>
</trkpt>
<trkpt lat="45.8483590" lon="9.2322500">
	<ele>891.80</ele>
	<time>2025-02-15T08:15:25.000Z</time>
</trkpt>
<trkpt lat="45.8483580" lon="9.2322570">
	<ele>891.80</ele>
	<time>2025-02-15T08:15:26.000Z</time>
</trkpt>
<trkpt lat="45.8483610" lon="9.2322690">
	<ele>891.80</ele>
	<time>2025-02-15T08:15:27.000Z</time>
</trkpt>
<trkpt lat="45.8483650" lon="9.2322780">
	<ele>892.00</ele>
	<time>2025-02-15T08:15:28.000Z</time>
</trkpt>
<trkpt lat="45.8483670" lon="9.2322880">
	<ele>892.00</ele>
	<time>2025-02-15T08:15:29.000Z</time>
</trkpt>
<trkpt lat="45.8483710" lon="9.2322970">
	<ele>892.20</ele>
	<time>2025-02-15T08:15:30.000Z</time>
</trkpt>
<trkpt lat="45.8483750" lon="9.2323090">
	<ele>892.20</ele>
	<time>2025-02-15T08:15:31.000Z</time>
</trkpt>
<trkpt lat="45.8483740" lon="9.2323220">
	<ele>892.40</ele>
	<time>2025-02-15T08:15:32.000Z</time>
</trkpt>
<trkpt lat="45.8483750" lon="9.2323300">
	<ele>892.40</ele>
	<time>2025-02-15T08:15:33.000Z</time>
</trkpt>
<trkpt lat="45.8483770" lon="9.2323380">
	<ele>892.60</ele>
	<time>2025-02-15T08:15:34.000Z</time>
</trkpt>
<trkpt lat="45.8483800" lon="9.2323440">
	<ele>892.60</ele>
	<time>2025-02-15T08:15:35.000Z</time>
</trkpt>
<trkpt lat="45.8483830" lon="9.2323530">
	<ele>892.80</ele>
	<time>2025-02-15T08:15:36.000Z</time>
</trkpt>
<trkpt lat="45.8483960" lon="9.2323530">
	<ele>892.80</ele>
	<time>2025-02-15T08:15:37.000Z</time>
</trkpt>
<trkpt lat="45.8484100" lon="9.2323540">
	<ele>893.00</ele>
	<time>2025-02-15T08:15:38.000Z</time>
</trkpt>
<trkpt lat="45.8484130" lon="9.2323550">
	<ele>893.00</ele>
	<time>2025-02-15T08:15:39.000Z</time>
</trkpt>
<trkpt lat="45.8484140" lon="9.2323670">
	<ele>893.40</ele>
	<time>2025-02-15T08:15:40.000Z</time>
</trkpt>
<trkpt lat="45.8484100" lon="9.2323760">
	<ele>893.40</ele>
	<time>2025-02-15T08:15:41.000Z</time>
</trkpt>
<trkpt lat="45.8484070" lon="9.2323820">
	<ele>893.60</ele>
	<time>2025-02-15T08:15:42.000Z</time>
</trkpt>
<trkpt lat="45.8484050" lon="9.2323880">
	<ele>893.60</ele>
	<time>2025-02-15T08:15:43.000Z</time>
</trkpt>
<trkpt lat="45.8484100" lon="9.2323990">
	<ele>893.80</ele>
	<time>2025-02-15T08:15:44.000Z</time>
</trkpt>
<trkpt lat="45.8484150" lon="9.2324100">
	<ele>894.00</ele>
	<time>2025-02-15T08:15:45.000Z</time>
</trkpt>
<trkpt lat="45.8484190" lon="9.2324210">
	<ele>894.00</ele>
	<time>2025-02-15T08:15:46.000Z</time>
</trkpt>
<trkpt lat="45.8484210" lon="9.2324300">
	<ele>894.20</ele>
	<time>2025-02-15T08:15:47.000Z</time>
</trkpt>
<trkpt lat="45.8484200" lon="9.2324350">
	<ele>894.20</ele>
	<time>2025-02-15T08:15:48.000Z</time>
</trkpt>
<trkpt lat="45.8484250" lon="9.2324360">
	<ele>894.20</ele>
	<time>2025-02-15T08:15:49.000Z</time>
</trkpt>
<trkpt lat="45.8484290" lon="9.2324410">
	<ele>894.40</ele>
	<time>2025-02-15T08:15:50.000Z</time>
</trkpt>
<trkpt lat="45.8484260" lon="9.2324470">
	<ele>894.60</ele>
	<time>2025-02-15T08:15:51.000Z</time>
</trkpt>
<trkpt lat="45.8484280" lon="9.2324570">
	<ele>894.80</ele>
	<time>2025-02-15T08:15:52.000Z</time>
</trkpt>
<trkpt lat="45.8484370" lon="9.2324670">
	<ele>894.80</ele>
	<time>2025-02-15T08:15:53.000Z</time>
</trkpt>
<trkpt lat="45.8484460" lon="9.2324720">
	<ele>894.80</ele>
	<time>2025-02-15T08:15:54.000Z</time>
</trkpt>
<trkpt lat="45.8484510" lon="9.2324850">
	<ele>894.80</ele>
	<time>2025-02-15T08:15:55.000Z</time>
</trkpt>
<trkpt lat="45.8484480" lon="9.2324950">
	<ele>895.00</ele>
	<time>2025-02-15T08:15:56.000Z</time>
</trkpt>
<trkpt lat="45.8484440" lon="9.2324980">
	<ele>895.00</ele>
	<time>2025-02-15T08:15:57.000Z</time>
</trkpt>
<trkpt lat="45.8484440" lon="9.2325050">
	<ele>895.00</ele>
	<time>2025-02-15T08:15:58.000Z</time>
</trkpt>
<trkpt lat="45.8484430" lon="9.2325130">
	<ele>895.20</ele>
	<time>2025-02-15T08:15:59.000Z</time>
</trkpt>
<trkpt lat="45.8484410" lon="9.2325030">
	<ele>895.20</ele>
	<time>2025-02-15T08:16:00.000Z</time>
</trkpt>
<trkpt lat="45.8484430" lon="9.2325030">
	<ele>895.40</ele>
	<time>2025-02-15T08:16:01.000Z</time>
</trkpt>
<trkpt lat="45.8484460" lon="9.2325200">
	<ele>895.40</ele>
	<time>2025-02-15T08:16:02.000Z</time>
</trkpt>
<trkpt lat="45.8484520" lon="9.2325290">
	<ele>895.40</ele>
	<time>2025-02-15T08:16:03.000Z</time>
</trkpt>
<trkpt lat="45.8484590" lon="9.2325310">
	<ele>895.60</ele>
	<time>2025-02-15T08:16:04.000Z</time>
</trkpt>
<trkpt lat="45.8484670" lon="9.2325300">
	<ele>895.60</ele>
	<time>2025-02-15T08:16:05.000Z</time>
</trkpt>
<trkpt lat="45.8484710" lon="9.2325270">
	<ele>895.80</ele>
	<time>2025-02-15T08:16:06.000Z</time>
</trkpt>
<trkpt lat="45.8484690" lon="9.2325240">
	<ele>896.00</ele>
	<time>2025-02-15T08:16:07.000Z</time>
</trkpt>
<trkpt lat="45.8484660" lon="9.2325240">
	<ele>896.00</ele>
	<time>2025-02-15T08:16:08.000Z</time>
</trkpt>
<trkpt lat="45.8484680" lon="9.2325270">
	<ele>896.20</ele>
	<time>2025-02-15T08:16:09.000Z</time>
</trkpt>
<trkpt lat="45.8484740" lon="9.2325390">
	<ele>896.20</ele>
	<time>2025-02-15T08:16:10.000Z</time>
</trkpt>
<trkpt lat="45.8484820" lon="9.2325480">
	<ele>896.20</ele>
	<time>2025-02-15T08:16:11.000Z</time>
</trkpt>
<trkpt lat="45.8484910" lon="9.2325540">
	<ele>896.20</ele>
	<time>2025-02-15T08:16:12.000Z</time>
</trkpt>
<trkpt lat="45.8484940" lon="9.2325570">
	<ele>896.20</ele>
	<time>2025-02-15T08:16:13.000Z</time>
</trkpt>
<trkpt lat="45.8484960" lon="9.2325670">
	<ele>896.40</ele>
	<time>2025-02-15T08:16:14.000Z</time>
</trkpt>
<trkpt lat="45.8485000" lon="9.2325680">
	<ele>896.40</ele>
	<time>2025-02-15T08:16:15.000Z</time>
</trkpt>
<trkpt lat="45.8485010" lon="9.2325700">
	<ele>896.40</ele>
	<time>2025-02-15T08:16:16.000Z</time>
</trkpt>
<trkpt lat="45.8485020" lon="9.2325720">
	<ele>896.60</ele>
	<time>2025-02-15T08:16:17.000Z</time>
</trkpt>
<trkpt lat="45.8485010" lon="9.2325750">
	<ele>896.60</ele>
	<time>2025-02-15T08:16:18.000Z</time>
</trkpt>
<trkpt lat="45.8485000" lon="9.2325840">
	<ele>896.80</ele>
	<time>2025-02-15T08:16:19.000Z</time>
</trkpt>
<trkpt lat="45.8485020" lon="9.2325870">
	<ele>896.80</ele>
	<time>2025-02-15T08:16:20.000Z</time>
</trkpt>
<trkpt lat="45.8485110" lon="9.2325870">
	<ele>896.80</ele>
	<time>2025-02-15T08:16:21.000Z</time>
</trkpt>
<trkpt lat="45.8485180" lon="9.2325900">
	<ele>897.00</ele>
	<time>2025-02-15T08:16:22.000Z</time>
</trkpt>
<trkpt lat="45.8485280" lon="9.2325990">
	<ele>897.00</ele>
	<time>2025-02-15T08:16:23.000Z</time>
</trkpt>
<trkpt lat="45.8485290" lon="9.2326140">
	<ele>897.00</ele>
	<time>2025-02-15T08:16:24.000Z</time>
</trkpt>
<trkpt lat="45.8485380" lon="9.2326190">
	<ele>897.20</ele>
	<time>2025-02-15T08:16:25.000Z</time>
</trkpt>
<trkpt lat="45.8485440" lon="9.2326190">
	<ele>897.40</ele>
	<time>2025-02-15T08:16:26.000Z</time>
</trkpt>
<trkpt lat="45.8485640" lon="9.2326380">
	<ele>897.40</ele>
	<time>2025-02-15T08:16:27.000Z</time>
</trkpt>
<trkpt lat="45.8485510" lon="9.2326420">
	<ele>897.60</ele>
	<time>2025-02-15T08:16:28.000Z</time>
</trkpt>
<trkpt lat="45.8485530" lon="9.2326430">
	<ele>897.80</ele>
	<time>2025-02-15T08:16:29.000Z</time>
</trkpt>
<trkpt lat="45.8485520" lon="9.2326660">
	<ele>898.00</ele>
	<time>2025-02-15T08:16:30.000Z</time>
</trkpt>
<trkpt lat="45.8485510" lon="9.2326990">
	<ele>898.00</ele>
	<time>2025-02-15T08:16:31.000Z</time>
</trkpt>
<trkpt lat="45.8485520" lon="9.2327180">
	<ele>898.20</ele>
	<time>2025-02-15T08:16:32.000Z</time>
</trkpt>
<trkpt lat="45.8485560" lon="9.2327250">
	<ele>898.20</ele>
	<time>2025-02-15T08:16:33.000Z</time>
</trkpt>
<trkpt lat="45.8485550" lon="9.2327250">
	<ele>898.40</ele>
	<time>2025-02-15T08:16:34.000Z</time>
</trkpt>
<trkpt lat="45.8485490" lon="9.2327280">
	<ele>898.60</ele>
	<time>2025-02-15T08:16:35.000Z</time>
</trkpt>
<trkpt lat="45.8485530" lon="9.2327430">
	<ele>898.60</ele>
	<time>2025-02-15T08:16:36.000Z</time>
</trkpt>
<trkpt lat="45.8485560" lon="9.2327450">
	<ele>898.80</ele>
	<time>2025-02-15T08:16:37.000Z</time>
</trkpt>
<trkpt lat="45.8485730" lon="9.2327530">
	<ele>898.80</ele>
	<time>2025-02-15T08:16:38.000Z</time>
</trkpt>
<trkpt lat="45.8485880" lon="9.2327540">
	<ele>899.00</ele>
	<time>2025-02-15T08:16:39.000Z</time>
</trkpt>
<trkpt lat="45.8486020" lon="9.2327500">
	<ele>899.00</ele>
	<time>2025-02-15T08:16:40.000Z</time>
</trkpt>
<trkpt lat="45.8486220" lon="9.2327460">
	<ele>899.20</ele>
	<time>2025-02-15T08:16:41.000Z</time>
</trkpt>
<trkpt lat="45.8486460" lon="9.2327520">
	<ele>899.40</ele>
	<time>2025-02-15T08:16:42.000Z</time>
</trkpt>
<trkpt lat="45.8486490" lon="9.2327540">
	<ele>899.40</ele>
	<time>2025-02-15T08:16:43.000Z</time>
</trkpt>
<trkpt lat="45.8486520" lon="9.2327540">
	<ele>899.60</ele>
	<time>2025-02-15T08:16:44.000Z</time>
</trkpt>
<trkpt lat="45.8486560" lon="9.2327540">
	<ele>899.80</ele>
	<time>2025-02-15T08:16:45.000Z</time>
</trkpt>
<trkpt lat="45.8486590" lon="9.2327770">
	<ele>899.80</ele>
	<time>2025-02-15T08:16:46.000Z</time>
</trkpt>
<trkpt lat="45.8486580" lon="9.2327930">
	<ele>900.00</ele>
	<time>2025-02-15T08:16:47.000Z</time>
</trkpt>
<trkpt lat="45.8486570" lon="9.2328040">
	<ele>900.00</ele>
	<time>2025-02-15T08:16:48.000Z</time>
</trkpt>
<trkpt lat="45.8486580" lon="9.2328140">
	<ele>900.20</ele>
	<time>2025-02-15T08:16:49.000Z</time>
</trkpt>
<trkpt lat="45.8486650" lon="9.2328200">
	<ele>900.40</ele>
	<time>2025-02-15T08:16:50.000Z</time>
</trkpt>
<trkpt lat="45.8486690" lon="9.2328210">
	<ele>900.40</ele>
	<time>2025-02-15T08:16:51.000Z</time>
</trkpt>
<trkpt lat="45.8486720" lon="9.2328220">
	<ele>901.00</ele>
	<time>2025-02-15T08:16:52.000Z</time>
</trkpt>
<trkpt lat="45.8486640" lon="9.2328570">
	<ele>901.20</ele>
	<time>2025-02-15T08:16:53.000Z</time>
</trkpt>
<trkpt lat="45.8486560" lon="9.2328820">
	<ele>901.40</ele>
	<time>2025-02-15T08:16:54.000Z</time>
</trkpt>
<trkpt lat="45.8486620" lon="9.2329000">
	<ele>901.60</ele>
	<time>2025-02-15T08:16:55.000Z</time>
</trkpt>
<trkpt lat="45.8486690" lon="9.2329190">
	<ele>901.60</ele>
	<time>2025-02-15T08:16:56.000Z</time>
</trkpt>
<trkpt lat="45.8486700" lon="9.2329270">
	<ele>901.80</ele>
	<time>2025-02-15T08:16:57.000Z</time>
</trkpt>
<trkpt lat="45.8486710" lon="9.2329360">
	<ele>901.80</ele>
	<time>2025-02-15T08:16:58.000Z</time>
</trkpt>
<trkpt lat="45.8486760" lon="9.2329460">
	<ele>902.00</ele>
	<time>2025-02-15T08:16:59.000Z</time>
</trkpt>
<trkpt lat="45.8486870" lon="9.2329570">
	<ele>902.20</ele>
	<time>2025-02-15T08:17:00.000Z</time>
</trkpt>
<trkpt lat="45.8486920" lon="9.2329610">
	<ele>902.40</ele>
	<time>2025-02-15T08:17:01.000Z</time>
</trkpt>
<trkpt lat="45.8486980" lon="9.2329720">
	<ele>902.60</ele>
	<time>2025-02-15T08:17:02.000Z</time>
</trkpt>
<trkpt lat="45.8486960" lon="9.2329920">
	<ele>902.60</ele>
	<time>2025-02-15T08:17:03.000Z</time>
</trkpt>
<trkpt lat="45.8486980" lon="9.2329920">
	<ele>902.80</ele>
	<time>2025-02-15T08:17:04.000Z</time>
</trkpt>
<trkpt lat="45.8487010" lon="9.2330050">
	<ele>903.00</ele>
	<time>2025-02-15T08:17:05.000Z</time>
</trkpt>
<trkpt lat="45.8487100" lon="9.2330090">
	<ele>903.00</ele>
	<time>2025-02-15T08:17:06.000Z</time>
</trkpt>
<trkpt lat="45.8487130" lon="9.2330060">
	<ele>903.20</ele>
	<time>2025-02-15T08:17:07.000Z</time>
</trkpt>
<trkpt lat="45.8487160" lon="9.2330070">
	<ele>903.40</ele>
	<time>2025-02-15T08:17:08.000Z</time>
</trkpt>
<trkpt lat="45.8487150" lon="9.2330000">
	<ele>903.60</ele>
	<time>2025-02-15T08:17:09.000Z</time>
</trkpt>
<trkpt lat="45.8487210" lon="9.2329900">
	<ele>903.60</ele>
	<time>2025-02-15T08:17:10.000Z</time>
</trkpt>
<trkpt lat="45.8487220" lon="9.2329930">
	<ele>903.80</ele>
	<time>2025-02-15T08:17:11.000Z</time>
</trkpt>
<trkpt lat="45.8487240" lon="9.2329940">
	<ele>904.00</ele>
	<time>2025-02-15T08:17:12.000Z</time>
</trkpt>
<trkpt lat="45.8487230" lon="9.2329950">
	<ele>904.20</ele>
	<time>2025-02-15T08:17:13.000Z</time>
</trkpt>
<trkpt lat="45.8487270" lon="9.2330090">
	<ele>904.40</ele>
	<time>2025-02-15T08:17:14.000Z</time>
</trkpt>
<trkpt lat="45.8487210" lon="9.2330270">
	<ele>904.40</ele>
	<time>2025-02-15T08:17:15.000Z</time>
</trkpt>
<trkpt lat="45.8487170" lon="9.2330460">
	<ele>904.60</ele>
	<time>2025-02-15T08:17:16.000Z</time>
</trkpt>
<trkpt lat="45.8487190" lon="9.2330640">
	<ele>904.80</ele>
	<time>2025-02-15T08:17:17.000Z</time>
</trkpt>
<trkpt lat="45.8487220" lon="9.2330540">
	<ele>905.00</ele>
	<time>2025-02-15T08:17:18.000Z</time>
</trkpt>
<trkpt lat="45.8487240" lon="9.2330540">
	<ele>905.00</ele>
	<time>2025-02-15T08:17:19.000Z</time>
</trkpt>
<trkpt lat="45.8487320" lon="9.2330490">
	<ele>905.20</ele>
	<time>2025-02-15T08:17:20.000Z</time>
</trkpt>
<trkpt lat="45.8487380" lon="9.2330530">
	<ele>905.40</ele>
	<time>2025-02-15T08:17:21.000Z</time>
</trkpt>
<trkpt lat="45.8487400" lon="9.2330570">
	<ele>905.60</ele>
	<time>2025-02-15T08:17:22.000Z</time>
</trkpt>
<trkpt lat="45.8487420" lon="9.2330600">
	<ele>905.80</ele>
	<time>2025-02-15T08:17:23.000Z</time>
</trkpt>
<trkpt lat="45.8487430" lon="9.2330590">
	<ele>905.80</ele>
	<time>2025-02-15T08:17:24.000Z</time>
</trkpt>
<trkpt lat="45.8487480" lon="9.2330550">
	<ele>906.00</ele>
	<time>2025-02-15T08:17:25.000Z</time>
</trkpt>
<trkpt lat="45.8487560" lon="9.2330570">
	<ele>906.00</ele>
	<time>2025-02-15T08:17:26.000Z</time>
</trkpt>
<trkpt lat="45.8487610" lon="9.2330570">
	<ele>906.20</ele>
	<time>2025-02-15T08:17:27.000Z</time>
</trkpt>
<trkpt lat="45.8487700" lon="9.2330620">
	<ele>906.20</ele>
	<time>2025-02-15T08:17:28.000Z</time>
</trkpt>
<trkpt lat="45.8487800" lon="9.2330690">
	<ele>906.20</ele>
	<time>2025-02-15T08:17:29.000Z</time>
</trkpt>
<trkpt lat="45.8487850" lon="9.2330820">
	<ele>906.40</ele>
	<time>2025-02-15T08:17:30.000Z</time>
</trkpt>
<trkpt lat="45.8487890" lon="9.2330870">
	<ele>906.80</ele>
	<time>2025-02-15T08:17:31.000Z</time>
</trkpt>
<trkpt lat="45.8487950" lon="9.2330920">
	<ele>907.00</ele>
	<time>2025-02-15T08:17:32.000Z</time>
</trkpt>
<trkpt lat="45.8487980" lon="9.2330920">
	<ele>907.00</ele>
	<time>2025-02-15T08:17:33.000Z</time>
</trkpt>
<trkpt lat="45.8488040" lon="9.2331000">
	<ele>907.00</ele>
	<time>2025-02-15T08:17:34.000Z</time>
</trkpt>
<trkpt lat="45.8488130" lon="9.2330920">
	<ele>907.20</ele>
	<time>2025-02-15T08:17:35.000Z</time>
</trkpt>
<trkpt lat="45.8488170" lon="9.2330920">
	<ele>907.20</ele>
	<time>2025-02-15T08:17:36.000Z</time>
</trkpt>
<trkpt lat="45.8488190" lon="9.2330890">
	<ele>907.20</ele>
	<time>2025-02-15T08:17:37.000Z</time>
</trkpt>
<trkpt lat="45.8488200" lon="9.2330890">
	<ele>907.20</ele>
	<time>2025-02-15T08:17:38.000Z</time>
</trkpt>
<trkpt lat="45.8488220" lon="9.2330900">
	<ele>907.40</ele>
	<time>2025-02-15T08:17:39.000Z</time>
</trkpt>
<trkpt lat="45.8488240" lon="9.2330920">
	<ele>907.40</ele>
	<time>2025-02-15T08:17:40.000Z</time>
</trkpt>
<trkpt lat="45.8488250" lon="9.2330940">
	<ele>907.40</ele>
	<time>2025-02-15T08:17:41.000Z</time>
</trkpt>
<trkpt lat="45.8488250" lon="9.2330930">
	<ele>907.40</ele>
	<time>2025-02-15T08:17:42.000Z</time>
</trkpt>
<trkpt lat="45.8488260" lon="9.2330910">
	<ele>907.40</ele>
	<time>2025-02-15T08:17:43.000Z</time>
</trkpt>
<trkpt lat="45.8488300" lon="9.2330780">
	<ele>907.40</ele>
	<time>2025-02-15T08:17:44.000Z</time>
</trkpt>
<trkpt lat="45.8488240" lon="9.2330610">
	<ele>907.40</ele>
	<time>2025-02-15T08:17:45.000Z</time>
</trkpt>
<trkpt lat="45.8488260" lon="9.2330640">
	<ele>907.20</ele>
	<time>2025-02-15T08:17:46.000Z</time>
</trkpt>
<trkpt lat="45.8488250" lon="9.2330680">
	<ele>907.20</ele>
	<time>2025-02-15T08:17:47.000Z</time>
</trkpt>
<trkpt lat="45.8488240" lon="9.2330670">
	<ele>907.20</ele>
	<time>2025-02-15T08:17:48.000Z</time>
</trkpt>
<trkpt lat="45.8488250" lon="9.2330660">
	<ele>907.20</ele>
	<time>2025-02-15T08:17:49.000Z</time>
</trkpt>
<trkpt lat="45.8488270" lon="9.2330640">
	<ele>907.20</ele>
	<time>2025-02-15T08:17:50.000Z</time>
</trkpt>
<trkpt lat="45.8488310" lon="9.2330610">
	<ele>907.20</ele>
	<time>2025-02-15T08:17:51.000Z</time>
</trkpt>
<trkpt lat="45.8488300" lon="9.2330600">
	<ele>907.20</ele>
	<time>2025-02-15T08:17:52.000Z</time>
</trkpt>
<trkpt lat="45.8488290" lon="9.2330540">
	<ele>907.20</ele>
	<time>2025-02-15T08:17:53.000Z</time>
</trkpt>
<trkpt lat="45.8488300" lon="9.2330540">
	<ele>907.20</ele>
	<time>2025-02-15T08:17:54.000Z</time>
</trkpt>
<trkpt lat="45.8488310" lon="9.2330570">
	<ele>907.40</ele>
	<time>2025-02-15T08:17:55.000Z</time>
</trkpt>
<trkpt lat="45.8488350" lon="9.2330560">
	<ele>907.40</ele>
	<time>2025-02-15T08:17:56.000Z</time>
</trkpt>
<trkpt lat="45.8488390" lon="9.2330580">
	<ele>907.40</ele>
	<time>2025-02-15T08:17:57.000Z</time>
</trkpt>
<trkpt lat="45.8488420" lon="9.2330550">
	<ele>907.60</ele>
	<time>2025-02-15T08:17:58.000Z</time>
</trkpt>
<trkpt lat="45.8488530" lon="9.2330550">
	<ele>907.60</ele>
	<time>2025-02-15T08:17:59.000Z</time>
</trkpt>
<trkpt lat="45.8488620" lon="9.2330590">
	<ele>907.60</ele>
	<time>2025-02-15T08:18:00.000Z</time>
</trkpt>
<trkpt lat="45.8488660" lon="9.2330590">
	<ele>907.60</ele>
	<time>2025-02-15T08:18:01.000Z</time>
</trkpt>
<trkpt lat="45.8488680" lon="9.2330630">
	<ele>907.60</ele>
	<time>2025-02-15T08:18:02.000Z</time>
</trkpt>
<trkpt lat="45.8488690" lon="9.2330640">
	<ele>907.60</ele>
	<time>2025-02-15T08:18:03.000Z</time>
</trkpt>
<trkpt lat="45.8488700" lon="9.2330660">
	<ele>907.60</ele>
	<time>2025-02-15T08:18:04.000Z</time>
</trkpt>
<trkpt lat="45.8488710" lon="9.2330650">
	<ele>907.60</ele>
	<time>2025-02-15T08:18:05.000Z</time>
</trkpt>
<trkpt lat="45.8488700" lon="9.2330670">
	<ele>907.60</ele>
	<time>2025-02-15T08:18:06.000Z</time>
</trkpt>
<trkpt lat="45.8488720" lon="9.2330690">
	<ele>907.60</ele>
	<time>2025-02-15T08:18:07.000Z</time>
</trkpt>
<trkpt lat="45.8488890" lon="9.2330580">
	<ele>907.60</ele>
	<time>2025-02-15T08:18:08.000Z</time>
</trkpt>
<trkpt lat="45.8489000" lon="9.2330510">
	<ele>907.60</ele>
	<time>2025-02-15T08:18:09.000Z</time>
</trkpt>
<trkpt lat="45.8489010" lon="9.2330490">
	<ele>907.60</ele>
	<time>2025-02-15T08:18:10.000Z</time>
</trkpt>
<trkpt lat="45.8489030" lon="9.2330450">
	<ele>907.60</ele>
	<time>2025-02-15T08:18:11.000Z</time>
</trkpt>
<trkpt lat="45.8489010" lon="9.2330410">
	<ele>907.60</ele>
	<time>2025-02-15T08:18:12.000Z</time>
</trkpt>
<trkpt lat="45.8489000" lon="9.2330390">
	<ele>907.60</ele>
	<time>2025-02-15T08:18:13.000Z</time>
</trkpt>
<trkpt lat="45.8489000" lon="9.2330440">
	<ele>907.60</ele>
	<time>2025-02-15T08:18:14.000Z</time>
</trkpt>
<trkpt lat="45.8489020" lon="9.2330500">
	<ele>907.40</ele>
	<time>2025-02-15T08:18:15.000Z</time>
</trkpt>
<trkpt lat="45.8489030" lon="9.2330490">
	<ele>907.40</ele>
	<time>2025-02-15T08:18:16.000Z</time>
</trkpt>
<trkpt lat="45.8489030" lon="9.2330470">
	<ele>907.40</ele>
	<time>2025-02-15T08:18:17.000Z</time>
</trkpt>
<trkpt lat="45.8489020" lon="9.2330440">
	<ele>907.40</ele>
	<time>2025-02-15T08:18:18.000Z</time>
</trkpt>
<trkpt lat="45.8489020" lon="9.2330430">
	<ele>907.40</ele>
	<time>2025-02-15T08:18:19.000Z</time>
</trkpt>
<trkpt lat="45.8489020" lon="9.2330430">
	<ele>907.40</ele>
	<time>2025-02-15T08:18:20.000Z</time>
</trkpt>
<trkpt lat="45.8489020" lon="9.2330430">
	<ele>907.40</ele>
	<time>2025-02-15T08:18:21.000Z</time>
</trkpt>
<trkpt lat="45.8489020" lon="9.2330430">
	<ele>907.40</ele>
	<time>2025-02-15T08:18:22.000Z</time>
</trkpt>
<trkpt lat="45.8489020" lon="9.2330430">
	<ele>907.40</ele>
	<time>2025-02-15T08:18:23.000Z</time>
</trkpt>
<trkpt lat="45.8489020" lon="9.2330430">
	<ele>907.40</ele>
	<time>2025-02-15T08:18:24.000Z</time>
</trkpt>
<trkpt lat="45.8489020" lon="9.2330430">
	<ele>907.40</ele>
	<time>2025-02-15T08:18:25.000Z</time>
</trkpt>
<trkpt lat="45.8489020" lon="9.2330430">
	<ele>907.40</ele>
	<time>2025-02-15T08:18:26.000Z</time>
</trkpt>
<trkpt lat="45.8489020" lon="9.2330430">
	<ele>907.40</ele>
	<time>2025-02-15T08:18:27.000Z</time>
</trkpt>
<trkpt lat="45.8489020" lon="9.2330430">
	<ele>907.40</ele>
	<time>2025-02-15T08:18:28.000Z</time>
</trkpt>
<trkpt lat="45.8489020" lon="9.2330430">
	<ele>907.40</ele>
	<time>2025-02-15T08:18:29.000Z</time>
</trkpt>
<trkpt lat="45.8489020" lon="9.2330430">
	<ele>907.40</ele>
	<time>2025-02-15T08:18:30.000Z</time>
</trkpt>
<trkpt lat="45.8489020" lon="9.2330430">
	<ele>907.40</ele>
	<time>2025-02-15T08:18:31.000Z</time>
</trkpt>
<trkpt lat="45.8489020" lon="9.2330430">
	<ele>907.60</ele>
	<time>2025-02-15T08:18:32.000Z</time>
</trkpt>
<trkpt lat="45.8489020" lon="9.2330430">
	<ele>907.60</ele>
	<time>2025-02-15T08:18:33.000Z</time>
</trkpt>
<trkpt lat="45.8489020" lon="9.2330430">
	<ele>907.60</ele>
	<time>2025-02-15T08:18:34.000Z</time>
</trkpt>
<trkpt lat="45.8489020" lon="9.2330430">
	<ele>907.60</ele>
	<time>2025-02-15T08:18:35.000Z</time>
</trkpt>
<trkpt lat="45.8489020" lon="9.2330430">
	<ele>907.60</ele>
	<time>2025-02-15T08:18:36.000Z</time>
</trkpt>
<trkpt lat="45.8489020" lon="9.2330430">
	<ele>907.60</ele>
	<time>2025-02-15T08:18:37.000Z</time>
</trkpt>
<trkpt lat="45.8489020" lon="9.2330430">
	<ele>907.40</ele>
	<time>2025-02-15T08:18:38.000Z</time>
</trkpt>
<trkpt lat="45.8489030" lon="9.2330430">
	<ele>907.40</ele>
	<time>2025-02-15T08:18:39.000Z</time>
</trkpt>
<trkpt lat="45.8489030" lon="9.2330430">
	<ele>907.40</ele>
	<time>2025-02-15T08:18:40.000Z</time>
</trkpt>
<trkpt lat="45.8489030" lon="9.2330430">
	<ele>907.40</ele>
	<time>2025-02-15T08:18:41.000Z</time>
</trkpt>
<trkpt lat="45.8489030" lon="9.2330430">
	<ele>907.60</ele>
	<time>2025-02-15T08:18:42.000Z</time>
</trkpt>
<trkpt lat="45.8489100" lon="9.2330430">
	<ele>907.60</ele>
	<time>2025-02-15T08:18:43.000Z</time>
</trkpt>
<trkpt lat="45.8489120" lon="9.2330420">
	<ele>907.60</ele>
	<time>2025-02-15T08:18:44.000Z</time>
</trkpt>
<trkpt lat="45.8489140" lon="9.2330410">
	<ele>907.60</ele>
	<time>2025-02-15T08:18:45.000Z</time>
</trkpt>
<trkpt lat="45.8489180" lon="9.2330410">
	<ele>907.60</ele>
	<time>2025-02-15T08:18:46.000Z</time>
</trkpt>
<trkpt lat="45.8489200" lon="9.2330390">
	<ele>907.60</ele>
	<time>2025-02-15T08:18:47.000Z</time>
</trkpt>
<trkpt lat="45.8489210" lon="9.2330380">
	<ele>907.60</ele>
	<time>2025-02-15T08:18:48.000Z</time>
</trkpt>
<trkpt lat="45.8489220" lon="9.2330370">
	<ele>907.60</ele>
	<time>2025-02-15T08:18:49.000Z</time>
</trkpt>
<trkpt lat="45.8489230" lon="9.2330360">
	<ele>907.60</ele>
	<time>2025-02-15T08:18:50.000Z</time>
</trkpt>
<trkpt lat="45.8489230" lon="9.2330390">
	<ele>907.60</ele>
	<time>2025-02-15T08:18:51.000Z</time>
</trkpt>
<trkpt lat="45.8489190" lon="9.2330480">
	<ele>907.60</ele>
	<time>2025-02-15T08:18:52.000Z</time>
</trkpt>
<trkpt lat="45.8489170" lon="9.2330570">
	<ele>907.60</ele>
	<time>2025-02-15T08:18:53.000Z</time>
</trkpt>
<trkpt lat="45.8489220" lon="9.2330660">
	<ele>907.60</ele>
	<time>2025-02-15T08:18:54.000Z</time>
</trkpt>
<trkpt lat="45.8489260" lon="9.2330640">
	<ele>907.40</ele>
	<time>2025-02-15T08:18:55.000Z</time>
</trkpt>
<trkpt lat="45.8489300" lon="9.2330610">
	<ele>907.40</ele>
	<time>2025-02-15T08:18:56.000Z</time>
</trkpt>
<trkpt lat="45.8489320" lon="9.2330640">
	<ele>907.60</ele>
	<time>2025-02-15T08:18:57.000Z</time>
</trkpt>
<trkpt lat="45.8489330" lon="9.2330810">
	<ele>907.60</ele>
	<time>2025-02-15T08:18:58.000Z</time>
</trkpt>
<trkpt lat="45.8489350" lon="9.2330860">
	<ele>907.60</ele>
	<time>2025-02-15T08:18:59.000Z</time>
</trkpt>
<trkpt lat="45.8489330" lon="9.2331090">
	<ele>907.60</ele>
	<time>2025-02-15T08:19:00.000Z</time>
</trkpt>
<trkpt lat="45.8489310" lon="9.2331140">
	<ele>907.60</ele>
	<time>2025-02-15T08:19:01.000Z</time>
</trkpt>
<trkpt lat="45.8489270" lon="9.2331290">
	<ele>907.60</ele>
	<time>2025-02-15T08:19:02.000Z</time>
</trkpt>
<trkpt lat="45.8489280" lon="9.2331420">
	<ele>907.60</ele>
	<time>2025-02-15T08:19:03.000Z</time>
</trkpt>
<trkpt lat="45.8489250" lon="9.2331550">
	<ele>907.80</ele>
	<time>2025-02-15T08:19:04.000Z</time>
</trkpt>
<trkpt lat="45.8489240" lon="9.2331600">
	<ele>907.80</ele>
	<time>2025-02-15T08:19:05.000Z</time>
</trkpt>
<trkpt lat="45.8489320" lon="9.2331610">
	<ele>907.80</ele>
	<time>2025-02-15T08:19:06.000Z</time>
</trkpt>
<trkpt lat="45.8489400" lon="9.2331710">
	<ele>908.00</ele>
	<time>2025-02-15T08:19:07.000Z</time>
</trkpt>
<trkpt lat="45.8489440" lon="9.2331790">
	<ele>908.00</ele>
	<time>2025-02-15T08:19:08.000Z</time>
</trkpt>
<trkpt lat="45.8489430" lon="9.2331820">
	<ele>908.00</ele>
	<time>2025-02-15T08:19:09.000Z</time>
</trkpt>
<trkpt lat="45.8489430" lon="9.2331810">
	<ele>908.00</ele>
	<time>2025-02-15T08:19:10.000Z</time>
</trkpt>
<trkpt lat="45.8489480" lon="9.2331800">
	<ele>908.00</ele>
	<time>2025-02-15T08:19:11.000Z</time>
</trkpt>
<trkpt lat="45.8489520" lon="9.2331800">
	<ele>908.00</ele>
	<time>2025-02-15T08:19:12.000Z</time>
</trkpt>
<trkpt lat="45.8489550" lon="9.2331810">
	<ele>908.20</ele>
	<time>2025-02-15T08:19:13.000Z</time>
</trkpt>
<trkpt lat="45.8489570" lon="9.2331770">
	<ele>908.20</ele>
	<time>2025-02-15T08:19:14.000Z</time>
</trkpt>
<trkpt lat="45.8489620" lon="9.2331760">
	<ele>908.20</ele>
	<time>2025-02-15T08:19:15.000Z</time>
</trkpt>
<trkpt lat="45.8489650" lon="9.2331730">
	<ele>908.40</ele>
	<time>2025-02-15T08:19:16.000Z</time>
</trkpt>
<trkpt lat="45.8489670" lon="9.2331700">
	<ele>908.40</ele>
	<time>2025-02-15T08:19:17.000Z</time>
</trkpt>
<trkpt lat="45.8489690" lon="9.2331760">
	<ele>908.40</ele>
	<time>2025-02-15T08:19:18.000Z</time>
</trkpt>
<trkpt lat="45.8489720" lon="9.2331890">
	<ele>908.40</ele>
	<time>2025-02-15T08:19:19.000Z</time>
</trkpt>
<trkpt lat="45.8489800" lon="9.2332010">
	<ele>908.60</ele>
	<time>2025-02-15T08:19:20.000Z</time>
</trkpt>
<trkpt lat="45.8489880" lon="9.2332040">
	<ele>908.60</ele>
	<time>2025-02-15T08:19:21.000Z</time>
</trkpt>
<trkpt lat="45.8489950" lon="9.2332170">
	<ele>908.60</ele>
	<time>2025-02-15T08:19:22.000Z</time>
</trkpt>
<trkpt lat="45.8490000" lon="9.2332210">
	<ele>908.60</ele>
	<time>2025-02-15T08:19:23.000Z</time>
</trkpt>
<trkpt lat="45.8490060" lon="9.2332300">
	<ele>908.60</ele>
	<time>2025-02-15T08:19:24.000Z</time>
</trkpt>
<trkpt lat="45.8490130" lon="9.2332440">
	<ele>908.60</ele>
	<time>2025-02-15T08:19:25.000Z</time>
</trkpt>
<trkpt lat="45.8490170" lon="9.2332590">
	<ele>908.80</ele>
	<time>2025-02-15T08:19:26.000Z</time>
</trkpt>
<trkpt lat="45.8490070" lon="9.2332710">
	<ele>908.80</ele>
	<time>2025-02-15T08:19:27.000Z</time>
</trkpt>
<trkpt lat="45.8490050" lon="9.2332700">
	<ele>908.80</ele>
	<time>2025-02-15T08:19:28.000Z</time>
</trkpt>
<trkpt lat="45.8490090" lon="9.2332680">
	<ele>909.00</ele>
	<time>2025-02-15T08:19:29.000Z</time>
</trkpt>
<trkpt lat="45.8490120" lon="9.2332770">
	<ele>909.20</ele>
	<time>2025-02-15T08:19:30.000Z</time>
</trkpt>
<trkpt lat="45.8490150" lon="9.2332780">
	<ele>909.20</ele>
	<time>2025-02-15T08:19:31.000Z</time>
</trkpt>
<trkpt lat="45.8490270" lon="9.2332840">
	<ele>909.20</ele>
	<time>2025-02-15T08:19:32.000Z</time>
</trkpt>
<trkpt lat="45.8490360" lon="9.2332920">
	<ele>909.40</ele>
	<time>2025-02-15T08:19:33.000Z</time>
</trkpt>
<trkpt lat="45.8490380" lon="9.2333090">
	<ele>909.40</ele>
	<time>2025-02-15T08:19:34.000Z</time>
</trkpt>
<trkpt lat="45.8490410" lon="9.2333160">
	<ele>909.40</ele>
	<time>2025-02-15T08:19:35.000Z</time>
</trkpt>
<trkpt lat="45.8490420" lon="9.2333280">
	<ele>909.60</ele>
	<time>2025-02-15T08:19:36.000Z</time>
</trkpt>
<trkpt lat="45.8490450" lon="9.2333430">
	<ele>909.60</ele>
	<time>2025-02-15T08:19:37.000Z</time>
</trkpt>
<trkpt lat="45.8490510" lon="9.2333570">
	<ele>909.60</ele>
	<time>2025-02-15T08:19:38.000Z</time>
</trkpt>
<trkpt lat="45.8490500" lon="9.2333680">
	<ele>909.80</ele>
	<time>2025-02-15T08:19:39.000Z</time>
</trkpt>
<trkpt lat="45.8490570" lon="9.2333830">
	<ele>909.80</ele>
	<time>2025-02-15T08:19:40.000Z</time>
</trkpt>
<trkpt lat="45.8490670" lon="9.2334340">
	<ele>909.80</ele>
	<time>2025-02-15T08:19:41.000Z</time>
</trkpt>
<trkpt lat="45.8490830" lon="9.2334620">
	<ele>909.80</ele>
	<time>2025-02-15T08:19:42.000Z</time>
</trkpt>
<trkpt lat="45.8490880" lon="9.2334660">
	<ele>910.00</ele>
	<time>2025-02-15T08:19:43.000Z</time>
</trkpt>
<trkpt lat="45.8490900" lon="9.2334650">
	<ele>910.00</ele>
	<time>2025-02-15T08:19:44.000Z</time>
</trkpt>
<trkpt lat="45.8491050" lon="9.2334640">
	<ele>910.20</ele>
	<time>2025-02-15T08:19:45.000Z</time>
</trkpt>
<trkpt lat="45.8491120" lon="9.2334540">
	<ele>910.20</ele>
	<time>2025-02-15T08:19:46.000Z</time>
</trkpt>
<trkpt lat="45.8491140" lon="9.2334630">
	<ele>910.40</ele>
	<time>2025-02-15T08:19:47.000Z</time>
</trkpt>
<trkpt lat="45.8491120" lon="9.2334800">
	<ele>910.40</ele>
	<time>2025-02-15T08:19:48.000Z</time>
</trkpt>
<trkpt lat="45.8491090" lon="9.2334850">
	<ele>910.40</ele>
	<time>2025-02-15T08:19:49.000Z</time>
</trkpt>
<trkpt lat="45.8491080" lon="9.2334850">
	<ele>910.60</ele>
	<time>2025-02-15T08:19:50.000Z</time>
</trkpt>
<trkpt lat="45.8491060" lon="9.2334820">
	<ele>910.40</ele>
	<time>2025-02-15T08:19:51.000Z</time>
</trkpt>
<trkpt lat="45.8491030" lon="9.2334810">
	<ele>910.60</ele>
	<time>2025-02-15T08:19:52.000Z</time>
</trkpt>
<trkpt lat="45.8491030" lon="9.2334860">
	<ele>910.60</ele>
	<time>2025-02-15T08:19:53.000Z</time>
</trkpt>
<trkpt lat="45.8491070" lon="9.2335040">
	<ele>910.40</ele>
	<time>2025-02-15T08:19:54.000Z</time>
</trkpt>
<trkpt lat="45.8491050" lon="9.2335070">
	<ele>910.60</ele>
	<time>2025-02-15T08:19:55.000Z</time>
</trkpt>
<trkpt lat="45.8491040" lon="9.2335100">
	<ele>910.60</ele>
	<time>2025-02-15T08:19:56.000Z</time>
</trkpt>
<trkpt lat="45.8491020" lon="9.2335280">
	<ele>910.60</ele>
	<time>2025-02-15T08:19:57.000Z</time>
</trkpt>
<trkpt lat="45.8491040" lon="9.2335270">
	<ele>910.60</ele>
	<time>2025-02-15T08:19:58.000Z</time>
</trkpt>
<trkpt lat="45.8491060" lon="9.2335260">
	<ele>910.60</ele>
	<time>2025-02-15T08:19:59.000Z</time>
</trkpt>
<trkpt lat="45.8491200" lon="9.2335290">
	<ele>910.60</ele>
	<time>2025-02-15T08:20:00.000Z</time>
</trkpt>
<trkpt lat="45.8491220" lon="9.2335300">
	<ele>910.60</ele>
	<time>2025-02-15T08:20:01.000Z</time>
</trkpt>
<trkpt lat="45.8491200" lon="9.2335370">
	<ele>910.60</ele>
	<time>2025-02-15T08:20:02.000Z</time>
</trkpt>
<trkpt lat="45.8491160" lon="9.2335450">
	<ele>910.60</ele>
	<time>2025-02-15T08:20:03.000Z</time>
</trkpt>
<trkpt lat="45.8491170" lon="9.2335490">
	<ele>910.60</ele>
	<time>2025-02-15T08:20:04.000Z</time>
</trkpt>
<trkpt lat="45.8491170" lon="9.2335510">
	<ele>910.60</ele>
	<time>2025-02-15T08:20:05.000Z</time>
</trkpt>
<trkpt lat="45.8491190" lon="9.2335550">
	<ele>910.60</ele>
	<time>2025-02-15T08:20:06.000Z</time>
</trkpt>
<trkpt lat="45.8491210" lon="9.2335660">
	<ele>910.60</ele>
	<time>2025-02-15T08:20:07.000Z</time>
</trkpt>
<trkpt lat="45.8491260" lon="9.2335790">
	<ele>910.80</ele>
	<time>2025-02-15T08:20:08.000Z</time>
</trkpt>
<trkpt lat="45.8491290" lon="9.2335810">
	<ele>910.80</ele>
	<time>2025-02-15T08:20:09.000Z</time>
</trkpt>
<trkpt lat="45.8491350" lon="9.2335810">
	<ele>911.00</ele>
	<time>2025-02-15T08:20:10.000Z</time>
</trkpt>
<trkpt lat="45.8491380" lon="9.2335830">
	<ele>911.00</ele>
	<time>2025-02-15T08:20:11.000Z</time>
</trkpt>
<trkpt lat="45.8491450" lon="9.2335850">
	<ele>911.00</ele>
	<time>2025-02-15T08:20:12.000Z</time>
</trkpt>
<trkpt lat="45.8491500" lon="9.2335900">
	<ele>911.00</ele>
	<time>2025-02-15T08:20:13.000Z</time>
</trkpt>
<trkpt lat="45.8491540" lon="9.2335970">
	<ele>910.80</ele>
	<time>2025-02-15T08:20:14.000Z</time>
</trkpt>
<trkpt lat="45.8491610" lon="9.2336060">
	<ele>910.80</ele>
	<time>2025-02-15T08:20:15.000Z</time>
</trkpt>
<trkpt lat="45.8491700" lon="9.2336080">
	<ele>910.80</ele>
	<time>2025-02-15T08:20:16.000Z</time>
</trkpt>
<trkpt lat="45.8491750" lon="9.2336060">
	<ele>910.80</ele>
	<time>2025-02-15T08:20:17.000Z</time>
</trkpt>
<trkpt lat="45.8491810" lon="9.2336100">
	<ele>910.80</ele>
	<time>2025-02-15T08:20:18.000Z</time>
</trkpt>
<trkpt lat="45.8491840" lon="9.2336150">
	<ele>910.60</ele>
	<time>2025-02-15T08:20:19.000Z</time>
</trkpt>
<trkpt lat="45.8491860" lon="9.2336200">
	<ele>910.60</ele>
	<time>2025-02-15T08:20:20.000Z</time>
</trkpt>
<trkpt lat="45.8491890" lon="9.2336300">
	<ele>910.60</ele>
	<time>2025-02-15T08:20:21.000Z</time>
</trkpt>
<trkpt lat="45.8491990" lon="9.2336430">
	<ele>910.40</ele>
	<time>2025-02-15T08:20:22.000Z</time>
</trkpt>
<trkpt lat="45.8492100" lon="9.2336520">
	<ele>910.20</ele>
	<time>2025-02-15T08:20:23.000Z</time>
</trkpt>
<trkpt lat="45.8492200" lon="9.2336580">
	<ele>910.20</ele>
	<time>2025-02-15T08:20:24.000Z</time>
</trkpt>
<trkpt lat="45.8492180" lon="9.2336710">
	<ele>910.00</ele>
	<time>2025-02-15T08:20:25.000Z</time>
</trkpt>
<trkpt lat="45.8492230" lon="9.2336760">
	<ele>909.80</ele>
	<time>2025-02-15T08:20:26.000Z</time>
</trkpt>
<trkpt lat="45.8492300" lon="9.2336900">
	<ele>909.80</ele>
	<time>2025-02-15T08:20:27.000Z</time>
</trkpt>
<trkpt lat="45.8492380" lon="9.2336990">
	<ele>909.80</ele>
	<time>2025-02-15T08:20:28.000Z</time>
</trkpt>
<trkpt lat="45.8492460" lon="9.2337000">
	<ele>909.60</ele>
	<time>2025-02-15T08:20:29.000Z</time>
</trkpt>
<trkpt lat="45.8492440" lon="9.2336990">
	<ele>909.60</ele>
	<time>2025-02-15T08:20:30.000Z</time>
</trkpt>
<trkpt lat="45.8492420" lon="9.2336940">
	<ele>909.60</ele>
	<time>2025-02-15T08:20:31.000Z</time>
</trkpt>
<trkpt lat="45.8492420" lon="9.2336910">
	<ele>909.60</ele>
	<time>2025-02-15T08:20:32.000Z</time>
</trkpt>
<trkpt lat="45.8492630" lon="9.2337010">
	<ele>909.60</ele>
	<time>2025-02-15T08:20:33.000Z</time>
</trkpt>
<trkpt lat="45.8492740" lon="9.2337000">
	<ele>909.60</ele>
	<time>2025-02-15T08:20:34.000Z</time>
</trkpt>
<trkpt lat="45.8492740" lon="9.2337020">
	<ele>909.60</ele>
	<time>2025-02-15T08:20:35.000Z</time>
</trkpt>
<trkpt lat="45.8492740" lon="9.2337070">
	<ele>909.60</ele>
	<time>2025-02-15T08:20:36.000Z</time>
</trkpt>
<trkpt lat="45.8492740" lon="9.2337100">
	<ele>909.60</ele>
	<time>2025-02-15T08:20:37.000Z</time>
</trkpt>
<trkpt lat="45.8492730" lon="9.2337060">
	<ele>909.60</ele>
	<time>2025-02-15T08:20:38.000Z</time>
</trkpt>
<trkpt lat="45.8492730" lon="9.2337030">
	<ele>909.40</ele>
	<time>2025-02-15T08:20:39.000Z</time>
</trkpt>
<trkpt lat="45.8492780" lon="9.2336920">
	<ele>909.40</ele>
	<time>2025-02-15T08:20:40.000Z</time>
</trkpt>
<trkpt lat="45.8492780" lon="9.2336860">
	<ele>909.40</ele>
	<time>2025-02-15T08:20:41.000Z</time>
</trkpt>
<trkpt lat="45.8492650" lon="9.2336730">
	<ele>909.40</ele>
	<time>2025-02-15T08:20:42.000Z</time>
</trkpt>
<trkpt lat="45.8492640" lon="9.2336690">
	<ele>909.40</ele>
	<time>2025-02-15T08:20:43.000Z</time>
</trkpt>
<trkpt lat="45.8492640" lon="9.2336680">
	<ele>909.40</ele>
	<time>2025-02-15T08:20:44.000Z</time>
</trkpt>
<trkpt lat="45.8492630" lon="9.2336630">
	<ele>909.20</ele>
	<time>2025-02-15T08:20:45.000Z</time>
</trkpt>
<trkpt lat="45.8492650" lon="9.2336600">
	<ele>909.20</ele>
	<time>2025-02-15T08:20:46.000Z</time>
</trkpt>
<trkpt lat="45.8492700" lon="9.2336600">
	<ele>909.20</ele>
	<time>2025-02-15T08:20:47.000Z</time>
</trkpt>
<trkpt lat="45.8492780" lon="9.2336570">
	<ele>909.20</ele>
	<time>2025-02-15T08:20:48.000Z</time>
</trkpt>
<trkpt lat="45.8492800" lon="9.2336620">
	<ele>909.20</ele>
	<time>2025-02-15T08:20:49.000Z</time>
</trkpt>
<trkpt lat="45.8492850" lon="9.2336600">
	<ele>909.20</ele>
	<time>2025-02-15T08:20:50.000Z</time>
</trkpt>
<trkpt lat="45.8492850" lon="9.2336560">
	<ele>909.40</ele>
	<time>2025-02-15T08:20:51.000Z</time>
</trkpt>
<trkpt lat="45.8492910" lon="9.2336450">
	<ele>909.40</ele>
	<time>2025-02-15T08:20:52.000Z</time>
</trkpt>
<trkpt lat="45.8492920" lon="9.2336410">
	<ele>909.40</ele>
	<time>2025-02-15T08:20:53.000Z</time>
</trkpt>
<trkpt lat="45.8492930" lon="9.2336460">
	<ele>909.40</ele>
	<time>2025-02-15T08:20:54.000Z</time>
</trkpt>
<trkpt lat="45.8492940" lon="9.2336360">
	<ele>909.40</ele>
	<time>2025-02-15T08:20:55.000Z</time>
</trkpt>
<trkpt lat="45.8492940" lon="9.2336320">
	<ele>909.40</ele>
	<time>2025-02-15T08:20:56.000Z</time>
</trkpt>
<trkpt lat="45.8492920" lon="9.2336340">
	<ele>909.40</ele>
	<time>2025-02-15T08:20:57.000Z</time>
</trkpt>
<trkpt lat="45.8492920" lon="9.2336340">
	<ele>909.40</ele>
	<time>2025-02-15T08:20:58.000Z</time>
</trkpt>
<trkpt lat="45.8492920" lon="9.2336340">
	<ele>909.40</ele>
	<time>2025-02-15T08:20:59.000Z</time>
</trkpt>
<trkpt lat="45.8492920" lon="9.2336340">
	<ele>909.40</ele>
	<time>2025-02-15T08:21:00.000Z</time>
</trkpt>
<trkpt lat="45.8492920" lon="9.2336340">
	<ele>909.40</ele>
	<time>2025-02-15T08:21:01.000Z</time>
</trkpt>
<trkpt lat="45.8492920" lon="9.2336340">
	<ele>909.40</ele>
	<time>2025-02-15T08:21:02.000Z</time>
</trkpt>
<trkpt lat="45.8492920" lon="9.2336340">
	<ele>909.40</ele>
	<time>2025-02-15T08:21:03.000Z</time>
</trkpt>
<trkpt lat="45.8492920" lon="9.2336340">
	<ele>909.40</ele>
	<time>2025-02-15T08:21:04.000Z</time>
</trkpt>
<trkpt lat="45.8492920" lon="9.2336340">
	<ele>909.40</ele>
	<time>2025-02-15T08:21:05.000Z</time>
</trkpt>
<trkpt lat="45.8492920" lon="9.2336340">
	<ele>909.20</ele>
	<time>2025-02-15T08:21:06.000Z</time>
</trkpt>
<trkpt lat="45.8492920" lon="9.2336360">
	<ele>909.20</ele>
	<time>2025-02-15T08:21:07.000Z</time>
</trkpt>
<trkpt lat="45.8492920" lon="9.2336360">
	<ele>909.20</ele>
	<time>2025-02-15T08:21:08.000Z</time>
</trkpt>
<trkpt lat="45.8492920" lon="9.2336360">
	<ele>909.00</ele>
	<time>2025-02-15T08:21:09.000Z</time>
</trkpt>
<trkpt lat="45.8492920" lon="9.2336360">
	<ele>909.00</ele>
	<time>2025-02-15T08:21:10.000Z</time>
</trkpt>
<trkpt lat="45.8492920" lon="9.2336360">
	<ele>909.00</ele>
	<time>2025-02-15T08:21:11.000Z</time>
</trkpt>
<trkpt lat="45.8492920" lon="9.2336360">
	<ele>909.00</ele>
	<time>2025-02-15T08:21:12.000Z</time>
</trkpt>
<trkpt lat="45.8492930" lon="9.2336360">
	<ele>909.00</ele>
	<time>2025-02-15T08:21:13.000Z</time>
</trkpt>
<trkpt lat="45.8492940" lon="9.2336360">
	<ele>909.00</ele>
	<time>2025-02-15T08:21:14.000Z</time>
</trkpt>
<trkpt lat="45.8492940" lon="9.2336360">
	<ele>909.00</ele>
	<time>2025-02-15T08:21:15.000Z</time>
</trkpt>
<trkpt lat="45.8492940" lon="9.2336360">
	<ele>909.00</ele>
	<time>2025-02-15T08:21:16.000Z</time>
</trkpt>
<trkpt lat="45.8492950" lon="9.2336370">
	<ele>909.00</ele>
	<time>2025-02-15T08:21:17.000Z</time>
</trkpt>
<trkpt lat="45.8492960" lon="9.2336370">
	<ele>909.20</ele>
	<time>2025-02-15T08:21:18.000Z</time>
</trkpt>
<trkpt lat="45.8492960" lon="9.2336370">
	<ele>909.20</ele>
	<time>2025-02-15T08:21:19.000Z</time>
</trkpt>
<trkpt lat="45.8492960" lon="9.2336370">
	<ele>909.20</ele>
	<time>2025-02-15T08:21:20.000Z</time>
</trkpt>
<trkpt lat="45.8492960" lon="9.2336370">
	<ele>909.20</ele>
	<time>2025-02-15T08:21:21.000Z</time>
</trkpt>
<trkpt lat="45.8492960" lon="9.2336370">
	<ele>909.20</ele>
	<time>2025-02-15T08:21:22.000Z</time>
</trkpt>
<trkpt lat="45.8492960" lon="9.2336370">
	<ele>909.20</ele>
	<time>2025-02-15T08:21:23.000Z</time>
</trkpt>
<trkpt lat="45.8492960" lon="9.2336370">
	<ele>909.20</ele>
	<time>2025-02-15T08:21:24.000Z</time>
</trkpt>
<trkpt lat="45.8492960" lon="9.2336380">
	<ele>909.20</ele>
	<time>2025-02-15T08:21:25.000Z</time>
</trkpt>
<trkpt lat="45.8492960" lon="9.2336380">
	<ele>909.20</ele>
	<time>2025-02-15T08:21:26.000Z</time>
</trkpt>
<trkpt lat="45.8492960" lon="9.2336390">
	<ele>909.20</ele>
	<time>2025-02-15T08:21:27.000Z</time>
</trkpt>
<trkpt lat="45.8492970" lon="9.2336400">
	<ele>909.20</ele>
	<time>2025-02-15T08:21:28.000Z</time>
</trkpt>
<trkpt lat="45.8492970" lon="9.2336410">
	<ele>909.20</ele>
	<time>2025-02-15T08:21:29.000Z</time>
</trkpt>
<trkpt lat="45.8492970" lon="9.2336420">
	<ele>909.20</ele>
	<time>2025-02-15T08:21:30.000Z</time>
</trkpt>
<trkpt lat="45.8492980" lon="9.2336430">
	<ele>909.20</ele>
	<time>2025-02-15T08:21:31.000Z</time>
</trkpt>
<trkpt lat="45.8492980" lon="9.2336440">
	<ele>909.20</ele>
	<time>2025-02-15T08:21:32.000Z</time>
</trkpt>
<trkpt lat="45.8492980" lon="9.2336450">
	<ele>909.20</ele>
	<time>2025-02-15T08:21:33.000Z</time>
</trkpt>
<trkpt lat="45.8492990" lon="9.2336460">
	<ele>909.20</ele>
	<time>2025-02-15T08:21:34.000Z</time>
</trkpt>
<trkpt lat="45.8492990" lon="9.2336490">
	<ele>909.20</ele>
	<time>2025-02-15T08:21:35.000Z</time>
</trkpt>
<trkpt lat="45.8492990" lon="9.2336560">
	<ele>909.20</ele>
	<time>2025-02-15T08:21:36.000Z</time>
</trkpt>
<trkpt lat="45.8493000" lon="9.2336580">
	<ele>909.20</ele>
	<time>2025-02-15T08:21:37.000Z</time>
</trkpt>
<trkpt lat="45.8493030" lon="9.2336610">
	<ele>909.20</ele>
	<time>2025-02-15T08:21:38.000Z</time>
</trkpt>
<trkpt lat="45.8493050" lon="9.2336620">
	<ele>909.20</ele>
	<time>2025-02-15T08:21:39.000Z</time>
</trkpt>
<trkpt lat="45.8493090" lon="9.2336620">
	<ele>909.20</ele>
	<time>2025-02-15T08:21:40.000Z</time>
</trkpt>
<trkpt lat="45.8493110" lon="9.2336630">
	<ele>909.20</ele>
	<time>2025-02-15T08:21:41.000Z</time>
</trkpt>
<trkpt lat="45.8493110" lon="9.2336630">
	<ele>909.40</ele>
	<time>2025-02-15T08:21:42.000Z</time>
</trkpt>
<trkpt lat="45.8493120" lon="9.2336640">
	<ele>909.40</ele>
	<time>2025-02-15T08:21:43.000Z</time>
</trkpt>
<trkpt lat="45.8493120" lon="9.2336640">
	<ele>909.40</ele>
	<time>2025-02-15T08:21:44.000Z</time>
</trkpt>
<trkpt lat="45.8493130" lon="9.2336640">
	<ele>909.40</ele>
	<time>2025-02-15T08:21:45.000Z</time>
</trkpt>
<trkpt lat="45.8493140" lon="9.2336640">
	<ele>909.40</ele>
	<time>2025-02-15T08:21:46.000Z</time>
</trkpt>
<trkpt lat="45.8493140" lon="9.2336640">
	<ele>909.40</ele>
	<time>2025-02-15T08:21:47.000Z</time>
</trkpt>
<trkpt lat="45.8493150" lon="9.2336650">
	<ele>909.60</ele>
	<time>2025-02-15T08:21:48.000Z</time>
</trkpt>
<trkpt lat="45.8493200" lon="9.2336650">
	<ele>909.60</ele>
	<time>2025-02-15T08:21:49.000Z</time>
</trkpt>
<trkpt lat="45.8493260" lon="9.2336690">
	<ele>909.80</ele>
	<time>2025-02-15T08:21:50.000Z</time>
</trkpt>
<trkpt lat="45.8493320" lon="9.2336780">
	<ele>910.00</ele>
	<time>2025-02-15T08:21:51.000Z</time>
</trkpt>
<trkpt lat="45.8493360" lon="9.2336770">
	<ele>910.20</ele>
	<time>2025-02-15T08:21:52.000Z</time>
</trkpt>
<trkpt lat="45.8493410" lon="9.2336800">
	<ele>910.20</ele>
	<time>2025-02-15T08:21:53.000Z</time>
</trkpt>
<trkpt lat="45.8493480" lon="9.2336840">
	<ele>910.20</ele>
	<time>2025-02-15T08:21:54.000Z</time>
</trkpt>
<trkpt lat="45.8493570" lon="9.2336980">
	<ele>910.40</ele>
	<time>2025-02-15T08:21:55.000Z</time>
</trkpt>
<trkpt lat="45.8493610" lon="9.2337070">
	<ele>910.40</ele>
	<time>2025-02-15T08:21:56.000Z</time>
</trkpt>
<trkpt lat="45.8493720" lon="9.2337080">
	<ele>910.60</ele>
	<time>2025-02-15T08:21:57.000Z</time>
</trkpt>
<trkpt lat="45.8493790" lon="9.2337120">
	<ele>910.60</ele>
	<time>2025-02-15T08:21:58.000Z</time>
</trkpt>
<trkpt lat="45.8493920" lon="9.2337110">
	<ele>910.80</ele>
	<time>2025-02-15T08:21:59.000Z</time>
</trkpt>
<trkpt lat="45.8493950" lon="9.2337050">
	<ele>910.80</ele>
	<time>2025-02-15T08:22:00.000Z</time>
</trkpt>
<trkpt lat="45.8493930" lon="9.2337040">
	<ele>910.80</ele>
	<time>2025-02-15T08:22:01.000Z</time>
</trkpt>
<trkpt lat="45.8493930" lon="9.2337010">
	<ele>910.80</ele>
	<time>2025-02-15T08:22:02.000Z</time>
</trkpt>
<trkpt lat="45.8493940" lon="9.2336980">
	<ele>910.80</ele>
	<time>2025-02-15T08:22:03.000Z</time>
</trkpt>
<trkpt lat="45.8494040" lon="9.2336940">
	<ele>911.00</ele>
	<time>2025-02-15T08:22:04.000Z</time>
</trkpt>
<trkpt lat="45.8494100" lon="9.2336900">
	<ele>911.00</ele>
	<time>2025-02-15T08:22:05.000Z</time>
</trkpt>
<trkpt lat="45.8494130" lon="9.2336970">
	<ele>911.00</ele>
	<time>2025-02-15T08:22:06.000Z</time>
</trkpt>
<trkpt lat="45.8494180" lon="9.2337060">
	<ele>911.00</ele>
	<time>2025-02-15T08:22:07.000Z</time>
</trkpt>
<trkpt lat="45.8494200" lon="9.2337100">
	<ele>911.20</ele>
	<time>2025-02-15T08:22:08.000Z</time>
</trkpt>
<trkpt lat="45.8494220" lon="9.2337100">
	<ele>911.20</ele>
	<time>2025-02-15T08:22:09.000Z</time>
</trkpt>
<trkpt lat="45.8494230" lon="9.2337060">
	<ele>911.40</ele>
	<time>2025-02-15T08:22:10.000Z</time>
</trkpt>
<trkpt lat="45.8494250" lon="9.2337060">
	<ele>911.40</ele>
	<time>2025-02-15T08:22:11.000Z</time>
</trkpt>
<trkpt lat="45.8494350" lon="9.2337140">
	<ele>911.40</ele>
	<time>2025-02-15T08:22:12.000Z</time>
</trkpt>
<trkpt lat="45.8494400" lon="9.2337200">
	<ele>911.40</ele>
	<time>2025-02-15T08:22:13.000Z</time>
</trkpt>
<trkpt lat="45.8494430" lon="9.2337250">
	<ele>911.40</ele>
	<time>2025-02-15T08:22:14.000Z</time>
</trkpt>
<trkpt lat="45.8494450" lon="9.2337260">
	<ele>911.60</ele>
	<time>2025-02-15T08:22:15.000Z</time>
</trkpt>
<trkpt lat="45.8494470" lon="9.2337280">
	<ele>911.80</ele>
	<time>2025-02-15T08:22:16.000Z</time>
</trkpt>
<trkpt lat="45.8494500" lon="9.2337280">
	<ele>912.00</ele>
	<time>2025-02-15T08:22:17.000Z</time>
</trkpt>
<trkpt lat="45.8494550" lon="9.2337220">
	<ele>912.00</ele>
	<time>2025-02-15T08:22:18.000Z</time>
</trkpt>
<trkpt lat="45.8494580" lon="9.2337150">
	<ele>912.20</ele>
	<time>2025-02-15T08:22:19.000Z</time>
</trkpt>
<trkpt lat="45.8494650" lon="9.2337150">
	<ele>912.20</ele>
	<time>2025-02-15T08:22:20.000Z</time>
</trkpt>
<trkpt lat="45.8494670" lon="9.2337140">
	<ele>912.20</ele>
	<time>2025-02-15T08:22:21.000Z</time>
</trkpt>
<trkpt lat="45.8494730" lon="9.2337150">
	<ele>912.20</ele>
	<time>2025-02-15T08:22:22.000Z</time>
</trkpt>
<trkpt lat="45.8494830" lon="9.2337160">
	<ele>912.40</ele>
	<time>2025-02-15T08:22:23.000Z</time>
</trkpt>
<trkpt lat="45.8494870" lon="9.2337160">
	<ele>912.40</ele>
	<time>2025-02-15T08:22:24.000Z</time>
</trkpt>
<trkpt lat="45.8494880" lon="9.2337190">
	<ele>912.40</ele>
	<time>2025-02-15T08:22:25.000Z</time>
</trkpt>
<trkpt lat="45.8494920" lon="9.2337150">
	<ele>912.40</ele>
	<time>2025-02-15T08:22:26.000Z</time>
</trkpt>
<trkpt lat="45.8494950" lon="9.2337160">
	<ele>912.40</ele>
	<time>2025-02-15T08:22:27.000Z</time>
</trkpt>
<trkpt lat="45.8494980" lon="9.2337190">
	<ele>912.40</ele>
	<time>2025-02-15T08:22:28.000Z</time>
</trkpt>
<trkpt lat="45.8495060" lon="9.2337180">
	<ele>912.60</ele>
	<time>2025-02-15T08:22:29.000Z</time>
</trkpt>
<trkpt lat="45.8495100" lon="9.2337140">
	<ele>912.60</ele>
	<time>2025-02-15T08:22:30.000Z</time>
</trkpt>
<trkpt lat="45.8495100" lon="9.2337110">
	<ele>912.60</ele>
	<time>2025-02-15T08:22:31.000Z</time>
</trkpt>
<trkpt lat="45.8495170" lon="9.2337220">
	<ele>912.60</ele>
	<time>2025-02-15T08:22:32.000Z</time>
</trkpt>
<trkpt lat="45.8495190" lon="9.2337250">
	<ele>912.60</ele>
	<time>2025-02-15T08:22:33.000Z</time>
</trkpt>
<trkpt lat="45.8495180" lon="9.2337250">
	<ele>912.60</ele>
	<time>2025-02-15T08:22:34.000Z</time>
</trkpt>
<trkpt lat="45.8495170" lon="9.2337220">
	<ele>912.60</ele>
	<time>2025-02-15T08:22:35.000Z</time>
</trkpt>
<trkpt lat="45.8495220" lon="9.2337320">
	<ele>912.60</ele>
	<time>2025-02-15T08:22:36.000Z</time>
</trkpt>
<trkpt lat="45.8495200" lon="9.2337330">
	<ele>912.60</ele>
	<time>2025-02-15T08:22:37.000Z</time>
</trkpt>
<trkpt lat="45.8495180" lon="9.2337350">
	<ele>912.60</ele>
	<time>2025-02-15T08:22:38.000Z</time>
</trkpt>
<trkpt lat="45.8495160" lon="9.2337430">
	<ele>912.60</ele>
	<time>2025-02-15T08:22:39.000Z</time>
</trkpt>
<trkpt lat="45.8495130" lon="9.2337480">
	<ele>912.60</ele>
	<time>2025-02-15T08:22:40.000Z</time>
</trkpt>
<trkpt lat="45.8495120" lon="9.2337490">
	<ele>912.60</ele>
	<time>2025-02-15T08:22:41.000Z</time>
</trkpt>
<trkpt lat="45.8495130" lon="9.2337480">
	<ele>912.60</ele>
	<time>2025-02-15T08:22:42.000Z</time>
</trkpt>
<trkpt lat="45.8495130" lon="9.2337480">
	<ele>912.80</ele>
	<time>2025-02-15T08:22:43.000Z</time>
</trkpt>
<trkpt lat="45.8495130" lon="9.2337480">
	<ele>912.80</ele>
	<time>2025-02-15T08:22:44.000Z</time>
</trkpt>
<trkpt lat="45.8495130" lon="9.2337480">
	<ele>912.80</ele>
	<time>2025-02-15T08:22:45.000Z</time>
</trkpt>
<trkpt lat="45.8495130" lon="9.2337480">
	<ele>912.80</ele>
	<time>2025-02-15T08:22:46.000Z</time>
</trkpt>
<trkpt lat="45.8495130" lon="9.2337480">
	<ele>912.80</ele>
	<time>2025-02-15T08:22:47.000Z</time>
</trkpt>
<trkpt lat="45.8495130" lon="9.2337480">
	<ele>912.80</ele>
	<time>2025-02-15T08:22:48.000Z</time>
</trkpt>
<trkpt lat="45.8495130" lon="9.2337480">
	<ele>912.80</ele>
	<time>2025-02-15T08:22:49.000Z</time>
</trkpt>
<trkpt lat="45.8495130" lon="9.2337480">
	<ele>912.80</ele>
	<time>2025-02-15T08:22:50.000Z</time>
</trkpt>
<trkpt lat="45.8495130" lon="9.2337480">
	<ele>912.60</ele>
	<time>2025-02-15T08:22:51.000Z</time>
</trkpt>
<trkpt lat="45.8495140" lon="9.2337480">
	<ele>912.60</ele>
	<time>2025-02-15T08:22:52.000Z</time>
</trkpt>
<trkpt lat="45.8495150" lon="9.2337480">
	<ele>912.60</ele>
	<time>2025-02-15T08:22:53.000Z</time>
</trkpt>
<trkpt lat="45.8495150" lon="9.2337480">
	<ele>912.80</ele>
	<time>2025-02-15T08:22:54.000Z</time>
</trkpt>
<trkpt lat="45.8495150" lon="9.2337480">
	<ele>912.80</ele>
	<time>2025-02-15T08:22:55.000Z</time>
</trkpt>
<trkpt lat="45.8495160" lon="9.2337480">
	<ele>912.80</ele>
	<time>2025-02-15T08:22:56.000Z</time>
</trkpt>
<trkpt lat="45.8495160" lon="9.2337480">
	<ele>912.80</ele>
	<time>2025-02-15T08:22:57.000Z</time>
</trkpt>
<trkpt lat="45.8495160" lon="9.2337480">
	<ele>912.80</ele>
	<time>2025-02-15T08:22:58.000Z</time>
</trkpt>
<trkpt lat="45.8495160" lon="9.2337490">
	<ele>912.80</ele>
	<time>2025-02-15T08:22:59.000Z</time>
</trkpt>
<trkpt lat="45.8495170" lon="9.2337490">
	<ele>912.80</ele>
	<time>2025-02-15T08:23:00.000Z</time>
</trkpt>
<trkpt lat="45.8495170" lon="9.2337520">
	<ele>912.80</ele>
	<time>2025-02-15T08:23:01.000Z</time>
</trkpt>
<trkpt lat="45.8495170" lon="9.2337550">
	<ele>912.80</ele>
	<time>2025-02-15T08:23:02.000Z</time>
</trkpt>
<trkpt lat="45.8495170" lon="9.2337570">
	<ele>912.80</ele>
	<time>2025-02-15T08:23:03.000Z</time>
</trkpt>
<trkpt lat="45.8495170" lon="9.2337580">
	<ele>912.80</ele>
	<time>2025-02-15T08:23:04.000Z</time>
</trkpt>
<trkpt lat="45.8495170" lon="9.2337580">
	<ele>912.80</ele>
	<time>2025-02-15T08:23:05.000Z</time>
</trkpt>
<trkpt lat="45.8495170" lon="9.2337580">
	<ele>912.80</ele>
	<time>2025-02-15T08:23:06.000Z</time>
</trkpt>
<trkpt lat="45.8495170" lon="9.2337580">
	<ele>912.80</ele>
	<time>2025-02-15T08:23:07.000Z</time>
</trkpt>
<trkpt lat="45.8495170" lon="9.2337580">
	<ele>912.80</ele>
	<time>2025-02-15T08:23:08.000Z</time>
</trkpt>
<trkpt lat="45.8495170" lon="9.2337580">
	<ele>912.80</ele>
	<time>2025-02-15T08:23:09.000Z</time>
</trkpt>
<trkpt lat="45.8495170" lon="9.2337590">
	<ele>912.80</ele>
	<time>2025-02-15T08:23:10.000Z</time>
</trkpt>
<trkpt lat="45.8495180" lon="9.2337600">
	<ele>912.80</ele>
	<time>2025-02-15T08:23:11.000Z</time>
</trkpt>
<trkpt lat="45.8495180" lon="9.2337600">
	<ele>912.80</ele>
	<time>2025-02-15T08:23:12.000Z</time>
</trkpt>
<trkpt lat="45.8495190" lon="9.2337600">
	<ele>912.80</ele>
	<time>2025-02-15T08:23:13.000Z</time>
</trkpt>
<trkpt lat="45.8495190" lon="9.2337610">
	<ele>913.00</ele>
	<time>2025-02-15T08:23:14.000Z</time>
</trkpt>
<trkpt lat="45.8495200" lon="9.2337620">
	<ele>913.00</ele>
	<time>2025-02-15T08:23:15.000Z</time>
</trkpt>
<trkpt lat="45.8495200" lon="9.2337620">
	<ele>913.00</ele>
	<time>2025-02-15T08:23:16.000Z</time>
</trkpt>
<trkpt lat="45.8495200" lon="9.2337620">
	<ele>913.00</ele>
	<time>2025-02-15T08:23:17.000Z</time>
</trkpt>
<trkpt lat="45.8495200" lon="9.2337620">
	<ele>913.00</ele>
	<time>2025-02-15T08:23:18.000Z</time>
</trkpt>
<trkpt lat="45.8495200" lon="9.2337630">
	<ele>913.00</ele>
	<time>2025-02-15T08:23:19.000Z</time>
</trkpt>
<trkpt lat="45.8495210" lon="9.2337630">
	<ele>913.00</ele>
	<time>2025-02-15T08:23:20.000Z</time>
</trkpt>
<trkpt lat="45.8495220" lon="9.2337630">
	<ele>913.00</ele>
	<time>2025-02-15T08:23:21.000Z</time>
</trkpt>
<trkpt lat="45.8495220" lon="9.2337630">
	<ele>913.00</ele>
	<time>2025-02-15T08:23:22.000Z</time>
</trkpt>
<trkpt lat="45.8495230" lon="9.2337630">
	<ele>913.00</ele>
	<time>2025-02-15T08:23:23.000Z</time>
</trkpt>
<trkpt lat="45.8495240" lon="9.2337660">
	<ele>913.00</ele>
	<time>2025-02-15T08:23:24.000Z</time>
</trkpt>
<trkpt lat="45.8495250" lon="9.2337710">
	<ele>913.00</ele>
	<time>2025-02-15T08:23:25.000Z</time>
</trkpt>
<trkpt lat="45.8495280" lon="9.2337720">
	<ele>913.00</ele>
	<time>2025-02-15T08:23:26.000Z</time>
</trkpt>
<trkpt lat="45.8495290" lon="9.2337720">
	<ele>913.00</ele>
	<time>2025-02-15T08:23:27.000Z</time>
</trkpt>
<trkpt lat="45.8495290" lon="9.2337720">
	<ele>913.20</ele>
	<time>2025-02-15T08:23:28.000Z</time>
</trkpt>
<trkpt lat="45.8495290" lon="9.2337720">
	<ele>913.20</ele>
	<time>2025-02-15T08:23:29.000Z</time>
</trkpt>
<trkpt lat="45.8495300" lon="9.2337730">
	<ele>913.20</ele>
	<time>2025-02-15T08:23:30.000Z</time>
</trkpt>
<trkpt lat="45.8495300" lon="9.2337730">
	<ele>913.40</ele>
	<time>2025-02-15T08:23:31.000Z</time>
</trkpt>
<trkpt lat="45.8495300" lon="9.2337730">
	<ele>913.40</ele>
	<time>2025-02-15T08:23:32.000Z</time>
</trkpt>
<trkpt lat="45.8495300" lon="9.2337730">
	<ele>913.40</ele>
	<time>2025-02-15T08:23:33.000Z</time>
</trkpt>
<trkpt lat="45.8495300" lon="9.2337730">
	<ele>913.40</ele>
	<time>2025-02-15T08:23:34.000Z</time>
</trkpt>
<trkpt lat="45.8495300" lon="9.2337730">
	<ele>913.40</ele>
	<time>2025-02-15T08:23:35.000Z</time>
</trkpt>
<trkpt lat="45.8495320" lon="9.2337730">
	<ele>913.20</ele>
	<time>2025-02-15T08:23:36.000Z</time>
</trkpt>
<trkpt lat="45.8495330" lon="9.2337730">
	<ele>913.20</ele>
	<time>2025-02-15T08:23:37.000Z</time>
</trkpt>
<trkpt lat="45.8495350" lon="9.2337730">
	<ele>913.20</ele>
	<time>2025-02-15T08:23:38.000Z</time>
</trkpt>
<trkpt lat="45.8495380" lon="9.2337730">
	<ele>913.20</ele>
	<time>2025-02-15T08:23:39.000Z</time>
</trkpt>
<trkpt lat="45.8495410" lon="9.2337730">
	<ele>913.00</ele>
	<time>2025-02-15T08:23:40.000Z</time>
</trkpt>
<trkpt lat="45.8495420" lon="9.2337730">
	<ele>913.00</ele>
	<time>2025-02-15T08:23:41.000Z</time>
</trkpt>
<trkpt lat="45.8495420" lon="9.2337730">
	<ele>913.00</ele>
	<time>2025-02-15T08:23:42.000Z</time>
</trkpt>
<trkpt lat="45.8495420" lon="9.2337730">
	<ele>913.00</ele>
	<time>2025-02-15T08:23:43.000Z</time>
</trkpt>
<trkpt lat="45.8495420" lon="9.2337730">
	<ele>913.00</ele>
	<time>2025-02-15T08:23:44.000Z</time>
</trkpt>
<trkpt lat="45.8495420" lon="9.2337730">
	<ele>913.00</ele>
	<time>2025-02-15T08:23:45.000Z</time>
</trkpt>
<trkpt lat="45.8495420" lon="9.2337730">
	<ele>913.00</ele>
	<time>2025-02-15T08:23:46.000Z</time>
</trkpt>
<trkpt lat="45.8495420" lon="9.2337740">
	<ele>913.00</ele>
	<time>2025-02-15T08:23:47.000Z</time>
</trkpt>
<trkpt lat="45.8495420" lon="9.2337740">
	<ele>913.00</ele>
	<time>2025-02-15T08:23:48.000Z</time>
</trkpt>
<trkpt lat="45.8495420" lon="9.2337740">
	<ele>913.00</ele>
	<time>2025-02-15T08:23:49.000Z</time>
</trkpt>
<trkpt lat="45.8495420" lon="9.2337730">
	<ele>913.00</ele>
	<time>2025-02-15T08:23:50.000Z</time>
</trkpt>
<trkpt lat="45.8495420" lon="9.2337730">
	<ele>913.00</ele>
	<time>2025-02-15T08:23:51.000Z</time>
</trkpt>
<trkpt lat="45.8495420" lon="9.2337730">
	<ele>913.00</ele>
	<time>2025-02-15T08:23:52.000Z</time>
</trkpt>
<trkpt lat="45.8495420" lon="9.2337730">
	<ele>913.00</ele>
	<time>2025-02-15T08:23:53.000Z</time>
</trkpt>
<trkpt lat="45.8495420" lon="9.2337730">
	<ele>913.20</ele>
	<time>2025-02-15T08:23:54.000Z</time>
</trkpt>
<trkpt lat="45.8495420" lon="9.2337730">
	<ele>913.20</ele>
	<time>2025-02-15T08:23:55.000Z</time>
</trkpt>
<trkpt lat="45.8495420" lon="9.2337730">
	<ele>913.20</ele>
	<time>2025-02-15T08:23:56.000Z</time>
</trkpt>
<trkpt lat="45.8495420" lon="9.2337730">
	<ele>913.20</ele>
	<time>2025-02-15T08:23:57.000Z</time>
</trkpt>
<trkpt lat="45.8495420" lon="9.2337720">
	<ele>913.20</ele>
	<time>2025-02-15T08:23:58.000Z</time>
</trkpt>
<trkpt lat="45.8495420" lon="9.2337720">
	<ele>913.20</ele>
	<time>2025-02-15T08:23:59.000Z</time>
</trkpt>
<trkpt lat="45.8495420" lon="9.2337710">
	<ele>913.20</ele>
	<time>2025-02-15T08:24:00.000Z</time>
</trkpt>
<trkpt lat="45.8495420" lon="9.2337710">
	<ele>913.20</ele>
	<time>2025-02-15T08:24:01.000Z</time>
</trkpt>
<trkpt lat="45.8495420" lon="9.2337710">
	<ele>913.20</ele>
	<time>2025-02-15T08:24:02.000Z</time>
</trkpt>
<trkpt lat="45.8495420" lon="9.2337710">
	<ele>913.20</ele>
	<time>2025-02-15T08:24:03.000Z</time>
</trkpt>
<trkpt lat="45.8495420" lon="9.2337710">
	<ele>913.20</ele>
	<time>2025-02-15T08:24:04.000Z</time>
</trkpt>
<trkpt lat="45.8495420" lon="9.2337710">
	<ele>913.20</ele>
	<time>2025-02-15T08:24:05.000Z</time>
</trkpt>
<trkpt lat="45.8495420" lon="9.2337710">
	<ele>913.20</ele>
	<time>2025-02-15T08:24:06.000Z</time>
</trkpt>
<trkpt lat="45.8495430" lon="9.2337710">
	<ele>913.20</ele>
	<time>2025-02-15T08:24:07.000Z</time>
</trkpt>
<trkpt lat="45.8495430" lon="9.2337710">
	<ele>913.20</ele>
	<time>2025-02-15T08:24:08.000Z</time>
</trkpt>
<trkpt lat="45.8495430" lon="9.2337710">
	<ele>913.20</ele>
	<time>2025-02-15T08:24:09.000Z</time>
</trkpt>
<trkpt lat="45.8495430" lon="9.2337700">
	<ele>913.20</ele>
	<time>2025-02-15T08:24:10.000Z</time>
</trkpt>
<trkpt lat="45.8495430" lon="9.2337700">
	<ele>913.20</ele>
	<time>2025-02-15T08:24:11.000Z</time>
</trkpt>
<trkpt lat="45.8495440" lon="9.2337700">
	<ele>913.20</ele>
	<time>2025-02-15T08:24:12.000Z</time>
</trkpt>
<trkpt lat="45.8495440" lon="9.2337700">
	<ele>913.20</ele>
	<time>2025-02-15T08:24:13.000Z</time>
</trkpt>
<trkpt lat="45.8495450" lon="9.2337700">
	<ele>913.20</ele>
	<time>2025-02-15T08:24:14.000Z</time>
</trkpt>
<trkpt lat="45.8495450" lon="9.2337700">
	<ele>913.20</ele>
	<time>2025-02-15T08:24:15.000Z</time>
</trkpt>
<trkpt lat="45.8495450" lon="9.2337700">
	<ele>913.20</ele>
	<time>2025-02-15T08:24:16.000Z</time>
</trkpt>
<trkpt lat="45.8495450" lon="9.2337700">
	<ele>913.20</ele>
	<time>2025-02-15T08:24:17.000Z</time>
</trkpt>
<trkpt lat="45.8495460" lon="9.2337700">
	<ele>913.20</ele>
	<time>2025-02-15T08:24:18.000Z</time>
</trkpt>
<trkpt lat="45.8495460" lon="9.2337700">
	<ele>913.20</ele>
	<time>2025-02-15T08:24:19.000Z</time>
</trkpt>
<trkpt lat="45.8495460" lon="9.2337700">
	<ele>913.20</ele>
	<time>2025-02-15T08:24:20.000Z</time>
</trkpt>
<trkpt lat="45.8495460" lon="9.2337700">
	<ele>913.20</ele>
	<time>2025-02-15T08:24:21.000Z</time>
</trkpt>
<trkpt lat="45.8495460" lon="9.2337700">
	<ele>913.20</ele>
	<time>2025-02-15T08:24:22.000Z</time>
</trkpt>
<trkpt lat="45.8495460" lon="9.2337700">
	<ele>913.20</ele>
	<time>2025-02-15T08:24:23.000Z</time>
</trkpt>
<trkpt lat="45.8495470" lon="9.2337700">
	<ele>913.20</ele>
	<time>2025-02-15T08:24:24.000Z</time>
</trkpt>
<trkpt lat="45.8495470" lon="9.2337700">
	<ele>913.20</ele>
	<time>2025-02-15T08:24:25.000Z</time>
</trkpt>
<trkpt lat="45.8495480" lon="9.2337700">
	<ele>913.20</ele>
	<time>2025-02-15T08:24:26.000Z</time>
</trkpt>
<trkpt lat="45.8495480" lon="9.2337700">
	<ele>913.20</ele>
	<time>2025-02-15T08:24:27.000Z</time>
</trkpt>
<trkpt lat="45.8495480" lon="9.2337710">
	<ele>913.20</ele>
	<time>2025-02-15T08:24:28.000Z</time>
</trkpt>
<trkpt lat="45.8495480" lon="9.2337710">
	<ele>913.20</ele>
	<time>2025-02-15T08:24:29.000Z</time>
</trkpt>
<trkpt lat="45.8495480" lon="9.2337720">
	<ele>913.20</ele>
	<time>2025-02-15T08:24:30.000Z</time>
</trkpt>
<trkpt lat="45.8495480" lon="9.2337720">
	<ele>913.20</ele>
	<time>2025-02-15T08:24:31.000Z</time>
</trkpt>
<trkpt lat="45.8495490" lon="9.2337720">
	<ele>913.20</ele>
	<time>2025-02-15T08:24:32.000Z</time>
</trkpt>
<trkpt lat="45.8495490" lon="9.2337720">
	<ele>913.20</ele>
	<time>2025-02-15T08:24:33.000Z</time>
</trkpt>
<trkpt lat="45.8495490" lon="9.2337720">
	<ele>913.20</ele>
	<time>2025-02-15T08:24:34.000Z</time>
</trkpt>
<trkpt lat="45.8495490" lon="9.2337720">
	<ele>913.20</ele>
	<time>2025-02-15T08:24:35.000Z</time>
</trkpt>
<trkpt lat="45.8495510" lon="9.2337720">
	<ele>913.20</ele>
	<time>2025-02-15T08:24:36.000Z</time>
</trkpt>
<trkpt lat="45.8495540" lon="9.2337720">
	<ele>913.20</ele>
	<time>2025-02-15T08:24:37.000Z</time>
</trkpt>
<trkpt lat="45.8495560" lon="9.2337720">
	<ele>913.20</ele>
	<time>2025-02-15T08:24:38.000Z</time>
</trkpt>
<trkpt lat="45.8495570" lon="9.2337720">
	<ele>913.20</ele>
	<time>2025-02-15T08:24:39.000Z</time>
</trkpt>
<trkpt lat="45.8495580" lon="9.2337720">
	<ele>913.20</ele>
	<time>2025-02-15T08:24:40.000Z</time>
</trkpt>
<trkpt lat="45.8495590" lon="9.2337720">
	<ele>913.20</ele>
	<time>2025-02-15T08:24:41.000Z</time>
</trkpt>
<trkpt lat="45.8495590" lon="9.2337720">
	<ele>913.20</ele>
	<time>2025-02-15T08:24:42.000Z</time>
</trkpt>
<trkpt lat="45.8495590" lon="9.2337720">
	<ele>913.20</ele>
	<time>2025-02-15T08:24:43.000Z</time>
</trkpt>
<trkpt lat="45.8495590" lon="9.2337720">
	<ele>913.20</ele>
	<time>2025-02-15T08:24:44.000Z</time>
</trkpt>
<trkpt lat="45.8495600" lon="9.2337720">
	<ele>913.20</ele>
	<time>2025-02-15T08:24:45.000Z</time>
</trkpt>
<trkpt lat="45.8495600" lon="9.2337720">
	<ele>913.20</ele>
	<time>2025-02-15T08:24:46.000Z</time>
</trkpt>
<trkpt lat="45.8495610" lon="9.2337720">
	<ele>913.20</ele>
	<time>2025-02-15T08:24:47.000Z</time>
</trkpt>
<trkpt lat="45.8495610" lon="9.2337710">
	<ele>913.20</ele>
	<time>2025-02-15T08:24:48.000Z</time>
</trkpt>
<trkpt lat="45.8495620" lon="9.2337710">
	<ele>913.20</ele>
	<time>2025-02-15T08:24:49.000Z</time>
</trkpt>
<trkpt lat="45.8495620" lon="9.2337710">
	<ele>913.20</ele>
	<time>2025-02-15T08:24:50.000Z</time>
</trkpt>
<trkpt lat="45.8495620" lon="9.2337710">
	<ele>913.20</ele>
	<time>2025-02-15T08:24:51.000Z</time>
</trkpt>
<trkpt lat="45.8495630" lon="9.2337710">
	<ele>913.20</ele>
	<time>2025-02-15T08:24:52.000Z</time>
</trkpt>
<trkpt lat="45.8495630" lon="9.2337710">
	<ele>913.20</ele>
	<time>2025-02-15T08:24:53.000Z</time>
</trkpt>
<trkpt lat="45.8495630" lon="9.2337710">
	<ele>913.20</ele>
	<time>2025-02-15T08:24:54.000Z</time>
</trkpt>
<trkpt lat="45.8495640" lon="9.2337710">
	<ele>913.20</ele>
	<time>2025-02-15T08:24:55.000Z</time>
</trkpt>
<trkpt lat="45.8495640" lon="9.2337710">
	<ele>913.20</ele>
	<time>2025-02-15T08:24:56.000Z</time>
</trkpt>
<trkpt lat="45.8495640" lon="9.2337710">
	<ele>913.20</ele>
	<time>2025-02-15T08:24:57.000Z</time>
</trkpt>
<trkpt lat="45.8495640" lon="9.2337710">
	<ele>913.20</ele>
	<time>2025-02-15T08:24:58.000Z</time>
</trkpt>
<trkpt lat="45.8495650" lon="9.2337710">
	<ele>913.20</ele>
	<time>2025-02-15T08:24:59.000Z</time>
</trkpt>
<trkpt lat="45.8495650" lon="9.2337710">
	<ele>913.20</ele>
	<time>2025-02-15T08:25:00.000Z</time>
</trkpt>
<trkpt lat="45.8495660" lon="9.2337710">
	<ele>913.20</ele>
	<time>2025-02-15T08:25:01.000Z</time>
</trkpt>
<trkpt lat="45.8495670" lon="9.2337710">
	<ele>913.20</ele>
	<time>2025-02-15T08:25:02.000Z</time>
</trkpt>
<trkpt lat="45.8495680" lon="9.2337710">
	<ele>913.20</ele>
	<time>2025-02-15T08:25:03.000Z</time>
</trkpt>
<trkpt lat="45.8495690" lon="9.2337710">
	<ele>913.20</ele>
	<time>2025-02-15T08:25:04.000Z</time>
</trkpt>
<trkpt lat="45.8495700" lon="9.2337710">
	<ele>913.20</ele>
	<time>2025-02-15T08:25:05.000Z</time>
</trkpt>
<trkpt lat="45.8495710" lon="9.2337710">
	<ele>913.20</ele>
	<time>2025-02-15T08:25:06.000Z</time>
</trkpt>
<trkpt lat="45.8495730" lon="9.2337710">
	<ele>913.20</ele>
	<time>2025-02-15T08:25:07.000Z</time>
</trkpt>
<trkpt lat="45.8495740" lon="9.2337710">
	<ele>913.20</ele>
	<time>2025-02-15T08:25:08.000Z</time>
</trkpt>
<trkpt lat="45.8495740" lon="9.2337710">
	<ele>913.20</ele>
	<time>2025-02-15T08:25:09.000Z</time>
</trkpt>
<trkpt lat="45.8495750" lon="9.2337710">
	<ele>913.20</ele>
	<time>2025-02-15T08:25:10.000Z</time>
</trkpt>
<trkpt lat="45.8495760" lon="9.2337710">
	<ele>913.20</ele>
	<time>2025-02-15T08:25:11.000Z</time>
</trkpt>
<trkpt lat="45.8495760" lon="9.2337710">
	<ele>913.20</ele>
	<time>2025-02-15T08:25:12.000Z</time>
</trkpt>
<trkpt lat="45.8495760" lon="9.2337710">
	<ele>913.20</ele>
	<time>2025-02-15T08:25:13.000Z</time>
</trkpt>
<trkpt lat="45.8495770" lon="9.2337710">
	<ele>913.20</ele>
	<time>2025-02-15T08:25:14.000Z</time>
</trkpt>
<trkpt lat="45.8495770" lon="9.2337710">
	<ele>913.20</ele>
	<time>2025-02-15T08:25:15.000Z</time>
</trkpt>
<trkpt lat="45.8495770" lon="9.2337710">
	<ele>913.20</ele>
	<time>2025-02-15T08:25:16.000Z</time>
</trkpt>
<trkpt lat="45.8495770" lon="9.2337700">
	<ele>913.20</ele>
	<time>2025-02-15T08:25:17.000Z</time>
</trkpt>
<trkpt lat="45.8495770" lon="9.2337700">
	<ele>913.20</ele>
	<time>2025-02-15T08:25:18.000Z</time>
</trkpt>
<trkpt lat="45.8495770" lon="9.2337690">
	<ele>913.20</ele>
	<time>2025-02-15T08:25:19.000Z</time>
</trkpt>
<trkpt lat="45.8495780" lon="9.2337680">
	<ele>913.20</ele>
	<time>2025-02-15T08:25:20.000Z</time>
</trkpt>
<trkpt lat="45.8495780" lon="9.2337670">
	<ele>913.20</ele>
	<time>2025-02-15T08:25:21.000Z</time>
</trkpt>
<trkpt lat="45.8495780" lon="9.2337670">
	<ele>913.20</ele>
	<time>2025-02-15T08:25:22.000Z</time>
</trkpt>
<trkpt lat="45.8495780" lon="9.2337660">
	<ele>913.20</ele>
	<time>2025-02-15T08:25:23.000Z</time>
</trkpt>
<trkpt lat="45.8495780" lon="9.2337660">
	<ele>913.20</ele>
	<time>2025-02-15T08:25:24.000Z</time>
</trkpt>
<trkpt lat="45.8495770" lon="9.2337660">
	<ele>913.20</ele>
	<time>2025-02-15T08:25:25.000Z</time>
</trkpt>
<trkpt lat="45.8495770" lon="9.2337650">
	<ele>913.20</ele>
	<time>2025-02-15T08:25:26.000Z</time>
</trkpt>
<trkpt lat="45.8495770" lon="9.2337640">
	<ele>913.20</ele>
	<time>2025-02-15T08:25:27.000Z</time>
</trkpt>
<trkpt lat="45.8495770" lon="9.2337630">
	<ele>913.20</ele>
	<time>2025-02-15T08:25:28.000Z</time>
</trkpt>
<trkpt lat="45.8495770" lon="9.2337620">
	<ele>913.20</ele>
	<time>2025-02-15T08:25:29.000Z</time>
</trkpt>
<trkpt lat="45.8495770" lon="9.2337610">
	<ele>913.20</ele>
	<time>2025-02-15T08:25:30.000Z</time>
</trkpt>
<trkpt lat="45.8495770" lon="9.2337600">
	<ele>913.20</ele>
	<time>2025-02-15T08:25:31.000Z</time>
</trkpt>
<trkpt lat="45.8495770" lon="9.2337600">
	<ele>913.20</ele>
	<time>2025-02-15T08:25:32.000Z</time>
</trkpt>
<trkpt lat="45.8495770" lon="9.2337590">
	<ele>913.20</ele>
	<time>2025-02-15T08:25:33.000Z</time>
</trkpt>
<trkpt lat="45.8495770" lon="9.2337580">
	<ele>913.20</ele>
	<time>2025-02-15T08:25:34.000Z</time>
</trkpt>
<trkpt lat="45.8495770" lon="9.2337580">
	<ele>913.20</ele>
	<time>2025-02-15T08:25:35.000Z</time>
</trkpt>
<trkpt lat="45.8495770" lon="9.2337570">
	<ele>913.20</ele>
	<time>2025-02-15T08:25:36.000Z</time>
</trkpt>
<trkpt lat="45.8495770" lon="9.2337570">
	<ele>913.20</ele>
	<time>2025-02-15T08:25:37.000Z</time>
</trkpt>
<trkpt lat="45.8495770" lon="9.2337560">
	<ele>913.20</ele>
	<time>2025-02-15T08:25:38.000Z</time>
</trkpt>
<trkpt lat="45.8495770" lon="9.2337560">
	<ele>913.20</ele>
	<time>2025-02-15T08:25:39.000Z</time>
</trkpt>
<trkpt lat="45.8495770" lon="9.2337550">
	<ele>913.20</ele>
	<time>2025-02-15T08:25:40.000Z</time>
</trkpt>
<trkpt lat="45.8495770" lon="9.2337550">
	<ele>913.20</ele>
	<time>2025-02-15T08:25:41.000Z</time>
</trkpt>
<trkpt lat="45.8495770" lon="9.2337550">
	<ele>913.20</ele>
	<time>2025-02-15T08:25:42.000Z</time>
</trkpt>
<trkpt lat="45.8495770" lon="9.2337550">
	<ele>913.20</ele>
	<time>2025-02-15T08:25:43.000Z</time>
</trkpt>
<trkpt lat="45.8495800" lon="9.2337510">
	<ele>913.20</ele>
	<time>2025-02-15T08:25:44.000Z</time>
</trkpt>
<trkpt lat="45.8495930" lon="9.2337400">
	<ele>913.20</ele>
	<time>2025-02-15T08:25:45.000Z</time>
</trkpt>
<trkpt lat="45.8496080" lon="9.2337290">
	<ele>913.20</ele>
	<time>2025-02-15T08:25:46.000Z</time>
</trkpt>
<trkpt lat="45.8496170" lon="9.2337220">
	<ele>913.20</ele>
	<time>2025-02-15T08:25:47.000Z</time>
</trkpt>
<trkpt lat="45.8496300" lon="9.2337130">
	<ele>913.20</ele>
	<time>2025-02-15T08:25:48.000Z</time>
</trkpt>
<trkpt lat="45.8496340" lon="9.2337090">
	<ele>913.20</ele>
	<time>2025-02-15T08:25:49.000Z</time>
</trkpt>
<trkpt lat="45.8496400" lon="9.2337040">
	<ele>913.20</ele>
	<time>2025-02-15T08:25:50.000Z</time>
</trkpt>
<trkpt lat="45.8496480" lon="9.2337010">
	<ele>913.20</ele>
	<time>2025-02-15T08:25:51.000Z</time>
</trkpt>
<trkpt lat="45.8496570" lon="9.2336980">
	<ele>913.20</ele>
	<time>2025-02-15T08:25:52.000Z</time>
</trkpt>
<trkpt lat="45.8496680" lon="9.2336970">
	<ele>913.20</ele>
	<time>2025-02-15T08:25:53.000Z</time>
</trkpt>
<trkpt lat="45.8496780" lon="9.2336940">
	<ele>913.20</ele>
	<time>2025-02-15T08:25:54.000Z</time>
</trkpt>
<trkpt lat="45.8496940" lon="9.2336930">
	<ele>913.20</ele>
	<time>2025-02-15T08:25:55.000Z</time>
</trkpt>
<trkpt lat="45.8497060" lon="9.2336850">
	<ele>913.20</ele>
	<time>2025-02-15T08:25:56.000Z</time>
</trkpt>
<trkpt lat="45.8497110" lon="9.2336710">
	<ele>913.20</ele>
	<time>2025-02-15T08:25:57.000Z</time>
</trkpt>
<trkpt lat="45.8497180" lon="9.2336600">
	<ele>913.20</ele>
	<time>2025-02-15T08:25:58.000Z</time>
</trkpt>
<trkpt lat="45.8497300" lon="9.2336500">
	<ele>913.20</ele>
	<time>2025-02-15T08:25:59.000Z</time>
</trkpt>
<trkpt lat="45.8497330" lon="9.2336440">
	<ele>913.20</ele>
	<time>2025-02-15T08:26:00.000Z</time>
</trkpt>
<trkpt lat="45.8497320" lon="9.2336400">
	<ele>913.20</ele>
	<time>2025-02-15T08:26:01.000Z</time>
</trkpt>
<trkpt lat="45.8497490" lon="9.2336310">
	<ele>913.20</ele>
	<time>2025-02-15T08:26:02.000Z</time>
</trkpt>
<trkpt lat="45.8497660" lon="9.2336230">
	<ele>913.20</ele>
	<time>2025-02-15T08:26:03.000Z</time>
</trkpt>
<trkpt lat="45.8497700" lon="9.2336190">
	<ele>913.20</ele>
	<time>2025-02-15T08:26:04.000Z</time>
</trkpt>
<trkpt lat="45.8497740" lon="9.2336140">
	<ele>913.20</ele>
	<time>2025-02-15T08:26:05.000Z</time>
</trkpt>
<trkpt lat="45.8497830" lon="9.2336120">
	<ele>913.20</ele>
	<time>2025-02-15T08:26:06.000Z</time>
</trkpt>
<trkpt lat="45.8497890" lon="9.2336100">
	<ele>913.20</ele>
	<time>2025-02-15T08:26:07.000Z</time>
</trkpt>
<trkpt lat="45.8498000" lon="9.2336090">
	<ele>913.20</ele>
	<time>2025-02-15T08:26:08.000Z</time>
</trkpt>
<trkpt lat="45.8498150" lon="9.2336060">
	<ele>913.20</ele>
	<time>2025-02-15T08:26:09.000Z</time>
</trkpt>
<trkpt lat="45.8498250" lon="9.2336100">
	<ele>913.20</ele>
	<time>2025-02-15T08:26:10.000Z</time>
</trkpt>
<trkpt lat="45.8498300" lon="9.2336130">
	<ele>913.20</ele>
	<time>2025-02-15T08:26:11.000Z</time>
</trkpt>
<trkpt lat="45.8498380" lon="9.2336150">
	<ele>913.20</ele>
	<time>2025-02-15T08:26:12.000Z</time>
</trkpt>
<trkpt lat="45.8498440" lon="9.2336190">
	<ele>913.20</ele>
	<time>2025-02-15T08:26:13.000Z</time>
</trkpt>
<trkpt lat="45.8498480" lon="9.2336170">
	<ele>913.20</ele>
	<time>2025-02-15T08:26:14.000Z</time>
</trkpt>
<trkpt lat="45.8498530" lon="9.2336250">
	<ele>913.20</ele>
	<time>2025-02-15T08:26:15.000Z</time>
</trkpt>
<trkpt lat="45.8498760" lon="9.2336310">
	<ele>913.20</ele>
	<time>2025-02-15T08:26:16.000Z</time>
</trkpt>
<trkpt lat="45.8499000" lon="9.2336520">
	<ele>913.20</ele>
	<time>2025-02-15T08:26:17.000Z</time>
</trkpt>
<trkpt lat="45.8499030" lon="9.2336500">
	<ele>913.20</ele>
	<time>2025-02-15T08:26:18.000Z</time>
</trkpt>
<trkpt lat="45.8499060" lon="9.2336480">
	<ele>913.20</ele>
	<time>2025-02-15T08:26:19.000Z</time>
</trkpt>
<trkpt lat="45.8499150" lon="9.2336410">
	<ele>913.20</ele>
	<time>2025-02-15T08:26:20.000Z</time>
</trkpt>
<trkpt lat="45.8499200" lon="9.2336410">
	<ele>913.20</ele>
	<time>2025-02-15T08:26:21.000Z</time>
</trkpt>
<trkpt lat="45.8499200" lon="9.2336410">
	<ele>913.20</ele>
	<time>2025-02-15T08:26:22.000Z</time>
</trkpt>
<trkpt lat="45.8499240" lon="9.2336410">
	<ele>913.20</ele>
	<time>2025-02-15T08:26:23.000Z</time>
</trkpt>
<trkpt lat="45.8499270" lon="9.2336590">
	<ele>913.20</ele>
	<time>2025-02-15T08:26:24.000Z</time>
</trkpt>
<trkpt lat="45.8499440" lon="9.2336650">
	<ele>913.20</ele>
	<time>2025-02-15T08:26:25.000Z</time>
</trkpt>
<trkpt lat="45.8499590" lon="9.2336560">
	<ele>913.20</ele>
	<time>2025-02-15T08:26:26.000Z</time>
</trkpt>
<trkpt lat="45.8499680" lon="9.2336360">
	<ele>913.20</ele>
	<time>2025-02-15T08:26:27.000Z</time>
</trkpt>
<trkpt lat="45.8499880" lon="9.2336210">
	<ele>914.00</ele>
	<time>2025-02-15T08:26:28.000Z</time>
</trkpt>
<trkpt lat="45.8500000" lon="9.2336150">
	<ele>914.60</ele>
	<time>2025-02-15T08:26:29.000Z</time>
</trkpt>
<trkpt lat="45.8500110" lon="9.2336190">
	<ele>915.00</ele>
	<time>2025-02-15T08:26:30.000Z</time>
</trkpt>
<trkpt lat="45.8500210" lon="9.2336220">
	<ele>915.20</ele>
	<time>2025-02-15T08:26:31.000Z</time>
</trkpt>
<trkpt lat="45.8500290" lon="9.2336160">
	<ele>915.40</ele>
	<time>2025-02-15T08:26:32.000Z</time>
</trkpt>
<trkpt lat="45.8500370" lon="9.2336050">
	<ele>915.40</ele>
	<time>2025-02-15T08:26:33.000Z</time>
</trkpt>
<trkpt lat="45.8500390" lon="9.2335910">
	<ele>915.40</ele>
	<time>2025-02-15T08:26:34.000Z</time>
</trkpt>
<trkpt lat="45.8500420" lon="9.2335730">
	<ele>915.40</ele>
	<time>2025-02-15T08:26:35.000Z</time>
</trkpt>
<trkpt lat="45.8500490" lon="9.2335560">
	<ele>915.40</ele>
	<time>2025-02-15T08:26:36.000Z</time>
</trkpt>
<trkpt lat="45.8500570" lon="9.2335370">
	<ele>915.40</ele>
	<time>2025-02-15T08:26:37.000Z</time>
</trkpt>
<trkpt lat="45.8500670" lon="9.2335240">
	<ele>915.40</ele>
	<time>2025-02-15T08:26:38.000Z</time>
</trkpt>
<trkpt lat="45.8500740" lon="9.2335160">
	<ele>915.20</ele>
	<time>2025-02-15T08:26:39.000Z</time>
</trkpt>
<trkpt lat="45.8500810" lon="9.2335170">
	<ele>915.20</ele>
	<time>2025-02-15T08:26:40.000Z</time>
</trkpt>
<trkpt lat="45.8500860" lon="9.2335160">
	<ele>915.20</ele>
	<time>2025-02-15T08:26:41.000Z</time>
</trkpt>
<trkpt lat="45.8500860" lon="9.2335100">
	<ele>915.20</ele>
	<time>2025-02-15T08:26:42.000Z</time>
</trkpt>
<trkpt lat="45.8500920" lon="9.2335040">
	<ele>915.20</ele>
	<time>2025-02-15T08:26:43.000Z</time>
</trkpt>
<trkpt lat="45.8501000" lon="9.2335000">
	<ele>915.20</ele>
	<time>2025-02-15T08:26:44.000Z</time>
</trkpt>
<trkpt lat="45.8501090" lon="9.2334980">
	<ele>915.20</ele>
	<time>2025-02-15T08:26:45.000Z</time>
</trkpt>
<trkpt lat="45.8501210" lon="9.2335020">
	<ele>915.20</ele>
	<time>2025-02-15T08:26:46.000Z</time>
</trkpt>
<trkpt lat="45.8501300" lon="9.2334970">
	<ele>915.40</ele>
	<time>2025-02-15T08:26:47.000Z</time>
</trkpt>
<trkpt lat="45.8501380" lon="9.2334860">
	<ele>915.40</ele>
	<time>2025-02-15T08:26:48.000Z</time>
</trkpt>
<trkpt lat="45.8501460" lon="9.2334710">
	<ele>915.40</ele>
	<time>2025-02-15T08:26:49.000Z</time>
</trkpt>
<trkpt lat="45.8501540" lon="9.2334650">
	<ele>915.60</ele>
	<time>2025-02-15T08:26:50.000Z</time>
</trkpt>
<trkpt lat="45.8501630" lon="9.2334580">
	<ele>915.60</ele>
	<time>2025-02-15T08:26:51.000Z</time>
</trkpt>
<trkpt lat="45.8501740" lon="9.2334520">
	<ele>915.60</ele>
	<time>2025-02-15T08:26:52.000Z</time>
</trkpt>
<trkpt lat="45.8501840" lon="9.2334480">
	<ele>915.80</ele>
	<time>2025-02-15T08:26:53.000Z</time>
</trkpt>
<trkpt lat="45.8501890" lon="9.2334420">
	<ele>915.80</ele>
	<time>2025-02-15T08:26:54.000Z</time>
</trkpt>
<trkpt lat="45.8501960" lon="9.2334340">
	<ele>915.80</ele>
	<time>2025-02-15T08:26:55.000Z</time>
</trkpt>
<trkpt lat="45.8502010" lon="9.2334150">
	<ele>915.80</ele>
	<time>2025-02-15T08:26:56.000Z</time>
</trkpt>
<trkpt lat="45.8502060" lon="9.2333970">
	<ele>915.80</ele>
	<time>2025-02-15T08:26:57.000Z</time>
</trkpt>
<trkpt lat="45.8502090" lon="9.2333920">
	<ele>915.80</ele>
	<time>2025-02-15T08:26:58.000Z</time>
</trkpt>
<trkpt lat="45.8502110" lon="9.2333880">
	<ele>915.80</ele>
	<time>2025-02-15T08:26:59.000Z</time>
</trkpt>
<trkpt lat="45.8502300" lon="9.2333800">
	<ele>915.60</ele>
	<time>2025-02-15T08:27:00.000Z</time>
</trkpt>
<trkpt lat="45.8502410" lon="9.2333760">
	<ele>915.60</ele>
	<time>2025-02-15T08:27:01.000Z</time>
</trkpt>
<trkpt lat="45.8502530" lon="9.2333600">
	<ele>915.40</ele>
	<time>2025-02-15T08:27:02.000Z</time>
</trkpt>
<trkpt lat="45.8502680" lon="9.2333460">
	<ele>915.20</ele>
	<time>2025-02-15T08:27:03.000Z</time>
</trkpt>
<trkpt lat="45.8502850" lon="9.2333470">
	<ele>915.20</ele>
	<time>2025-02-15T08:27:04.000Z</time>
</trkpt>
<trkpt lat="45.8502950" lon="9.2333410">
	<ele>915.00</ele>
	<time>2025-02-15T08:27:05.000Z</time>
</trkpt>
<trkpt lat="45.8503030" lon="9.2333320">
	<ele>915.00</ele>
	<time>2025-02-15T08:27:06.000Z</time>
</trkpt>
<trkpt lat="45.8503070" lon="9.2333200">
	<ele>915.00</ele>
	<time>2025-02-15T08:27:07.000Z</time>
</trkpt>
<trkpt lat="45.8503140" lon="9.2333110">
	<ele>915.00</ele>
	<time>2025-02-15T08:27:08.000Z</time>
</trkpt>
<trkpt lat="45.8503190" lon="9.2333000">
	<ele>915.00</ele>
	<time>2025-02-15T08:27:09.000Z</time>
</trkpt>
<trkpt lat="45.8503300" lon="9.2332900">
	<ele>914.80</ele>
	<time>2025-02-15T08:27:10.000Z</time>
</trkpt>
<trkpt lat="45.8503360" lon="9.2332790">
	<ele>914.80</ele>
	<time>2025-02-15T08:27:11.000Z</time>
</trkpt>
<trkpt lat="45.8503390" lon="9.2332800">
	<ele>914.80</ele>
	<time>2025-02-15T08:27:12.000Z</time>
</trkpt>
<trkpt lat="45.8503430" lon="9.2332770">
	<ele>914.80</ele>
	<time>2025-02-15T08:27:13.000Z</time>
</trkpt>
<trkpt lat="45.8503430" lon="9.2332760">
	<ele>914.80</ele>
	<time>2025-02-15T08:27:14.000Z</time>
</trkpt>
<trkpt lat="45.8503440" lon="9.2332730">
	<ele>914.80</ele>
	<time>2025-02-15T08:27:15.000Z</time>
</trkpt>
<trkpt lat="45.8503440" lon="9.2332670">
	<ele>915.00</ele>
	<time>2025-02-15T08:27:16.000Z</time>
</trkpt>
<trkpt lat="45.8503520" lon="9.2332490">
	<ele>915.00</ele>
	<time>2025-02-15T08:27:17.000Z</time>
</trkpt>
<trkpt lat="45.8503560" lon="9.2332320">
	<ele>915.00</ele>
	<time>2025-02-15T08:27:18.000Z</time>
</trkpt>
<trkpt lat="45.8503680" lon="9.2332150">
	<ele>915.20</ele>
	<time>2025-02-15T08:27:19.000Z</time>
</trkpt>
<trkpt lat="45.8503790" lon="9.2332040">
	<ele>915.20</ele>
	<time>2025-02-15T08:27:20.000Z</time>
</trkpt>
<trkpt lat="45.8503800" lon="9.2331980">
	<ele>915.20</ele>
	<time>2025-02-15T08:27:21.000Z</time>
</trkpt>
<trkpt lat="45.8503870" lon="9.2331930">
	<ele>915.20</ele>
	<time>2025-02-15T08:27:22.000Z</time>
</trkpt>
<trkpt lat="45.8504010" lon="9.2331710">
	<ele>915.40</ele>
	<time>2025-02-15T08:27:23.000Z</time>
</trkpt>
<trkpt lat="45.8504130" lon="9.2331550">
	<ele>915.40</ele>
	<time>2025-02-15T08:27:24.000Z</time>
</trkpt>
<trkpt lat="45.8504140" lon="9.2331490">
	<ele>915.40</ele>
	<time>2025-02-15T08:27:25.000Z</time>
</trkpt>
<trkpt lat="45.8504100" lon="9.2331350">
	<ele>915.40</ele>
	<time>2025-02-15T08:27:26.000Z</time>
</trkpt>
<trkpt lat="45.8504110" lon="9.2331380">
	<ele>915.60</ele>
	<time>2025-02-15T08:27:27.000Z</time>
</trkpt>
<trkpt lat="45.8504100" lon="9.2331380">
	<ele>915.60</ele>
	<time>2025-02-15T08:27:28.000Z</time>
</trkpt>
<trkpt lat="45.8504110" lon="9.2331360">
	<ele>915.60</ele>
	<time>2025-02-15T08:27:29.000Z</time>
</trkpt>
<trkpt lat="45.8504110" lon="9.2331370">
	<ele>915.80</ele>
	<time>2025-02-15T08:27:30.000Z</time>
</trkpt>
<trkpt lat="45.8504130" lon="9.2331380">
	<ele>915.80</ele>
	<time>2025-02-15T08:27:31.000Z</time>
</trkpt>
<trkpt lat="45.8504150" lon="9.2331390">
	<ele>916.00</ele>
	<time>2025-02-15T08:27:32.000Z</time>
</trkpt>
<trkpt lat="45.8504160" lon="9.2331370">
	<ele>916.00</ele>
	<time>2025-02-15T08:27:33.000Z</time>
</trkpt>
<trkpt lat="45.8504220" lon="9.2331310">
	<ele>916.00</ele>
	<time>2025-02-15T08:27:34.000Z</time>
</trkpt>
<trkpt lat="45.8504230" lon="9.2331300">
	<ele>916.20</ele>
	<time>2025-02-15T08:27:35.000Z</time>
</trkpt>
<trkpt lat="45.8504240" lon="9.2331310">
	<ele>916.20</ele>
	<time>2025-02-15T08:27:36.000Z</time>
</trkpt>
<trkpt lat="45.8504240" lon="9.2331320">
	<ele>916.20</ele>
	<time>2025-02-15T08:27:37.000Z</time>
</trkpt>
<trkpt lat="45.8504240" lon="9.2331320">
	<ele>916.20</ele>
	<time>2025-02-15T08:27:38.000Z</time>
</trkpt>
<trkpt lat="45.8504240" lon="9.2331320">
	<ele>916.20</ele>
	<time>2025-02-15T08:27:39.000Z</time>
</trkpt>
<trkpt lat="45.8504240" lon="9.2331320">
	<ele>916.20</ele>
	<time>2025-02-15T08:27:40.000Z</time>
</trkpt>
<trkpt lat="45.8504240" lon="9.2331320">
	<ele>916.00</ele>
	<time>2025-02-15T08:27:41.000Z</time>
</trkpt>
<trkpt lat="45.8504240" lon="9.2331320">
	<ele>916.00</ele>
	<time>2025-02-15T08:27:42.000Z</time>
</trkpt>
<trkpt lat="45.8504240" lon="9.2331320">
	<ele>916.00</ele>
	<time>2025-02-15T08:27:43.000Z</time>
</trkpt>
<trkpt lat="45.8504240" lon="9.2331320">
	<ele>916.00</ele>
	<time>2025-02-15T08:27:44.000Z</time>
</trkpt>
<trkpt lat="45.8504240" lon="9.2331320">
	<ele>916.00</ele>
	<time>2025-02-15T08:27:45.000Z</time>
</trkpt>
<trkpt lat="45.8504240" lon="9.2331320">
	<ele>915.80</ele>
	<time>2025-02-15T08:27:46.000Z</time>
</trkpt>
<trkpt lat="45.8504230" lon="9.2331320">
	<ele>915.80</ele>
	<time>2025-02-15T08:27:47.000Z</time>
</trkpt>
<trkpt lat="45.8504230" lon="9.2331320">
	<ele>915.80</ele>
	<time>2025-02-15T08:27:48.000Z</time>
</trkpt>
<trkpt lat="45.8504220" lon="9.2331320">
	<ele>915.80</ele>
	<time>2025-02-15T08:27:49.000Z</time>
</trkpt>
<trkpt lat="45.8504220" lon="9.2331320">
	<ele>915.80</ele>
	<time>2025-02-15T08:27:50.000Z</time>
</trkpt>
<trkpt lat="45.8504210" lon="9.2331320">
	<ele>915.80</ele>
	<time>2025-02-15T08:27:51.000Z</time>
</trkpt>
<trkpt lat="45.8504210" lon="9.2331320">
	<ele>915.80</ele>
	<time>2025-02-15T08:27:52.000Z</time>
</trkpt>
<trkpt lat="45.8504200" lon="9.2331330">
	<ele>916.00</ele>
	<time>2025-02-15T08:27:53.000Z</time>
</trkpt>
<trkpt lat="45.8504170" lon="9.2331360">
	<ele>916.00</ele>
	<time>2025-02-15T08:27:54.000Z</time>
</trkpt>
<trkpt lat="45.8504160" lon="9.2331370">
	<ele>916.00</ele>
	<time>2025-02-15T08:27:55.000Z</time>
</trkpt>
<trkpt lat="45.8504150" lon="9.2331370">
	<ele>916.00</ele>
	<time>2025-02-15T08:27:56.000Z</time>
</trkpt>
<trkpt lat="45.8504130" lon="9.2331380">
	<ele>916.00</ele>
	<time>2025-02-15T08:27:57.000Z</time>
</trkpt>
<trkpt lat="45.8504120" lon="9.2331390">
	<ele>915.80</ele>
	<time>2025-02-15T08:27:58.000Z</time>
</trkpt>
<trkpt lat="45.8504110" lon="9.2331390">
	<ele>915.80</ele>
	<time>2025-02-15T08:27:59.000Z</time>
</trkpt>
<trkpt lat="45.8504080" lon="9.2331460">
	<ele>915.80</ele>
	<time>2025-02-15T08:28:00.000Z</time>
</trkpt>
<trkpt lat="45.8504060" lon="9.2331490">
	<ele>915.80</ele>
	<time>2025-02-15T08:28:01.000Z</time>
</trkpt>
<trkpt lat="45.8504050" lon="9.2331490">
	<ele>915.60</ele>
	<time>2025-02-15T08:28:02.000Z</time>
</trkpt>
<trkpt lat="45.8504030" lon="9.2331510">
	<ele>915.60</ele>
	<time>2025-02-15T08:28:03.000Z</time>
</trkpt>
<trkpt lat="45.8504010" lon="9.2331520">
	<ele>915.60</ele>
	<time>2025-02-15T08:28:04.000Z</time>
</trkpt>
<trkpt lat="45.8503980" lon="9.2331520">
	<ele>915.60</ele>
	<time>2025-02-15T08:28:05.000Z</time>
</trkpt>
<trkpt lat="45.8503960" lon="9.2331530">
	<ele>915.60</ele>
	<time>2025-02-15T08:28:06.000Z</time>
</trkpt>
<trkpt lat="45.8503920" lon="9.2331570">
	<ele>915.60</ele>
	<time>2025-02-15T08:28:07.000Z</time>
</trkpt>
<trkpt lat="45.8503890" lon="9.2331620">
	<ele>915.60</ele>
	<time>2025-02-15T08:28:08.000Z</time>
</trkpt>
<trkpt lat="45.8503890" lon="9.2331650">
	<ele>915.60</ele>
	<time>2025-02-15T08:28:09.000Z</time>
</trkpt>
<trkpt lat="45.8503880" lon="9.2331660">
	<ele>915.80</ele>
	<time>2025-02-15T08:28:10.000Z</time>
</trkpt>
<trkpt lat="45.8503870" lon="9.2331680">
	<ele>915.80</ele>
	<time>2025-02-15T08:28:11.000Z</time>
</trkpt>
<trkpt lat="45.8503850" lon="9.2331690">
	<ele>916.00</ele>
	<time>2025-02-15T08:28:12.000Z</time>
</trkpt>
<trkpt lat="45.8503830" lon="9.2331700">
	<ele>915.80</ele>
	<time>2025-02-15T08:28:13.000Z</time>
</trkpt>
<trkpt lat="45.8503820" lon="9.2331730">
	<ele>915.60</ele>
	<time>2025-02-15T08:28:14.000Z</time>
</trkpt>
<trkpt lat="45.8503820" lon="9.2331760">
	<ele>915.60</ele>
	<time>2025-02-15T08:28:15.000Z</time>
</trkpt>
<trkpt lat="45.8503820" lon="9.2331830">
	<ele>915.40</ele>
	<time>2025-02-15T08:28:16.000Z</time>
</trkpt>
<trkpt lat="45.8503810" lon="9.2331850">
	<ele>915.20</ele>
	<time>2025-02-15T08:28:17.000Z</time>
</trkpt>
<trkpt lat="45.8503810" lon="9.2331860">
	<ele>915.20</ele>
	<time>2025-02-15T08:28:18.000Z</time>
</trkpt>
<trkpt lat="45.8503810" lon="9.2331920">
	<ele>915.20</ele>
	<time>2025-02-15T08:28:19.000Z</time>
</trkpt>
<trkpt lat="45.8503810" lon="9.2331970">
	<ele>915.20</ele>
	<time>2025-02-15T08:28:20.000Z</time>
</trkpt>
<trkpt lat="45.8503810" lon="9.2332000">
	<ele>915.20</ele>
	<time>2025-02-15T08:28:21.000Z</time>
</trkpt>
<trkpt lat="45.8503810" lon="9.2332010">
	<ele>915.20</ele>
	<time>2025-02-15T08:28:22.000Z</time>
</trkpt>
<trkpt lat="45.8503810" lon="9.2332010">
	<ele>915.20</ele>
	<time>2025-02-15T08:28:23.000Z</time>
</trkpt>
<trkpt lat="45.8503810" lon="9.2332010">
	<ele>915.20</ele>
	<time>2025-02-15T08:28:24.000Z</time>
</trkpt>
<trkpt lat="45.8503810" lon="9.2332020">
	<ele>915.40</ele>
	<time>2025-02-15T08:28:25.000Z</time>
</trkpt>
<trkpt lat="45.8503790" lon="9.2332020">
	<ele>915.40</ele>
	<time>2025-02-15T08:28:26.000Z</time>
</trkpt>
<trkpt lat="45.8503760" lon="9.2332050">
	<ele>915.40</ele>
	<time>2025-02-15T08:28:27.000Z</time>
</trkpt>
<trkpt lat="45.8503740" lon="9.2332030">
	<ele>915.40</ele>
	<time>2025-02-15T08:28:28.000Z</time>
</trkpt>
<trkpt lat="45.8503640" lon="9.2332100">
	<ele>915.40</ele>
	<time>2025-02-15T08:28:29.000Z</time>
</trkpt>
<trkpt lat="45.8503570" lon="9.2332140">
	<ele>915.40</ele>
	<time>2025-02-15T08:28:30.000Z</time>
</trkpt>
<trkpt lat="45.8503530" lon="9.2332200">
	<ele>915.40</ele>
	<time>2025-02-15T08:28:31.000Z</time>
</trkpt>
<trkpt lat="45.8503470" lon="9.2332250">
	<ele>915.60</ele>
	<time>2025-02-15T08:28:32.000Z</time>
</trkpt>
<trkpt lat="45.8503380" lon="9.2332260">
	<ele>915.60</ele>
	<time>2025-02-15T08:28:33.000Z</time>
</trkpt>
<trkpt lat="45.8503240" lon="9.2332290">
	<ele>915.60</ele>
	<time>2025-02-15T08:28:34.000Z</time>
</trkpt>
<trkpt lat="45.8503190" lon="9.2332340">
	<ele>915.60</ele>
	<time>2025-02-15T08:28:35.000Z</time>
</trkpt>
<trkpt lat="45.8503150" lon="9.2332390">
	<ele>915.60</ele>
	<time>2025-02-15T08:28:36.000Z</time>
</trkpt>
<trkpt lat="45.8503160" lon="9.2332430">
	<ele>915.60</ele>
	<time>2025-02-15T08:28:37.000Z</time>
</trkpt>
<trkpt lat="45.8503150" lon="9.2332440">
	<ele>915.60</ele>
	<time>2025-02-15T08:28:38.000Z</time>
</trkpt>
<trkpt lat="45.8503140" lon="9.2332440">
	<ele>915.60</ele>
	<time>2025-02-15T08:28:39.000Z</time>
</trkpt>
<trkpt lat="45.8503150" lon="9.2332430">
	<ele>915.40</ele>
	<time>2025-02-15T08:28:40.000Z</time>
</trkpt>
<trkpt lat="45.8503160" lon="9.2332400">
	<ele>915.40</ele>
	<time>2025-02-15T08:28:41.000Z</time>
</trkpt>
<trkpt lat="45.8503170" lon="9.2332380">
	<ele>915.40</ele>
	<time>2025-02-15T08:28:42.000Z</time>
</trkpt>
<trkpt lat="45.8503220" lon="9.2332390">
	<ele>915.20</ele>
	<time>2025-02-15T08:28:43.000Z</time>
</trkpt>
<trkpt lat="45.8503250" lon="9.2332350">
	<ele>915.40</ele>
	<time>2025-02-15T08:28:44.000Z</time>
</trkpt>
<trkpt lat="45.8503310" lon="9.2332370">
	<ele>915.20</ele>
	<time>2025-02-15T08:28:45.000Z</time>
</trkpt>
<trkpt lat="45.8503330" lon="9.2332430">
	<ele>915.20</ele>
	<time>2025-02-15T08:28:46.000Z</time>
</trkpt>
<trkpt lat="45.8503310" lon="9.2332430">
	<ele>915.20</ele>
	<time>2025-02-15T08:28:47.000Z</time>
</trkpt>
<trkpt lat="45.8503340" lon="9.2332460">
	<ele>915.40</ele>
	<time>2025-02-15T08:28:48.000Z</time>
</trkpt>
<trkpt lat="45.8503360" lon="9.2332470">
	<ele>915.20</ele>
	<time>2025-02-15T08:28:49.000Z</time>
</trkpt>
<trkpt lat="45.8503370" lon="9.2332460">
	<ele>915.20</ele>
	<time>2025-02-15T08:28:50.000Z</time>
</trkpt>
<trkpt lat="45.8503370" lon="9.2332500">
	<ele>915.20</ele>
	<time>2025-02-15T08:28:51.000Z</time>
</trkpt>
<trkpt lat="45.8503350" lon="9.2332540">
	<ele>915.20</ele>
	<time>2025-02-15T08:28:52.000Z</time>
</trkpt>
<trkpt lat="45.8503350" lon="9.2332590">
	<ele>915.20</ele>
	<time>2025-02-15T08:28:53.000Z</time>
</trkpt>
<trkpt lat="45.8503310" lon="9.2332610">
	<ele>915.20</ele>
	<time>2025-02-15T08:28:54.000Z</time>
</trkpt>
<trkpt lat="45.8503300" lon="9.2332640">
	<ele>915.20</ele>
	<time>2025-02-15T08:28:55.000Z</time>
</trkpt>
<trkpt lat="45.8503390" lon="9.2332480">
	<ele>915.20</ele>
	<time>2025-02-15T08:28:56.000Z</time>
</trkpt>
<trkpt lat="45.8503420" lon="9.2332440">
	<ele>915.20</ele>
	<time>2025-02-15T08:28:57.000Z</time>
</trkpt>
<trkpt lat="45.8503450" lon="9.2332430">
	<ele>915.20</ele>
	<time>2025-02-15T08:28:58.000Z</time>
</trkpt>
<trkpt lat="45.8503430" lon="9.2332430">
	<ele>915.20</ele>
	<time>2025-02-15T08:28:59.000Z</time>
</trkpt>
<trkpt lat="45.8503430" lon="9.2332430">
	<ele>915.20</ele>
	<time>2025-02-15T08:29:00.000Z</time>
</trkpt>
<trkpt lat="45.8503430" lon="9.2332430">
	<ele>915.20</ele>
	<time>2025-02-15T08:29:01.000Z</time>
</trkpt>
<trkpt lat="45.8503430" lon="9.2332430">
	<ele>915.40</ele>
	<time>2025-02-15T08:29:02.000Z</time>
</trkpt>
<trkpt lat="45.8503430" lon="9.2332430">
	<ele>915.40</ele>
	<time>2025-02-15T08:29:03.000Z</time>
</trkpt>
<trkpt lat="45.8503430" lon="9.2332430">
	<ele>915.40</ele>
	<time>2025-02-15T08:29:04.000Z</time>
</trkpt>
<trkpt lat="45.8503430" lon="9.2332430">
	<ele>915.40</ele>
	<time>2025-02-15T08:29:05.000Z</time>
</trkpt>
<trkpt lat="45.8503430" lon="9.2332430">
	<ele>915.40</ele>
	<time>2025-02-15T08:29:06.000Z</time>
</trkpt>
<trkpt lat="45.8503430" lon="9.2332430">
	<ele>915.40</ele>
	<time>2025-02-15T08:29:07.000Z</time>
</trkpt>
<trkpt lat="45.8503430" lon="9.2332430">
	<ele>915.40</ele>
	<time>2025-02-15T08:29:08.000Z</time>
</trkpt>
<trkpt lat="45.8503430" lon="9.2332430">
	<ele>915.40</ele>
	<time>2025-02-15T08:29:09.000Z</time>
</trkpt>
<trkpt lat="45.8503420" lon="9.2332430">
	<ele>915.40</ele>
	<time>2025-02-15T08:29:10.000Z</time>
</trkpt>
<trkpt lat="45.8503420" lon="9.2332430">
	<ele>915.40</ele>
	<time>2025-02-15T08:29:11.000Z</time>
</trkpt>
<trkpt lat="45.8503390" lon="9.2332430">
	<ele>915.40</ele>
	<time>2025-02-15T08:29:12.000Z</time>
</trkpt>
<trkpt lat="45.8503390" lon="9.2332430">
	<ele>915.40</ele>
	<time>2025-02-15T08:29:13.000Z</time>
</trkpt>
<trkpt lat="45.8503390" lon="9.2332440">
	<ele>915.40</ele>
	<time>2025-02-15T08:29:14.000Z</time>
</trkpt>
<trkpt lat="45.8503390" lon="9.2332450">
	<ele>915.40</ele>
	<time>2025-02-15T08:29:15.000Z</time>
</trkpt>
<trkpt lat="45.8503380" lon="9.2332480">
	<ele>915.40</ele>
	<time>2025-02-15T08:29:16.000Z</time>
</trkpt>
<trkpt lat="45.8503380" lon="9.2332480">
	<ele>915.40</ele>
	<time>2025-02-15T08:29:17.000Z</time>
</trkpt>
<trkpt lat="45.8503370" lon="9.2332500">
	<ele>915.40</ele>
	<time>2025-02-15T08:29:18.000Z</time>
</trkpt>
<trkpt lat="45.8503350" lon="9.2332520">
	<ele>915.20</ele>
	<time>2025-02-15T08:29:19.000Z</time>
</trkpt>
<trkpt lat="45.8503350" lon="9.2332540">
	<ele>915.40</ele>
	<time>2025-02-15T08:29:20.000Z</time>
</trkpt>
<trkpt lat="45.8503330" lon="9.2332560">
	<ele>915.40</ele>
	<time>2025-02-15T08:29:21.000Z</time>
</trkpt>
<trkpt lat="45.8503320" lon="9.2332560">
	<ele>915.40</ele>
	<time>2025-02-15T08:29:22.000Z</time>
</trkpt>
<trkpt lat="45.8503300" lon="9.2332560">
	<ele>915.40</ele>
	<time>2025-02-15T08:29:23.000Z</time>
</trkpt>
<trkpt lat="45.8503310" lon="9.2332570">
	<ele>915.40</ele>
	<time>2025-02-15T08:29:24.000Z</time>
</trkpt>
<trkpt lat="45.8503340" lon="9.2332570">
	<ele>915.40</ele>
	<time>2025-02-15T08:29:25.000Z</time>
</trkpt>
<trkpt lat="45.8503400" lon="9.2332510">
	<ele>915.40</ele>
	<time>2025-02-15T08:29:26.000Z</time>
</trkpt>
<trkpt lat="45.8503460" lon="9.2332480">
	<ele>915.20</ele>
	<time>2025-02-15T08:29:27.000Z</time>
</trkpt>
<trkpt lat="45.8503490" lon="9.2332430">
	<ele>915.20</ele>
	<time>2025-02-15T08:29:28.000Z</time>
</trkpt>
<trkpt lat="45.8503510" lon="9.2332420">
	<ele>915.20</ele>
	<time>2025-02-15T08:29:29.000Z</time>
</trkpt>
<trkpt lat="45.8503610" lon="9.2332360">
	<ele>915.20</ele>
	<time>2025-02-15T08:29:30.000Z</time>
</trkpt>
<trkpt lat="45.8503690" lon="9.2332250">
	<ele>915.20</ele>
	<time>2025-02-15T08:29:31.000Z</time>
</trkpt>
<trkpt lat="45.8503830" lon="9.2332190">
	<ele>915.20</ele>
	<time>2025-02-15T08:29:32.000Z</time>
</trkpt>
<trkpt lat="45.8503970" lon="9.2332150">
	<ele>915.20</ele>
	<time>2025-02-15T08:29:33.000Z</time>
</trkpt>
<trkpt lat="45.8504030" lon="9.2332150">
	<ele>915.20</ele>
	<time>2025-02-15T08:29:34.000Z</time>
</trkpt>
<trkpt lat="45.8504100" lon="9.2332010">
	<ele>915.20</ele>
	<time>2025-02-15T08:29:35.000Z</time>
</trkpt>
<trkpt lat="45.8504190" lon="9.2331830">
	<ele>915.20</ele>
	<time>2025-02-15T08:29:36.000Z</time>
</trkpt>
<trkpt lat="45.8504210" lon="9.2331720">
	<ele>915.20</ele>
	<time>2025-02-15T08:29:37.000Z</time>
</trkpt>
<trkpt lat="45.8504180" lon="9.2331540">
	<ele>915.20</ele>
	<time>2025-02-15T08:29:38.000Z</time>
</trkpt>
<trkpt lat="45.8504180" lon="9.2331480">
	<ele>915.20</ele>
	<time>2025-02-15T08:29:39.000Z</time>
</trkpt>
<trkpt lat="45.8504170" lon="9.2331440">
	<ele>915.40</ele>
	<time>2025-02-15T08:29:40.000Z</time>
</trkpt>
<trkpt lat="45.8504130" lon="9.2331320">
	<ele>915.40</ele>
	<time>2025-02-15T08:29:41.000Z</time>
</trkpt>
<trkpt lat="45.8504180" lon="9.2331250">
	<ele>915.60</ele>
	<time>2025-02-15T08:29:42.000Z</time>
</trkpt>
<trkpt lat="45.8504240" lon="9.2331180">
	<ele>915.80</ele>
	<time>2025-02-15T08:29:43.000Z</time>
</trkpt>
<trkpt lat="45.8504310" lon="9.2331050">
	<ele>916.00</ele>
	<time>2025-02-15T08:29:44.000Z</time>
</trkpt>
<trkpt lat="45.8504380" lon="9.2330870">
	<ele>916.00</ele>
	<time>2025-02-15T08:29:45.000Z</time>
</trkpt>
<trkpt lat="45.8504390" lon="9.2330790">
	<ele>916.20</ele>
	<time>2025-02-15T08:29:46.000Z</time>
</trkpt>
<trkpt lat="45.8504420" lon="9.2330660">
	<ele>916.20</ele>
	<time>2025-02-15T08:29:47.000Z</time>
</trkpt>
<trkpt lat="45.8504450" lon="9.2330500">
	<ele>916.20</ele>
	<time>2025-02-15T08:29:48.000Z</time>
</trkpt>
<trkpt lat="45.8504450" lon="9.2330370">
	<ele>916.20</ele>
	<time>2025-02-15T08:29:49.000Z</time>
</trkpt>
<trkpt lat="45.8504450" lon="9.2330230">
	<ele>916.20</ele>
	<time>2025-02-15T08:29:50.000Z</time>
</trkpt>
<trkpt lat="45.8504420" lon="9.2330110">
	<ele>916.00</ele>
	<time>2025-02-15T08:29:51.000Z</time>
</trkpt>
<trkpt lat="45.8504400" lon="9.2330050">
	<ele>916.00</ele>
	<time>2025-02-15T08:29:52.000Z</time>
</trkpt>
<trkpt lat="45.8504400" lon="9.2330020">
	<ele>916.00</ele>
	<time>2025-02-15T08:29:53.000Z</time>
</trkpt>
<trkpt lat="45.8504380" lon="9.2329980">
	<ele>916.00</ele>
	<time>2025-02-15T08:29:54.000Z</time>
</trkpt>
<trkpt lat="45.8504420" lon="9.2329850">
	<ele>915.80</ele>
	<time>2025-02-15T08:29:55.000Z</time>
</trkpt>
<trkpt lat="45.8504450" lon="9.2329720">
	<ele>915.80</ele>
	<time>2025-02-15T08:29:56.000Z</time>
</trkpt>
<trkpt lat="45.8504530" lon="9.2329610">
	<ele>915.80</ele>
	<time>2025-02-15T08:29:57.000Z</time>
</trkpt>
<trkpt lat="45.8504510" lon="9.2329600">
	<ele>915.80</ele>
	<time>2025-02-15T08:29:58.000Z</time>
</trkpt>
<trkpt lat="45.8504700" lon="9.2329450">
	<ele>915.80</ele>
	<time>2025-02-15T08:29:59.000Z</time>
</trkpt>
<trkpt lat="45.8504810" lon="9.2329300">
	<ele>916.00</ele>
	<time>2025-02-15T08:30:00.000Z</time>
</trkpt>
<trkpt lat="45.8504840" lon="9.2329260">
	<ele>916.00</ele>
	<time>2025-02-15T08:30:01.000Z</time>
</trkpt>
<trkpt lat="45.8504860" lon="9.2329250">
	<ele>916.20</ele>
	<time>2025-02-15T08:30:02.000Z</time>
</trkpt>
<trkpt lat="45.8504890" lon="9.2329250">
	<ele>916.20</ele>
	<time>2025-02-15T08:30:03.000Z</time>
</trkpt>
<trkpt lat="45.8504880" lon="9.2329230">
	<ele>916.40</ele>
	<time>2025-02-15T08:30:04.000Z</time>
</trkpt>
<trkpt lat="45.8504920" lon="9.2329110">
	<ele>916.40</ele>
	<time>2025-02-15T08:30:05.000Z</time>
</trkpt>
<trkpt lat="45.8504900" lon="9.2328960">
	<ele>916.60</ele>
	<time>2025-02-15T08:30:06.000Z</time>
</trkpt>
<trkpt lat="45.8504970" lon="9.2328830">
	<ele>917.00</ele>
	<time>2025-02-15T08:30:07.000Z</time>
</trkpt>
<trkpt lat="45.8505030" lon="9.2328780">
	<ele>917.20</ele>
	<time>2025-02-15T08:30:08.000Z</time>
</trkpt>
<trkpt lat="45.8505140" lon="9.2328740">
	<ele>917.40</ele>
	<time>2025-02-15T08:30:09.000Z</time>
</trkpt>
<trkpt lat="45.8505180" lon="9.2328590">
	<ele>917.40</ele>
	<time>2025-02-15T08:30:10.000Z</time>
</trkpt>
<trkpt lat="45.8505170" lon="9.2328400">
	<ele>917.60</ele>
	<time>2025-02-15T08:30:11.000Z</time>
</trkpt>
<trkpt lat="45.8505190" lon="9.2328220">
	<ele>917.60</ele>
	<time>2025-02-15T08:30:12.000Z</time>
</trkpt>
<trkpt lat="45.8505250" lon="9.2328030">
	<ele>917.80</ele>
	<time>2025-02-15T08:30:13.000Z</time>
</trkpt>
<trkpt lat="45.8505250" lon="9.2327940">
	<ele>918.00</ele>
	<time>2025-02-15T08:30:14.000Z</time>
</trkpt>
<trkpt lat="45.8505300" lon="9.2327760">
	<ele>918.00</ele>
	<time>2025-02-15T08:30:15.000Z</time>
</trkpt>
<trkpt lat="45.8505330" lon="9.2327530">
	<ele>918.00</ele>
	<time>2025-02-15T08:30:16.000Z</time>
</trkpt>
<trkpt lat="45.8505380" lon="9.2327270">
	<ele>918.00</ele>
	<time>2025-02-15T08:30:17.000Z</time>
</trkpt>
<trkpt lat="45.8505460" lon="9.2326940">
	<ele>918.20</ele>
	<time>2025-02-15T08:30:18.000Z</time>
</trkpt>
<trkpt lat="45.8505530" lon="9.2326700">
	<ele>918.20</ele>
	<time>2025-02-15T08:30:19.000Z</time>
</trkpt>
<trkpt lat="45.8505560" lon="9.2326540">
	<ele>918.40</ele>
	<time>2025-02-15T08:30:20.000Z</time>
</trkpt>
<trkpt lat="45.8505620" lon="9.2326400">
	<ele>918.40</ele>
	<time>2025-02-15T08:30:21.000Z</time>
</trkpt>
<trkpt lat="45.8505710" lon="9.2326250">
	<ele>918.40</ele>
	<time>2025-02-15T08:30:22.000Z</time>
</trkpt>
<trkpt lat="45.8505740" lon="9.2326080">
	<ele>918.60</ele>
	<time>2025-02-15T08:30:23.000Z</time>
</trkpt>
<trkpt lat="45.8505740" lon="9.2325930">
	<ele>918.60</ele>
	<time>2025-02-15T08:30:24.000Z</time>
</trkpt>
<trkpt lat="45.8505680" lon="9.2325820">
	<ele>918.60</ele>
	<time>2025-02-15T08:30:25.000Z</time>
</trkpt>
<trkpt lat="45.8505680" lon="9.2325730">
	<ele>918.60</ele>
	<time>2025-02-15T08:30:26.000Z</time>
</trkpt>
<trkpt lat="45.8505730" lon="9.2325670">
	<ele>918.60</ele>
	<time>2025-02-15T08:30:27.000Z</time>
</trkpt>
<trkpt lat="45.8505730" lon="9.2325610">
	<ele>918.60</ele>
	<time>2025-02-15T08:30:28.000Z</time>
</trkpt>
<trkpt lat="45.8505680" lon="9.2325540">
	<ele>918.80</ele>
	<time>2025-02-15T08:30:29.000Z</time>
</trkpt>
<trkpt lat="45.8505670" lon="9.2325440">
	<ele>918.80</ele>
	<time>2025-02-15T08:30:30.000Z</time>
</trkpt>
<trkpt lat="45.8505690" lon="9.2325380">
	<ele>918.80</ele>
	<time>2025-02-15T08:30:31.000Z</time>
</trkpt>
<trkpt lat="45.8505820" lon="9.2325300">
	<ele>918.80</ele>
	<time>2025-02-15T08:30:32.000Z</time>
</trkpt>
<trkpt lat="45.8506110" lon="9.2325030">
	<ele>919.00</ele>
	<time>2025-02-15T08:30:33.000Z</time>
</trkpt>
<trkpt lat="45.8506310" lon="9.2324830">
	<ele>919.00</ele>
	<time>2025-02-15T08:30:34.000Z</time>
</trkpt>
<trkpt lat="45.8506360" lon="9.2324640">
	<ele>919.20</ele>
	<time>2025-02-15T08:30:35.000Z</time>
</trkpt>
<trkpt lat="45.8506360" lon="9.2324570">
	<ele>919.20</ele>
	<time>2025-02-15T08:30:36.000Z</time>
</trkpt>
<trkpt lat="45.8506370" lon="9.2324520">
	<ele>919.20</ele>
	<time>2025-02-15T08:30:37.000Z</time>
</trkpt>
<trkpt lat="45.8506290" lon="9.2324460">
	<ele>919.20</ele>
	<time>2025-02-15T08:30:38.000Z</time>
</trkpt>
<trkpt lat="45.8506310" lon="9.2324350">
	<ele>919.20</ele>
	<time>2025-02-15T08:30:39.000Z</time>
</trkpt>
<trkpt lat="45.8506290" lon="9.2324210">
	<ele>919.40</ele>
	<time>2025-02-15T08:30:40.000Z</time>
</trkpt>
<trkpt lat="45.8506250" lon="9.2324130">
	<ele>919.40</ele>
	<time>2025-02-15T08:30:41.000Z</time>
</trkpt>
<trkpt lat="45.8506260" lon="9.2324010">
	<ele>919.40</ele>
	<time>2025-02-15T08:30:42.000Z</time>
</trkpt>
<trkpt lat="45.8506290" lon="9.2323870">
	<ele>919.40</ele>
	<time>2025-02-15T08:30:43.000Z</time>
</trkpt>
<trkpt lat="45.8506380" lon="9.2323780">
	<ele>919.40</ele>
	<time>2025-02-15T08:30:44.000Z</time>
</trkpt>
<trkpt lat="45.8506460" lon="9.2323760">
	<ele>919.60</ele>
	<time>2025-02-15T08:30:45.000Z</time>
</trkpt>
<trkpt lat="45.8506460" lon="9.2323710">
	<ele>919.80</ele>
	<time>2025-02-15T08:30:46.000Z</time>
</trkpt>
<trkpt lat="45.8506470" lon="9.2323650">
	<ele>919.80</ele>
	<time>2025-02-15T08:30:47.000Z</time>
</trkpt>
<trkpt lat="45.8506490" lon="9.2323590">
	<ele>920.00</ele>
	<time>2025-02-15T08:30:48.000Z</time>
</trkpt>
<trkpt lat="45.8506580" lon="9.2323550">
	<ele>920.20</ele>
	<time>2025-02-15T08:30:49.000Z</time>
</trkpt>
<trkpt lat="45.8506640" lon="9.2323530">
	<ele>920.60</ele>
	<time>2025-02-15T08:30:50.000Z</time>
</trkpt>
<trkpt lat="45.8506660" lon="9.2323500">
	<ele>920.80</ele>
	<time>2025-02-15T08:30:51.000Z</time>
</trkpt>
<trkpt lat="45.8506690" lon="9.2323500">
	<ele>921.00</ele>
	<time>2025-02-15T08:30:52.000Z</time>
</trkpt>
<trkpt lat="45.8506710" lon="9.2323510">
	<ele>921.20</ele>
	<time>2025-02-15T08:30:53.000Z</time>
</trkpt>
<trkpt lat="45.8506750" lon="9.2323410">
	<ele>921.40</ele>
	<time>2025-02-15T08:30:54.000Z</time>
</trkpt>
<trkpt lat="45.8506790" lon="9.2323300">
	<ele>921.40</ele>
	<time>2025-02-15T08:30:55.000Z</time>
</trkpt>
<trkpt lat="45.8506830" lon="9.2323180">
	<ele>921.60</ele>
	<time>2025-02-15T08:30:56.000Z</time>
</trkpt>
<trkpt lat="45.8506930" lon="9.2323120">
	<ele>921.60</ele>
	<time>2025-02-15T08:30:57.000Z</time>
</trkpt>
<trkpt lat="45.8506930" lon="9.2323160">
	<ele>921.60</ele>
	<time>2025-02-15T08:30:58.000Z</time>
</trkpt>
<trkpt lat="45.8506940" lon="9.2323220">
	<ele>921.60</ele>
	<time>2025-02-15T08:30:59.000Z</time>
</trkpt>
<trkpt lat="45.8506990" lon="9.2323220">
	<ele>921.60</ele>
	<time>2025-02-15T08:31:00.000Z</time>
</trkpt>
<trkpt lat="45.8507080" lon="9.2323260">
	<ele>921.60</ele>
	<time>2025-02-15T08:31:01.000Z</time>
</trkpt>
<trkpt lat="45.8507180" lon="9.2323270">
	<ele>921.60</ele>
	<time>2025-02-15T08:31:02.000Z</time>
</trkpt>
<trkpt lat="45.8507300" lon="9.2323220">
	<ele>921.80</ele>
	<time>2025-02-15T08:31:03.000Z</time>
</trkpt>
<trkpt lat="45.8507420" lon="9.2323200">
	<ele>922.00</ele>
	<time>2025-02-15T08:31:04.000Z</time>
</trkpt>
<trkpt lat="45.8507520" lon="9.2323280">
	<ele>922.00</ele>
	<time>2025-02-15T08:31:05.000Z</time>
</trkpt>
<trkpt lat="45.8507660" lon="9.2323420">
	<ele>922.00</ele>
	<time>2025-02-15T08:31:06.000Z</time>
</trkpt>
<trkpt lat="45.8507760" lon="9.2323520">
	<ele>922.20</ele>
	<time>2025-02-15T08:31:07.000Z</time>
</trkpt>
<trkpt lat="45.8507870" lon="9.2323530">
	<ele>922.20</ele>
	<time>2025-02-15T08:31:08.000Z</time>
</trkpt>
<trkpt lat="45.8507970" lon="9.2323460">
	<ele>922.20</ele>
	<time>2025-02-15T08:31:09.000Z</time>
</trkpt>
<trkpt lat="45.8508030" lon="9.2323320">
	<ele>922.40</ele>
	<time>2025-02-15T08:31:10.000Z</time>
</trkpt>
<trkpt lat="45.8508100" lon="9.2323200">
	<ele>922.40</ele>
	<time>2025-02-15T08:31:11.000Z</time>
</trkpt>
<trkpt lat="45.8508200" lon="9.2323180">
	<ele>922.40</ele>
	<time>2025-02-15T08:31:12.000Z</time>
</trkpt>
<trkpt lat="45.8508300" lon="9.2323160">
	<ele>922.20</ele>
	<time>2025-02-15T08:31:13.000Z</time>
</trkpt>
<trkpt lat="45.8508390" lon="9.2323170">
	<ele>922.20</ele>
	<time>2025-02-15T08:31:14.000Z</time>
</trkpt>
<trkpt lat="45.8508460" lon="9.2323200">
	<ele>922.00</ele>
	<time>2025-02-15T08:31:15.000Z</time>
</trkpt>
<trkpt lat="45.8508520" lon="9.2323160">
	<ele>922.00</ele>
	<time>2025-02-15T08:31:16.000Z</time>
</trkpt>
<trkpt lat="45.8508550" lon="9.2323110">
	<ele>922.00</ele>
	<time>2025-02-15T08:31:17.000Z</time>
</trkpt>
<trkpt lat="45.8508610" lon="9.2323020">
	<ele>922.00</ele>
	<time>2025-02-15T08:31:18.000Z</time>
</trkpt>
<trkpt lat="45.8508730" lon="9.2322940">
	<ele>922.00</ele>
	<time>2025-02-15T08:31:19.000Z</time>
</trkpt>
<trkpt lat="45.8508830" lon="9.2323000">
	<ele>922.00</ele>
	<time>2025-02-15T08:31:20.000Z</time>
</trkpt>
<trkpt lat="45.8508910" lon="9.2323180">
	<ele>922.00</ele>
	<time>2025-02-15T08:31:21.000Z</time>
</trkpt>
<trkpt lat="45.8509040" lon="9.2323200">
	<ele>921.80</ele>
	<time>2025-02-15T08:31:22.000Z</time>
</trkpt>
<trkpt lat="45.8509120" lon="9.2323260">
	<ele>921.80</ele>
	<time>2025-02-15T08:31:23.000Z</time>
</trkpt>
<trkpt lat="45.8509220" lon="9.2323270">
	<ele>921.80</ele>
	<time>2025-02-15T08:31:24.000Z</time>
</trkpt>
<trkpt lat="45.8509320" lon="9.2323190">
	<ele>921.40</ele>
	<time>2025-02-15T08:31:25.000Z</time>
</trkpt>
<trkpt lat="45.8509430" lon="9.2323170">
	<ele>921.20</ele>
	<time>2025-02-15T08:31:26.000Z</time>
</trkpt>
<trkpt lat="45.8509540" lon="9.2323150">
	<ele>920.80</ele>
	<time>2025-02-15T08:31:27.000Z</time>
</trkpt>
<trkpt lat="45.8509650" lon="9.2323130">
	<ele>920.60</ele>
	<time>2025-02-15T08:31:28.000Z</time>
</trkpt>
<trkpt lat="45.8509770" lon="9.2323170">
	<ele>920.60</ele>
	<time>2025-02-15T08:31:29.000Z</time>
</trkpt>
<trkpt lat="45.8509810" lon="9.2323130">
	<ele>920.80</ele>
	<time>2025-02-15T08:31:30.000Z</time>
</trkpt>
<trkpt lat="45.8509850" lon="9.2323110">
	<ele>921.20</ele>
	<time>2025-02-15T08:31:31.000Z</time>
</trkpt>
<trkpt lat="45.8509930" lon="9.2323190">
	<ele>921.20</ele>
	<time>2025-02-15T08:31:32.000Z</time>
</trkpt>
<trkpt lat="45.8509970" lon="9.2323200">
	<ele>921.20</ele>
	<time>2025-02-15T08:31:33.000Z</time>
</trkpt>
<trkpt lat="45.8510050" lon="9.2323320">
	<ele>921.40</ele>
	<time>2025-02-15T08:31:34.000Z</time>
</trkpt>
<trkpt lat="45.8510110" lon="9.2323340">
	<ele>921.40</ele>
	<time>2025-02-15T08:31:35.000Z</time>
</trkpt>
<trkpt lat="45.8510170" lon="9.2323360">
	<ele>921.40</ele>
	<time>2025-02-15T08:31:36.000Z</time>
</trkpt>
<trkpt lat="45.8510260" lon="9.2323310">
	<ele>921.20</ele>
	<time>2025-02-15T08:31:37.000Z</time>
</trkpt>
<trkpt lat="45.8510290" lon="9.2323350">
	<ele>921.00</ele>
	<time>2025-02-15T08:31:38.000Z</time>
</trkpt>
<trkpt lat="45.8510330" lon="9.2323330">
	<ele>921.00</ele>
	<time>2025-02-15T08:31:39.000Z</time>
</trkpt>
<trkpt lat="45.8510400" lon="9.2323230">
	<ele>920.80</ele>
	<time>2025-02-15T08:31:40.000Z</time>
</trkpt>
<trkpt lat="45.8510440" lon="9.2323200">
	<ele>920.80</ele>
	<time>2025-02-15T08:31:41.000Z</time>
</trkpt>
<trkpt lat="45.8510490" lon="9.2323140">
	<ele>920.80</ele>
	<time>2025-02-15T08:31:42.000Z</time>
</trkpt>
<trkpt lat="45.8510560" lon="9.2323080">
	<ele>920.60</ele>
	<time>2025-02-15T08:31:43.000Z</time>
</trkpt>
<trkpt lat="45.8510620" lon="9.2323060">
	<ele>920.60</ele>
	<time>2025-02-15T08:31:44.000Z</time>
</trkpt>
<trkpt lat="45.8510670" lon="9.2323140">
	<ele>920.60</ele>
	<time>2025-02-15T08:31:45.000Z</time>
</trkpt>
<trkpt lat="45.8510740" lon="9.2323280">
	<ele>920.60</ele>
	<time>2025-02-15T08:31:46.000Z</time>
</trkpt>
<trkpt lat="45.8510770" lon="9.2323320">
	<ele>920.60</ele>
	<time>2025-02-15T08:31:47.000Z</time>
</trkpt>
<trkpt lat="45.8510830" lon="9.2323390">
	<ele>920.60</ele>
	<time>2025-02-15T08:31:48.000Z</time>
</trkpt>
<trkpt lat="45.8510940" lon="9.2323440">
	<ele>920.60</ele>
	<time>2025-02-15T08:31:49.000Z</time>
</trkpt>
<trkpt lat="45.8511060" lon="9.2323500">
	<ele>920.60</ele>
	<time>2025-02-15T08:31:50.000Z</time>
</trkpt>
<trkpt lat="45.8511120" lon="9.2323530">
	<ele>920.80</ele>
	<time>2025-02-15T08:31:51.000Z</time>
</trkpt>
<trkpt lat="45.8511150" lon="9.2323540">
	<ele>920.80</ele>
	<time>2025-02-15T08:31:52.000Z</time>
</trkpt>
<trkpt lat="45.8511230" lon="9.2323660">
	<ele>920.80</ele>
	<time>2025-02-15T08:31:53.000Z</time>
</trkpt>
<trkpt lat="45.8511300" lon="9.2323700">
	<ele>920.80</ele>
	<time>2025-02-15T08:31:54.000Z</time>
</trkpt>
<trkpt lat="45.8511370" lon="9.2323940">
	<ele>920.80</ele>
	<time>2025-02-15T08:31:55.000Z</time>
</trkpt>
<trkpt lat="45.8511420" lon="9.2324060">
	<ele>920.60</ele>
	<time>2025-02-15T08:31:56.000Z</time>
</trkpt>
<trkpt lat="45.8511540" lon="9.2324000">
	<ele>920.60</ele>
	<time>2025-02-15T08:31:57.000Z</time>
</trkpt>
<trkpt lat="45.8511630" lon="9.2324050">
	<ele>920.80</ele>
	<time>2025-02-15T08:31:58.000Z</time>
</trkpt>
<trkpt lat="45.8511790" lon="9.2323970">
	<ele>920.80</ele>
	<time>2025-02-15T08:31:59.000Z</time>
</trkpt>
<trkpt lat="45.8511870" lon="9.2324000">
	<ele>920.80</ele>
	<time>2025-02-15T08:32:00.000Z</time>
</trkpt>
<trkpt lat="45.8511950" lon="9.2324090">
	<ele>920.80</ele>
	<time>2025-02-15T08:32:01.000Z</time>
</trkpt>
<trkpt lat="45.8512020" lon="9.2324170">
	<ele>920.80</ele>
	<time>2025-02-15T08:32:02.000Z</time>
</trkpt>
<trkpt lat="45.8512090" lon="9.2324200">
	<ele>921.00</ele>
	<time>2025-02-15T08:32:03.000Z</time>
</trkpt>
<trkpt lat="45.8512130" lon="9.2324230">
	<ele>921.20</ele>
	<time>2025-02-15T08:32:04.000Z</time>
</trkpt>
<trkpt lat="45.8512150" lon="9.2324180">
	<ele>921.20</ele>
	<time>2025-02-15T08:32:05.000Z</time>
</trkpt>
<trkpt lat="45.8512200" lon="9.2324170">
	<ele>921.40</ele>
	<time>2025-02-15T08:32:06.000Z</time>
</trkpt>
<trkpt lat="45.8512240" lon="9.2324130">
	<ele>921.40</ele>
	<time>2025-02-15T08:32:07.000Z</time>
</trkpt>
<trkpt lat="45.8512380" lon="9.2324100">
	<ele>921.40</ele>
	<time>2025-02-15T08:32:08.000Z</time>
</trkpt>
<trkpt lat="45.8512570" lon="9.2324150">
	<ele>921.40</ele>
	<time>2025-02-15T08:32:09.000Z</time>
</trkpt>
<trkpt lat="45.8512760" lon="9.2324090">
	<ele>921.40</ele>
	<time>2025-02-15T08:32:10.000Z</time>
</trkpt>
<trkpt lat="45.8512870" lon="9.2324110">
	<ele>921.40</ele>
	<time>2025-02-15T08:32:11.000Z</time>
</trkpt>
<trkpt lat="45.8512930" lon="9.2324040">
	<ele>921.20</ele>
	<time>2025-02-15T08:32:12.000Z</time>
</trkpt>
<trkpt lat="45.8513000" lon="9.2323980">
	<ele>921.20</ele>
	<time>2025-02-15T08:32:13.000Z</time>
</trkpt>
<trkpt lat="45.8513060" lon="9.2323940">
	<ele>921.00</ele>
	<time>2025-02-15T08:32:14.000Z</time>
</trkpt>
<trkpt lat="45.8513170" lon="9.2323960">
	<ele>921.00</ele>
	<time>2025-02-15T08:32:15.000Z</time>
</trkpt>
<trkpt lat="45.8513300" lon="9.2324000">
	<ele>921.00</ele>
	<time>2025-02-15T08:32:16.000Z</time>
</trkpt>
<trkpt lat="45.8513380" lon="9.2324000">
	<ele>921.00</ele>
	<time>2025-02-15T08:32:17.000Z</time>
</trkpt>
<trkpt lat="45.8513410" lon="9.2323990">
	<ele>921.00</ele>
	<time>2025-02-15T08:32:18.000Z</time>
</trkpt>
<trkpt lat="45.8513500" lon="9.2324030">
	<ele>921.20</ele>
	<time>2025-02-15T08:32:19.000Z</time>
</trkpt>
<trkpt lat="45.8513620" lon="9.2324180">
	<ele>921.20</ele>
	<time>2025-02-15T08:32:20.000Z</time>
</trkpt>
<trkpt lat="45.8513730" lon="9.2324260">
	<ele>921.20</ele>
	<time>2025-02-15T08:32:21.000Z</time>
</trkpt>
<trkpt lat="45.8513820" lon="9.2324330">
	<ele>921.20</ele>
	<time>2025-02-15T08:32:22.000Z</time>
</trkpt>
<trkpt lat="45.8513880" lon="9.2324350">
	<ele>921.40</ele>
	<time>2025-02-15T08:32:23.000Z</time>
</trkpt>
<trkpt lat="45.8513970" lon="9.2324360">
	<ele>921.40</ele>
	<time>2025-02-15T08:32:24.000Z</time>
</trkpt>
<trkpt lat="45.8514050" lon="9.2324360">
	<ele>921.40</ele>
	<time>2025-02-15T08:32:25.000Z</time>
</trkpt>
<trkpt lat="45.8514080" lon="9.2324330">
	<ele>921.40</ele>
	<time>2025-02-15T08:32:26.000Z</time>
</trkpt>
<trkpt lat="45.8514150" lon="9.2324310">
	<ele>921.40</ele>
	<time>2025-02-15T08:32:27.000Z</time>
</trkpt>
<trkpt lat="45.8514280" lon="9.2324220">
	<ele>921.60</ele>
	<time>2025-02-15T08:32:28.000Z</time>
</trkpt>
<trkpt lat="45.8514320" lon="9.2324200">
	<ele>921.60</ele>
	<time>2025-02-15T08:32:29.000Z</time>
</trkpt>
<trkpt lat="45.8514450" lon="9.2324290">
	<ele>921.60</ele>
	<time>2025-02-15T08:32:30.000Z</time>
</trkpt>
<trkpt lat="45.8514610" lon="9.2324350">
	<ele>921.60</ele>
	<time>2025-02-15T08:32:31.000Z</time>
</trkpt>
<trkpt lat="45.8514700" lon="9.2324370">
	<ele>921.60</ele>
	<time>2025-02-15T08:32:32.000Z</time>
</trkpt>
<trkpt lat="45.8514730" lon="9.2324260">
	<ele>921.60</ele>
	<time>2025-02-15T08:32:33.000Z</time>
</trkpt>
<trkpt lat="45.8514770" lon="9.2324020">
	<ele>921.60</ele>
	<time>2025-02-15T08:32:34.000Z</time>
</trkpt>
<trkpt lat="45.8514800" lon="9.2323810">
	<ele>921.60</ele>
	<time>2025-02-15T08:32:35.000Z</time>
</trkpt>
<trkpt lat="45.8514820" lon="9.2323810">
	<ele>921.60</ele>
	<time>2025-02-15T08:32:36.000Z</time>
</trkpt>
<trkpt lat="45.8514910" lon="9.2323920">
	<ele>921.60</ele>
	<time>2025-02-15T08:32:37.000Z</time>
</trkpt>
<trkpt lat="45.8515010" lon="9.2324040">
	<ele>921.60</ele>
	<time>2025-02-15T08:32:38.000Z</time>
</trkpt>
<trkpt lat="45.8515140" lon="9.2324120">
	<ele>921.80</ele>
	<time>2025-02-15T08:32:39.000Z</time>
</trkpt>
<trkpt lat="45.8515240" lon="9.2324080">
	<ele>921.80</ele>
	<time>2025-02-15T08:32:40.000Z</time>
</trkpt>
<trkpt lat="45.8515350" lon="9.2324130">
	<ele>922.00</ele>
	<time>2025-02-15T08:32:41.000Z</time>
</trkpt>
<trkpt lat="45.8515440" lon="9.2324120">
	<ele>922.00</ele>
	<time>2025-02-15T08:32:42.000Z</time>
</trkpt>
<trkpt lat="45.8515520" lon="9.2324140">
	<ele>922.00</ele>
	<time>2025-02-15T08:32:43.000Z</time>
</trkpt>
<trkpt lat="45.8515590" lon="9.2324130">
	<ele>922.00</ele>
	<time>2025-02-15T08:32:44.000Z</time>
</trkpt>
<trkpt lat="45.8515710" lon="9.2324230">
	<ele>922.20</ele>
	<time>2025-02-15T08:32:45.000Z</time>
</trkpt>
<trkpt lat="45.8515800" lon="9.2324280">
	<ele>922.20</ele>
	<time>2025-02-15T08:32:46.000Z</time>
</trkpt>
<trkpt lat="45.8515860" lon="9.2324250">
	<ele>922.20</ele>
	<time>2025-02-15T08:32:47.000Z</time>
</trkpt>
<trkpt lat="45.8515910" lon="9.2324230">
	<ele>922.40</ele>
	<time>2025-02-15T08:32:48.000Z</time>
</trkpt>
<trkpt lat="45.8516000" lon="9.2324290">
	<ele>922.40</ele>
	<time>2025-02-15T08:32:49.000Z</time>
</trkpt>
<trkpt lat="45.8516110" lon="9.2324300">
	<ele>922.40</ele>
	<time>2025-02-15T08:32:50.000Z</time>
</trkpt>
<trkpt lat="45.8516210" lon="9.2324350">
	<ele>922.40</ele>
	<time>2025-02-15T08:32:51.000Z</time>
</trkpt>
<trkpt lat="45.8516280" lon="9.2324420">
	<ele>922.60</ele>
	<time>2025-02-15T08:32:52.000Z</time>
</trkpt>
<trkpt lat="45.8516320" lon="9.2324430">
	<ele>922.60</ele>
	<time>2025-02-15T08:32:53.000Z</time>
</trkpt>
<trkpt lat="45.8516400" lon="9.2324460">
	<ele>922.60</ele>
	<time>2025-02-15T08:32:54.000Z</time>
</trkpt>
<trkpt lat="45.8516470" lon="9.2324460">
	<ele>922.60</ele>
	<time>2025-02-15T08:32:55.000Z</time>
</trkpt>
<trkpt lat="45.8516560" lon="9.2324420">
	<ele>922.80</ele>
	<time>2025-02-15T08:32:56.000Z</time>
</trkpt>
<trkpt lat="45.8516720" lon="9.2324440">
	<ele>922.80</ele>
	<time>2025-02-15T08:32:57.000Z</time>
</trkpt>
<trkpt lat="45.8516870" lon="9.2324430">
	<ele>923.00</ele>
	<time>2025-02-15T08:32:58.000Z</time>
</trkpt>
<trkpt lat="45.8516980" lon="9.2324410">
	<ele>923.00</ele>
	<time>2025-02-15T08:32:59.000Z</time>
</trkpt>
<trkpt lat="45.8517090" lon="9.2324500">
	<ele>923.20</ele>
	<time>2025-02-15T08:33:00.000Z</time>
</trkpt>
<trkpt lat="45.8517150" lon="9.2324510">
	<ele>923.20</ele>
	<time>2025-02-15T08:33:01.000Z</time>
</trkpt>
<trkpt lat="45.8517190" lon="9.2324560">
	<ele>923.40</ele>
	<time>2025-02-15T08:33:02.000Z</time>
</trkpt>
<trkpt lat="45.8517250" lon="9.2324580">
	<ele>923.60</ele>
	<time>2025-02-15T08:33:03.000Z</time>
</trkpt>
<trkpt lat="45.8517330" lon="9.2324560">
	<ele>923.60</ele>
	<time>2025-02-15T08:33:04.000Z</time>
</trkpt>
<trkpt lat="45.8517450" lon="9.2324550">
	<ele>923.80</ele>
	<time>2025-02-15T08:33:05.000Z</time>
</trkpt>
<trkpt lat="45.8517580" lon="9.2324440">
	<ele>923.80</ele>
	<time>2025-02-15T08:33:06.000Z</time>
</trkpt>
<trkpt lat="45.8517610" lon="9.2324400">
	<ele>924.00</ele>
	<time>2025-02-15T08:33:07.000Z</time>
</trkpt>
<trkpt lat="45.8517640" lon="9.2324370">
	<ele>924.00</ele>
	<time>2025-02-15T08:33:08.000Z</time>
</trkpt>
<trkpt lat="45.8517700" lon="9.2324320">
	<ele>924.20</ele>
	<time>2025-02-15T08:33:09.000Z</time>
</trkpt>
<trkpt lat="45.8517790" lon="9.2324360">
	<ele>924.20</ele>
	<time>2025-02-15T08:33:10.000Z</time>
</trkpt>
<trkpt lat="45.8517990" lon="9.2324510">
	<ele>924.60</ele>
	<time>2025-02-15T08:33:11.000Z</time>
</trkpt>
<trkpt lat="45.8518060" lon="9.2324560">
	<ele>924.60</ele>
	<time>2025-02-15T08:33:12.000Z</time>
</trkpt>
<trkpt lat="45.8518100" lon="9.2324550">
	<ele>924.80</ele>
	<time>2025-02-15T08:33:13.000Z</time>
</trkpt>
<trkpt lat="45.8518200" lon="9.2324670">
	<ele>924.80</ele>
	<time>2025-02-15T08:33:14.000Z</time>
</trkpt>
<trkpt lat="45.8518330" lon="9.2324800">
	<ele>924.80</ele>
	<time>2025-02-15T08:33:15.000Z</time>
</trkpt>
<trkpt lat="45.8518400" lon="9.2324810">
	<ele>924.60</ele>
	<time>2025-02-15T08:33:16.000Z</time>
</trkpt>
<trkpt lat="45.8518510" lon="9.2324790">
	<ele>924.40</ele>
	<time>2025-02-15T08:33:17.000Z</time>
</trkpt>
<trkpt lat="45.8518600" lon="9.2324790">
	<ele>924.40</ele>
	<time>2025-02-15T08:33:18.000Z</time>
</trkpt>
<trkpt lat="45.8518700" lon="9.2324880">
	<ele>924.40</ele>
	<time>2025-02-15T08:33:19.000Z</time>
</trkpt>
<trkpt lat="45.8518860" lon="9.2324900">
	<ele>924.40</ele>
	<time>2025-02-15T08:33:20.000Z</time>
</trkpt>
<trkpt lat="45.8518930" lon="9.2324930">
	<ele>924.40</ele>
	<time>2025-02-15T08:33:21.000Z</time>
</trkpt>
<trkpt lat="45.8519090" lon="9.2324960">
	<ele>924.60</ele>
	<time>2025-02-15T08:33:22.000Z</time>
</trkpt>
<trkpt lat="45.8519210" lon="9.2325090">
	<ele>924.60</ele>
	<time>2025-02-15T08:33:23.000Z</time>
</trkpt>
<trkpt lat="45.8519340" lon="9.2325200">
	<ele>924.80</ele>
	<time>2025-02-15T08:33:24.000Z</time>
</trkpt>
<trkpt lat="45.8519440" lon="9.2325280">
	<ele>924.80</ele>
	<time>2025-02-15T08:33:25.000Z</time>
</trkpt>
<trkpt lat="45.8519440" lon="9.2325360">
	<ele>924.80</ele>
	<time>2025-02-15T08:33:26.000Z</time>
</trkpt>
<trkpt lat="45.8519430" lon="9.2325370">
	<ele>924.80</ele>
	<time>2025-02-15T08:33:27.000Z</time>
</trkpt>
<trkpt lat="45.8519500" lon="9.2325360">
	<ele>924.80</ele>
	<time>2025-02-15T08:33:28.000Z</time>
</trkpt>
<trkpt lat="45.8519570" lon="9.2325340">
	<ele>925.00</ele>
	<time>2025-02-15T08:33:29.000Z</time>
</trkpt>
<trkpt lat="45.8519590" lon="9.2325360">
	<ele>925.00</ele>
	<time>2025-02-15T08:33:30.000Z</time>
</trkpt>
<trkpt lat="45.8519590" lon="9.2325340">
	<ele>925.00</ele>
	<time>2025-02-15T08:33:31.000Z</time>
</trkpt>
<trkpt lat="45.8519710" lon="9.2325250">
	<ele>925.00</ele>
	<time>2025-02-15T08:33:32.000Z</time>
</trkpt>
<trkpt lat="45.8519830" lon="9.2325210">
	<ele>925.00</ele>
	<time>2025-02-15T08:33:33.000Z</time>
</trkpt>
<trkpt lat="45.8519870" lon="9.2325160">
	<ele>925.00</ele>
	<time>2025-02-15T08:33:34.000Z</time>
</trkpt>
<trkpt lat="45.8520010" lon="9.2325170">
	<ele>925.20</ele>
	<time>2025-02-15T08:33:35.000Z</time>
</trkpt>
<trkpt lat="45.8520150" lon="9.2325260">
	<ele>925.20</ele>
	<time>2025-02-15T08:33:36.000Z</time>
</trkpt>
<trkpt lat="45.8520210" lon="9.2325340">
	<ele>925.40</ele>
	<time>2025-02-15T08:33:37.000Z</time>
</trkpt>
<trkpt lat="45.8520270" lon="9.2325430">
	<ele>925.40</ele>
	<time>2025-02-15T08:33:38.000Z</time>
</trkpt>
<trkpt lat="45.8520350" lon="9.2325540">
	<ele>925.40</ele>
	<time>2025-02-15T08:33:39.000Z</time>
</trkpt>
<trkpt lat="45.8520410" lon="9.2325600">
	<ele>925.40</ele>
	<time>2025-02-15T08:33:40.000Z</time>
</trkpt>
<trkpt lat="45.8520500" lon="9.2325600">
	<ele>925.60</ele>
	<time>2025-02-15T08:33:41.000Z</time>
</trkpt>
<trkpt lat="45.8520590" lon="9.2325530">
	<ele>925.60</ele>
	<time>2025-02-15T08:33:42.000Z</time>
</trkpt>
<trkpt lat="45.8520670" lon="9.2325490">
	<ele>925.80</ele>
	<time>2025-02-15T08:33:43.000Z</time>
</trkpt>
<trkpt lat="45.8520710" lon="9.2325470">
	<ele>925.80</ele>
	<time>2025-02-15T08:33:44.000Z</time>
</trkpt>
<trkpt lat="45.8520800" lon="9.2325450">
	<ele>925.80</ele>
	<time>2025-02-15T08:33:45.000Z</time>
</trkpt>
<trkpt lat="45.8520880" lon="9.2325360">
	<ele>925.80</ele>
	<time>2025-02-15T08:33:46.000Z</time>
</trkpt>
<trkpt lat="45.8520920" lon="9.2325350">
	<ele>926.00</ele>
	<time>2025-02-15T08:33:47.000Z</time>
</trkpt>
<trkpt lat="45.8520990" lon="9.2325370">
	<ele>926.00</ele>
	<time>2025-02-15T08:33:48.000Z</time>
</trkpt>
<trkpt lat="45.8521120" lon="9.2325400">
	<ele>926.00</ele>
	<time>2025-02-15T08:33:49.000Z</time>
</trkpt>
<trkpt lat="45.8521250" lon="9.2325430">
	<ele>926.00</ele>
	<time>2025-02-15T08:33:50.000Z</time>
</trkpt>
<trkpt lat="45.8521360" lon="9.2325460">
	<ele>926.20</ele>
	<time>2025-02-15T08:33:51.000Z</time>
</trkpt>
<trkpt lat="45.8521460" lon="9.2325490">
	<ele>926.40</ele>
	<time>2025-02-15T08:33:52.000Z</time>
</trkpt>
<trkpt lat="45.8521570" lon="9.2325550">
	<ele>926.40</ele>
	<time>2025-02-15T08:33:53.000Z</time>
</trkpt>
<trkpt lat="45.8521700" lon="9.2325550">
	<ele>926.60</ele>
	<time>2025-02-15T08:33:54.000Z</time>
</trkpt>
<trkpt lat="45.8521820" lon="9.2325570">
	<ele>926.60</ele>
	<time>2025-02-15T08:33:55.000Z</time>
</trkpt>
<trkpt lat="45.8521870" lon="9.2325640">
	<ele>926.80</ele>
	<time>2025-02-15T08:33:56.000Z</time>
</trkpt>
<trkpt lat="45.8521920" lon="9.2325720">
	<ele>926.80</ele>
	<time>2025-02-15T08:33:57.000Z</time>
</trkpt>
<trkpt lat="45.8522000" lon="9.2325760">
	<ele>927.00</ele>
	<time>2025-02-15T08:33:58.000Z</time>
</trkpt>
<trkpt lat="45.8522050" lon="9.2325760">
	<ele>927.00</ele>
	<time>2025-02-15T08:33:59.000Z</time>
</trkpt>
<trkpt lat="45.8522090" lon="9.2325760">
	<ele>927.00</ele>
	<time>2025-02-15T08:34:00.000Z</time>
</trkpt>
<trkpt lat="45.8522130" lon="9.2325740">
	<ele>927.20</ele>
	<time>2025-02-15T08:34:01.000Z</time>
</trkpt>
<trkpt lat="45.8522160" lon="9.2325740">
	<ele>927.20</ele>
	<time>2025-02-15T08:34:02.000Z</time>
</trkpt>
<trkpt lat="45.8522170" lon="9.2325720">
	<ele>927.40</ele>
	<time>2025-02-15T08:34:03.000Z</time>
</trkpt>
<trkpt lat="45.8522320" lon="9.2325720">
	<ele>927.60</ele>
	<time>2025-02-15T08:34:04.000Z</time>
</trkpt>
<trkpt lat="45.8522350" lon="9.2325710">
	<ele>927.60</ele>
	<time>2025-02-15T08:34:05.000Z</time>
</trkpt>
<trkpt lat="45.8522380" lon="9.2325670">
	<ele>927.80</ele>
	<time>2025-02-15T08:34:06.000Z</time>
</trkpt>
<trkpt lat="45.8522420" lon="9.2325650">
	<ele>928.00</ele>
	<time>2025-02-15T08:34:07.000Z</time>
</trkpt>
<trkpt lat="45.8522450" lon="9.2325510">
	<ele>928.20</ele>
	<time>2025-02-15T08:34:08.000Z</time>
</trkpt>
<trkpt lat="45.8522520" lon="9.2325410">
	<ele>928.40</ele>
	<time>2025-02-15T08:34:09.000Z</time>
</trkpt>
<trkpt lat="45.8522550" lon="9.2325380">
	<ele>928.60</ele>
	<time>2025-02-15T08:34:10.000Z</time>
</trkpt>
<trkpt lat="45.8522570" lon="9.2325390">
	<ele>928.60</ele>
	<time>2025-02-15T08:34:11.000Z</time>
</trkpt>
<trkpt lat="45.8522610" lon="9.2325390">
	<ele>928.60</ele>
	<time>2025-02-15T08:34:12.000Z</time>
</trkpt>
<trkpt lat="45.8522690" lon="9.2325380">
	<ele>928.60</ele>
	<time>2025-02-15T08:34:13.000Z</time>
</trkpt>
<trkpt lat="45.8522710" lon="9.2325380">
	<ele>928.80</ele>
	<time>2025-02-15T08:34:14.000Z</time>
</trkpt>
<trkpt lat="45.8522720" lon="9.2325370">
	<ele>928.80</ele>
	<time>2025-02-15T08:34:15.000Z</time>
</trkpt>
<trkpt lat="45.8522790" lon="9.2325310">
	<ele>928.80</ele>
	<time>2025-02-15T08:34:16.000Z</time>
</trkpt>
<trkpt lat="45.8522820" lon="9.2325320">
	<ele>928.80</ele>
	<time>2025-02-15T08:34:17.000Z</time>
</trkpt>
<trkpt lat="45.8522810" lon="9.2325330">
	<ele>928.80</ele>
	<time>2025-02-15T08:34:18.000Z</time>
</trkpt>
<trkpt lat="45.8522810" lon="9.2325310">
	<ele>928.80</ele>
	<time>2025-02-15T08:34:19.000Z</time>
</trkpt>
<trkpt lat="45.8522910" lon="9.2325190">
	<ele>928.80</ele>
	<time>2025-02-15T08:34:20.000Z</time>
</trkpt>
<trkpt lat="45.8523050" lon="9.2325020">
	<ele>928.80</ele>
	<time>2025-02-15T08:34:21.000Z</time>
</trkpt>
<trkpt lat="45.8523150" lon="9.2324870">
	<ele>928.60</ele>
	<time>2025-02-15T08:34:22.000Z</time>
</trkpt>
<trkpt lat="45.8523220" lon="9.2324810">
	<ele>928.60</ele>
	<time>2025-02-15T08:34:23.000Z</time>
</trkpt>
<trkpt lat="45.8523280" lon="9.2324720">
	<ele>928.40</ele>
	<time>2025-02-15T08:34:24.000Z</time>
</trkpt>
<trkpt lat="45.8523240" lon="9.2324790">
	<ele>928.40</ele>
	<time>2025-02-15T08:34:25.000Z</time>
</trkpt>
<trkpt lat="45.8523250" lon="9.2324760">
	<ele>928.40</ele>
	<time>2025-02-15T08:34:26.000Z</time>
</trkpt>
<trkpt lat="45.8523260" lon="9.2324740">
	<ele>928.40</ele>
	<time>2025-02-15T08:34:27.000Z</time>
</trkpt>
<trkpt lat="45.8523300" lon="9.2324740">
	<ele>928.40</ele>
	<time>2025-02-15T08:34:28.000Z</time>
</trkpt>
<trkpt lat="45.8523340" lon="9.2324710">
	<ele>928.40</ele>
	<time>2025-02-15T08:34:29.000Z</time>
</trkpt>
<trkpt lat="45.8523370" lon="9.2324700">
	<ele>928.40</ele>
	<time>2025-02-15T08:34:30.000Z</time>
</trkpt>
<trkpt lat="45.8523450" lon="9.2324700">
	<ele>928.40</ele>
	<time>2025-02-15T08:34:31.000Z</time>
</trkpt>
<trkpt lat="45.8523490" lon="9.2324690">
	<ele>928.60</ele>
	<time>2025-02-15T08:34:32.000Z</time>
</trkpt>
<trkpt lat="45.8523560" lon="9.2324720">
	<ele>928.60</ele>
	<time>2025-02-15T08:34:33.000Z</time>
</trkpt>
<trkpt lat="45.8523580" lon="9.2324780">
	<ele>928.60</ele>
	<time>2025-02-15T08:34:34.000Z</time>
</trkpt>
<trkpt lat="45.8523610" lon="9.2324830">
	<ele>928.80</ele>
	<time>2025-02-15T08:34:35.000Z</time>
</trkpt>
<trkpt lat="45.8523660" lon="9.2324940">
	<ele>928.80</ele>
	<time>2025-02-15T08:34:36.000Z</time>
</trkpt>
<trkpt lat="45.8523740" lon="9.2325070">
	<ele>929.00</ele>
	<time>2025-02-15T08:34:37.000Z</time>
</trkpt>
<trkpt lat="45.8523840" lon="9.2325180">
	<ele>929.00</ele>
	<time>2025-02-15T08:34:38.000Z</time>
</trkpt>
<trkpt lat="45.8523900" lon="9.2325300">
	<ele>929.20</ele>
	<time>2025-02-15T08:34:39.000Z</time>
</trkpt>
<trkpt lat="45.8524020" lon="9.2325350">
	<ele>929.20</ele>
	<time>2025-02-15T08:34:40.000Z</time>
</trkpt>
<trkpt lat="45.8524100" lon="9.2325380">
	<ele>929.40</ele>
	<time>2025-02-15T08:34:41.000Z</time>
</trkpt>
<trkpt lat="45.8524210" lon="9.2325410">
	<ele>929.40</ele>
	<time>2025-02-15T08:34:42.000Z</time>
</trkpt>
<trkpt lat="45.8524310" lon="9.2325410">
	<ele>929.40</ele>
	<time>2025-02-15T08:34:43.000Z</time>
</trkpt>
<trkpt lat="45.8524400" lon="9.2325350">
	<ele>929.40</ele>
	<time>2025-02-15T08:34:44.000Z</time>
</trkpt>
<trkpt lat="45.8524500" lon="9.2325290">
	<ele>929.60</ele>
	<time>2025-02-15T08:34:45.000Z</time>
</trkpt>
<trkpt lat="45.8524570" lon="9.2325310">
	<ele>929.60</ele>
	<time>2025-02-15T08:34:46.000Z</time>
</trkpt>
<trkpt lat="45.8524640" lon="9.2325340">
	<ele>929.60</ele>
	<time>2025-02-15T08:34:47.000Z</time>
</trkpt>
<trkpt lat="45.8524740" lon="9.2325390">
	<ele>929.60</ele>
	<time>2025-02-15T08:34:48.000Z</time>
</trkpt>
<trkpt lat="45.8524810" lon="9.2325440">
	<ele>929.60</ele>
	<time>2025-02-15T08:34:49.000Z</time>
</trkpt>
<trkpt lat="45.8524890" lon="9.2325430">
	<ele>929.60</ele>
	<time>2025-02-15T08:34:50.000Z</time>
</trkpt>
<trkpt lat="45.8524980" lon="9.2325450">
	<ele>929.60</ele>
	<time>2025-02-15T08:34:51.000Z</time>
</trkpt>
<trkpt lat="45.8524980" lon="9.2325470">
	<ele>929.80</ele>
	<time>2025-02-15T08:34:52.000Z</time>
</trkpt>
<trkpt lat="45.8524960" lon="9.2325560">
	<ele>929.80</ele>
	<time>2025-02-15T08:34:53.000Z</time>
</trkpt>
<trkpt lat="45.8524950" lon="9.2325560">
	<ele>929.80</ele>
	<time>2025-02-15T08:34:54.000Z</time>
</trkpt>
<trkpt lat="45.8525030" lon="9.2325560">
	<ele>929.80</ele>
	<time>2025-02-15T08:34:55.000Z</time>
</trkpt>
<trkpt lat="45.8525170" lon="9.2325590">
	<ele>929.80</ele>
	<time>2025-02-15T08:34:56.000Z</time>
</trkpt>
<trkpt lat="45.8525350" lon="9.2325660">
	<ele>929.80</ele>
	<time>2025-02-15T08:34:57.000Z</time>
</trkpt>
<trkpt lat="45.8525510" lon="9.2325720">
	<ele>929.80</ele>
	<time>2025-02-15T08:34:58.000Z</time>
</trkpt>
<trkpt lat="45.8525750" lon="9.2325710">
	<ele>929.80</ele>
	<time>2025-02-15T08:34:59.000Z</time>
</trkpt>
<trkpt lat="45.8525800" lon="9.2325690">
	<ele>929.80</ele>
	<time>2025-02-15T08:35:00.000Z</time>
</trkpt>
<trkpt lat="45.8525820" lon="9.2325690">
	<ele>930.00</ele>
	<time>2025-02-15T08:35:01.000Z</time>
</trkpt>
<trkpt lat="45.8525890" lon="9.2325720">
	<ele>930.20</ele>
	<time>2025-02-15T08:35:02.000Z</time>
</trkpt>
<trkpt lat="45.8525930" lon="9.2325870">
	<ele>930.40</ele>
	<time>2025-02-15T08:35:03.000Z</time>
</trkpt>
<trkpt lat="45.8526010" lon="9.2325970">
	<ele>930.40</ele>
	<time>2025-02-15T08:35:04.000Z</time>
</trkpt>
<trkpt lat="45.8526120" lon="9.2326050">
	<ele>930.40</ele>
	<time>2025-02-15T08:35:05.000Z</time>
</trkpt>
<trkpt lat="45.8526190" lon="9.2326160">
	<ele>930.40</ele>
	<time>2025-02-15T08:35:06.000Z</time>
</trkpt>
<trkpt lat="45.8526280" lon="9.2326240">
	<ele>930.40</ele>
	<time>2025-02-15T08:35:07.000Z</time>
</trkpt>
<trkpt lat="45.8526370" lon="9.2326290">
	<ele>930.40</ele>
	<time>2025-02-15T08:35:08.000Z</time>
</trkpt>
<trkpt lat="45.8526430" lon="9.2326350">
	<ele>930.20</ele>
	<time>2025-02-15T08:35:09.000Z</time>
</trkpt>
<trkpt lat="45.8526520" lon="9.2326350">
	<ele>930.20</ele>
	<time>2025-02-15T08:35:10.000Z</time>
</trkpt>
<trkpt lat="45.8526530" lon="9.2326340">
	<ele>930.20</ele>
	<time>2025-02-15T08:35:11.000Z</time>
</trkpt>
<trkpt lat="45.8526500" lon="9.2326240">
	<ele>930.60</ele>
	<time>2025-02-15T08:35:12.000Z</time>
</trkpt>
<trkpt lat="45.8526590" lon="9.2326100">
	<ele>930.80</ele>
	<time>2025-02-15T08:35:13.000Z</time>
</trkpt>
<trkpt lat="45.8526610" lon="9.2326080">
	<ele>930.80</ele>
	<time>2025-02-15T08:35:14.000Z</time>
</trkpt>
<trkpt lat="45.8526620" lon="9.2326050">
	<ele>931.00</ele>
	<time>2025-02-15T08:35:15.000Z</time>
</trkpt>
<trkpt lat="45.8526620" lon="9.2326020">
	<ele>931.00</ele>
	<time>2025-02-15T08:35:16.000Z</time>
</trkpt>
<trkpt lat="45.8526720" lon="9.2325740">
	<ele>931.00</ele>
	<time>2025-02-15T08:35:17.000Z</time>
</trkpt>
<trkpt lat="45.8526730" lon="9.2325720">
	<ele>931.20</ele>
	<time>2025-02-15T08:35:18.000Z</time>
</trkpt>
<trkpt lat="45.8526730" lon="9.2325720">
	<ele>931.20</ele>
	<time>2025-02-15T08:35:19.000Z</time>
</trkpt>
<trkpt lat="45.8526900" lon="9.2325660">
	<ele>931.20</ele>
	<time>2025-02-15T08:35:20.000Z</time>
</trkpt>
<trkpt lat="45.8527020" lon="9.2325700">
	<ele>931.20</ele>
	<time>2025-02-15T08:35:21.000Z</time>
</trkpt>
<trkpt lat="45.8527030" lon="9.2325750">
	<ele>931.20</ele>
	<time>2025-02-15T08:35:22.000Z</time>
</trkpt>
<trkpt lat="45.8526990" lon="9.2325870">
	<ele>931.20</ele>
	<time>2025-02-15T08:35:23.000Z</time>
</trkpt>
<trkpt lat="45.8526970" lon="9.2325970">
	<ele>931.20</ele>
	<time>2025-02-15T08:35:24.000Z</time>
</trkpt>
<trkpt lat="45.8526990" lon="9.2326010">
	<ele>931.20</ele>
	<time>2025-02-15T08:35:25.000Z</time>
</trkpt>
<trkpt lat="45.8527030" lon="9.2326000">
	<ele>931.20</ele>
	<time>2025-02-15T08:35:26.000Z</time>
</trkpt>
<trkpt lat="45.8527070" lon="9.2325960">
	<ele>931.20</ele>
	<time>2025-02-15T08:35:27.000Z</time>
</trkpt>
<trkpt lat="45.8527130" lon="9.2325930">
	<ele>931.20</ele>
	<time>2025-02-15T08:35:28.000Z</time>
</trkpt>
<trkpt lat="45.8527230" lon="9.2325930">
	<ele>931.40</ele>
	<time>2025-02-15T08:35:29.000Z</time>
</trkpt>
<trkpt lat="45.8527220" lon="9.2325930">
	<ele>931.60</ele>
	<time>2025-02-15T08:35:30.000Z</time>
</trkpt>
<trkpt lat="45.8527230" lon="9.2325900">
	<ele>931.60</ele>
	<time>2025-02-15T08:35:31.000Z</time>
</trkpt>
<trkpt lat="45.8527290" lon="9.2325820">
	<ele>931.60</ele>
	<time>2025-02-15T08:35:32.000Z</time>
</trkpt>
<trkpt lat="45.8527380" lon="9.2325750">
	<ele>931.80</ele>
	<time>2025-02-15T08:35:33.000Z</time>
</trkpt>
<trkpt lat="45.8527470" lon="9.2325650">
	<ele>931.80</ele>
	<time>2025-02-15T08:35:34.000Z</time>
</trkpt>
<trkpt lat="45.8527550" lon="9.2325580">
	<ele>931.80</ele>
	<time>2025-02-15T08:35:35.000Z</time>
</trkpt>
<trkpt lat="45.8527590" lon="9.2325540">
	<ele>932.00</ele>
	<time>2025-02-15T08:35:36.000Z</time>
</trkpt>
<trkpt lat="45.8527680" lon="9.2325510">
	<ele>932.00</ele>
	<time>2025-02-15T08:35:37.000Z</time>
</trkpt>
<trkpt lat="45.8527770" lon="9.2325500">
	<ele>932.00</ele>
	<time>2025-02-15T08:35:38.000Z</time>
</trkpt>
<trkpt lat="45.8527800" lon="9.2325450">
	<ele>932.00</ele>
	<time>2025-02-15T08:35:39.000Z</time>
</trkpt>
<trkpt lat="45.8527890" lon="9.2325330">
	<ele>932.00</ele>
	<time>2025-02-15T08:35:40.000Z</time>
</trkpt>
<trkpt lat="45.8527960" lon="9.2325110">
	<ele>932.20</ele>
	<time>2025-02-15T08:35:41.000Z</time>
</trkpt>
<trkpt lat="45.8528030" lon="9.2324890">
	<ele>932.20</ele>
	<time>2025-02-15T08:35:42.000Z</time>
</trkpt>
<trkpt lat="45.8528110" lon="9.2324670">
	<ele>932.20</ele>
	<time>2025-02-15T08:35:43.000Z</time>
</trkpt>
<trkpt lat="45.8528250" lon="9.2324550">
	<ele>932.20</ele>
	<time>2025-02-15T08:35:44.000Z</time>
</trkpt>
<trkpt lat="45.8528360" lon="9.2324490">
	<ele>932.20</ele>
	<time>2025-02-15T08:35:45.000Z</time>
</trkpt>
<trkpt lat="45.8528380" lon="9.2324450">
	<ele>932.20</ele>
	<time>2025-02-15T08:35:46.000Z</time>
</trkpt>
<trkpt lat="45.8528500" lon="9.2324380">
	<ele>932.20</ele>
	<time>2025-02-15T08:35:47.000Z</time>
</trkpt>
<trkpt lat="45.8528600" lon="9.2324330">
	<ele>932.20</ele>
	<time>2025-02-15T08:35:48.000Z</time>
</trkpt>
<trkpt lat="45.8528640" lon="9.2324280">
	<ele>932.20</ele>
	<time>2025-02-15T08:35:49.000Z</time>
</trkpt>
<trkpt lat="45.8528650" lon="9.2324190">
	<ele>932.40</ele>
	<time>2025-02-15T08:35:50.000Z</time>
</trkpt>
<trkpt lat="45.8528700" lon="9.2324090">
	<ele>932.40</ele>
	<time>2025-02-15T08:35:51.000Z</time>
</trkpt>
<trkpt lat="45.8528820" lon="9.2324010">
	<ele>932.40</ele>
	<time>2025-02-15T08:35:52.000Z</time>
</trkpt>
<trkpt lat="45.8528920" lon="9.2323930">
	<ele>932.40</ele>
	<time>2025-02-15T08:35:53.000Z</time>
</trkpt>
<trkpt lat="45.8529070" lon="9.2323860">
	<ele>932.40</ele>
	<time>2025-02-15T08:35:54.000Z</time>
</trkpt>
<trkpt lat="45.8529120" lon="9.2323740">
	<ele>932.40</ele>
	<time>2025-02-15T08:35:55.000Z</time>
</trkpt>
<trkpt lat="45.8529130" lon="9.2323590">
	<ele>932.40</ele>
	<time>2025-02-15T08:35:56.000Z</time>
</trkpt>
<trkpt lat="45.8529140" lon="9.2323440">
	<ele>932.40</ele>
	<time>2025-02-15T08:35:57.000Z</time>
</trkpt>
<trkpt lat="45.8529240" lon="9.2323390">
	<ele>932.40</ele>
	<time>2025-02-15T08:35:58.000Z</time>
</trkpt>
<trkpt lat="45.8529220" lon="9.2323360">
	<ele>932.60</ele>
	<time>2025-02-15T08:35:59.000Z</time>
</trkpt>
<trkpt lat="45.8529200" lon="9.2323340">
	<ele>932.80</ele>
	<time>2025-02-15T08:36:00.000Z</time>
</trkpt>
<trkpt lat="45.8529270" lon="9.2323290">
	<ele>932.80</ele>
	<time>2025-02-15T08:36:01.000Z</time>
</trkpt>
<trkpt lat="45.8529360" lon="9.2323200">
	<ele>932.80</ele>
	<time>2025-02-15T08:36:02.000Z</time>
</trkpt>
<trkpt lat="45.8529440" lon="9.2323080">
	<ele>932.80</ele>
	<time>2025-02-15T08:36:03.000Z</time>
</trkpt>
<trkpt lat="45.8529460" lon="9.2323040">
	<ele>933.00</ele>
	<time>2025-02-15T08:36:04.000Z</time>
</trkpt>
<trkpt lat="45.8529470" lon="9.2322940">
	<ele>933.00</ele>
	<time>2025-02-15T08:36:05.000Z</time>
</trkpt>
<trkpt lat="45.8529480" lon="9.2322830">
	<ele>933.20</ele>
	<time>2025-02-15T08:36:06.000Z</time>
</trkpt>
<trkpt lat="45.8529600" lon="9.2322660">
	<ele>933.20</ele>
	<time>2025-02-15T08:36:07.000Z</time>
</trkpt>
<trkpt lat="45.8529610" lon="9.2322630">
	<ele>933.20</ele>
	<time>2025-02-15T08:36:08.000Z</time>
</trkpt>
<trkpt lat="45.8529620" lon="9.2322600">
	<ele>933.40</ele>
	<time>2025-02-15T08:36:09.000Z</time>
</trkpt>
<trkpt lat="45.8529650" lon="9.2322460">
	<ele>933.40</ele>
	<time>2025-02-15T08:36:10.000Z</time>
</trkpt>
<trkpt lat="45.8529410" lon="9.2322760">
	<ele>933.40</ele>
	<time>2025-02-15T08:36:11.000Z</time>
</trkpt>
<trkpt lat="45.8529440" lon="9.2322800">
	<ele>933.40</ele>
	<time>2025-02-15T08:36:12.000Z</time>
</trkpt>
<trkpt lat="45.8529440" lon="9.2322770">
	<ele>933.20</ele>
	<time>2025-02-15T08:36:13.000Z</time>
</trkpt>
<trkpt lat="45.8529460" lon="9.2322710">
	<ele>933.20</ele>
	<time>2025-02-15T08:36:14.000Z</time>
</trkpt>
<trkpt lat="45.8529420" lon="9.2322740">
	<ele>933.20</ele>
	<time>2025-02-15T08:36:15.000Z</time>
</trkpt>
<trkpt lat="45.8529340" lon="9.2322750">
	<ele>933.20</ele>
	<time>2025-02-15T08:36:16.000Z</time>
</trkpt>
<trkpt lat="45.8529250" lon="9.2322830">
	<ele>933.20</ele>
	<time>2025-02-15T08:36:17.000Z</time>
</trkpt>
<trkpt lat="45.8529200" lon="9.2322920">
	<ele>933.20</ele>
	<time>2025-02-15T08:36:18.000Z</time>
</trkpt>
<trkpt lat="45.8529150" lon="9.2323010">
	<ele>933.20</ele>
	<time>2025-02-15T08:36:19.000Z</time>
</trkpt>
<trkpt lat="45.8529110" lon="9.2323040">
	<ele>933.20</ele>
	<time>2025-02-15T08:36:20.000Z</time>
</trkpt>
<trkpt lat="45.8529120" lon="9.2323010">
	<ele>933.20</ele>
	<time>2025-02-15T08:36:21.000Z</time>
</trkpt>
<trkpt lat="45.8529120" lon="9.2323020">
	<ele>933.20</ele>
	<time>2025-02-15T08:36:22.000Z</time>
</trkpt>
<trkpt lat="45.8529110" lon="9.2323020">
	<ele>933.20</ele>
	<time>2025-02-15T08:36:23.000Z</time>
</trkpt>
<trkpt lat="45.8529120" lon="9.2323010">
	<ele>933.20</ele>
	<time>2025-02-15T08:36:24.000Z</time>
</trkpt>
<trkpt lat="45.8529140" lon="9.2322960">
	<ele>933.40</ele>
	<time>2025-02-15T08:36:25.000Z</time>
</trkpt>
<trkpt lat="45.8529170" lon="9.2322970">
	<ele>933.40</ele>
	<time>2025-02-15T08:36:26.000Z</time>
</trkpt>
<trkpt lat="45.8529200" lon="9.2322950">
	<ele>933.40</ele>
	<time>2025-02-15T08:36:27.000Z</time>
</trkpt>
<trkpt lat="45.8529190" lon="9.2322930">
	<ele>933.20</ele>
	<time>2025-02-15T08:36:28.000Z</time>
</trkpt>
<trkpt lat="45.8529050" lon="9.2322980">
	<ele>933.20</ele>
	<time>2025-02-15T08:36:29.000Z</time>
</trkpt>
<trkpt lat="45.8529060" lon="9.2322970">
	<ele>933.00</ele>
	<time>2025-02-15T08:36:30.000Z</time>
</trkpt>
<trkpt lat="45.8529180" lon="9.2322930">
	<ele>933.00</ele>
	<time>2025-02-15T08:36:31.000Z</time>
</trkpt>
<trkpt lat="45.8529230" lon="9.2322870">
	<ele>933.00</ele>
	<time>2025-02-15T08:36:32.000Z</time>
</trkpt>
<trkpt lat="45.8529380" lon="9.2322770">
	<ele>933.00</ele>
	<time>2025-02-15T08:36:33.000Z</time>
</trkpt>
<trkpt lat="45.8529550" lon="9.2322650">
	<ele>933.00</ele>
	<time>2025-02-15T08:36:34.000Z</time>
</trkpt>
<trkpt lat="45.8529580" lon="9.2322630">
	<ele>933.00</ele>
	<time>2025-02-15T08:36:35.000Z</time>
</trkpt>
<trkpt lat="45.8529690" lon="9.2322490">
	<ele>933.00</ele>
	<time>2025-02-15T08:36:36.000Z</time>
</trkpt>
<trkpt lat="45.8529730" lon="9.2322470">
	<ele>933.00</ele>
	<time>2025-02-15T08:36:37.000Z</time>
</trkpt>
<trkpt lat="45.8529710" lon="9.2322450">
	<ele>933.00</ele>
	<time>2025-02-15T08:36:38.000Z</time>
</trkpt>
<trkpt lat="45.8529680" lon="9.2322410">
	<ele>933.00</ele>
	<time>2025-02-15T08:36:39.000Z</time>
</trkpt>
<trkpt lat="45.8529650" lon="9.2322370">
	<ele>933.00</ele>
	<time>2025-02-15T08:36:40.000Z</time>
</trkpt>
<trkpt lat="45.8529640" lon="9.2322370">
	<ele>933.00</ele>
	<time>2025-02-15T08:36:41.000Z</time>
</trkpt>
<trkpt lat="45.8529630" lon="9.2322360">
	<ele>933.00</ele>
	<time>2025-02-15T08:36:42.000Z</time>
</trkpt>
<trkpt lat="45.8529620" lon="9.2322320">
	<ele>933.00</ele>
	<time>2025-02-15T08:36:43.000Z</time>
</trkpt>
<trkpt lat="45.8529690" lon="9.2322290">
	<ele>933.00</ele>
	<time>2025-02-15T08:36:44.000Z</time>
</trkpt>
<trkpt lat="45.8529770" lon="9.2322230">
	<ele>933.00</ele>
	<time>2025-02-15T08:36:45.000Z</time>
</trkpt>
<trkpt lat="45.8529890" lon="9.2322180">
	<ele>933.00</ele>
	<time>2025-02-15T08:36:46.000Z</time>
</trkpt>
<trkpt lat="45.8529940" lon="9.2322170">
	<ele>933.20</ele>
	<time>2025-02-15T08:36:47.000Z</time>
</trkpt>
<trkpt lat="45.8529960" lon="9.2322150">
	<ele>933.20</ele>
	<time>2025-02-15T08:36:48.000Z</time>
</trkpt>
<trkpt lat="45.8530020" lon="9.2322120">
	<ele>933.20</ele>
	<time>2025-02-15T08:36:49.000Z</time>
</trkpt>
<trkpt lat="45.8530130" lon="9.2322120">
	<ele>933.20</ele>
	<time>2025-02-15T08:36:50.000Z</time>
</trkpt>
<trkpt lat="45.8530240" lon="9.2322120">
	<ele>933.20</ele>
	<time>2025-02-15T08:36:51.000Z</time>
</trkpt>
<trkpt lat="45.8530280" lon="9.2322130">
	<ele>933.20</ele>
	<time>2025-02-15T08:36:52.000Z</time>
</trkpt>
<trkpt lat="45.8530310" lon="9.2322110">
	<ele>933.20</ele>
	<time>2025-02-15T08:36:53.000Z</time>
</trkpt>
<trkpt lat="45.8530350" lon="9.2322090">
	<ele>933.40</ele>
	<time>2025-02-15T08:36:54.000Z</time>
</trkpt>
<trkpt lat="45.8530390" lon="9.2322150">
	<ele>933.40</ele>
	<time>2025-02-15T08:36:55.000Z</time>
</trkpt>
<trkpt lat="45.8530490" lon="9.2322180">
	<ele>933.40</ele>
	<time>2025-02-15T08:36:56.000Z</time>
</trkpt>
<trkpt lat="45.8530570" lon="9.2322280">
	<ele>933.40</ele>
	<time>2025-02-15T08:36:57.000Z</time>
</trkpt>
<trkpt lat="45.8530670" lon="9.2322310">
	<ele>933.60</ele>
	<time>2025-02-15T08:36:58.000Z</time>
</trkpt>
<trkpt lat="45.8530690" lon="9.2322330">
	<ele>933.60</ele>
	<time>2025-02-15T08:36:59.000Z</time>
</trkpt>
<trkpt lat="45.8530700" lon="9.2322330">
	<ele>933.60</ele>
	<time>2025-02-15T08:37:00.000Z</time>
</trkpt>
<trkpt lat="45.8530710" lon="9.2322320">
	<ele>933.60</ele>
	<time>2025-02-15T08:37:01.000Z</time>
</trkpt>
<trkpt lat="45.8530740" lon="9.2322300">
	<ele>933.60</ele>
	<time>2025-02-15T08:37:02.000Z</time>
</trkpt>
<trkpt lat="45.8530760" lon="9.2322300">
	<ele>933.60</ele>
	<time>2025-02-15T08:37:03.000Z</time>
</trkpt>
<trkpt lat="45.8530880" lon="9.2322280">
	<ele>933.80</ele>
	<time>2025-02-15T08:37:04.000Z</time>
</trkpt>
<trkpt lat="45.8531020" lon="9.2322240">
	<ele>933.80</ele>
	<time>2025-02-15T08:37:05.000Z</time>
</trkpt>
<trkpt lat="45.8531130" lon="9.2322290">
	<ele>933.80</ele>
	<time>2025-02-15T08:37:06.000Z</time>
</trkpt>
<trkpt lat="45.8531180" lon="9.2322310">
	<ele>933.80</ele>
	<time>2025-02-15T08:37:07.000Z</time>
</trkpt>
<trkpt lat="45.8531210" lon="9.2322310">
	<ele>933.80</ele>
	<time>2025-02-15T08:37:08.000Z</time>
</trkpt>
<trkpt lat="45.8531220" lon="9.2322320">
	<ele>933.80</ele>
	<time>2025-02-15T08:37:09.000Z</time>
</trkpt>
<trkpt lat="45.8531200" lon="9.2322320">
	<ele>933.80</ele>
	<time>2025-02-15T08:37:10.000Z</time>
</trkpt>
<trkpt lat="45.8531220" lon="9.2322240">
	<ele>933.80</ele>
	<time>2025-02-15T08:37:11.000Z</time>
</trkpt>
<trkpt lat="45.8531200" lon="9.2322220">
	<ele>933.80</ele>
	<time>2025-02-15T08:37:12.000Z</time>
</trkpt>
<trkpt lat="45.8531160" lon="9.2322250">
	<ele>933.80</ele>
	<time>2025-02-15T08:37:13.000Z</time>
</trkpt>
<trkpt lat="45.8531200" lon="9.2322280">
	<ele>933.80</ele>
	<time>2025-02-15T08:37:14.000Z</time>
</trkpt>
<trkpt lat="45.8531200" lon="9.2322270">
	<ele>933.80</ele>
	<time>2025-02-15T08:37:15.000Z</time>
</trkpt>
<trkpt lat="45.8531200" lon="9.2322250">
	<ele>933.80</ele>
	<time>2025-02-15T08:37:16.000Z</time>
</trkpt>
<trkpt lat="45.8531210" lon="9.2322240">
	<ele>934.00</ele>
	<time>2025-02-15T08:37:17.000Z</time>
</trkpt>
<trkpt lat="45.8531220" lon="9.2322240">
	<ele>934.00</ele>
	<time>2025-02-15T08:37:18.000Z</time>
</trkpt>
<trkpt lat="45.8531220" lon="9.2322240">
	<ele>934.00</ele>
	<time>2025-02-15T08:37:19.000Z</time>
</trkpt>
<trkpt lat="45.8531220" lon="9.2322240">
	<ele>934.00</ele>
	<time>2025-02-15T08:37:20.000Z</time>
</trkpt>
<trkpt lat="45.8531220" lon="9.2322240">
	<ele>934.00</ele>
	<time>2025-02-15T08:37:21.000Z</time>
</trkpt>
<trkpt lat="45.8531220" lon="9.2322240">
	<ele>934.00</ele>
	<time>2025-02-15T08:37:22.000Z</time>
</trkpt>
<trkpt lat="45.8531220" lon="9.2322240">
	<ele>934.00</ele>
	<time>2025-02-15T08:37:23.000Z</time>
</trkpt>
<trkpt lat="45.8531260" lon="9.2322280">
	<ele>934.00</ele>
	<time>2025-02-15T08:37:24.000Z</time>
</trkpt>
<trkpt lat="45.8531340" lon="9.2322410">
	<ele>934.00</ele>
	<time>2025-02-15T08:37:25.000Z</time>
</trkpt>
<trkpt lat="45.8531430" lon="9.2322630">
	<ele>934.00</ele>
	<time>2025-02-15T08:37:26.000Z</time>
</trkpt>
<trkpt lat="45.8531520" lon="9.2322730">
	<ele>934.00</ele>
	<time>2025-02-15T08:37:27.000Z</time>
</trkpt>
<trkpt lat="45.8531620" lon="9.2322860">
	<ele>934.00</ele>
	<time>2025-02-15T08:37:28.000Z</time>
</trkpt>
<trkpt lat="45.8531750" lon="9.2322970">
	<ele>934.00</ele>
	<time>2025-02-15T08:37:29.000Z</time>
</trkpt>
<trkpt lat="45.8531880" lon="9.2323090">
	<ele>934.20</ele>
	<time>2025-02-15T08:37:30.000Z</time>
</trkpt>
<trkpt lat="45.8531990" lon="9.2323240">
	<ele>934.20</ele>
	<time>2025-02-15T08:37:31.000Z</time>
</trkpt>
<trkpt lat="45.8532130" lon="9.2323370">
	<ele>934.20</ele>
	<time>2025-02-15T08:37:32.000Z</time>
</trkpt>
<trkpt lat="45.8532280" lon="9.2323490">
	<ele>934.40</ele>
	<time>2025-02-15T08:37:33.000Z</time>
</trkpt>
<trkpt lat="45.8532390" lon="9.2323550">
	<ele>934.40</ele>
	<time>2025-02-15T08:37:34.000Z</time>
</trkpt>
<trkpt lat="45.8532490" lon="9.2323640">
	<ele>934.40</ele>
	<time>2025-02-15T08:37:35.000Z</time>
</trkpt>
<trkpt lat="45.8532630" lon="9.2323720">
	<ele>934.60</ele>
	<time>2025-02-15T08:37:36.000Z</time>
</trkpt>
<trkpt lat="45.8532720" lon="9.2323790">
	<ele>934.60</ele>
	<time>2025-02-15T08:37:37.000Z</time>
</trkpt>
<trkpt lat="45.8532800" lon="9.2323800">
	<ele>934.60</ele>
	<time>2025-02-15T08:37:38.000Z</time>
</trkpt>
<trkpt lat="45.8532860" lon="9.2323850">
	<ele>934.60</ele>
	<time>2025-02-15T08:37:39.000Z</time>
</trkpt>
<trkpt lat="45.8532930" lon="9.2323900">
	<ele>934.60</ele>
	<time>2025-02-15T08:37:40.000Z</time>
</trkpt>
<trkpt lat="45.8533030" lon="9.2323980">
	<ele>934.60</ele>
	<time>2025-02-15T08:37:41.000Z</time>
</trkpt>
<trkpt lat="45.8533190" lon="9.2324020">
	<ele>934.60</ele>
	<time>2025-02-15T08:37:42.000Z</time>
</trkpt>
<trkpt lat="45.8533320" lon="9.2324100">
	<ele>934.60</ele>
	<time>2025-02-15T08:37:43.000Z</time>
</trkpt>
<trkpt lat="45.8533440" lon="9.2324150">
	<ele>934.60</ele>
	<time>2025-02-15T08:37:44.000Z</time>
</trkpt>
<trkpt lat="45.8533510" lon="9.2324210">
	<ele>934.80</ele>
	<time>2025-02-15T08:37:45.000Z</time>
</trkpt>
<trkpt lat="45.8533590" lon="9.2324320">
	<ele>934.80</ele>
	<time>2025-02-15T08:37:46.000Z</time>
</trkpt>
<trkpt lat="45.8533660" lon="9.2324400">
	<ele>935.00</ele>
	<time>2025-02-15T08:37:47.000Z</time>
</trkpt>
<trkpt lat="45.8533760" lon="9.2324470">
	<ele>935.00</ele>
	<time>2025-02-15T08:37:48.000Z</time>
</trkpt>
<trkpt lat="45.8533850" lon="9.2324520">
	<ele>935.00</ele>
	<time>2025-02-15T08:37:49.000Z</time>
</trkpt>
<trkpt lat="45.8533960" lon="9.2324570">
	<ele>935.20</ele>
	<time>2025-02-15T08:37:50.000Z</time>
</trkpt>
<trkpt lat="45.8534030" lon="9.2324640">
	<ele>935.00</ele>
	<time>2025-02-15T08:37:51.000Z</time>
</trkpt>
<trkpt lat="45.8534120" lon="9.2324790">
	<ele>935.20</ele>
	<time>2025-02-15T08:37:52.000Z</time>
</trkpt>
<trkpt lat="45.8534210" lon="9.2324920">
	<ele>935.20</ele>
	<time>2025-02-15T08:37:53.000Z</time>
</trkpt>
<trkpt lat="45.8534270" lon="9.2325030">
	<ele>935.40</ele>
	<time>2025-02-15T08:37:54.000Z</time>
</trkpt>
<trkpt lat="45.8534360" lon="9.2325140">
	<ele>935.60</ele>
	<time>2025-02-15T08:37:55.000Z</time>
</trkpt>
<trkpt lat="45.8534390" lon="9.2325170">
	<ele>935.60</ele>
	<time>2025-02-15T08:37:56.000Z</time>
</trkpt>
<trkpt lat="45.8534440" lon="9.2325240">
	<ele>935.80</ele>
	<time>2025-02-15T08:37:57.000Z</time>
</trkpt>
<trkpt lat="45.8534560" lon="9.2325250">
	<ele>935.80</ele>
	<time>2025-02-15T08:37:58.000Z</time>
</trkpt>
<trkpt lat="45.8534630" lon="9.2325360">
	<ele>936.00</ele>
	<time>2025-02-15T08:37:59.000Z</time>
</trkpt>
<trkpt lat="45.8534730" lon="9.2325470">
	<ele>936.00</ele>
	<time>2025-02-15T08:38:00.000Z</time>
</trkpt>
<trkpt lat="45.8534850" lon="9.2325530">
	<ele>936.00</ele>
	<time>2025-02-15T08:38:01.000Z</time>
</trkpt>
<trkpt lat="45.8534940" lon="9.2325610">
	<ele>936.00</ele>
	<time>2025-02-15T08:38:02.000Z</time>
</trkpt>
<trkpt lat="45.8535020" lon="9.2325700">
	<ele>936.00</ele>
	<time>2025-02-15T08:38:03.000Z</time>
</trkpt>
<trkpt lat="45.8535050" lon="9.2325740">
	<ele>936.20</ele>
	<time>2025-02-15T08:38:04.000Z</time>
</trkpt>
<trkpt lat="45.8535090" lon="9.2325760">
	<ele>936.40</ele>
	<time>2025-02-15T08:38:05.000Z</time>
</trkpt>
<trkpt lat="45.8535190" lon="9.2325760">
	<ele>936.40</ele>
	<time>2025-02-15T08:38:06.000Z</time>
</trkpt>
<trkpt lat="45.8535340" lon="9.2325790">
	<ele>936.60</ele>
	<time>2025-02-15T08:38:07.000Z</time>
</trkpt>
<trkpt lat="45.8535470" lon="9.2325910">
	<ele>936.60</ele>
	<time>2025-02-15T08:38:08.000Z</time>
</trkpt>
<trkpt lat="45.8535610" lon="9.2326000">
	<ele>936.60</ele>
	<time>2025-02-15T08:38:09.000Z</time>
</trkpt>
<trkpt lat="45.8535710" lon="9.2326000">
	<ele>936.80</ele>
	<time>2025-02-15T08:38:10.000Z</time>
</trkpt>
<trkpt lat="45.8535740" lon="9.2326070">
	<ele>936.80</ele>
	<time>2025-02-15T08:38:11.000Z</time>
</trkpt>
<trkpt lat="45.8535780" lon="9.2326130">
	<ele>937.00</ele>
	<time>2025-02-15T08:38:12.000Z</time>
</trkpt>
<trkpt lat="45.8535870" lon="9.2326170">
	<ele>937.00</ele>
	<time>2025-02-15T08:38:13.000Z</time>
</trkpt>
<trkpt lat="45.8536080" lon="9.2326200">
	<ele>937.20</ele>
	<time>2025-02-15T08:38:14.000Z</time>
</trkpt>
<trkpt lat="45.8536210" lon="9.2326330">
	<ele>937.20</ele>
	<time>2025-02-15T08:38:15.000Z</time>
</trkpt>
<trkpt lat="45.8536300" lon="9.2326480">
	<ele>937.40</ele>
	<time>2025-02-15T08:38:16.000Z</time>
</trkpt>
<trkpt lat="45.8536360" lon="9.2326560">
	<ele>937.60</ele>
	<time>2025-02-15T08:38:17.000Z</time>
</trkpt>
<trkpt lat="45.8536400" lon="9.2326690">
	<ele>937.60</ele>
	<time>2025-02-15T08:38:18.000Z</time>
</trkpt>
<trkpt lat="45.8536480" lon="9.2326710">
	<ele>937.60</ele>
	<time>2025-02-15T08:38:19.000Z</time>
</trkpt>
<trkpt lat="45.8536540" lon="9.2326870">
	<ele>937.60</ele>
	<time>2025-02-15T08:38:20.000Z</time>
</trkpt>
<trkpt lat="45.8536640" lon="9.2327000">
	<ele>937.80</ele>
	<time>2025-02-15T08:38:21.000Z</time>
</trkpt>
<trkpt lat="45.8536710" lon="9.2327080">
	<ele>937.80</ele>
	<time>2025-02-15T08:38:22.000Z</time>
</trkpt>
<trkpt lat="45.8536780" lon="9.2327180">
	<ele>938.00</ele>
	<time>2025-02-15T08:38:23.000Z</time>
</trkpt>
<trkpt lat="45.8536860" lon="9.2327260">
	<ele>938.00</ele>
	<time>2025-02-15T08:38:24.000Z</time>
</trkpt>
<trkpt lat="45.8536960" lon="9.2327340">
	<ele>938.00</ele>
	<time>2025-02-15T08:38:25.000Z</time>
</trkpt>
<trkpt lat="45.8537030" lon="9.2327440">
	<ele>938.00</ele>
	<time>2025-02-15T08:38:26.000Z</time>
</trkpt>
<trkpt lat="45.8537140" lon="9.2327520">
	<ele>938.00</ele>
	<time>2025-02-15T08:38:27.000Z</time>
</trkpt>
<trkpt lat="45.8537270" lon="9.2327550">
	<ele>938.00</ele>
	<time>2025-02-15T08:38:28.000Z</time>
</trkpt>
<trkpt lat="45.8537330" lon="9.2327620">
	<ele>938.00</ele>
	<time>2025-02-15T08:38:29.000Z</time>
</trkpt>
<trkpt lat="45.8537370" lon="9.2327650">
	<ele>938.20</ele>
	<time>2025-02-15T08:38:30.000Z</time>
</trkpt>
<trkpt lat="45.8537410" lon="9.2327740">
	<ele>938.20</ele>
	<time>2025-02-15T08:38:31.000Z</time>
</trkpt>
<trkpt lat="45.8537480" lon="9.2327820">
	<ele>938.20</ele>
	<time>2025-02-15T08:38:32.000Z</time>
</trkpt>
<trkpt lat="45.8537660" lon="9.2327790">
	<ele>938.40</ele>
	<time>2025-02-15T08:38:33.000Z</time>
</trkpt>
<trkpt lat="45.8537820" lon="9.2327980">
	<ele>938.40</ele>
	<time>2025-02-15T08:38:34.000Z</time>
</trkpt>
<trkpt lat="45.8537910" lon="9.2328070">
	<ele>938.40</ele>
	<time>2025-02-15T08:38:35.000Z</time>
</trkpt>
<trkpt lat="45.8537930" lon="9.2328190">
	<ele>938.40</ele>
	<time>2025-02-15T08:38:36.000Z</time>
</trkpt>
<trkpt lat="45.8538040" lon="9.2328210">
	<ele>938.60</ele>
	<time>2025-02-15T08:38:37.000Z</time>
</trkpt>
<trkpt lat="45.8538020" lon="9.2328370">
	<ele>938.60</ele>
	<time>2025-02-15T08:38:38.000Z</time>
</trkpt>
<trkpt lat="45.8538070" lon="9.2328410">
	<ele>938.60</ele>
	<time>2025-02-15T08:38:39.000Z</time>
</trkpt>
<trkpt lat="45.8538140" lon="9.2328510">
	<ele>938.80</ele>
	<time>2025-02-15T08:38:40.000Z</time>
</trkpt>
<trkpt lat="45.8538170" lon="9.2328620">
	<ele>939.00</ele>
	<time>2025-02-15T08:38:41.000Z</time>
</trkpt>
<trkpt lat="45.8538210" lon="9.2328800">
	<ele>939.00</ele>
	<time>2025-02-15T08:38:42.000Z</time>
</trkpt>
<trkpt lat="45.8538290" lon="9.2328900">
	<ele>939.00</ele>
	<time>2025-02-15T08:38:43.000Z</time>
</trkpt>
<trkpt lat="45.8538390" lon="9.2328960">
	<ele>939.00</ele>
	<time>2025-02-15T08:38:44.000Z</time>
</trkpt>
<trkpt lat="45.8538490" lon="9.2329020">
	<ele>939.20</ele>
	<time>2025-02-15T08:38:45.000Z</time>
</trkpt>
<trkpt lat="45.8538580" lon="9.2329090">
	<ele>939.20</ele>
	<time>2025-02-15T08:38:46.000Z</time>
</trkpt>
<trkpt lat="45.8538710" lon="9.2329110">
	<ele>939.20</ele>
	<time>2025-02-15T08:38:47.000Z</time>
</trkpt>
<trkpt lat="45.8538810" lon="9.2329150">
	<ele>939.40</ele>
	<time>2025-02-15T08:38:48.000Z</time>
</trkpt>
<trkpt lat="45.8538850" lon="9.2329270">
	<ele>939.40</ele>
	<time>2025-02-15T08:38:49.000Z</time>
</trkpt>
<trkpt lat="45.8538920" lon="9.2329390">
	<ele>939.40</ele>
	<time>2025-02-15T08:38:50.000Z</time>
</trkpt>
<trkpt lat="45.8538990" lon="9.2329500">
	<ele>939.40</ele>
	<time>2025-02-15T08:38:51.000Z</time>
</trkpt>
<trkpt lat="45.8539080" lon="9.2329580">
	<ele>939.60</ele>
	<time>2025-02-15T08:38:52.000Z</time>
</trkpt>
<trkpt lat="45.8539160" lon="9.2329680">
	<ele>939.80</ele>
	<time>2025-02-15T08:38:53.000Z</time>
</trkpt>
<trkpt lat="45.8539240" lon="9.2329690">
	<ele>939.80</ele>
	<time>2025-02-15T08:38:54.000Z</time>
</trkpt>
<trkpt lat="45.8539320" lon="9.2329670">
	<ele>940.00</ele>
	<time>2025-02-15T08:38:55.000Z</time>
</trkpt>
<trkpt lat="45.8539430" lon="9.2329670">
	<ele>940.00</ele>
	<time>2025-02-15T08:38:56.000Z</time>
</trkpt>
<trkpt lat="45.8539520" lon="9.2329700">
	<ele>940.20</ele>
	<time>2025-02-15T08:38:57.000Z</time>
</trkpt>
<trkpt lat="45.8539580" lon="9.2329810">
	<ele>940.20</ele>
	<time>2025-02-15T08:38:58.000Z</time>
</trkpt>
<trkpt lat="45.8539610" lon="9.2329980">
	<ele>940.20</ele>
	<time>2025-02-15T08:38:59.000Z</time>
</trkpt>
<trkpt lat="45.8539680" lon="9.2330120">
	<ele>940.40</ele>
	<time>2025-02-15T08:39:00.000Z</time>
</trkpt>
<trkpt lat="45.8539810" lon="9.2330230">
	<ele>940.60</ele>
	<time>2025-02-15T08:39:01.000Z</time>
</trkpt>
<trkpt lat="45.8539910" lon="9.2330360">
	<ele>940.60</ele>
	<time>2025-02-15T08:39:02.000Z</time>
</trkpt>
<trkpt lat="45.8540010" lon="9.2330460">
	<ele>940.60</ele>
	<time>2025-02-15T08:39:03.000Z</time>
</trkpt>
<trkpt lat="45.8540090" lon="9.2330510">
	<ele>940.60</ele>
	<time>2025-02-15T08:39:04.000Z</time>
</trkpt>
<trkpt lat="45.8540200" lon="9.2330530">
	<ele>940.60</ele>
	<time>2025-02-15T08:39:05.000Z</time>
</trkpt>
<trkpt lat="45.8540300" lon="9.2330610">
	<ele>940.60</ele>
	<time>2025-02-15T08:39:06.000Z</time>
</trkpt>
<trkpt lat="45.8540390" lon="9.2330800">
	<ele>940.80</ele>
	<time>2025-02-15T08:39:07.000Z</time>
</trkpt>
<trkpt lat="45.8540450" lon="9.2330920">
	<ele>941.00</ele>
	<time>2025-02-15T08:39:08.000Z</time>
</trkpt>
<trkpt lat="45.8540520" lon="9.2330970">
	<ele>941.00</ele>
	<time>2025-02-15T08:39:09.000Z</time>
</trkpt>
<trkpt lat="45.8540540" lon="9.2331080">
	<ele>941.20</ele>
	<time>2025-02-15T08:39:10.000Z</time>
</trkpt>
<trkpt lat="45.8540530" lon="9.2331160">
	<ele>941.20</ele>
	<time>2025-02-15T08:39:11.000Z</time>
</trkpt>
<trkpt lat="45.8540580" lon="9.2331290">
	<ele>941.20</ele>
	<time>2025-02-15T08:39:12.000Z</time>
</trkpt>
<trkpt lat="45.8540610" lon="9.2331360">
	<ele>941.40</ele>
	<time>2025-02-15T08:39:13.000Z</time>
</trkpt>
<trkpt lat="45.8540700" lon="9.2331400">
	<ele>941.60</ele>
	<time>2025-02-15T08:39:14.000Z</time>
</trkpt>
<trkpt lat="45.8540810" lon="9.2331430">
	<ele>941.80</ele>
	<time>2025-02-15T08:39:15.000Z</time>
</trkpt>
<trkpt lat="45.8540880" lon="9.2331520">
	<ele>942.00</ele>
	<time>2025-02-15T08:39:16.000Z</time>
</trkpt>
<trkpt lat="45.8540970" lon="9.2331610">
	<ele>942.00</ele>
	<time>2025-02-15T08:39:17.000Z</time>
</trkpt>
<trkpt lat="45.8541110" lon="9.2331630">
	<ele>942.20</ele>
	<time>2025-02-15T08:39:18.000Z</time>
</trkpt>
<trkpt lat="45.8541240" lon="9.2331700">
	<ele>942.40</ele>
	<time>2025-02-15T08:39:19.000Z</time>
</trkpt>
<trkpt lat="45.8541320" lon="9.2331840">
	<ele>942.40</ele>
	<time>2025-02-15T08:39:20.000Z</time>
</trkpt>
<trkpt lat="45.8541280" lon="9.2332140">
	<ele>942.60</ele>
	<time>2025-02-15T08:39:21.000Z</time>
</trkpt>
<trkpt lat="45.8541340" lon="9.2332150">
	<ele>942.60</ele>
	<time>2025-02-15T08:39:22.000Z</time>
</trkpt>
<trkpt lat="45.8541460" lon="9.2332140">
	<ele>942.60</ele>
	<time>2025-02-15T08:39:23.000Z</time>
</trkpt>
<trkpt lat="45.8541640" lon="9.2332200">
	<ele>942.80</ele>
	<time>2025-02-15T08:39:24.000Z</time>
</trkpt>
<trkpt lat="45.8541770" lon="9.2332270">
	<ele>942.80</ele>
	<time>2025-02-15T08:39:25.000Z</time>
</trkpt>
<trkpt lat="45.8541900" lon="9.2332290">
	<ele>943.00</ele>
	<time>2025-02-15T08:39:26.000Z</time>
</trkpt>
<trkpt lat="45.8542040" lon="9.2332380">
	<ele>943.00</ele>
	<time>2025-02-15T08:39:27.000Z</time>
</trkpt>
<trkpt lat="45.8542170" lon="9.2332550">
	<ele>943.20</ele>
	<time>2025-02-15T08:39:28.000Z</time>
</trkpt>
<trkpt lat="45.8542230" lon="9.2332650">
	<ele>943.20</ele>
	<time>2025-02-15T08:39:29.000Z</time>
</trkpt>
<trkpt lat="45.8542320" lon="9.2332750">
	<ele>943.40</ele>
	<time>2025-02-15T08:39:30.000Z</time>
</trkpt>
<trkpt lat="45.8542390" lon="9.2332850">
	<ele>943.60</ele>
	<time>2025-02-15T08:39:31.000Z</time>
</trkpt>
<trkpt lat="45.8542470" lon="9.2332880">
	<ele>943.60</ele>
	<time>2025-02-15T08:39:32.000Z</time>
</trkpt>
<trkpt lat="45.8542550" lon="9.2332890">
	<ele>943.60</ele>
	<time>2025-02-15T08:39:33.000Z</time>
</trkpt>
<trkpt lat="45.8542680" lon="9.2332790">
	<ele>943.80</ele>
	<time>2025-02-15T08:39:34.000Z</time>
</trkpt>
<trkpt lat="45.8542800" lon="9.2332730">
	<ele>943.80</ele>
	<time>2025-02-15T08:39:35.000Z</time>
</trkpt>
<trkpt lat="45.8542880" lon="9.2332740">
	<ele>944.00</ele>
	<time>2025-02-15T08:39:36.000Z</time>
</trkpt>
<trkpt lat="45.8543000" lon="9.2332800">
	<ele>944.20</ele>
	<time>2025-02-15T08:39:37.000Z</time>
</trkpt>
<trkpt lat="45.8543060" lon="9.2332880">
	<ele>944.20</ele>
	<time>2025-02-15T08:39:38.000Z</time>
</trkpt>
<trkpt lat="45.8543100" lon="9.2332940">
	<ele>944.40</ele>
	<time>2025-02-15T08:39:39.000Z</time>
</trkpt>
<trkpt lat="45.8543160" lon="9.2333030">
	<ele>944.60</ele>
	<time>2025-02-15T08:39:40.000Z</time>
</trkpt>
<trkpt lat="45.8543220" lon="9.2333160">
	<ele>944.60</ele>
	<time>2025-02-15T08:39:41.000Z</time>
</trkpt>
<trkpt lat="45.8543250" lon="9.2333180">
	<ele>944.80</ele>
	<time>2025-02-15T08:39:42.000Z</time>
</trkpt>
<trkpt lat="45.8543280" lon="9.2333230">
	<ele>944.80</ele>
	<time>2025-02-15T08:39:43.000Z</time>
</trkpt>
<trkpt lat="45.8543340" lon="9.2333300">
	<ele>944.80</ele>
	<time>2025-02-15T08:39:44.000Z</time>
</trkpt>
<trkpt lat="45.8543410" lon="9.2333350">
	<ele>944.80</ele>
	<time>2025-02-15T08:39:45.000Z</time>
</trkpt>
<trkpt lat="45.8543450" lon="9.2333390">
	<ele>944.80</ele>
	<time>2025-02-15T08:39:46.000Z</time>
</trkpt>
<trkpt lat="45.8543530" lon="9.2333430">
	<ele>945.00</ele>
	<time>2025-02-15T08:39:47.000Z</time>
</trkpt>
<trkpt lat="45.8543530" lon="9.2333470">
	<ele>945.00</ele>
	<time>2025-02-15T08:39:48.000Z</time>
</trkpt>
<trkpt lat="45.8543520" lon="9.2333520">
	<ele>945.00</ele>
	<time>2025-02-15T08:39:49.000Z</time>
</trkpt>
<trkpt lat="45.8543540" lon="9.2333530">
	<ele>945.00</ele>
	<time>2025-02-15T08:39:50.000Z</time>
</trkpt>
<trkpt lat="45.8543550" lon="9.2333520">
	<ele>945.00</ele>
	<time>2025-02-15T08:39:51.000Z</time>
</trkpt>
<trkpt lat="45.8543550" lon="9.2333520">
	<ele>945.20</ele>
	<time>2025-02-15T08:39:52.000Z</time>
</trkpt>
<trkpt lat="45.8543560" lon="9.2333510">
	<ele>945.20</ele>
	<time>2025-02-15T08:39:53.000Z</time>
</trkpt>
<trkpt lat="45.8543560" lon="9.2333510">
	<ele>945.20</ele>
	<time>2025-02-15T08:39:54.000Z</time>
</trkpt>
<trkpt lat="45.8543560" lon="9.2333520">
	<ele>945.20</ele>
	<time>2025-02-15T08:39:55.000Z</time>
</trkpt>
<trkpt lat="45.8543550" lon="9.2333530">
	<ele>945.20</ele>
	<time>2025-02-15T08:39:56.000Z</time>
</trkpt>
<trkpt lat="45.8543550" lon="9.2333530">
	<ele>945.00</ele>
	<time>2025-02-15T08:39:57.000Z</time>
</trkpt>
<trkpt lat="45.8543560" lon="9.2333540">
	<ele>945.00</ele>
	<time>2025-02-15T08:39:58.000Z</time>
</trkpt>
<trkpt lat="45.8543560" lon="9.2333540">
	<ele>945.00</ele>
	<time>2025-02-15T08:39:59.000Z</time>
</trkpt>
<trkpt lat="45.8543560" lon="9.2333540">
	<ele>945.20</ele>
	<time>2025-02-15T08:40:00.000Z</time>
</trkpt>
<trkpt lat="45.8543560" lon="9.2333540">
	<ele>945.00</ele>
	<time>2025-02-15T08:40:01.000Z</time>
</trkpt>
<trkpt lat="45.8543560" lon="9.2333540">
	<ele>945.20</ele>
	<time>2025-02-15T08:40:02.000Z</time>
</trkpt>
<trkpt lat="45.8543560" lon="9.2333540">
	<ele>945.20</ele>
	<time>2025-02-15T08:40:03.000Z</time>
</trkpt>
<trkpt lat="45.8543560" lon="9.2333540">
	<ele>945.20</ele>
	<time>2025-02-15T08:40:04.000Z</time>
</trkpt>
<trkpt lat="45.8543560" lon="9.2333540">
	<ele>945.20</ele>
	<time>2025-02-15T08:40:05.000Z</time>
</trkpt>
<trkpt lat="45.8543560" lon="9.2333540">
	<ele>945.20</ele>
	<time>2025-02-15T08:40:06.000Z</time>
</trkpt>
<trkpt lat="45.8543560" lon="9.2333540">
	<ele>945.20</ele>
	<time>2025-02-15T08:40:07.000Z</time>
</trkpt>
<trkpt lat="45.8543560" lon="9.2333540">
	<ele>945.20</ele>
	<time>2025-02-15T08:40:08.000Z</time>
</trkpt>
<trkpt lat="45.8543560" lon="9.2333530">
	<ele>945.20</ele>
	<time>2025-02-15T08:40:09.000Z</time>
</trkpt>
<trkpt lat="45.8543560" lon="9.2333530">
	<ele>945.20</ele>
	<time>2025-02-15T08:40:10.000Z</time>
</trkpt>
<trkpt lat="45.8543560" lon="9.2333530">
	<ele>945.20</ele>
	<time>2025-02-15T08:40:11.000Z</time>
</trkpt>
<trkpt lat="45.8543560" lon="9.2333530">
	<ele>945.20</ele>
	<time>2025-02-15T08:40:12.000Z</time>
</trkpt>
<trkpt lat="45.8543560" lon="9.2333530">
	<ele>945.20</ele>
	<time>2025-02-15T08:40:13.000Z</time>
</trkpt>
<trkpt lat="45.8543560" lon="9.2333530">
	<ele>945.20</ele>
	<time>2025-02-15T08:40:14.000Z</time>
</trkpt>
<trkpt lat="45.8543560" lon="9.2333530">
	<ele>945.20</ele>
	<time>2025-02-15T08:40:15.000Z</time>
</trkpt>
<trkpt lat="45.8543560" lon="9.2333530">
	<ele>945.20</ele>
	<time>2025-02-15T08:40:16.000Z</time>
</trkpt>
<trkpt lat="45.8543550" lon="9.2333530">
	<ele>945.20</ele>
	<time>2025-02-15T08:40:17.000Z</time>
</trkpt>
<trkpt lat="45.8543550" lon="9.2333530">
	<ele>945.20</ele>
	<time>2025-02-15T08:40:18.000Z</time>
</trkpt>
<trkpt lat="45.8543550" lon="9.2333530">
	<ele>945.20</ele>
	<time>2025-02-15T08:40:19.000Z</time>
</trkpt>
<trkpt lat="45.8543550" lon="9.2333530">
	<ele>945.00</ele>
	<time>2025-02-15T08:40:20.000Z</time>
</trkpt>
<trkpt lat="45.8543560" lon="9.2333530">
	<ele>945.00</ele>
	<time>2025-02-15T08:40:21.000Z</time>
</trkpt>
<trkpt lat="45.8543560" lon="9.2333540">
	<ele>944.80</ele>
	<time>2025-02-15T08:40:22.000Z</time>
</trkpt>
<trkpt lat="45.8543560" lon="9.2333540">
	<ele>944.80</ele>
	<time>2025-02-15T08:40:23.000Z</time>
</trkpt>
<trkpt lat="45.8543560" lon="9.2333540">
	<ele>944.80</ele>
	<time>2025-02-15T08:40:24.000Z</time>
</trkpt>
<trkpt lat="45.8543560" lon="9.2333550">
	<ele>944.80</ele>
	<time>2025-02-15T08:40:25.000Z</time>
</trkpt>
<trkpt lat="45.8543560" lon="9.2333570">
	<ele>944.80</ele>
	<time>2025-02-15T08:40:26.000Z</time>
</trkpt>
<trkpt lat="45.8543560" lon="9.2333580">
	<ele>944.80</ele>
	<time>2025-02-15T08:40:27.000Z</time>
</trkpt>
<trkpt lat="45.8543570" lon="9.2333580">
	<ele>944.80</ele>
	<time>2025-02-15T08:40:28.000Z</time>
</trkpt>
<trkpt lat="45.8543580" lon="9.2333590">
	<ele>945.00</ele>
	<time>2025-02-15T08:40:29.000Z</time>
</trkpt>
<trkpt lat="45.8543590" lon="9.2333590">
	<ele>945.00</ele>
	<time>2025-02-15T08:40:30.000Z</time>
</trkpt>
<trkpt lat="45.8543590" lon="9.2333590">
	<ele>945.20</ele>
	<time>2025-02-15T08:40:31.000Z</time>
</trkpt>
<trkpt lat="45.8543600" lon="9.2333590">
	<ele>945.20</ele>
	<time>2025-02-15T08:40:32.000Z</time>
</trkpt>
<trkpt lat="45.8543600" lon="9.2333590">
	<ele>945.20</ele>
	<time>2025-02-15T08:40:33.000Z</time>
</trkpt>
<trkpt lat="45.8543620" lon="9.2333590">
	<ele>945.20</ele>
	<time>2025-02-15T08:40:34.000Z</time>
</trkpt>
<trkpt lat="45.8543630" lon="9.2333590">
	<ele>945.40</ele>
	<time>2025-02-15T08:40:35.000Z</time>
</trkpt>
<trkpt lat="45.8543650" lon="9.2333590">
	<ele>945.40</ele>
	<time>2025-02-15T08:40:36.000Z</time>
</trkpt>
<trkpt lat="45.8543670" lon="9.2333590">
	<ele>945.40</ele>
	<time>2025-02-15T08:40:37.000Z</time>
</trkpt>
<trkpt lat="45.8543670" lon="9.2333590">
	<ele>945.40</ele>
	<time>2025-02-15T08:40:38.000Z</time>
</trkpt>
<trkpt lat="45.8543670" lon="9.2333590">
	<ele>945.40</ele>
	<time>2025-02-15T08:40:39.000Z</time>
</trkpt>
<trkpt lat="45.8543670" lon="9.2333590">
	<ele>945.40</ele>
	<time>2025-02-15T08:40:40.000Z</time>
</trkpt>
<trkpt lat="45.8543670" lon="9.2333580">
	<ele>945.20</ele>
	<time>2025-02-15T08:40:41.000Z</time>
</trkpt>
<trkpt lat="45.8543670" lon="9.2333570">
	<ele>945.20</ele>
	<time>2025-02-15T08:40:42.000Z</time>
</trkpt>
<trkpt lat="45.8543680" lon="9.2333560">
	<ele>945.20</ele>
	<time>2025-02-15T08:40:43.000Z</time>
</trkpt>
<trkpt lat="45.8543680" lon="9.2333560">
	<ele>945.00</ele>
	<time>2025-02-15T08:40:44.000Z</time>
</trkpt>
<trkpt lat="45.8543680" lon="9.2333560">
	<ele>945.00</ele>
	<time>2025-02-15T08:40:45.000Z</time>
</trkpt>
<trkpt lat="45.8543680" lon="9.2333560">
	<ele>945.00</ele>
	<time>2025-02-15T08:40:46.000Z</time>
</trkpt>
<trkpt lat="45.8543690" lon="9.2333560">
	<ele>944.80</ele>
	<time>2025-02-15T08:40:47.000Z</time>
</trkpt>
<trkpt lat="45.8543690" lon="9.2333560">
	<ele>944.80</ele>
	<time>2025-02-15T08:40:48.000Z</time>
</trkpt>
<trkpt lat="45.8543700" lon="9.2333550">
	<ele>944.80</ele>
	<time>2025-02-15T08:40:49.000Z</time>
</trkpt>
<trkpt lat="45.8543710" lon="9.2333550">
	<ele>945.00</ele>
	<time>2025-02-15T08:40:50.000Z</time>
</trkpt>
<trkpt lat="45.8543710" lon="9.2333540">
	<ele>945.00</ele>
	<time>2025-02-15T08:40:51.000Z</time>
</trkpt>
<trkpt lat="45.8543710" lon="9.2333530">
	<ele>945.00</ele>
	<time>2025-02-15T08:40:52.000Z</time>
</trkpt>
<trkpt lat="45.8543720" lon="9.2333520">
	<ele>945.20</ele>
	<time>2025-02-15T08:40:53.000Z</time>
</trkpt>
<trkpt lat="45.8543720" lon="9.2333510">
	<ele>945.20</ele>
	<time>2025-02-15T08:40:54.000Z</time>
</trkpt>
<trkpt lat="45.8543720" lon="9.2333510">
	<ele>945.60</ele>
	<time>2025-02-15T08:40:55.000Z</time>
</trkpt>
<trkpt lat="45.8543720" lon="9.2333500">
	<ele>945.80</ele>
	<time>2025-02-15T08:40:56.000Z</time>
</trkpt>
<trkpt lat="45.8543750" lon="9.2333460">
	<ele>946.00</ele>
	<time>2025-02-15T08:40:57.000Z</time>
</trkpt>
<trkpt lat="45.8543760" lon="9.2333450">
	<ele>946.00</ele>
	<time>2025-02-15T08:40:58.000Z</time>
</trkpt>
<trkpt lat="45.8543770" lon="9.2333440">
	<ele>946.00</ele>
	<time>2025-02-15T08:40:59.000Z</time>
</trkpt>
<trkpt lat="45.8543800" lon="9.2333420">
	<ele>945.80</ele>
	<time>2025-02-15T08:41:00.000Z</time>
</trkpt>
<trkpt lat="45.8543810" lon="9.2333410">
	<ele>945.80</ele>
	<time>2025-02-15T08:41:01.000Z</time>
</trkpt>
<trkpt lat="45.8543850" lon="9.2333400">
	<ele>945.80</ele>
	<time>2025-02-15T08:41:02.000Z</time>
</trkpt>
<trkpt lat="45.8543900" lon="9.2333400">
	<ele>945.80</ele>
	<time>2025-02-15T08:41:03.000Z</time>
</trkpt>
<trkpt lat="45.8543930" lon="9.2333390">
	<ele>945.60</ele>
	<time>2025-02-15T08:41:04.000Z</time>
</trkpt>
<trkpt lat="45.8543940" lon="9.2333380">
	<ele>945.60</ele>
	<time>2025-02-15T08:41:05.000Z</time>
</trkpt>
<trkpt lat="45.8543960" lon="9.2333380">
	<ele>945.60</ele>
	<time>2025-02-15T08:41:06.000Z</time>
</trkpt>
<trkpt lat="45.8543970" lon="9.2333380">
	<ele>945.60</ele>
	<time>2025-02-15T08:41:07.000Z</time>
</trkpt>
<trkpt lat="45.8543990" lon="9.2333380">
	<ele>945.60</ele>
	<time>2025-02-15T08:41:08.000Z</time>
</trkpt>
<trkpt lat="45.8543990" lon="9.2333380">
	<ele>945.60</ele>
	<time>2025-02-15T08:41:09.000Z</time>
</trkpt>
<trkpt lat="45.8544000" lon="9.2333370">
	<ele>945.60</ele>
	<time>2025-02-15T08:41:10.000Z</time>
</trkpt>
<trkpt lat="45.8544000" lon="9.2333370">
	<ele>945.60</ele>
	<time>2025-02-15T08:41:11.000Z</time>
</trkpt>
<trkpt lat="45.8544000" lon="9.2333360">
	<ele>945.60</ele>
	<time>2025-02-15T08:41:12.000Z</time>
</trkpt>
<trkpt lat="45.8544000" lon="9.2333360">
	<ele>945.60</ele>
	<time>2025-02-15T08:41:13.000Z</time>
</trkpt>
<trkpt lat="45.8544010" lon="9.2333350">
	<ele>945.60</ele>
	<time>2025-02-15T08:41:14.000Z</time>
</trkpt>
<trkpt lat="45.8544010" lon="9.2333350">
	<ele>945.60</ele>
	<time>2025-02-15T08:41:15.000Z</time>
</trkpt>
<trkpt lat="45.8544010" lon="9.2333350">
	<ele>945.60</ele>
	<time>2025-02-15T08:41:16.000Z</time>
</trkpt>
<trkpt lat="45.8544010" lon="9.2333350">
	<ele>945.60</ele>
	<time>2025-02-15T08:41:17.000Z</time>
</trkpt>
<trkpt lat="45.8544010" lon="9.2333350">
	<ele>945.60</ele>
	<time>2025-02-15T08:41:18.000Z</time>
</trkpt>
<trkpt lat="45.8544010" lon="9.2333350">
	<ele>945.60</ele>
	<time>2025-02-15T08:41:19.000Z</time>
</trkpt>
<trkpt lat="45.8544010" lon="9.2333340">
	<ele>945.60</ele>
	<time>2025-02-15T08:41:20.000Z</time>
</trkpt>
<trkpt lat="45.8544010" lon="9.2333340">
	<ele>945.60</ele>
	<time>2025-02-15T08:41:21.000Z</time>
</trkpt>
<trkpt lat="45.8544010" lon="9.2333340">
	<ele>945.60</ele>
	<time>2025-02-15T08:41:22.000Z</time>
</trkpt>
<trkpt lat="45.8544010" lon="9.2333330">
	<ele>945.60</ele>
	<time>2025-02-15T08:41:23.000Z</time>
</trkpt>
<trkpt lat="45.8544010" lon="9.2333330">
	<ele>945.60</ele>
	<time>2025-02-15T08:41:24.000Z</time>
</trkpt>
<trkpt lat="45.8544010" lon="9.2333330">
	<ele>945.60</ele>
	<time>2025-02-15T08:41:25.000Z</time>
</trkpt>
<trkpt lat="45.8544010" lon="9.2333320">
	<ele>945.60</ele>
	<time>2025-02-15T08:41:26.000Z</time>
</trkpt>
<trkpt lat="45.8544010" lon="9.2333310">
	<ele>945.60</ele>
	<time>2025-02-15T08:41:27.000Z</time>
</trkpt>
<trkpt lat="45.8544010" lon="9.2333300">
	<ele>945.60</ele>
	<time>2025-02-15T08:41:28.000Z</time>
</trkpt>
<trkpt lat="45.8544010" lon="9.2333290">
	<ele>945.60</ele>
	<time>2025-02-15T08:41:29.000Z</time>
</trkpt>
<trkpt lat="45.8544010" lon="9.2333290">
	<ele>945.60</ele>
	<time>2025-02-15T08:41:30.000Z</time>
</trkpt>
<trkpt lat="45.8544020" lon="9.2333290">
	<ele>945.60</ele>
	<time>2025-02-15T08:41:31.000Z</time>
</trkpt>
<trkpt lat="45.8544030" lon="9.2333280">
	<ele>945.60</ele>
	<time>2025-02-15T08:41:32.000Z</time>
</trkpt>
<trkpt lat="45.8544030" lon="9.2333280">
	<ele>945.60</ele>
	<time>2025-02-15T08:41:33.000Z</time>
</trkpt>
<trkpt lat="45.8544030" lon="9.2333280">
	<ele>945.60</ele>
	<time>2025-02-15T08:41:34.000Z</time>
</trkpt>
<trkpt lat="45.8544030" lon="9.2333280">
	<ele>945.60</ele>
	<time>2025-02-15T08:41:35.000Z</time>
</trkpt>
<trkpt lat="45.8544040" lon="9.2333270">
	<ele>945.60</ele>
	<time>2025-02-15T08:41:36.000Z</time>
</trkpt>
<trkpt lat="45.8544040" lon="9.2333270">
	<ele>945.60</ele>
	<time>2025-02-15T08:41:37.000Z</time>
</trkpt>
<trkpt lat="45.8544040" lon="9.2333270">
	<ele>945.60</ele>
	<time>2025-02-15T08:41:38.000Z</time>
</trkpt>
<trkpt lat="45.8544040" lon="9.2333230">
	<ele>945.60</ele>
	<time>2025-02-15T08:41:39.000Z</time>
</trkpt>
<trkpt lat="45.8544030" lon="9.2333170">
	<ele>945.60</ele>
	<time>2025-02-15T08:41:40.000Z</time>
</trkpt>
<trkpt lat="45.8544020" lon="9.2333090">
	<ele>945.60</ele>
	<time>2025-02-15T08:41:41.000Z</time>
</trkpt>
<trkpt lat="45.8544020" lon="9.2333020">
	<ele>945.60</ele>
	<time>2025-02-15T08:41:42.000Z</time>
</trkpt>
<trkpt lat="45.8544010" lon="9.2332950">
	<ele>945.60</ele>
	<time>2025-02-15T08:41:43.000Z</time>
</trkpt>
<trkpt lat="45.8544010" lon="9.2332890">
	<ele>945.60</ele>
	<time>2025-02-15T08:41:44.000Z</time>
</trkpt>
<trkpt lat="45.8544010" lon="9.2332830">
	<ele>945.60</ele>
	<time>2025-02-15T08:41:45.000Z</time>
</trkpt>
<trkpt lat="45.8544000" lon="9.2332790">
	<ele>945.60</ele>
	<time>2025-02-15T08:41:46.000Z</time>
</trkpt>
<trkpt lat="45.8543990" lon="9.2332770">
	<ele>945.60</ele>
	<time>2025-02-15T08:41:47.000Z</time>
</trkpt>
<trkpt lat="45.8543960" lon="9.2332740">
	<ele>945.60</ele>
	<time>2025-02-15T08:41:48.000Z</time>
</trkpt>
<trkpt lat="45.8543930" lon="9.2332720">
	<ele>945.60</ele>
	<time>2025-02-15T08:41:49.000Z</time>
</trkpt>
<trkpt lat="45.8543900" lon="9.2332700">
	<ele>945.60</ele>
	<time>2025-02-15T08:41:50.000Z</time>
</trkpt>
<trkpt lat="45.8543880" lon="9.2332660">
	<ele>945.60</ele>
	<time>2025-02-15T08:41:51.000Z</time>
</trkpt>
<trkpt lat="45.8543860" lon="9.2332600">
	<ele>945.60</ele>
	<time>2025-02-15T08:41:52.000Z</time>
</trkpt>
<trkpt lat="45.8543860" lon="9.2332560">
	<ele>945.60</ele>
	<time>2025-02-15T08:41:53.000Z</time>
</trkpt>
<trkpt lat="45.8543850" lon="9.2332530">
	<ele>945.60</ele>
	<time>2025-02-15T08:41:54.000Z</time>
</trkpt>
<trkpt lat="45.8543850" lon="9.2332520">
	<ele>945.60</ele>
	<time>2025-02-15T08:41:55.000Z</time>
</trkpt>
<trkpt lat="45.8543840" lon="9.2332500">
	<ele>945.60</ele>
	<time>2025-02-15T08:41:56.000Z</time>
</trkpt>
<trkpt lat="45.8543840" lon="9.2332500">
	<ele>945.60</ele>
	<time>2025-02-15T08:41:57.000Z</time>
</trkpt>
<trkpt lat="45.8543840" lon="9.2332490">
	<ele>945.60</ele>
	<time>2025-02-15T08:41:58.000Z</time>
</trkpt>
<trkpt lat="45.8543840" lon="9.2332480">
	<ele>945.60</ele>
	<time>2025-02-15T08:41:59.000Z</time>
</trkpt>
<trkpt lat="45.8543840" lon="9.2332470">
	<ele>945.60</ele>
	<time>2025-02-15T08:42:00.000Z</time>
</trkpt>
<trkpt lat="45.8543840" lon="9.2332460">
	<ele>945.60</ele>
	<time>2025-02-15T08:42:01.000Z</time>
</trkpt>
<trkpt lat="45.8543830" lon="9.2332450">
	<ele>945.60</ele>
	<time>2025-02-15T08:42:02.000Z</time>
</trkpt>
<trkpt lat="45.8543830" lon="9.2332450">
	<ele>945.60</ele>
	<time>2025-02-15T08:42:03.000Z</time>
</trkpt>
<trkpt lat="45.8543830" lon="9.2332450">
	<ele>945.60</ele>
	<time>2025-02-15T08:42:04.000Z</time>
</trkpt>
<trkpt lat="45.8543830" lon="9.2332450">
	<ele>945.60</ele>
	<time>2025-02-15T08:42:05.000Z</time>
</trkpt>
<trkpt lat="45.8543830" lon="9.2332440">
	<ele>945.60</ele>
	<time>2025-02-15T08:42:06.000Z</time>
</trkpt>
<trkpt lat="45.8543830" lon="9.2332430">
	<ele>945.60</ele>
	<time>2025-02-15T08:42:07.000Z</time>
</trkpt>
<trkpt lat="45.8543830" lon="9.2332420">
	<ele>945.60</ele>
	<time>2025-02-15T08:42:08.000Z</time>
</trkpt>
<trkpt lat="45.8543840" lon="9.2332400">
	<ele>945.60</ele>
	<time>2025-02-15T08:42:09.000Z</time>
</trkpt>
<trkpt lat="45.8543840" lon="9.2332390">
	<ele>945.60</ele>
	<time>2025-02-15T08:42:10.000Z</time>
</trkpt>
<trkpt lat="45.8543840" lon="9.2332380">
	<ele>945.60</ele>
	<time>2025-02-15T08:42:11.000Z</time>
</trkpt>
<trkpt lat="45.8543840" lon="9.2332370">
	<ele>945.60</ele>
	<time>2025-02-15T08:42:12.000Z</time>
</trkpt>
<trkpt lat="45.8543840" lon="9.2332370">
	<ele>945.60</ele>
	<time>2025-02-15T08:42:13.000Z</time>
</trkpt>
<trkpt lat="45.8543840" lon="9.2332360">
	<ele>945.60</ele>
	<time>2025-02-15T08:42:14.000Z</time>
</trkpt>
<trkpt lat="45.8543840" lon="9.2332350">
	<ele>945.60</ele>
	<time>2025-02-15T08:42:15.000Z</time>
</trkpt>
<trkpt lat="45.8543840" lon="9.2332350">
	<ele>945.60</ele>
	<time>2025-02-15T08:42:16.000Z</time>
</trkpt>
<trkpt lat="45.8543850" lon="9.2332350">
	<ele>945.60</ele>
	<time>2025-02-15T08:42:17.000Z</time>
</trkpt>
<trkpt lat="45.8543850" lon="9.2332340">
	<ele>945.60</ele>
	<time>2025-02-15T08:42:18.000Z</time>
</trkpt>
<trkpt lat="45.8543850" lon="9.2332340">
	<ele>945.60</ele>
	<time>2025-02-15T08:42:19.000Z</time>
</trkpt>
<trkpt lat="45.8543850" lon="9.2332340">
	<ele>945.60</ele>
	<time>2025-02-15T08:42:20.000Z</time>
</trkpt>
<trkpt lat="45.8543850" lon="9.2332340">
	<ele>945.60</ele>
	<time>2025-02-15T08:42:21.000Z</time>
</trkpt>
<trkpt lat="45.8543850" lon="9.2332340">
	<ele>945.60</ele>
	<time>2025-02-15T08:42:22.000Z</time>
</trkpt>
<trkpt lat="45.8543850" lon="9.2332330">
	<ele>945.60</ele>
	<time>2025-02-15T08:42:23.000Z</time>
</trkpt>
<trkpt lat="45.8543860" lon="9.2332330">
	<ele>945.60</ele>
	<time>2025-02-15T08:42:24.000Z</time>
</trkpt>
<trkpt lat="45.8543860" lon="9.2332330">
	<ele>945.60</ele>
	<time>2025-02-15T08:42:25.000Z</time>
</trkpt>
<trkpt lat="45.8543860" lon="9.2332330">
	<ele>945.60</ele>
	<time>2025-02-15T08:42:26.000Z</time>
</trkpt>
<trkpt lat="45.8543860" lon="9.2332320">
	<ele>945.60</ele>
	<time>2025-02-15T08:42:27.000Z</time>
</trkpt>
<trkpt lat="45.8543860" lon="9.2332320">
	<ele>945.60</ele>
	<time>2025-02-15T08:42:28.000Z</time>
</trkpt>
<trkpt lat="45.8543870" lon="9.2332320">
	<ele>945.60</ele>
	<time>2025-02-15T08:42:29.000Z</time>
</trkpt>
<trkpt lat="45.8543870" lon="9.2332320">
	<ele>945.60</ele>
	<time>2025-02-15T08:42:30.000Z</time>
</trkpt>
<trkpt lat="45.8543870" lon="9.2332320">
	<ele>945.60</ele>
	<time>2025-02-15T08:42:31.000Z</time>
</trkpt>
<trkpt lat="45.8543880" lon="9.2332320">
	<ele>945.60</ele>
	<time>2025-02-15T08:42:32.000Z</time>
</trkpt>
<trkpt lat="45.8543880" lon="9.2332320">
	<ele>945.60</ele>
	<time>2025-02-15T08:42:33.000Z</time>
</trkpt>
<trkpt lat="45.8543880" lon="9.2332320">
	<ele>945.60</ele>
	<time>2025-02-15T08:42:34.000Z</time>
</trkpt>
<trkpt lat="45.8543880" lon="9.2332320">
	<ele>945.60</ele>
	<time>2025-02-15T08:42:35.000Z</time>
</trkpt>
<trkpt lat="45.8543880" lon="9.2332320">
	<ele>945.60</ele>
	<time>2025-02-15T08:42:36.000Z</time>
</trkpt>
<trkpt lat="45.8543890" lon="9.2332320">
	<ele>945.60</ele>
	<time>2025-02-15T08:42:37.000Z</time>
</trkpt>
<trkpt lat="45.8543890" lon="9.2332320">
	<ele>945.60</ele>
	<time>2025-02-15T08:42:38.000Z</time>
</trkpt>
<trkpt lat="45.8543890" lon="9.2332320">
	<ele>945.60</ele>
	<time>2025-02-15T08:42:39.000Z</time>
</trkpt>
<trkpt lat="45.8543890" lon="9.2332310">
	<ele>945.60</ele>
	<time>2025-02-15T08:42:40.000Z</time>
</trkpt>
<trkpt lat="45.8543900" lon="9.2332310">
	<ele>945.60</ele>
	<time>2025-02-15T08:42:41.000Z</time>
</trkpt>
<trkpt lat="45.8543900" lon="9.2332310">
	<ele>945.60</ele>
	<time>2025-02-15T08:42:42.000Z</time>
</trkpt>
<trkpt lat="45.8543900" lon="9.2332310">
	<ele>945.60</ele>
	<time>2025-02-15T08:42:43.000Z</time>
</trkpt>
<trkpt lat="45.8543900" lon="9.2332300">
	<ele>945.60</ele>
	<time>2025-02-15T08:42:44.000Z</time>
</trkpt>
<trkpt lat="45.8543910" lon="9.2332300">
	<ele>945.60</ele>
	<time>2025-02-15T08:42:45.000Z</time>
</trkpt>
<trkpt lat="45.8543910" lon="9.2332300">
	<ele>945.60</ele>
	<time>2025-02-15T08:42:46.000Z</time>
</trkpt>
<trkpt lat="45.8543910" lon="9.2332300">
	<ele>945.60</ele>
	<time>2025-02-15T08:42:47.000Z</time>
</trkpt>
<trkpt lat="45.8543910" lon="9.2332300">
	<ele>945.60</ele>
	<time>2025-02-15T08:42:48.000Z</time>
</trkpt>
<trkpt lat="45.8543910" lon="9.2332300">
	<ele>945.60</ele>
	<time>2025-02-15T08:42:49.000Z</time>
</trkpt>
<trkpt lat="45.8543910" lon="9.2332300">
	<ele>945.60</ele>
	<time>2025-02-15T08:42:50.000Z</time>
</trkpt>
<trkpt lat="45.8543910" lon="9.2332300">
	<ele>945.60</ele>
	<time>2025-02-15T08:42:51.000Z</time>
</trkpt>
<trkpt lat="45.8543920" lon="9.2332300">
	<ele>945.60</ele>
	<time>2025-02-15T08:42:52.000Z</time>
</trkpt>
<trkpt lat="45.8543920" lon="9.2332300">
	<ele>945.60</ele>
	<time>2025-02-15T08:42:53.000Z</time>
</trkpt>
<trkpt lat="45.8543920" lon="9.2332300">
	<ele>945.60</ele>
	<time>2025-02-15T08:42:54.000Z</time>
</trkpt>
<trkpt lat="45.8543920" lon="9.2332300">
	<ele>945.60</ele>
	<time>2025-02-15T08:42:55.000Z</time>
</trkpt>
<trkpt lat="45.8543920" lon="9.2332300">
	<ele>945.60</ele>
	<time>2025-02-15T08:42:56.000Z</time>
</trkpt>
<trkpt lat="45.8543920" lon="9.2332300">
	<ele>945.60</ele>
	<time>2025-02-15T08:42:57.000Z</time>
</trkpt>
<trkpt lat="45.8543920" lon="9.2332300">
	<ele>945.60</ele>
	<time>2025-02-15T08:42:58.000Z</time>
</trkpt>
<trkpt lat="45.8543920" lon="9.2332300">
	<ele>945.60</ele>
	<time>2025-02-15T08:42:59.000Z</time>
</trkpt>
<trkpt lat="45.8543920" lon="9.2332300">
	<ele>945.60</ele>
	<time>2025-02-15T08:43:00.000Z</time>
</trkpt>
<trkpt lat="45.8543920" lon="9.2332300">
	<ele>945.60</ele>
	<time>2025-02-15T08:43:01.000Z</time>
</trkpt>
<trkpt lat="45.8543920" lon="9.2332300">
	<ele>945.60</ele>
	<time>2025-02-15T08:43:02.000Z</time>
</trkpt>
<trkpt lat="45.8543920" lon="9.2332300">
	<ele>945.60</ele>
	<time>2025-02-15T08:43:03.000Z</time>
</trkpt>
<trkpt lat="45.8543920" lon="9.2332300">
	<ele>945.60</ele>
	<time>2025-02-15T08:43:04.000Z</time>
</trkpt>
<trkpt lat="45.8543920" lon="9.2332300">
	<ele>945.60</ele>
	<time>2025-02-15T08:43:05.000Z</time>
</trkpt>
<trkpt lat="45.8543920" lon="9.2332300">
	<ele>945.60</ele>
	<time>2025-02-15T08:43:06.000Z</time>
</trkpt>
<trkpt lat="45.8543920" lon="9.2332300">
	<ele>945.60</ele>
	<time>2025-02-15T08:43:07.000Z</time>
</trkpt>
<trkpt lat="45.8543920" lon="9.2332300">
	<ele>945.60</ele>
	<time>2025-02-15T08:43:08.000Z</time>
</trkpt>
<trkpt lat="45.8543920" lon="9.2332300">
	<ele>945.60</ele>
	<time>2025-02-15T08:43:09.000Z</time>
</trkpt>
<trkpt lat="45.8543920" lon="9.2332300">
	<ele>945.60</ele>
	<time>2025-02-15T08:43:10.000Z</time>
</trkpt>
<trkpt lat="45.8543920" lon="9.2332300">
	<ele>945.60</ele>
	<time>2025-02-15T08:43:11.000Z</time>
</trkpt>
<trkpt lat="45.8543910" lon="9.2332300">
	<ele>945.60</ele>
	<time>2025-02-15T08:43:12.000Z</time>
</trkpt>
<trkpt lat="45.8543910" lon="9.2332300">
	<ele>945.60</ele>
	<time>2025-02-15T08:43:13.000Z</time>
</trkpt>
<trkpt lat="45.8543910" lon="9.2332300">
	<ele>945.60</ele>
	<time>2025-02-15T08:43:14.000Z</time>
</trkpt>
<trkpt lat="45.8543910" lon="9.2332300">
	<ele>945.60</ele>
	<time>2025-02-15T08:43:15.000Z</time>
</trkpt>
<trkpt lat="45.8543910" lon="9.2332300">
	<ele>945.60</ele>
	<time>2025-02-15T08:43:16.000Z</time>
</trkpt>
<trkpt lat="45.8543910" lon="9.2332300">
	<ele>945.60</ele>
	<time>2025-02-15T08:43:17.000Z</time>
</trkpt>
<trkpt lat="45.8543910" lon="9.2332300">
	<ele>945.60</ele>
	<time>2025-02-15T08:43:18.000Z</time>
</trkpt>
<trkpt lat="45.8543910" lon="9.2332300">
	<ele>945.60</ele>
	<time>2025-02-15T08:43:19.000Z</time>
</trkpt>
<trkpt lat="45.8543910" lon="9.2332300">
	<ele>945.60</ele>
	<time>2025-02-15T08:43:20.000Z</time>
</trkpt>
<trkpt lat="45.8543910" lon="9.2332300">
	<ele>945.60</ele>
	<time>2025-02-15T08:43:21.000Z</time>
</trkpt>
<trkpt lat="45.8543910" lon="9.2332300">
	<ele>945.60</ele>
	<time>2025-02-15T08:43:22.000Z</time>
</trkpt>
<trkpt lat="45.8543910" lon="9.2332310">
	<ele>945.60</ele>
	<time>2025-02-15T08:43:23.000Z</time>
</trkpt>
<trkpt lat="45.8543910" lon="9.2332310">
	<ele>945.60</ele>
	<time>2025-02-15T08:43:24.000Z</time>
</trkpt>
<trkpt lat="45.8543910" lon="9.2332310">
	<ele>945.60</ele>
	<time>2025-02-15T08:43:25.000Z</time>
</trkpt>
<trkpt lat="45.8543910" lon="9.2332310">
	<ele>945.60</ele>
	<time>2025-02-15T08:43:26.000Z</time>
</trkpt>
<trkpt lat="45.8543910" lon="9.2332310">
	<ele>945.60</ele>
	<time>2025-02-15T08:43:27.000Z</time>
</trkpt>
<trkpt lat="45.8543910" lon="9.2332310">
	<ele>945.60</ele>
	<time>2025-02-15T08:43:28.000Z</time>
</trkpt>
<trkpt lat="45.8543910" lon="9.2332310">
	<ele>945.60</ele>
	<time>2025-02-15T08:43:29.000Z</time>
</trkpt>
<trkpt lat="45.8543910" lon="9.2332310">
	<ele>945.60</ele>
	<time>2025-02-15T08:43:30.000Z</time>
</trkpt>
<trkpt lat="45.8543910" lon="9.2332310">
	<ele>945.60</ele>
	<time>2025-02-15T08:43:31.000Z</time>
</trkpt>
<trkpt lat="45.8543910" lon="9.2332310">
	<ele>945.60</ele>
	<time>2025-02-15T08:43:32.000Z</time>
</trkpt>
<trkpt lat="45.8543910" lon="9.2332310">
	<ele>945.60</ele>
	<time>2025-02-15T08:43:33.000Z</time>
</trkpt>
<trkpt lat="45.8543910" lon="9.2332310">
	<ele>945.60</ele>
	<time>2025-02-15T08:43:34.000Z</time>
</trkpt>
<trkpt lat="45.8543910" lon="9.2332310">
	<ele>945.60</ele>
	<time>2025-02-15T08:43:35.000Z</time>
</trkpt>
<trkpt lat="45.8543910" lon="9.2332310">
	<ele>945.60</ele>
	<time>2025-02-15T08:43:36.000Z</time>
</trkpt>
<trkpt lat="45.8543910" lon="9.2332310">
	<ele>945.60</ele>
	<time>2025-02-15T08:43:37.000Z</time>
</trkpt>
<trkpt lat="45.8543910" lon="9.2332310">
	<ele>945.60</ele>
	<time>2025-02-15T08:43:38.000Z</time>
</trkpt>
<trkpt lat="45.8543910" lon="9.2332300">
	<ele>945.60</ele>
	<time>2025-02-15T08:43:39.000Z</time>
</trkpt>
<trkpt lat="45.8543910" lon="9.2332300">
	<ele>945.60</ele>
	<time>2025-02-15T08:43:40.000Z</time>
</trkpt>
<trkpt lat="45.8543910" lon="9.2332310">
	<ele>945.60</ele>
	<time>2025-02-15T08:43:41.000Z</time>
</trkpt>
<trkpt lat="45.8543910" lon="9.2332300">
	<ele>945.60</ele>
	<time>2025-02-15T08:43:42.000Z</time>
</trkpt>
<trkpt lat="45.8543910" lon="9.2332310">
	<ele>945.60</ele>
	<time>2025-02-15T08:43:43.000Z</time>
</trkpt>
<trkpt lat="45.8543910" lon="9.2332310">
	<ele>945.60</ele>
	<time>2025-02-15T08:43:44.000Z</time>
</trkpt>
<trkpt lat="45.8543910" lon="9.2332300">
	<ele>945.60</ele>
	<time>2025-02-15T08:43:45.000Z</time>
</trkpt>
<trkpt lat="45.8543910" lon="9.2332300">
	<ele>945.60</ele>
	<time>2025-02-15T08:43:46.000Z</time>
</trkpt>
<trkpt lat="45.8543910" lon="9.2332300">
	<ele>945.60</ele>
	<time>2025-02-15T08:43:47.000Z</time>
</trkpt>
<trkpt lat="45.8543910" lon="9.2332300">
	<ele>945.60</ele>
	<time>2025-02-15T08:43:48.000Z</time>
</trkpt>
<trkpt lat="45.8543910" lon="9.2332300">
	<ele>945.60</ele>
	<time>2025-02-15T08:43:49.000Z</time>
</trkpt>
<trkpt lat="45.8543910" lon="9.2332300">
	<ele>945.60</ele>
	<time>2025-02-15T08:43:50.000Z</time>
</trkpt>
<trkpt lat="45.8543910" lon="9.2332300">
	<ele>945.60</ele>
	<time>2025-02-15T08:43:51.000Z</time>
</trkpt>
<trkpt lat="45.8543910" lon="9.2332300">
	<ele>945.60</ele>
	<time>2025-02-15T08:43:52.000Z</time>
</trkpt>
<trkpt lat="45.8543910" lon="9.2332310">
	<ele>945.60</ele>
	<time>2025-02-15T08:43:53.000Z</time>
</trkpt>
<trkpt lat="45.8543910" lon="9.2332310">
	<ele>945.60</ele>
	<time>2025-02-15T08:43:54.000Z</time>
</trkpt>
<trkpt lat="45.8543910" lon="9.2332310">
	<ele>945.60</ele>
	<time>2025-02-15T08:43:55.000Z</time>
</trkpt>
<trkpt lat="45.8543910" lon="9.2332310">
	<ele>945.60</ele>
	<time>2025-02-15T08:43:56.000Z</time>
</trkpt>
<trkpt lat="45.8543910" lon="9.2332310">
	<ele>945.60</ele>
	<time>2025-02-15T08:43:57.000Z</time>
</trkpt>
<trkpt lat="45.8543910" lon="9.2332310">
	<ele>945.60</ele>
	<time>2025-02-15T08:43:58.000Z</time>
</trkpt>
<trkpt lat="45.8543910" lon="9.2332310">
	<ele>945.60</ele>
	<time>2025-02-15T08:43:59.000Z</time>
</trkpt>
<trkpt lat="45.8543910" lon="9.2332310">
	<ele>945.60</ele>
	<time>2025-02-15T08:44:00.000Z</time>
</trkpt>
<trkpt lat="45.8543910" lon="9.2332310">
	<ele>945.60</ele>
	<time>2025-02-15T08:44:01.000Z</time>
</trkpt>
<trkpt lat="45.8543910" lon="9.2332310">
	<ele>945.60</ele>
	<time>2025-02-15T08:44:02.000Z</time>
</trkpt>
<trkpt lat="45.8543910" lon="9.2332300">
	<ele>945.60</ele>
	<time>2025-02-15T08:44:03.000Z</time>
</trkpt>
<trkpt lat="45.8543910" lon="9.2332300">
	<ele>945.60</ele>
	<time>2025-02-15T08:44:04.000Z</time>
</trkpt>
<trkpt lat="45.8543910" lon="9.2332300">
	<ele>945.60</ele>
	<time>2025-02-15T08:44:05.000Z</time>
</trkpt>
<trkpt lat="45.8543910" lon="9.2332300">
	<ele>945.60</ele>
	<time>2025-02-15T08:44:06.000Z</time>
</trkpt>
<trkpt lat="45.8543910" lon="9.2332300">
	<ele>945.60</ele>
	<time>2025-02-15T08:44:07.000Z</time>
</trkpt>
<trkpt lat="45.8543910" lon="9.2332300">
	<ele>945.60</ele>
	<time>2025-02-15T08:44:08.000Z</time>
</trkpt>
<trkpt lat="45.8543910" lon="9.2332300">
	<ele>945.60</ele>
	<time>2025-02-15T08:44:09.000Z</time>
</trkpt>
<trkpt lat="45.8543910" lon="9.2332290">
	<ele>945.60</ele>
	<time>2025-02-15T08:44:10.000Z</time>
</trkpt>
<trkpt lat="45.8543910" lon="9.2332290">
	<ele>945.60</ele>
	<time>2025-02-15T08:44:11.000Z</time>
</trkpt>
<trkpt lat="45.8543910" lon="9.2332290">
	<ele>945.60</ele>
	<time>2025-02-15T08:44:12.000Z</time>
</trkpt>
<trkpt lat="45.8543900" lon="9.2332290">
	<ele>945.60</ele>
	<time>2025-02-15T08:44:13.000Z</time>
</trkpt>
<trkpt lat="45.8543900" lon="9.2332290">
	<ele>945.60</ele>
	<time>2025-02-15T08:44:14.000Z</time>
</trkpt>
<trkpt lat="45.8543910" lon="9.2332290">
	<ele>945.60</ele>
	<time>2025-02-15T08:44:15.000Z</time>
</trkpt>
<trkpt lat="45.8543910" lon="9.2332290">
	<ele>945.60</ele>
	<time>2025-02-15T08:44:16.000Z</time>
</trkpt>
<trkpt lat="45.8543910" lon="9.2332290">
	<ele>945.60</ele>
	<time>2025-02-15T08:44:17.000Z</time>
</trkpt>
<trkpt lat="45.8543910" lon="9.2332290">
	<ele>945.60</ele>
	<time>2025-02-15T08:44:18.000Z</time>
</trkpt>
<trkpt lat="45.8543910" lon="9.2332290">
	<ele>945.60</ele>
	<time>2025-02-15T08:44:19.000Z</time>
</trkpt>
<trkpt lat="45.8543900" lon="9.2332290">
	<ele>945.60</ele>
	<time>2025-02-15T08:44:20.000Z</time>
</trkpt>
<trkpt lat="45.8543900" lon="9.2332290">
	<ele>945.60</ele>
	<time>2025-02-15T08:44:21.000Z</time>
</trkpt>
<trkpt lat="45.8543900" lon="9.2332290">
	<ele>945.60</ele>
	<time>2025-02-15T08:44:22.000Z</time>
</trkpt>
<trkpt lat="45.8543900" lon="9.2332290">
	<ele>945.60</ele>
	<time>2025-02-15T08:44:23.000Z</time>
</trkpt>
<trkpt lat="45.8543900" lon="9.2332290">
	<ele>945.60</ele>
	<time>2025-02-15T08:44:24.000Z</time>
</trkpt>
<trkpt lat="45.8543900" lon="9.2332290">
	<ele>945.60</ele>
	<time>2025-02-15T08:44:25.000Z</time>
</trkpt>
<trkpt lat="45.8543900" lon="9.2332290">
	<ele>945.60</ele>
	<time>2025-02-15T08:44:26.000Z</time>
</trkpt>
<trkpt lat="45.8543900" lon="9.2332290">
	<ele>945.60</ele>
	<time>2025-02-15T08:44:27.000Z</time>
</trkpt>
<trkpt lat="45.8543900" lon="9.2332290">
	<ele>945.60</ele>
	<time>2025-02-15T08:44:28.000Z</time>
</trkpt>
<trkpt lat="45.8543900" lon="9.2332290">
	<ele>945.60</ele>
	<time>2025-02-15T08:44:29.000Z</time>
</trkpt>
<trkpt lat="45.8543900" lon="9.2332290">
	<ele>945.60</ele>
	<time>2025-02-15T08:44:30.000Z</time>
</trkpt>
<trkpt lat="45.8543900" lon="9.2332290">
	<ele>945.60</ele>
	<time>2025-02-15T08:44:31.000Z</time>
</trkpt>
<trkpt lat="45.8543900" lon="9.2332290">
	<ele>945.60</ele>
	<time>2025-02-15T08:44:32.000Z</time>
</trkpt>
<trkpt lat="45.8543900" lon="9.2332290">
	<ele>945.60</ele>
	<time>2025-02-15T08:44:33.000Z</time>
</trkpt>
<trkpt lat="45.8543910" lon="9.2332290">
	<ele>945.60</ele>
	<time>2025-02-15T08:44:34.000Z</time>
</trkpt>
<trkpt lat="45.8543910" lon="9.2332290">
	<ele>945.60</ele>
	<time>2025-02-15T08:44:35.000Z</time>
</trkpt>
<trkpt lat="45.8543910" lon="9.2332290">
	<ele>945.60</ele>
	<time>2025-02-15T08:44:36.000Z</time>
</trkpt>
<trkpt lat="45.8543900" lon="9.2332290">
	<ele>945.60</ele>
	<time>2025-02-15T08:44:37.000Z</time>
</trkpt>
<trkpt lat="45.8543900" lon="9.2332290">
	<ele>945.60</ele>
	<time>2025-02-15T08:44:38.000Z</time>
</trkpt>
<trkpt lat="45.8543900" lon="9.2332290">
	<ele>945.60</ele>
	<time>2025-02-15T08:44:39.000Z</time>
</trkpt>
<trkpt lat="45.8543900" lon="9.2332290">
	<ele>945.60</ele>
	<time>2025-02-15T08:44:40.000Z</time>
</trkpt>
<trkpt lat="45.8543900" lon="9.2332290">
	<ele>945.60</ele>
	<time>2025-02-15T08:44:41.000Z</time>
</trkpt>
<trkpt lat="45.8543900" lon="9.2332290">
	<ele>945.60</ele>
	<time>2025-02-15T08:44:42.000Z</time>
</trkpt>
<trkpt lat="45.8543900" lon="9.2332290">
	<ele>945.60</ele>
	<time>2025-02-15T08:44:43.000Z</time>
</trkpt>
<trkpt lat="45.8543900" lon="9.2332290">
	<ele>945.60</ele>
	<time>2025-02-15T08:44:44.000Z</time>
</trkpt>
<trkpt lat="45.8543900" lon="9.2332290">
	<ele>945.60</ele>
	<time>2025-02-15T08:44:45.000Z</time>
</trkpt>
<trkpt lat="45.8543900" lon="9.2332290">
	<ele>945.60</ele>
	<time>2025-02-15T08:44:46.000Z</time>
</trkpt>
<trkpt lat="45.8543900" lon="9.2332290">
	<ele>945.60</ele>
	<time>2025-02-15T08:44:47.000Z</time>
</trkpt>
<trkpt lat="45.8543900" lon="9.2332280">
	<ele>945.60</ele>
	<time>2025-02-15T08:44:48.000Z</time>
</trkpt>
<trkpt lat="45.8543900" lon="9.2332290">
	<ele>945.60</ele>
	<time>2025-02-15T08:44:49.000Z</time>
</trkpt>
<trkpt lat="45.8543900" lon="9.2332280">
	<ele>945.60</ele>
	<time>2025-02-15T08:44:50.000Z</time>
</trkpt>
<trkpt lat="45.8543900" lon="9.2332280">
	<ele>945.60</ele>
	<time>2025-02-15T08:44:51.000Z</time>
</trkpt>
<trkpt lat="45.8543900" lon="9.2332280">
	<ele>945.60</ele>
	<time>2025-02-15T08:44:52.000Z</time>
</trkpt>
<trkpt lat="45.8543900" lon="9.2332280">
	<ele>945.60</ele>
	<time>2025-02-15T08:44:53.000Z</time>
</trkpt>
<trkpt lat="45.8543900" lon="9.2332280">
	<ele>945.60</ele>
	<time>2025-02-15T08:44:54.000Z</time>
</trkpt>
<trkpt lat="45.8543900" lon="9.2332280">
	<ele>945.60</ele>
	<time>2025-02-15T08:44:55.000Z</time>
</trkpt>
<trkpt lat="45.8543900" lon="9.2332280">
	<ele>945.60</ele>
	<time>2025-02-15T08:44:56.000Z</time>
</trkpt>
<trkpt lat="45.8543900" lon="9.2332280">
	<ele>945.60</ele>
	<time>2025-02-15T08:44:57.000Z</time>
</trkpt>
<trkpt lat="45.8543900" lon="9.2332280">
	<ele>945.60</ele>
	<time>2025-02-15T08:44:58.000Z</time>
</trkpt>
<trkpt lat="45.8543900" lon="9.2332280">
	<ele>945.60</ele>
	<time>2025-02-15T08:44:59.000Z</time>
</trkpt>
<trkpt lat="45.8543900" lon="9.2332280">
	<ele>945.60</ele>
	<time>2025-02-15T08:45:00.000Z</time>
</trkpt>
<trkpt lat="45.8543900" lon="9.2332280">
	<ele>945.60</ele>
	<time>2025-02-15T08:45:01.000Z</time>
</trkpt>
<trkpt lat="45.8543900" lon="9.2332280">
	<ele>945.60</ele>
	<time>2025-02-15T08:45:02.000Z</time>
</trkpt>
<trkpt lat="45.8543900" lon="9.2332280">
	<ele>945.60</ele>
	<time>2025-02-15T08:45:03.000Z</time>
</trkpt>
<trkpt lat="45.8543900" lon="9.2332280">
	<ele>945.60</ele>
	<time>2025-02-15T08:45:04.000Z</time>
</trkpt>
<trkpt lat="45.8543900" lon="9.2332280">
	<ele>945.60</ele>
	<time>2025-02-15T08:45:05.000Z</time>
</trkpt>
<trkpt lat="45.8543900" lon="9.2332290">
	<ele>945.60</ele>
	<time>2025-02-15T08:45:06.000Z</time>
</trkpt>
<trkpt lat="45.8543900" lon="9.2332290">
	<ele>945.60</ele>
	<time>2025-02-15T08:45:07.000Z</time>
</trkpt>
<trkpt lat="45.8543910" lon="9.2332290">
	<ele>945.60</ele>
	<time>2025-02-15T08:45:08.000Z</time>
</trkpt>
<trkpt lat="45.8543910" lon="9.2332290">
	<ele>945.60</ele>
	<time>2025-02-15T08:45:09.000Z</time>
</trkpt>
<trkpt lat="45.8543910" lon="9.2332290">
	<ele>945.60</ele>
	<time>2025-02-15T08:45:10.000Z</time>
</trkpt>
<trkpt lat="45.8543910" lon="9.2332290">
	<ele>945.60</ele>
	<time>2025-02-15T08:45:11.000Z</time>
</trkpt>
<trkpt lat="45.8543910" lon="9.2332290">
	<ele>945.60</ele>
	<time>2025-02-15T08:45:12.000Z</time>
</trkpt>
<trkpt lat="45.8543910" lon="9.2332300">
	<ele>945.60</ele>
	<time>2025-02-15T08:45:13.000Z</time>
</trkpt>
<trkpt lat="45.8543910" lon="9.2332300">
	<ele>945.60</ele>
	<time>2025-02-15T08:45:14.000Z</time>
</trkpt>
<trkpt lat="45.8543910" lon="9.2332300">
	<ele>945.60</ele>
	<time>2025-02-15T08:45:15.000Z</time>
</trkpt>
<trkpt lat="45.8543910" lon="9.2332300">
	<ele>945.60</ele>
	<time>2025-02-15T08:45:16.000Z</time>
</trkpt>
<trkpt lat="45.8543910" lon="9.2332300">
	<ele>945.60</ele>
	<time>2025-02-15T08:45:17.000Z</time>
</trkpt>
<trkpt lat="45.8543910" lon="9.2332300">
	<ele>945.60</ele>
	<time>2025-02-15T08:45:18.000Z</time>
</trkpt>
<trkpt lat="45.8543910" lon="9.2332310">
	<ele>945.60</ele>
	<time>2025-02-15T08:45:19.000Z</time>
</trkpt>
<trkpt lat="45.8543910" lon="9.2332310">
	<ele>945.60</ele>
	<time>2025-02-15T08:45:20.000Z</time>
</trkpt>
<trkpt lat="45.8543910" lon="9.2332310">
	<ele>945.60</ele>
	<time>2025-02-15T08:45:21.000Z</time>
</trkpt>
<trkpt lat="45.8543910" lon="9.2332310">
	<ele>945.60</ele>
	<time>2025-02-15T08:45:22.000Z</time>
</trkpt>
<trkpt lat="45.8543910" lon="9.2332310">
	<ele>945.60</ele>
	<time>2025-02-15T08:45:23.000Z</time>
</trkpt>
<trkpt lat="45.8543910" lon="9.2332310">
	<ele>945.60</ele>
	<time>2025-02-15T08:45:24.000Z</time>
</trkpt>
<trkpt lat="45.8543910" lon="9.2332310">
	<ele>945.60</ele>
	<time>2025-02-15T08:45:25.000Z</time>
</trkpt>
<trkpt lat="45.8543910" lon="9.2332310">
	<ele>945.60</ele>
	<time>2025-02-15T08:45:26.000Z</time>
</trkpt>
<trkpt lat="45.8543910" lon="9.2332310">
	<ele>945.60</ele>
	<time>2025-02-15T08:45:27.000Z</time>
</trkpt>
<trkpt lat="45.8543910" lon="9.2332310">
	<ele>945.60</ele>
	<time>2025-02-15T08:45:28.000Z</time>
</trkpt>
<trkpt lat="45.8543920" lon="9.2332320">
	<ele>945.60</ele>
	<time>2025-02-15T08:45:29.000Z</time>
</trkpt>
<trkpt lat="45.8543920" lon="9.2332320">
	<ele>945.60</ele>
	<time>2025-02-15T08:45:30.000Z</time>
</trkpt>
<trkpt lat="45.8543920" lon="9.2332320">
	<ele>945.60</ele>
	<time>2025-02-15T08:45:31.000Z</time>
</trkpt>
<trkpt lat="45.8543920" lon="9.2332320">
	<ele>945.60</ele>
	<time>2025-02-15T08:45:32.000Z</time>
</trkpt>
<trkpt lat="45.8543920" lon="9.2332320">
	<ele>945.60</ele>
	<time>2025-02-15T08:45:33.000Z</time>
</trkpt>
<trkpt lat="45.8543920" lon="9.2332320">
	<ele>945.60</ele>
	<time>2025-02-15T08:45:34.000Z</time>
</trkpt>
<trkpt lat="45.8543920" lon="9.2332320">
	<ele>945.60</ele>
	<time>2025-02-15T08:45:35.000Z</time>
</trkpt>
<trkpt lat="45.8543920" lon="9.2332320">
	<ele>945.60</ele>
	<time>2025-02-15T08:45:36.000Z</time>
</trkpt>
<trkpt lat="45.8543920" lon="9.2332320">
	<ele>945.60</ele>
	<time>2025-02-15T08:45:37.000Z</time>
</trkpt>
<trkpt lat="45.8543920" lon="9.2332320">
	<ele>945.60</ele>
	<time>2025-02-15T08:45:38.000Z</time>
</trkpt>
<trkpt lat="45.8543920" lon="9.2332330">
	<ele>945.60</ele>
	<time>2025-02-15T08:45:39.000Z</time>
</trkpt>
<trkpt lat="45.8543920" lon="9.2332330">
	<ele>945.60</ele>
	<time>2025-02-15T08:45:40.000Z</time>
</trkpt>
<trkpt lat="45.8543930" lon="9.2332330">
	<ele>945.60</ele>
	<time>2025-02-15T08:45:41.000Z</time>
</trkpt>
<trkpt lat="45.8543930" lon="9.2332330">
	<ele>945.60</ele>
	<time>2025-02-15T08:45:42.000Z</time>
</trkpt>
<trkpt lat="45.8543930" lon="9.2332330">
	<ele>945.60</ele>
	<time>2025-02-15T08:45:43.000Z</time>
</trkpt>
<trkpt lat="45.8543930" lon="9.2332330">
	<ele>945.60</ele>
	<time>2025-02-15T08:45:44.000Z</time>
</trkpt>
<trkpt lat="45.8543930" lon="9.2332330">
	<ele>945.60</ele>
	<time>2025-02-15T08:45:45.000Z</time>
</trkpt>
<trkpt lat="45.8543930" lon="9.2332330">
	<ele>945.60</ele>
	<time>2025-02-15T08:45:46.000Z</time>
</trkpt>
<trkpt lat="45.8543930" lon="9.2332330">
	<ele>945.60</ele>
	<time>2025-02-15T08:45:47.000Z</time>
</trkpt>
<trkpt lat="45.8543930" lon="9.2332330">
	<ele>945.60</ele>
	<time>2025-02-15T08:45:48.000Z</time>
</trkpt>
<trkpt lat="45.8543930" lon="9.2332330">
	<ele>945.60</ele>
	<time>2025-02-15T08:45:49.000Z</time>
</trkpt>
<trkpt lat="45.8543930" lon="9.2332340">
	<ele>945.60</ele>
	<time>2025-02-15T08:45:50.000Z</time>
</trkpt>
<trkpt lat="45.8543930" lon="9.2332340">
	<ele>945.60</ele>
	<time>2025-02-15T08:45:51.000Z</time>
</trkpt>
<trkpt lat="45.8543930" lon="9.2332340">
	<ele>945.60</ele>
	<time>2025-02-15T08:45:52.000Z</time>
</trkpt>
<trkpt lat="45.8543930" lon="9.2332340">
	<ele>945.60</ele>
	<time>2025-02-15T08:45:53.000Z</time>
</trkpt>
<trkpt lat="45.8543930" lon="9.2332340">
	<ele>945.60</ele>
	<time>2025-02-15T08:45:54.000Z</time>
</trkpt>
<trkpt lat="45.8543930" lon="9.2332340">
	<ele>945.60</ele>
	<time>2025-02-15T08:45:55.000Z</time>
</trkpt>
<trkpt lat="45.8543930" lon="9.2332340">
	<ele>945.60</ele>
	<time>2025-02-15T08:45:56.000Z</time>
</trkpt>
<trkpt lat="45.8543930" lon="9.2332340">
	<ele>945.60</ele>
	<time>2025-02-15T08:45:57.000Z</time>
</trkpt>
<trkpt lat="45.8543930" lon="9.2332340">
	<ele>945.60</ele>
	<time>2025-02-15T08:45:58.000Z</time>
</trkpt>
<trkpt lat="45.8543930" lon="9.2332340">
	<ele>945.60</ele>
	<time>2025-02-15T08:45:59.000Z</time>
</trkpt>
<trkpt lat="45.8543930" lon="9.2332340">
	<ele>945.60</ele>
	<time>2025-02-15T08:46:00.000Z</time>
</trkpt>
<trkpt lat="45.8543940" lon="9.2332340">
	<ele>945.60</ele>
	<time>2025-02-15T08:46:01.000Z</time>
</trkpt>
<trkpt lat="45.8543940" lon="9.2332340">
	<ele>945.60</ele>
	<time>2025-02-15T08:46:02.000Z</time>
</trkpt>
<trkpt lat="45.8543940" lon="9.2332340">
	<ele>945.60</ele>
	<time>2025-02-15T08:46:03.000Z</time>
</trkpt>
<trkpt lat="45.8543940" lon="9.2332340">
	<ele>945.60</ele>
	<time>2025-02-15T08:46:04.000Z</time>
</trkpt>
<trkpt lat="45.8543940" lon="9.2332340">
	<ele>945.60</ele>
	<time>2025-02-15T08:46:05.000Z</time>
</trkpt>
<trkpt lat="45.8543940" lon="9.2332340">
	<ele>945.60</ele>
	<time>2025-02-15T08:46:06.000Z</time>
</trkpt>
<trkpt lat="45.8543940" lon="9.2332350">
	<ele>945.60</ele>
	<time>2025-02-15T08:46:07.000Z</time>
</trkpt>
<trkpt lat="45.8543940" lon="9.2332350">
	<ele>945.60</ele>
	<time>2025-02-15T08:46:08.000Z</time>
</trkpt>
<trkpt lat="45.8543940" lon="9.2332350">
	<ele>945.60</ele>
	<time>2025-02-15T08:46:09.000Z</time>
</trkpt>
<trkpt lat="45.8543940" lon="9.2332350">
	<ele>945.60</ele>
	<time>2025-02-15T08:46:10.000Z</time>
</trkpt>
<trkpt lat="45.8543940" lon="9.2332350">
	<ele>945.60</ele>
	<time>2025-02-15T08:46:11.000Z</time>
</trkpt>
<trkpt lat="45.8543940" lon="9.2332350">
	<ele>945.60</ele>
	<time>2025-02-15T08:46:12.000Z</time>
</trkpt>
<trkpt lat="45.8543940" lon="9.2332350">
	<ele>945.60</ele>
	<time>2025-02-15T08:46:13.000Z</time>
</trkpt>
<trkpt lat="45.8543950" lon="9.2332350">
	<ele>945.60</ele>
	<time>2025-02-15T08:46:14.000Z</time>
</trkpt>
<trkpt lat="45.8543950" lon="9.2332350">
	<ele>945.60</ele>
	<time>2025-02-15T08:46:15.000Z</time>
</trkpt>
<trkpt lat="45.8543950" lon="9.2332350">
	<ele>945.60</ele>
	<time>2025-02-15T08:46:16.000Z</time>
</trkpt>
<trkpt lat="45.8543950" lon="9.2332350">
	<ele>945.60</ele>
	<time>2025-02-15T08:46:17.000Z</time>
</trkpt>
<trkpt lat="45.8543950" lon="9.2332350">
	<ele>945.60</ele>
	<time>2025-02-15T08:46:18.000Z</time>
</trkpt>
<trkpt lat="45.8543950" lon="9.2332350">
	<ele>945.60</ele>
	<time>2025-02-15T08:46:19.000Z</time>
</trkpt>
<trkpt lat="45.8543950" lon="9.2332350">
	<ele>945.60</ele>
	<time>2025-02-15T08:46:20.000Z</time>
</trkpt>
<trkpt lat="45.8543950" lon="9.2332350">
	<ele>945.60</ele>
	<time>2025-02-15T08:46:21.000Z</time>
</trkpt>
<trkpt lat="45.8543950" lon="9.2332350">
	<ele>945.60</ele>
	<time>2025-02-15T08:46:22.000Z</time>
</trkpt>
<trkpt lat="45.8543950" lon="9.2332350">
	<ele>945.60</ele>
	<time>2025-02-15T08:46:23.000Z</time>
</trkpt>
<trkpt lat="45.8543950" lon="9.2332350">
	<ele>945.60</ele>
	<time>2025-02-15T08:46:24.000Z</time>
</trkpt>
<trkpt lat="45.8543950" lon="9.2332350">
	<ele>945.60</ele>
	<time>2025-02-15T08:46:25.000Z</time>
</trkpt>
<trkpt lat="45.8543950" lon="9.2332350">
	<ele>945.60</ele>
	<time>2025-02-15T08:46:26.000Z</time>
</trkpt>
<trkpt lat="45.8543950" lon="9.2332350">
	<ele>945.60</ele>
	<time>2025-02-15T08:46:27.000Z</time>
</trkpt>
<trkpt lat="45.8543950" lon="9.2332360">
	<ele>945.60</ele>
	<time>2025-02-15T08:46:28.000Z</time>
</trkpt>
<trkpt lat="45.8543950" lon="9.2332360">
	<ele>945.60</ele>
	<time>2025-02-15T08:46:29.000Z</time>
</trkpt>
<trkpt lat="45.8543950" lon="9.2332360">
	<ele>945.60</ele>
	<time>2025-02-15T08:46:30.000Z</time>
</trkpt>
<trkpt lat="45.8543950" lon="9.2332360">
	<ele>945.60</ele>
	<time>2025-02-15T08:46:31.000Z</time>
</trkpt>
<trkpt lat="45.8543960" lon="9.2332360">
	<ele>945.60</ele>
	<time>2025-02-15T08:46:32.000Z</time>
</trkpt>
<trkpt lat="45.8543960" lon="9.2332360">
	<ele>945.60</ele>
	<time>2025-02-15T08:46:33.000Z</time>
</trkpt>
<trkpt lat="45.8543960" lon="9.2332360">
	<ele>945.60</ele>
	<time>2025-02-15T08:46:34.000Z</time>
</trkpt>
<trkpt lat="45.8543960" lon="9.2332360">
	<ele>945.60</ele>
	<time>2025-02-15T08:46:35.000Z</time>
</trkpt>
<trkpt lat="45.8543960" lon="9.2332360">
	<ele>945.60</ele>
	<time>2025-02-15T08:46:36.000Z</time>
</trkpt>
<trkpt lat="45.8543960" lon="9.2332360">
	<ele>945.60</ele>
	<time>2025-02-15T08:46:37.000Z</time>
</trkpt>
<trkpt lat="45.8543960" lon="9.2332360">
	<ele>945.60</ele>
	<time>2025-02-15T08:46:38.000Z</time>
</trkpt>
<trkpt lat="45.8543960" lon="9.2332360">
	<ele>945.60</ele>
	<time>2025-02-15T08:46:39.000Z</time>
</trkpt>
<trkpt lat="45.8543960" lon="9.2332360">
	<ele>945.60</ele>
	<time>2025-02-15T08:46:40.000Z</time>
</trkpt>
<trkpt lat="45.8543960" lon="9.2332370">
	<ele>945.60</ele>
	<time>2025-02-15T08:46:41.000Z</time>
</trkpt>
<trkpt lat="45.8543960" lon="9.2332370">
	<ele>945.60</ele>
	<time>2025-02-15T08:46:42.000Z</time>
</trkpt>
<trkpt lat="45.8543970" lon="9.2332370">
	<ele>945.60</ele>
	<time>2025-02-15T08:46:43.000Z</time>
</trkpt>
<trkpt lat="45.8543970" lon="9.2332370">
	<ele>945.60</ele>
	<time>2025-02-15T08:46:44.000Z</time>
</trkpt>
<trkpt lat="45.8543970" lon="9.2332370">
	<ele>945.60</ele>
	<time>2025-02-15T08:46:45.000Z</time>
</trkpt>
<trkpt lat="45.8543970" lon="9.2332370">
	<ele>945.60</ele>
	<time>2025-02-15T08:46:46.000Z</time>
</trkpt>
<trkpt lat="45.8543970" lon="9.2332370">
	<ele>945.60</ele>
	<time>2025-02-15T08:46:47.000Z</time>
</trkpt>
<trkpt lat="45.8543970" lon="9.2332370">
	<ele>945.60</ele>
	<time>2025-02-15T08:46:48.000Z</time>
</trkpt>
<trkpt lat="45.8543970" lon="9.2332370">
	<ele>945.60</ele>
	<time>2025-02-15T08:46:49.000Z</time>
</trkpt>
<trkpt lat="45.8543970" lon="9.2332370">
	<ele>945.60</ele>
	<time>2025-02-15T08:46:50.000Z</time>
</trkpt>
<trkpt lat="45.8543970" lon="9.2332380">
	<ele>945.60</ele>
	<time>2025-02-15T08:46:51.000Z</time>
</trkpt>
<trkpt lat="45.8543970" lon="9.2332380">
	<ele>945.60</ele>
	<time>2025-02-15T08:46:52.000Z</time>
</trkpt>
<trkpt lat="45.8544090" lon="9.2332440">
	<ele>945.60</ele>
	<time>2025-02-15T08:46:53.000Z</time>
</trkpt>
<trkpt lat="45.8544280" lon="9.2332450">
	<ele>945.60</ele>
	<time>2025-02-15T08:46:54.000Z</time>
</trkpt>
<trkpt lat="45.8544530" lon="9.2332440">
	<ele>945.60</ele>
	<time>2025-02-15T08:46:55.000Z</time>
</trkpt>
<trkpt lat="45.8544760" lon="9.2332470">
	<ele>945.60</ele>
	<time>2025-02-15T08:46:56.000Z</time>
</trkpt>
<trkpt lat="45.8545010" lon="9.2332490">
	<ele>945.60</ele>
	<time>2025-02-15T08:46:57.000Z</time>
</trkpt>
<trkpt lat="45.8545180" lon="9.2332510">
	<ele>945.60</ele>
	<time>2025-02-15T08:46:58.000Z</time>
</trkpt>
<trkpt lat="45.8545380" lon="9.2332520">
	<ele>945.60</ele>
	<time>2025-02-15T08:46:59.000Z</time>
</trkpt>
<trkpt lat="45.8545570" lon="9.2332530">
	<ele>945.60</ele>
	<time>2025-02-15T08:47:00.000Z</time>
</trkpt>
<trkpt lat="45.8545730" lon="9.2332560">
	<ele>945.60</ele>
	<time>2025-02-15T08:47:01.000Z</time>
</trkpt>
<trkpt lat="45.8545870" lon="9.2332620">
	<ele>945.60</ele>
	<time>2025-02-15T08:47:02.000Z</time>
</trkpt>
<trkpt lat="45.8545900" lon="9.2332650">
	<ele>945.60</ele>
	<time>2025-02-15T08:47:03.000Z</time>
</trkpt>
<trkpt lat="45.8545960" lon="9.2332660">
	<ele>945.60</ele>
	<time>2025-02-15T08:47:04.000Z</time>
</trkpt>
<trkpt lat="45.8546050" lon="9.2332680">
	<ele>945.80</ele>
	<time>2025-02-15T08:47:05.000Z</time>
</trkpt>
<trkpt lat="45.8546190" lon="9.2332610">
	<ele>945.80</ele>
	<time>2025-02-15T08:47:06.000Z</time>
</trkpt>
<trkpt lat="45.8546310" lon="9.2332550">
	<ele>945.80</ele>
	<time>2025-02-15T08:47:07.000Z</time>
</trkpt>
<trkpt lat="45.8546400" lon="9.2332540">
	<ele>945.80</ele>
	<time>2025-02-15T08:47:08.000Z</time>
</trkpt>
<trkpt lat="45.8546470" lon="9.2332540">
	<ele>945.80</ele>
	<time>2025-02-15T08:47:09.000Z</time>
</trkpt>
<trkpt lat="45.8546510" lon="9.2332510">
	<ele>945.80</ele>
	<time>2025-02-15T08:47:10.000Z</time>
</trkpt>
<trkpt lat="45.8546550" lon="9.2332510">
	<ele>946.00</ele>
	<time>2025-02-15T08:47:11.000Z</time>
</trkpt>
<trkpt lat="45.8546620" lon="9.2332480">
	<ele>946.00</ele>
	<time>2025-02-15T08:47:12.000Z</time>
</trkpt>
<trkpt lat="45.8546670" lon="9.2332460">
	<ele>946.00</ele>
	<time>2025-02-15T08:47:13.000Z</time>
</trkpt>
<trkpt lat="45.8546670" lon="9.2332500">
	<ele>946.20</ele>
	<time>2025-02-15T08:47:14.000Z</time>
</trkpt>
<trkpt lat="45.8546730" lon="9.2332540">
	<ele>946.40</ele>
	<time>2025-02-15T08:47:15.000Z</time>
</trkpt>
<trkpt lat="45.8546800" lon="9.2332580">
	<ele>946.40</ele>
	<time>2025-02-15T08:47:16.000Z</time>
</trkpt>
<trkpt lat="45.8546840" lon="9.2332660">
	<ele>946.40</ele>
	<time>2025-02-15T08:47:17.000Z</time>
</trkpt>
<trkpt lat="45.8546890" lon="9.2332670">
	<ele>946.60</ele>
	<time>2025-02-15T08:47:18.000Z</time>
</trkpt>
<trkpt lat="45.8546930" lon="9.2332720">
	<ele>946.60</ele>
	<time>2025-02-15T08:47:19.000Z</time>
</trkpt>
<trkpt lat="45.8546970" lon="9.2332700">
	<ele>946.80</ele>
	<time>2025-02-15T08:47:20.000Z</time>
</trkpt>
<trkpt lat="45.8547020" lon="9.2332710">
	<ele>946.80</ele>
	<time>2025-02-15T08:47:21.000Z</time>
</trkpt>
<trkpt lat="45.8547090" lon="9.2332710">
	<ele>946.80</ele>
	<time>2025-02-15T08:47:22.000Z</time>
</trkpt>
<trkpt lat="45.8547150" lon="9.2332730">
	<ele>946.80</ele>
	<time>2025-02-15T08:47:23.000Z</time>
</trkpt>
<trkpt lat="45.8547240" lon="9.2332750">
	<ele>947.00</ele>
	<time>2025-02-15T08:47:24.000Z</time>
</trkpt>
<trkpt lat="45.8547300" lon="9.2332770">
	<ele>947.00</ele>
	<time>2025-02-15T08:47:25.000Z</time>
</trkpt>
<trkpt lat="45.8547410" lon="9.2332680">
	<ele>947.00</ele>
	<time>2025-02-15T08:47:26.000Z</time>
</trkpt>
<trkpt lat="45.8547500" lon="9.2332620">
	<ele>947.20</ele>
	<time>2025-02-15T08:47:27.000Z</time>
</trkpt>
<trkpt lat="45.8547570" lon="9.2332600">
	<ele>947.20</ele>
	<time>2025-02-15T08:47:28.000Z</time>
</trkpt>
<trkpt lat="45.8547640" lon="9.2332580">
	<ele>947.20</ele>
	<time>2025-02-15T08:47:29.000Z</time>
</trkpt>
<trkpt lat="45.8547760" lon="9.2332470">
	<ele>947.40</ele>
	<time>2025-02-15T08:47:30.000Z</time>
</trkpt>
<trkpt lat="45.8547910" lon="9.2332390">
	<ele>947.40</ele>
	<time>2025-02-15T08:47:31.000Z</time>
</trkpt>
<trkpt lat="45.8547930" lon="9.2332390">
	<ele>947.40</ele>
	<time>2025-02-15T08:47:32.000Z</time>
</trkpt>
<trkpt lat="45.8548010" lon="9.2332350">
	<ele>947.60</ele>
	<time>2025-02-15T08:47:33.000Z</time>
</trkpt>
<trkpt lat="45.8548030" lon="9.2332330">
	<ele>947.60</ele>
	<time>2025-02-15T08:47:34.000Z</time>
</trkpt>
<trkpt lat="45.8548040" lon="9.2332320">
	<ele>947.60</ele>
	<time>2025-02-15T08:47:35.000Z</time>
</trkpt>
<trkpt lat="45.8548080" lon="9.2332280">
	<ele>947.60</ele>
	<time>2025-02-15T08:47:36.000Z</time>
</trkpt>
<trkpt lat="45.8548100" lon="9.2332250">
	<ele>947.80</ele>
	<time>2025-02-15T08:47:37.000Z</time>
</trkpt>
<trkpt lat="45.8548140" lon="9.2332240">
	<ele>947.80</ele>
	<time>2025-02-15T08:47:38.000Z</time>
</trkpt>
<trkpt lat="45.8548220" lon="9.2332280">
	<ele>947.80</ele>
	<time>2025-02-15T08:47:39.000Z</time>
</trkpt>
<trkpt lat="45.8548320" lon="9.2332350">
	<ele>947.80</ele>
	<time>2025-02-15T08:47:40.000Z</time>
</trkpt>
<trkpt lat="45.8548390" lon="9.2332400">
	<ele>948.00</ele>
	<time>2025-02-15T08:47:41.000Z</time>
</trkpt>
<trkpt lat="45.8548470" lon="9.2332370">
	<ele>948.20</ele>
	<time>2025-02-15T08:47:42.000Z</time>
</trkpt>
<trkpt lat="45.8548590" lon="9.2332330">
	<ele>948.20</ele>
	<time>2025-02-15T08:47:43.000Z</time>
</trkpt>
<trkpt lat="45.8548670" lon="9.2332350">
	<ele>948.40</ele>
	<time>2025-02-15T08:47:44.000Z</time>
</trkpt>
<trkpt lat="45.8548720" lon="9.2332350">
	<ele>948.40</ele>
	<time>2025-02-15T08:47:45.000Z</time>
</trkpt>
<trkpt lat="45.8548790" lon="9.2332340">
	<ele>948.40</ele>
	<time>2025-02-15T08:47:46.000Z</time>
</trkpt>
<trkpt lat="45.8548830" lon="9.2332310">
	<ele>948.40</ele>
	<time>2025-02-15T08:47:47.000Z</time>
</trkpt>
<trkpt lat="45.8548980" lon="9.2332170">
	<ele>948.60</ele>
	<time>2025-02-15T08:47:48.000Z</time>
</trkpt>
<trkpt lat="45.8549110" lon="9.2332060">
	<ele>948.80</ele>
	<time>2025-02-15T08:47:49.000Z</time>
</trkpt>
<trkpt lat="45.8549200" lon="9.2331910">
	<ele>948.80</ele>
	<time>2025-02-15T08:47:50.000Z</time>
</trkpt>
<trkpt lat="45.8549250" lon="9.2331860">
	<ele>949.00</ele>
	<time>2025-02-15T08:47:51.000Z</time>
</trkpt>
<trkpt lat="45.8549370" lon="9.2331850">
	<ele>949.00</ele>
	<time>2025-02-15T08:47:52.000Z</time>
</trkpt>
<trkpt lat="45.8549540" lon="9.2331950">
	<ele>949.00</ele>
	<time>2025-02-15T08:47:53.000Z</time>
</trkpt>
<trkpt lat="45.8549600" lon="9.2331930">
	<ele>949.20</ele>
	<time>2025-02-15T08:47:54.000Z</time>
</trkpt>
<trkpt lat="45.8549650" lon="9.2331920">
	<ele>949.20</ele>
	<time>2025-02-15T08:47:55.000Z</time>
</trkpt>
<trkpt lat="45.8549770" lon="9.2331900">
	<ele>949.40</ele>
	<time>2025-02-15T08:47:56.000Z</time>
</trkpt>
<trkpt lat="45.8549810" lon="9.2331880">
	<ele>949.60</ele>
	<time>2025-02-15T08:47:57.000Z</time>
</trkpt>
<trkpt lat="45.8549790" lon="9.2331890">
	<ele>949.60</ele>
	<time>2025-02-15T08:47:58.000Z</time>
</trkpt>
<trkpt lat="45.8549820" lon="9.2331900">
	<ele>949.80</ele>
	<time>2025-02-15T08:47:59.000Z</time>
</trkpt>
<trkpt lat="45.8549850" lon="9.2331890">
	<ele>950.00</ele>
	<time>2025-02-15T08:48:00.000Z</time>
</trkpt>
<trkpt lat="45.8549960" lon="9.2331820">
	<ele>950.00</ele>
	<time>2025-02-15T08:48:01.000Z</time>
</trkpt>
<trkpt lat="45.8550070" lon="9.2331700">
	<ele>950.00</ele>
	<time>2025-02-15T08:48:02.000Z</time>
</trkpt>
<trkpt lat="45.8550110" lon="9.2331670">
	<ele>950.20</ele>
	<time>2025-02-15T08:48:03.000Z</time>
</trkpt>
<trkpt lat="45.8550140" lon="9.2331680">
	<ele>950.20</ele>
	<time>2025-02-15T08:48:04.000Z</time>
</trkpt>
<trkpt lat="45.8550170" lon="9.2331630">
	<ele>950.20</ele>
	<time>2025-02-15T08:48:05.000Z</time>
</trkpt>
<trkpt lat="45.8550240" lon="9.2331560">
	<ele>950.20</ele>
	<time>2025-02-15T08:48:06.000Z</time>
</trkpt>
<trkpt lat="45.8550280" lon="9.2331530">
	<ele>950.40</ele>
	<time>2025-02-15T08:48:07.000Z</time>
</trkpt>
<trkpt lat="45.8550290" lon="9.2331590">
	<ele>950.80</ele>
	<time>2025-02-15T08:48:08.000Z</time>
</trkpt>
<trkpt lat="45.8550290" lon="9.2331630">
	<ele>951.00</ele>
	<time>2025-02-15T08:48:09.000Z</time>
</trkpt>
<trkpt lat="45.8550310" lon="9.2331650">
	<ele>951.00</ele>
	<time>2025-02-15T08:48:10.000Z</time>
</trkpt>
<trkpt lat="45.8550330" lon="9.2331660">
	<ele>951.00</ele>
	<time>2025-02-15T08:48:11.000Z</time>
</trkpt>
<trkpt lat="45.8550350" lon="9.2331610">
	<ele>951.20</ele>
	<time>2025-02-15T08:48:12.000Z</time>
</trkpt>
<trkpt lat="45.8550410" lon="9.2331560">
	<ele>951.20</ele>
	<time>2025-02-15T08:48:13.000Z</time>
</trkpt>
<trkpt lat="45.8550470" lon="9.2331540">
	<ele>951.40</ele>
	<time>2025-02-15T08:48:14.000Z</time>
</trkpt>
<trkpt lat="45.8550510" lon="9.2331580">
	<ele>951.40</ele>
	<time>2025-02-15T08:48:15.000Z</time>
</trkpt>
<trkpt lat="45.8550540" lon="9.2331620">
	<ele>951.60</ele>
	<time>2025-02-15T08:48:16.000Z</time>
</trkpt>
<trkpt lat="45.8550570" lon="9.2331650">
	<ele>952.00</ele>
	<time>2025-02-15T08:48:17.000Z</time>
</trkpt>
<trkpt lat="45.8550560" lon="9.2331710">
	<ele>952.20</ele>
	<time>2025-02-15T08:48:18.000Z</time>
</trkpt>
<trkpt lat="45.8550550" lon="9.2331750">
	<ele>952.20</ele>
	<time>2025-02-15T08:48:19.000Z</time>
</trkpt>
<trkpt lat="45.8550580" lon="9.2331730">
	<ele>952.20</ele>
	<time>2025-02-15T08:48:20.000Z</time>
</trkpt>
<trkpt lat="45.8550570" lon="9.2331750">
	<ele>952.40</ele>
	<time>2025-02-15T08:48:21.000Z</time>
</trkpt>
<trkpt lat="45.8550530" lon="9.2331800">
	<ele>952.60</ele>
	<time>2025-02-15T08:48:22.000Z</time>
</trkpt>
<trkpt lat="45.8550540" lon="9.2331820">
	<ele>952.60</ele>
	<time>2025-02-15T08:48:23.000Z</time>
</trkpt>
<trkpt lat="45.8550620" lon="9.2331820">
	<ele>952.80</ele>
	<time>2025-02-15T08:48:24.000Z</time>
</trkpt>
<trkpt lat="45.8550640" lon="9.2331850">
	<ele>952.80</ele>
	<time>2025-02-15T08:48:25.000Z</time>
</trkpt>
<trkpt lat="45.8550740" lon="9.2331780">
	<ele>953.00</ele>
	<time>2025-02-15T08:48:26.000Z</time>
</trkpt>
<trkpt lat="45.8550860" lon="9.2331640">
	<ele>953.00</ele>
	<time>2025-02-15T08:48:27.000Z</time>
</trkpt>
<trkpt lat="45.8550990" lon="9.2331520">
	<ele>953.00</ele>
	<time>2025-02-15T08:48:28.000Z</time>
</trkpt>
<trkpt lat="45.8551060" lon="9.2331510">
	<ele>953.20</ele>
	<time>2025-02-15T08:48:29.000Z</time>
</trkpt>
<trkpt lat="45.8551090" lon="9.2331520">
	<ele>953.20</ele>
	<time>2025-02-15T08:48:30.000Z</time>
</trkpt>
<trkpt lat="45.8551110" lon="9.2331530">
	<ele>953.20</ele>
	<time>2025-02-15T08:48:31.000Z</time>
</trkpt>
<trkpt lat="45.8551120" lon="9.2331540">
	<ele>953.20</ele>
	<time>2025-02-15T08:48:32.000Z</time>
</trkpt>
<trkpt lat="45.8551100" lon="9.2331560">
	<ele>953.20</ele>
	<time>2025-02-15T08:48:33.000Z</time>
</trkpt>
<trkpt lat="45.8551140" lon="9.2331490">
	<ele>953.20</ele>
	<time>2025-02-15T08:48:34.000Z</time>
</trkpt>
<trkpt lat="45.8551200" lon="9.2331450">
	<ele>953.20</ele>
	<time>2025-02-15T08:48:35.000Z</time>
</trkpt>
<trkpt lat="45.8551320" lon="9.2331320">
	<ele>953.20</ele>
	<time>2025-02-15T08:48:36.000Z</time>
</trkpt>
<trkpt lat="45.8551450" lon="9.2331200">
	<ele>953.20</ele>
	<time>2025-02-15T08:48:37.000Z</time>
</trkpt>
<trkpt lat="45.8551580" lon="9.2331100">
	<ele>953.20</ele>
	<time>2025-02-15T08:48:38.000Z</time>
</trkpt>
<trkpt lat="45.8551670" lon="9.2331030">
	<ele>953.20</ele>
	<time>2025-02-15T08:48:39.000Z</time>
</trkpt>
<trkpt lat="45.8551720" lon="9.2330970">
	<ele>953.20</ele>
	<time>2025-02-15T08:48:40.000Z</time>
</trkpt>
<trkpt lat="45.8551670" lon="9.2331010">
	<ele>953.20</ele>
	<time>2025-02-15T08:48:41.000Z</time>
</trkpt>
<trkpt lat="45.8551720" lon="9.2330850">
	<ele>953.20</ele>
	<time>2025-02-15T08:48:42.000Z</time>
</trkpt>
<trkpt lat="45.8551820" lon="9.2330650">
	<ele>953.20</ele>
	<time>2025-02-15T08:48:43.000Z</time>
</trkpt>
<trkpt lat="45.8551960" lon="9.2330410">
	<ele>953.20</ele>
	<time>2025-02-15T08:48:44.000Z</time>
</trkpt>
<trkpt lat="45.8552100" lon="9.2330160">
	<ele>953.20</ele>
	<time>2025-02-15T08:48:45.000Z</time>
</trkpt>
<trkpt lat="45.8552090" lon="9.2330100">
	<ele>953.20</ele>
	<time>2025-02-15T08:48:46.000Z</time>
</trkpt>
<trkpt lat="45.8552160" lon="9.2329890">
	<ele>953.20</ele>
	<time>2025-02-15T08:48:47.000Z</time>
</trkpt>
<trkpt lat="45.8552240" lon="9.2329610">
	<ele>953.20</ele>
	<time>2025-02-15T08:48:48.000Z</time>
</trkpt>
<trkpt lat="45.8552310" lon="9.2329430">
	<ele>953.20</ele>
	<time>2025-02-15T08:48:49.000Z</time>
</trkpt>
<trkpt lat="45.8552380" lon="9.2329240">
	<ele>953.20</ele>
	<time>2025-02-15T08:48:50.000Z</time>
</trkpt>
<trkpt lat="45.8552430" lon="9.2329040">
	<ele>953.20</ele>
	<time>2025-02-15T08:48:51.000Z</time>
</trkpt>
<trkpt lat="45.8552430" lon="9.2328920">
	<ele>953.00</ele>
	<time>2025-02-15T08:48:52.000Z</time>
</trkpt>
<trkpt lat="45.8552510" lon="9.2328780">
	<ele>953.00</ele>
	<time>2025-02-15T08:48:53.000Z</time>
</trkpt>
<trkpt lat="45.8552600" lon="9.2328640">
	<ele>953.00</ele>
	<time>2025-02-15T08:48:54.000Z</time>
</trkpt>
<trkpt lat="45.8552680" lon="9.2328510">
	<ele>953.00</ele>
	<time>2025-02-15T08:48:55.000Z</time>
</trkpt>
<trkpt lat="45.8552690" lon="9.2328460">
	<ele>952.80</ele>
	<time>2025-02-15T08:48:56.000Z</time>
</trkpt>
<trkpt lat="45.8552800" lon="9.2328340">
	<ele>952.80</ele>
	<time>2025-02-15T08:48:57.000Z</time>
</trkpt>
<trkpt lat="45.8552980" lon="9.2328160">
	<ele>952.80</ele>
	<time>2025-02-15T08:48:58.000Z</time>
</trkpt>
<trkpt lat="45.8553100" lon="9.2328070">
	<ele>952.80</ele>
	<time>2025-02-15T08:48:59.000Z</time>
</trkpt>
<trkpt lat="45.8553180" lon="9.2328000">
	<ele>952.80</ele>
	<time>2025-02-15T08:49:00.000Z</time>
</trkpt>
<trkpt lat="45.8553350" lon="9.2327910">
	<ele>952.80</ele>
	<time>2025-02-15T08:49:01.000Z</time>
</trkpt>
<trkpt lat="45.8553380" lon="9.2327920">
	<ele>952.80</ele>
	<time>2025-02-15T08:49:02.000Z</time>
</trkpt>
<trkpt lat="45.8553530" lon="9.2328050">
	<ele>953.20</ele>
	<time>2025-02-15T08:49:03.000Z</time>
</trkpt>
<trkpt lat="45.8553680" lon="9.2328170">
	<ele>953.20</ele>
	<time>2025-02-15T08:49:04.000Z</time>
</trkpt>
<trkpt lat="45.8553790" lon="9.2328150">
	<ele>953.40</ele>
	<time>2025-02-15T08:49:05.000Z</time>
</trkpt>
<trkpt lat="45.8553920" lon="9.2327980">
	<ele>953.60</ele>
	<time>2025-02-15T08:49:06.000Z</time>
</trkpt>
<trkpt lat="45.8554020" lon="9.2327900">
	<ele>953.80</ele>
	<time>2025-02-15T08:49:07.000Z</time>
</trkpt>
<trkpt lat="45.8554040" lon="9.2327860">
	<ele>954.00</ele>
	<time>2025-02-15T08:49:08.000Z</time>
</trkpt>
<trkpt lat="45.8554090" lon="9.2327900">
	<ele>954.20</ele>
	<time>2025-02-15T08:49:09.000Z</time>
</trkpt>
<trkpt lat="45.8554110" lon="9.2327930">
	<ele>954.20</ele>
	<time>2025-02-15T08:49:10.000Z</time>
</trkpt>
<trkpt lat="45.8554170" lon="9.2327890">
	<ele>954.40</ele>
	<time>2025-02-15T08:49:11.000Z</time>
</trkpt>
<trkpt lat="45.8554260" lon="9.2327800">
	<ele>954.40</ele>
	<time>2025-02-15T08:49:12.000Z</time>
</trkpt>
<trkpt lat="45.8554340" lon="9.2327730">
	<ele>954.60</ele>
	<time>2025-02-15T08:49:13.000Z</time>
</trkpt>
<trkpt lat="45.8554400" lon="9.2327770">
	<ele>954.60</ele>
	<time>2025-02-15T08:49:14.000Z</time>
</trkpt>
<trkpt lat="45.8554460" lon="9.2327830">
	<ele>954.80</ele>
	<time>2025-02-15T08:49:15.000Z</time>
</trkpt>
<trkpt lat="45.8554490" lon="9.2327780">
	<ele>954.80</ele>
	<time>2025-02-15T08:49:16.000Z</time>
</trkpt>
<trkpt lat="45.8554500" lon="9.2327790">
	<ele>954.80</ele>
	<time>2025-02-15T08:49:17.000Z</time>
</trkpt>
<trkpt lat="45.8554680" lon="9.2327580">
	<ele>954.80</ele>
	<time>2025-02-15T08:49:18.000Z</time>
</trkpt>
<trkpt lat="45.8554870" lon="9.2327330">
	<ele>954.80</ele>
	<time>2025-02-15T08:49:19.000Z</time>
</trkpt>
<trkpt lat="45.8554900" lon="9.2327310">
	<ele>954.80</ele>
	<time>2025-02-15T08:49:20.000Z</time>
</trkpt>
<trkpt lat="45.8554910" lon="9.2327300">
	<ele>954.80</ele>
	<time>2025-02-15T08:49:21.000Z</time>
</trkpt>
<trkpt lat="45.8554920" lon="9.2327300">
	<ele>954.80</ele>
	<time>2025-02-15T08:49:22.000Z</time>
</trkpt>
<trkpt lat="45.8554920" lon="9.2327310">
	<ele>954.80</ele>
	<time>2025-02-15T08:49:23.000Z</time>
</trkpt>
<trkpt lat="45.8554940" lon="9.2327290">
	<ele>955.00</ele>
	<time>2025-02-15T08:49:24.000Z</time>
</trkpt>
<trkpt lat="45.8554910" lon="9.2327280">
	<ele>955.20</ele>
	<time>2025-02-15T08:49:25.000Z</time>
</trkpt>
<trkpt lat="45.8554910" lon="9.2327270">
	<ele>955.40</ele>
	<time>2025-02-15T08:49:26.000Z</time>
</trkpt>
<trkpt lat="45.8554900" lon="9.2327290">
	<ele>955.40</ele>
	<time>2025-02-15T08:49:27.000Z</time>
</trkpt>
<trkpt lat="45.8554810" lon="9.2327440">
	<ele>955.60</ele>
	<time>2025-02-15T08:49:28.000Z</time>
</trkpt>
<trkpt lat="45.8554910" lon="9.2327350">
	<ele>955.40</ele>
	<time>2025-02-15T08:49:29.000Z</time>
</trkpt>
<trkpt lat="45.8555110" lon="9.2327170">
	<ele>955.40</ele>
	<time>2025-02-15T08:49:30.000Z</time>
</trkpt>
<trkpt lat="45.8555120" lon="9.2327150">
	<ele>955.40</ele>
	<time>2025-02-15T08:49:31.000Z</time>
</trkpt>
<trkpt lat="45.8555140" lon="9.2327160">
	<ele>955.40</ele>
	<time>2025-02-15T08:49:32.000Z</time>
</trkpt>
<trkpt lat="45.8555270" lon="9.2327020">
	<ele>955.20</ele>
	<time>2025-02-15T08:49:33.000Z</time>
</trkpt>
<trkpt lat="45.8555360" lon="9.2326940">
	<ele>955.20</ele>
	<time>2025-02-15T08:49:34.000Z</time>
</trkpt>
<trkpt lat="45.8555400" lon="9.2326920">
	<ele>955.20</ele>
	<time>2025-02-15T08:49:35.000Z</time>
</trkpt>
<trkpt lat="45.8555500" lon="9.2326870">
	<ele>955.40</ele>
	<time>2025-02-15T08:49:36.000Z</time>
</trkpt>
<trkpt lat="45.8555620" lon="9.2326800">
	<ele>955.40</ele>
	<time>2025-02-15T08:49:37.000Z</time>
</trkpt>
<trkpt lat="45.8555690" lon="9.2326760">
	<ele>955.40</ele>
	<time>2025-02-15T08:49:38.000Z</time>
</trkpt>
<trkpt lat="45.8555730" lon="9.2326750">
	<ele>955.40</ele>
	<time>2025-02-15T08:49:39.000Z</time>
</trkpt>
<trkpt lat="45.8555790" lon="9.2326680">
	<ele>955.40</ele>
	<time>2025-02-15T08:49:40.000Z</time>
</trkpt>
<trkpt lat="45.8555880" lon="9.2326590">
	<ele>955.40</ele>
	<time>2025-02-15T08:49:41.000Z</time>
</trkpt>
<trkpt lat="45.8556000" lon="9.2326490">
	<ele>955.60</ele>
	<time>2025-02-15T08:49:42.000Z</time>
</trkpt>
<trkpt lat="45.8556050" lon="9.2326460">
	<ele>955.60</ele>
	<time>2025-02-15T08:49:43.000Z</time>
</trkpt>
<trkpt lat="45.8556090" lon="9.2326420">
	<ele>955.60</ele>
	<time>2025-02-15T08:49:44.000Z</time>
</trkpt>
<trkpt lat="45.8556080" lon="9.2326450">
	<ele>955.60</ele>
	<time>2025-02-15T08:49:45.000Z</time>
</trkpt>
<trkpt lat="45.8556160" lon="9.2326400">
	<ele>955.60</ele>
	<time>2025-02-15T08:49:46.000Z</time>
</trkpt>
<trkpt lat="45.8556170" lon="9.2326410">
	<ele>955.60</ele>
	<time>2025-02-15T08:49:47.000Z</time>
</trkpt>
<trkpt lat="45.8556270" lon="9.2326330">
	<ele>955.60</ele>
	<time>2025-02-15T08:49:48.000Z</time>
</trkpt>
<trkpt lat="45.8556290" lon="9.2326280">
	<ele>955.60</ele>
	<time>2025-02-15T08:49:49.000Z</time>
</trkpt>
<trkpt lat="45.8556310" lon="9.2326210">
	<ele>955.40</ele>
	<time>2025-02-15T08:49:50.000Z</time>
</trkpt>
<trkpt lat="45.8556290" lon="9.2326200">
	<ele>955.40</ele>
	<time>2025-02-15T08:49:51.000Z</time>
</trkpt>
<trkpt lat="45.8556260" lon="9.2326200">
	<ele>955.40</ele>
	<time>2025-02-15T08:49:52.000Z</time>
</trkpt>
<trkpt lat="45.8556190" lon="9.2326230">
	<ele>955.60</ele>
	<time>2025-02-15T08:49:53.000Z</time>
</trkpt>
<trkpt lat="45.8556130" lon="9.2326240">
	<ele>955.60</ele>
	<time>2025-02-15T08:49:54.000Z</time>
</trkpt>
<trkpt lat="45.8556070" lon="9.2326280">
	<ele>955.60</ele>
	<time>2025-02-15T08:49:55.000Z</time>
</trkpt>
<trkpt lat="45.8556030" lon="9.2326300">
	<ele>955.80</ele>
	<time>2025-02-15T08:49:56.000Z</time>
</trkpt>
<trkpt lat="45.8556020" lon="9.2326310">
	<ele>955.80</ele>
	<time>2025-02-15T08:49:57.000Z</time>
</trkpt>
<trkpt lat="45.8556010" lon="9.2326300">
	<ele>955.80</ele>
	<time>2025-02-15T08:49:58.000Z</time>
</trkpt>
<trkpt lat="45.8556010" lon="9.2326260">
	<ele>955.80</ele>
	<time>2025-02-15T08:49:59.000Z</time>
</trkpt>
<trkpt lat="45.8555990" lon="9.2326240">
	<ele>955.80</ele>
	<time>2025-02-15T08:50:00.000Z</time>
</trkpt>
<trkpt lat="45.8556010" lon="9.2326210">
	<ele>955.80</ele>
	<time>2025-02-15T08:50:01.000Z</time>
</trkpt>
<trkpt lat="45.8556080" lon="9.2326240">
	<ele>955.80</ele>
	<time>2025-02-15T08:50:02.000Z</time>
</trkpt>
<trkpt lat="45.8556180" lon="9.2326200">
	<ele>955.80</ele>
	<time>2025-02-15T08:50:03.000Z</time>
</trkpt>
<trkpt lat="45.8556310" lon="9.2326040">
	<ele>955.80</ele>
	<time>2025-02-15T08:50:04.000Z</time>
</trkpt>
<trkpt lat="45.8556350" lon="9.2326010">
	<ele>955.80</ele>
	<time>2025-02-15T08:50:05.000Z</time>
</trkpt>
<trkpt lat="45.8556280" lon="9.2326070">
	<ele>955.60</ele>
	<time>2025-02-15T08:50:06.000Z</time>
</trkpt>
<trkpt lat="45.8556270" lon="9.2326040">
	<ele>955.40</ele>
	<time>2025-02-15T08:50:07.000Z</time>
</trkpt>
<trkpt lat="45.8556340" lon="9.2325990">
	<ele>955.40</ele>
	<time>2025-02-15T08:50:08.000Z</time>
</trkpt>
<trkpt lat="45.8556440" lon="9.2325850">
	<ele>955.20</ele>
	<time>2025-02-15T08:50:09.000Z</time>
</trkpt>
<trkpt lat="45.8556450" lon="9.2325780">
	<ele>955.20</ele>
	<time>2025-02-15T08:50:10.000Z</time>
</trkpt>
<trkpt lat="45.8556470" lon="9.2325720">
	<ele>955.20</ele>
	<time>2025-02-15T08:50:11.000Z</time>
</trkpt>
<trkpt lat="45.8556450" lon="9.2325700">
	<ele>955.00</ele>
	<time>2025-02-15T08:50:12.000Z</time>
</trkpt>
<trkpt lat="45.8556420" lon="9.2325680">
	<ele>955.00</ele>
	<time>2025-02-15T08:50:13.000Z</time>
</trkpt>
<trkpt lat="45.8556510" lon="9.2325600">
	<ele>954.80</ele>
	<time>2025-02-15T08:50:14.000Z</time>
</trkpt>
<trkpt lat="45.8556610" lon="9.2325540">
	<ele>954.80</ele>
	<time>2025-02-15T08:50:15.000Z</time>
</trkpt>
<trkpt lat="45.8556670" lon="9.2325550">
	<ele>954.80</ele>
	<time>2025-02-15T08:50:16.000Z</time>
</trkpt>
<trkpt lat="45.8556770" lon="9.2325610">
	<ele>954.60</ele>
	<time>2025-02-15T08:50:17.000Z</time>
</trkpt>
<trkpt lat="45.8556870" lon="9.2325590">
	<ele>954.40</ele>
	<time>2025-02-15T08:50:18.000Z</time>
</trkpt>
<trkpt lat="45.8556920" lon="9.2325630">
	<ele>954.40</ele>
	<time>2025-02-15T08:50:19.000Z</time>
</trkpt>
<trkpt lat="45.8556970" lon="9.2325560">
	<ele>954.40</ele>
	<time>2025-02-15T08:50:20.000Z</time>
</trkpt>
<trkpt lat="45.8556950" lon="9.2325540">
	<ele>954.20</ele>
	<time>2025-02-15T08:50:21.000Z</time>
</trkpt>
<trkpt lat="45.8557100" lon="9.2325360">
	<ele>954.20</ele>
	<time>2025-02-15T08:50:22.000Z</time>
</trkpt>
<trkpt lat="45.8557340" lon="9.2325080">
	<ele>954.20</ele>
	<time>2025-02-15T08:50:23.000Z</time>
</trkpt>
<trkpt lat="45.8557560" lon="9.2324860">
	<ele>954.20</ele>
	<time>2025-02-15T08:50:24.000Z</time>
</trkpt>
<trkpt lat="45.8557590" lon="9.2324830">
	<ele>954.20</ele>
	<time>2025-02-15T08:50:25.000Z</time>
</trkpt>
<trkpt lat="45.8557590" lon="9.2324830">
	<ele>954.20</ele>
	<time>2025-02-15T08:50:26.000Z</time>
</trkpt>
<trkpt lat="45.8557800" lon="9.2324670">
	<ele>954.20</ele>
	<time>2025-02-15T08:50:27.000Z</time>
</trkpt>
<trkpt lat="45.8558040" lon="9.2324490">
	<ele>954.20</ele>
	<time>2025-02-15T08:50:28.000Z</time>
</trkpt>
<trkpt lat="45.8558200" lon="9.2324330">
	<ele>954.00</ele>
	<time>2025-02-15T08:50:29.000Z</time>
</trkpt>
<trkpt lat="45.8558310" lon="9.2324300">
	<ele>953.80</ele>
	<time>2025-02-15T08:50:30.000Z</time>
</trkpt>
<trkpt lat="45.8558420" lon="9.2324270">
	<ele>953.60</ele>
	<time>2025-02-15T08:50:31.000Z</time>
</trkpt>
<trkpt lat="45.8558510" lon="9.2324270">
	<ele>953.60</ele>
	<time>2025-02-15T08:50:32.000Z</time>
</trkpt>
<trkpt lat="45.8558610" lon="9.2324230">
	<ele>953.60</ele>
	<time>2025-02-15T08:50:33.000Z</time>
</trkpt>
<trkpt lat="45.8558770" lon="9.2324160">
	<ele>953.60</ele>
	<time>2025-02-15T08:50:34.000Z</time>
</trkpt>
<trkpt lat="45.8558900" lon="9.2324120">
	<ele>953.60</ele>
	<time>2025-02-15T08:50:35.000Z</time>
</trkpt>
<trkpt lat="45.8559070" lon="9.2324030">
	<ele>953.60</ele>
	<time>2025-02-15T08:50:36.000Z</time>
</trkpt>
<trkpt lat="45.8559120" lon="9.2323980">
	<ele>953.60</ele>
	<time>2025-02-15T08:50:37.000Z</time>
</trkpt>
<trkpt lat="45.8559160" lon="9.2323990">
	<ele>953.60</ele>
	<time>2025-02-15T08:50:38.000Z</time>
</trkpt>
<trkpt lat="45.8559130" lon="9.2324030">
	<ele>953.20</ele>
	<time>2025-02-15T08:50:39.000Z</time>
</trkpt>
<trkpt lat="45.8559120" lon="9.2324040">
	<ele>953.00</ele>
	<time>2025-02-15T08:50:40.000Z</time>
</trkpt>
<trkpt lat="45.8559090" lon="9.2324140">
	<ele>952.80</ele>
	<time>2025-02-15T08:50:41.000Z</time>
</trkpt>
<trkpt lat="45.8559090" lon="9.2324140">
	<ele>952.60</ele>
	<time>2025-02-15T08:50:42.000Z</time>
</trkpt>
<trkpt lat="45.8559080" lon="9.2324160">
	<ele>952.60</ele>
	<time>2025-02-15T08:50:43.000Z</time>
</trkpt>
<trkpt lat="45.8559070" lon="9.2324210">
	<ele>952.60</ele>
	<time>2025-02-15T08:50:44.000Z</time>
</trkpt>
<trkpt lat="45.8559070" lon="9.2324230">
	<ele>952.60</ele>
	<time>2025-02-15T08:50:45.000Z</time>
</trkpt>
<trkpt lat="45.8559060" lon="9.2324230">
	<ele>952.60</ele>
	<time>2025-02-15T08:50:46.000Z</time>
</trkpt>
<trkpt lat="45.8559090" lon="9.2324270">
	<ele>952.60</ele>
	<time>2025-02-15T08:50:47.000Z</time>
</trkpt>
<trkpt lat="45.8559080" lon="9.2324290">
	<ele>952.60</ele>
	<time>2025-02-15T08:50:48.000Z</time>
</trkpt>
<trkpt lat="45.8559070" lon="9.2324280">
	<ele>952.60</ele>
	<time>2025-02-15T08:50:49.000Z</time>
</trkpt>
<trkpt lat="45.8559080" lon="9.2324260">
	<ele>952.60</ele>
	<time>2025-02-15T08:50:50.000Z</time>
</trkpt>
<trkpt lat="45.8559210" lon="9.2324100">
	<ele>952.60</ele>
	<time>2025-02-15T08:50:51.000Z</time>
</trkpt>
<trkpt lat="45.8559230" lon="9.2324070">
	<ele>952.60</ele>
	<time>2025-02-15T08:50:52.000Z</time>
</trkpt>
<trkpt lat="45.8559360" lon="9.2323950">
	<ele>952.80</ele>
	<time>2025-02-15T08:50:53.000Z</time>
</trkpt>
<trkpt lat="45.8559370" lon="9.2323970">
	<ele>952.80</ele>
	<time>2025-02-15T08:50:54.000Z</time>
</trkpt>
<trkpt lat="45.8559370" lon="9.2323970">
	<ele>952.80</ele>
	<time>2025-02-15T08:50:55.000Z</time>
</trkpt>
<trkpt lat="45.8559370" lon="9.2323960">
	<ele>952.80</ele>
	<time>2025-02-15T08:50:56.000Z</time>
</trkpt>
<trkpt lat="45.8559420" lon="9.2323960">
	<ele>952.80</ele>
	<time>2025-02-15T08:50:57.000Z</time>
</trkpt>
<trkpt lat="45.8559420" lon="9.2323900">
	<ele>952.80</ele>
	<time>2025-02-15T08:50:58.000Z</time>
</trkpt>
<trkpt lat="45.8559460" lon="9.2323870">
	<ele>952.80</ele>
	<time>2025-02-15T08:50:59.000Z</time>
</trkpt>
<trkpt lat="45.8559480" lon="9.2323880">
	<ele>952.80</ele>
	<time>2025-02-15T08:51:00.000Z</time>
</trkpt>
<trkpt lat="45.8559500" lon="9.2323850">
	<ele>952.80</ele>
	<time>2025-02-15T08:51:01.000Z</time>
</trkpt>
<trkpt lat="45.8559540" lon="9.2323840">
	<ele>952.60</ele>
	<time>2025-02-15T08:51:02.000Z</time>
</trkpt>
<trkpt lat="45.8559570" lon="9.2323800">
	<ele>952.60</ele>
	<time>2025-02-15T08:51:03.000Z</time>
</trkpt>
<trkpt lat="45.8559600" lon="9.2323750">
	<ele>952.40</ele>
	<time>2025-02-15T08:51:04.000Z</time>
</trkpt>
<trkpt lat="45.8559620" lon="9.2323730">
	<ele>952.40</ele>
	<time>2025-02-15T08:51:05.000Z</time>
</trkpt>
<trkpt lat="45.8559650" lon="9.2323730">
	<ele>952.40</ele>
	<time>2025-02-15T08:51:06.000Z</time>
</trkpt>
<trkpt lat="45.8559720" lon="9.2323690">
	<ele>952.20</ele>
	<time>2025-02-15T08:51:07.000Z</time>
</trkpt>
<trkpt lat="45.8559760" lon="9.2323640">
	<ele>952.20</ele>
	<time>2025-02-15T08:51:08.000Z</time>
</trkpt>
<trkpt lat="45.8559920" lon="9.2323500">
	<ele>952.20</ele>
	<time>2025-02-15T08:51:09.000Z</time>
</trkpt>
<trkpt lat="45.8560040" lon="9.2323380">
	<ele>952.20</ele>
	<time>2025-02-15T08:51:10.000Z</time>
</trkpt>
<trkpt lat="45.8560200" lon="9.2323230">
	<ele>952.20</ele>
	<time>2025-02-15T08:51:11.000Z</time>
</trkpt>
<trkpt lat="45.8560250" lon="9.2323210">
	<ele>952.20</ele>
	<time>2025-02-15T08:51:12.000Z</time>
</trkpt>
<trkpt lat="45.8560190" lon="9.2323280">
	<ele>952.20</ele>
	<time>2025-02-15T08:51:13.000Z</time>
</trkpt>
<trkpt lat="45.8560220" lon="9.2323280">
	<ele>952.40</ele>
	<time>2025-02-15T08:51:14.000Z</time>
</trkpt>
<trkpt lat="45.8560160" lon="9.2323290">
	<ele>952.40</ele>
	<time>2025-02-15T08:51:15.000Z</time>
</trkpt>
<trkpt lat="45.8560190" lon="9.2323280">
	<ele>952.40</ele>
	<time>2025-02-15T08:51:16.000Z</time>
</trkpt>
<trkpt lat="45.8560190" lon="9.2323290">
	<ele>952.40</ele>
	<time>2025-02-15T08:51:17.000Z</time>
</trkpt>
<trkpt lat="45.8560200" lon="9.2323300">
	<ele>952.40</ele>
	<time>2025-02-15T08:51:18.000Z</time>
</trkpt>
<trkpt lat="45.8560210" lon="9.2323310">
	<ele>952.40</ele>
	<time>2025-02-15T08:51:19.000Z</time>
</trkpt>
<trkpt lat="45.8560210" lon="9.2323310">
	<ele>952.20</ele>
	<time>2025-02-15T08:51:20.000Z</time>
</trkpt>
<trkpt lat="45.8560220" lon="9.2323330">
	<ele>952.20</ele>
	<time>2025-02-15T08:51:21.000Z</time>
</trkpt>
<trkpt lat="45.8560220" lon="9.2323320">
	<ele>952.20</ele>
	<time>2025-02-15T08:51:22.000Z</time>
</trkpt>
<trkpt lat="45.8560260" lon="9.2323250">
	<ele>952.20</ele>
	<time>2025-02-15T08:51:23.000Z</time>
</trkpt>
<trkpt lat="45.8560320" lon="9.2323180">
	<ele>952.20</ele>
	<time>2025-02-15T08:51:24.000Z</time>
</trkpt>
<trkpt lat="45.8560360" lon="9.2323150">
	<ele>952.20</ele>
	<time>2025-02-15T08:51:25.000Z</time>
</trkpt>
<trkpt lat="45.8560410" lon="9.2323120">
	<ele>952.00</ele>
	<time>2025-02-15T08:51:26.000Z</time>
</trkpt>
<trkpt lat="45.8560530" lon="9.2323000">
	<ele>952.00</ele>
	<time>2025-02-15T08:51:27.000Z</time>
</trkpt>
<trkpt lat="45.8560690" lon="9.2322860">
	<ele>952.00</ele>
	<time>2025-02-15T08:51:28.000Z</time>
</trkpt>
<trkpt lat="45.8560720" lon="9.2322830">
	<ele>951.80</ele>
	<time>2025-02-15T08:51:29.000Z</time>
</trkpt>
<trkpt lat="45.8560720" lon="9.2322770">
	<ele>951.80</ele>
	<time>2025-02-15T08:51:30.000Z</time>
</trkpt>
<trkpt lat="45.8560670" lon="9.2322710">
	<ele>951.80</ele>
	<time>2025-02-15T08:51:31.000Z</time>
</trkpt>
<trkpt lat="45.8560670" lon="9.2322670">
	<ele>951.60</ele>
	<time>2025-02-15T08:51:32.000Z</time>
</trkpt>
<trkpt lat="45.8560670" lon="9.2322550">
	<ele>951.60</ele>
	<time>2025-02-15T08:51:33.000Z</time>
</trkpt>
<trkpt lat="45.8560630" lon="9.2322670">
	<ele>951.60</ele>
	<time>2025-02-15T08:51:34.000Z</time>
</trkpt>
<trkpt lat="45.8560690" lon="9.2322690">
	<ele>951.60</ele>
	<time>2025-02-15T08:51:35.000Z</time>
</trkpt>
<trkpt lat="45.8560790" lon="9.2322630">
	<ele>951.40</ele>
	<time>2025-02-15T08:51:36.000Z</time>
</trkpt>
<trkpt lat="45.8560860" lon="9.2322560">
	<ele>951.40</ele>
	<time>2025-02-15T08:51:37.000Z</time>
</trkpt>
<trkpt lat="45.8560930" lon="9.2322530">
	<ele>951.40</ele>
	<time>2025-02-15T08:51:38.000Z</time>
</trkpt>
<trkpt lat="45.8560980" lon="9.2322550">
	<ele>951.40</ele>
	<time>2025-02-15T08:51:39.000Z</time>
</trkpt>
<trkpt lat="45.8561030" lon="9.2322590">
	<ele>951.40</ele>
	<time>2025-02-15T08:51:40.000Z</time>
</trkpt>
<trkpt lat="45.8561120" lon="9.2322590">
	<ele>951.20</ele>
	<time>2025-02-15T08:51:41.000Z</time>
</trkpt>
<trkpt lat="45.8561280" lon="9.2322500">
	<ele>951.20</ele>
	<time>2025-02-15T08:51:42.000Z</time>
</trkpt>
<trkpt lat="45.8561440" lon="9.2322410">
	<ele>951.20</ele>
	<time>2025-02-15T08:51:43.000Z</time>
</trkpt>
<trkpt lat="45.8561570" lon="9.2322270">
	<ele>951.20</ele>
	<time>2025-02-15T08:51:44.000Z</time>
</trkpt>
<trkpt lat="45.8561640" lon="9.2322200">
	<ele>951.00</ele>
	<time>2025-02-15T08:51:45.000Z</time>
</trkpt>
<trkpt lat="45.8561690" lon="9.2322200">
	<ele>951.00</ele>
	<time>2025-02-15T08:51:46.000Z</time>
</trkpt>
<trkpt lat="45.8561730" lon="9.2322230">
	<ele>951.00</ele>
	<time>2025-02-15T08:51:47.000Z</time>
</trkpt>
<trkpt lat="45.8561810" lon="9.2322160">
	<ele>950.80</ele>
	<time>2025-02-15T08:51:48.000Z</time>
</trkpt>
<trkpt lat="45.8561910" lon="9.2322150">
	<ele>950.80</ele>
	<time>2025-02-15T08:51:49.000Z</time>
</trkpt>
<trkpt lat="45.8562030" lon="9.2322090">
	<ele>950.60</ele>
	<time>2025-02-15T08:51:50.000Z</time>
</trkpt>
<trkpt lat="45.8562190" lon="9.2322010">
	<ele>950.60</ele>
	<time>2025-02-15T08:51:51.000Z</time>
</trkpt>
<trkpt lat="45.8562290" lon="9.2321970">
	<ele>950.40</ele>
	<time>2025-02-15T08:51:52.000Z</time>
</trkpt>
<trkpt lat="45.8562350" lon="9.2321880">
	<ele>950.40</ele>
	<time>2025-02-15T08:51:53.000Z</time>
</trkpt>
<trkpt lat="45.8562440" lon="9.2321760">
	<ele>950.40</ele>
	<time>2025-02-15T08:51:54.000Z</time>
</trkpt>
<trkpt lat="45.8562500" lon="9.2321650">
	<ele>950.40</ele>
	<time>2025-02-15T08:51:55.000Z</time>
</trkpt>
<trkpt lat="45.8562590" lon="9.2321550">
	<ele>950.40</ele>
	<time>2025-02-15T08:51:56.000Z</time>
</trkpt>
<trkpt lat="45.8562780" lon="9.2321390">
	<ele>950.60</ele>
	<time>2025-02-15T08:51:57.000Z</time>
</trkpt>
<trkpt lat="45.8562950" lon="9.2321250">
	<ele>950.60</ele>
	<time>2025-02-15T08:51:58.000Z</time>
</trkpt>
<trkpt lat="45.8563120" lon="9.2321060">
	<ele>950.60</ele>
	<time>2025-02-15T08:51:59.000Z</time>
</trkpt>
<trkpt lat="45.8563490" lon="9.2320630">
	<ele>950.80</ele>
	<time>2025-02-15T08:52:00.000Z</time>
</trkpt>
<trkpt lat="45.8563710" lon="9.2320390">
	<ele>950.60</ele>
	<time>2025-02-15T08:52:01.000Z</time>
</trkpt>
<trkpt lat="45.8563730" lon="9.2320360">
	<ele>950.80</ele>
	<time>2025-02-15T08:52:02.000Z</time>
</trkpt>
<trkpt lat="45.8563760" lon="9.2320290">
	<ele>950.80</ele>
	<time>2025-02-15T08:52:03.000Z</time>
</trkpt>
<trkpt lat="45.8563770" lon="9.2320270">
	<ele>950.80</ele>
	<time>2025-02-15T08:52:04.000Z</time>
</trkpt>
<trkpt lat="45.8563830" lon="9.2320220">
	<ele>950.80</ele>
	<time>2025-02-15T08:52:05.000Z</time>
</trkpt>
<trkpt lat="45.8563910" lon="9.2320100">
	<ele>950.80</ele>
	<time>2025-02-15T08:52:06.000Z</time>
</trkpt>
<trkpt lat="45.8563970" lon="9.2319990">
	<ele>951.00</ele>
	<time>2025-02-15T08:52:07.000Z</time>
</trkpt>
<trkpt lat="45.8564060" lon="9.2319890">
	<ele>951.00</ele>
	<time>2025-02-15T08:52:08.000Z</time>
</trkpt>
<trkpt lat="45.8564130" lon="9.2319810">
	<ele>951.00</ele>
	<time>2025-02-15T08:52:09.000Z</time>
</trkpt>
<trkpt lat="45.8564280" lon="9.2319730">
	<ele>951.00</ele>
	<time>2025-02-15T08:52:10.000Z</time>
</trkpt>
<trkpt lat="45.8564400" lon="9.2319740">
	<ele>950.80</ele>
	<time>2025-02-15T08:52:11.000Z</time>
</trkpt>
<trkpt lat="45.8564560" lon="9.2319710">
	<ele>950.60</ele>
	<time>2025-02-15T08:52:12.000Z</time>
</trkpt>
<trkpt lat="45.8564710" lon="9.2319630">
	<ele>950.60</ele>
	<time>2025-02-15T08:52:13.000Z</time>
</trkpt>
<trkpt lat="45.8564810" lon="9.2319620">
	<ele>950.40</ele>
	<time>2025-02-15T08:52:14.000Z</time>
</trkpt>
<trkpt lat="45.8564890" lon="9.2319670">
	<ele>950.40</ele>
	<time>2025-02-15T08:52:15.000Z</time>
</trkpt>
<trkpt lat="45.8564990" lon="9.2319640">
	<ele>950.40</ele>
	<time>2025-02-15T08:52:16.000Z</time>
</trkpt>
<trkpt lat="45.8565040" lon="9.2319660">
	<ele>950.40</ele>
	<time>2025-02-15T08:52:17.000Z</time>
</trkpt>
<trkpt lat="45.8565170" lon="9.2319620">
	<ele>950.40</ele>
	<time>2025-02-15T08:52:18.000Z</time>
</trkpt>
<trkpt lat="45.8565310" lon="9.2319550">
	<ele>950.40</ele>
	<time>2025-02-15T08:52:19.000Z</time>
</trkpt>
<trkpt lat="45.8565430" lon="9.2319540">
	<ele>950.40</ele>
	<time>2025-02-15T08:52:20.000Z</time>
</trkpt>
<trkpt lat="45.8565500" lon="9.2319530">
	<ele>950.40</ele>
	<time>2025-02-15T08:52:21.000Z</time>
</trkpt>
<trkpt lat="45.8565530" lon="9.2319560">
	<ele>950.40</ele>
	<time>2025-02-15T08:52:22.000Z</time>
</trkpt>
<trkpt lat="45.8565630" lon="9.2319530">
	<ele>950.40</ele>
	<time>2025-02-15T08:52:23.000Z</time>
</trkpt>
<trkpt lat="45.8565720" lon="9.2319440">
	<ele>950.40</ele>
	<time>2025-02-15T08:52:24.000Z</time>
</trkpt>
<trkpt lat="45.8565750" lon="9.2319430">
	<ele>950.40</ele>
	<time>2025-02-15T08:52:25.000Z</time>
</trkpt>
<trkpt lat="45.8565780" lon="9.2319460">
	<ele>950.20</ele>
	<time>2025-02-15T08:52:26.000Z</time>
</trkpt>
<trkpt lat="45.8565840" lon="9.2319520">
	<ele>950.20</ele>
	<time>2025-02-15T08:52:27.000Z</time>
</trkpt>
<trkpt lat="45.8565910" lon="9.2319510">
	<ele>950.20</ele>
	<time>2025-02-15T08:52:28.000Z</time>
</trkpt>
<trkpt lat="45.8566010" lon="9.2319530">
	<ele>950.20</ele>
	<time>2025-02-15T08:52:29.000Z</time>
</trkpt>
<trkpt lat="45.8566070" lon="9.2319570">
	<ele>950.20</ele>
	<time>2025-02-15T08:52:30.000Z</time>
</trkpt>
<trkpt lat="45.8566110" lon="9.2319550">
	<ele>950.20</ele>
	<time>2025-02-15T08:52:31.000Z</time>
</trkpt>
<trkpt lat="45.8566220" lon="9.2319450">
	<ele>950.20</ele>
	<time>2025-02-15T08:52:32.000Z</time>
</trkpt>
<trkpt lat="45.8566330" lon="9.2319340">
	<ele>950.40</ele>
	<time>2025-02-15T08:52:33.000Z</time>
</trkpt>
<trkpt lat="45.8566380" lon="9.2319320">
	<ele>950.40</ele>
	<time>2025-02-15T08:52:34.000Z</time>
</trkpt>
<trkpt lat="45.8566480" lon="9.2319220">
	<ele>950.40</ele>
	<time>2025-02-15T08:52:35.000Z</time>
</trkpt>
<trkpt lat="45.8566550" lon="9.2319180">
	<ele>950.40</ele>
	<time>2025-02-15T08:52:36.000Z</time>
</trkpt>
<trkpt lat="45.8566620" lon="9.2319130">
	<ele>950.40</ele>
	<time>2025-02-15T08:52:37.000Z</time>
</trkpt>
<trkpt lat="45.8566760" lon="9.2319010">
	<ele>950.60</ele>
	<time>2025-02-15T08:52:38.000Z</time>
</trkpt>
<trkpt lat="45.8566820" lon="9.2318950">
	<ele>950.60</ele>
	<time>2025-02-15T08:52:39.000Z</time>
</trkpt>
<trkpt lat="45.8566850" lon="9.2318910">
	<ele>950.60</ele>
	<time>2025-02-15T08:52:40.000Z</time>
</trkpt>
<trkpt lat="45.8566840" lon="9.2318890">
	<ele>950.60</ele>
	<time>2025-02-15T08:52:41.000Z</time>
</trkpt>
<trkpt lat="45.8566840" lon="9.2318870">
	<ele>950.60</ele>
	<time>2025-02-15T08:52:42.000Z</time>
</trkpt>
<trkpt lat="45.8566840" lon="9.2318870">
	<ele>950.60</ele>
	<time>2025-02-15T08:52:43.000Z</time>
</trkpt>
<trkpt lat="45.8566940" lon="9.2318820">
	<ele>950.60</ele>
	<time>2025-02-15T08:52:44.000Z</time>
</trkpt>
<trkpt lat="45.8567080" lon="9.2318820">
	<ele>950.40</ele>
	<time>2025-02-15T08:52:45.000Z</time>
</trkpt>
<trkpt lat="45.8567240" lon="9.2318800">
	<ele>950.40</ele>
	<time>2025-02-15T08:52:46.000Z</time>
</trkpt>
<trkpt lat="45.8567350" lon="9.2318730">
	<ele>950.40</ele>
	<time>2025-02-15T08:52:47.000Z</time>
</trkpt>
<trkpt lat="45.8567440" lon="9.2318680">
	<ele>950.20</ele>
	<time>2025-02-15T08:52:48.000Z</time>
</trkpt>
<trkpt lat="45.8567540" lon="9.2318520">
	<ele>950.20</ele>
	<time>2025-02-15T08:52:49.000Z</time>
</trkpt>
<trkpt lat="45.8567700" lon="9.2318280">
	<ele>950.00</ele>
	<time>2025-02-15T08:52:50.000Z</time>
</trkpt>
<trkpt lat="45.8567770" lon="9.2318210">
	<ele>949.80</ele>
	<time>2025-02-15T08:52:51.000Z</time>
</trkpt>
<trkpt lat="45.8567870" lon="9.2318150">
	<ele>949.80</ele>
	<time>2025-02-15T08:52:52.000Z</time>
</trkpt>
<trkpt lat="45.8567990" lon="9.2318060">
	<ele>949.80</ele>
	<time>2025-02-15T08:52:53.000Z</time>
</trkpt>
<trkpt lat="45.8568120" lon="9.2317990">
	<ele>949.80</ele>
	<time>2025-02-15T08:52:54.000Z</time>
</trkpt>
<trkpt lat="45.8568220" lon="9.2317930">
	<ele>949.60</ele>
	<time>2025-02-15T08:52:55.000Z</time>
</trkpt>
<trkpt lat="45.8568310" lon="9.2317810">
	<ele>949.60</ele>
	<time>2025-02-15T08:52:56.000Z</time>
</trkpt>
<trkpt lat="45.8568430" lon="9.2317730">
	<ele>949.60</ele>
	<time>2025-02-15T08:52:57.000Z</time>
</trkpt>
<trkpt lat="45.8568490" lon="9.2317650">
	<ele>949.80</ele>
	<time>2025-02-15T08:52:58.000Z</time>
</trkpt>
<trkpt lat="45.8568600" lon="9.2317570">
	<ele>949.80</ele>
	<time>2025-02-15T08:52:59.000Z</time>
</trkpt>
<trkpt lat="45.8568740" lon="9.2317320">
	<ele>949.60</ele>
	<time>2025-02-15T08:53:00.000Z</time>
</trkpt>
<trkpt lat="45.8568780" lon="9.2317100">
	<ele>949.60</ele>
	<time>2025-02-15T08:53:01.000Z</time>
</trkpt>
<trkpt lat="45.8568910" lon="9.2316890">
	<ele>949.60</ele>
	<time>2025-02-15T08:53:02.000Z</time>
</trkpt>
<trkpt lat="45.8569060" lon="9.2316770">
	<ele>949.60</ele>
	<time>2025-02-15T08:53:03.000Z</time>
</trkpt>
<trkpt lat="45.8569200" lon="9.2316640">
	<ele>949.60</ele>
	<time>2025-02-15T08:53:04.000Z</time>
</trkpt>
<trkpt lat="45.8569280" lon="9.2316680">
	<ele>949.60</ele>
	<time>2025-02-15T08:53:05.000Z</time>
</trkpt>
<trkpt lat="45.8569310" lon="9.2316680">
	<ele>949.60</ele>
	<time>2025-02-15T08:53:06.000Z</time>
</trkpt>
<trkpt lat="45.8569340" lon="9.2316790">
	<ele>949.60</ele>
	<time>2025-02-15T08:53:07.000Z</time>
</trkpt>
<trkpt lat="45.8569370" lon="9.2316780">
	<ele>949.80</ele>
	<time>2025-02-15T08:53:08.000Z</time>
</trkpt>
<trkpt lat="45.8569370" lon="9.2316820">
	<ele>950.00</ele>
	<time>2025-02-15T08:53:09.000Z</time>
</trkpt>
<trkpt lat="45.8569370" lon="9.2316850">
	<ele>950.00</ele>
	<time>2025-02-15T08:53:10.000Z</time>
</trkpt>
<trkpt lat="45.8569420" lon="9.2316860">
	<ele>950.00</ele>
	<time>2025-02-15T08:53:11.000Z</time>
</trkpt>
<trkpt lat="45.8569540" lon="9.2316780">
	<ele>950.00</ele>
	<time>2025-02-15T08:53:12.000Z</time>
</trkpt>
<trkpt lat="45.8569600" lon="9.2316790">
	<ele>950.00</ele>
	<time>2025-02-15T08:53:13.000Z</time>
</trkpt>
<trkpt lat="45.8569660" lon="9.2316870">
	<ele>950.20</ele>
	<time>2025-02-15T08:53:14.000Z</time>
</trkpt>
<trkpt lat="45.8569740" lon="9.2316850">
	<ele>950.20</ele>
	<time>2025-02-15T08:53:15.000Z</time>
</trkpt>
<trkpt lat="45.8569770" lon="9.2316910">
	<ele>950.40</ele>
	<time>2025-02-15T08:53:16.000Z</time>
</trkpt>
<trkpt lat="45.8569820" lon="9.2316850">
	<ele>950.40</ele>
	<time>2025-02-15T08:53:17.000Z</time>
</trkpt>
<trkpt lat="45.8569870" lon="9.2316770">
	<ele>950.40</ele>
	<time>2025-02-15T08:53:18.000Z</time>
</trkpt>
<trkpt lat="45.8569960" lon="9.2316700">
	<ele>950.60</ele>
	<time>2025-02-15T08:53:19.000Z</time>
</trkpt>
<trkpt lat="45.8570050" lon="9.2316550">
	<ele>950.40</ele>
	<time>2025-02-15T08:53:20.000Z</time>
</trkpt>
<trkpt lat="45.8570100" lon="9.2316520">
	<ele>950.40</ele>
	<time>2025-02-15T08:53:21.000Z</time>
</trkpt>
<trkpt lat="45.8570230" lon="9.2316600">
	<ele>950.40</ele>
	<time>2025-02-15T08:53:22.000Z</time>
</trkpt>
<trkpt lat="45.8570380" lon="9.2316760">
	<ele>950.40</ele>
	<time>2025-02-15T08:53:23.000Z</time>
</trkpt>
<trkpt lat="45.8570520" lon="9.2316900">
	<ele>950.60</ele>
	<time>2025-02-15T08:53:24.000Z</time>
</trkpt>
<trkpt lat="45.8570580" lon="9.2317020">
	<ele>950.60</ele>
	<time>2025-02-15T08:53:25.000Z</time>
</trkpt>
<trkpt lat="45.8570650" lon="9.2317080">
	<ele>950.40</ele>
	<time>2025-02-15T08:53:26.000Z</time>
</trkpt>
<trkpt lat="45.8570720" lon="9.2317090">
	<ele>950.40</ele>
	<time>2025-02-15T08:53:27.000Z</time>
</trkpt>
<trkpt lat="45.8570710" lon="9.2317230">
	<ele>950.60</ele>
	<time>2025-02-15T08:53:28.000Z</time>
</trkpt>
<trkpt lat="45.8570780" lon="9.2317290">
	<ele>950.40</ele>
	<time>2025-02-15T08:53:29.000Z</time>
</trkpt>
<trkpt lat="45.8570790" lon="9.2317390">
	<ele>950.60</ele>
	<time>2025-02-15T08:53:30.000Z</time>
</trkpt>
<trkpt lat="45.8570850" lon="9.2317520">
	<ele>950.80</ele>
	<time>2025-02-15T08:53:31.000Z</time>
</trkpt>
<trkpt lat="45.8570900" lon="9.2317530">
	<ele>951.20</ele>
	<time>2025-02-15T08:53:32.000Z</time>
</trkpt>
<trkpt lat="45.8571040" lon="9.2317530">
	<ele>951.20</ele>
	<time>2025-02-15T08:53:33.000Z</time>
</trkpt>
<trkpt lat="45.8571120" lon="9.2317620">
	<ele>951.40</ele>
	<time>2025-02-15T08:53:34.000Z</time>
</trkpt>
<trkpt lat="45.8571210" lon="9.2317600">
	<ele>951.40</ele>
	<time>2025-02-15T08:53:35.000Z</time>
</trkpt>
<trkpt lat="45.8571310" lon="9.2317620">
	<ele>951.40</ele>
	<time>2025-02-15T08:53:36.000Z</time>
</trkpt>
<trkpt lat="45.8571380" lon="9.2317560">
	<ele>951.40</ele>
	<time>2025-02-15T08:53:37.000Z</time>
</trkpt>
<trkpt lat="45.8571400" lon="9.2317510">
	<ele>951.40</ele>
	<time>2025-02-15T08:53:38.000Z</time>
</trkpt>
<trkpt lat="45.8571410" lon="9.2317470">
	<ele>951.40</ele>
	<time>2025-02-15T08:53:39.000Z</time>
</trkpt>
<trkpt lat="45.8571420" lon="9.2317480">
	<ele>951.40</ele>
	<time>2025-02-15T08:53:40.000Z</time>
</trkpt>
<trkpt lat="45.8571430" lon="9.2317510">
	<ele>951.40</ele>
	<time>2025-02-15T08:53:41.000Z</time>
</trkpt>
<trkpt lat="45.8571460" lon="9.2317520">
	<ele>951.40</ele>
	<time>2025-02-15T08:53:42.000Z</time>
</trkpt>
<trkpt lat="45.8571450" lon="9.2317650">
	<ele>951.40</ele>
	<time>2025-02-15T08:53:43.000Z</time>
</trkpt>
<trkpt lat="45.8571450" lon="9.2317660">
	<ele>951.40</ele>
	<time>2025-02-15T08:53:44.000Z</time>
</trkpt>
<trkpt lat="45.8571440" lon="9.2317680">
	<ele>951.40</ele>
	<time>2025-02-15T08:53:45.000Z</time>
</trkpt>
<trkpt lat="45.8571440" lon="9.2317700">
	<ele>951.40</ele>
	<time>2025-02-15T08:53:46.000Z</time>
</trkpt>
<trkpt lat="45.8571430" lon="9.2317720">
	<ele>951.40</ele>
	<time>2025-02-15T08:53:47.000Z</time>
</trkpt>
<trkpt lat="45.8571420" lon="9.2317770">
	<ele>951.40</ele>
	<time>2025-02-15T08:53:48.000Z</time>
</trkpt>
<trkpt lat="45.8571460" lon="9.2317810">
	<ele>951.40</ele>
	<time>2025-02-15T08:53:49.000Z</time>
</trkpt>
<trkpt lat="45.8571460" lon="9.2317850">
	<ele>951.60</ele>
	<time>2025-02-15T08:53:50.000Z</time>
</trkpt>
<trkpt lat="45.8571450" lon="9.2317880">
	<ele>951.60</ele>
	<time>2025-02-15T08:53:51.000Z</time>
</trkpt>
<trkpt lat="45.8571430" lon="9.2317990">
	<ele>951.60</ele>
	<time>2025-02-15T08:53:52.000Z</time>
</trkpt>
<trkpt lat="45.8571410" lon="9.2318050">
	<ele>951.60</ele>
	<time>2025-02-15T08:53:53.000Z</time>
</trkpt>
<trkpt lat="45.8571450" lon="9.2318000">
	<ele>951.60</ele>
	<time>2025-02-15T08:53:54.000Z</time>
</trkpt>
<trkpt lat="45.8571460" lon="9.2318070">
	<ele>951.60</ele>
	<time>2025-02-15T08:53:55.000Z</time>
</trkpt>
<trkpt lat="45.8571530" lon="9.2318090">
	<ele>951.40</ele>
	<time>2025-02-15T08:53:56.000Z</time>
</trkpt>
<trkpt lat="45.8571570" lon="9.2318140">
	<ele>951.40</ele>
	<time>2025-02-15T08:53:57.000Z</time>
</trkpt>
<trkpt lat="45.8571640" lon="9.2318220">
	<ele>951.40</ele>
	<time>2025-02-15T08:53:58.000Z</time>
</trkpt>
<trkpt lat="45.8571740" lon="9.2318260">
	<ele>951.40</ele>
	<time>2025-02-15T08:53:59.000Z</time>
</trkpt>
<trkpt lat="45.8571820" lon="9.2318270">
	<ele>951.40</ele>
	<time>2025-02-15T08:54:00.000Z</time>
</trkpt>
<trkpt lat="45.8571860" lon="9.2318360">
	<ele>951.40</ele>
	<time>2025-02-15T08:54:01.000Z</time>
</trkpt>
<trkpt lat="45.8571940" lon="9.2318410">
	<ele>951.40</ele>
	<time>2025-02-15T08:54:02.000Z</time>
</trkpt>
<trkpt lat="45.8572040" lon="9.2318490">
	<ele>951.40</ele>
	<time>2025-02-15T08:54:03.000Z</time>
</trkpt>
<trkpt lat="45.8572160" lon="9.2318560">
	<ele>951.40</ele>
	<time>2025-02-15T08:54:04.000Z</time>
</trkpt>
<trkpt lat="45.8572280" lon="9.2318650">
	<ele>951.40</ele>
	<time>2025-02-15T08:54:05.000Z</time>
</trkpt>
<trkpt lat="45.8572400" lon="9.2318700">
	<ele>951.40</ele>
	<time>2025-02-15T08:54:06.000Z</time>
</trkpt>
<trkpt lat="45.8572490" lon="9.2318740">
	<ele>951.60</ele>
	<time>2025-02-15T08:54:07.000Z</time>
</trkpt>
<trkpt lat="45.8572550" lon="9.2318810">
	<ele>951.60</ele>
	<time>2025-02-15T08:54:08.000Z</time>
</trkpt>
<trkpt lat="45.8572570" lon="9.2318970">
	<ele>951.80</ele>
	<time>2025-02-15T08:54:09.000Z</time>
</trkpt>
<trkpt lat="45.8572660" lon="9.2319080">
	<ele>952.00</ele>
	<time>2025-02-15T08:54:10.000Z</time>
</trkpt>
<trkpt lat="45.8572760" lon="9.2319130">
	<ele>952.00</ele>
	<time>2025-02-15T08:54:11.000Z</time>
</trkpt>
<trkpt lat="45.8572870" lon="9.2319130">
	<ele>952.00</ele>
	<time>2025-02-15T08:54:12.000Z</time>
</trkpt>
<trkpt lat="45.8572930" lon="9.2319220">
	<ele>952.20</ele>
	<time>2025-02-15T08:54:13.000Z</time>
</trkpt>
<trkpt lat="45.8573020" lon="9.2319300">
	<ele>952.20</ele>
	<time>2025-02-15T08:54:14.000Z</time>
</trkpt>
<trkpt lat="45.8573140" lon="9.2319280">
	<ele>952.20</ele>
	<time>2025-02-15T08:54:15.000Z</time>
</trkpt>
<trkpt lat="45.8573290" lon="9.2319180">
	<ele>952.40</ele>
	<time>2025-02-15T08:54:16.000Z</time>
</trkpt>
<trkpt lat="45.8573400" lon="9.2319140">
	<ele>952.40</ele>
	<time>2025-02-15T08:54:17.000Z</time>
</trkpt>
<trkpt lat="45.8573450" lon="9.2319260">
	<ele>952.40</ele>
	<time>2025-02-15T08:54:18.000Z</time>
</trkpt>
<trkpt lat="45.8573530" lon="9.2319330">
	<ele>952.40</ele>
	<time>2025-02-15T08:54:19.000Z</time>
</trkpt>
<trkpt lat="45.8573530" lon="9.2319410">
	<ele>952.40</ele>
	<time>2025-02-15T08:54:20.000Z</time>
</trkpt>
<trkpt lat="45.8573570" lon="9.2319440">
	<ele>952.40</ele>
	<time>2025-02-15T08:54:21.000Z</time>
</trkpt>
<trkpt lat="45.8573610" lon="9.2319510">
	<ele>952.40</ele>
	<time>2025-02-15T08:54:22.000Z</time>
</trkpt>
<trkpt lat="45.8573660" lon="9.2319540">
	<ele>952.60</ele>
	<time>2025-02-15T08:54:23.000Z</time>
</trkpt>
<trkpt lat="45.8573670" lon="9.2319570">
	<ele>952.60</ele>
	<time>2025-02-15T08:54:24.000Z</time>
</trkpt>
<trkpt lat="45.8573650" lon="9.2319610">
	<ele>952.60</ele>
	<time>2025-02-15T08:54:25.000Z</time>
</trkpt>
<trkpt lat="45.8573630" lon="9.2319620">
	<ele>952.60</ele>
	<time>2025-02-15T08:54:26.000Z</time>
</trkpt>
<trkpt lat="45.8573650" lon="9.2319620">
	<ele>952.60</ele>
	<time>2025-02-15T08:54:27.000Z</time>
</trkpt>
<trkpt lat="45.8573770" lon="9.2319500">
	<ele>952.60</ele>
	<time>2025-02-15T08:54:28.000Z</time>
</trkpt>
<trkpt lat="45.8573790" lon="9.2319450">
	<ele>952.80</ele>
	<time>2025-02-15T08:54:29.000Z</time>
</trkpt>
<trkpt lat="45.8573860" lon="9.2319280">
	<ele>952.60</ele>
	<time>2025-02-15T08:54:30.000Z</time>
</trkpt>
<trkpt lat="45.8573870" lon="9.2319230">
	<ele>952.60</ele>
	<time>2025-02-15T08:54:31.000Z</time>
</trkpt>
<trkpt lat="45.8573850" lon="9.2319050">
	<ele>952.60</ele>
	<time>2025-02-15T08:54:32.000Z</time>
</trkpt>
<trkpt lat="45.8573820" lon="9.2318920">
	<ele>952.80</ele>
	<time>2025-02-15T08:54:33.000Z</time>
</trkpt>
<trkpt lat="45.8573810" lon="9.2318780">
	<ele>952.80</ele>
	<time>2025-02-15T08:54:34.000Z</time>
</trkpt>
<trkpt lat="45.8573830" lon="9.2318670">
	<ele>952.80</ele>
	<time>2025-02-15T08:54:35.000Z</time>
</trkpt>
<trkpt lat="45.8573800" lon="9.2318670">
	<ele>953.00</ele>
	<time>2025-02-15T08:54:36.000Z</time>
</trkpt>
<trkpt lat="45.8573810" lon="9.2318550">
	<ele>953.20</ele>
	<time>2025-02-15T08:54:37.000Z</time>
</trkpt>
<trkpt lat="45.8573850" lon="9.2318400">
	<ele>953.20</ele>
	<time>2025-02-15T08:54:38.000Z</time>
</trkpt>
<trkpt lat="45.8573880" lon="9.2318260">
	<ele>953.40</ele>
	<time>2025-02-15T08:54:39.000Z</time>
</trkpt>
<trkpt lat="45.8573910" lon="9.2318120">
	<ele>953.40</ele>
	<time>2025-02-15T08:54:40.000Z</time>
</trkpt>
<trkpt lat="45.8573900" lon="9.2318010">
	<ele>953.60</ele>
	<time>2025-02-15T08:54:41.000Z</time>
</trkpt>
<trkpt lat="45.8573860" lon="9.2317850">
	<ele>953.80</ele>
	<time>2025-02-15T08:54:42.000Z</time>
</trkpt>
<trkpt lat="45.8573910" lon="9.2317610">
	<ele>954.00</ele>
	<time>2025-02-15T08:54:43.000Z</time>
</trkpt>
<trkpt lat="45.8573970" lon="9.2317420">
	<ele>954.20</ele>
	<time>2025-02-15T08:54:44.000Z</time>
</trkpt>
<trkpt lat="45.8574050" lon="9.2317250">
	<ele>954.40</ele>
	<time>2025-02-15T08:54:45.000Z</time>
</trkpt>
<trkpt lat="45.8574090" lon="9.2317110">
	<ele>954.60</ele>
	<time>2025-02-15T08:54:46.000Z</time>
</trkpt>
<trkpt lat="45.8574110" lon="9.2316980">
	<ele>954.80</ele>
	<time>2025-02-15T08:54:47.000Z</time>
</trkpt>
<trkpt lat="45.8574170" lon="9.2316890">
	<ele>954.80</ele>
	<time>2025-02-15T08:54:48.000Z</time>
</trkpt>
<trkpt lat="45.8574190" lon="9.2316850">
	<ele>955.00</ele>
	<time>2025-02-15T08:54:49.000Z</time>
</trkpt>
<trkpt lat="45.8574200" lon="9.2316750">
	<ele>955.40</ele>
	<time>2025-02-15T08:54:50.000Z</time>
</trkpt>
<trkpt lat="45.8574300" lon="9.2316570">
	<ele>955.60</ele>
	<time>2025-02-15T08:54:51.000Z</time>
</trkpt>
<trkpt lat="45.8574370" lon="9.2316430">
	<ele>955.80</ele>
	<time>2025-02-15T08:54:52.000Z</time>
</trkpt>
<trkpt lat="45.8574380" lon="9.2316270">
	<ele>955.80</ele>
	<time>2025-02-15T08:54:53.000Z</time>
</trkpt>
<trkpt lat="45.8574330" lon="9.2316200">
	<ele>956.20</ele>
	<time>2025-02-15T08:54:54.000Z</time>
</trkpt>
<trkpt lat="45.8574280" lon="9.2316140">
	<ele>956.40</ele>
	<time>2025-02-15T08:54:55.000Z</time>
</trkpt>
<trkpt lat="45.8574250" lon="9.2316090">
	<ele>956.60</ele>
	<time>2025-02-15T08:54:56.000Z</time>
</trkpt>
<trkpt lat="45.8574160" lon="9.2316110">
	<ele>956.80</ele>
	<time>2025-02-15T08:54:57.000Z</time>
</trkpt>
<trkpt lat="45.8574090" lon="9.2316060">
	<ele>957.20</ele>
	<time>2025-02-15T08:54:58.000Z</time>
</trkpt>
<trkpt lat="45.8574030" lon="9.2316030">
	<ele>957.20</ele>
	<time>2025-02-15T08:54:59.000Z</time>
</trkpt>
<trkpt lat="45.8574000" lon="9.2315980">
	<ele>957.40</ele>
	<time>2025-02-15T08:55:00.000Z</time>
</trkpt>
<trkpt lat="45.8573980" lon="9.2315810">
	<ele>957.40</ele>
	<time>2025-02-15T08:55:01.000Z</time>
</trkpt>
<trkpt lat="45.8573980" lon="9.2315630">
	<ele>957.60</ele>
	<time>2025-02-15T08:55:02.000Z</time>
</trkpt>
<trkpt lat="45.8573950" lon="9.2315550">
	<ele>958.00</ele>
	<time>2025-02-15T08:55:03.000Z</time>
</trkpt>
<trkpt lat="45.8573940" lon="9.2315420">
	<ele>958.20</ele>
	<time>2025-02-15T08:55:04.000Z</time>
</trkpt>
<trkpt lat="45.8573870" lon="9.2315430">
	<ele>958.40</ele>
	<time>2025-02-15T08:55:05.000Z</time>
</trkpt>
<trkpt lat="45.8573780" lon="9.2315420">
	<ele>958.40</ele>
	<time>2025-02-15T08:55:06.000Z</time>
</trkpt>
<trkpt lat="45.8573730" lon="9.2315390">
	<ele>958.80</ele>
	<time>2025-02-15T08:55:07.000Z</time>
</trkpt>
<trkpt lat="45.8573730" lon="9.2315350">
	<ele>959.00</ele>
	<time>2025-02-15T08:55:08.000Z</time>
</trkpt>
<trkpt lat="45.8573730" lon="9.2315300">
	<ele>959.20</ele>
	<time>2025-02-15T08:55:09.000Z</time>
</trkpt>
<trkpt lat="45.8573700" lon="9.2315250">
	<ele>959.40</ele>
	<time>2025-02-15T08:55:10.000Z</time>
</trkpt>
<trkpt lat="45.8573680" lon="9.2315180">
	<ele>959.60</ele>
	<time>2025-02-15T08:55:11.000Z</time>
</trkpt>
<trkpt lat="45.8573660" lon="9.2315090">
	<ele>959.80</ele>
	<time>2025-02-15T08:55:12.000Z</time>
</trkpt>
<trkpt lat="45.8573610" lon="9.2315030">
	<ele>960.00</ele>
	<time>2025-02-15T08:55:13.000Z</time>
</trkpt>
<trkpt lat="45.8573550" lon="9.2314970">
	<ele>960.20</ele>
	<time>2025-02-15T08:55:14.000Z</time>
</trkpt>
<trkpt lat="45.8573470" lon="9.2314910">
	<ele>960.40</ele>
	<time>2025-02-15T08:55:15.000Z</time>
</trkpt>
<trkpt lat="45.8573420" lon="9.2314840">
	<ele>960.60</ele>
	<time>2025-02-15T08:55:16.000Z</time>
</trkpt>
<trkpt lat="45.8573400" lon="9.2314810">
	<ele>960.80</ele>
	<time>2025-02-15T08:55:17.000Z</time>
</trkpt>
<trkpt lat="45.8573400" lon="9.2314770">
	<ele>961.00</ele>
	<time>2025-02-15T08:55:18.000Z</time>
</trkpt>
<trkpt lat="45.8573340" lon="9.2314820">
	<ele>961.20</ele>
	<time>2025-02-15T08:55:19.000Z</time>
</trkpt>
<trkpt lat="45.8573310" lon="9.2314850">
	<ele>961.60</ele>
	<time>2025-02-15T08:55:20.000Z</time>
</trkpt>
<trkpt lat="45.8573270" lon="9.2314890">
	<ele>961.80</ele>
	<time>2025-02-15T08:55:21.000Z</time>
</trkpt>
<trkpt lat="45.8573250" lon="9.2315030">
	<ele>962.00</ele>
	<time>2025-02-15T08:55:22.000Z</time>
</trkpt>
<trkpt lat="45.8573190" lon="9.2315170">
	<ele>962.20</ele>
	<time>2025-02-15T08:55:23.000Z</time>
</trkpt>
<trkpt lat="45.8573190" lon="9.2315180">
	<ele>962.40</ele>
	<time>2025-02-15T08:55:24.000Z</time>
</trkpt>
<trkpt lat="45.8573190" lon="9.2315160">
	<ele>962.40</ele>
	<time>2025-02-15T08:55:25.000Z</time>
</trkpt>
<trkpt lat="45.8573180" lon="9.2315160">
	<ele>962.60</ele>
	<time>2025-02-15T08:55:26.000Z</time>
</trkpt>
<trkpt lat="45.8573150" lon="9.2315250">
	<ele>962.60</ele>
	<time>2025-02-15T08:55:27.000Z</time>
</trkpt>
<trkpt lat="45.8573140" lon="9.2315310">
	<ele>962.60</ele>
	<time>2025-02-15T08:55:28.000Z</time>
</trkpt>
<trkpt lat="45.8573110" lon="9.2315370">
	<ele>962.60</ele>
	<time>2025-02-15T08:55:29.000Z</time>
</trkpt>
<trkpt lat="45.8573070" lon="9.2315280">
	<ele>962.60</ele>
	<time>2025-02-15T08:55:30.000Z</time>
</trkpt>
<trkpt lat="45.8573050" lon="9.2315240">
	<ele>962.40</ele>
	<time>2025-02-15T08:55:31.000Z</time>
</trkpt>
<trkpt lat="45.8573030" lon="9.2315150">
	<ele>962.40</ele>
	<time>2025-02-15T08:55:32.000Z</time>
</trkpt>
<trkpt lat="45.8573000" lon="9.2315120">
	<ele>962.40</ele>
	<time>2025-02-15T08:55:33.000Z</time>
</trkpt>
<trkpt lat="45.8572990" lon="9.2315040">
	<ele>962.40</ele>
	<time>2025-02-15T08:55:34.000Z</time>
</trkpt>
<trkpt lat="45.8572950" lon="9.2315030">
	<ele>962.80</ele>
	<time>2025-02-15T08:55:35.000Z</time>
</trkpt>
<trkpt lat="45.8572930" lon="9.2314990">
	<ele>962.80</ele>
	<time>2025-02-15T08:55:36.000Z</time>
</trkpt>
<trkpt lat="45.8572910" lon="9.2314990">
	<ele>963.00</ele>
	<time>2025-02-15T08:55:37.000Z</time>
</trkpt>
<trkpt lat="45.8572870" lon="9.2315030">
	<ele>963.20</ele>
	<time>2025-02-15T08:55:38.000Z</time>
</trkpt>
<trkpt lat="45.8572820" lon="9.2315030">
	<ele>963.20</ele>
	<time>2025-02-15T08:55:39.000Z</time>
</trkpt>
<trkpt lat="45.8572800" lon="9.2314980">
	<ele>963.40</ele>
	<time>2025-02-15T08:55:40.000Z</time>
</trkpt>
<trkpt lat="45.8572790" lon="9.2314950">
	<ele>963.40</ele>
	<time>2025-02-15T08:55:41.000Z</time>
</trkpt>
<trkpt lat="45.8572800" lon="9.2314960">
	<ele>963.80</ele>
	<time>2025-02-15T08:55:42.000Z</time>
</trkpt>
<trkpt lat="45.8572870" lon="9.2314900">
	<ele>964.00</ele>
	<time>2025-02-15T08:55:43.000Z</time>
</trkpt>
<trkpt lat="45.8572980" lon="9.2314800">
	<ele>964.00</ele>
	<time>2025-02-15T08:55:44.000Z</time>
</trkpt>
<trkpt lat="45.8573060" lon="9.2314730">
	<ele>964.20</ele>
	<time>2025-02-15T08:55:45.000Z</time>
</trkpt>
<trkpt lat="45.8573090" lon="9.2314700">
	<ele>964.40</ele>
	<time>2025-02-15T08:55:46.000Z</time>
</trkpt>
<trkpt lat="45.8573130" lon="9.2314640">
	<ele>964.40</ele>
	<time>2025-02-15T08:55:47.000Z</time>
</trkpt>
<trkpt lat="45.8573160" lon="9.2314680">
	<ele>964.40</ele>
	<time>2025-02-15T08:55:48.000Z</time>
</trkpt>
<trkpt lat="45.8573210" lon="9.2314680">
	<ele>964.60</ele>
	<time>2025-02-15T08:55:49.000Z</time>
</trkpt>
<trkpt lat="45.8573220" lon="9.2314660">
	<ele>964.60</ele>
	<time>2025-02-15T08:55:50.000Z</time>
</trkpt>
<trkpt lat="45.8573310" lon="9.2314480">
	<ele>964.60</ele>
	<time>2025-02-15T08:55:51.000Z</time>
</trkpt>
<trkpt lat="45.8573390" lon="9.2314230">
	<ele>964.60</ele>
	<time>2025-02-15T08:55:52.000Z</time>
</trkpt>
<trkpt lat="45.8573450" lon="9.2314070">
	<ele>964.60</ele>
	<time>2025-02-15T08:55:53.000Z</time>
</trkpt>
<trkpt lat="45.8573450" lon="9.2314040">
	<ele>964.60</ele>
	<time>2025-02-15T08:55:54.000Z</time>
</trkpt>
<trkpt lat="45.8573470" lon="9.2314020">
	<ele>964.60</ele>
	<time>2025-02-15T08:55:55.000Z</time>
</trkpt>
<trkpt lat="45.8573500" lon="9.2314000">
	<ele>964.60</ele>
	<time>2025-02-15T08:55:56.000Z</time>
</trkpt>
<trkpt lat="45.8573490" lon="9.2314010">
	<ele>964.80</ele>
	<time>2025-02-15T08:55:57.000Z</time>
</trkpt>
<trkpt lat="45.8573480" lon="9.2314080">
	<ele>964.80</ele>
	<time>2025-02-15T08:55:58.000Z</time>
</trkpt>
<trkpt lat="45.8573480" lon="9.2314060">
	<ele>964.80</ele>
	<time>2025-02-15T08:55:59.000Z</time>
</trkpt>
<trkpt lat="45.8573540" lon="9.2314010">
	<ele>965.00</ele>
	<time>2025-02-15T08:56:00.000Z</time>
</trkpt>
<trkpt lat="45.8573580" lon="9.2313990">
	<ele>965.00</ele>
	<time>2025-02-15T08:56:01.000Z</time>
</trkpt>
<trkpt lat="45.8573620" lon="9.2313970">
	<ele>965.00</ele>
	<time>2025-02-15T08:56:02.000Z</time>
</trkpt>
<trkpt lat="45.8573610" lon="9.2314050">
	<ele>965.00</ele>
	<time>2025-02-15T08:56:03.000Z</time>
</trkpt>
<trkpt lat="45.8573610" lon="9.2314110">
	<ele>965.00</ele>
	<time>2025-02-15T08:56:04.000Z</time>
</trkpt>
<trkpt lat="45.8573630" lon="9.2314070">
	<ele>965.00</ele>
	<time>2025-02-15T08:56:05.000Z</time>
</trkpt>
<trkpt lat="45.8573640" lon="9.2314150">
	<ele>965.00</ele>
	<time>2025-02-15T08:56:06.000Z</time>
</trkpt>
<trkpt lat="45.8573610" lon="9.2314270">
	<ele>965.00</ele>
	<time>2025-02-15T08:56:07.000Z</time>
</trkpt>
<trkpt lat="45.8573580" lon="9.2314330">
	<ele>964.80</ele>
	<time>2025-02-15T08:56:08.000Z</time>
</trkpt>
<trkpt lat="45.8573610" lon="9.2314340">
	<ele>964.80</ele>
	<time>2025-02-15T08:56:09.000Z</time>
</trkpt>
<trkpt lat="45.8573630" lon="9.2314400">
	<ele>964.60</ele>
	<time>2025-02-15T08:56:10.000Z</time>
</trkpt>
<trkpt lat="45.8573600" lon="9.2314420">
	<ele>964.40</ele>
	<time>2025-02-15T08:56:11.000Z</time>
</trkpt>
<trkpt lat="45.8573590" lon="9.2314450">
	<ele>964.40</ele>
	<time>2025-02-15T08:56:12.000Z</time>
</trkpt>
<trkpt lat="45.8573600" lon="9.2314450">
	<ele>964.40</ele>
	<time>2025-02-15T08:56:13.000Z</time>
</trkpt>
<trkpt lat="45.8573640" lon="9.2314440">
	<ele>964.40</ele>
	<time>2025-02-15T08:56:14.000Z</time>
</trkpt>
<trkpt lat="45.8573650" lon="9.2314420">
	<ele>964.40</ele>
	<time>2025-02-15T08:56:15.000Z</time>
</trkpt>
<trkpt lat="45.8573650" lon="9.2314420">
	<ele>964.40</ele>
	<time>2025-02-15T08:56:16.000Z</time>
</trkpt>
<trkpt lat="45.8573650" lon="9.2314420">
	<ele>964.60</ele>
	<time>2025-02-15T08:56:17.000Z</time>
</trkpt>
<trkpt lat="45.8573650" lon="9.2314420">
	<ele>964.60</ele>
	<time>2025-02-15T08:56:18.000Z</time>
</trkpt>
<trkpt lat="45.8573650" lon="9.2314420">
	<ele>964.40</ele>
	<time>2025-02-15T08:56:19.000Z</time>
</trkpt>
<trkpt lat="45.8573650" lon="9.2314420">
	<ele>964.40</ele>
	<time>2025-02-15T08:56:20.000Z</time>
</trkpt>
<trkpt lat="45.8573650" lon="9.2314420">
	<ele>964.40</ele>
	<time>2025-02-15T08:56:21.000Z</time>
</trkpt>
<trkpt lat="45.8573630" lon="9.2314460">
	<ele>964.40</ele>
	<time>2025-02-15T08:56:22.000Z</time>
</trkpt>
<trkpt lat="45.8573600" lon="9.2314570">
	<ele>964.40</ele>
	<time>2025-02-15T08:56:23.000Z</time>
</trkpt>
<trkpt lat="45.8573590" lon="9.2314680">
	<ele>964.40</ele>
	<time>2025-02-15T08:56:24.000Z</time>
</trkpt>
<trkpt lat="45.8573570" lon="9.2314750">
	<ele>964.40</ele>
	<time>2025-02-15T08:56:25.000Z</time>
</trkpt>
<trkpt lat="45.8573560" lon="9.2314770">
	<ele>964.40</ele>
	<time>2025-02-15T08:56:26.000Z</time>
</trkpt>
<trkpt lat="45.8573560" lon="9.2314770">
	<ele>964.40</ele>
	<time>2025-02-15T08:56:27.000Z</time>
</trkpt>
<trkpt lat="45.8573560" lon="9.2314770">
	<ele>964.40</ele>
	<time>2025-02-15T08:56:28.000Z</time>
</trkpt>
<trkpt lat="45.8573560" lon="9.2314770">
	<ele>964.40</ele>
	<time>2025-02-15T08:56:29.000Z</time>
</trkpt>
<trkpt lat="45.8573560" lon="9.2314770">
	<ele>964.40</ele>
	<time>2025-02-15T08:56:30.000Z</time>
</trkpt>
<trkpt lat="45.8573560" lon="9.2314770">
	<ele>964.40</ele>
	<time>2025-02-15T08:56:31.000Z</time>
</trkpt>
<trkpt lat="45.8573560" lon="9.2314770">
	<ele>964.40</ele>
	<time>2025-02-15T08:56:32.000Z</time>
</trkpt>
<trkpt lat="45.8573560" lon="9.2314770">
	<ele>964.40</ele>
	<time>2025-02-15T08:56:33.000Z</time>
</trkpt>
<trkpt lat="45.8573560" lon="9.2314770">
	<ele>964.40</ele>
	<time>2025-02-15T08:56:34.000Z</time>
</trkpt>
<trkpt lat="45.8573560" lon="9.2314770">
	<ele>964.40</ele>
	<time>2025-02-15T08:56:35.000Z</time>
</trkpt>
<trkpt lat="45.8573560" lon="9.2314750">
	<ele>964.40</ele>
	<time>2025-02-15T08:56:36.000Z</time>
</trkpt>
<trkpt lat="45.8573580" lon="9.2314710">
	<ele>964.40</ele>
	<time>2025-02-15T08:56:37.000Z</time>
</trkpt>
<trkpt lat="45.8573590" lon="9.2314670">
	<ele>964.40</ele>
	<time>2025-02-15T08:56:38.000Z</time>
</trkpt>
<trkpt lat="45.8573610" lon="9.2314650">
	<ele>964.40</ele>
	<time>2025-02-15T08:56:39.000Z</time>
</trkpt>
<trkpt lat="45.8573630" lon="9.2314630">
	<ele>964.40</ele>
	<time>2025-02-15T08:56:40.000Z</time>
</trkpt>
<trkpt lat="45.8573680" lon="9.2314610">
	<ele>964.40</ele>
	<time>2025-02-15T08:56:41.000Z</time>
</trkpt>
<trkpt lat="45.8573700" lon="9.2314640">
	<ele>964.40</ele>
	<time>2025-02-15T08:56:42.000Z</time>
</trkpt>
<trkpt lat="45.8573700" lon="9.2314610">
	<ele>964.40</ele>
	<time>2025-02-15T08:56:43.000Z</time>
</trkpt>
<trkpt lat="45.8573700" lon="9.2314610">
	<ele>964.40</ele>
	<time>2025-02-15T08:56:44.000Z</time>
</trkpt>
<trkpt lat="45.8573710" lon="9.2314630">
	<ele>964.40</ele>
	<time>2025-02-15T08:56:45.000Z</time>
</trkpt>
<trkpt lat="45.8573700" lon="9.2314640">
	<ele>964.40</ele>
	<time>2025-02-15T08:56:46.000Z</time>
</trkpt>
<trkpt lat="45.8573700" lon="9.2314620">
	<ele>964.40</ele>
	<time>2025-02-15T08:56:47.000Z</time>
</trkpt>
<trkpt lat="45.8573630" lon="9.2314680">
	<ele>964.40</ele>
	<time>2025-02-15T08:56:48.000Z</time>
</trkpt>
<trkpt lat="45.8573610" lon="9.2314670">
	<ele>964.40</ele>
	<time>2025-02-15T08:56:49.000Z</time>
</trkpt>
<trkpt lat="45.8573590" lon="9.2314700">
	<ele>964.40</ele>
	<time>2025-02-15T08:56:50.000Z</time>
</trkpt>
<trkpt lat="45.8573600" lon="9.2314680">
	<ele>964.40</ele>
	<time>2025-02-15T08:56:51.000Z</time>
</trkpt>
<trkpt lat="45.8573600" lon="9.2314680">
	<ele>964.40</ele>
	<time>2025-02-15T08:56:52.000Z</time>
</trkpt>
<trkpt lat="45.8573600" lon="9.2314680">
	<ele>964.40</ele>
	<time>2025-02-15T08:56:53.000Z</time>
</trkpt>
<trkpt lat="45.8573600" lon="9.2314680">
	<ele>964.40</ele>
	<time>2025-02-15T08:56:54.000Z</time>
</trkpt>
<trkpt lat="45.8573600" lon="9.2314680">
	<ele>964.40</ele>
	<time>2025-02-15T08:56:55.000Z</time>
</trkpt>
<trkpt lat="45.8573600" lon="9.2314680">
	<ele>964.40</ele>
	<time>2025-02-15T08:56:56.000Z</time>
</trkpt>
<trkpt lat="45.8573600" lon="9.2314680">
	<ele>964.40</ele>
	<time>2025-02-15T08:56:57.000Z</time>
</trkpt>
<trkpt lat="45.8573610" lon="9.2314670">
	<ele>964.40</ele>
	<time>2025-02-15T08:56:58.000Z</time>
</trkpt>
<trkpt lat="45.8573630" lon="9.2314660">
	<ele>964.40</ele>
	<time>2025-02-15T08:56:59.000Z</time>
</trkpt>
<trkpt lat="45.8573640" lon="9.2314640">
	<ele>964.40</ele>
	<time>2025-02-15T08:57:00.000Z</time>
</trkpt>
<trkpt lat="45.8573660" lon="9.2314780">
	<ele>964.40</ele>
	<time>2025-02-15T08:57:01.000Z</time>
</trkpt>
<trkpt lat="45.8573650" lon="9.2314780">
	<ele>964.40</ele>
	<time>2025-02-15T08:57:02.000Z</time>
</trkpt>
<trkpt lat="45.8573660" lon="9.2314780">
	<ele>964.40</ele>
	<time>2025-02-15T08:57:03.000Z</time>
</trkpt>
<trkpt lat="45.8573660" lon="9.2314780">
	<ele>964.40</ele>
	<time>2025-02-15T08:57:04.000Z</time>
</trkpt>
<trkpt lat="45.8573660" lon="9.2314780">
	<ele>964.40</ele>
	<time>2025-02-15T08:57:05.000Z</time>
</trkpt>
<trkpt lat="45.8573660" lon="9.2314780">
	<ele>964.40</ele>
	<time>2025-02-15T08:57:06.000Z</time>
</trkpt>
<trkpt lat="45.8573660" lon="9.2314780">
	<ele>964.40</ele>
	<time>2025-02-15T08:57:07.000Z</time>
</trkpt>
<trkpt lat="45.8573660" lon="9.2314780">
	<ele>964.40</ele>
	<time>2025-02-15T08:57:08.000Z</time>
</trkpt>
<trkpt lat="45.8573660" lon="9.2314780">
	<ele>964.40</ele>
	<time>2025-02-15T08:57:09.000Z</time>
</trkpt>
<trkpt lat="45.8573690" lon="9.2314780">
	<ele>964.40</ele>
	<time>2025-02-15T08:57:10.000Z</time>
</trkpt>
<trkpt lat="45.8573710" lon="9.2314780">
	<ele>964.40</ele>
	<time>2025-02-15T08:57:11.000Z</time>
</trkpt>
<trkpt lat="45.8573710" lon="9.2314780">
	<ele>964.40</ele>
	<time>2025-02-15T08:57:12.000Z</time>
</trkpt>
<trkpt lat="45.8573720" lon="9.2314780">
	<ele>964.40</ele>
	<time>2025-02-15T08:57:13.000Z</time>
</trkpt>
<trkpt lat="45.8573720" lon="9.2314780">
	<ele>964.40</ele>
	<time>2025-02-15T08:57:14.000Z</time>
</trkpt>
<trkpt lat="45.8573720" lon="9.2314780">
	<ele>964.40</ele>
	<time>2025-02-15T08:57:15.000Z</time>
</trkpt>
<trkpt lat="45.8573720" lon="9.2314780">
	<ele>964.40</ele>
	<time>2025-02-15T08:57:16.000Z</time>
</trkpt>
<trkpt lat="45.8573720" lon="9.2314780">
	<ele>964.40</ele>
	<time>2025-02-15T08:57:17.000Z</time>
</trkpt>
<trkpt lat="45.8573720" lon="9.2314780">
	<ele>964.40</ele>
	<time>2025-02-15T08:57:18.000Z</time>
</trkpt>
<trkpt lat="45.8573720" lon="9.2314780">
	<ele>964.40</ele>
	<time>2025-02-15T08:57:19.000Z</time>
</trkpt>
<trkpt lat="45.8573720" lon="9.2314780">
	<ele>964.40</ele>
	<time>2025-02-15T08:57:20.000Z</time>
</trkpt>
<trkpt lat="45.8573720" lon="9.2314780">
	<ele>964.20</ele>
	<time>2025-02-15T08:57:21.000Z</time>
</trkpt>
<trkpt lat="45.8573720" lon="9.2314780">
	<ele>964.20</ele>
	<time>2025-02-15T08:57:22.000Z</time>
</trkpt>
<trkpt lat="45.8573720" lon="9.2314780">
	<ele>964.00</ele>
	<time>2025-02-15T08:57:23.000Z</time>
</trkpt>
<trkpt lat="45.8573720" lon="9.2314780">
	<ele>964.00</ele>
	<time>2025-02-15T08:57:24.000Z</time>
</trkpt>
<trkpt lat="45.8573720" lon="9.2314800">
	<ele>963.80</ele>
	<time>2025-02-15T08:57:25.000Z</time>
</trkpt>
<trkpt lat="45.8573720" lon="9.2314800">
	<ele>963.80</ele>
	<time>2025-02-15T08:57:26.000Z</time>
</trkpt>
<trkpt lat="45.8573720" lon="9.2314810">
	<ele>963.80</ele>
	<time>2025-02-15T08:57:27.000Z</time>
</trkpt>
<trkpt lat="45.8573720" lon="9.2314820">
	<ele>963.40</ele>
	<time>2025-02-15T08:57:28.000Z</time>
</trkpt>
<trkpt lat="45.8573720" lon="9.2314820">
	<ele>963.20</ele>
	<time>2025-02-15T08:57:29.000Z</time>
</trkpt>
<trkpt lat="45.8573720" lon="9.2314820">
	<ele>963.00</ele>
	<time>2025-02-15T08:57:30.000Z</time>
</trkpt>
<trkpt lat="45.8573730" lon="9.2314960">
	<ele>962.80</ele>
	<time>2025-02-15T08:57:31.000Z</time>
</trkpt>
<trkpt lat="45.8573720" lon="9.2315220">
	<ele>962.60</ele>
	<time>2025-02-15T08:57:32.000Z</time>
</trkpt>
<trkpt lat="45.8573760" lon="9.2315340">
	<ele>962.20</ele>
	<time>2025-02-15T08:57:33.000Z</time>
</trkpt>
<trkpt lat="45.8573830" lon="9.2315440">
	<ele>961.80</ele>
	<time>2025-02-15T08:57:34.000Z</time>
</trkpt>
<trkpt lat="45.8573900" lon="9.2315510">
	<ele>961.60</ele>
	<time>2025-02-15T08:57:35.000Z</time>
</trkpt>
<trkpt lat="45.8573990" lon="9.2315650">
	<ele>961.40</ele>
	<time>2025-02-15T08:57:36.000Z</time>
</trkpt>
<trkpt lat="45.8574070" lon="9.2315840">
	<ele>961.00</ele>
	<time>2025-02-15T08:57:37.000Z</time>
</trkpt>
<trkpt lat="45.8574150" lon="9.2315990">
	<ele>960.80</ele>
	<time>2025-02-15T08:57:38.000Z</time>
</trkpt>
<trkpt lat="45.8574210" lon="9.2316130">
	<ele>960.60</ele>
	<time>2025-02-15T08:57:39.000Z</time>
</trkpt>
<trkpt lat="45.8574270" lon="9.2316270">
	<ele>960.40</ele>
	<time>2025-02-15T08:57:40.000Z</time>
</trkpt>
<trkpt lat="45.8574300" lon="9.2316330">
	<ele>960.00</ele>
	<time>2025-02-15T08:57:41.000Z</time>
</trkpt>
<trkpt lat="45.8574340" lon="9.2316340">
	<ele>959.80</ele>
	<time>2025-02-15T08:57:42.000Z</time>
</trkpt>
<trkpt lat="45.8574360" lon="9.2316380">
	<ele>959.60</ele>
	<time>2025-02-15T08:57:43.000Z</time>
</trkpt>
<trkpt lat="45.8574390" lon="9.2316420">
	<ele>959.40</ele>
	<time>2025-02-15T08:57:44.000Z</time>
</trkpt>
<trkpt lat="45.8574450" lon="9.2316490">
	<ele>959.20</ele>
	<time>2025-02-15T08:57:45.000Z</time>
</trkpt>
<trkpt lat="45.8574480" lon="9.2316590">
	<ele>958.80</ele>
	<time>2025-02-15T08:57:46.000Z</time>
</trkpt>
<trkpt lat="45.8574520" lon="9.2316670">
	<ele>958.60</ele>
	<time>2025-02-15T08:57:47.000Z</time>
</trkpt>
<trkpt lat="45.8574540" lon="9.2316770">
	<ele>958.40</ele>
	<time>2025-02-15T08:57:48.000Z</time>
</trkpt>
<trkpt lat="45.8574570" lon="9.2316830">
	<ele>958.20</ele>
	<time>2025-02-15T08:57:49.000Z</time>
</trkpt>
<trkpt lat="45.8574630" lon="9.2316880">
	<ele>958.20</ele>
	<time>2025-02-15T08:57:50.000Z</time>
</trkpt>
<trkpt lat="45.8574640" lon="9.2317040">
	<ele>958.00</ele>
	<time>2025-02-15T08:57:51.000Z</time>
</trkpt>
<trkpt lat="45.8574600" lon="9.2317180">
	<ele>957.80</ele>
	<time>2025-02-15T08:57:52.000Z</time>
</trkpt>
<trkpt lat="45.8574610" lon="9.2317290">
	<ele>957.60</ele>
	<time>2025-02-15T08:57:53.000Z</time>
</trkpt>
<trkpt lat="45.8574680" lon="9.2317320">
	<ele>957.40</ele>
	<time>2025-02-15T08:57:54.000Z</time>
</trkpt>
<trkpt lat="45.8574720" lon="9.2317330">
	<ele>957.40</ele>
	<time>2025-02-15T08:57:55.000Z</time>
</trkpt>
<trkpt lat="45.8574770" lon="9.2317290">
	<ele>957.20</ele>
	<time>2025-02-15T08:57:56.000Z</time>
</trkpt>
<trkpt lat="45.8574820" lon="9.2317320">
	<ele>957.00</ele>
	<time>2025-02-15T08:57:57.000Z</time>
</trkpt>
<trkpt lat="45.8574830" lon="9.2317440">
	<ele>956.80</ele>
	<time>2025-02-15T08:57:58.000Z</time>
</trkpt>
<trkpt lat="45.8574900" lon="9.2317520">
	<ele>956.60</ele>
	<time>2025-02-15T08:57:59.000Z</time>
</trkpt>
<trkpt lat="45.8574940" lon="9.2317600">
	<ele>956.40</ele>
	<time>2025-02-15T08:58:00.000Z</time>
</trkpt>
<trkpt lat="45.8574980" lon="9.2317660">
	<ele>956.00</ele>
	<time>2025-02-15T08:58:01.000Z</time>
</trkpt>
<trkpt lat="45.8575000" lon="9.2317750">
	<ele>956.00</ele>
	<time>2025-02-15T08:58:02.000Z</time>
</trkpt>
<trkpt lat="45.8575040" lon="9.2317840">
	<ele>955.80</ele>
	<time>2025-02-15T08:58:03.000Z</time>
</trkpt>
<trkpt lat="45.8575080" lon="9.2317950">
	<ele>955.60</ele>
	<time>2025-02-15T08:58:04.000Z</time>
</trkpt>
<trkpt lat="45.8575110" lon="9.2318000">
	<ele>955.40</ele>
	<time>2025-02-15T08:58:05.000Z</time>
</trkpt>
<trkpt lat="45.8575150" lon="9.2318110">
	<ele>955.40</ele>
	<time>2025-02-15T08:58:06.000Z</time>
</trkpt>
<trkpt lat="45.8575210" lon="9.2318190">
	<ele>955.00</ele>
	<time>2025-02-15T08:58:07.000Z</time>
</trkpt>
<trkpt lat="45.8575260" lon="9.2318300">
	<ele>955.00</ele>
	<time>2025-02-15T08:58:08.000Z</time>
</trkpt>
<trkpt lat="45.8575330" lon="9.2318300">
	<ele>954.80</ele>
	<time>2025-02-15T08:58:09.000Z</time>
</trkpt>
<trkpt lat="45.8575390" lon="9.2318380">
	<ele>954.40</ele>
	<time>2025-02-15T08:58:10.000Z</time>
</trkpt>
<trkpt lat="45.8575500" lon="9.2318460">
	<ele>954.00</ele>
	<time>2025-02-15T08:58:11.000Z</time>
</trkpt>
<trkpt lat="45.8575630" lon="9.2318450">
	<ele>953.80</ele>
	<time>2025-02-15T08:58:12.000Z</time>
</trkpt>
<trkpt lat="45.8575730" lon="9.2318460">
	<ele>953.60</ele>
	<time>2025-02-15T08:58:13.000Z</time>
</trkpt>
<trkpt lat="45.8575850" lon="9.2318420">
	<ele>953.40</ele>
	<time>2025-02-15T08:58:14.000Z</time>
</trkpt>
<trkpt lat="45.8575990" lon="9.2318370">
	<ele>953.20</ele>
	<time>2025-02-15T08:58:15.000Z</time>
</trkpt>
<trkpt lat="45.8576110" lon="9.2318330">
	<ele>953.20</ele>
	<time>2025-02-15T08:58:16.000Z</time>
</trkpt>
<trkpt lat="45.8576240" lon="9.2318260">
	<ele>953.00</ele>
	<time>2025-02-15T08:58:17.000Z</time>
</trkpt>
<trkpt lat="45.8576310" lon="9.2318250">
	<ele>952.80</ele>
	<time>2025-02-15T08:58:18.000Z</time>
</trkpt>
<trkpt lat="45.8576380" lon="9.2318270">
	<ele>952.80</ele>
	<time>2025-02-15T08:58:19.000Z</time>
</trkpt>
<trkpt lat="45.8576440" lon="9.2318260">
	<ele>952.80</ele>
	<time>2025-02-15T08:58:20.000Z</time>
</trkpt>
<trkpt lat="45.8576500" lon="9.2318260">
	<ele>952.60</ele>
	<time>2025-02-15T08:58:21.000Z</time>
</trkpt>
<trkpt lat="45.8576510" lon="9.2318380">
	<ele>952.40</ele>
	<time>2025-02-15T08:58:22.000Z</time>
</trkpt>
<trkpt lat="45.8576520" lon="9.2318490">
	<ele>952.20</ele>
	<time>2025-02-15T08:58:23.000Z</time>
</trkpt>
<trkpt lat="45.8576550" lon="9.2318500">
	<ele>952.20</ele>
	<time>2025-02-15T08:58:24.000Z</time>
</trkpt>
<trkpt lat="45.8576650" lon="9.2318420">
	<ele>952.00</ele>
	<time>2025-02-15T08:58:25.000Z</time>
</trkpt>
<trkpt lat="45.8576700" lon="9.2318440">
	<ele>951.60</ele>
	<time>2025-02-15T08:58:26.000Z</time>
</trkpt>
<trkpt lat="45.8576720" lon="9.2318480">
	<ele>951.60</ele>
	<time>2025-02-15T08:58:27.000Z</time>
</trkpt>
<trkpt lat="45.8576770" lon="9.2318500">
	<ele>951.40</ele>
	<time>2025-02-15T08:58:28.000Z</time>
</trkpt>
<trkpt lat="45.8576940" lon="9.2318260">
	<ele>951.20</ele>
	<time>2025-02-15T08:58:29.000Z</time>
</trkpt>
<trkpt lat="45.8577020" lon="9.2318200">
	<ele>951.20</ele>
	<time>2025-02-15T08:58:30.000Z</time>
</trkpt>
<trkpt lat="45.8577080" lon="9.2318230">
	<ele>951.00</ele>
	<time>2025-02-15T08:58:31.000Z</time>
</trkpt>
<trkpt lat="45.8577140" lon="9.2318270">
	<ele>951.00</ele>
	<time>2025-02-15T08:58:32.000Z</time>
</trkpt>
<trkpt lat="45.8577170" lon="9.2318320">
	<ele>950.80</ele>
	<time>2025-02-15T08:58:33.000Z</time>
</trkpt>
<trkpt lat="45.8577210" lon="9.2318370">
	<ele>950.60</ele>
	<time>2025-02-15T08:58:34.000Z</time>
</trkpt>
<trkpt lat="45.8577240" lon="9.2318440">
	<ele>950.60</ele>
	<time>2025-02-15T08:58:35.000Z</time>
</trkpt>
<trkpt lat="45.8577310" lon="9.2318460">
	<ele>950.20</ele>
	<time>2025-02-15T08:58:36.000Z</time>
</trkpt>
<trkpt lat="45.8577390" lon="9.2318460">
	<ele>949.80</ele>
	<time>2025-02-15T08:58:37.000Z</time>
</trkpt>
<trkpt lat="45.8577480" lon="9.2318470">
	<ele>949.60</ele>
	<time>2025-02-15T08:58:38.000Z</time>
</trkpt>
<trkpt lat="45.8577580" lon="9.2318460">
	<ele>949.40</ele>
	<time>2025-02-15T08:58:39.000Z</time>
</trkpt>
<trkpt lat="45.8577650" lon="9.2318520">
	<ele>949.20</ele>
	<time>2025-02-15T08:58:40.000Z</time>
</trkpt>
<trkpt lat="45.8577730" lon="9.2318490">
	<ele>949.00</ele>
	<time>2025-02-15T08:58:41.000Z</time>
</trkpt>
<trkpt lat="45.8577840" lon="9.2318400">
	<ele>948.60</ele>
	<time>2025-02-15T08:58:42.000Z</time>
</trkpt>
<trkpt lat="45.8577920" lon="9.2318370">
	<ele>948.20</ele>
	<time>2025-02-15T08:58:43.000Z</time>
</trkpt>
<trkpt lat="45.8577980" lon="9.2318420">
	<ele>948.00</ele>
	<time>2025-02-15T08:58:44.000Z</time>
</trkpt>
<trkpt lat="45.8578060" lon="9.2318410">
	<ele>948.00</ele>
	<time>2025-02-15T08:58:45.000Z</time>
</trkpt>
<trkpt lat="45.8578180" lon="9.2318380">
	<ele>947.80</ele>
	<time>2025-02-15T08:58:46.000Z</time>
</trkpt>
<trkpt lat="45.8578240" lon="9.2318430">
	<ele>947.60</ele>
	<time>2025-02-15T08:58:47.000Z</time>
</trkpt>
<trkpt lat="45.8578280" lon="9.2318530">
	<ele>947.40</ele>
	<time>2025-02-15T08:58:48.000Z</time>
</trkpt>
<trkpt lat="45.8578310" lon="9.2318630">
	<ele>947.00</ele>
	<time>2025-02-15T08:58:49.000Z</time>
</trkpt>
<trkpt lat="45.8578400" lon="9.2318680">
	<ele>946.80</ele>
	<time>2025-02-15T08:58:50.000Z</time>
</trkpt>
<trkpt lat="45.8578500" lon="9.2318710">
	<ele>946.60</ele>
	<time>2025-02-15T08:58:51.000Z</time>
</trkpt>
<trkpt lat="45.8578590" lon="9.2318790">
	<ele>946.20</ele>
	<time>2025-02-15T08:58:52.000Z</time>
</trkpt>
<trkpt lat="45.8578670" lon="9.2318850">
	<ele>946.00</ele>
	<time>2025-02-15T08:58:53.000Z</time>
</trkpt>
<trkpt lat="45.8578700" lon="9.2318940">
	<ele>945.80</ele>
	<time>2025-02-15T08:58:54.000Z</time>
</trkpt>
<trkpt lat="45.8578720" lon="9.2318960">
	<ele>945.60</ele>
	<time>2025-02-15T08:58:55.000Z</time>
</trkpt>
<trkpt lat="45.8578780" lon="9.2319040">
	<ele>945.60</ele>
	<time>2025-02-15T08:58:56.000Z</time>
</trkpt>
<trkpt lat="45.8578820" lon="9.2319100">
	<ele>945.40</ele>
	<time>2025-02-15T08:58:57.000Z</time>
</trkpt>
<trkpt lat="45.8578850" lon="9.2319200">
	<ele>945.20</ele>
	<time>2025-02-15T08:58:58.000Z</time>
</trkpt>
<trkpt lat="45.8578890" lon="9.2319270">
	<ele>945.00</ele>
	<time>2025-02-15T08:58:59.000Z</time>
</trkpt>
<trkpt lat="45.8578950" lon="9.2319340">
	<ele>944.60</ele>
	<time>2025-02-15T08:59:00.000Z</time>
</trkpt>
<trkpt lat="45.8579010" lon="9.2319380">
	<ele>944.40</ele>
	<time>2025-02-15T08:59:01.000Z</time>
</trkpt>
<trkpt lat="45.8579060" lon="9.2319420">
	<ele>944.00</ele>
	<time>2025-02-15T08:59:02.000Z</time>
</trkpt>
<trkpt lat="45.8579120" lon="9.2319400">
	<ele>943.80</ele>
	<time>2025-02-15T08:59:03.000Z</time>
</trkpt>
<trkpt lat="45.8579190" lon="9.2319340">
	<ele>943.60</ele>
	<time>2025-02-15T08:59:04.000Z</time>
</trkpt>
<trkpt lat="45.8579290" lon="9.2319260">
	<ele>943.40</ele>
	<time>2025-02-15T08:59:05.000Z</time>
</trkpt>
<trkpt lat="45.8579360" lon="9.2319260">
	<ele>943.20</ele>
	<time>2025-02-15T08:59:06.000Z</time>
</trkpt>
<trkpt lat="45.8579430" lon="9.2319320">
	<ele>942.80</ele>
	<time>2025-02-15T08:59:07.000Z</time>
</trkpt>
<trkpt lat="45.8579490" lon="9.2319370">
	<ele>942.80</ele>
	<time>2025-02-15T08:59:08.000Z</time>
</trkpt>
<trkpt lat="45.8579570" lon="9.2319320">
	<ele>942.60</ele>
	<time>2025-02-15T08:59:09.000Z</time>
</trkpt>
<trkpt lat="45.8579660" lon="9.2319300">
	<ele>942.40</ele>
	<time>2025-02-15T08:59:10.000Z</time>
</trkpt>
<trkpt lat="45.8579740" lon="9.2319310">
	<ele>942.20</ele>
	<time>2025-02-15T08:59:11.000Z</time>
</trkpt>
<trkpt lat="45.8579800" lon="9.2319300">
	<ele>942.00</ele>
	<time>2025-02-15T08:59:12.000Z</time>
</trkpt>
<trkpt lat="45.8579880" lon="9.2319310">
	<ele>942.00</ele>
	<time>2025-02-15T08:59:13.000Z</time>
</trkpt>
<trkpt lat="45.8579980" lon="9.2319290">
	<ele>941.60</ele>
	<time>2025-02-15T08:59:14.000Z</time>
</trkpt>
<trkpt lat="45.8580090" lon="9.2319300">
	<ele>941.40</ele>
	<time>2025-02-15T08:59:15.000Z</time>
</trkpt>
<trkpt lat="45.8580210" lon="9.2319200">
	<ele>941.00</ele>
	<time>2025-02-15T08:59:16.000Z</time>
</trkpt>
<trkpt lat="45.8580320" lon="9.2319140">
	<ele>940.80</ele>
	<time>2025-02-15T08:59:17.000Z</time>
</trkpt>
<trkpt lat="45.8580390" lon="9.2319130">
	<ele>940.60</ele>
	<time>2025-02-15T08:59:18.000Z</time>
</trkpt>
<trkpt lat="45.8580480" lon="9.2319130">
	<ele>940.60</ele>
	<time>2025-02-15T08:59:19.000Z</time>
</trkpt>
<trkpt lat="45.8580530" lon="9.2319130">
	<ele>940.20</ele>
	<time>2025-02-15T08:59:20.000Z</time>
</trkpt>
<trkpt lat="45.8580640" lon="9.2319020">
	<ele>940.00</ele>
	<time>2025-02-15T08:59:21.000Z</time>
</trkpt>
<trkpt lat="45.8580710" lon="9.2318950">
	<ele>939.80</ele>
	<time>2025-02-15T08:59:22.000Z</time>
</trkpt>
<trkpt lat="45.8580780" lon="9.2318920">
	<ele>939.80</ele>
	<time>2025-02-15T08:59:23.000Z</time>
</trkpt>
<trkpt lat="45.8580850" lon="9.2318940">
	<ele>939.40</ele>
	<time>2025-02-15T08:59:24.000Z</time>
</trkpt>
<trkpt lat="45.8580920" lon="9.2318920">
	<ele>939.20</ele>
	<time>2025-02-15T08:59:25.000Z</time>
</trkpt>
<trkpt lat="45.8581060" lon="9.2318760">
	<ele>939.00</ele>
	<time>2025-02-15T08:59:26.000Z</time>
</trkpt>
<trkpt lat="45.8581220" lon="9.2318530">
	<ele>938.80</ele>
	<time>2025-02-15T08:59:27.000Z</time>
</trkpt>
<trkpt lat="45.8581260" lon="9.2318500">
	<ele>938.60</ele>
	<time>2025-02-15T08:59:28.000Z</time>
</trkpt>
<trkpt lat="45.8581290" lon="9.2318510">
	<ele>938.40</ele>
	<time>2025-02-15T08:59:29.000Z</time>
</trkpt>
<trkpt lat="45.8581290" lon="9.2318500">
	<ele>938.20</ele>
	<time>2025-02-15T08:59:30.000Z</time>
</trkpt>
<trkpt lat="45.8581420" lon="9.2318430">
	<ele>938.20</ele>
	<time>2025-02-15T08:59:31.000Z</time>
</trkpt>
<trkpt lat="45.8581470" lon="9.2318380">
	<ele>938.20</ele>
	<time>2025-02-15T08:59:32.000Z</time>
</trkpt>
<trkpt lat="45.8581500" lon="9.2318360">
	<ele>938.20</ele>
	<time>2025-02-15T08:59:33.000Z</time>
</trkpt>
<trkpt lat="45.8581500" lon="9.2318340">
	<ele>938.20</ele>
	<time>2025-02-15T08:59:34.000Z</time>
</trkpt>
<trkpt lat="45.8581510" lon="9.2318300">
	<ele>938.20</ele>
	<time>2025-02-15T08:59:35.000Z</time>
</trkpt>
<trkpt lat="45.8581400" lon="9.2318620">
	<ele>938.20</ele>
	<time>2025-02-15T08:59:36.000Z</time>
</trkpt>
<trkpt lat="45.8581330" lon="9.2318730">
	<ele>938.40</ele>
	<time>2025-02-15T08:59:37.000Z</time>
</trkpt>
<trkpt lat="45.8581290" lon="9.2318770">
	<ele>938.40</ele>
	<time>2025-02-15T08:59:38.000Z</time>
</trkpt>
<trkpt lat="45.8581280" lon="9.2318780">
	<ele>938.40</ele>
	<time>2025-02-15T08:59:39.000Z</time>
</trkpt>
<trkpt lat="45.8581270" lon="9.2318760">
	<ele>938.40</ele>
	<time>2025-02-15T08:59:40.000Z</time>
</trkpt>
<trkpt lat="45.8581300" lon="9.2318690">
	<ele>938.40</ele>
	<time>2025-02-15T08:59:41.000Z</time>
</trkpt>
<trkpt lat="45.8581300" lon="9.2318760">
	<ele>938.00</ele>
	<time>2025-02-15T08:59:42.000Z</time>
</trkpt>
<trkpt lat="45.8581300" lon="9.2318810">
	<ele>937.80</ele>
	<time>2025-02-15T08:59:43.000Z</time>
</trkpt>
<trkpt lat="45.8581370" lon="9.2318840">
	<ele>937.60</ele>
	<time>2025-02-15T08:59:44.000Z</time>
</trkpt>
<trkpt lat="45.8581510" lon="9.2318760">
	<ele>937.60</ele>
	<time>2025-02-15T08:59:45.000Z</time>
</trkpt>
<trkpt lat="45.8581620" lon="9.2318690">
	<ele>937.40</ele>
	<time>2025-02-15T08:59:46.000Z</time>
</trkpt>
<trkpt lat="45.8581760" lon="9.2318660">
	<ele>937.20</ele>
	<time>2025-02-15T08:59:47.000Z</time>
</trkpt>
<trkpt lat="45.8581890" lon="9.2318650">
	<ele>937.20</ele>
	<time>2025-02-15T08:59:48.000Z</time>
</trkpt>
<trkpt lat="45.8581950" lon="9.2318700">
	<ele>937.00</ele>
	<time>2025-02-15T08:59:49.000Z</time>
</trkpt>
<trkpt lat="45.8582000" lon="9.2318820">
	<ele>936.80</ele>
	<time>2025-02-15T08:59:50.000Z</time>
</trkpt>
<trkpt lat="45.8582090" lon="9.2318860">
	<ele>936.80</ele>
	<time>2025-02-15T08:59:51.000Z</time>
</trkpt>
<trkpt lat="45.8582180" lon="9.2318880">
	<ele>936.60</ele>
	<time>2025-02-15T08:59:52.000Z</time>
</trkpt>
<trkpt lat="45.8582290" lon="9.2318810">
	<ele>936.40</ele>
	<time>2025-02-15T08:59:53.000Z</time>
</trkpt>
<trkpt lat="45.8582440" lon="9.2318670">
	<ele>936.20</ele>
	<time>2025-02-15T08:59:54.000Z</time>
</trkpt>
<trkpt lat="45.8582580" lon="9.2318560">
	<ele>936.00</ele>
	<time>2025-02-15T08:59:55.000Z</time>
</trkpt>
<trkpt lat="45.8582590" lon="9.2318600">
	<ele>935.80</ele>
	<time>2025-02-15T08:59:56.000Z</time>
</trkpt>
<trkpt lat="45.8582610" lon="9.2318680">
	<ele>935.60</ele>
	<time>2025-02-15T08:59:57.000Z</time>
</trkpt>
<trkpt lat="45.8582580" lon="9.2318790">
	<ele>935.60</ele>
	<time>2025-02-15T08:59:58.000Z</time>
</trkpt>
<trkpt lat="45.8582550" lon="9.2318890">
	<ele>935.40</ele>
	<time>2025-02-15T08:59:59.000Z</time>
</trkpt>
<trkpt lat="45.8582560" lon="9.2318910">
	<ele>935.00</ele>
	<time>2025-02-15T09:00:00.000Z</time>
</trkpt>
<trkpt lat="45.8582530" lon="9.2319010">
	<ele>934.80</ele>
	<time>2025-02-15T09:00:01.000Z</time>
</trkpt>
<trkpt lat="45.8582640" lon="9.2318990">
	<ele>934.60</ele>
	<time>2025-02-15T09:00:02.000Z</time>
</trkpt>
<trkpt lat="45.8582710" lon="9.2318970">
	<ele>934.40</ele>
	<time>2025-02-15T09:00:03.000Z</time>
</trkpt>
<trkpt lat="45.8582770" lon="9.2318900">
	<ele>934.20</ele>
	<time>2025-02-15T09:00:04.000Z</time>
</trkpt>
<trkpt lat="45.8582810" lon="9.2318860">
	<ele>934.00</ele>
	<time>2025-02-15T09:00:05.000Z</time>
</trkpt>
<trkpt lat="45.8582750" lon="9.2318900">
	<ele>933.80</ele>
	<time>2025-02-15T09:00:06.000Z</time>
</trkpt>
<trkpt lat="45.8582750" lon="9.2318880">
	<ele>933.80</ele>
	<time>2025-02-15T09:00:07.000Z</time>
</trkpt>
<trkpt lat="45.8582760" lon="9.2318820">
	<ele>933.40</ele>
	<time>2025-02-15T09:00:08.000Z</time>
</trkpt>
<trkpt lat="45.8582800" lon="9.2318830">
	<ele>933.20</ele>
	<time>2025-02-15T09:00:09.000Z</time>
</trkpt>
<trkpt lat="45.8582880" lon="9.2318850">
	<ele>933.00</ele>
	<time>2025-02-15T09:00:10.000Z</time>
</trkpt>
<trkpt lat="45.8582930" lon="9.2318800">
	<ele>933.00</ele>
	<time>2025-02-15T09:00:11.000Z</time>
</trkpt>
<trkpt lat="45.8582950" lon="9.2318770">
	<ele>933.00</ele>
	<time>2025-02-15T09:00:12.000Z</time>
</trkpt>
<trkpt lat="45.8583020" lon="9.2318760">
	<ele>932.80</ele>
	<time>2025-02-15T09:00:13.000Z</time>
</trkpt>
<trkpt lat="45.8583070" lon="9.2318740">
	<ele>932.80</ele>
	<time>2025-02-15T09:00:14.000Z</time>
</trkpt>
<trkpt lat="45.8583200" lon="9.2318670">
	<ele>932.60</ele>
	<time>2025-02-15T09:00:15.000Z</time>
</trkpt>
<trkpt lat="45.8583320" lon="9.2318580">
	<ele>932.60</ele>
	<time>2025-02-15T09:00:16.000Z</time>
</trkpt>
<trkpt lat="45.8583420" lon="9.2318520">
	<ele>932.40</ele>
	<time>2025-02-15T09:00:17.000Z</time>
</trkpt>
<trkpt lat="45.8583520" lon="9.2318550">
	<ele>932.20</ele>
	<time>2025-02-15T09:00:18.000Z</time>
</trkpt>
<trkpt lat="45.8583590" lon="9.2318610">
	<ele>932.00</ele>
	<time>2025-02-15T09:00:19.000Z</time>
</trkpt>
<trkpt lat="45.8583690" lon="9.2318640">
	<ele>932.00</ele>
	<time>2025-02-15T09:00:20.000Z</time>
</trkpt>
<trkpt lat="45.8583820" lon="9.2318720">
	<ele>931.80</ele>
	<time>2025-02-15T09:00:21.000Z</time>
</trkpt>
<trkpt lat="45.8583870" lon="9.2318810">
	<ele>931.80</ele>
	<time>2025-02-15T09:00:22.000Z</time>
</trkpt>
<trkpt lat="45.8583930" lon="9.2318880">
	<ele>931.60</ele>
	<time>2025-02-15T09:00:23.000Z</time>
</trkpt>
<trkpt lat="45.8583980" lon="9.2318940">
	<ele>931.40</ele>
	<time>2025-02-15T09:00:24.000Z</time>
</trkpt>
<trkpt lat="45.8584060" lon="9.2318990">
	<ele>931.40</ele>
	<time>2025-02-15T09:00:25.000Z</time>
</trkpt>
<trkpt lat="45.8584150" lon="9.2319050">
	<ele>931.40</ele>
	<time>2025-02-15T09:00:26.000Z</time>
</trkpt>
<trkpt lat="45.8584210" lon="9.2319200">
	<ele>931.40</ele>
	<time>2025-02-15T09:00:27.000Z</time>
</trkpt>
<trkpt lat="45.8584240" lon="9.2319330">
	<ele>931.60</ele>
	<time>2025-02-15T09:00:28.000Z</time>
</trkpt>
<trkpt lat="45.8584220" lon="9.2319510">
	<ele>931.60</ele>
	<time>2025-02-15T09:00:29.000Z</time>
</trkpt>
<trkpt lat="45.8584300" lon="9.2319620">
	<ele>931.60</ele>
	<time>2025-02-15T09:00:30.000Z</time>
</trkpt>
<trkpt lat="45.8584460" lon="9.2319690">
	<ele>931.60</ele>
	<time>2025-02-15T09:00:31.000Z</time>
</trkpt>
<trkpt lat="45.8584470" lon="9.2319760">
	<ele>931.40</ele>
	<time>2025-02-15T09:00:32.000Z</time>
</trkpt>
<trkpt lat="45.8584640" lon="9.2319680">
	<ele>931.20</ele>
	<time>2025-02-15T09:00:33.000Z</time>
</trkpt>
<trkpt lat="45.8584900" lon="9.2319600">
	<ele>931.20</ele>
	<time>2025-02-15T09:00:34.000Z</time>
</trkpt>
<trkpt lat="45.8585050" lon="9.2319600">
	<ele>930.80</ele>
	<time>2025-02-15T09:00:35.000Z</time>
</trkpt>
<trkpt lat="45.8585140" lon="9.2319660">
	<ele>931.00</ele>
	<time>2025-02-15T09:00:36.000Z</time>
</trkpt>
<trkpt lat="45.8585320" lon="9.2319710">
	<ele>930.60</ele>
	<time>2025-02-15T09:00:37.000Z</time>
</trkpt>
<trkpt lat="45.8585490" lon="9.2319810">
	<ele>930.60</ele>
	<time>2025-02-15T09:00:38.000Z</time>
</trkpt>
<trkpt lat="45.8585560" lon="9.2319960">
	<ele>930.40</ele>
	<time>2025-02-15T09:00:39.000Z</time>
</trkpt>
<trkpt lat="45.8585730" lon="9.2320120">
	<ele>930.40</ele>
	<time>2025-02-15T09:00:40.000Z</time>
</trkpt>
<trkpt lat="45.8585950" lon="9.2320180">
	<ele>930.40</ele>
	<time>2025-02-15T09:00:41.000Z</time>
</trkpt>
<trkpt lat="45.8586090" lon="9.2320270">
	<ele>930.40</ele>
	<time>2025-02-15T09:00:42.000Z</time>
</trkpt>
<trkpt lat="45.8586190" lon="9.2320390">
	<ele>930.40</ele>
	<time>2025-02-15T09:00:43.000Z</time>
</trkpt>
<trkpt lat="45.8586300" lon="9.2320350">
	<ele>930.40</ele>
	<time>2025-02-15T09:00:44.000Z</time>
</trkpt>
<trkpt lat="45.8586400" lon="9.2320380">
	<ele>930.40</ele>
	<time>2025-02-15T09:00:45.000Z</time>
</trkpt>
<trkpt lat="45.8586360" lon="9.2320750">
	<ele>930.40</ele>
	<time>2025-02-15T09:00:46.000Z</time>
</trkpt>
<trkpt lat="45.8586310" lon="9.2321190">
	<ele>930.60</ele>
	<time>2025-02-15T09:00:47.000Z</time>
</trkpt>
<trkpt lat="45.8586040" lon="9.2321710">
	<ele>930.60</ele>
	<time>2025-02-15T09:00:48.000Z</time>
</trkpt>
<trkpt lat="45.8585940" lon="9.2322030">
	<ele>930.60</ele>
	<time>2025-02-15T09:00:49.000Z</time>
</trkpt>
<trkpt lat="45.8586020" lon="9.2322130">
	<ele>930.60</ele>
	<time>2025-02-15T09:00:50.000Z</time>
</trkpt>
<trkpt lat="45.8586140" lon="9.2322140">
	<ele>930.60</ele>
	<time>2025-02-15T09:00:51.000Z</time>
</trkpt>
<trkpt lat="45.8586180" lon="9.2322230">
	<ele>930.60</ele>
	<time>2025-02-15T09:00:52.000Z</time>
</trkpt>
<trkpt lat="45.8586220" lon="9.2322300">
	<ele>930.60</ele>
	<time>2025-02-15T09:00:53.000Z</time>
</trkpt>
<trkpt lat="45.8586250" lon="9.2322390">
	<ele>930.80</ele>
	<time>2025-02-15T09:00:54.000Z</time>
</trkpt>
<trkpt lat="45.8586250" lon="9.2322520">
	<ele>930.80</ele>
	<time>2025-02-15T09:00:55.000Z</time>
</trkpt>
<trkpt lat="45.8586260" lon="9.2322590">
	<ele>930.80</ele>
	<time>2025-02-15T09:00:56.000Z</time>
</trkpt>
<trkpt lat="45.8586340" lon="9.2322650">
	<ele>930.80</ele>
	<time>2025-02-15T09:00:57.000Z</time>
</trkpt>
<trkpt lat="45.8586370" lon="9.2322710">
	<ele>930.80</ele>
	<time>2025-02-15T09:00:58.000Z</time>
</trkpt>
<trkpt lat="45.8586360" lon="9.2322800">
	<ele>930.80</ele>
	<time>2025-02-15T09:00:59.000Z</time>
</trkpt>
<trkpt lat="45.8586360" lon="9.2322870">
	<ele>930.80</ele>
	<time>2025-02-15T09:01:00.000Z</time>
</trkpt>
<trkpt lat="45.8586360" lon="9.2322930">
	<ele>930.80</ele>
	<time>2025-02-15T09:01:01.000Z</time>
</trkpt>
<trkpt lat="45.8586380" lon="9.2322930">
	<ele>930.80</ele>
	<time>2025-02-15T09:01:02.000Z</time>
</trkpt>
<trkpt lat="45.8586380" lon="9.2322940">
	<ele>930.80</ele>
	<time>2025-02-15T09:01:03.000Z</time>
</trkpt>
<trkpt lat="45.8586430" lon="9.2322910">
	<ele>930.80</ele>
	<time>2025-02-15T09:01:04.000Z</time>
</trkpt>
<trkpt lat="45.8586400" lon="9.2322980">
	<ele>930.80</ele>
	<time>2025-02-15T09:01:05.000Z</time>
</trkpt>
<trkpt lat="45.8586400" lon="9.2323010">
	<ele>930.80</ele>
	<time>2025-02-15T09:01:06.000Z</time>
</trkpt>
<trkpt lat="45.8586420" lon="9.2323050">
	<ele>930.80</ele>
	<time>2025-02-15T09:01:07.000Z</time>
</trkpt>
<trkpt lat="45.8586440" lon="9.2323080">
	<ele>930.80</ele>
	<time>2025-02-15T09:01:08.000Z</time>
</trkpt>
<trkpt lat="45.8586520" lon="9.2323070">
	<ele>930.80</ele>
	<time>2025-02-15T09:01:09.000Z</time>
</trkpt>
<trkpt lat="45.8586540" lon="9.2323050">
	<ele>930.80</ele>
	<time>2025-02-15T09:01:10.000Z</time>
</trkpt>
<trkpt lat="45.8586630" lon="9.2323020">
	<ele>930.80</ele>
	<time>2025-02-15T09:01:11.000Z</time>
</trkpt>
<trkpt lat="45.8586680" lon="9.2323020">
	<ele>930.80</ele>
	<time>2025-02-15T09:01:12.000Z</time>
</trkpt>
<trkpt lat="45.8586690" lon="9.2323030">
	<ele>930.80</ele>
	<time>2025-02-15T09:01:13.000Z</time>
</trkpt>
<trkpt lat="45.8586680" lon="9.2323070">
	<ele>930.80</ele>
	<time>2025-02-15T09:01:14.000Z</time>
</trkpt>
<trkpt lat="45.8586650" lon="9.2323130">
	<ele>930.80</ele>
	<time>2025-02-15T09:01:15.000Z</time>
</trkpt>
<trkpt lat="45.8586660" lon="9.2323180">
	<ele>930.80</ele>
	<time>2025-02-15T09:01:16.000Z</time>
</trkpt>
<trkpt lat="45.8586690" lon="9.2323250">
	<ele>930.80</ele>
	<time>2025-02-15T09:01:17.000Z</time>
</trkpt>
<trkpt lat="45.8586720" lon="9.2323330">
	<ele>930.60</ele>
	<time>2025-02-15T09:01:18.000Z</time>
</trkpt>
<trkpt lat="45.8586740" lon="9.2323420">
	<ele>930.60</ele>
	<time>2025-02-15T09:01:19.000Z</time>
</trkpt>
<trkpt lat="45.8586740" lon="9.2323550">
	<ele>930.60</ele>
	<time>2025-02-15T09:01:20.000Z</time>
</trkpt>
<trkpt lat="45.8586800" lon="9.2323610">
	<ele>930.60</ele>
	<time>2025-02-15T09:01:21.000Z</time>
</trkpt>
<trkpt lat="45.8586770" lon="9.2323720">
	<ele>930.60</ele>
	<time>2025-02-15T09:01:22.000Z</time>
</trkpt>
<trkpt lat="45.8586790" lon="9.2323800">
	<ele>930.60</ele>
	<time>2025-02-15T09:01:23.000Z</time>
</trkpt>
<trkpt lat="45.8586810" lon="9.2323910">
	<ele>930.60</ele>
	<time>2025-02-15T09:01:24.000Z</time>
</trkpt>
<trkpt lat="45.8586850" lon="9.2324070">
	<ele>930.60</ele>
	<time>2025-02-15T09:01:25.000Z</time>
</trkpt>
<trkpt lat="45.8586830" lon="9.2324250">
	<ele>930.60</ele>
	<time>2025-02-15T09:01:26.000Z</time>
</trkpt>
<trkpt lat="45.8586810" lon="9.2324390">
	<ele>930.40</ele>
	<time>2025-02-15T09:01:27.000Z</time>
</trkpt>
<trkpt lat="45.8586790" lon="9.2324530">
	<ele>930.40</ele>
	<time>2025-02-15T09:01:28.000Z</time>
</trkpt>
<trkpt lat="45.8586830" lon="9.2324610">
	<ele>930.40</ele>
	<time>2025-02-15T09:01:29.000Z</time>
</trkpt>
<trkpt lat="45.8586870" lon="9.2324740">
	<ele>930.40</ele>
	<time>2025-02-15T09:01:30.000Z</time>
</trkpt>
<trkpt lat="45.8586780" lon="9.2325030">
	<ele>930.60</ele>
	<time>2025-02-15T09:01:31.000Z</time>
</trkpt>
<trkpt lat="45.8586740" lon="9.2325260">
	<ele>930.60</ele>
	<time>2025-02-15T09:01:32.000Z</time>
</trkpt>
<trkpt lat="45.8586690" lon="9.2325520">
	<ele>930.60</ele>
	<time>2025-02-15T09:01:33.000Z</time>
</trkpt>
<trkpt lat="45.8586620" lon="9.2325710">
	<ele>930.80</ele>
	<time>2025-02-15T09:01:34.000Z</time>
</trkpt>
<trkpt lat="45.8586590" lon="9.2325860">
	<ele>930.80</ele>
	<time>2025-02-15T09:01:35.000Z</time>
</trkpt>
<trkpt lat="45.8586570" lon="9.2326040">
	<ele>930.80</ele>
	<time>2025-02-15T09:01:36.000Z</time>
</trkpt>
<trkpt lat="45.8586610" lon="9.2326180">
	<ele>930.80</ele>
	<time>2025-02-15T09:01:37.000Z</time>
</trkpt>
<trkpt lat="45.8586620" lon="9.2326360">
	<ele>930.80</ele>
	<time>2025-02-15T09:01:38.000Z</time>
</trkpt>
<trkpt lat="45.8586600" lon="9.2326500">
	<ele>930.80</ele>
	<time>2025-02-15T09:01:39.000Z</time>
</trkpt>
<trkpt lat="45.8586600" lon="9.2326640">
	<ele>930.80</ele>
	<time>2025-02-15T09:01:40.000Z</time>
</trkpt>
<trkpt lat="45.8586630" lon="9.2326810">
	<ele>930.80</ele>
	<time>2025-02-15T09:01:41.000Z</time>
</trkpt>
<trkpt lat="45.8586630" lon="9.2327040">
	<ele>930.80</ele>
	<time>2025-02-15T09:01:42.000Z</time>
</trkpt>
<trkpt lat="45.8586600" lon="9.2327340">
	<ele>930.80</ele>
	<time>2025-02-15T09:01:43.000Z</time>
</trkpt>
<trkpt lat="45.8586540" lon="9.2327610">
	<ele>930.80</ele>
	<time>2025-02-15T09:01:44.000Z</time>
</trkpt>
<trkpt lat="45.8586560" lon="9.2327810">
	<ele>930.80</ele>
	<time>2025-02-15T09:01:45.000Z</time>
</trkpt>
<trkpt lat="45.8586560" lon="9.2328010">
	<ele>930.80</ele>
	<time>2025-02-15T09:01:46.000Z</time>
</trkpt>
<trkpt lat="45.8586590" lon="9.2328170">
	<ele>930.80</ele>
	<time>2025-02-15T09:01:47.000Z</time>
</trkpt>
<trkpt lat="45.8586710" lon="9.2328180">
	<ele>930.80</ele>
	<time>2025-02-15T09:01:48.000Z</time>
</trkpt>
<trkpt lat="45.8586780" lon="9.2328170">
	<ele>930.60</ele>
	<time>2025-02-15T09:01:49.000Z</time>
</trkpt>
<trkpt lat="45.8586790" lon="9.2328170">
	<ele>930.80</ele>
	<time>2025-02-15T09:01:50.000Z</time>
</trkpt>
<trkpt lat="45.8586750" lon="9.2328260">
	<ele>930.60</ele>
	<time>2025-02-15T09:01:51.000Z</time>
</trkpt>
<trkpt lat="45.8586740" lon="9.2328390">
	<ele>930.60</ele>
	<time>2025-02-15T09:01:52.000Z</time>
</trkpt>
<trkpt lat="45.8586770" lon="9.2328390">
	<ele>930.60</ele>
	<time>2025-02-15T09:01:53.000Z</time>
</trkpt>
<trkpt lat="45.8586570" lon="9.2328450">
	<ele>930.60</ele>
	<time>2025-02-15T09:01:54.000Z</time>
</trkpt>
<trkpt lat="45.8586320" lon="9.2328590">
	<ele>930.60</ele>
	<time>2025-02-15T09:01:55.000Z</time>
</trkpt>
<trkpt lat="45.8586100" lon="9.2328710">
	<ele>930.80</ele>
	<time>2025-02-15T09:01:56.000Z</time>
</trkpt>
<trkpt lat="45.8585950" lon="9.2328810">
	<ele>930.80</ele>
	<time>2025-02-15T09:01:57.000Z</time>
</trkpt>
<trkpt lat="45.8585770" lon="9.2328980">
	<ele>930.80</ele>
	<time>2025-02-15T09:01:58.000Z</time>
</trkpt>
<trkpt lat="45.8585640" lon="9.2329070">
	<ele>931.00</ele>
	<time>2025-02-15T09:01:59.000Z</time>
</trkpt>
<trkpt lat="45.8585540" lon="9.2329130">
	<ele>931.00</ele>
	<time>2025-02-15T09:02:00.000Z</time>
</trkpt>
<trkpt lat="45.8585470" lon="9.2329200">
	<ele>931.00</ele>
	<time>2025-02-15T09:02:01.000Z</time>
</trkpt>
<trkpt lat="45.8585430" lon="9.2329280">
	<ele>931.20</ele>
	<time>2025-02-15T09:02:02.000Z</time>
</trkpt>
<trkpt lat="45.8585410" lon="9.2329340">
	<ele>931.40</ele>
	<time>2025-02-15T09:02:03.000Z</time>
</trkpt>
<trkpt lat="45.8585400" lon="9.2329380">
	<ele>931.40</ele>
	<time>2025-02-15T09:02:04.000Z</time>
</trkpt>
<trkpt lat="45.8585300" lon="9.2329570">
	<ele>931.60</ele>
	<time>2025-02-15T09:02:05.000Z</time>
</trkpt>
<trkpt lat="45.8585240" lon="9.2329690">
	<ele>931.80</ele>
	<time>2025-02-15T09:02:06.000Z</time>
</trkpt>
<trkpt lat="45.8585190" lon="9.2329780">
	<ele>931.80</ele>
	<time>2025-02-15T09:02:07.000Z</time>
</trkpt>
<trkpt lat="45.8585100" lon="9.2329920">
	<ele>931.80</ele>
	<time>2025-02-15T09:02:08.000Z</time>
</trkpt>
<trkpt lat="45.8585080" lon="9.2329980">
	<ele>931.80</ele>
	<time>2025-02-15T09:02:09.000Z</time>
</trkpt>
<trkpt lat="45.8585020" lon="9.2330020">
	<ele>931.80</ele>
	<time>2025-02-15T09:02:10.000Z</time>
</trkpt>
<trkpt lat="45.8584920" lon="9.2330100">
	<ele>931.80</ele>
	<time>2025-02-15T09:02:11.000Z</time>
</trkpt>
<trkpt lat="45.8584810" lon="9.2330180">
	<ele>931.80</ele>
	<time>2025-02-15T09:02:12.000Z</time>
</trkpt>
<trkpt lat="45.8584740" lon="9.2330240">
	<ele>931.80</ele>
	<time>2025-02-15T09:02:13.000Z</time>
</trkpt>
<trkpt lat="45.8584630" lon="9.2330350">
	<ele>931.80</ele>
	<time>2025-02-15T09:02:14.000Z</time>
</trkpt>
<trkpt lat="45.8584520" lon="9.2330490">
	<ele>931.80</ele>
	<time>2025-02-15T09:02:15.000Z</time>
</trkpt>
<trkpt lat="45.8584380" lon="9.2330610">
	<ele>932.00</ele>
	<time>2025-02-15T09:02:16.000Z</time>
</trkpt>
<trkpt lat="45.8584250" lon="9.2330800">
	<ele>932.00</ele>
	<time>2025-02-15T09:02:17.000Z</time>
</trkpt>
<trkpt lat="45.8584220" lon="9.2330750">
	<ele>932.00</ele>
	<time>2025-02-15T09:02:18.000Z</time>
</trkpt>
<trkpt lat="45.8584090" lon="9.2330870">
	<ele>932.20</ele>
	<time>2025-02-15T09:02:19.000Z</time>
</trkpt>
<trkpt lat="45.8583920" lon="9.2331020">
	<ele>932.20</ele>
	<time>2025-02-15T09:02:20.000Z</time>
</trkpt>
<trkpt lat="45.8583770" lon="9.2331180">
	<ele>932.40</ele>
	<time>2025-02-15T09:02:21.000Z</time>
</trkpt>
<trkpt lat="45.8583670" lon="9.2331320">
	<ele>932.40</ele>
	<time>2025-02-15T09:02:22.000Z</time>
</trkpt>
<trkpt lat="45.8583630" lon="9.2331470">
	<ele>932.40</ele>
	<time>2025-02-15T09:02:23.000Z</time>
</trkpt>
<trkpt lat="45.8583560" lon="9.2331570">
	<ele>932.20</ele>
	<time>2025-02-15T09:02:24.000Z</time>
</trkpt>
<trkpt lat="45.8583500" lon="9.2331680">
	<ele>932.20</ele>
	<time>2025-02-15T09:02:25.000Z</time>
</trkpt>
<trkpt lat="45.8583440" lon="9.2331890">
	<ele>932.40</ele>
	<time>2025-02-15T09:02:26.000Z</time>
</trkpt>
<trkpt lat="45.8583380" lon="9.2332050">
	<ele>932.40</ele>
	<time>2025-02-15T09:02:27.000Z</time>
</trkpt>
<trkpt lat="45.8583320" lon="9.2332190">
	<ele>932.40</ele>
	<time>2025-02-15T09:02:28.000Z</time>
</trkpt>
<trkpt lat="45.8583290" lon="9.2332290">
	<ele>932.40</ele>
	<time>2025-02-15T09:02:29.000Z</time>
</trkpt>
<trkpt lat="45.8583190" lon="9.2332390">
	<ele>932.40</ele>
	<time>2025-02-15T09:02:30.000Z</time>
</trkpt>
<trkpt lat="45.8583160" lon="9.2332470">
	<ele>932.40</ele>
	<time>2025-02-15T09:02:31.000Z</time>
</trkpt>
<trkpt lat="45.8583130" lon="9.2332500">
	<ele>932.40</ele>
	<time>2025-02-15T09:02:32.000Z</time>
</trkpt>
<trkpt lat="45.8583120" lon="9.2332500">
	<ele>932.40</ele>
	<time>2025-02-15T09:02:33.000Z</time>
</trkpt>
<trkpt lat="45.8583120" lon="9.2332480">
	<ele>932.40</ele>
	<time>2025-02-15T09:02:34.000Z</time>
</trkpt>
<trkpt lat="45.8583120" lon="9.2332480">
	<ele>932.40</ele>
	<time>2025-02-15T09:02:35.000Z</time>
</trkpt>
<trkpt lat="45.8583120" lon="9.2332460">
	<ele>932.60</ele>
	<time>2025-02-15T09:02:36.000Z</time>
</trkpt>
<trkpt lat="45.8583110" lon="9.2332470">
	<ele>932.60</ele>
	<time>2025-02-15T09:02:37.000Z</time>
</trkpt>
<trkpt lat="45.8583110" lon="9.2332460">
	<ele>932.60</ele>
	<time>2025-02-15T09:02:38.000Z</time>
</trkpt>
<trkpt lat="45.8583100" lon="9.2332490">
	<ele>932.60</ele>
	<time>2025-02-15T09:02:39.000Z</time>
</trkpt>
<trkpt lat="45.8583160" lon="9.2332500">
	<ele>932.60</ele>
	<time>2025-02-15T09:02:40.000Z</time>
</trkpt>
<trkpt lat="45.8583150" lon="9.2332520">
	<ele>932.60</ele>
	<time>2025-02-15T09:02:41.000Z</time>
</trkpt>
<trkpt lat="45.8583140" lon="9.2332540">
	<ele>932.60</ele>
	<time>2025-02-15T09:02:42.000Z</time>
</trkpt>
<trkpt lat="45.8583120" lon="9.2332530">
	<ele>932.60</ele>
	<time>2025-02-15T09:02:43.000Z</time>
</trkpt>
<trkpt lat="45.8583130" lon="9.2332500">
	<ele>932.60</ele>
	<time>2025-02-15T09:02:44.000Z</time>
</trkpt>
<trkpt lat="45.8583130" lon="9.2332500">
	<ele>932.60</ele>
	<time>2025-02-15T09:02:45.000Z</time>
</trkpt>
<trkpt lat="45.8583130" lon="9.2332500">
	<ele>932.60</ele>
	<time>2025-02-15T09:02:46.000Z</time>
</trkpt>
<trkpt lat="45.8583130" lon="9.2332500">
	<ele>932.60</ele>
	<time>2025-02-15T09:02:47.000Z</time>
</trkpt>
<trkpt lat="45.8583130" lon="9.2332500">
	<ele>932.40</ele>
	<time>2025-02-15T09:02:48.000Z</time>
</trkpt>
<trkpt lat="45.8583130" lon="9.2332500">
	<ele>932.40</ele>
	<time>2025-02-15T09:02:49.000Z</time>
</trkpt>
<trkpt lat="45.8583130" lon="9.2332500">
	<ele>932.40</ele>
	<time>2025-02-15T09:02:50.000Z</time>
</trkpt>
<trkpt lat="45.8583130" lon="9.2332500">
	<ele>932.40</ele>
	<time>2025-02-15T09:02:51.000Z</time>
</trkpt>
<trkpt lat="45.8583130" lon="9.2332500">
	<ele>932.40</ele>
	<time>2025-02-15T09:02:52.000Z</time>
</trkpt>
<trkpt lat="45.8583130" lon="9.2332500">
	<ele>932.40</ele>
	<time>2025-02-15T09:02:53.000Z</time>
</trkpt>
<trkpt lat="45.8583130" lon="9.2332500">
	<ele>932.40</ele>
	<time>2025-02-15T09:02:54.000Z</time>
</trkpt>
<trkpt lat="45.8583130" lon="9.2332500">
	<ele>932.40</ele>
	<time>2025-02-15T09:02:55.000Z</time>
</trkpt>
<trkpt lat="45.8583130" lon="9.2332490">
	<ele>932.40</ele>
	<time>2025-02-15T09:02:56.000Z</time>
</trkpt>
<trkpt lat="45.8583130" lon="9.2332480">
	<ele>932.40</ele>
	<time>2025-02-15T09:02:57.000Z</time>
</trkpt>
<trkpt lat="45.8583130" lon="9.2332470">
	<ele>932.40</ele>
	<time>2025-02-15T09:02:58.000Z</time>
</trkpt>
<trkpt lat="45.8583130" lon="9.2332460">
	<ele>932.40</ele>
	<time>2025-02-15T09:02:59.000Z</time>
</trkpt>
<trkpt lat="45.8583130" lon="9.2332460">
	<ele>932.40</ele>
	<time>2025-02-15T09:03:00.000Z</time>
</trkpt>
<trkpt lat="45.8583150" lon="9.2332450">
	<ele>932.40</ele>
	<time>2025-02-15T09:03:01.000Z</time>
</trkpt>
<trkpt lat="45.8583260" lon="9.2332410">
	<ele>932.40</ele>
	<time>2025-02-15T09:03:02.000Z</time>
</trkpt>
<trkpt lat="45.8583350" lon="9.2332420">
	<ele>932.40</ele>
	<time>2025-02-15T09:03:03.000Z</time>
</trkpt>
<trkpt lat="45.8583380" lon="9.2332430">
	<ele>932.40</ele>
	<time>2025-02-15T09:03:04.000Z</time>
</trkpt>
<trkpt lat="45.8583400" lon="9.2332450">
	<ele>932.40</ele>
	<time>2025-02-15T09:03:05.000Z</time>
</trkpt>
<trkpt lat="45.8583520" lon="9.2332390">
	<ele>932.40</ele>
	<time>2025-02-15T09:03:06.000Z</time>
</trkpt>
<trkpt lat="45.8583590" lon="9.2332370">
	<ele>932.20</ele>
	<time>2025-02-15T09:03:07.000Z</time>
</trkpt>
<trkpt lat="45.8583590" lon="9.2332410">
	<ele>932.20</ele>
	<time>2025-02-15T09:03:08.000Z</time>
</trkpt>
<trkpt lat="45.8583560" lon="9.2332450">
	<ele>932.20</ele>
	<time>2025-02-15T09:03:09.000Z</time>
</trkpt>
<trkpt lat="45.8583530" lon="9.2332500">
	<ele>932.20</ele>
	<time>2025-02-15T09:03:10.000Z</time>
</trkpt>
<trkpt lat="45.8583490" lon="9.2332560">
	<ele>932.20</ele>
	<time>2025-02-15T09:03:11.000Z</time>
</trkpt>
<trkpt lat="45.8583500" lon="9.2332550">
	<ele>932.20</ele>
	<time>2025-02-15T09:03:12.000Z</time>
</trkpt>
<trkpt lat="45.8583500" lon="9.2332520">
	<ele>932.20</ele>
	<time>2025-02-15T09:03:13.000Z</time>
</trkpt>
<trkpt lat="45.8583540" lon="9.2332470">
	<ele>932.20</ele>
	<time>2025-02-15T09:03:14.000Z</time>
</trkpt>
<trkpt lat="45.8583590" lon="9.2332400">
	<ele>932.20</ele>
	<time>2025-02-15T09:03:15.000Z</time>
</trkpt>
<trkpt lat="45.8583650" lon="9.2332320">
	<ele>932.20</ele>
	<time>2025-02-15T09:03:16.000Z</time>
</trkpt>
<trkpt lat="45.8583720" lon="9.2332250">
	<ele>932.20</ele>
	<time>2025-02-15T09:03:17.000Z</time>
</trkpt>
<trkpt lat="45.8583820" lon="9.2332130">
	<ele>932.20</ele>
	<time>2025-02-15T09:03:18.000Z</time>
</trkpt>
<trkpt lat="45.8583930" lon="9.2332000">
	<ele>932.20</ele>
	<time>2025-02-15T09:03:19.000Z</time>
</trkpt>
<trkpt lat="45.8583950" lon="9.2331920">
	<ele>932.20</ele>
	<time>2025-02-15T09:03:20.000Z</time>
</trkpt>
<trkpt lat="45.8583970" lon="9.2331850">
	<ele>932.20</ele>
	<time>2025-02-15T09:03:21.000Z</time>
</trkpt>
<trkpt lat="45.8583980" lon="9.2331790">
	<ele>932.20</ele>
	<time>2025-02-15T09:03:22.000Z</time>
</trkpt>
<trkpt lat="45.8584050" lon="9.2331730">
	<ele>932.20</ele>
	<time>2025-02-15T09:03:23.000Z</time>
</trkpt>
<trkpt lat="45.8584070" lon="9.2331680">
	<ele>932.20</ele>
	<time>2025-02-15T09:03:24.000Z</time>
</trkpt>
<trkpt lat="45.8584180" lon="9.2331600">
	<ele>932.20</ele>
	<time>2025-02-15T09:03:25.000Z</time>
</trkpt>
<trkpt lat="45.8584240" lon="9.2331640">
	<ele>932.00</ele>
	<time>2025-02-15T09:03:26.000Z</time>
</trkpt>
<trkpt lat="45.8584350" lon="9.2331600">
	<ele>932.00</ele>
	<time>2025-02-15T09:03:27.000Z</time>
</trkpt>
<trkpt lat="45.8584440" lon="9.2331620">
	<ele>932.00</ele>
	<time>2025-02-15T09:03:28.000Z</time>
</trkpt>
<trkpt lat="45.8584480" lon="9.2331690">
	<ele>931.80</ele>
	<time>2025-02-15T09:03:29.000Z</time>
</trkpt>
<trkpt lat="45.8584580" lon="9.2331650">
	<ele>931.80</ele>
	<time>2025-02-15T09:03:30.000Z</time>
</trkpt>
<trkpt lat="45.8584800" lon="9.2331450">
	<ele>931.80</ele>
	<time>2025-02-15T09:03:31.000Z</time>
</trkpt>
<trkpt lat="45.8584900" lon="9.2331350">
	<ele>931.80</ele>
	<time>2025-02-15T09:03:32.000Z</time>
</trkpt>
<trkpt lat="45.8584940" lon="9.2331270">
	<ele>931.80</ele>
	<time>2025-02-15T09:03:33.000Z</time>
</trkpt>
<trkpt lat="45.8584950" lon="9.2331280">
	<ele>931.60</ele>
	<time>2025-02-15T09:03:34.000Z</time>
</trkpt>
<trkpt lat="45.8585080" lon="9.2331160">
	<ele>931.60</ele>
	<time>2025-02-15T09:03:35.000Z</time>
</trkpt>
<trkpt lat="45.8585200" lon="9.2330930">
	<ele>931.60</ele>
	<time>2025-02-15T09:03:36.000Z</time>
</trkpt>
<trkpt lat="45.8585380" lon="9.2330690">
	<ele>931.60</ele>
	<time>2025-02-15T09:03:37.000Z</time>
</trkpt>
<trkpt lat="45.8585480" lon="9.2330540">
	<ele>931.40</ele>
	<time>2025-02-15T09:03:38.000Z</time>
</trkpt>
<trkpt lat="45.8585560" lon="9.2330450">
	<ele>931.40</ele>
	<time>2025-02-15T09:03:39.000Z</time>
</trkpt>
<trkpt lat="45.8585630" lon="9.2330340">
	<ele>931.40</ele>
	<time>2025-02-15T09:03:40.000Z</time>
</trkpt>
<trkpt lat="45.8585730" lon="9.2330380">
	<ele>931.40</ele>
	<time>2025-02-15T09:03:41.000Z</time>
</trkpt>
<trkpt lat="45.8585800" lon="9.2330180">
	<ele>931.40</ele>
	<time>2025-02-15T09:03:42.000Z</time>
</trkpt>
<trkpt lat="45.8585830" lon="9.2330100">
	<ele>931.40</ele>
	<time>2025-02-15T09:03:43.000Z</time>
</trkpt>
<trkpt lat="45.8585850" lon="9.2330060">
	<ele>931.20</ele>
	<time>2025-02-15T09:03:44.000Z</time>
</trkpt>
<trkpt lat="45.8585820" lon="9.2330020">
	<ele>931.20</ele>
	<time>2025-02-15T09:03:45.000Z</time>
</trkpt>
<trkpt lat="45.8585810" lon="9.2329950">
	<ele>931.20</ele>
	<time>2025-02-15T09:03:46.000Z</time>
</trkpt>
<trkpt lat="45.8585910" lon="9.2329870">
	<ele>931.00</ele>
	<time>2025-02-15T09:03:47.000Z</time>
</trkpt>
<trkpt lat="45.8586030" lon="9.2329750">
	<ele>931.00</ele>
	<time>2025-02-15T09:03:48.000Z</time>
</trkpt>
<trkpt lat="45.8586120" lon="9.2329630">
	<ele>930.80</ele>
	<time>2025-02-15T09:03:49.000Z</time>
</trkpt>
<trkpt lat="45.8586210" lon="9.2329540">
	<ele>930.60</ele>
	<time>2025-02-15T09:03:50.000Z</time>
</trkpt>
<trkpt lat="45.8586300" lon="9.2329450">
	<ele>930.60</ele>
	<time>2025-02-15T09:03:51.000Z</time>
</trkpt>
<trkpt lat="45.8586380" lon="9.2329330">
	<ele>930.60</ele>
	<time>2025-02-15T09:03:52.000Z</time>
</trkpt>
<trkpt lat="45.8586480" lon="9.2329120">
	<ele>930.40</ele>
	<time>2025-02-15T09:03:53.000Z</time>
</trkpt>
<trkpt lat="45.8586510" lon="9.2328930">
	<ele>930.40</ele>
	<time>2025-02-15T09:03:54.000Z</time>
</trkpt>
<trkpt lat="45.8586500" lon="9.2328800">
	<ele>930.40</ele>
	<time>2025-02-15T09:03:55.000Z</time>
</trkpt>
<trkpt lat="45.8586550" lon="9.2328610">
	<ele>930.20</ele>
	<time>2025-02-15T09:03:56.000Z</time>
</trkpt>
<trkpt lat="45.8586570" lon="9.2328470">
	<ele>930.20</ele>
	<time>2025-02-15T09:03:57.000Z</time>
</trkpt>
<trkpt lat="45.8586590" lon="9.2328330">
	<ele>930.40</ele>
	<time>2025-02-15T09:03:58.000Z</time>
</trkpt>
<trkpt lat="45.8586540" lon="9.2328150">
	<ele>930.40</ele>
	<time>2025-02-15T09:03:59.000Z</time>
</trkpt>
<trkpt lat="45.8586500" lon="9.2327970">
	<ele>930.40</ele>
	<time>2025-02-15T09:04:00.000Z</time>
</trkpt>
<trkpt lat="45.8586520" lon="9.2327800">
	<ele>930.40</ele>
	<time>2025-02-15T09:04:01.000Z</time>
</trkpt>
<trkpt lat="45.8586520" lon="9.2327660">
	<ele>930.40</ele>
	<time>2025-02-15T09:04:02.000Z</time>
</trkpt>
<trkpt lat="45.8586490" lon="9.2327580">
	<ele>930.40</ele>
	<time>2025-02-15T09:04:03.000Z</time>
</trkpt>
<trkpt lat="45.8586390" lon="9.2327620">
	<ele>930.20</ele>
	<time>2025-02-15T09:04:04.000Z</time>
</trkpt>
<trkpt lat="45.8586390" lon="9.2327630">
	<ele>930.20</ele>
	<time>2025-02-15T09:04:05.000Z</time>
</trkpt>
<trkpt lat="45.8586360" lon="9.2327730">
	<ele>930.20</ele>
	<time>2025-02-15T09:04:06.000Z</time>
</trkpt>
<trkpt lat="45.8586320" lon="9.2327860">
	<ele>930.20</ele>
	<time>2025-02-15T09:04:07.000Z</time>
</trkpt>
<trkpt lat="45.8586280" lon="9.2328010">
	<ele>930.20</ele>
	<time>2025-02-15T09:04:08.000Z</time>
</trkpt>
<trkpt lat="45.8586220" lon="9.2328120">
	<ele>930.20</ele>
	<time>2025-02-15T09:04:09.000Z</time>
</trkpt>
<trkpt lat="45.8586100" lon="9.2328310">
	<ele>930.20</ele>
	<time>2025-02-15T09:04:10.000Z</time>
</trkpt>
<trkpt lat="45.8586090" lon="9.2328440">
	<ele>930.20</ele>
	<time>2025-02-15T09:04:11.000Z</time>
</trkpt>
<trkpt lat="45.8586140" lon="9.2328490">
	<ele>930.20</ele>
	<time>2025-02-15T09:04:12.000Z</time>
</trkpt>
<trkpt lat="45.8586200" lon="9.2328560">
	<ele>930.20</ele>
	<time>2025-02-15T09:04:13.000Z</time>
</trkpt>
<trkpt lat="45.8586240" lon="9.2328640">
	<ele>930.00</ele>
	<time>2025-02-15T09:04:14.000Z</time>
</trkpt>
<trkpt lat="45.8586340" lon="9.2328680">
	<ele>930.00</ele>
	<time>2025-02-15T09:04:15.000Z</time>
</trkpt>
<trkpt lat="45.8586430" lon="9.2328720">
	<ele>930.00</ele>
	<time>2025-02-15T09:04:16.000Z</time>
</trkpt>
<trkpt lat="45.8586500" lon="9.2328750">
	<ele>930.00</ele>
	<time>2025-02-15T09:04:17.000Z</time>
</trkpt>
<trkpt lat="45.8586610" lon="9.2328750">
	<ele>930.00</ele>
	<time>2025-02-15T09:04:18.000Z</time>
</trkpt>
<trkpt lat="45.8586710" lon="9.2328830">
	<ele>929.80</ele>
	<time>2025-02-15T09:04:19.000Z</time>
</trkpt>
<trkpt lat="45.8586790" lon="9.2328920">
	<ele>929.60</ele>
	<time>2025-02-15T09:04:20.000Z</time>
</trkpt>
<trkpt lat="45.8586890" lon="9.2329010">
	<ele>929.40</ele>
	<time>2025-02-15T09:04:21.000Z</time>
</trkpt>
<trkpt lat="45.8586940" lon="9.2329150">
	<ele>929.40</ele>
	<time>2025-02-15T09:04:22.000Z</time>
</trkpt>
<trkpt lat="45.8587040" lon="9.2329220">
	<ele>929.40</ele>
	<time>2025-02-15T09:04:23.000Z</time>
</trkpt>
<trkpt lat="45.8587080" lon="9.2329260">
	<ele>929.20</ele>
	<time>2025-02-15T09:04:24.000Z</time>
</trkpt>
<trkpt lat="45.8587000" lon="9.2329410">
	<ele>929.20</ele>
	<time>2025-02-15T09:04:25.000Z</time>
</trkpt>
<trkpt lat="45.8586970" lon="9.2329580">
	<ele>929.00</ele>
	<time>2025-02-15T09:04:26.000Z</time>
</trkpt>
<trkpt lat="45.8586990" lon="9.2329740">
	<ele>928.80</ele>
	<time>2025-02-15T09:04:27.000Z</time>
</trkpt>
<trkpt lat="45.8587000" lon="9.2329800">
	<ele>928.80</ele>
	<time>2025-02-15T09:04:28.000Z</time>
</trkpt>
<trkpt lat="45.8587150" lon="9.2329800">
	<ele>928.60</ele>
	<time>2025-02-15T09:04:29.000Z</time>
</trkpt>
<trkpt lat="45.8587290" lon="9.2329810">
	<ele>928.60</ele>
	<time>2025-02-15T09:04:30.000Z</time>
</trkpt>
<trkpt lat="45.8587370" lon="9.2329850">
	<ele>928.40</ele>
	<time>2025-02-15T09:04:31.000Z</time>
</trkpt>
<trkpt lat="45.8587480" lon="9.2329890">
	<ele>928.40</ele>
	<time>2025-02-15T09:04:32.000Z</time>
</trkpt>
<trkpt lat="45.8587550" lon="9.2330020">
	<ele>928.20</ele>
	<time>2025-02-15T09:04:33.000Z</time>
</trkpt>
<trkpt lat="45.8587680" lon="9.2330080">
	<ele>928.00</ele>
	<time>2025-02-15T09:04:34.000Z</time>
</trkpt>
<trkpt lat="45.8587770" lon="9.2330130">
	<ele>928.00</ele>
	<time>2025-02-15T09:04:35.000Z</time>
</trkpt>
<trkpt lat="45.8587850" lon="9.2330180">
	<ele>928.00</ele>
	<time>2025-02-15T09:04:36.000Z</time>
</trkpt>
<trkpt lat="45.8587930" lon="9.2330290">
	<ele>927.80</ele>
	<time>2025-02-15T09:04:37.000Z</time>
</trkpt>
<trkpt lat="45.8587870" lon="9.2330460">
	<ele>927.60</ele>
	<time>2025-02-15T09:04:38.000Z</time>
</trkpt>
<trkpt lat="45.8587920" lon="9.2330500">
	<ele>927.60</ele>
	<time>2025-02-15T09:04:39.000Z</time>
</trkpt>
<trkpt lat="45.8587960" lon="9.2330520">
	<ele>927.60</ele>
	<time>2025-02-15T09:04:40.000Z</time>
</trkpt>
<trkpt lat="45.8587970" lon="9.2330500">
	<ele>927.20</ele>
	<time>2025-02-15T09:04:41.000Z</time>
</trkpt>
<trkpt lat="45.8588090" lon="9.2330440">
	<ele>927.00</ele>
	<time>2025-02-15T09:04:42.000Z</time>
</trkpt>
<trkpt lat="45.8588240" lon="9.2330380">
	<ele>926.80</ele>
	<time>2025-02-15T09:04:43.000Z</time>
</trkpt>
<trkpt lat="45.8588350" lon="9.2330330">
	<ele>926.80</ele>
	<time>2025-02-15T09:04:44.000Z</time>
</trkpt>
<trkpt lat="45.8588520" lon="9.2330240">
	<ele>926.40</ele>
	<time>2025-02-15T09:04:45.000Z</time>
</trkpt>
<trkpt lat="45.8588720" lon="9.2330150">
	<ele>926.20</ele>
	<time>2025-02-15T09:04:46.000Z</time>
</trkpt>
<trkpt lat="45.8588910" lon="9.2330070">
	<ele>926.20</ele>
	<time>2025-02-15T09:04:47.000Z</time>
</trkpt>
<trkpt lat="45.8589000" lon="9.2330060">
	<ele>926.00</ele>
	<time>2025-02-15T09:04:48.000Z</time>
</trkpt>
<trkpt lat="45.8589020" lon="9.2330040">
	<ele>926.00</ele>
	<time>2025-02-15T09:04:49.000Z</time>
</trkpt>
<trkpt lat="45.8589220" lon="9.2329840">
	<ele>926.00</ele>
	<time>2025-02-15T09:04:50.000Z</time>
</trkpt>
<trkpt lat="45.8589380" lon="9.2329690">
	<ele>925.80</ele>
	<time>2025-02-15T09:04:51.000Z</time>
</trkpt>
<trkpt lat="45.8589470" lon="9.2329700">
	<ele>925.80</ele>
	<time>2025-02-15T09:04:52.000Z</time>
</trkpt>
<trkpt lat="45.8589530" lon="9.2329800">
	<ele>925.40</ele>
	<time>2025-02-15T09:04:53.000Z</time>
</trkpt>
<trkpt lat="45.8589630" lon="9.2329930">
	<ele>924.80</ele>
	<time>2025-02-15T09:04:54.000Z</time>
</trkpt>
<trkpt lat="45.8589880" lon="9.2329790">
	<ele>924.60</ele>
	<time>2025-02-15T09:04:55.000Z</time>
</trkpt>
<trkpt lat="45.8590050" lon="9.2329770">
	<ele>924.60</ele>
	<time>2025-02-15T09:04:56.000Z</time>
</trkpt>
<trkpt lat="45.8590190" lon="9.2329750">
	<ele>924.40</ele>
	<time>2025-02-15T09:04:57.000Z</time>
</trkpt>
<trkpt lat="45.8590280" lon="9.2329800">
	<ele>924.40</ele>
	<time>2025-02-15T09:04:58.000Z</time>
</trkpt>
<trkpt lat="45.8590440" lon="9.2329780">
	<ele>924.40</ele>
	<time>2025-02-15T09:04:59.000Z</time>
</trkpt>
<trkpt lat="45.8590610" lon="9.2329650">
	<ele>924.40</ele>
	<time>2025-02-15T09:05:00.000Z</time>
</trkpt>
<trkpt lat="45.8590720" lon="9.2329760">
	<ele>924.20</ele>
	<time>2025-02-15T09:05:01.000Z</time>
</trkpt>
<trkpt lat="45.8590700" lon="9.2329800">
	<ele>924.00</ele>
	<time>2025-02-15T09:05:02.000Z</time>
</trkpt>
<trkpt lat="45.8590760" lon="9.2329800">
	<ele>923.80</ele>
	<time>2025-02-15T09:05:03.000Z</time>
</trkpt>
<trkpt lat="45.8590800" lon="9.2329760">
	<ele>923.80</ele>
	<time>2025-02-15T09:05:04.000Z</time>
</trkpt>
<trkpt lat="45.8590860" lon="9.2329770">
	<ele>923.60</ele>
	<time>2025-02-15T09:05:05.000Z</time>
</trkpt>
<trkpt lat="45.8591020" lon="9.2329810">
	<ele>923.40</ele>
	<time>2025-02-15T09:05:06.000Z</time>
</trkpt>
<trkpt lat="45.8591030" lon="9.2329910">
	<ele>923.20</ele>
	<time>2025-02-15T09:05:07.000Z</time>
</trkpt>
<trkpt lat="45.8591010" lon="9.2329890">
	<ele>923.00</ele>
	<time>2025-02-15T09:05:08.000Z</time>
</trkpt>
<trkpt lat="45.8590970" lon="9.2329890">
	<ele>923.00</ele>
	<time>2025-02-15T09:05:09.000Z</time>
</trkpt>
<trkpt lat="45.8590920" lon="9.2329890">
	<ele>923.00</ele>
	<time>2025-02-15T09:05:10.000Z</time>
</trkpt>
<trkpt lat="45.8590890" lon="9.2329890">
	<ele>923.00</ele>
	<time>2025-02-15T09:05:11.000Z</time>
</trkpt>
<trkpt lat="45.8590970" lon="9.2329710">
	<ele>922.80</ele>
	<time>2025-02-15T09:05:12.000Z</time>
</trkpt>
<trkpt lat="45.8591070" lon="9.2329510">
	<ele>922.80</ele>
	<time>2025-02-15T09:05:13.000Z</time>
</trkpt>
<trkpt lat="45.8591080" lon="9.2329560">
	<ele>922.80</ele>
	<time>2025-02-15T09:05:14.000Z</time>
</trkpt>
<trkpt lat="45.8591210" lon="9.2329570">
	<ele>922.60</ele>
	<time>2025-02-15T09:05:15.000Z</time>
</trkpt>
<trkpt lat="45.8591390" lon="9.2329470">
	<ele>922.60</ele>
	<time>2025-02-15T09:05:16.000Z</time>
</trkpt>
<trkpt lat="45.8591570" lon="9.2329330">
	<ele>922.40</ele>
	<time>2025-02-15T09:05:17.000Z</time>
</trkpt>
<trkpt lat="45.8591590" lon="9.2329230">
	<ele>922.40</ele>
	<time>2025-02-15T09:05:18.000Z</time>
</trkpt>
<trkpt lat="45.8591500" lon="9.2329370">
	<ele>922.20</ele>
	<time>2025-02-15T09:05:19.000Z</time>
</trkpt>
<trkpt lat="45.8591470" lon="9.2329340">
	<ele>922.20</ele>
	<time>2025-02-15T09:05:20.000Z</time>
</trkpt>
<trkpt lat="45.8591540" lon="9.2329270">
	<ele>922.20</ele>
	<time>2025-02-15T09:05:21.000Z</time>
</trkpt>
<trkpt lat="45.8591620" lon="9.2329200">
	<ele>921.80</ele>
	<time>2025-02-15T09:05:22.000Z</time>
</trkpt>
<trkpt lat="45.8591700" lon="9.2329070">
	<ele>921.60</ele>
	<time>2025-02-15T09:05:23.000Z</time>
</trkpt>
<trkpt lat="45.8591820" lon="9.2328930">
	<ele>921.40</ele>
	<time>2025-02-15T09:05:24.000Z</time>
</trkpt>
<trkpt lat="45.8591970" lon="9.2328780">
	<ele>921.40</ele>
	<time>2025-02-15T09:05:25.000Z</time>
</trkpt>
<trkpt lat="45.8592110" lon="9.2328640">
	<ele>921.20</ele>
	<time>2025-02-15T09:05:26.000Z</time>
</trkpt>
<trkpt lat="45.8592230" lon="9.2328540">
	<ele>921.20</ele>
	<time>2025-02-15T09:05:27.000Z</time>
</trkpt>
<trkpt lat="45.8592300" lon="9.2328490">
	<ele>921.20</ele>
	<time>2025-02-15T09:05:28.000Z</time>
</trkpt>
<trkpt lat="45.8592410" lon="9.2328430">
	<ele>921.20</ele>
	<time>2025-02-15T09:05:29.000Z</time>
</trkpt>
<trkpt lat="45.8592530" lon="9.2328310">
	<ele>921.20</ele>
	<time>2025-02-15T09:05:30.000Z</time>
</trkpt>
<trkpt lat="45.8592670" lon="9.2328160">
	<ele>920.40</ele>
	<time>2025-02-15T09:05:31.000Z</time>
</trkpt>
<trkpt lat="45.8592740" lon="9.2328090">
	<ele>919.80</ele>
	<time>2025-02-15T09:05:32.000Z</time>
</trkpt>
<trkpt lat="45.8592750" lon="9.2328070">
	<ele>919.40</ele>
	<time>2025-02-15T09:05:33.000Z</time>
</trkpt>
<trkpt lat="45.8592820" lon="9.2328020">
	<ele>919.20</ele>
	<time>2025-02-15T09:05:34.000Z</time>
</trkpt>
<trkpt lat="45.8592850" lon="9.2327990">
	<ele>919.00</ele>
	<time>2025-02-15T09:05:35.000Z</time>
</trkpt>
<trkpt lat="45.8592980" lon="9.2327940">
	<ele>919.00</ele>
	<time>2025-02-15T09:05:36.000Z</time>
</trkpt>
<trkpt lat="45.8593030" lon="9.2327900">
	<ele>918.80</ele>
	<time>2025-02-15T09:05:37.000Z</time>
</trkpt>
<trkpt lat="45.8593070" lon="9.2327740">
	<ele>918.80</ele>
	<time>2025-02-15T09:05:38.000Z</time>
</trkpt>
<trkpt lat="45.8593220" lon="9.2327580">
	<ele>918.60</ele>
	<time>2025-02-15T09:05:39.000Z</time>
</trkpt>
<trkpt lat="45.8593500" lon="9.2327370">
	<ele>918.20</ele>
	<time>2025-02-15T09:05:40.000Z</time>
</trkpt>
<trkpt lat="45.8593730" lon="9.2327140">
	<ele>918.00</ele>
	<time>2025-02-15T09:05:41.000Z</time>
</trkpt>
<trkpt lat="45.8593800" lon="9.2327040">
	<ele>917.60</ele>
	<time>2025-02-15T09:05:42.000Z</time>
</trkpt>
<trkpt lat="45.8593720" lon="9.2327370">
	<ele>917.00</ele>
	<time>2025-02-15T09:05:43.000Z</time>
</trkpt>
<trkpt lat="45.8593560" lon="9.2327480">
	<ele>916.80</ele>
	<time>2025-02-15T09:05:44.000Z</time>
</trkpt>
<trkpt lat="45.8593610" lon="9.2327400">
	<ele>916.60</ele>
	<time>2025-02-15T09:05:45.000Z</time>
</trkpt>
<trkpt lat="45.8593700" lon="9.2327140">
	<ele>916.20</ele>
	<time>2025-02-15T09:05:46.000Z</time>
</trkpt>
<trkpt lat="45.8593690" lon="9.2327120">
	<ele>916.00</ele>
	<time>2025-02-15T09:05:47.000Z</time>
</trkpt>
<trkpt lat="45.8593660" lon="9.2327110">
	<ele>916.00</ele>
	<time>2025-02-15T09:05:48.000Z</time>
</trkpt>
<trkpt lat="45.8593680" lon="9.2326900">
	<ele>915.80</ele>
	<time>2025-02-15T09:05:49.000Z</time>
</trkpt>
<trkpt lat="45.8593680" lon="9.2326850">
	<ele>915.40</ele>
	<time>2025-02-15T09:05:50.000Z</time>
</trkpt>
<trkpt lat="45.8593690" lon="9.2326810">
	<ele>915.20</ele>
	<time>2025-02-15T09:05:51.000Z</time>
</trkpt>
<trkpt lat="45.8593630" lon="9.2326880">
	<ele>915.00</ele>
	<time>2025-02-15T09:05:52.000Z</time>
</trkpt>
<trkpt lat="45.8593590" lon="9.2326930">
	<ele>914.80</ele>
	<time>2025-02-15T09:05:53.000Z</time>
</trkpt>
<trkpt lat="45.8593590" lon="9.2326960">
	<ele>914.60</ele>
	<time>2025-02-15T09:05:54.000Z</time>
</trkpt>
<trkpt lat="45.8593640" lon="9.2326970">
	<ele>914.60</ele>
	<time>2025-02-15T09:05:55.000Z</time>
</trkpt>
<trkpt lat="45.8593710" lon="9.2326930">
	<ele>914.20</ele>
	<time>2025-02-15T09:05:56.000Z</time>
</trkpt>
<trkpt lat="45.8593790" lon="9.2326870">
	<ele>914.00</ele>
	<time>2025-02-15T09:05:57.000Z</time>
</trkpt>
<trkpt lat="45.8593900" lon="9.2326720">
	<ele>913.60</ele>
	<time>2025-02-15T09:05:58.000Z</time>
</trkpt>
<trkpt lat="45.8593950" lon="9.2326630">
	<ele>913.40</ele>
	<time>2025-02-15T09:05:59.000Z</time>
</trkpt>
<trkpt lat="45.8593980" lon="9.2326550">
	<ele>913.40</ele>
	<time>2025-02-15T09:06:00.000Z</time>
</trkpt>
<trkpt lat="45.8593910" lon="9.2326490">
	<ele>913.20</ele>
	<time>2025-02-15T09:06:01.000Z</time>
</trkpt>
<trkpt lat="45.8593860" lon="9.2326440">
	<ele>913.00</ele>
	<time>2025-02-15T09:06:02.000Z</time>
</trkpt>
<trkpt lat="45.8593910" lon="9.2326330">
	<ele>912.60</ele>
	<time>2025-02-15T09:06:03.000Z</time>
</trkpt>
<trkpt lat="45.8593970" lon="9.2326230">
	<ele>912.00</ele>
	<time>2025-02-15T09:06:04.000Z</time>
</trkpt>
<trkpt lat="45.8594020" lon="9.2326180">
	<ele>911.80</ele>
	<time>2025-02-15T09:06:05.000Z</time>
</trkpt>
<trkpt lat="45.8594060" lon="9.2326100">
	<ele>911.60</ele>
	<time>2025-02-15T09:06:06.000Z</time>
</trkpt>
<trkpt lat="45.8594090" lon="9.2326110">
	<ele>911.40</ele>
	<time>2025-02-15T09:06:07.000Z</time>
</trkpt>
<trkpt lat="45.8594150" lon="9.2326120">
	<ele>911.40</ele>
	<time>2025-02-15T09:06:08.000Z</time>
</trkpt>
<trkpt lat="45.8594270" lon="9.2326150">
	<ele>911.40</ele>
	<time>2025-02-15T09:06:09.000Z</time>
</trkpt>
<trkpt lat="45.8594390" lon="9.2326160">
	<ele>911.20</ele>
	<time>2025-02-15T09:06:10.000Z</time>
</trkpt>
<trkpt lat="45.8594580" lon="9.2326150">
	<ele>910.80</ele>
	<time>2025-02-15T09:06:11.000Z</time>
</trkpt>
<trkpt lat="45.8594610" lon="9.2326170">
	<ele>910.60</ele>
	<time>2025-02-15T09:06:12.000Z</time>
</trkpt>
<trkpt lat="45.8594600" lon="9.2326290">
	<ele>910.40</ele>
	<time>2025-02-15T09:06:13.000Z</time>
</trkpt>
<trkpt lat="45.8594610" lon="9.2326300">
	<ele>910.00</ele>
	<time>2025-02-15T09:06:14.000Z</time>
</trkpt>
<trkpt lat="45.8594660" lon="9.2326240">
	<ele>909.80</ele>
	<time>2025-02-15T09:06:15.000Z</time>
</trkpt>
<trkpt lat="45.8594680" lon="9.2326190">
	<ele>909.40</ele>
	<time>2025-02-15T09:06:16.000Z</time>
</trkpt>
<trkpt lat="45.8594750" lon="9.2326060">
	<ele>909.40</ele>
	<time>2025-02-15T09:06:17.000Z</time>
</trkpt>
<trkpt lat="45.8594790" lon="9.2325960">
	<ele>909.20</ele>
	<time>2025-02-15T09:06:18.000Z</time>
</trkpt>
<trkpt lat="45.8594790" lon="9.2325910">
	<ele>909.00</ele>
	<time>2025-02-15T09:06:19.000Z</time>
</trkpt>
<trkpt lat="45.8594910" lon="9.2325760">
	<ele>909.00</ele>
	<time>2025-02-15T09:06:20.000Z</time>
</trkpt>
<trkpt lat="45.8595020" lon="9.2325630">
	<ele>908.80</ele>
	<time>2025-02-15T09:06:21.000Z</time>
</trkpt>
<trkpt lat="45.8595120" lon="9.2325500">
	<ele>908.60</ele>
	<time>2025-02-15T09:06:22.000Z</time>
</trkpt>
<trkpt lat="45.8595160" lon="9.2325460">
	<ele>908.40</ele>
	<time>2025-02-15T09:06:23.000Z</time>
</trkpt>
<trkpt lat="45.8595390" lon="9.2325210">
	<ele>908.40</ele>
	<time>2025-02-15T09:06:24.000Z</time>
</trkpt>
<trkpt lat="45.8595660" lon="9.2324930">
	<ele>908.40</ele>
	<time>2025-02-15T09:06:25.000Z</time>
</trkpt>
<trkpt lat="45.8595750" lon="9.2324870">
	<ele>908.40</ele>
	<time>2025-02-15T09:06:26.000Z</time>
</trkpt>
<trkpt lat="45.8595750" lon="9.2324880">
	<ele>908.20</ele>
	<time>2025-02-15T09:06:27.000Z</time>
</trkpt>
<trkpt lat="45.8595840" lon="9.2324810">
	<ele>908.20</ele>
	<time>2025-02-15T09:06:28.000Z</time>
</trkpt>
<trkpt lat="45.8595960" lon="9.2324720">
	<ele>908.20</ele>
	<time>2025-02-15T09:06:29.000Z</time>
</trkpt>
<trkpt lat="45.8596010" lon="9.2324700">
	<ele>908.20</ele>
	<time>2025-02-15T09:06:30.000Z</time>
</trkpt>
<trkpt lat="45.8596080" lon="9.2324640">
	<ele>908.20</ele>
	<time>2025-02-15T09:06:31.000Z</time>
</trkpt>
<trkpt lat="45.8596070" lon="9.2324640">
	<ele>908.20</ele>
	<time>2025-02-15T09:06:32.000Z</time>
</trkpt>
<trkpt lat="45.8596120" lon="9.2324610">
	<ele>908.20</ele>
	<time>2025-02-15T09:06:33.000Z</time>
</trkpt>
<trkpt lat="45.8596120" lon="9.2324580">
	<ele>908.00</ele>
	<time>2025-02-15T09:06:34.000Z</time>
</trkpt>
<trkpt lat="45.8596100" lon="9.2324550">
	<ele>908.00</ele>
	<time>2025-02-15T09:06:35.000Z</time>
</trkpt>
<trkpt lat="45.8596180" lon="9.2324460">
	<ele>907.80</ele>
	<time>2025-02-15T09:06:36.000Z</time>
</trkpt>
<trkpt lat="45.8596250" lon="9.2324360">
	<ele>907.60</ele>
	<time>2025-02-15T09:06:37.000Z</time>
</trkpt>
<trkpt lat="45.8596250" lon="9.2324340">
	<ele>907.60</ele>
	<time>2025-02-15T09:06:38.000Z</time>
</trkpt>
<trkpt lat="45.8596300" lon="9.2324290">
	<ele>907.40</ele>
	<time>2025-02-15T09:06:39.000Z</time>
</trkpt>
<trkpt lat="45.8596390" lon="9.2324190">
	<ele>907.20</ele>
	<time>2025-02-15T09:06:40.000Z</time>
</trkpt>
<trkpt lat="45.8596480" lon="9.2324140">
	<ele>907.20</ele>
	<time>2025-02-15T09:06:41.000Z</time>
</trkpt>
<trkpt lat="45.8596620" lon="9.2324050">
	<ele>907.20</ele>
	<time>2025-02-15T09:06:42.000Z</time>
</trkpt>
<trkpt lat="45.8596750" lon="9.2324010">
	<ele>907.00</ele>
	<time>2025-02-15T09:06:43.000Z</time>
</trkpt>
<trkpt lat="45.8596840" lon="9.2324040">
	<ele>906.80</ele>
	<time>2025-02-15T09:06:44.000Z</time>
</trkpt>
<trkpt lat="45.8596860" lon="9.2324150">
	<ele>906.80</ele>
	<time>2025-02-15T09:06:45.000Z</time>
</trkpt>
<trkpt lat="45.8596860" lon="9.2324300">
	<ele>906.60</ele>
	<time>2025-02-15T09:06:46.000Z</time>
</trkpt>
<trkpt lat="45.8596840" lon="9.2324480">
	<ele>906.40</ele>
	<time>2025-02-15T09:06:47.000Z</time>
</trkpt>
<trkpt lat="45.8596820" lon="9.2324680">
	<ele>906.20</ele>
	<time>2025-02-15T09:06:48.000Z</time>
</trkpt>
<trkpt lat="45.8596830" lon="9.2324770">
	<ele>906.20</ele>
	<time>2025-02-15T09:06:49.000Z</time>
</trkpt>
<trkpt lat="45.8596890" lon="9.2324750">
	<ele>906.00</ele>
	<time>2025-02-15T09:06:50.000Z</time>
</trkpt>
<trkpt lat="45.8596900" lon="9.2324750">
	<ele>905.80</ele>
	<time>2025-02-15T09:06:51.000Z</time>
</trkpt>
<trkpt lat="45.8596990" lon="9.2324690">
	<ele>905.80</ele>
	<time>2025-02-15T09:06:52.000Z</time>
</trkpt>
<trkpt lat="45.8597040" lon="9.2324700">
	<ele>905.60</ele>
	<time>2025-02-15T09:06:53.000Z</time>
</trkpt>
<trkpt lat="45.8596960" lon="9.2324880">
	<ele>905.20</ele>
	<time>2025-02-15T09:06:54.000Z</time>
</trkpt>
<trkpt lat="45.8596840" lon="9.2325100">
	<ele>905.00</ele>
	<time>2025-02-15T09:06:55.000Z</time>
</trkpt>
<trkpt lat="45.8596840" lon="9.2325260">
	<ele>904.80</ele>
	<time>2025-02-15T09:06:56.000Z</time>
</trkpt>
<trkpt lat="45.8596960" lon="9.2325290">
	<ele>904.60</ele>
	<time>2025-02-15T09:06:57.000Z</time>
</trkpt>
<trkpt lat="45.8597060" lon="9.2325370">
	<ele>904.40</ele>
	<time>2025-02-15T09:06:58.000Z</time>
</trkpt>
<trkpt lat="45.8597020" lon="9.2325480">
	<ele>904.20</ele>
	<time>2025-02-15T09:06:59.000Z</time>
</trkpt>
<trkpt lat="45.8597110" lon="9.2325520">
	<ele>904.20</ele>
	<time>2025-02-15T09:07:00.000Z</time>
</trkpt>
<trkpt lat="45.8597180" lon="9.2325610">
	<ele>904.00</ele>
	<time>2025-02-15T09:07:01.000Z</time>
</trkpt>
<trkpt lat="45.8597190" lon="9.2325740">
	<ele>904.00</ele>
	<time>2025-02-15T09:07:02.000Z</time>
</trkpt>
<trkpt lat="45.8597280" lon="9.2325770">
	<ele>903.80</ele>
	<time>2025-02-15T09:07:03.000Z</time>
</trkpt>
<trkpt lat="45.8597410" lon="9.2325810">
	<ele>903.80</ele>
	<time>2025-02-15T09:07:04.000Z</time>
</trkpt>
<trkpt lat="45.8597410" lon="9.2325910">
	<ele>903.60</ele>
	<time>2025-02-15T09:07:05.000Z</time>
</trkpt>
<trkpt lat="45.8597440" lon="9.2326070">
	<ele>903.60</ele>
	<time>2025-02-15T09:07:06.000Z</time>
</trkpt>
<trkpt lat="45.8597540" lon="9.2326130">
	<ele>903.60</ele>
	<time>2025-02-15T09:07:07.000Z</time>
</trkpt>
<trkpt lat="45.8597570" lon="9.2326260">
	<ele>903.40</ele>
	<time>2025-02-15T09:07:08.000Z</time>
</trkpt>
<trkpt lat="45.8597600" lon="9.2326350">
	<ele>903.40</ele>
	<time>2025-02-15T09:07:09.000Z</time>
</trkpt>
<trkpt lat="45.8597520" lon="9.2326410">
	<ele>902.80</ele>
	<time>2025-02-15T09:07:10.000Z</time>
</trkpt>
<trkpt lat="45.8597490" lon="9.2326400">
	<ele>902.20</ele>
	<time>2025-02-15T09:07:11.000Z</time>
</trkpt>
<trkpt lat="45.8597490" lon="9.2326410">
	<ele>901.80</ele>
	<time>2025-02-15T09:07:12.000Z</time>
</trkpt>
<trkpt lat="45.8597470" lon="9.2326410">
	<ele>901.60</ele>
	<time>2025-02-15T09:07:13.000Z</time>
</trkpt>
<trkpt lat="45.8597450" lon="9.2326340">
	<ele>901.20</ele>
	<time>2025-02-15T09:07:14.000Z</time>
</trkpt>
<trkpt lat="45.8597500" lon="9.2326190">
	<ele>901.20</ele>
	<time>2025-02-15T09:07:15.000Z</time>
</trkpt>
<trkpt lat="45.8597600" lon="9.2326050">
	<ele>901.00</ele>
	<time>2025-02-15T09:07:16.000Z</time>
</trkpt>
<trkpt lat="45.8597710" lon="9.2325880">
	<ele>901.00</ele>
	<time>2025-02-15T09:07:17.000Z</time>
</trkpt>
<trkpt lat="45.8597610" lon="9.2325850">
	<ele>900.80</ele>
	<time>2025-02-15T09:07:18.000Z</time>
</trkpt>
<trkpt lat="45.8597570" lon="9.2325770">
	<ele>900.80</ele>
	<time>2025-02-15T09:07:19.000Z</time>
</trkpt>
<trkpt lat="45.8597490" lon="9.2325750">
	<ele>900.80</ele>
	<time>2025-02-15T09:07:20.000Z</time>
</trkpt>
<trkpt lat="45.8597480" lon="9.2325650">
	<ele>900.80</ele>
	<time>2025-02-15T09:07:21.000Z</time>
</trkpt>
<trkpt lat="45.8597490" lon="9.2325560">
	<ele>900.60</ele>
	<time>2025-02-15T09:07:22.000Z</time>
</trkpt>
<trkpt lat="45.8597450" lon="9.2325530">
	<ele>900.20</ele>
	<time>2025-02-15T09:07:23.000Z</time>
</trkpt>
<trkpt lat="45.8597380" lon="9.2325510">
	<ele>900.00</ele>
	<time>2025-02-15T09:07:24.000Z</time>
</trkpt>
<trkpt lat="45.8597320" lon="9.2325430">
	<ele>900.00</ele>
	<time>2025-02-15T09:07:25.000Z</time>
</trkpt>
<trkpt lat="45.8597250" lon="9.2325360">
	<ele>899.80</ele>
	<time>2025-02-15T09:07:26.000Z</time>
</trkpt>
<trkpt lat="45.8597250" lon="9.2325230">
	<ele>899.80</ele>
	<time>2025-02-15T09:07:27.000Z</time>
</trkpt>
<trkpt lat="45.8597300" lon="9.2325080">
	<ele>899.80</ele>
	<time>2025-02-15T09:07:28.000Z</time>
</trkpt>
<trkpt lat="45.8597350" lon="9.2324930">
	<ele>899.60</ele>
	<time>2025-02-15T09:07:29.000Z</time>
</trkpt>
<trkpt lat="45.8597370" lon="9.2324790">
	<ele>899.20</ele>
	<time>2025-02-15T09:07:30.000Z</time>
</trkpt>
<trkpt lat="45.8597430" lon="9.2324620">
	<ele>899.20</ele>
	<time>2025-02-15T09:07:31.000Z</time>
</trkpt>
<trkpt lat="45.8597390" lon="9.2324500">
	<ele>898.80</ele>
	<time>2025-02-15T09:07:32.000Z</time>
</trkpt>
<trkpt lat="45.8597480" lon="9.2324230">
	<ele>898.40</ele>
	<time>2025-02-15T09:07:33.000Z</time>
</trkpt>
<trkpt lat="45.8597490" lon="9.2324030">
	<ele>898.20</ele>
	<time>2025-02-15T09:07:34.000Z</time>
</trkpt>
<trkpt lat="45.8597490" lon="9.2323790">
	<ele>898.20</ele>
	<time>2025-02-15T09:07:35.000Z</time>
</trkpt>
<trkpt lat="45.8597550" lon="9.2323590">
	<ele>898.00</ele>
	<time>2025-02-15T09:07:36.000Z</time>
</trkpt>
<trkpt lat="45.8597520" lon="9.2323550">
	<ele>898.00</ele>
	<time>2025-02-15T09:07:37.000Z</time>
</trkpt>
<trkpt lat="45.8597510" lon="9.2323490">
	<ele>897.80</ele>
	<time>2025-02-15T09:07:38.000Z</time>
</trkpt>
<trkpt lat="45.8597490" lon="9.2323460">
	<ele>898.00</ele>
	<time>2025-02-15T09:07:39.000Z</time>
</trkpt>
<trkpt lat="45.8597540" lon="9.2323400">
	<ele>898.20</ele>
	<time>2025-02-15T09:07:40.000Z</time>
</trkpt>
<trkpt lat="45.8597570" lon="9.2323370">
	<ele>898.20</ele>
	<time>2025-02-15T09:07:41.000Z</time>
</trkpt>
<trkpt lat="45.8597610" lon="9.2323300">
	<ele>898.20</ele>
	<time>2025-02-15T09:07:42.000Z</time>
</trkpt>
<trkpt lat="45.8597620" lon="9.2323250">
	<ele>898.20</ele>
	<time>2025-02-15T09:07:43.000Z</time>
</trkpt>
<trkpt lat="45.8597540" lon="9.2323240">
	<ele>898.20</ele>
	<time>2025-02-15T09:07:44.000Z</time>
</trkpt>
<trkpt lat="45.8597520" lon="9.2323190">
	<ele>898.20</ele>
	<time>2025-02-15T09:07:45.000Z</time>
</trkpt>
<trkpt lat="45.8597510" lon="9.2323130">
	<ele>898.20</ele>
	<time>2025-02-15T09:07:46.000Z</time>
</trkpt>
<trkpt lat="45.8597480" lon="9.2323080">
	<ele>898.00</ele>
	<time>2025-02-15T09:07:47.000Z</time>
</trkpt>
<trkpt lat="45.8597470" lon="9.2323030">
	<ele>897.80</ele>
	<time>2025-02-15T09:07:48.000Z</time>
</trkpt>
<trkpt lat="45.8597430" lon="9.2323050">
	<ele>897.80</ele>
	<time>2025-02-15T09:07:49.000Z</time>
</trkpt>
<trkpt lat="45.8597460" lon="9.2323070">
	<ele>897.60</ele>
	<time>2025-02-15T09:07:50.000Z</time>
</trkpt>
<trkpt lat="45.8597420" lon="9.2323080">
	<ele>897.60</ele>
	<time>2025-02-15T09:07:51.000Z</time>
</trkpt>
<trkpt lat="45.8597430" lon="9.2323110">
	<ele>897.60</ele>
	<time>2025-02-15T09:07:52.000Z</time>
</trkpt>
<trkpt lat="45.8597450" lon="9.2323120">
	<ele>897.60</ele>
	<time>2025-02-15T09:07:53.000Z</time>
</trkpt>
<trkpt lat="45.8597490" lon="9.2323130">
	<ele>897.40</ele>
	<time>2025-02-15T09:07:54.000Z</time>
</trkpt>
<trkpt lat="45.8597530" lon="9.2323160">
	<ele>897.40</ele>
	<time>2025-02-15T09:07:55.000Z</time>
</trkpt>
<trkpt lat="45.8597550" lon="9.2323170">
	<ele>897.40</ele>
	<time>2025-02-15T09:07:56.000Z</time>
</trkpt>
<trkpt lat="45.8597550" lon="9.2323200">
	<ele>897.40</ele>
	<time>2025-02-15T09:07:57.000Z</time>
</trkpt>
<trkpt lat="45.8597600" lon="9.2323200">
	<ele>897.40</ele>
	<time>2025-02-15T09:07:58.000Z</time>
</trkpt>
<trkpt lat="45.8597660" lon="9.2323170">
	<ele>897.20</ele>
	<time>2025-02-15T09:07:59.000Z</time>
</trkpt>
<trkpt lat="45.8597700" lon="9.2323200">
	<ele>897.40</ele>
	<time>2025-02-15T09:08:00.000Z</time>
</trkpt>
<trkpt lat="45.8597560" lon="9.2323310">
	<ele>897.40</ele>
	<time>2025-02-15T09:08:01.000Z</time>
</trkpt>
<trkpt lat="45.8597710" lon="9.2323190">
	<ele>897.40</ele>
	<time>2025-02-15T09:08:02.000Z</time>
</trkpt>
<trkpt lat="45.8597880" lon="9.2323040">
	<ele>897.60</ele>
	<time>2025-02-15T09:08:03.000Z</time>
</trkpt>
<trkpt lat="45.8597890" lon="9.2323020">
	<ele>897.60</ele>
	<time>2025-02-15T09:08:04.000Z</time>
</trkpt>
<trkpt lat="45.8597880" lon="9.2323010">
	<ele>897.60</ele>
	<time>2025-02-15T09:08:05.000Z</time>
</trkpt>
<trkpt lat="45.8597900" lon="9.2322970">
	<ele>897.80</ele>
	<time>2025-02-15T09:08:06.000Z</time>
</trkpt>
<trkpt lat="45.8598020" lon="9.2322840">
	<ele>897.80</ele>
	<time>2025-02-15T09:08:07.000Z</time>
</trkpt>
<trkpt lat="45.8598090" lon="9.2322730">
	<ele>897.80</ele>
	<time>2025-02-15T09:08:08.000Z</time>
</trkpt>
<trkpt lat="45.8598070" lon="9.2322670">
	<ele>897.80</ele>
	<time>2025-02-15T09:08:09.000Z</time>
</trkpt>
<trkpt lat="45.8598070" lon="9.2322690">
	<ele>897.80</ele>
	<time>2025-02-15T09:08:10.000Z</time>
</trkpt>
<trkpt lat="45.8598180" lon="9.2322720">
	<ele>897.80</ele>
	<time>2025-02-15T09:08:11.000Z</time>
</trkpt>
<trkpt lat="45.8598300" lon="9.2322740">
	<ele>897.80</ele>
	<time>2025-02-15T09:08:12.000Z</time>
</trkpt>
<trkpt lat="45.8598440" lon="9.2322740">
	<ele>897.80</ele>
	<time>2025-02-15T09:08:13.000Z</time>
</trkpt>
<trkpt lat="45.8598670" lon="9.2322650">
	<ele>897.80</ele>
	<time>2025-02-15T09:08:14.000Z</time>
</trkpt>
<trkpt lat="45.8598790" lon="9.2322680">
	<ele>897.80</ele>
	<time>2025-02-15T09:08:15.000Z</time>
</trkpt>
<trkpt lat="45.8598860" lon="9.2322700">
	<ele>897.80</ele>
	<time>2025-02-15T09:08:16.000Z</time>
</trkpt>
<trkpt lat="45.8598910" lon="9.2322660">
	<ele>897.80</ele>
	<time>2025-02-15T09:08:17.000Z</time>
</trkpt>
<trkpt lat="45.8598940" lon="9.2322570">
	<ele>897.80</ele>
	<time>2025-02-15T09:08:18.000Z</time>
</trkpt>
<trkpt lat="45.8599040" lon="9.2322440">
	<ele>897.80</ele>
	<time>2025-02-15T09:08:19.000Z</time>
</trkpt>
<trkpt lat="45.8599070" lon="9.2322320">
	<ele>898.00</ele>
	<time>2025-02-15T09:08:20.000Z</time>
</trkpt>
<trkpt lat="45.8599140" lon="9.2322200">
	<ele>898.00</ele>
	<time>2025-02-15T09:08:21.000Z</time>
</trkpt>
<trkpt lat="45.8599180" lon="9.2322120">
	<ele>898.40</ele>
	<time>2025-02-15T09:08:22.000Z</time>
</trkpt>
<trkpt lat="45.8599190" lon="9.2322110">
	<ele>898.80</ele>
	<time>2025-02-15T09:08:23.000Z</time>
</trkpt>
<trkpt lat="45.8599190" lon="9.2322100">
	<ele>899.00</ele>
	<time>2025-02-15T09:08:24.000Z</time>
</trkpt>
<trkpt lat="45.8599180" lon="9.2322100">
	<ele>899.00</ele>
	<time>2025-02-15T09:08:25.000Z</time>
</trkpt>
<trkpt lat="45.8599240" lon="9.2322070">
	<ele>899.20</ele>
	<time>2025-02-15T09:08:26.000Z</time>
</trkpt>
<trkpt lat="45.8599340" lon="9.2322030">
	<ele>899.20</ele>
	<time>2025-02-15T09:08:27.000Z</time>
</trkpt>
<trkpt lat="45.8599740" lon="9.2321790">
	<ele>899.00</ele>
	<time>2025-02-15T09:08:28.000Z</time>
</trkpt>
<trkpt lat="45.8599860" lon="9.2321730">
	<ele>898.80</ele>
	<time>2025-02-15T09:08:29.000Z</time>
</trkpt>
<trkpt lat="45.8600030" lon="9.2321670">
	<ele>898.80</ele>
	<time>2025-02-15T09:08:30.000Z</time>
</trkpt>
<trkpt lat="45.8600070" lon="9.2321750">
	<ele>898.60</ele>
	<time>2025-02-15T09:08:31.000Z</time>
</trkpt>
<trkpt lat="45.8600090" lon="9.2321740">
	<ele>898.60</ele>
	<time>2025-02-15T09:08:32.000Z</time>
</trkpt>
<trkpt lat="45.8600010" lon="9.2321860">
	<ele>898.60</ele>
	<time>2025-02-15T09:08:33.000Z</time>
</trkpt>
<trkpt lat="45.8600050" lon="9.2321840">
	<ele>898.60</ele>
	<time>2025-02-15T09:08:34.000Z</time>
</trkpt>
<trkpt lat="45.8600080" lon="9.2321830">
	<ele>898.60</ele>
	<time>2025-02-15T09:08:35.000Z</time>
</trkpt>
<trkpt lat="45.8600100" lon="9.2321850">
	<ele>898.60</ele>
	<time>2025-02-15T09:08:36.000Z</time>
</trkpt>
<trkpt lat="45.8600060" lon="9.2321910">
	<ele>898.80</ele>
	<time>2025-02-15T09:08:37.000Z</time>
</trkpt>
<trkpt lat="45.8600070" lon="9.2322000">
	<ele>898.80</ele>
	<time>2025-02-15T09:08:38.000Z</time>
</trkpt>
<trkpt lat="45.8600050" lon="9.2322100">
	<ele>898.60</ele>
	<time>2025-02-15T09:08:39.000Z</time>
</trkpt>
<trkpt lat="45.8600010" lon="9.2322070">
	<ele>898.60</ele>
	<time>2025-02-15T09:08:40.000Z</time>
</trkpt>
<trkpt lat="45.8599990" lon="9.2322050">
	<ele>898.60</ele>
	<time>2025-02-15T09:08:41.000Z</time>
</trkpt>
<trkpt lat="45.8599860" lon="9.2322030">
	<ele>898.60</ele>
	<time>2025-02-15T09:08:42.000Z</time>
</trkpt>
<trkpt lat="45.8599850" lon="9.2321990">
	<ele>898.60</ele>
	<time>2025-02-15T09:08:43.000Z</time>
</trkpt>
<trkpt lat="45.8599750" lon="9.2322020">
	<ele>898.60</ele>
	<time>2025-02-15T09:08:44.000Z</time>
</trkpt>
<trkpt lat="45.8599660" lon="9.2322050">
	<ele>898.80</ele>
	<time>2025-02-15T09:08:45.000Z</time>
</trkpt>
<trkpt lat="45.8599650" lon="9.2322060">
	<ele>899.00</ele>
	<time>2025-02-15T09:08:46.000Z</time>
</trkpt>
<trkpt lat="45.8599650" lon="9.2322050">
	<ele>899.00</ele>
	<time>2025-02-15T09:08:47.000Z</time>
</trkpt>
<trkpt lat="45.8599710" lon="9.2321990">
	<ele>899.00</ele>
	<time>2025-02-15T09:08:48.000Z</time>
</trkpt>
<trkpt lat="45.8599720" lon="9.2321920">
	<ele>899.00</ele>
	<time>2025-02-15T09:08:49.000Z</time>
</trkpt>
<trkpt lat="45.8599690" lon="9.2321830">
	<ele>899.00</ele>
	<time>2025-02-15T09:08:50.000Z</time>
</trkpt>
<trkpt lat="45.8599630" lon="9.2321750">
	<ele>899.00</ele>
	<time>2025-02-15T09:08:51.000Z</time>
</trkpt>
<trkpt lat="45.8599670" lon="9.2321650">
	<ele>899.20</ele>
	<time>2025-02-15T09:08:52.000Z</time>
</trkpt>
<trkpt lat="45.8599710" lon="9.2321590">
	<ele>899.40</ele>
	<time>2025-02-15T09:08:53.000Z</time>
</trkpt>
<trkpt lat="45.8599610" lon="9.2321580">
	<ele>899.40</ele>
	<time>2025-02-15T09:08:54.000Z</time>
</trkpt>
<trkpt lat="45.8599530" lon="9.2321560">
	<ele>899.60</ele>
	<time>2025-02-15T09:08:55.000Z</time>
</trkpt>
<trkpt lat="45.8599460" lon="9.2321560">
	<ele>899.60</ele>
	<time>2025-02-15T09:08:56.000Z</time>
</trkpt>
<trkpt lat="45.8599490" lon="9.2321510">
	<ele>899.60</ele>
	<time>2025-02-15T09:08:57.000Z</time>
</trkpt>
<trkpt lat="45.8599510" lon="9.2321490">
	<ele>899.80</ele>
	<time>2025-02-15T09:08:58.000Z</time>
</trkpt>
<trkpt lat="45.8599440" lon="9.2321520">
	<ele>899.80</ele>
	<time>2025-02-15T09:08:59.000Z</time>
</trkpt>
<trkpt lat="45.8599490" lon="9.2321540">
	<ele>899.80</ele>
	<time>2025-02-15T09:09:00.000Z</time>
</trkpt>
<trkpt lat="45.8599530" lon="9.2321600">
	<ele>899.80</ele>
	<time>2025-02-15T09:09:01.000Z</time>
</trkpt>
<trkpt lat="45.8599530" lon="9.2321750">
	<ele>899.80</ele>
	<time>2025-02-15T09:09:02.000Z</time>
</trkpt>
<trkpt lat="45.8599510" lon="9.2321890">
	<ele>899.80</ele>
	<time>2025-02-15T09:09:03.000Z</time>
</trkpt>
<trkpt lat="45.8599460" lon="9.2322050">
	<ele>899.80</ele>
	<time>2025-02-15T09:09:04.000Z</time>
</trkpt>
<trkpt lat="45.8599450" lon="9.2322170">
	<ele>899.40</ele>
	<time>2025-02-15T09:09:05.000Z</time>
</trkpt>
<trkpt lat="45.8599490" lon="9.2322210">
	<ele>899.40</ele>
	<time>2025-02-15T09:09:06.000Z</time>
</trkpt>
<trkpt lat="45.8599530" lon="9.2322230">
	<ele>899.40</ele>
	<time>2025-02-15T09:09:07.000Z</time>
</trkpt>
<trkpt lat="45.8599490" lon="9.2322250">
	<ele>899.20</ele>
	<time>2025-02-15T09:09:08.000Z</time>
</trkpt>
<trkpt lat="45.8599460" lon="9.2322270">
	<ele>899.40</ele>
	<time>2025-02-15T09:09:09.000Z</time>
</trkpt>
<trkpt lat="45.8599460" lon="9.2322290">
	<ele>899.40</ele>
	<time>2025-02-15T09:09:10.000Z</time>
</trkpt>
<trkpt lat="45.8599490" lon="9.2322280">
	<ele>899.40</ele>
	<time>2025-02-15T09:09:11.000Z</time>
</trkpt>
<trkpt lat="45.8599550" lon="9.2322220">
	<ele>899.60</ele>
	<time>2025-02-15T09:09:12.000Z</time>
</trkpt>
<trkpt lat="45.8599530" lon="9.2322200">
	<ele>899.60</ele>
	<time>2025-02-15T09:09:13.000Z</time>
</trkpt>
<trkpt lat="45.8599520" lon="9.2322230">
	<ele>899.60</ele>
	<time>2025-02-15T09:09:14.000Z</time>
</trkpt>
<trkpt lat="45.8599570" lon="9.2322200">
	<ele>899.60</ele>
	<time>2025-02-15T09:09:15.000Z</time>
</trkpt>
<trkpt lat="45.8599620" lon="9.2322140">
	<ele>899.60</ele>
	<time>2025-02-15T09:09:16.000Z</time>
</trkpt>
<trkpt lat="45.8599730" lon="9.2322050">
	<ele>899.60</ele>
	<time>2025-02-15T09:09:17.000Z</time>
</trkpt>
<trkpt lat="45.8599840" lon="9.2321920">
	<ele>899.60</ele>
	<time>2025-02-15T09:09:18.000Z</time>
</trkpt>
<trkpt lat="45.8599980" lon="9.2321790">
	<ele>899.60</ele>
	<time>2025-02-15T09:09:19.000Z</time>
</trkpt>
<trkpt lat="45.8600030" lon="9.2321720">
	<ele>899.60</ele>
	<time>2025-02-15T09:09:20.000Z</time>
</trkpt>
<trkpt lat="45.8600110" lon="9.2321640">
	<ele>899.60</ele>
	<time>2025-02-15T09:09:21.000Z</time>
</trkpt>
<trkpt lat="45.8600130" lon="9.2321550">
	<ele>899.80</ele>
	<time>2025-02-15T09:09:22.000Z</time>
</trkpt>
<trkpt lat="45.8600130" lon="9.2321470">
	<ele>899.80</ele>
	<time>2025-02-15T09:09:23.000Z</time>
</trkpt>
<trkpt lat="45.8600230" lon="9.2321330">
	<ele>900.00</ele>
	<time>2025-02-15T09:09:24.000Z</time>
</trkpt>
<trkpt lat="45.8600350" lon="9.2321190">
	<ele>900.00</ele>
	<time>2025-02-15T09:09:25.000Z</time>
</trkpt>
<trkpt lat="45.8600410" lon="9.2321070">
	<ele>900.40</ele>
	<time>2025-02-15T09:09:26.000Z</time>
</trkpt>
<trkpt lat="45.8600470" lon="9.2321000">
	<ele>900.60</ele>
	<time>2025-02-15T09:09:27.000Z</time>
</trkpt>
<trkpt lat="45.8600490" lon="9.2320960">
	<ele>900.60</ele>
	<time>2025-02-15T09:09:28.000Z</time>
</trkpt>
<trkpt lat="45.8600490" lon="9.2320910">
	<ele>900.80</ele>
	<time>2025-02-15T09:09:29.000Z</time>
</trkpt>
<trkpt lat="45.8600550" lon="9.2320900">
	<ele>901.00</ele>
	<time>2025-02-15T09:09:30.000Z</time>
</trkpt>
<trkpt lat="45.8600670" lon="9.2320860">
	<ele>901.20</ele>
	<time>2025-02-15T09:09:31.000Z</time>
</trkpt>
<trkpt lat="45.8600720" lon="9.2320830">
	<ele>901.40</ele>
	<time>2025-02-15T09:09:32.000Z</time>
</trkpt>
<trkpt lat="45.8600740" lon="9.2320820">
	<ele>901.40</ele>
	<time>2025-02-15T09:09:33.000Z</time>
</trkpt>
<trkpt lat="45.8600700" lon="9.2320860">
	<ele>901.80</ele>
	<time>2025-02-15T09:09:34.000Z</time>
</trkpt>
<trkpt lat="45.8600740" lon="9.2320850">
	<ele>902.00</ele>
	<time>2025-02-15T09:09:35.000Z</time>
</trkpt>
<trkpt lat="45.8600780" lon="9.2320860">
	<ele>902.20</ele>
	<time>2025-02-15T09:09:36.000Z</time>
</trkpt>
<trkpt lat="45.8600690" lon="9.2320960">
	<ele>902.40</ele>
	<time>2025-02-15T09:09:37.000Z</time>
</trkpt>
<trkpt lat="45.8600680" lon="9.2321110">
	<ele>902.40</ele>
	<time>2025-02-15T09:09:38.000Z</time>
</trkpt>
<trkpt lat="45.8600690" lon="9.2321250">
	<ele>902.60</ele>
	<time>2025-02-15T09:09:39.000Z</time>
</trkpt>
<trkpt lat="45.8600660" lon="9.2321320">
	<ele>902.80</ele>
	<time>2025-02-15T09:09:40.000Z</time>
</trkpt>
<trkpt lat="45.8600680" lon="9.2321380">
	<ele>903.00</ele>
	<time>2025-02-15T09:09:41.000Z</time>
</trkpt>
<trkpt lat="45.8600630" lon="9.2321440">
	<ele>903.00</ele>
	<time>2025-02-15T09:09:42.000Z</time>
</trkpt>
<trkpt lat="45.8600710" lon="9.2321400">
	<ele>903.20</ele>
	<time>2025-02-15T09:09:43.000Z</time>
</trkpt>
<trkpt lat="45.8600760" lon="9.2321420">
	<ele>903.40</ele>
	<time>2025-02-15T09:09:44.000Z</time>
</trkpt>
<trkpt lat="45.8600820" lon="9.2321300">
	<ele>903.60</ele>
	<time>2025-02-15T09:09:45.000Z</time>
</trkpt>
<trkpt lat="45.8600840" lon="9.2321320">
	<ele>903.80</ele>
	<time>2025-02-15T09:09:46.000Z</time>
</trkpt>
<trkpt lat="45.8600820" lon="9.2321350">
	<ele>904.00</ele>
	<time>2025-02-15T09:09:47.000Z</time>
</trkpt>
<trkpt lat="45.8600800" lon="9.2321340">
	<ele>904.20</ele>
	<time>2025-02-15T09:09:48.000Z</time>
</trkpt>
<trkpt lat="45.8600810" lon="9.2321360">
	<ele>904.20</ele>
	<time>2025-02-15T09:09:49.000Z</time>
</trkpt>
<trkpt lat="45.8600840" lon="9.2321370">
	<ele>904.20</ele>
	<time>2025-02-15T09:09:50.000Z</time>
</trkpt>
<trkpt lat="45.8600850" lon="9.2321380">
	<ele>904.60</ele>
	<time>2025-02-15T09:09:51.000Z</time>
</trkpt>
<trkpt lat="45.8600770" lon="9.2321590">
	<ele>904.80</ele>
	<time>2025-02-15T09:09:52.000Z</time>
</trkpt>
<trkpt lat="45.8600740" lon="9.2321650">
	<ele>905.00</ele>
	<time>2025-02-15T09:09:53.000Z</time>
</trkpt>
<trkpt lat="45.8600730" lon="9.2321640">
	<ele>905.20</ele>
	<time>2025-02-15T09:09:54.000Z</time>
</trkpt>
<trkpt lat="45.8600730" lon="9.2321600">
	<ele>905.40</ele>
	<time>2025-02-15T09:09:55.000Z</time>
</trkpt>
<trkpt lat="45.8600770" lon="9.2321590">
	<ele>905.40</ele>
	<time>2025-02-15T09:09:56.000Z</time>
</trkpt>
<trkpt lat="45.8600750" lon="9.2321610">
	<ele>905.80</ele>
	<time>2025-02-15T09:09:57.000Z</time>
</trkpt>
<trkpt lat="45.8600720" lon="9.2321720">
	<ele>906.00</ele>
	<time>2025-02-15T09:09:58.000Z</time>
</trkpt>
<trkpt lat="45.8600720" lon="9.2321850">
	<ele>906.20</ele>
	<time>2025-02-15T09:09:59.000Z</time>
</trkpt>
<trkpt lat="45.8600740" lon="9.2321970">
	<ele>906.20</ele>
	<time>2025-02-15T09:10:00.000Z</time>
</trkpt>
<trkpt lat="45.8600730" lon="9.2322120">
	<ele>906.40</ele>
	<time>2025-02-15T09:10:01.000Z</time>
</trkpt>
<trkpt lat="45.8600670" lon="9.2322270">
	<ele>906.40</ele>
	<time>2025-02-15T09:10:02.000Z</time>
</trkpt>
<trkpt lat="45.8600670" lon="9.2322320">
	<ele>906.60</ele>
	<time>2025-02-15T09:10:03.000Z</time>
</trkpt>
<trkpt lat="45.8600770" lon="9.2322370">
	<ele>906.80</ele>
	<time>2025-02-15T09:10:04.000Z</time>
</trkpt>
<trkpt lat="45.8600890" lon="9.2322410">
	<ele>906.80</ele>
	<time>2025-02-15T09:10:05.000Z</time>
</trkpt>
<trkpt lat="45.8600950" lon="9.2322450">
	<ele>907.00</ele>
	<time>2025-02-15T09:10:06.000Z</time>
</trkpt>
<trkpt lat="45.8601000" lon="9.2322480">
	<ele>907.20</ele>
	<time>2025-02-15T09:10:07.000Z</time>
</trkpt>
<trkpt lat="45.8601070" lon="9.2322450">
	<ele>907.40</ele>
	<time>2025-02-15T09:10:08.000Z</time>
</trkpt>
<trkpt lat="45.8601160" lon="9.2322420">
	<ele>907.40</ele>
	<time>2025-02-15T09:10:09.000Z</time>
</trkpt>
<trkpt lat="45.8601200" lon="9.2322510">
	<ele>907.60</ele>
	<time>2025-02-15T09:10:10.000Z</time>
</trkpt>
<trkpt lat="45.8601200" lon="9.2322560">
	<ele>908.00</ele>
	<time>2025-02-15T09:10:11.000Z</time>
</trkpt>
<trkpt lat="45.8601280" lon="9.2322550">
	<ele>908.00</ele>
	<time>2025-02-15T09:10:12.000Z</time>
</trkpt>
<trkpt lat="45.8601280" lon="9.2322580">
	<ele>908.20</ele>
	<time>2025-02-15T09:10:13.000Z</time>
</trkpt>
<trkpt lat="45.8601340" lon="9.2322600">
	<ele>908.20</ele>
	<time>2025-02-15T09:10:14.000Z</time>
</trkpt>
<trkpt lat="45.8601380" lon="9.2322620">
	<ele>908.40</ele>
	<time>2025-02-15T09:10:15.000Z</time>
</trkpt>
<trkpt lat="45.8601490" lon="9.2322580">
	<ele>908.40</ele>
	<time>2025-02-15T09:10:16.000Z</time>
</trkpt>
<trkpt lat="45.8601620" lon="9.2322650">
	<ele>908.60</ele>
	<time>2025-02-15T09:10:17.000Z</time>
</trkpt>
<trkpt lat="45.8601680" lon="9.2322840">
	<ele>908.60</ele>
	<time>2025-02-15T09:10:18.000Z</time>
</trkpt>
<trkpt lat="45.8601700" lon="9.2322990">
	<ele>908.60</ele>
	<time>2025-02-15T09:10:19.000Z</time>
</trkpt>
<trkpt lat="45.8601790" lon="9.2322950">
	<ele>908.80</ele>
	<time>2025-02-15T09:10:20.000Z</time>
</trkpt>
<trkpt lat="45.8601910" lon="9.2322900">
	<ele>909.00</ele>
	<time>2025-02-15T09:10:21.000Z</time>
</trkpt>
<trkpt lat="45.8602090" lon="9.2322860">
	<ele>909.00</ele>
	<time>2025-02-15T09:10:22.000Z</time>
</trkpt>
<trkpt lat="45.8602230" lon="9.2322840">
	<ele>909.40</ele>
	<time>2025-02-15T09:10:23.000Z</time>
</trkpt>
<trkpt lat="45.8602350" lon="9.2322840">
	<ele>909.60</ele>
	<time>2025-02-15T09:10:24.000Z</time>
</trkpt>
<trkpt lat="45.8602510" lon="9.2322810">
	<ele>909.80</ele>
	<time>2025-02-15T09:10:25.000Z</time>
</trkpt>
<trkpt lat="45.8602660" lon="9.2322760">
	<ele>909.80</ele>
	<time>2025-02-15T09:10:26.000Z</time>
</trkpt>
<trkpt lat="45.8602750" lon="9.2322740">
	<ele>910.00</ele>
	<time>2025-02-15T09:10:27.000Z</time>
</trkpt>
<trkpt lat="45.8602790" lon="9.2322710">
	<ele>910.00</ele>
	<time>2025-02-15T09:10:28.000Z</time>
</trkpt>
<trkpt lat="45.8602820" lon="9.2322710">
	<ele>910.00</ele>
	<time>2025-02-15T09:10:29.000Z</time>
</trkpt>
<trkpt lat="45.8602850" lon="9.2322730">
	<ele>910.00</ele>
	<time>2025-02-15T09:10:30.000Z</time>
</trkpt>
<trkpt lat="45.8602810" lon="9.2322800">
	<ele>910.20</ele>
	<time>2025-02-15T09:10:31.000Z</time>
</trkpt>
<trkpt lat="45.8602880" lon="9.2322810">
	<ele>910.40</ele>
	<time>2025-02-15T09:10:32.000Z</time>
</trkpt>
<trkpt lat="45.8602960" lon="9.2322820">
	<ele>910.40</ele>
	<time>2025-02-15T09:10:33.000Z</time>
</trkpt>
<trkpt lat="45.8603080" lon="9.2322800">
	<ele>910.60</ele>
	<time>2025-02-15T09:10:34.000Z</time>
</trkpt>
<trkpt lat="45.8603130" lon="9.2322780">
	<ele>910.60</ele>
	<time>2025-02-15T09:10:35.000Z</time>
</trkpt>
<trkpt lat="45.8603170" lon="9.2322780">
	<ele>910.80</ele>
	<time>2025-02-15T09:10:36.000Z</time>
</trkpt>
<trkpt lat="45.8603260" lon="9.2322760">
	<ele>911.00</ele>
	<time>2025-02-15T09:10:37.000Z</time>
</trkpt>
<trkpt lat="45.8603400" lon="9.2322710">
	<ele>911.20</ele>
	<time>2025-02-15T09:10:38.000Z</time>
</trkpt>
<trkpt lat="45.8603500" lon="9.2322730">
	<ele>911.40</ele>
	<time>2025-02-15T09:10:39.000Z</time>
</trkpt>
<trkpt lat="45.8603580" lon="9.2322790">
	<ele>911.40</ele>
	<time>2025-02-15T09:10:40.000Z</time>
</trkpt>
<trkpt lat="45.8603650" lon="9.2322830">
	<ele>911.60</ele>
	<time>2025-02-15T09:10:41.000Z</time>
</trkpt>
<trkpt lat="45.8603730" lon="9.2322810">
	<ele>911.60</ele>
	<time>2025-02-15T09:10:42.000Z</time>
</trkpt>
<trkpt lat="45.8603790" lon="9.2322750">
	<ele>911.80</ele>
	<time>2025-02-15T09:10:43.000Z</time>
</trkpt>
<trkpt lat="45.8603870" lon="9.2322690">
	<ele>911.80</ele>
	<time>2025-02-15T09:10:44.000Z</time>
</trkpt>
<trkpt lat="45.8603920" lon="9.2322690">
	<ele>912.00</ele>
	<time>2025-02-15T09:10:45.000Z</time>
</trkpt>
<trkpt lat="45.8604020" lon="9.2322620">
	<ele>912.00</ele>
	<time>2025-02-15T09:10:46.000Z</time>
</trkpt>
<trkpt lat="45.8604130" lon="9.2322510">
	<ele>912.20</ele>
	<time>2025-02-15T09:10:47.000Z</time>
</trkpt>
<trkpt lat="45.8604240" lon="9.2322470">
	<ele>912.40</ele>
	<time>2025-02-15T09:10:48.000Z</time>
</trkpt>
<trkpt lat="45.8604280" lon="9.2322490">
	<ele>912.60</ele>
	<time>2025-02-15T09:10:49.000Z</time>
</trkpt>
<trkpt lat="45.8604350" lon="9.2322470">
	<ele>912.80</ele>
	<time>2025-02-15T09:10:50.000Z</time>
</trkpt>
<trkpt lat="45.8604390" lon="9.2322480">
	<ele>913.00</ele>
	<time>2025-02-15T09:10:51.000Z</time>
</trkpt>
<trkpt lat="45.8604460" lon="9.2322420">
	<ele>913.00</ele>
	<time>2025-02-15T09:10:52.000Z</time>
</trkpt>
<trkpt lat="45.8604520" lon="9.2322380">
	<ele>913.40</ele>
	<time>2025-02-15T09:10:53.000Z</time>
</trkpt>
<trkpt lat="45.8604610" lon="9.2322300">
	<ele>913.60</ele>
	<time>2025-02-15T09:10:54.000Z</time>
</trkpt>
<trkpt lat="45.8604700" lon="9.2322230">
	<ele>913.60</ele>
	<time>2025-02-15T09:10:55.000Z</time>
</trkpt>
<trkpt lat="45.8604710" lon="9.2322290">
	<ele>913.80</ele>
	<time>2025-02-15T09:10:56.000Z</time>
</trkpt>
<trkpt lat="45.8604780" lon="9.2322350">
	<ele>913.80</ele>
	<time>2025-02-15T09:10:57.000Z</time>
</trkpt>
<trkpt lat="45.8604840" lon="9.2322390">
	<ele>914.00</ele>
	<time>2025-02-15T09:10:58.000Z</time>
</trkpt>
<trkpt lat="45.8604920" lon="9.2322450">
	<ele>914.00</ele>
	<time>2025-02-15T09:10:59.000Z</time>
</trkpt>
<trkpt lat="45.8605010" lon="9.2322480">
	<ele>914.20</ele>
	<time>2025-02-15T09:11:00.000Z</time>
</trkpt>
<trkpt lat="45.8605050" lon="9.2322470">
	<ele>914.40</ele>
	<time>2025-02-15T09:11:01.000Z</time>
</trkpt>
<trkpt lat="45.8605110" lon="9.2322500">
	<ele>914.40</ele>
	<time>2025-02-15T09:11:02.000Z</time>
</trkpt>
<trkpt lat="45.8605200" lon="9.2322480">
	<ele>914.60</ele>
	<time>2025-02-15T09:11:03.000Z</time>
</trkpt>
<trkpt lat="45.8605260" lon="9.2322450">
	<ele>914.80</ele>
	<time>2025-02-15T09:11:04.000Z</time>
</trkpt>
<trkpt lat="45.8605300" lon="9.2322470">
	<ele>915.00</ele>
	<time>2025-02-15T09:11:05.000Z</time>
</trkpt>
<trkpt lat="45.8605360" lon="9.2322380">
	<ele>915.20</ele>
	<time>2025-02-15T09:11:06.000Z</time>
</trkpt>
<trkpt lat="45.8605450" lon="9.2322300">
	<ele>915.40</ele>
	<time>2025-02-15T09:11:07.000Z</time>
</trkpt>
<trkpt lat="45.8605530" lon="9.2322270">
	<ele>915.40</ele>
	<time>2025-02-15T09:11:08.000Z</time>
</trkpt>
<trkpt lat="45.8605560" lon="9.2322250">
	<ele>915.60</ele>
	<time>2025-02-15T09:11:09.000Z</time>
</trkpt>
<trkpt lat="45.8605620" lon="9.2322220">
	<ele>915.80</ele>
	<time>2025-02-15T09:11:10.000Z</time>
</trkpt>
<trkpt lat="45.8605690" lon="9.2322200">
	<ele>916.00</ele>
	<time>2025-02-15T09:11:11.000Z</time>
</trkpt>
<trkpt lat="45.8605710" lon="9.2322190">
	<ele>916.00</ele>
	<time>2025-02-15T09:11:12.000Z</time>
</trkpt>
<trkpt lat="45.8605760" lon="9.2322160">
	<ele>916.00</ele>
	<time>2025-02-15T09:11:13.000Z</time>
</trkpt>
<trkpt lat="45.8605880" lon="9.2322040">
	<ele>916.00</ele>
	<time>2025-02-15T09:11:14.000Z</time>
</trkpt>
<trkpt lat="45.8605980" lon="9.2322010">
	<ele>916.20</ele>
	<time>2025-02-15T09:11:15.000Z</time>
</trkpt>
<trkpt lat="45.8606040" lon="9.2322050">
	<ele>916.20</ele>
	<time>2025-02-15T09:11:16.000Z</time>
</trkpt>
<trkpt lat="45.8606070" lon="9.2322000">
	<ele>916.40</ele>
	<time>2025-02-15T09:11:17.000Z</time>
</trkpt>
<trkpt lat="45.8606150" lon="9.2321980">
	<ele>916.40</ele>
	<time>2025-02-15T09:11:18.000Z</time>
</trkpt>
<trkpt lat="45.8606250" lon="9.2321970">
	<ele>916.60</ele>
	<time>2025-02-15T09:11:19.000Z</time>
</trkpt>
<trkpt lat="45.8606390" lon="9.2321870">
	<ele>916.80</ele>
	<time>2025-02-15T09:11:20.000Z</time>
</trkpt>
<trkpt lat="45.8606480" lon="9.2321900">
	<ele>916.80</ele>
	<time>2025-02-15T09:11:21.000Z</time>
</trkpt>
<trkpt lat="45.8606550" lon="9.2321920">
	<ele>916.80</ele>
	<time>2025-02-15T09:11:22.000Z</time>
</trkpt>
<trkpt lat="45.8606580" lon="9.2321930">
	<ele>916.80</ele>
	<time>2025-02-15T09:11:23.000Z</time>
</trkpt>
<trkpt lat="45.8606610" lon="9.2321970">
	<ele>917.00</ele>
	<time>2025-02-15T09:11:24.000Z</time>
</trkpt>
<trkpt lat="45.8606710" lon="9.2321930">
	<ele>917.00</ele>
	<time>2025-02-15T09:11:25.000Z</time>
</trkpt>
<trkpt lat="45.8606880" lon="9.2321830">
	<ele>917.40</ele>
	<time>2025-02-15T09:11:26.000Z</time>
</trkpt>
<trkpt lat="45.8606930" lon="9.2321800">
	<ele>917.60</ele>
	<time>2025-02-15T09:11:27.000Z</time>
</trkpt>
<trkpt lat="45.8607030" lon="9.2321930">
	<ele>917.60</ele>
	<time>2025-02-15T09:11:28.000Z</time>
</trkpt>
<trkpt lat="45.8607090" lon="9.2322080">
	<ele>917.80</ele>
	<time>2025-02-15T09:11:29.000Z</time>
</trkpt>
<trkpt lat="45.8607230" lon="9.2322120">
	<ele>917.80</ele>
	<time>2025-02-15T09:11:30.000Z</time>
</trkpt>
<trkpt lat="45.8607370" lon="9.2322070">
	<ele>917.80</ele>
	<time>2025-02-15T09:11:31.000Z</time>
</trkpt>
<trkpt lat="45.8607430" lon="9.2322010">
	<ele>918.00</ele>
	<time>2025-02-15T09:11:32.000Z</time>
</trkpt>
<trkpt lat="45.8607460" lon="9.2321990">
	<ele>918.20</ele>
	<time>2025-02-15T09:11:33.000Z</time>
</trkpt>
<trkpt lat="45.8607490" lon="9.2321900">
	<ele>918.20</ele>
	<time>2025-02-15T09:11:34.000Z</time>
</trkpt>
<trkpt lat="45.8607500" lon="9.2321900">
	<ele>918.40</ele>
	<time>2025-02-15T09:11:35.000Z</time>
</trkpt>
<trkpt lat="45.8607540" lon="9.2321900">
	<ele>918.40</ele>
	<time>2025-02-15T09:11:36.000Z</time>
</trkpt>
<trkpt lat="45.8607640" lon="9.2321880">
	<ele>918.60</ele>
	<time>2025-02-15T09:11:37.000Z</time>
</trkpt>
<trkpt lat="45.8607770" lon="9.2321920">
	<ele>918.60</ele>
	<time>2025-02-15T09:11:38.000Z</time>
</trkpt>
<trkpt lat="45.8607870" lon="9.2322080">
	<ele>918.80</ele>
	<time>2025-02-15T09:11:39.000Z</time>
</trkpt>
<trkpt lat="45.8608020" lon="9.2322190">
	<ele>919.00</ele>
	<time>2025-02-15T09:11:40.000Z</time>
</trkpt>
<trkpt lat="45.8608240" lon="9.2322130">
	<ele>919.20</ele>
	<time>2025-02-15T09:11:41.000Z</time>
</trkpt>
<trkpt lat="45.8608340" lon="9.2322070">
	<ele>919.40</ele>
	<time>2025-02-15T09:11:42.000Z</time>
</trkpt>
<trkpt lat="45.8608460" lon="9.2322020">
	<ele>919.40</ele>
	<time>2025-02-15T09:11:43.000Z</time>
</trkpt>
<trkpt lat="45.8608610" lon="9.2321980">
	<ele>919.60</ele>
	<time>2025-02-15T09:11:44.000Z</time>
</trkpt>
<trkpt lat="45.8608580" lon="9.2322020">
	<ele>919.80</ele>
	<time>2025-02-15T09:11:45.000Z</time>
</trkpt>
<trkpt lat="45.8608650" lon="9.2322010">
	<ele>919.80</ele>
	<time>2025-02-15T09:11:46.000Z</time>
</trkpt>
<trkpt lat="45.8608690" lon="9.2322010">
	<ele>920.00</ele>
	<time>2025-02-15T09:11:47.000Z</time>
</trkpt>
<trkpt lat="45.8608710" lon="9.2321980">
	<ele>920.00</ele>
	<time>2025-02-15T09:11:48.000Z</time>
</trkpt>
<trkpt lat="45.8608800" lon="9.2322010">
	<ele>920.20</ele>
	<time>2025-02-15T09:11:49.000Z</time>
</trkpt>
<trkpt lat="45.8608820" lon="9.2322010">
	<ele>920.20</ele>
	<time>2025-02-15T09:11:50.000Z</time>
</trkpt>
<trkpt lat="45.8608860" lon="9.2322000">
	<ele>920.20</ele>
	<time>2025-02-15T09:11:51.000Z</time>
</trkpt>
<trkpt lat="45.8608930" lon="9.2322050">
	<ele>920.40</ele>
	<time>2025-02-15T09:11:52.000Z</time>
</trkpt>
<trkpt lat="45.8609000" lon="9.2322070">
	<ele>920.40</ele>
	<time>2025-02-15T09:11:53.000Z</time>
</trkpt>
<trkpt lat="45.8609030" lon="9.2322050">
	<ele>920.60</ele>
	<time>2025-02-15T09:11:54.000Z</time>
</trkpt>
<trkpt lat="45.8609070" lon="9.2322030">
	<ele>920.60</ele>
	<time>2025-02-15T09:11:55.000Z</time>
</trkpt>
<trkpt lat="45.8609100" lon="9.2321970">
	<ele>921.00</ele>
	<time>2025-02-15T09:11:56.000Z</time>
</trkpt>
<trkpt lat="45.8609080" lon="9.2321980">
	<ele>921.40</ele>
	<time>2025-02-15T09:11:57.000Z</time>
</trkpt>
<trkpt lat="45.8609060" lon="9.2321980">
	<ele>921.60</ele>
	<time>2025-02-15T09:11:58.000Z</time>
</trkpt>
<trkpt lat="45.8609110" lon="9.2321900">
	<ele>921.60</ele>
	<time>2025-02-15T09:11:59.000Z</time>
</trkpt>
<trkpt lat="45.8609220" lon="9.2321830">
	<ele>921.80</ele>
	<time>2025-02-15T09:12:00.000Z</time>
</trkpt>
<trkpt lat="45.8609340" lon="9.2321740">
	<ele>921.80</ele>
	<time>2025-02-15T09:12:01.000Z</time>
</trkpt>
<trkpt lat="45.8609440" lon="9.2321740">
	<ele>921.80</ele>
	<time>2025-02-15T09:12:02.000Z</time>
</trkpt>
<trkpt lat="45.8609460" lon="9.2321750">
	<ele>921.80</ele>
	<time>2025-02-15T09:12:03.000Z</time>
</trkpt>
<trkpt lat="45.8609550" lon="9.2321740">
	<ele>921.80</ele>
	<time>2025-02-15T09:12:04.000Z</time>
</trkpt>
<trkpt lat="45.8609670" lon="9.2321720">
	<ele>921.80</ele>
	<time>2025-02-15T09:12:05.000Z</time>
</trkpt>
<trkpt lat="45.8609760" lon="9.2321710">
	<ele>921.80</ele>
	<time>2025-02-15T09:12:06.000Z</time>
</trkpt>
<trkpt lat="45.8609820" lon="9.2321710">
	<ele>921.80</ele>
	<time>2025-02-15T09:12:07.000Z</time>
</trkpt>
<trkpt lat="45.8609850" lon="9.2321690">
	<ele>921.80</ele>
	<time>2025-02-15T09:12:08.000Z</time>
</trkpt>
<trkpt lat="45.8609890" lon="9.2321700">
	<ele>921.80</ele>
	<time>2025-02-15T09:12:09.000Z</time>
</trkpt>
<trkpt lat="45.8609970" lon="9.2321710">
	<ele>922.00</ele>
	<time>2025-02-15T09:12:10.000Z</time>
</trkpt>
<trkpt lat="45.8610060" lon="9.2321720">
	<ele>922.00</ele>
	<time>2025-02-15T09:12:11.000Z</time>
</trkpt>
<trkpt lat="45.8610110" lon="9.2321720">
	<ele>922.00</ele>
	<time>2025-02-15T09:12:12.000Z</time>
</trkpt>
<trkpt lat="45.8610080" lon="9.2321690">
	<ele>922.20</ele>
	<time>2025-02-15T09:12:13.000Z</time>
</trkpt>
<trkpt lat="45.8610090" lon="9.2321650">
	<ele>922.20</ele>
	<time>2025-02-15T09:12:14.000Z</time>
</trkpt>
<trkpt lat="45.8610110" lon="9.2321640">
	<ele>922.40</ele>
	<time>2025-02-15T09:12:15.000Z</time>
</trkpt>
<trkpt lat="45.8610150" lon="9.2321640">
	<ele>922.60</ele>
	<time>2025-02-15T09:12:16.000Z</time>
</trkpt>
<trkpt lat="45.8610210" lon="9.2321710">
	<ele>922.60</ele>
	<time>2025-02-15T09:12:17.000Z</time>
</trkpt>
<trkpt lat="45.8610220" lon="9.2321720">
	<ele>922.80</ele>
	<time>2025-02-15T09:12:18.000Z</time>
</trkpt>
<trkpt lat="45.8610270" lon="9.2321690">
	<ele>923.00</ele>
	<time>2025-02-15T09:12:19.000Z</time>
</trkpt>
<trkpt lat="45.8610350" lon="9.2321710">
	<ele>923.00</ele>
	<time>2025-02-15T09:12:20.000Z</time>
</trkpt>
<trkpt lat="45.8610440" lon="9.2321800">
	<ele>923.20</ele>
	<time>2025-02-15T09:12:21.000Z</time>
</trkpt>
<trkpt lat="45.8610520" lon="9.2321920">
	<ele>923.20</ele>
	<time>2025-02-15T09:12:22.000Z</time>
</trkpt>
<trkpt lat="45.8610500" lon="9.2321870">
	<ele>923.40</ele>
	<time>2025-02-15T09:12:23.000Z</time>
</trkpt>
<trkpt lat="45.8610640" lon="9.2321980">
	<ele>923.60</ele>
	<time>2025-02-15T09:12:24.000Z</time>
</trkpt>
<trkpt lat="45.8610690" lon="9.2321990">
	<ele>923.60</ele>
	<time>2025-02-15T09:12:25.000Z</time>
</trkpt>
<trkpt lat="45.8610750" lon="9.2322030">
	<ele>923.80</ele>
	<time>2025-02-15T09:12:26.000Z</time>
</trkpt>
<trkpt lat="45.8610830" lon="9.2322070">
	<ele>923.80</ele>
	<time>2025-02-15T09:12:27.000Z</time>
</trkpt>
<trkpt lat="45.8610860" lon="9.2322120">
	<ele>924.00</ele>
	<time>2025-02-15T09:12:28.000Z</time>
</trkpt>
<trkpt lat="45.8610890" lon="9.2322120">
	<ele>924.00</ele>
	<time>2025-02-15T09:12:29.000Z</time>
</trkpt>
<trkpt lat="45.8610970" lon="9.2322060">
	<ele>924.00</ele>
	<time>2025-02-15T09:12:30.000Z</time>
</trkpt>
<trkpt lat="45.8611130" lon="9.2322030">
	<ele>924.00</ele>
	<time>2025-02-15T09:12:31.000Z</time>
</trkpt>
<trkpt lat="45.8611220" lon="9.2322090">
	<ele>924.40</ele>
	<time>2025-02-15T09:12:32.000Z</time>
</trkpt>
<trkpt lat="45.8611300" lon="9.2322200">
	<ele>924.60</ele>
	<time>2025-02-15T09:12:33.000Z</time>
</trkpt>
<trkpt lat="45.8611410" lon="9.2322250">
	<ele>924.60</ele>
	<time>2025-02-15T09:12:34.000Z</time>
</trkpt>
<trkpt lat="45.8611470" lon="9.2322220">
	<ele>924.80</ele>
	<time>2025-02-15T09:12:35.000Z</time>
</trkpt>
<trkpt lat="45.8611550" lon="9.2322230">
	<ele>925.00</ele>
	<time>2025-02-15T09:12:36.000Z</time>
</trkpt>
<trkpt lat="45.8611630" lon="9.2322270">
	<ele>925.00</ele>
	<time>2025-02-15T09:12:37.000Z</time>
</trkpt>
<trkpt lat="45.8611710" lon="9.2322300">
	<ele>925.20</ele>
	<time>2025-02-15T09:12:38.000Z</time>
</trkpt>
<trkpt lat="45.8611790" lon="9.2322310">
	<ele>925.20</ele>
	<time>2025-02-15T09:12:39.000Z</time>
</trkpt>
<trkpt lat="45.8611860" lon="9.2322330">
	<ele>925.40</ele>
	<time>2025-02-15T09:12:40.000Z</time>
</trkpt>
<trkpt lat="45.8611940" lon="9.2322380">
	<ele>925.80</ele>
	<time>2025-02-15T09:12:41.000Z</time>
</trkpt>
<trkpt lat="45.8612040" lon="9.2322340">
	<ele>926.00</ele>
	<time>2025-02-15T09:12:42.000Z</time>
</trkpt>
<trkpt lat="45.8612120" lon="9.2322360">
	<ele>926.40</ele>
	<time>2025-02-15T09:12:43.000Z</time>
</trkpt>
<trkpt lat="45.8612220" lon="9.2322300">
	<ele>926.40</ele>
	<time>2025-02-15T09:12:44.000Z</time>
</trkpt>
<trkpt lat="45.8612320" lon="9.2322340">
	<ele>926.60</ele>
	<time>2025-02-15T09:12:45.000Z</time>
</trkpt>
<trkpt lat="45.8612410" lon="9.2322390">
	<ele>926.60</ele>
	<time>2025-02-15T09:12:46.000Z</time>
</trkpt>
<trkpt lat="45.8612450" lon="9.2322460">
	<ele>926.60</ele>
	<time>2025-02-15T09:12:47.000Z</time>
</trkpt>
<trkpt lat="45.8612520" lon="9.2322550">
	<ele>927.00</ele>
	<time>2025-02-15T09:12:48.000Z</time>
</trkpt>
<trkpt lat="45.8612640" lon="9.2322620">
	<ele>927.20</ele>
	<time>2025-02-15T09:12:49.000Z</time>
</trkpt>
<trkpt lat="45.8612740" lon="9.2322600">
	<ele>927.20</ele>
	<time>2025-02-15T09:12:50.000Z</time>
</trkpt>
<trkpt lat="45.8612770" lon="9.2322680">
	<ele>927.40</ele>
	<time>2025-02-15T09:12:51.000Z</time>
</trkpt>
<trkpt lat="45.8612820" lon="9.2322680">
	<ele>927.40</ele>
	<time>2025-02-15T09:12:52.000Z</time>
</trkpt>
<trkpt lat="45.8612900" lon="9.2322520">
	<ele>927.60</ele>
	<time>2025-02-15T09:12:53.000Z</time>
</trkpt>
<trkpt lat="45.8612950" lon="9.2322250">
	<ele>927.60</ele>
	<time>2025-02-15T09:12:54.000Z</time>
</trkpt>
<trkpt lat="45.8612970" lon="9.2322230">
	<ele>928.00</ele>
	<time>2025-02-15T09:12:55.000Z</time>
</trkpt>
<trkpt lat="45.8612960" lon="9.2322130">
	<ele>928.20</ele>
	<time>2025-02-15T09:12:56.000Z</time>
</trkpt>
<trkpt lat="45.8612960" lon="9.2322160">
	<ele>928.40</ele>
	<time>2025-02-15T09:12:57.000Z</time>
</trkpt>
<trkpt lat="45.8612930" lon="9.2322150">
	<ele>928.40</ele>
	<time>2025-02-15T09:12:58.000Z</time>
</trkpt>
<trkpt lat="45.8613090" lon="9.2322080">
	<ele>928.60</ele>
	<time>2025-02-15T09:12:59.000Z</time>
</trkpt>
<trkpt lat="45.8613250" lon="9.2322030">
	<ele>928.60</ele>
	<time>2025-02-15T09:13:00.000Z</time>
</trkpt>
<trkpt lat="45.8613380" lon="9.2321950">
	<ele>928.80</ele>
	<time>2025-02-15T09:13:01.000Z</time>
</trkpt>
<trkpt lat="45.8613470" lon="9.2321950">
	<ele>929.00</ele>
	<time>2025-02-15T09:13:02.000Z</time>
</trkpt>
<trkpt lat="45.8613520" lon="9.2321930">
	<ele>929.20</ele>
	<time>2025-02-15T09:13:03.000Z</time>
</trkpt>
<trkpt lat="45.8613520" lon="9.2321950">
	<ele>929.20</ele>
	<time>2025-02-15T09:13:04.000Z</time>
</trkpt>
<trkpt lat="45.8613520" lon="9.2321950">
	<ele>929.40</ele>
	<time>2025-02-15T09:13:05.000Z</time>
</trkpt>
<trkpt lat="45.8613530" lon="9.2321970">
	<ele>929.40</ele>
	<time>2025-02-15T09:13:06.000Z</time>
</trkpt>
<trkpt lat="45.8613580" lon="9.2321970">
	<ele>929.60</ele>
	<time>2025-02-15T09:13:07.000Z</time>
</trkpt>
<trkpt lat="45.8613620" lon="9.2321980">
	<ele>929.60</ele>
	<time>2025-02-15T09:13:08.000Z</time>
</trkpt>
<trkpt lat="45.8613630" lon="9.2321970">
	<ele>929.80</ele>
	<time>2025-02-15T09:13:09.000Z</time>
</trkpt>
<trkpt lat="45.8613650" lon="9.2321940">
	<ele>929.80</ele>
	<time>2025-02-15T09:13:10.000Z</time>
</trkpt>
<trkpt lat="45.8613730" lon="9.2321860">
	<ele>930.00</ele>
	<time>2025-02-15T09:13:11.000Z</time>
</trkpt>
<trkpt lat="45.8613810" lon="9.2321790">
	<ele>930.00</ele>
	<time>2025-02-15T09:13:12.000Z</time>
</trkpt>
<trkpt lat="45.8613850" lon="9.2321740">
	<ele>930.00</ele>
	<time>2025-02-15T09:13:13.000Z</time>
</trkpt>
<trkpt lat="45.8613840" lon="9.2321700">
	<ele>930.20</ele>
	<time>2025-02-15T09:13:14.000Z</time>
</trkpt>
<trkpt lat="45.8613850" lon="9.2321670">
	<ele>930.20</ele>
	<time>2025-02-15T09:13:15.000Z</time>
</trkpt>
<trkpt lat="45.8613920" lon="9.2321680">
	<ele>930.40</ele>
	<time>2025-02-15T09:13:16.000Z</time>
</trkpt>
<trkpt lat="45.8614000" lon="9.2321730">
	<ele>930.40</ele>
	<time>2025-02-15T09:13:17.000Z</time>
</trkpt>
<trkpt lat="45.8614080" lon="9.2321710">
	<ele>930.40</ele>
	<time>2025-02-15T09:13:18.000Z</time>
</trkpt>
<trkpt lat="45.8614170" lon="9.2321710">
	<ele>930.60</ele>
	<time>2025-02-15T09:13:19.000Z</time>
</trkpt>
<trkpt lat="45.8614250" lon="9.2321790">
	<ele>930.60</ele>
	<time>2025-02-15T09:13:20.000Z</time>
</trkpt>
<trkpt lat="45.8614340" lon="9.2321860">
	<ele>930.60</ele>
	<time>2025-02-15T09:13:21.000Z</time>
</trkpt>
<trkpt lat="45.8614420" lon="9.2321900">
	<ele>931.00</ele>
	<time>2025-02-15T09:13:22.000Z</time>
</trkpt>
<trkpt lat="45.8614490" lon="9.2321930">
	<ele>931.20</ele>
	<time>2025-02-15T09:13:23.000Z</time>
</trkpt>
<trkpt lat="45.8614590" lon="9.2321890">
	<ele>931.40</ele>
	<time>2025-02-15T09:13:24.000Z</time>
</trkpt>
<trkpt lat="45.8614710" lon="9.2321810">
	<ele>931.40</ele>
	<time>2025-02-15T09:13:25.000Z</time>
</trkpt>
<trkpt lat="45.8614750" lon="9.2321760">
	<ele>931.80</ele>
	<time>2025-02-15T09:13:26.000Z</time>
</trkpt>
<trkpt lat="45.8614910" lon="9.2321750">
	<ele>932.00</ele>
	<time>2025-02-15T09:13:27.000Z</time>
</trkpt>
<trkpt lat="45.8615060" lon="9.2321770">
	<ele>932.00</ele>
	<time>2025-02-15T09:13:28.000Z</time>
</trkpt>
<trkpt lat="45.8615150" lon="9.2321840">
	<ele>932.20</ele>
	<time>2025-02-15T09:13:29.000Z</time>
</trkpt>
<trkpt lat="45.8615260" lon="9.2321840">
	<ele>932.40</ele>
	<time>2025-02-15T09:13:30.000Z</time>
</trkpt>
<trkpt lat="45.8615370" lon="9.2321780">
	<ele>932.40</ele>
	<time>2025-02-15T09:13:31.000Z</time>
</trkpt>
<trkpt lat="45.8615470" lon="9.2321740">
	<ele>932.40</ele>
	<time>2025-02-15T09:13:32.000Z</time>
</trkpt>
<trkpt lat="45.8615560" lon="9.2321720">
	<ele>932.40</ele>
	<time>2025-02-15T09:13:33.000Z</time>
</trkpt>
<trkpt lat="45.8615660" lon="9.2321680">
	<ele>932.60</ele>
	<time>2025-02-15T09:13:34.000Z</time>
</trkpt>
<trkpt lat="45.8615740" lon="9.2321700">
	<ele>932.80</ele>
	<time>2025-02-15T09:13:35.000Z</time>
</trkpt>
<trkpt lat="45.8615840" lon="9.2321680">
	<ele>933.00</ele>
	<time>2025-02-15T09:13:36.000Z</time>
</trkpt>
<trkpt lat="45.8615890" lon="9.2321800">
	<ele>933.20</ele>
	<time>2025-02-15T09:13:37.000Z</time>
</trkpt>
<trkpt lat="45.8615960" lon="9.2321880">
	<ele>933.20</ele>
	<time>2025-02-15T09:13:38.000Z</time>
</trkpt>
<trkpt lat="45.8616080" lon="9.2321880">
	<ele>933.20</ele>
	<time>2025-02-15T09:13:39.000Z</time>
</trkpt>
<trkpt lat="45.8616210" lon="9.2321910">
	<ele>933.40</ele>
	<time>2025-02-15T09:13:40.000Z</time>
</trkpt>
<trkpt lat="45.8616310" lon="9.2321990">
	<ele>933.40</ele>
	<time>2025-02-15T09:13:41.000Z</time>
</trkpt>
<trkpt lat="45.8616410" lon="9.2322040">
	<ele>933.40</ele>
	<time>2025-02-15T09:13:42.000Z</time>
</trkpt>
<trkpt lat="45.8616590" lon="9.2321970">
	<ele>933.60</ele>
	<time>2025-02-15T09:13:43.000Z</time>
</trkpt>
<trkpt lat="45.8616780" lon="9.2321910">
	<ele>933.60</ele>
	<time>2025-02-15T09:13:44.000Z</time>
</trkpt>
<trkpt lat="45.8616920" lon="9.2321920">
	<ele>933.60</ele>
	<time>2025-02-15T09:13:45.000Z</time>
</trkpt>
<trkpt lat="45.8617060" lon="9.2321940">
	<ele>933.60</ele>
	<time>2025-02-15T09:13:46.000Z</time>
</trkpt>
<trkpt lat="45.8617220" lon="9.2321900">
	<ele>933.80</ele>
	<time>2025-02-15T09:13:47.000Z</time>
</trkpt>
<trkpt lat="45.8617350" lon="9.2321910">
	<ele>933.80</ele>
	<time>2025-02-15T09:13:48.000Z</time>
</trkpt>
<trkpt lat="45.8617420" lon="9.2321930">
	<ele>933.80</ele>
	<time>2025-02-15T09:13:49.000Z</time>
</trkpt>
<trkpt lat="45.8617570" lon="9.2321810">
	<ele>933.60</ele>
	<time>2025-02-15T09:13:50.000Z</time>
</trkpt>
<trkpt lat="45.8617620" lon="9.2321800">
	<ele>933.60</ele>
	<time>2025-02-15T09:13:51.000Z</time>
</trkpt>
<trkpt lat="45.8617770" lon="9.2321730">
	<ele>933.60</ele>
	<time>2025-02-15T09:13:52.000Z</time>
</trkpt>
<trkpt lat="45.8617760" lon="9.2321710">
	<ele>933.40</ele>
	<time>2025-02-15T09:13:53.000Z</time>
</trkpt>
<trkpt lat="45.8617750" lon="9.2321690">
	<ele>933.40</ele>
	<time>2025-02-15T09:13:54.000Z</time>
</trkpt>
<trkpt lat="45.8617890" lon="9.2321580">
	<ele>933.40</ele>
	<time>2025-02-15T09:13:55.000Z</time>
</trkpt>
<trkpt lat="45.8618030" lon="9.2321530">
	<ele>933.20</ele>
	<time>2025-02-15T09:13:56.000Z</time>
</trkpt>
<trkpt lat="45.8618030" lon="9.2321520">
	<ele>933.20</ele>
	<time>2025-02-15T09:13:57.000Z</time>
</trkpt>
<trkpt lat="45.8618280" lon="9.2321310">
	<ele>933.20</ele>
	<time>2025-02-15T09:13:58.000Z</time>
</trkpt>
<trkpt lat="45.8618450" lon="9.2321210">
	<ele>933.20</ele>
	<time>2025-02-15T09:13:59.000Z</time>
</trkpt>
<trkpt lat="45.8618510" lon="9.2321170">
	<ele>933.20</ele>
	<time>2025-02-15T09:14:00.000Z</time>
</trkpt>
<trkpt lat="45.8618510" lon="9.2321130">
	<ele>933.20</ele>
	<time>2025-02-15T09:14:01.000Z</time>
</trkpt>
<trkpt lat="45.8618570" lon="9.2321050">
	<ele>933.20</ele>
	<time>2025-02-15T09:14:02.000Z</time>
</trkpt>
<trkpt lat="45.8618590" lon="9.2321030">
	<ele>933.20</ele>
	<time>2025-02-15T09:14:03.000Z</time>
</trkpt>
<trkpt lat="45.8618590" lon="9.2320990">
	<ele>933.20</ele>
	<time>2025-02-15T09:14:04.000Z</time>
</trkpt>
<trkpt lat="45.8618620" lon="9.2320950">
	<ele>933.20</ele>
	<time>2025-02-15T09:14:05.000Z</time>
</trkpt>
<trkpt lat="45.8618630" lon="9.2320910">
	<ele>933.20</ele>
	<time>2025-02-15T09:14:06.000Z</time>
</trkpt>
<trkpt lat="45.8618640" lon="9.2320870">
	<ele>933.20</ele>
	<time>2025-02-15T09:14:07.000Z</time>
</trkpt>
<trkpt lat="45.8618660" lon="9.2320800">
	<ele>933.20</ele>
	<time>2025-02-15T09:14:08.000Z</time>
</trkpt>
<trkpt lat="45.8618690" lon="9.2320710">
	<ele>933.00</ele>
	<time>2025-02-15T09:14:09.000Z</time>
</trkpt>
<trkpt lat="45.8618710" lon="9.2320600">
	<ele>932.80</ele>
	<time>2025-02-15T09:14:10.000Z</time>
</trkpt>
<trkpt lat="45.8618730" lon="9.2320550">
	<ele>932.80</ele>
	<time>2025-02-15T09:14:11.000Z</time>
</trkpt>
<trkpt lat="45.8618840" lon="9.2320420">
	<ele>932.80</ele>
	<time>2025-02-15T09:14:12.000Z</time>
</trkpt>
<trkpt lat="45.8618840" lon="9.2320440">
	<ele>932.80</ele>
	<time>2025-02-15T09:14:13.000Z</time>
</trkpt>
<trkpt lat="45.8618860" lon="9.2320410">
	<ele>932.60</ele>
	<time>2025-02-15T09:14:14.000Z</time>
</trkpt>
<trkpt lat="45.8618950" lon="9.2320300">
	<ele>932.60</ele>
	<time>2025-02-15T09:14:15.000Z</time>
</trkpt>
<trkpt lat="45.8619030" lon="9.2320130">
	<ele>932.60</ele>
	<time>2025-02-15T09:14:16.000Z</time>
</trkpt>
<trkpt lat="45.8619150" lon="9.2319970">
	<ele>932.60</ele>
	<time>2025-02-15T09:14:17.000Z</time>
</trkpt>
<trkpt lat="45.8619240" lon="9.2319810">
	<ele>932.60</ele>
	<time>2025-02-15T09:14:18.000Z</time>
</trkpt>
<trkpt lat="45.8619280" lon="9.2319790">
	<ele>932.40</ele>
	<time>2025-02-15T09:14:19.000Z</time>
</trkpt>
<trkpt lat="45.8619340" lon="9.2319720">
	<ele>932.40</ele>
	<time>2025-02-15T09:14:20.000Z</time>
</trkpt>
<trkpt lat="45.8619410" lon="9.2319610">
	<ele>932.40</ele>
	<time>2025-02-15T09:14:21.000Z</time>
</trkpt>
<trkpt lat="45.8619470" lon="9.2319510">
	<ele>932.40</ele>
	<time>2025-02-15T09:14:22.000Z</time>
</trkpt>
<trkpt lat="45.8619550" lon="9.2319440">
	<ele>932.20</ele>
	<time>2025-02-15T09:14:23.000Z</time>
</trkpt>
<trkpt lat="45.8619600" lon="9.2319360">
	<ele>932.20</ele>
	<time>2025-02-15T09:14:24.000Z</time>
</trkpt>
<trkpt lat="45.8619620" lon="9.2319300">
	<ele>932.40</ele>
	<time>2025-02-15T09:14:25.000Z</time>
</trkpt>
<trkpt lat="45.8619640" lon="9.2319220">
	<ele>932.40</ele>
	<time>2025-02-15T09:14:26.000Z</time>
</trkpt>
<trkpt lat="45.8619670" lon="9.2319160">
	<ele>932.60</ele>
	<time>2025-02-15T09:14:27.000Z</time>
</trkpt>
<trkpt lat="45.8619770" lon="9.2319020">
	<ele>932.60</ele>
	<time>2025-02-15T09:14:28.000Z</time>
</trkpt>
<trkpt lat="45.8619900" lon="9.2318860">
	<ele>932.60</ele>
	<time>2025-02-15T09:14:29.000Z</time>
</trkpt>
<trkpt lat="45.8619930" lon="9.2318830">
	<ele>932.60</ele>
	<time>2025-02-15T09:14:30.000Z</time>
</trkpt>
<trkpt lat="45.8620020" lon="9.2318750">
	<ele>932.60</ele>
	<time>2025-02-15T09:14:31.000Z</time>
</trkpt>
<trkpt lat="45.8620130" lon="9.2318620">
	<ele>932.60</ele>
	<time>2025-02-15T09:14:32.000Z</time>
</trkpt>
<trkpt lat="45.8620260" lon="9.2318430">
	<ele>932.60</ele>
	<time>2025-02-15T09:14:33.000Z</time>
</trkpt>
<trkpt lat="45.8620410" lon="9.2318270">
	<ele>932.80</ele>
	<time>2025-02-15T09:14:34.000Z</time>
</trkpt>
<trkpt lat="45.8620510" lon="9.2318180">
	<ele>932.80</ele>
	<time>2025-02-15T09:14:35.000Z</time>
</trkpt>
<trkpt lat="45.8620580" lon="9.2318040">
	<ele>932.80</ele>
	<time>2025-02-15T09:14:36.000Z</time>
</trkpt>
<trkpt lat="45.8620650" lon="9.2317860">
	<ele>932.80</ele>
	<time>2025-02-15T09:14:37.000Z</time>
</trkpt>
<trkpt lat="45.8620750" lon="9.2317660">
	<ele>933.00</ele>
	<time>2025-02-15T09:14:38.000Z</time>
</trkpt>
<trkpt lat="45.8620820" lon="9.2317520">
	<ele>933.20</ele>
	<time>2025-02-15T09:14:39.000Z</time>
</trkpt>
<trkpt lat="45.8620870" lon="9.2317380">
	<ele>933.20</ele>
	<time>2025-02-15T09:14:40.000Z</time>
</trkpt>
<trkpt lat="45.8620950" lon="9.2317240">
	<ele>933.20</ele>
	<time>2025-02-15T09:14:41.000Z</time>
</trkpt>
<trkpt lat="45.8620940" lon="9.2317130">
	<ele>933.40</ele>
	<time>2025-02-15T09:14:42.000Z</time>
</trkpt>
<trkpt lat="45.8620990" lon="9.2316870">
	<ele>933.40</ele>
	<time>2025-02-15T09:14:43.000Z</time>
</trkpt>
<trkpt lat="45.8621050" lon="9.2316590">
	<ele>933.60</ele>
	<time>2025-02-15T09:14:44.000Z</time>
</trkpt>
<trkpt lat="45.8621060" lon="9.2316410">
	<ele>933.80</ele>
	<time>2025-02-15T09:14:45.000Z</time>
</trkpt>
<trkpt lat="45.8621000" lon="9.2316270">
	<ele>933.80</ele>
	<time>2025-02-15T09:14:46.000Z</time>
</trkpt>
<trkpt lat="45.8621060" lon="9.2316080">
	<ele>933.80</ele>
	<time>2025-02-15T09:14:47.000Z</time>
</trkpt>
<trkpt lat="45.8621230" lon="9.2315860">
	<ele>933.80</ele>
	<time>2025-02-15T09:14:48.000Z</time>
</trkpt>
<trkpt lat="45.8621290" lon="9.2315700">
	<ele>934.00</ele>
	<time>2025-02-15T09:14:49.000Z</time>
</trkpt>
<trkpt lat="45.8621310" lon="9.2315650">
	<ele>934.00</ele>
	<time>2025-02-15T09:14:50.000Z</time>
</trkpt>
<trkpt lat="45.8621310" lon="9.2315650">
	<ele>934.00</ele>
	<time>2025-02-15T09:14:51.000Z</time>
</trkpt>
<trkpt lat="45.8621290" lon="9.2315670">
	<ele>934.00</ele>
	<time>2025-02-15T09:14:52.000Z</time>
</trkpt>
<trkpt lat="45.8621270" lon="9.2315680">
	<ele>934.20</ele>
	<time>2025-02-15T09:14:53.000Z</time>
</trkpt>
<trkpt lat="45.8621270" lon="9.2315670">
	<ele>934.20</ele>
	<time>2025-02-15T09:14:54.000Z</time>
</trkpt>
<trkpt lat="45.8621280" lon="9.2315630">
	<ele>934.20</ele>
	<time>2025-02-15T09:14:55.000Z</time>
</trkpt>
<trkpt lat="45.8621260" lon="9.2315730">
	<ele>934.40</ele>
	<time>2025-02-15T09:14:56.000Z</time>
</trkpt>
<trkpt lat="45.8621270" lon="9.2315760">
	<ele>934.40</ele>
	<time>2025-02-15T09:14:57.000Z</time>
</trkpt>
<trkpt lat="45.8621290" lon="9.2315740">
	<ele>934.40</ele>
	<time>2025-02-15T09:14:58.000Z</time>
</trkpt>
<trkpt lat="45.8621370" lon="9.2315640">
	<ele>934.40</ele>
	<time>2025-02-15T09:14:59.000Z</time>
</trkpt>
<trkpt lat="45.8621420" lon="9.2315570">
	<ele>934.20</ele>
	<time>2025-02-15T09:15:00.000Z</time>
</trkpt>
<trkpt lat="45.8621420" lon="9.2315550">
	<ele>934.20</ele>
	<time>2025-02-15T09:15:01.000Z</time>
</trkpt>
<trkpt lat="45.8621400" lon="9.2315540">
	<ele>934.00</ele>
	<time>2025-02-15T09:15:02.000Z</time>
</trkpt>
<trkpt lat="45.8621370" lon="9.2315510">
	<ele>934.00</ele>
	<time>2025-02-15T09:15:03.000Z</time>
</trkpt>
<trkpt lat="45.8621360" lon="9.2315500">
	<ele>934.00</ele>
	<time>2025-02-15T09:15:04.000Z</time>
</trkpt>
<trkpt lat="45.8621410" lon="9.2315410">
	<ele>934.00</ele>
	<time>2025-02-15T09:15:05.000Z</time>
</trkpt>
<trkpt lat="45.8621400" lon="9.2315380">
	<ele>934.00</ele>
	<time>2025-02-15T09:15:06.000Z</time>
</trkpt>
<trkpt lat="45.8621380" lon="9.2315380">
	<ele>934.00</ele>
	<time>2025-02-15T09:15:07.000Z</time>
</trkpt>
<trkpt lat="45.8621390" lon="9.2315360">
	<ele>934.00</ele>
	<time>2025-02-15T09:15:08.000Z</time>
</trkpt>
<trkpt lat="45.8621380" lon="9.2315330">
	<ele>934.00</ele>
	<time>2025-02-15T09:15:09.000Z</time>
</trkpt>
<trkpt lat="45.8621380" lon="9.2315270">
	<ele>934.20</ele>
	<time>2025-02-15T09:15:10.000Z</time>
</trkpt>
<trkpt lat="45.8621410" lon="9.2315250">
	<ele>934.20</ele>
	<time>2025-02-15T09:15:11.000Z</time>
</trkpt>
<trkpt lat="45.8621440" lon="9.2315240">
	<ele>934.20</ele>
	<time>2025-02-15T09:15:12.000Z</time>
</trkpt>
<trkpt lat="45.8621470" lon="9.2315240">
	<ele>934.40</ele>
	<time>2025-02-15T09:15:13.000Z</time>
</trkpt>
<trkpt lat="45.8621510" lon="9.2315140">
	<ele>934.40</ele>
	<time>2025-02-15T09:15:14.000Z</time>
</trkpt>
<trkpt lat="45.8621670" lon="9.2314980">
	<ele>934.60</ele>
	<time>2025-02-15T09:15:15.000Z</time>
</trkpt>
<trkpt lat="45.8621730" lon="9.2314890">
	<ele>934.60</ele>
	<time>2025-02-15T09:15:16.000Z</time>
</trkpt>
<trkpt lat="45.8621800" lon="9.2314770">
	<ele>934.60</ele>
	<time>2025-02-15T09:15:17.000Z</time>
</trkpt>
<trkpt lat="45.8621870" lon="9.2314590">
	<ele>934.60</ele>
	<time>2025-02-15T09:15:18.000Z</time>
</trkpt>
<trkpt lat="45.8621940" lon="9.2314490">
	<ele>934.60</ele>
	<time>2025-02-15T09:15:19.000Z</time>
</trkpt>
<trkpt lat="45.8621960" lon="9.2314420">
	<ele>934.80</ele>
	<time>2025-02-15T09:15:20.000Z</time>
</trkpt>
<trkpt lat="45.8621940" lon="9.2314380">
	<ele>934.80</ele>
	<time>2025-02-15T09:15:21.000Z</time>
</trkpt>
<trkpt lat="45.8621930" lon="9.2314330">
	<ele>935.00</ele>
	<time>2025-02-15T09:15:22.000Z</time>
</trkpt>
<trkpt lat="45.8621930" lon="9.2314270">
	<ele>935.20</ele>
	<time>2025-02-15T09:15:23.000Z</time>
</trkpt>
<trkpt lat="45.8621960" lon="9.2314140">
	<ele>935.20</ele>
	<time>2025-02-15T09:15:24.000Z</time>
</trkpt>
<trkpt lat="45.8621940" lon="9.2314120">
	<ele>935.40</ele>
	<time>2025-02-15T09:15:25.000Z</time>
</trkpt>
<trkpt lat="45.8621990" lon="9.2314020">
	<ele>935.60</ele>
	<time>2025-02-15T09:15:26.000Z</time>
</trkpt>
<trkpt lat="45.8622020" lon="9.2313990">
	<ele>935.60</ele>
	<time>2025-02-15T09:15:27.000Z</time>
</trkpt>
<trkpt lat="45.8622150" lon="9.2313870">
	<ele>935.80</ele>
	<time>2025-02-15T09:15:28.000Z</time>
</trkpt>
<trkpt lat="45.8622290" lon="9.2313720">
	<ele>935.80</ele>
	<time>2025-02-15T09:15:29.000Z</time>
</trkpt>
<trkpt lat="45.8622400" lon="9.2313620">
	<ele>936.20</ele>
	<time>2025-02-15T09:15:30.000Z</time>
</trkpt>
<trkpt lat="45.8622400" lon="9.2313600">
	<ele>936.20</ele>
	<time>2025-02-15T09:15:31.000Z</time>
</trkpt>
<trkpt lat="45.8622380" lon="9.2313580">
	<ele>936.60</ele>
	<time>2025-02-15T09:15:32.000Z</time>
</trkpt>
<trkpt lat="45.8622400" lon="9.2313500">
	<ele>936.80</ele>
	<time>2025-02-15T09:15:33.000Z</time>
</trkpt>
<trkpt lat="45.8622450" lon="9.2313420">
	<ele>936.80</ele>
	<time>2025-02-15T09:15:34.000Z</time>
</trkpt>
<trkpt lat="45.8622460" lon="9.2313380">
	<ele>937.00</ele>
	<time>2025-02-15T09:15:35.000Z</time>
</trkpt>
<trkpt lat="45.8622470" lon="9.2313340">
	<ele>937.20</ele>
	<time>2025-02-15T09:15:36.000Z</time>
</trkpt>
<trkpt lat="45.8622480" lon="9.2313300">
	<ele>937.20</ele>
	<time>2025-02-15T09:15:37.000Z</time>
</trkpt>
<trkpt lat="45.8622500" lon="9.2313220">
	<ele>937.60</ele>
	<time>2025-02-15T09:15:38.000Z</time>
</trkpt>
<trkpt lat="45.8622530" lon="9.2313180">
	<ele>937.80</ele>
	<time>2025-02-15T09:15:39.000Z</time>
</trkpt>
<trkpt lat="45.8622640" lon="9.2313100">
	<ele>938.00</ele>
	<time>2025-02-15T09:15:40.000Z</time>
</trkpt>
<trkpt lat="45.8622780" lon="9.2313010">
	<ele>938.20</ele>
	<time>2025-02-15T09:15:41.000Z</time>
</trkpt>
<trkpt lat="45.8622820" lon="9.2312980">
	<ele>938.20</ele>
	<time>2025-02-15T09:15:42.000Z</time>
</trkpt>
<trkpt lat="45.8622810" lon="9.2312960">
	<ele>938.20</ele>
	<time>2025-02-15T09:15:43.000Z</time>
</trkpt>
<trkpt lat="45.8622790" lon="9.2312930">
	<ele>938.60</ele>
	<time>2025-02-15T09:15:44.000Z</time>
</trkpt>
<trkpt lat="45.8622860" lon="9.2312710">
	<ele>939.00</ele>
	<time>2025-02-15T09:15:45.000Z</time>
</trkpt>
<trkpt lat="45.8622910" lon="9.2312560">
	<ele>939.40</ele>
	<time>2025-02-15T09:15:46.000Z</time>
</trkpt>
<trkpt lat="45.8622950" lon="9.2312490">
	<ele>939.60</ele>
	<time>2025-02-15T09:15:47.000Z</time>
</trkpt>
<trkpt lat="45.8623070" lon="9.2312400">
	<ele>939.80</ele>
	<time>2025-02-15T09:15:48.000Z</time>
</trkpt>
<trkpt lat="45.8623180" lon="9.2312270">
	<ele>939.80</ele>
	<time>2025-02-15T09:15:49.000Z</time>
</trkpt>
<trkpt lat="45.8623290" lon="9.2312140">
	<ele>940.00</ele>
	<time>2025-02-15T09:15:50.000Z</time>
</trkpt>
<trkpt lat="45.8623380" lon="9.2312060">
	<ele>940.00</ele>
	<time>2025-02-15T09:15:51.000Z</time>
</trkpt>
<trkpt lat="45.8623480" lon="9.2311920">
	<ele>940.20</ele>
	<time>2025-02-15T09:15:52.000Z</time>
</trkpt>
<trkpt lat="45.8623550" lon="9.2311820">
	<ele>940.40</ele>
	<time>2025-02-15T09:15:53.000Z</time>
</trkpt>
<trkpt lat="45.8623570" lon="9.2311770">
	<ele>940.40</ele>
	<time>2025-02-15T09:15:54.000Z</time>
</trkpt>
<trkpt lat="45.8623590" lon="9.2311740">
	<ele>940.60</ele>
	<time>2025-02-15T09:15:55.000Z</time>
</trkpt>
<trkpt lat="45.8623670" lon="9.2311630">
	<ele>940.80</ele>
	<time>2025-02-15T09:15:56.000Z</time>
</trkpt>
<trkpt lat="45.8623760" lon="9.2311530">
	<ele>941.00</ele>
	<time>2025-02-15T09:15:57.000Z</time>
</trkpt>
<trkpt lat="45.8623890" lon="9.2311360">
	<ele>941.20</ele>
	<time>2025-02-15T09:15:58.000Z</time>
</trkpt>
<trkpt lat="45.8624010" lon="9.2311210">
	<ele>941.40</ele>
	<time>2025-02-15T09:15:59.000Z</time>
</trkpt>
<trkpt lat="45.8624150" lon="9.2311040">
	<ele>941.60</ele>
	<time>2025-02-15T09:16:00.000Z</time>
</trkpt>
<trkpt lat="45.8624310" lon="9.2310960">
	<ele>941.60</ele>
	<time>2025-02-15T09:16:01.000Z</time>
</trkpt>
<trkpt lat="45.8624420" lon="9.2310960">
	<ele>941.60</ele>
	<time>2025-02-15T09:16:02.000Z</time>
</trkpt>
<trkpt lat="45.8624490" lon="9.2310900">
	<ele>941.80</ele>
	<time>2025-02-15T09:16:03.000Z</time>
</trkpt>
<trkpt lat="45.8624530" lon="9.2310870">
	<ele>942.00</ele>
	<time>2025-02-15T09:16:04.000Z</time>
</trkpt>
<trkpt lat="45.8624570" lon="9.2310870">
	<ele>942.00</ele>
	<time>2025-02-15T09:16:05.000Z</time>
</trkpt>
<trkpt lat="45.8624620" lon="9.2310850">
	<ele>942.00</ele>
	<time>2025-02-15T09:16:06.000Z</time>
</trkpt>
<trkpt lat="45.8624660" lon="9.2310860">
	<ele>942.20</ele>
	<time>2025-02-15T09:16:07.000Z</time>
</trkpt>
<trkpt lat="45.8624750" lon="9.2310870">
	<ele>942.20</ele>
	<time>2025-02-15T09:16:08.000Z</time>
</trkpt>
<trkpt lat="45.8624840" lon="9.2310800">
	<ele>942.20</ele>
	<time>2025-02-15T09:16:09.000Z</time>
</trkpt>
<trkpt lat="45.8624890" lon="9.2310730">
	<ele>942.20</ele>
	<time>2025-02-15T09:16:10.000Z</time>
</trkpt>
<trkpt lat="45.8624910" lon="9.2310680">
	<ele>942.60</ele>
	<time>2025-02-15T09:16:11.000Z</time>
</trkpt>
<trkpt lat="45.8624920" lon="9.2310670">
	<ele>942.40</ele>
	<time>2025-02-15T09:16:12.000Z</time>
</trkpt>
<trkpt lat="45.8624980" lon="9.2310700">
	<ele>942.60</ele>
	<time>2025-02-15T09:16:13.000Z</time>
</trkpt>
<trkpt lat="45.8624990" lon="9.2310690">
	<ele>942.80</ele>
	<time>2025-02-15T09:16:14.000Z</time>
</trkpt>
<trkpt lat="45.8625120" lon="9.2310480">
	<ele>942.80</ele>
	<time>2025-02-15T09:16:15.000Z</time>
</trkpt>
<trkpt lat="45.8625130" lon="9.2310430">
	<ele>943.00</ele>
	<time>2025-02-15T09:16:16.000Z</time>
</trkpt>
<trkpt lat="45.8625170" lon="9.2310390">
	<ele>943.40</ele>
	<time>2025-02-15T09:16:17.000Z</time>
</trkpt>
<trkpt lat="45.8625190" lon="9.2310370">
	<ele>943.60</ele>
	<time>2025-02-15T09:16:18.000Z</time>
</trkpt>
<trkpt lat="45.8625190" lon="9.2310340">
	<ele>943.60</ele>
	<time>2025-02-15T09:16:19.000Z</time>
</trkpt>
<trkpt lat="45.8625200" lon="9.2310290">
	<ele>944.00</ele>
	<time>2025-02-15T09:16:20.000Z</time>
</trkpt>
<trkpt lat="45.8625270" lon="9.2310210">
	<ele>944.20</ele>
	<time>2025-02-15T09:16:21.000Z</time>
</trkpt>
<trkpt lat="45.8625340" lon="9.2310100">
	<ele>944.40</ele>
	<time>2025-02-15T09:16:22.000Z</time>
</trkpt>
<trkpt lat="45.8625440" lon="9.2309960">
	<ele>944.40</ele>
	<time>2025-02-15T09:16:23.000Z</time>
</trkpt>
<trkpt lat="45.8625480" lon="9.2309910">
	<ele>944.60</ele>
	<time>2025-02-15T09:16:24.000Z</time>
</trkpt>
<trkpt lat="45.8625580" lon="9.2309830">
	<ele>944.60</ele>
	<time>2025-02-15T09:16:25.000Z</time>
</trkpt>
<trkpt lat="45.8625710" lon="9.2309800">
	<ele>944.60</ele>
	<time>2025-02-15T09:16:26.000Z</time>
</trkpt>
<trkpt lat="45.8625820" lon="9.2309730">
	<ele>944.60</ele>
	<time>2025-02-15T09:16:27.000Z</time>
</trkpt>
<trkpt lat="45.8625840" lon="9.2309700">
	<ele>944.80</ele>
	<time>2025-02-15T09:16:28.000Z</time>
</trkpt>
<trkpt lat="45.8625940" lon="9.2309560">
	<ele>945.00</ele>
	<time>2025-02-15T09:16:29.000Z</time>
</trkpt>
<trkpt lat="45.8626050" lon="9.2309440">
	<ele>945.00</ele>
	<time>2025-02-15T09:16:30.000Z</time>
</trkpt>
<trkpt lat="45.8626170" lon="9.2309310">
	<ele>945.20</ele>
	<time>2025-02-15T09:16:31.000Z</time>
</trkpt>
<trkpt lat="45.8626230" lon="9.2309210">
	<ele>945.40</ele>
	<time>2025-02-15T09:16:32.000Z</time>
</trkpt>
<trkpt lat="45.8626240" lon="9.2309150">
	<ele>945.60</ele>
	<time>2025-02-15T09:16:33.000Z</time>
</trkpt>
<trkpt lat="45.8626310" lon="9.2309100">
	<ele>945.80</ele>
	<time>2025-02-15T09:16:34.000Z</time>
</trkpt>
<trkpt lat="45.8626360" lon="9.2309010">
	<ele>945.80</ele>
	<time>2025-02-15T09:16:35.000Z</time>
</trkpt>
<trkpt lat="45.8626430" lon="9.2308910">
	<ele>946.00</ele>
	<time>2025-02-15T09:16:36.000Z</time>
</trkpt>
<trkpt lat="45.8626520" lon="9.2308810">
	<ele>946.20</ele>
	<time>2025-02-15T09:16:37.000Z</time>
</trkpt>
<trkpt lat="45.8626550" lon="9.2308750">
	<ele>946.20</ele>
	<time>2025-02-15T09:16:38.000Z</time>
</trkpt>
<trkpt lat="45.8626660" lon="9.2308580">
	<ele>946.40</ele>
	<time>2025-02-15T09:16:39.000Z</time>
</trkpt>
<trkpt lat="45.8626760" lon="9.2308480">
	<ele>946.40</ele>
	<time>2025-02-15T09:16:40.000Z</time>
</trkpt>
<trkpt lat="45.8626850" lon="9.2308340">
	<ele>946.60</ele>
	<time>2025-02-15T09:16:41.000Z</time>
</trkpt>
<trkpt lat="45.8626850" lon="9.2308280">
	<ele>946.80</ele>
	<time>2025-02-15T09:16:42.000Z</time>
</trkpt>
<trkpt lat="45.8626900" lon="9.2308260">
	<ele>947.00</ele>
	<time>2025-02-15T09:16:43.000Z</time>
</trkpt>
<trkpt lat="45.8626990" lon="9.2308210">
	<ele>947.20</ele>
	<time>2025-02-15T09:16:44.000Z</time>
</trkpt>
<trkpt lat="45.8627120" lon="9.2308070">
	<ele>947.40</ele>
	<time>2025-02-15T09:16:45.000Z</time>
</trkpt>
<trkpt lat="45.8627280" lon="9.2307940">
	<ele>947.60</ele>
	<time>2025-02-15T09:16:46.000Z</time>
</trkpt>
<trkpt lat="45.8627400" lon="9.2307750">
	<ele>947.80</ele>
	<time>2025-02-15T09:16:47.000Z</time>
</trkpt>
<trkpt lat="45.8627460" lon="9.2307580">
	<ele>947.80</ele>
	<time>2025-02-15T09:16:48.000Z</time>
</trkpt>
<trkpt lat="45.8627520" lon="9.2307440">
	<ele>947.80</ele>
	<time>2025-02-15T09:16:49.000Z</time>
</trkpt>
<trkpt lat="45.8627610" lon="9.2307330">
	<ele>948.00</ele>
	<time>2025-02-15T09:16:50.000Z</time>
</trkpt>
<trkpt lat="45.8627820" lon="9.2307030">
	<ele>948.20</ele>
	<time>2025-02-15T09:16:51.000Z</time>
</trkpt>
<trkpt lat="45.8627970" lon="9.2306790">
	<ele>948.40</ele>
	<time>2025-02-15T09:16:52.000Z</time>
</trkpt>
<trkpt lat="45.8628130" lon="9.2306430">
	<ele>948.80</ele>
	<time>2025-02-15T09:16:53.000Z</time>
</trkpt>
<trkpt lat="45.8628230" lon="9.2306210">
	<ele>949.00</ele>
	<time>2025-02-15T09:16:54.000Z</time>
</trkpt>
<trkpt lat="45.8628270" lon="9.2306070">
	<ele>949.00</ele>
	<time>2025-02-15T09:16:55.000Z</time>
</trkpt>
<trkpt lat="45.8628320" lon="9.2305910">
	<ele>949.20</ele>
	<time>2025-02-15T09:16:56.000Z</time>
</trkpt>
<trkpt lat="45.8628390" lon="9.2305840">
	<ele>949.40</ele>
	<time>2025-02-15T09:16:57.000Z</time>
</trkpt>
<trkpt lat="45.8628400" lon="9.2305780">
	<ele>949.60</ele>
	<time>2025-02-15T09:16:58.000Z</time>
</trkpt>
<trkpt lat="45.8628430" lon="9.2305610">
	<ele>950.00</ele>
	<time>2025-02-15T09:16:59.000Z</time>
</trkpt>
<trkpt lat="45.8628400" lon="9.2305570">
	<ele>950.00</ele>
	<time>2025-02-15T09:17:00.000Z</time>
</trkpt>
<trkpt lat="45.8628390" lon="9.2305510">
	<ele>950.20</ele>
	<time>2025-02-15T09:17:01.000Z</time>
</trkpt>
<trkpt lat="45.8628450" lon="9.2305350">
	<ele>950.40</ele>
	<time>2025-02-15T09:17:02.000Z</time>
</trkpt>
<trkpt lat="45.8628480" lon="9.2305160">
	<ele>950.40</ele>
	<time>2025-02-15T09:17:03.000Z</time>
</trkpt>
<trkpt lat="45.8628470" lon="9.2305030">
	<ele>950.60</ele>
	<time>2025-02-15T09:17:04.000Z</time>
</trkpt>
<trkpt lat="45.8628460" lon="9.2305000">
	<ele>950.60</ele>
	<time>2025-02-15T09:17:05.000Z</time>
</trkpt>
<trkpt lat="45.8628510" lon="9.2304800">
	<ele>950.60</ele>
	<time>2025-02-15T09:17:06.000Z</time>
</trkpt>
<trkpt lat="45.8628590" lon="9.2304540">
	<ele>950.80</ele>
	<time>2025-02-15T09:17:07.000Z</time>
</trkpt>
<trkpt lat="45.8628590" lon="9.2304470">
	<ele>950.80</ele>
	<time>2025-02-15T09:17:08.000Z</time>
</trkpt>
<trkpt lat="45.8628660" lon="9.2304330">
	<ele>950.80</ele>
	<time>2025-02-15T09:17:09.000Z</time>
</trkpt>
<trkpt lat="45.8628670" lon="9.2304290">
	<ele>950.80</ele>
	<time>2025-02-15T09:17:10.000Z</time>
</trkpt>
<trkpt lat="45.8628690" lon="9.2304250">
	<ele>950.80</ele>
	<time>2025-02-15T09:17:11.000Z</time>
</trkpt>
<trkpt lat="45.8628810" lon="9.2304160">
	<ele>951.00</ele>
	<time>2025-02-15T09:17:12.000Z</time>
</trkpt>
<trkpt lat="45.8628880" lon="9.2304080">
	<ele>951.00</ele>
	<time>2025-02-15T09:17:13.000Z</time>
</trkpt>
<trkpt lat="45.8628860" lon="9.2304000">
	<ele>951.00</ele>
	<time>2025-02-15T09:17:14.000Z</time>
</trkpt>
<trkpt lat="45.8628820" lon="9.2303970">
	<ele>951.00</ele>
	<time>2025-02-15T09:17:15.000Z</time>
</trkpt>
<trkpt lat="45.8628840" lon="9.2303940">
	<ele>951.00</ele>
	<time>2025-02-15T09:17:16.000Z</time>
</trkpt>
<trkpt lat="45.8628860" lon="9.2303890">
	<ele>950.80</ele>
	<time>2025-02-15T09:17:17.000Z</time>
</trkpt>
<trkpt lat="45.8628910" lon="9.2303790">
	<ele>950.80</ele>
	<time>2025-02-15T09:17:18.000Z</time>
</trkpt>
<trkpt lat="45.8628980" lon="9.2303740">
	<ele>950.60</ele>
	<time>2025-02-15T09:17:19.000Z</time>
</trkpt>
<trkpt lat="45.8629030" lon="9.2303730">
	<ele>950.60</ele>
	<time>2025-02-15T09:17:20.000Z</time>
</trkpt>
<trkpt lat="45.8629130" lon="9.2303710">
	<ele>950.60</ele>
	<time>2025-02-15T09:17:21.000Z</time>
</trkpt>
<trkpt lat="45.8629180" lon="9.2303720">
	<ele>950.60</ele>
	<time>2025-02-15T09:17:22.000Z</time>
</trkpt>
<trkpt lat="45.8629230" lon="9.2303770">
	<ele>950.40</ele>
	<time>2025-02-15T09:17:23.000Z</time>
</trkpt>
<trkpt lat="45.8629260" lon="9.2303830">
	<ele>950.20</ele>
	<time>2025-02-15T09:17:24.000Z</time>
</trkpt>
<trkpt lat="45.8629270" lon="9.2303860">
	<ele>950.20</ele>
	<time>2025-02-15T09:17:25.000Z</time>
</trkpt>
<trkpt lat="45.8629270" lon="9.2303880">
	<ele>950.00</ele>
	<time>2025-02-15T09:17:26.000Z</time>
</trkpt>
<trkpt lat="45.8629330" lon="9.2303940">
	<ele>950.00</ele>
	<time>2025-02-15T09:17:27.000Z</time>
</trkpt>
<trkpt lat="45.8629420" lon="9.2303930">
	<ele>950.00</ele>
	<time>2025-02-15T09:17:28.000Z</time>
</trkpt>
<trkpt lat="45.8629510" lon="9.2303930">
	<ele>950.00</ele>
	<time>2025-02-15T09:17:29.000Z</time>
</trkpt>
<trkpt lat="45.8629670" lon="9.2303930">
	<ele>950.00</ele>
	<time>2025-02-15T09:17:30.000Z</time>
</trkpt>
<trkpt lat="45.8629810" lon="9.2303880">
	<ele>950.00</ele>
	<time>2025-02-15T09:17:31.000Z</time>
</trkpt>
<trkpt lat="45.8629890" lon="9.2303960">
	<ele>950.00</ele>
	<time>2025-02-15T09:17:32.000Z</time>
</trkpt>
<trkpt lat="45.8629940" lon="9.2304030">
	<ele>950.00</ele>
	<time>2025-02-15T09:17:33.000Z</time>
</trkpt>
<trkpt lat="45.8629980" lon="9.2304160">
	<ele>950.00</ele>
	<time>2025-02-15T09:17:34.000Z</time>
</trkpt>
<trkpt lat="45.8630000" lon="9.2304290">
	<ele>950.00</ele>
	<time>2025-02-15T09:17:35.000Z</time>
</trkpt>
<trkpt lat="45.8630020" lon="9.2304310">
	<ele>950.00</ele>
	<time>2025-02-15T09:17:36.000Z</time>
</trkpt>
<trkpt lat="45.8630040" lon="9.2304310">
	<ele>950.00</ele>
	<time>2025-02-15T09:17:37.000Z</time>
</trkpt>
<trkpt lat="45.8630060" lon="9.2304280">
	<ele>949.80</ele>
	<time>2025-02-15T09:17:38.000Z</time>
</trkpt>
<trkpt lat="45.8630070" lon="9.2304170">
	<ele>949.80</ele>
	<time>2025-02-15T09:17:39.000Z</time>
</trkpt>
<trkpt lat="45.8629960" lon="9.2304100">
	<ele>949.80</ele>
	<time>2025-02-15T09:17:40.000Z</time>
</trkpt>
<trkpt lat="45.8629920" lon="9.2304040">
	<ele>949.80</ele>
	<time>2025-02-15T09:17:41.000Z</time>
</trkpt>
<trkpt lat="45.8629780" lon="9.2304010">
	<ele>949.80</ele>
	<time>2025-02-15T09:17:42.000Z</time>
</trkpt>
<trkpt lat="45.8629630" lon="9.2303990">
	<ele>949.60</ele>
	<time>2025-02-15T09:17:43.000Z</time>
</trkpt>
<trkpt lat="45.8629510" lon="9.2303940">
	<ele>949.60</ele>
	<time>2025-02-15T09:17:44.000Z</time>
</trkpt>
<trkpt lat="45.8629470" lon="9.2303830">
	<ele>949.60</ele>
	<time>2025-02-15T09:17:45.000Z</time>
</trkpt>
<trkpt lat="45.8629490" lon="9.2303710">
	<ele>949.40</ele>
	<time>2025-02-15T09:17:46.000Z</time>
</trkpt>
<trkpt lat="45.8629540" lon="9.2303610">
	<ele>949.00</ele>
	<time>2025-02-15T09:17:47.000Z</time>
</trkpt>
<trkpt lat="45.8629640" lon="9.2303540">
	<ele>949.00</ele>
	<time>2025-02-15T09:17:48.000Z</time>
</trkpt>
<trkpt lat="45.8629720" lon="9.2303460">
	<ele>948.80</ele>
	<time>2025-02-15T09:17:49.000Z</time>
</trkpt>
<trkpt lat="45.8629820" lon="9.2303350">
	<ele>948.60</ele>
	<time>2025-02-15T09:17:50.000Z</time>
</trkpt>
<trkpt lat="45.8629870" lon="9.2303240">
	<ele>948.40</ele>
	<time>2025-02-15T09:17:51.000Z</time>
</trkpt>
<trkpt lat="45.8629950" lon="9.2303140">
	<ele>948.20</ele>
	<time>2025-02-15T09:17:52.000Z</time>
</trkpt>
<trkpt lat="45.8630050" lon="9.2303020">
	<ele>948.00</ele>
	<time>2025-02-15T09:17:53.000Z</time>
</trkpt>
<trkpt lat="45.8630060" lon="9.2302930">
	<ele>947.80</ele>
	<time>2025-02-15T09:17:54.000Z</time>
</trkpt>
<trkpt lat="45.8630080" lon="9.2302890">
	<ele>947.60</ele>
	<time>2025-02-15T09:17:55.000Z</time>
</trkpt>
<trkpt lat="45.8630110" lon="9.2302860">
	<ele>947.60</ele>
	<time>2025-02-15T09:17:56.000Z</time>
</trkpt>
<trkpt lat="45.8630110" lon="9.2302850">
	<ele>947.40</ele>
	<time>2025-02-15T09:17:57.000Z</time>
</trkpt>
<trkpt lat="45.8630200" lon="9.2302760">
	<ele>947.20</ele>
	<time>2025-02-15T09:17:58.000Z</time>
</trkpt>
<trkpt lat="45.8630350" lon="9.2302640">
	<ele>947.00</ele>
	<time>2025-02-15T09:17:59.000Z</time>
</trkpt>
<trkpt lat="45.8630440" lon="9.2302520">
	<ele>946.80</ele>
	<time>2025-02-15T09:18:00.000Z</time>
</trkpt>
<trkpt lat="45.8630520" lon="9.2302370">
	<ele>946.80</ele>
	<time>2025-02-15T09:18:01.000Z</time>
</trkpt>
<trkpt lat="45.8630580" lon="9.2302190">
	<ele>946.60</ele>
	<time>2025-02-15T09:18:02.000Z</time>
</trkpt>
<trkpt lat="45.8630610" lon="9.2302080">
	<ele>946.60</ele>
	<time>2025-02-15T09:18:03.000Z</time>
</trkpt>
<trkpt lat="45.8630630" lon="9.2302040">
	<ele>946.60</ele>
	<time>2025-02-15T09:18:04.000Z</time>
</trkpt>
<trkpt lat="45.8630790" lon="9.2301870">
	<ele>946.60</ele>
	<time>2025-02-15T09:18:05.000Z</time>
</trkpt>
<trkpt lat="45.8630900" lon="9.2301600">
	<ele>946.60</ele>
	<time>2025-02-15T09:18:06.000Z</time>
</trkpt>
<trkpt lat="45.8630800" lon="9.2301480">
	<ele>946.60</ele>
	<time>2025-02-15T09:18:07.000Z</time>
</trkpt>
<trkpt lat="45.8630670" lon="9.2301370">
	<ele>946.60</ele>
	<time>2025-02-15T09:18:08.000Z</time>
</trkpt>
<trkpt lat="45.8630600" lon="9.2301270">
	<ele>946.40</ele>
	<time>2025-02-15T09:18:09.000Z</time>
</trkpt>
<trkpt lat="45.8630670" lon="9.2301130">
	<ele>946.40</ele>
	<time>2025-02-15T09:18:10.000Z</time>
</trkpt>
<trkpt lat="45.8630670" lon="9.2300980">
	<ele>946.40</ele>
	<time>2025-02-15T09:18:11.000Z</time>
</trkpt>
<trkpt lat="45.8630760" lon="9.2300730">
	<ele>946.40</ele>
	<time>2025-02-15T09:18:12.000Z</time>
</trkpt>
<trkpt lat="45.8630810" lon="9.2300510">
	<ele>946.40</ele>
	<time>2025-02-15T09:18:13.000Z</time>
</trkpt>
<trkpt lat="45.8630860" lon="9.2300360">
	<ele>946.20</ele>
	<time>2025-02-15T09:18:14.000Z</time>
</trkpt>
<trkpt lat="45.8630960" lon="9.2300170">
	<ele>946.20</ele>
	<time>2025-02-15T09:18:15.000Z</time>
</trkpt>
<trkpt lat="45.8631040" lon="9.2300020">
	<ele>946.20</ele>
	<time>2025-02-15T09:18:16.000Z</time>
</trkpt>
<trkpt lat="45.8631080" lon="9.2299840">
	<ele>946.20</ele>
	<time>2025-02-15T09:18:17.000Z</time>
</trkpt>
<trkpt lat="45.8631040" lon="9.2299680">
	<ele>946.20</ele>
	<time>2025-02-15T09:18:18.000Z</time>
</trkpt>
<trkpt lat="45.8631050" lon="9.2299540">
	<ele>946.00</ele>
	<time>2025-02-15T09:18:19.000Z</time>
</trkpt>
<trkpt lat="45.8630960" lon="9.2299420">
	<ele>946.00</ele>
	<time>2025-02-15T09:18:20.000Z</time>
</trkpt>
<trkpt lat="45.8630850" lon="9.2299310">
	<ele>945.80</ele>
	<time>2025-02-15T09:18:21.000Z</time>
</trkpt>
<trkpt lat="45.8630760" lon="9.2299180">
	<ele>945.80</ele>
	<time>2025-02-15T09:18:22.000Z</time>
</trkpt>
<trkpt lat="45.8630720" lon="9.2299040">
	<ele>945.80</ele>
	<time>2025-02-15T09:18:23.000Z</time>
</trkpt>
<trkpt lat="45.8630780" lon="9.2298850">
	<ele>945.80</ele>
	<time>2025-02-15T09:18:24.000Z</time>
</trkpt>
<trkpt lat="45.8630850" lon="9.2298650">
	<ele>945.60</ele>
	<time>2025-02-15T09:18:25.000Z</time>
</trkpt>
<trkpt lat="45.8630940" lon="9.2298450">
	<ele>945.60</ele>
	<time>2025-02-15T09:18:26.000Z</time>
</trkpt>
<trkpt lat="45.8631010" lon="9.2298280">
	<ele>945.60</ele>
	<time>2025-02-15T09:18:27.000Z</time>
</trkpt>
<trkpt lat="45.8631070" lon="9.2298140">
	<ele>945.60</ele>
	<time>2025-02-15T09:18:28.000Z</time>
</trkpt>
<trkpt lat="45.8631180" lon="9.2297990">
	<ele>945.60</ele>
	<time>2025-02-15T09:18:29.000Z</time>
</trkpt>
<trkpt lat="45.8631270" lon="9.2297830">
	<ele>945.40</ele>
	<time>2025-02-15T09:18:30.000Z</time>
</trkpt>
<trkpt lat="45.8631260" lon="9.2297660">
	<ele>945.20</ele>
	<time>2025-02-15T09:18:31.000Z</time>
</trkpt>
<trkpt lat="45.8631120" lon="9.2297550">
	<ele>945.20</ele>
	<time>2025-02-15T09:18:32.000Z</time>
</trkpt>
<trkpt lat="45.8630950" lon="9.2297460">
	<ele>945.20</ele>
	<time>2025-02-15T09:18:33.000Z</time>
</trkpt>
<trkpt lat="45.8630890" lon="9.2297310">
	<ele>945.20</ele>
	<time>2025-02-15T09:18:34.000Z</time>
</trkpt>
<trkpt lat="45.8630800" lon="9.2297140">
	<ele>945.20</ele>
	<time>2025-02-15T09:18:35.000Z</time>
</trkpt>
<trkpt lat="45.8630790" lon="9.2296900">
	<ele>945.00</ele>
	<time>2025-02-15T09:18:36.000Z</time>
</trkpt>
<trkpt lat="45.8630830" lon="9.2296660">
	<ele>945.00</ele>
	<time>2025-02-15T09:18:37.000Z</time>
</trkpt>
<trkpt lat="45.8630870" lon="9.2296410">
	<ele>945.00</ele>
	<time>2025-02-15T09:18:38.000Z</time>
</trkpt>
<trkpt lat="45.8630890" lon="9.2296190">
	<ele>945.00</ele>
	<time>2025-02-15T09:18:39.000Z</time>
</trkpt>
<trkpt lat="45.8630870" lon="9.2295980">
	<ele>944.80</ele>
	<time>2025-02-15T09:18:40.000Z</time>
</trkpt>
<trkpt lat="45.8630820" lon="9.2295830">
	<ele>944.80</ele>
	<time>2025-02-15T09:18:41.000Z</time>
</trkpt>
<trkpt lat="45.8630830" lon="9.2295660">
	<ele>944.60</ele>
	<time>2025-02-15T09:18:42.000Z</time>
</trkpt>
<trkpt lat="45.8630790" lon="9.2295480">
	<ele>944.40</ele>
	<time>2025-02-15T09:18:43.000Z</time>
</trkpt>
<trkpt lat="45.8630690" lon="9.2295300">
	<ele>944.40</ele>
	<time>2025-02-15T09:18:44.000Z</time>
</trkpt>
<trkpt lat="45.8630540" lon="9.2295210">
	<ele>944.40</ele>
	<time>2025-02-15T09:18:45.000Z</time>
</trkpt>
<trkpt lat="45.8630380" lon="9.2295060">
	<ele>944.20</ele>
	<time>2025-02-15T09:18:46.000Z</time>
</trkpt>
<trkpt lat="45.8630330" lon="9.2294850">
	<ele>944.20</ele>
	<time>2025-02-15T09:18:47.000Z</time>
</trkpt>
<trkpt lat="45.8630360" lon="9.2294650">
	<ele>944.20</ele>
	<time>2025-02-15T09:18:48.000Z</time>
</trkpt>
<trkpt lat="45.8630510" lon="9.2294460">
	<ele>944.20</ele>
	<time>2025-02-15T09:18:49.000Z</time>
</trkpt>
<trkpt lat="45.8630660" lon="9.2294300">
	<ele>944.00</ele>
	<time>2025-02-15T09:18:50.000Z</time>
</trkpt>
<trkpt lat="45.8630780" lon="9.2294180">
	<ele>944.00</ele>
	<time>2025-02-15T09:18:51.000Z</time>
</trkpt>
<trkpt lat="45.8630830" lon="9.2294050">
	<ele>943.80</ele>
	<time>2025-02-15T09:18:52.000Z</time>
</trkpt>
<trkpt lat="45.8630870" lon="9.2293850">
	<ele>943.60</ele>
	<time>2025-02-15T09:18:53.000Z</time>
</trkpt>
<trkpt lat="45.8630940" lon="9.2293620">
	<ele>943.60</ele>
	<time>2025-02-15T09:18:54.000Z</time>
</trkpt>
<trkpt lat="45.8630970" lon="9.2293450">
	<ele>943.60</ele>
	<time>2025-02-15T09:18:55.000Z</time>
</trkpt>
<trkpt lat="45.8630930" lon="9.2293280">
	<ele>943.40</ele>
	<time>2025-02-15T09:18:56.000Z</time>
</trkpt>
<trkpt lat="45.8630830" lon="9.2293180">
	<ele>943.20</ele>
	<time>2025-02-15T09:18:57.000Z</time>
</trkpt>
<trkpt lat="45.8630760" lon="9.2293060">
	<ele>943.20</ele>
	<time>2025-02-15T09:18:58.000Z</time>
</trkpt>
<trkpt lat="45.8630670" lon="9.2293040">
	<ele>943.20</ele>
	<time>2025-02-15T09:18:59.000Z</time>
</trkpt>
<trkpt lat="45.8630620" lon="9.2292960">
	<ele>943.00</ele>
	<time>2025-02-15T09:19:00.000Z</time>
</trkpt>
<trkpt lat="45.8630580" lon="9.2292840">
	<ele>943.00</ele>
	<time>2025-02-15T09:19:01.000Z</time>
</trkpt>
<trkpt lat="45.8630620" lon="9.2292640">
	<ele>943.00</ele>
	<time>2025-02-15T09:19:02.000Z</time>
</trkpt>
<trkpt lat="45.8630570" lon="9.2292450">
	<ele>943.00</ele>
	<time>2025-02-15T09:19:03.000Z</time>
</trkpt>
<trkpt lat="45.8630400" lon="9.2292320">
	<ele>943.00</ele>
	<time>2025-02-15T09:19:04.000Z</time>
</trkpt>
<trkpt lat="45.8630130" lon="9.2292210">
	<ele>942.80</ele>
	<time>2025-02-15T09:19:05.000Z</time>
</trkpt>
<trkpt lat="45.8629860" lon="9.2291990">
	<ele>942.80</ele>
	<time>2025-02-15T09:19:06.000Z</time>
</trkpt>
<trkpt lat="45.8629660" lon="9.2291820">
	<ele>942.80</ele>
	<time>2025-02-15T09:19:07.000Z</time>
</trkpt>
<trkpt lat="45.8629740" lon="9.2291610">
	<ele>942.40</ele>
	<time>2025-02-15T09:19:08.000Z</time>
</trkpt>
<trkpt lat="45.8629680" lon="9.2291580">
	<ele>942.20</ele>
	<time>2025-02-15T09:19:09.000Z</time>
</trkpt>
<trkpt lat="45.8629720" lon="9.2291450">
	<ele>941.80</ele>
	<time>2025-02-15T09:19:10.000Z</time>
</trkpt>
<trkpt lat="45.8629770" lon="9.2291360">
	<ele>941.80</ele>
	<time>2025-02-15T09:19:11.000Z</time>
</trkpt>
<trkpt lat="45.8629750" lon="9.2291300">
	<ele>941.40</ele>
	<time>2025-02-15T09:19:12.000Z</time>
</trkpt>
<trkpt lat="45.8629680" lon="9.2291300">
	<ele>941.20</ele>
	<time>2025-02-15T09:19:13.000Z</time>
</trkpt>
<trkpt lat="45.8629580" lon="9.2291320">
	<ele>941.20</ele>
	<time>2025-02-15T09:19:14.000Z</time>
</trkpt>
<trkpt lat="45.8629560" lon="9.2291310">
	<ele>941.00</ele>
	<time>2025-02-15T09:19:15.000Z</time>
</trkpt>
<trkpt lat="45.8629490" lon="9.2291330">
	<ele>941.00</ele>
	<time>2025-02-15T09:19:16.000Z</time>
</trkpt>
<trkpt lat="45.8629490" lon="9.2291320">
	<ele>941.00</ele>
	<time>2025-02-15T09:19:17.000Z</time>
</trkpt>
<trkpt lat="45.8629480" lon="9.2291330">
	<ele>941.00</ele>
	<time>2025-02-15T09:19:18.000Z</time>
</trkpt>
<trkpt lat="45.8629410" lon="9.2291420">
	<ele>941.00</ele>
	<time>2025-02-15T09:19:19.000Z</time>
</trkpt>
<trkpt lat="45.8629420" lon="9.2291430">
	<ele>941.00</ele>
	<time>2025-02-15T09:19:20.000Z</time>
</trkpt>
<trkpt lat="45.8629410" lon="9.2291410">
	<ele>941.00</ele>
	<time>2025-02-15T09:19:21.000Z</time>
</trkpt>
<trkpt lat="45.8629440" lon="9.2291220">
	<ele>941.00</ele>
	<time>2025-02-15T09:19:22.000Z</time>
</trkpt>
<trkpt lat="45.8629480" lon="9.2290990">
	<ele>940.80</ele>
	<time>2025-02-15T09:19:23.000Z</time>
</trkpt>
<trkpt lat="45.8629490" lon="9.2290810">
	<ele>940.80</ele>
	<time>2025-02-15T09:19:24.000Z</time>
</trkpt>
<trkpt lat="45.8629500" lon="9.2290680">
	<ele>940.60</ele>
	<time>2025-02-15T09:19:25.000Z</time>
</trkpt>
<trkpt lat="45.8629460" lon="9.2290570">
	<ele>940.60</ele>
	<time>2025-02-15T09:19:26.000Z</time>
</trkpt>
<trkpt lat="45.8629430" lon="9.2290400">
	<ele>940.40</ele>
	<time>2025-02-15T09:19:27.000Z</time>
</trkpt>
<trkpt lat="45.8629380" lon="9.2290240">
	<ele>940.20</ele>
	<time>2025-02-15T09:19:28.000Z</time>
</trkpt>
<trkpt lat="45.8629340" lon="9.2290110">
	<ele>940.20</ele>
	<time>2025-02-15T09:19:29.000Z</time>
</trkpt>
<trkpt lat="45.8629280" lon="9.2289990">
	<ele>940.00</ele>
	<time>2025-02-15T09:19:30.000Z</time>
</trkpt>
<trkpt lat="45.8629260" lon="9.2289880">
	<ele>940.00</ele>
	<time>2025-02-15T09:19:31.000Z</time>
</trkpt>
<trkpt lat="45.8629280" lon="9.2289830">
	<ele>939.80</ele>
	<time>2025-02-15T09:19:32.000Z</time>
</trkpt>
<trkpt lat="45.8629300" lon="9.2289800">
	<ele>939.80</ele>
	<time>2025-02-15T09:19:33.000Z</time>
</trkpt>
<trkpt lat="45.8629320" lon="9.2289750">
	<ele>939.60</ele>
	<time>2025-02-15T09:19:34.000Z</time>
</trkpt>
<trkpt lat="45.8629170" lon="9.2289800">
	<ele>939.40</ele>
	<time>2025-02-15T09:19:35.000Z</time>
</trkpt>
<trkpt lat="45.8629560" lon="9.2289660">
	<ele>939.40</ele>
	<time>2025-02-15T09:19:36.000Z</time>
</trkpt>
<trkpt lat="45.8629790" lon="9.2289510">
	<ele>939.20</ele>
	<time>2025-02-15T09:19:37.000Z</time>
</trkpt>
<trkpt lat="45.8630260" lon="9.2289060">
	<ele>939.20</ele>
	<time>2025-02-15T09:19:38.000Z</time>
</trkpt>
<trkpt lat="45.8630500" lon="9.2288850">
	<ele>939.20</ele>
	<time>2025-02-15T09:19:39.000Z</time>
</trkpt>
<trkpt lat="45.8630930" lon="9.2288600">
	<ele>939.20</ele>
	<time>2025-02-15T09:19:40.000Z</time>
</trkpt>
<trkpt lat="45.8631260" lon="9.2288420">
	<ele>939.20</ele>
	<time>2025-02-15T09:19:41.000Z</time>
</trkpt>
<trkpt lat="45.8631620" lon="9.2288220">
	<ele>939.20</ele>
	<time>2025-02-15T09:19:42.000Z</time>
</trkpt>
<trkpt lat="45.8632330" lon="9.2287780">
	<ele>939.20</ele>
	<time>2025-02-15T09:19:43.000Z</time>
</trkpt>
<trkpt lat="45.8632560" lon="9.2287690">
	<ele>939.20</ele>
	<time>2025-02-15T09:19:44.000Z</time>
</trkpt>
<trkpt lat="45.8632620" lon="9.2287690">
	<ele>939.20</ele>
	<time>2025-02-15T09:19:45.000Z</time>
</trkpt>
<trkpt lat="45.8632730" lon="9.2287710">
	<ele>939.20</ele>
	<time>2025-02-15T09:19:46.000Z</time>
</trkpt>
<trkpt lat="45.8632790" lon="9.2287690">
	<ele>939.20</ele>
	<time>2025-02-15T09:19:47.000Z</time>
</trkpt>
<trkpt lat="45.8632780" lon="9.2287660">
	<ele>939.20</ele>
	<time>2025-02-15T09:19:48.000Z</time>
</trkpt>
<trkpt lat="45.8632740" lon="9.2287750">
	<ele>939.20</ele>
	<time>2025-02-15T09:19:49.000Z</time>
</trkpt>
<trkpt lat="45.8632670" lon="9.2287750">
	<ele>939.20</ele>
	<time>2025-02-15T09:19:50.000Z</time>
</trkpt>
<trkpt lat="45.8632540" lon="9.2287770">
	<ele>939.20</ele>
	<time>2025-02-15T09:19:51.000Z</time>
</trkpt>
<trkpt lat="45.8632500" lon="9.2287750">
	<ele>939.20</ele>
	<time>2025-02-15T09:19:52.000Z</time>
</trkpt>
<trkpt lat="45.8632460" lon="9.2287750">
	<ele>939.00</ele>
	<time>2025-02-15T09:19:53.000Z</time>
</trkpt>
<trkpt lat="45.8632480" lon="9.2287730">
	<ele>939.00</ele>
	<time>2025-02-15T09:19:54.000Z</time>
</trkpt>
<trkpt lat="45.8632430" lon="9.2287720">
	<ele>938.80</ele>
	<time>2025-02-15T09:19:55.000Z</time>
</trkpt>
<trkpt lat="45.8632190" lon="9.2287830">
	<ele>938.80</ele>
	<time>2025-02-15T09:19:56.000Z</time>
</trkpt>
<trkpt lat="45.8631980" lon="9.2287970">
	<ele>938.80</ele>
	<time>2025-02-15T09:19:57.000Z</time>
</trkpt>
<trkpt lat="45.8631680" lon="9.2288080">
	<ele>938.60</ele>
	<time>2025-02-15T09:19:58.000Z</time>
</trkpt>
<trkpt lat="45.8631550" lon="9.2288120">
	<ele>938.60</ele>
	<time>2025-02-15T09:19:59.000Z</time>
</trkpt>
<trkpt lat="45.8631530" lon="9.2288170">
	<ele>938.60</ele>
	<time>2025-02-15T09:20:00.000Z</time>
</trkpt>
<trkpt lat="45.8631410" lon="9.2288270">
	<ele>938.60</ele>
	<time>2025-02-15T09:20:01.000Z</time>
</trkpt>
<trkpt lat="45.8631300" lon="9.2288300">
	<ele>938.40</ele>
	<time>2025-02-15T09:20:02.000Z</time>
</trkpt>
<trkpt lat="45.8631240" lon="9.2288320">
	<ele>938.40</ele>
	<time>2025-02-15T09:20:03.000Z</time>
</trkpt>
<trkpt lat="45.8631240" lon="9.2288270">
	<ele>938.20</ele>
	<time>2025-02-15T09:20:04.000Z</time>
</trkpt>
<trkpt lat="45.8631300" lon="9.2288260">
	<ele>938.20</ele>
	<time>2025-02-15T09:20:05.000Z</time>
</trkpt>
<trkpt lat="45.8631450" lon="9.2288180">
	<ele>938.00</ele>
	<time>2025-02-15T09:20:06.000Z</time>
</trkpt>
<trkpt lat="45.8631520" lon="9.2288180">
	<ele>937.80</ele>
	<time>2025-02-15T09:20:07.000Z</time>
</trkpt>
<trkpt lat="45.8631560" lon="9.2288150">
	<ele>937.60</ele>
	<time>2025-02-15T09:20:08.000Z</time>
</trkpt>
<trkpt lat="45.8631520" lon="9.2288100">
	<ele>937.60</ele>
	<time>2025-02-15T09:20:09.000Z</time>
</trkpt>
<trkpt lat="45.8631500" lon="9.2288070">
	<ele>937.40</ele>
	<time>2025-02-15T09:20:10.000Z</time>
</trkpt>
<trkpt lat="45.8631520" lon="9.2288010">
	<ele>937.20</ele>
	<time>2025-02-15T09:20:11.000Z</time>
</trkpt>
<trkpt lat="45.8631550" lon="9.2287970">
	<ele>937.20</ele>
	<time>2025-02-15T09:20:12.000Z</time>
</trkpt>
<trkpt lat="45.8631520" lon="9.2287890">
	<ele>936.80</ele>
	<time>2025-02-15T09:20:13.000Z</time>
</trkpt>
<trkpt lat="45.8631420" lon="9.2287950">
	<ele>936.60</ele>
	<time>2025-02-15T09:20:14.000Z</time>
</trkpt>
<trkpt lat="45.8631430" lon="9.2287970">
	<ele>936.60</ele>
	<time>2025-02-15T09:20:15.000Z</time>
</trkpt>
<trkpt lat="45.8631470" lon="9.2287910">
	<ele>936.40</ele>
	<time>2025-02-15T09:20:16.000Z</time>
</trkpt>
<trkpt lat="45.8631600" lon="9.2287850">
	<ele>936.40</ele>
	<time>2025-02-15T09:20:17.000Z</time>
</trkpt>
<trkpt lat="45.8631760" lon="9.2287750">
	<ele>936.20</ele>
	<time>2025-02-15T09:20:18.000Z</time>
</trkpt>
<trkpt lat="45.8631950" lon="9.2287730">
	<ele>936.00</ele>
	<time>2025-02-15T09:20:19.000Z</time>
</trkpt>
<trkpt lat="45.8632080" lon="9.2287670">
	<ele>935.80</ele>
	<time>2025-02-15T09:20:20.000Z</time>
</trkpt>
<trkpt lat="45.8632170" lon="9.2287540">
	<ele>935.60</ele>
	<time>2025-02-15T09:20:21.000Z</time>
</trkpt>
<trkpt lat="45.8632320" lon="9.2287390">
	<ele>935.40</ele>
	<time>2025-02-15T09:20:22.000Z</time>
</trkpt>
<trkpt lat="45.8632480" lon="9.2287240">
	<ele>935.20</ele>
	<time>2025-02-15T09:20:23.000Z</time>
</trkpt>
<trkpt lat="45.8632570" lon="9.2287110">
	<ele>935.20</ele>
	<time>2025-02-15T09:20:24.000Z</time>
</trkpt>
<trkpt lat="45.8632570" lon="9.2286980">
	<ele>935.00</ele>
	<time>2025-02-15T09:20:25.000Z</time>
</trkpt>
<trkpt lat="45.8632590" lon="9.2286840">
	<ele>934.80</ele>
	<time>2025-02-15T09:20:26.000Z</time>
</trkpt>
<trkpt lat="45.8632650" lon="9.2286660">
	<ele>934.60</ele>
	<time>2025-02-15T09:20:27.000Z</time>
</trkpt>
<trkpt lat="45.8632640" lon="9.2286520">
	<ele>934.20</ele>
	<time>2025-02-15T09:20:28.000Z</time>
</trkpt>
<trkpt lat="45.8632600" lon="9.2286390">
	<ele>934.20</ele>
	<time>2025-02-15T09:20:29.000Z</time>
</trkpt>
<trkpt lat="45.8632570" lon="9.2286340">
	<ele>934.00</ele>
	<time>2025-02-15T09:20:30.000Z</time>
</trkpt>
<trkpt lat="45.8632600" lon="9.2286250">
	<ele>933.80</ele>
	<time>2025-02-15T09:20:31.000Z</time>
</trkpt>
<trkpt lat="45.8632580" lon="9.2286170">
	<ele>933.80</ele>
	<time>2025-02-15T09:20:32.000Z</time>
</trkpt>
<trkpt lat="45.8632590" lon="9.2286040">
	<ele>933.60</ele>
	<time>2025-02-15T09:20:33.000Z</time>
</trkpt>
<trkpt lat="45.8632650" lon="9.2285850">
	<ele>933.60</ele>
	<time>2025-02-15T09:20:34.000Z</time>
</trkpt>
<trkpt lat="45.8632750" lon="9.2285660">
	<ele>933.40</ele>
	<time>2025-02-15T09:20:35.000Z</time>
</trkpt>
<trkpt lat="45.8632800" lon="9.2285500">
	<ele>933.40</ele>
	<time>2025-02-15T09:20:36.000Z</time>
</trkpt>
<trkpt lat="45.8632820" lon="9.2285380">
	<ele>933.20</ele>
	<time>2025-02-15T09:20:37.000Z</time>
</trkpt>
<trkpt lat="45.8632810" lon="9.2285330">
	<ele>932.80</ele>
	<time>2025-02-15T09:20:38.000Z</time>
</trkpt>
<trkpt lat="45.8632820" lon="9.2285290">
	<ele>932.40</ele>
	<time>2025-02-15T09:20:39.000Z</time>
</trkpt>
<trkpt lat="45.8632860" lon="9.2285180">
	<ele>932.20</ele>
	<time>2025-02-15T09:20:40.000Z</time>
</trkpt>
<trkpt lat="45.8632860" lon="9.2285100">
	<ele>932.00</ele>
	<time>2025-02-15T09:20:41.000Z</time>
</trkpt>
<trkpt lat="45.8632880" lon="9.2284960">
	<ele>931.60</ele>
	<time>2025-02-15T09:20:42.000Z</time>
</trkpt>
<trkpt lat="45.8632870" lon="9.2284820">
	<ele>931.40</ele>
	<time>2025-02-15T09:20:43.000Z</time>
</trkpt>
<trkpt lat="45.8632830" lon="9.2284650">
	<ele>931.20</ele>
	<time>2025-02-15T09:20:44.000Z</time>
</trkpt>
<trkpt lat="45.8632840" lon="9.2284550">
	<ele>930.80</ele>
	<time>2025-02-15T09:20:45.000Z</time>
</trkpt>
<trkpt lat="45.8632820" lon="9.2284440">
	<ele>930.80</ele>
	<time>2025-02-15T09:20:46.000Z</time>
</trkpt>
<trkpt lat="45.8632780" lon="9.2284300">
	<ele>930.60</ele>
	<time>2025-02-15T09:20:47.000Z</time>
</trkpt>
<trkpt lat="45.8632820" lon="9.2284100">
	<ele>930.40</ele>
	<time>2025-02-15T09:20:48.000Z</time>
</trkpt>
<trkpt lat="45.8632800" lon="9.2283910">
	<ele>930.40</ele>
	<time>2025-02-15T09:20:49.000Z</time>
</trkpt>
<trkpt lat="45.8632790" lon="9.2283680">
	<ele>930.20</ele>
	<time>2025-02-15T09:20:50.000Z</time>
</trkpt>
<trkpt lat="45.8632810" lon="9.2283500">
	<ele>929.80</ele>
	<time>2025-02-15T09:20:51.000Z</time>
</trkpt>
<trkpt lat="45.8632720" lon="9.2283420">
	<ele>929.20</ele>
	<time>2025-02-15T09:20:52.000Z</time>
</trkpt>
<trkpt lat="45.8632560" lon="9.2283320">
	<ele>929.00</ele>
	<time>2025-02-15T09:20:53.000Z</time>
</trkpt>
<trkpt lat="45.8632440" lon="9.2283160">
	<ele>928.80</ele>
	<time>2025-02-15T09:20:54.000Z</time>
</trkpt>
<trkpt lat="45.8632330" lon="9.2283050">
	<ele>928.60</ele>
	<time>2025-02-15T09:20:55.000Z</time>
</trkpt>
<trkpt lat="45.8632250" lon="9.2282910">
	<ele>928.60</ele>
	<time>2025-02-15T09:20:56.000Z</time>
</trkpt>
<trkpt lat="45.8632160" lon="9.2282820">
	<ele>928.40</ele>
	<time>2025-02-15T09:20:57.000Z</time>
</trkpt>
<trkpt lat="45.8632130" lon="9.2282700">
	<ele>928.40</ele>
	<time>2025-02-15T09:20:58.000Z</time>
</trkpt>
<trkpt lat="45.8632100" lon="9.2282580">
	<ele>928.20</ele>
	<time>2025-02-15T09:20:59.000Z</time>
</trkpt>
<trkpt lat="45.8632000" lon="9.2282540">
	<ele>927.60</ele>
	<time>2025-02-15T09:21:00.000Z</time>
</trkpt>
<trkpt lat="45.8631800" lon="9.2282430">
	<ele>927.40</ele>
	<time>2025-02-15T09:21:01.000Z</time>
</trkpt>
<trkpt lat="45.8631680" lon="9.2282330">
	<ele>927.40</ele>
	<time>2025-02-15T09:21:02.000Z</time>
</trkpt>
<trkpt lat="45.8631550" lon="9.2282270">
	<ele>927.00</ele>
	<time>2025-02-15T09:21:03.000Z</time>
</trkpt>
<trkpt lat="45.8631390" lon="9.2282230">
	<ele>926.80</ele>
	<time>2025-02-15T09:21:04.000Z</time>
</trkpt>
<trkpt lat="45.8631280" lon="9.2282210">
	<ele>926.40</ele>
	<time>2025-02-15T09:21:05.000Z</time>
</trkpt>
<trkpt lat="45.8631170" lon="9.2282220">
	<ele>926.00</ele>
	<time>2025-02-15T09:21:06.000Z</time>
</trkpt>
<trkpt lat="45.8631080" lon="9.2282170">
	<ele>925.80</ele>
	<time>2025-02-15T09:21:07.000Z</time>
</trkpt>
<trkpt lat="45.8631110" lon="9.2281920">
	<ele>925.60</ele>
	<time>2025-02-15T09:21:08.000Z</time>
</trkpt>
<trkpt lat="45.8631250" lon="9.2281750">
	<ele>925.40</ele>
	<time>2025-02-15T09:21:09.000Z</time>
</trkpt>
<trkpt lat="45.8631280" lon="9.2281630">
	<ele>925.40</ele>
	<time>2025-02-15T09:21:10.000Z</time>
</trkpt>
<trkpt lat="45.8631390" lon="9.2281450">
	<ele>925.20</ele>
	<time>2025-02-15T09:21:11.000Z</time>
</trkpt>
<trkpt lat="45.8631420" lon="9.2281290">
	<ele>925.00</ele>
	<time>2025-02-15T09:21:12.000Z</time>
</trkpt>
<trkpt lat="45.8631480" lon="9.2281130">
	<ele>924.60</ele>
	<time>2025-02-15T09:21:13.000Z</time>
</trkpt>
<trkpt lat="45.8631510" lon="9.2280970">
	<ele>924.40</ele>
	<time>2025-02-15T09:21:14.000Z</time>
</trkpt>
<trkpt lat="45.8631430" lon="9.2280890">
	<ele>924.20</ele>
	<time>2025-02-15T09:21:15.000Z</time>
</trkpt>
<trkpt lat="45.8631400" lon="9.2280810">
	<ele>924.00</ele>
	<time>2025-02-15T09:21:16.000Z</time>
</trkpt>
<trkpt lat="45.8631420" lon="9.2280760">
	<ele>923.80</ele>
	<time>2025-02-15T09:21:17.000Z</time>
</trkpt>
<trkpt lat="45.8631400" lon="9.2280690">
	<ele>923.60</ele>
	<time>2025-02-15T09:21:18.000Z</time>
</trkpt>
<trkpt lat="45.8631310" lon="9.2280610">
	<ele>923.60</ele>
	<time>2025-02-15T09:21:19.000Z</time>
</trkpt>
<trkpt lat="45.8631250" lon="9.2280560">
	<ele>923.40</ele>
	<time>2025-02-15T09:21:20.000Z</time>
</trkpt>
<trkpt lat="45.8631180" lon="9.2280470">
	<ele>923.00</ele>
	<time>2025-02-15T09:21:21.000Z</time>
</trkpt>
<trkpt lat="45.8631140" lon="9.2280420">
	<ele>922.80</ele>
	<time>2025-02-15T09:21:22.000Z</time>
</trkpt>
<trkpt lat="45.8631100" lon="9.2280380">
	<ele>922.60</ele>
	<time>2025-02-15T09:21:23.000Z</time>
</trkpt>
<trkpt lat="45.8631060" lon="9.2280310">
	<ele>922.60</ele>
	<time>2025-02-15T09:21:24.000Z</time>
</trkpt>
<trkpt lat="45.8630960" lon="9.2280280">
	<ele>922.40</ele>
	<time>2025-02-15T09:21:25.000Z</time>
</trkpt>
<trkpt lat="45.8630860" lon="9.2280380">
	<ele>922.00</ele>
	<time>2025-02-15T09:21:26.000Z</time>
</trkpt>
<trkpt lat="45.8630840" lon="9.2280380">
	<ele>921.80</ele>
	<time>2025-02-15T09:21:27.000Z</time>
</trkpt>
<trkpt lat="45.8630700" lon="9.2280400">
	<ele>921.60</ele>
	<time>2025-02-15T09:21:28.000Z</time>
</trkpt>
<trkpt lat="45.8630580" lon="9.2280410">
	<ele>921.40</ele>
	<time>2025-02-15T09:21:29.000Z</time>
</trkpt>
<trkpt lat="45.8630540" lon="9.2280430">
	<ele>921.40</ele>
	<time>2025-02-15T09:21:30.000Z</time>
</trkpt>
<trkpt lat="45.8630400" lon="9.2280430">
	<ele>921.20</ele>
	<time>2025-02-15T09:21:31.000Z</time>
</trkpt>
<trkpt lat="45.8630360" lon="9.2280410">
	<ele>921.20</ele>
	<time>2025-02-15T09:21:32.000Z</time>
</trkpt>
<trkpt lat="45.8630280" lon="9.2280350">
	<ele>921.00</ele>
	<time>2025-02-15T09:21:33.000Z</time>
</trkpt>
<trkpt lat="45.8630310" lon="9.2280180">
	<ele>921.00</ele>
	<time>2025-02-15T09:21:34.000Z</time>
</trkpt>
<trkpt lat="45.8630390" lon="9.2279990">
	<ele>920.40</ele>
	<time>2025-02-15T09:21:35.000Z</time>
</trkpt>
<trkpt lat="45.8630390" lon="9.2279830">
	<ele>920.20</ele>
	<time>2025-02-15T09:21:36.000Z</time>
</trkpt>
<trkpt lat="45.8630330" lon="9.2279690">
	<ele>920.00</ele>
	<time>2025-02-15T09:21:37.000Z</time>
</trkpt>
<trkpt lat="45.8630200" lon="9.2279540">
	<ele>920.00</ele>
	<time>2025-02-15T09:21:38.000Z</time>
</trkpt>
<trkpt lat="45.8630160" lon="9.2279480">
	<ele>920.00</ele>
	<time>2025-02-15T09:21:39.000Z</time>
</trkpt>
<trkpt lat="45.8630140" lon="9.2279370">
	<ele>920.00</ele>
	<time>2025-02-15T09:21:40.000Z</time>
</trkpt>
<trkpt lat="45.8630080" lon="9.2279220">
	<ele>919.80</ele>
	<time>2025-02-15T09:21:41.000Z</time>
</trkpt>
<trkpt lat="45.8630030" lon="9.2279040">
	<ele>919.40</ele>
	<time>2025-02-15T09:21:42.000Z</time>
</trkpt>
<trkpt lat="45.8630060" lon="9.2278870">
	<ele>919.20</ele>
	<time>2025-02-15T09:21:43.000Z</time>
</trkpt>
<trkpt lat="45.8629990" lon="9.2278790">
	<ele>919.00</ele>
	<time>2025-02-15T09:21:44.000Z</time>
</trkpt>
<trkpt lat="45.8629830" lon="9.2278720">
	<ele>919.00</ele>
	<time>2025-02-15T09:21:45.000Z</time>
</trkpt>
<trkpt lat="45.8629680" lon="9.2278650">
	<ele>918.80</ele>
	<time>2025-02-15T09:21:46.000Z</time>
</trkpt>
<trkpt lat="45.8629550" lon="9.2278530">
	<ele>918.80</ele>
	<time>2025-02-15T09:21:47.000Z</time>
</trkpt>
<trkpt lat="45.8629660" lon="9.2278500">
	<ele>918.60</ele>
	<time>2025-02-15T09:21:48.000Z</time>
</trkpt>
<trkpt lat="45.8629670" lon="9.2278360">
	<ele>918.60</ele>
	<time>2025-02-15T09:21:49.000Z</time>
</trkpt>
<trkpt lat="45.8629700" lon="9.2278320">
	<ele>918.60</ele>
	<time>2025-02-15T09:21:50.000Z</time>
</trkpt>
<trkpt lat="45.8629700" lon="9.2278230">
	<ele>918.80</ele>
	<time>2025-02-15T09:21:51.000Z</time>
</trkpt>
<trkpt lat="45.8629710" lon="9.2278260">
	<ele>918.80</ele>
	<time>2025-02-15T09:21:52.000Z</time>
</trkpt>
<trkpt lat="45.8629710" lon="9.2278240">
	<ele>918.80</ele>
	<time>2025-02-15T09:21:53.000Z</time>
</trkpt>
<trkpt lat="45.8630160" lon="9.2278230">
	<ele>918.80</ele>
	<time>2025-02-15T09:21:54.000Z</time>
</trkpt>
<trkpt lat="45.8630200" lon="9.2278150">
	<ele>918.80</ele>
	<time>2025-02-15T09:21:55.000Z</time>
</trkpt>
<trkpt lat="45.8630120" lon="9.2278020">
	<ele>918.60</ele>
	<time>2025-02-15T09:21:56.000Z</time>
</trkpt>
<trkpt lat="45.8630420" lon="9.2277730">
	<ele>918.40</ele>
	<time>2025-02-15T09:21:57.000Z</time>
</trkpt>
<trkpt lat="45.8630300" lon="9.2277550">
	<ele>918.20</ele>
	<time>2025-02-15T09:21:58.000Z</time>
</trkpt>
<trkpt lat="45.8630130" lon="9.2277400">
	<ele>918.00</ele>
	<time>2025-02-15T09:21:59.000Z</time>
</trkpt>
<trkpt lat="45.8630070" lon="9.2277250">
	<ele>918.00</ele>
	<time>2025-02-15T09:22:00.000Z</time>
</trkpt>
<trkpt lat="45.8629980" lon="9.2277130">
	<ele>917.80</ele>
	<time>2025-02-15T09:22:01.000Z</time>
</trkpt>
<trkpt lat="45.8629850" lon="9.2277100">
	<ele>917.80</ele>
	<time>2025-02-15T09:22:02.000Z</time>
</trkpt>
<trkpt lat="45.8629830" lon="9.2276990">
	<ele>917.60</ele>
	<time>2025-02-15T09:22:03.000Z</time>
</trkpt>
<trkpt lat="45.8629900" lon="9.2276840">
	<ele>917.60</ele>
	<time>2025-02-15T09:22:04.000Z</time>
</trkpt>
<trkpt lat="45.8629740" lon="9.2276750">
	<ele>917.40</ele>
	<time>2025-02-15T09:22:05.000Z</time>
</trkpt>
<trkpt lat="45.8629650" lon="9.2276680">
	<ele>917.40</ele>
	<time>2025-02-15T09:22:06.000Z</time>
</trkpt>
<trkpt lat="45.8629490" lon="9.2276510">
	<ele>917.20</ele>
	<time>2025-02-15T09:22:07.000Z</time>
</trkpt>
<trkpt lat="45.8629430" lon="9.2276300">
	<ele>917.20</ele>
	<time>2025-02-15T09:22:08.000Z</time>
</trkpt>
<trkpt lat="45.8629690" lon="9.2276090">
	<ele>917.00</ele>
	<time>2025-02-15T09:22:09.000Z</time>
</trkpt>
<trkpt lat="45.8629880" lon="9.2275930">
	<ele>916.80</ele>
	<time>2025-02-15T09:22:10.000Z</time>
</trkpt>
<trkpt lat="45.8629860" lon="9.2275740">
	<ele>916.60</ele>
	<time>2025-02-15T09:22:11.000Z</time>
</trkpt>
<trkpt lat="45.8629950" lon="9.2275570">
	<ele>916.40</ele>
	<time>2025-02-15T09:22:12.000Z</time>
</trkpt>
<trkpt lat="45.8629900" lon="9.2275480">
	<ele>916.40</ele>
	<time>2025-02-15T09:22:13.000Z</time>
</trkpt>
<trkpt lat="45.8629760" lon="9.2275410">
	<ele>916.20</ele>
	<time>2025-02-15T09:22:14.000Z</time>
</trkpt>
<trkpt lat="45.8629820" lon="9.2275240">
	<ele>916.20</ele>
	<time>2025-02-15T09:22:15.000Z</time>
</trkpt>
<trkpt lat="45.8629860" lon="9.2275080">
	<ele>916.00</ele>
	<time>2025-02-15T09:22:16.000Z</time>
</trkpt>
<trkpt lat="45.8629790" lon="9.2274950">
	<ele>916.00</ele>
	<time>2025-02-15T09:22:17.000Z</time>
</trkpt>
<trkpt lat="45.8629840" lon="9.2274790">
	<ele>916.00</ele>
	<time>2025-02-15T09:22:18.000Z</time>
</trkpt>
<trkpt lat="45.8629790" lon="9.2274700">
	<ele>915.80</ele>
	<time>2025-02-15T09:22:19.000Z</time>
</trkpt>
<trkpt lat="45.8629780" lon="9.2274610">
	<ele>915.80</ele>
	<time>2025-02-15T09:22:20.000Z</time>
</trkpt>
<trkpt lat="45.8629950" lon="9.2274490">
	<ele>915.60</ele>
	<time>2025-02-15T09:22:21.000Z</time>
</trkpt>
<trkpt lat="45.8630220" lon="9.2274230">
	<ele>915.60</ele>
	<time>2025-02-15T09:22:22.000Z</time>
</trkpt>
<trkpt lat="45.8630400" lon="9.2273980">
	<ele>915.40</ele>
	<time>2025-02-15T09:22:23.000Z</time>
</trkpt>
<trkpt lat="45.8630520" lon="9.2273770">
	<ele>915.20</ele>
	<time>2025-02-15T09:22:24.000Z</time>
</trkpt>
<trkpt lat="45.8630600" lon="9.2273580">
	<ele>914.80</ele>
	<time>2025-02-15T09:22:25.000Z</time>
</trkpt>
<trkpt lat="45.8630600" lon="9.2273450">
	<ele>914.60</ele>
	<time>2025-02-15T09:22:26.000Z</time>
</trkpt>
<trkpt lat="45.8630520" lon="9.2273380">
	<ele>914.40</ele>
	<time>2025-02-15T09:22:27.000Z</time>
</trkpt>
<trkpt lat="45.8630430" lon="9.2273300">
	<ele>914.20</ele>
	<time>2025-02-15T09:22:28.000Z</time>
</trkpt>
<trkpt lat="45.8630500" lon="9.2273080">
	<ele>914.00</ele>
	<time>2025-02-15T09:22:29.000Z</time>
</trkpt>
<trkpt lat="45.8630460" lon="9.2272990">
	<ele>914.00</ele>
	<time>2025-02-15T09:22:30.000Z</time>
</trkpt>
<trkpt lat="45.8630360" lon="9.2272920">
	<ele>914.00</ele>
	<time>2025-02-15T09:22:31.000Z</time>
</trkpt>
<trkpt lat="45.8630290" lon="9.2272820">
	<ele>914.00</ele>
	<time>2025-02-15T09:22:32.000Z</time>
</trkpt>
<trkpt lat="45.8630170" lon="9.2272720">
	<ele>914.00</ele>
	<time>2025-02-15T09:22:33.000Z</time>
</trkpt>
<trkpt lat="45.8630070" lon="9.2272600">
	<ele>914.00</ele>
	<time>2025-02-15T09:22:34.000Z</time>
</trkpt>
<trkpt lat="45.8629960" lon="9.2272490">
	<ele>913.80</ele>
	<time>2025-02-15T09:22:35.000Z</time>
</trkpt>
<trkpt lat="45.8629910" lon="9.2272310">
	<ele>913.80</ele>
	<time>2025-02-15T09:22:36.000Z</time>
</trkpt>
<trkpt lat="45.8629850" lon="9.2272120">
	<ele>913.60</ele>
	<time>2025-02-15T09:22:37.000Z</time>
</trkpt>
<trkpt lat="45.8629720" lon="9.2272000">
	<ele>913.60</ele>
	<time>2025-02-15T09:22:38.000Z</time>
</trkpt>
<trkpt lat="45.8629640" lon="9.2271820">
	<ele>913.60</ele>
	<time>2025-02-15T09:22:39.000Z</time>
</trkpt>
<trkpt lat="45.8629530" lon="9.2271650">
	<ele>913.40</ele>
	<time>2025-02-15T09:22:40.000Z</time>
</trkpt>
<trkpt lat="45.8629430" lon="9.2271450">
	<ele>913.20</ele>
	<time>2025-02-15T09:22:41.000Z</time>
</trkpt>
<trkpt lat="45.8629370" lon="9.2271270">
	<ele>913.00</ele>
	<time>2025-02-15T09:22:42.000Z</time>
</trkpt>
<trkpt lat="45.8629290" lon="9.2271100">
	<ele>913.00</ele>
	<time>2025-02-15T09:22:43.000Z</time>
</trkpt>
<trkpt lat="45.8629270" lon="9.2270910">
	<ele>913.00</ele>
	<time>2025-02-15T09:22:44.000Z</time>
</trkpt>
<trkpt lat="45.8629320" lon="9.2270670">
	<ele>913.00</ele>
	<time>2025-02-15T09:22:45.000Z</time>
</trkpt>
<trkpt lat="45.8629420" lon="9.2270470">
	<ele>912.80</ele>
	<time>2025-02-15T09:22:46.000Z</time>
</trkpt>
<trkpt lat="45.8629440" lon="9.2270280">
	<ele>912.80</ele>
	<time>2025-02-15T09:22:47.000Z</time>
</trkpt>
<trkpt lat="45.8629430" lon="9.2270100">
	<ele>912.60</ele>
	<time>2025-02-15T09:22:48.000Z</time>
</trkpt>
<trkpt lat="45.8629390" lon="9.2269950">
	<ele>912.60</ele>
	<time>2025-02-15T09:22:49.000Z</time>
</trkpt>
<trkpt lat="45.8629420" lon="9.2269810">
	<ele>912.40</ele>
	<time>2025-02-15T09:22:50.000Z</time>
</trkpt>
<trkpt lat="45.8629220" lon="9.2269760">
	<ele>912.00</ele>
	<time>2025-02-15T09:22:51.000Z</time>
</trkpt>
<trkpt lat="45.8629180" lon="9.2269660">
	<ele>911.80</ele>
	<time>2025-02-15T09:22:52.000Z</time>
</trkpt>
<trkpt lat="45.8629180" lon="9.2269530">
	<ele>911.80</ele>
	<time>2025-02-15T09:22:53.000Z</time>
</trkpt>
<trkpt lat="45.8629210" lon="9.2269380">
	<ele>911.60</ele>
	<time>2025-02-15T09:22:54.000Z</time>
</trkpt>
<trkpt lat="45.8629170" lon="9.2269220">
	<ele>911.40</ele>
	<time>2025-02-15T09:22:55.000Z</time>
</trkpt>
<trkpt lat="45.8629190" lon="9.2269090">
	<ele>911.20</ele>
	<time>2025-02-15T09:22:56.000Z</time>
</trkpt>
<trkpt lat="45.8629180" lon="9.2268920">
	<ele>911.00</ele>
	<time>2025-02-15T09:22:57.000Z</time>
</trkpt>
<trkpt lat="45.8629130" lon="9.2268800">
	<ele>910.80</ele>
	<time>2025-02-15T09:22:58.000Z</time>
</trkpt>
<trkpt lat="45.8629080" lon="9.2268710">
	<ele>910.80</ele>
	<time>2025-02-15T09:22:59.000Z</time>
</trkpt>
<trkpt lat="45.8629030" lon="9.2268590">
	<ele>910.60</ele>
	<time>2025-02-15T09:23:00.000Z</time>
</trkpt>
<trkpt lat="45.8629010" lon="9.2268410">
	<ele>910.60</ele>
	<time>2025-02-15T09:23:01.000Z</time>
</trkpt>
<trkpt lat="45.8628990" lon="9.2268260">
	<ele>910.40</ele>
	<time>2025-02-15T09:23:02.000Z</time>
</trkpt>
<trkpt lat="45.8628920" lon="9.2268170">
	<ele>910.20</ele>
	<time>2025-02-15T09:23:03.000Z</time>
</trkpt>
<trkpt lat="45.8628860" lon="9.2268060">
	<ele>910.00</ele>
	<time>2025-02-15T09:23:04.000Z</time>
</trkpt>
<trkpt lat="45.8628820" lon="9.2267890">
	<ele>909.80</ele>
	<time>2025-02-15T09:23:05.000Z</time>
</trkpt>
<trkpt lat="45.8628800" lon="9.2267710">
	<ele>909.60</ele>
	<time>2025-02-15T09:23:06.000Z</time>
</trkpt>
<trkpt lat="45.8628820" lon="9.2267490">
	<ele>909.40</ele>
	<time>2025-02-15T09:23:07.000Z</time>
</trkpt>
<trkpt lat="45.8628780" lon="9.2267300">
	<ele>909.40</ele>
	<time>2025-02-15T09:23:08.000Z</time>
</trkpt>
<trkpt lat="45.8628750" lon="9.2267130">
	<ele>909.20</ele>
	<time>2025-02-15T09:23:09.000Z</time>
</trkpt>
<trkpt lat="45.8628730" lon="9.2267000">
	<ele>909.00</ele>
	<time>2025-02-15T09:23:10.000Z</time>
</trkpt>
<trkpt lat="45.8628740" lon="9.2266860">
	<ele>908.80</ele>
	<time>2025-02-15T09:23:11.000Z</time>
</trkpt>
<trkpt lat="45.8628750" lon="9.2266720">
	<ele>908.40</ele>
	<time>2025-02-15T09:23:12.000Z</time>
</trkpt>
<trkpt lat="45.8628760" lon="9.2266560">
	<ele>908.40</ele>
	<time>2025-02-15T09:23:13.000Z</time>
</trkpt>
<trkpt lat="45.8628780" lon="9.2266420">
	<ele>908.00</ele>
	<time>2025-02-15T09:23:14.000Z</time>
</trkpt>
<trkpt lat="45.8628740" lon="9.2266280">
	<ele>908.00</ele>
	<time>2025-02-15T09:23:15.000Z</time>
</trkpt>
<trkpt lat="45.8628750" lon="9.2266230">
	<ele>907.80</ele>
	<time>2025-02-15T09:23:16.000Z</time>
</trkpt>
<trkpt lat="45.8628590" lon="9.2266150">
	<ele>907.80</ele>
	<time>2025-02-15T09:23:17.000Z</time>
</trkpt>
<trkpt lat="45.8628540" lon="9.2266050">
	<ele>907.80</ele>
	<time>2025-02-15T09:23:18.000Z</time>
</trkpt>
<trkpt lat="45.8628560" lon="9.2266020">
	<ele>907.60</ele>
	<time>2025-02-15T09:23:19.000Z</time>
</trkpt>
<trkpt lat="45.8628450" lon="9.2266000">
	<ele>907.40</ele>
	<time>2025-02-15T09:23:20.000Z</time>
</trkpt>
<trkpt lat="45.8628280" lon="9.2265970">
	<ele>907.00</ele>
	<time>2025-02-15T09:23:21.000Z</time>
</trkpt>
<trkpt lat="45.8628220" lon="9.2265870">
	<ele>906.80</ele>
	<time>2025-02-15T09:23:22.000Z</time>
</trkpt>
<trkpt lat="45.8628210" lon="9.2265700">
	<ele>906.60</ele>
	<time>2025-02-15T09:23:23.000Z</time>
</trkpt>
<trkpt lat="45.8628220" lon="9.2265630">
	<ele>906.60</ele>
	<time>2025-02-15T09:23:24.000Z</time>
</trkpt>
<trkpt lat="45.8628110" lon="9.2265560">
	<ele>906.40</ele>
	<time>2025-02-15T09:23:25.000Z</time>
</trkpt>
<trkpt lat="45.8628050" lon="9.2265470">
	<ele>906.40</ele>
	<time>2025-02-15T09:23:26.000Z</time>
</trkpt>
<trkpt lat="45.8628020" lon="9.2265370">
	<ele>906.40</ele>
	<time>2025-02-15T09:23:27.000Z</time>
</trkpt>
<trkpt lat="45.8627960" lon="9.2265270">
	<ele>906.40</ele>
	<time>2025-02-15T09:23:28.000Z</time>
</trkpt>
<trkpt lat="45.8627920" lon="9.2265140">
	<ele>906.20</ele>
	<time>2025-02-15T09:23:29.000Z</time>
</trkpt>
<trkpt lat="45.8627880" lon="9.2265030">
	<ele>906.20</ele>
	<time>2025-02-15T09:23:30.000Z</time>
</trkpt>
<trkpt lat="45.8627870" lon="9.2264850">
	<ele>906.00</ele>
	<time>2025-02-15T09:23:31.000Z</time>
</trkpt>
<trkpt lat="45.8627820" lon="9.2264740">
	<ele>906.00</ele>
	<time>2025-02-15T09:23:32.000Z</time>
</trkpt>
<trkpt lat="45.8627970" lon="9.2264590">
	<ele>906.00</ele>
	<time>2025-02-15T09:23:33.000Z</time>
</trkpt>
<trkpt lat="45.8627980" lon="9.2264560">
	<ele>906.00</ele>
	<time>2025-02-15T09:23:34.000Z</time>
</trkpt>
<trkpt lat="45.8627890" lon="9.2264460">
	<ele>906.00</ele>
	<time>2025-02-15T09:23:35.000Z</time>
</trkpt>
<trkpt lat="45.8627840" lon="9.2264460">
	<ele>906.00</ele>
	<time>2025-02-15T09:23:36.000Z</time>
</trkpt>
<trkpt lat="45.8627710" lon="9.2264370">
	<ele>906.20</ele>
	<time>2025-02-15T09:23:37.000Z</time>
</trkpt>
<trkpt lat="45.8627690" lon="9.2264280">
	<ele>906.20</ele>
	<time>2025-02-15T09:23:38.000Z</time>
</trkpt>
<trkpt lat="45.8627690" lon="9.2264280">
	<ele>906.60</ele>
	<time>2025-02-15T09:23:39.000Z</time>
</trkpt>
<trkpt lat="45.8627740" lon="9.2264250">
	<ele>906.60</ele>
	<time>2025-02-15T09:23:40.000Z</time>
</trkpt>
<trkpt lat="45.8627830" lon="9.2264090">
	<ele>906.80</ele>
	<time>2025-02-15T09:23:41.000Z</time>
</trkpt>
<trkpt lat="45.8627910" lon="9.2263980">
	<ele>906.80</ele>
	<time>2025-02-15T09:23:42.000Z</time>
</trkpt>
<trkpt lat="45.8627990" lon="9.2264050">
	<ele>906.80</ele>
	<time>2025-02-15T09:23:43.000Z</time>
</trkpt>
<trkpt lat="45.8628190" lon="9.2264090">
	<ele>906.60</ele>
	<time>2025-02-15T09:23:44.000Z</time>
</trkpt>
<trkpt lat="45.8628400" lon="9.2264260">
	<ele>906.60</ele>
	<time>2025-02-15T09:23:45.000Z</time>
</trkpt>
<trkpt lat="45.8628530" lon="9.2264410">
	<ele>906.60</ele>
	<time>2025-02-15T09:23:46.000Z</time>
</trkpt>
<trkpt lat="45.8628640" lon="9.2264530">
	<ele>906.40</ele>
	<time>2025-02-15T09:23:47.000Z</time>
</trkpt>
<trkpt lat="45.8628820" lon="9.2264740">
	<ele>906.40</ele>
	<time>2025-02-15T09:23:48.000Z</time>
</trkpt>
<trkpt lat="45.8628900" lon="9.2264750">
	<ele>906.40</ele>
	<time>2025-02-15T09:23:49.000Z</time>
</trkpt>
<trkpt lat="45.8629290" lon="9.2264960">
	<ele>906.40</ele>
	<time>2025-02-15T09:23:50.000Z</time>
</trkpt>
<trkpt lat="45.8629430" lon="9.2264960">
	<ele>906.40</ele>
	<time>2025-02-15T09:23:51.000Z</time>
</trkpt>
<trkpt lat="45.8629610" lon="9.2265000">
	<ele>906.40</ele>
	<time>2025-02-15T09:23:52.000Z</time>
</trkpt>
<trkpt lat="45.8629120" lon="9.2264830">
	<ele>906.40</ele>
	<time>2025-02-15T09:23:53.000Z</time>
</trkpt>
<trkpt lat="45.8629070" lon="9.2264820">
	<ele>906.40</ele>
	<time>2025-02-15T09:23:54.000Z</time>
</trkpt>
<trkpt lat="45.8629070" lon="9.2264830">
	<ele>906.40</ele>
	<time>2025-02-15T09:23:55.000Z</time>
</trkpt>
<trkpt lat="45.8629000" lon="9.2264780">
	<ele>906.40</ele>
	<time>2025-02-15T09:23:56.000Z</time>
</trkpt>
<trkpt lat="45.8628940" lon="9.2264680">
	<ele>906.40</ele>
	<time>2025-02-15T09:23:57.000Z</time>
</trkpt>
<trkpt lat="45.8628880" lon="9.2264690">
	<ele>906.40</ele>
	<time>2025-02-15T09:23:58.000Z</time>
</trkpt>
<trkpt lat="45.8628820" lon="9.2264680">
	<ele>906.40</ele>
	<time>2025-02-15T09:23:59.000Z</time>
</trkpt>
<trkpt lat="45.8628800" lon="9.2264620">
	<ele>906.40</ele>
	<time>2025-02-15T09:24:00.000Z</time>
</trkpt>
<trkpt lat="45.8628650" lon="9.2264550">
	<ele>906.40</ele>
	<time>2025-02-15T09:24:01.000Z</time>
</trkpt>
<trkpt lat="45.8628510" lon="9.2264500">
	<ele>906.40</ele>
	<time>2025-02-15T09:24:02.000Z</time>
</trkpt>
<trkpt lat="45.8628430" lon="9.2264460">
	<ele>906.40</ele>
	<time>2025-02-15T09:24:03.000Z</time>
</trkpt>
<trkpt lat="45.8628300" lon="9.2264410">
	<ele>906.60</ele>
	<time>2025-02-15T09:24:04.000Z</time>
</trkpt>
<trkpt lat="45.8628190" lon="9.2264380">
	<ele>906.60</ele>
	<time>2025-02-15T09:24:05.000Z</time>
</trkpt>
<trkpt lat="45.8628140" lon="9.2264370">
	<ele>906.80</ele>
	<time>2025-02-15T09:24:06.000Z</time>
</trkpt>
<trkpt lat="45.8628140" lon="9.2264340">
	<ele>907.00</ele>
	<time>2025-02-15T09:24:07.000Z</time>
</trkpt>
<trkpt lat="45.8628160" lon="9.2264320">
	<ele>907.00</ele>
	<time>2025-02-15T09:24:08.000Z</time>
</trkpt>
<trkpt lat="45.8628160" lon="9.2264300">
	<ele>907.20</ele>
	<time>2025-02-15T09:24:09.000Z</time>
</trkpt>
<trkpt lat="45.8628160" lon="9.2264300">
	<ele>907.20</ele>
	<time>2025-02-15T09:24:10.000Z</time>
</trkpt>
<trkpt lat="45.8628170" lon="9.2264230">
	<ele>907.20</ele>
	<time>2025-02-15T09:24:11.000Z</time>
</trkpt>
<trkpt lat="45.8628220" lon="9.2264200">
	<ele>907.20</ele>
	<time>2025-02-15T09:24:12.000Z</time>
</trkpt>
<trkpt lat="45.8628270" lon="9.2264210">
	<ele>907.20</ele>
	<time>2025-02-15T09:24:13.000Z</time>
</trkpt>
<trkpt lat="45.8628330" lon="9.2264300">
	<ele>907.00</ele>
	<time>2025-02-15T09:24:14.000Z</time>
</trkpt>
<trkpt lat="45.8628260" lon="9.2264340">
	<ele>906.80</ele>
	<time>2025-02-15T09:24:15.000Z</time>
</trkpt>
<trkpt lat="45.8628210" lon="9.2264290">
	<ele>906.80</ele>
	<time>2025-02-15T09:24:16.000Z</time>
</trkpt>
<trkpt lat="45.8627950" lon="9.2264290">
	<ele>906.80</ele>
	<time>2025-02-15T09:24:17.000Z</time>
</trkpt>
<trkpt lat="45.8627940" lon="9.2264320">
	<ele>907.00</ele>
	<time>2025-02-15T09:24:18.000Z</time>
</trkpt>
<trkpt lat="45.8627930" lon="9.2264350">
	<ele>907.00</ele>
	<time>2025-02-15T09:24:19.000Z</time>
</trkpt>
<trkpt lat="45.8627910" lon="9.2264370">
	<ele>907.00</ele>
	<time>2025-02-15T09:24:20.000Z</time>
</trkpt>
<trkpt lat="45.8627870" lon="9.2264340">
	<ele>907.00</ele>
	<time>2025-02-15T09:24:21.000Z</time>
</trkpt>
<trkpt lat="45.8627840" lon="9.2264330">
	<ele>907.00</ele>
	<time>2025-02-15T09:24:22.000Z</time>
</trkpt>
<trkpt lat="45.8627930" lon="9.2264370">
	<ele>907.00</ele>
	<time>2025-02-15T09:24:23.000Z</time>
</trkpt>
<trkpt lat="45.8627960" lon="9.2264420">
	<ele>906.80</ele>
	<time>2025-02-15T09:24:24.000Z</time>
</trkpt>
<trkpt lat="45.8628020" lon="9.2264440">
	<ele>906.80</ele>
	<time>2025-02-15T09:24:25.000Z</time>
</trkpt>
<trkpt lat="45.8627990" lon="9.2264470">
	<ele>906.80</ele>
	<time>2025-02-15T09:24:26.000Z</time>
</trkpt>
<trkpt lat="45.8628010" lon="9.2264500">
	<ele>906.80</ele>
	<time>2025-02-15T09:24:27.000Z</time>
</trkpt>
<trkpt lat="45.8628000" lon="9.2264520">
	<ele>906.80</ele>
	<time>2025-02-15T09:24:28.000Z</time>
</trkpt>
<trkpt lat="45.8628000" lon="9.2264550">
	<ele>906.80</ele>
	<time>2025-02-15T09:24:29.000Z</time>
</trkpt>
<trkpt lat="45.8627920" lon="9.2264540">
	<ele>906.80</ele>
	<time>2025-02-15T09:24:30.000Z</time>
</trkpt>
<trkpt lat="45.8627890" lon="9.2264470">
	<ele>906.80</ele>
	<time>2025-02-15T09:24:31.000Z</time>
</trkpt>
<trkpt lat="45.8627840" lon="9.2264490">
	<ele>906.80</ele>
	<time>2025-02-15T09:24:32.000Z</time>
</trkpt>
<trkpt lat="45.8627800" lon="9.2264380">
	<ele>906.80</ele>
	<time>2025-02-15T09:24:33.000Z</time>
</trkpt>
<trkpt lat="45.8627670" lon="9.2264280">
	<ele>907.00</ele>
	<time>2025-02-15T09:24:34.000Z</time>
</trkpt>
<trkpt lat="45.8627710" lon="9.2264260">
	<ele>907.00</ele>
	<time>2025-02-15T09:24:35.000Z</time>
</trkpt>
<trkpt lat="45.8627740" lon="9.2264250">
	<ele>907.00</ele>
	<time>2025-02-15T09:24:36.000Z</time>
</trkpt>
<trkpt lat="45.8627710" lon="9.2264070">
	<ele>907.00</ele>
	<time>2025-02-15T09:24:37.000Z</time>
</trkpt>
<trkpt lat="45.8627690" lon="9.2264010">
	<ele>907.00</ele>
	<time>2025-02-15T09:24:38.000Z</time>
</trkpt>
<trkpt lat="45.8627610" lon="9.2263980">
	<ele>907.00</ele>
	<time>2025-02-15T09:24:39.000Z</time>
</trkpt>
<trkpt lat="45.8627500" lon="9.2264030">
	<ele>907.00</ele>
	<time>2025-02-15T09:24:40.000Z</time>
</trkpt>
<trkpt lat="45.8627440" lon="9.2264040">
	<ele>906.80</ele>
	<time>2025-02-15T09:24:41.000Z</time>
</trkpt>
<trkpt lat="45.8627350" lon="9.2264030">
	<ele>906.80</ele>
	<time>2025-02-15T09:24:42.000Z</time>
</trkpt>
<trkpt lat="45.8627320" lon="9.2264050">
	<ele>906.80</ele>
	<time>2025-02-15T09:24:43.000Z</time>
</trkpt>
<trkpt lat="45.8627340" lon="9.2264060">
	<ele>906.80</ele>
	<time>2025-02-15T09:24:44.000Z</time>
</trkpt>
<trkpt lat="45.8627340" lon="9.2264090">
	<ele>906.80</ele>
	<time>2025-02-15T09:24:45.000Z</time>
</trkpt>
<trkpt lat="45.8627340" lon="9.2264110">
	<ele>906.80</ele>
	<time>2025-02-15T09:24:46.000Z</time>
</trkpt>
<trkpt lat="45.8627390" lon="9.2263970">
	<ele>906.80</ele>
	<time>2025-02-15T09:24:47.000Z</time>
</trkpt>
<trkpt lat="45.8627170" lon="9.2264070">
	<ele>906.60</ele>
	<time>2025-02-15T09:24:48.000Z</time>
</trkpt>
<trkpt lat="45.8627090" lon="9.2264030">
	<ele>906.60</ele>
	<time>2025-02-15T09:24:49.000Z</time>
</trkpt>
<trkpt lat="45.8627040" lon="9.2263990">
	<ele>906.60</ele>
	<time>2025-02-15T09:24:50.000Z</time>
</trkpt>
<trkpt lat="45.8626970" lon="9.2263990">
	<ele>906.60</ele>
	<time>2025-02-15T09:24:51.000Z</time>
</trkpt>
<trkpt lat="45.8626880" lon="9.2263980">
	<ele>906.60</ele>
	<time>2025-02-15T09:24:52.000Z</time>
</trkpt>
<trkpt lat="45.8626780" lon="9.2263990">
	<ele>906.60</ele>
	<time>2025-02-15T09:24:53.000Z</time>
</trkpt>
<trkpt lat="45.8626690" lon="9.2263960">
	<ele>906.60</ele>
	<time>2025-02-15T09:24:54.000Z</time>
</trkpt>
<trkpt lat="45.8626560" lon="9.2263870">
	<ele>906.60</ele>
	<time>2025-02-15T09:24:55.000Z</time>
</trkpt>
<trkpt lat="45.8626470" lon="9.2263800">
	<ele>906.60</ele>
	<time>2025-02-15T09:24:56.000Z</time>
</trkpt>
<trkpt lat="45.8626370" lon="9.2263660">
	<ele>906.60</ele>
	<time>2025-02-15T09:24:57.000Z</time>
</trkpt>
<trkpt lat="45.8626280" lon="9.2263570">
	<ele>906.60</ele>
	<time>2025-02-15T09:24:58.000Z</time>
</trkpt>
<trkpt lat="45.8626200" lon="9.2263520">
	<ele>906.60</ele>
	<time>2025-02-15T09:24:59.000Z</time>
</trkpt>
<trkpt lat="45.8626160" lon="9.2263480">
	<ele>906.80</ele>
	<time>2025-02-15T09:25:00.000Z</time>
</trkpt>
<trkpt lat="45.8626010" lon="9.2263380">
	<ele>906.80</ele>
	<time>2025-02-15T09:25:01.000Z</time>
</trkpt>
<trkpt lat="45.8625850" lon="9.2263280">
	<ele>906.80</ele>
	<time>2025-02-15T09:25:02.000Z</time>
</trkpt>
<trkpt lat="45.8625790" lon="9.2263170">
	<ele>907.00</ele>
	<time>2025-02-15T09:25:03.000Z</time>
</trkpt>
<trkpt lat="45.8625840" lon="9.2263140">
	<ele>907.00</ele>
	<time>2025-02-15T09:25:04.000Z</time>
</trkpt>
<trkpt lat="45.8625860" lon="9.2263100">
	<ele>907.00</ele>
	<time>2025-02-15T09:25:05.000Z</time>
</trkpt>
<trkpt lat="45.8625720" lon="9.2263100">
	<ele>906.80</ele>
	<time>2025-02-15T09:25:06.000Z</time>
</trkpt>
<trkpt lat="45.8625710" lon="9.2263090">
	<ele>906.80</ele>
	<time>2025-02-15T09:25:07.000Z</time>
</trkpt>
<trkpt lat="45.8625800" lon="9.2263060">
	<ele>906.80</ele>
	<time>2025-02-15T09:25:08.000Z</time>
</trkpt>
<trkpt lat="45.8626010" lon="9.2262960">
	<ele>906.80</ele>
	<time>2025-02-15T09:25:09.000Z</time>
</trkpt>
<trkpt lat="45.8626090" lon="9.2262860">
	<ele>906.80</ele>
	<time>2025-02-15T09:25:10.000Z</time>
</trkpt>
<trkpt lat="45.8626150" lon="9.2262710">
	<ele>906.80</ele>
	<time>2025-02-15T09:25:11.000Z</time>
</trkpt>
<trkpt lat="45.8626170" lon="9.2262670">
	<ele>906.60</ele>
	<time>2025-02-15T09:25:12.000Z</time>
</trkpt>
<trkpt lat="45.8626180" lon="9.2262630">
	<ele>906.60</ele>
	<time>2025-02-15T09:25:13.000Z</time>
</trkpt>
<trkpt lat="45.8626020" lon="9.2262590">
	<ele>906.60</ele>
	<time>2025-02-15T09:25:14.000Z</time>
</trkpt>
<trkpt lat="45.8625880" lon="9.2262540">
	<ele>906.60</ele>
	<time>2025-02-15T09:25:15.000Z</time>
</trkpt>
<trkpt lat="45.8625870" lon="9.2262550">
	<ele>906.80</ele>
	<time>2025-02-15T09:25:16.000Z</time>
</trkpt>
<trkpt lat="45.8625900" lon="9.2262480">
	<ele>906.80</ele>
	<time>2025-02-15T09:25:17.000Z</time>
</trkpt>
<trkpt lat="45.8625930" lon="9.2262510">
	<ele>906.80</ele>
	<time>2025-02-15T09:25:18.000Z</time>
</trkpt>
<trkpt lat="45.8625910" lon="9.2262440">
	<ele>907.00</ele>
	<time>2025-02-15T09:25:19.000Z</time>
</trkpt>
<trkpt lat="45.8625930" lon="9.2262460">
	<ele>907.00</ele>
	<time>2025-02-15T09:25:20.000Z</time>
</trkpt>
<trkpt lat="45.8625930" lon="9.2262420">
	<ele>907.00</ele>
	<time>2025-02-15T09:25:21.000Z</time>
</trkpt>
<trkpt lat="45.8626020" lon="9.2262330">
	<ele>907.00</ele>
	<time>2025-02-15T09:25:22.000Z</time>
</trkpt>
<trkpt lat="45.8625990" lon="9.2262250">
	<ele>907.20</ele>
	<time>2025-02-15T09:25:23.000Z</time>
</trkpt>
<trkpt lat="45.8625890" lon="9.2262160">
	<ele>907.20</ele>
	<time>2025-02-15T09:25:24.000Z</time>
</trkpt>
<trkpt lat="45.8625910" lon="9.2262080">
	<ele>907.20</ele>
	<time>2025-02-15T09:25:25.000Z</time>
</trkpt>
<trkpt lat="45.8625930" lon="9.2261990">
	<ele>907.40</ele>
	<time>2025-02-15T09:25:26.000Z</time>
</trkpt>
<trkpt lat="45.8625920" lon="9.2261940">
	<ele>907.40</ele>
	<time>2025-02-15T09:25:27.000Z</time>
</trkpt>
<trkpt lat="45.8625940" lon="9.2261860">
	<ele>907.40</ele>
	<time>2025-02-15T09:25:28.000Z</time>
</trkpt>
<trkpt lat="45.8625950" lon="9.2261850">
	<ele>907.60</ele>
	<time>2025-02-15T09:25:29.000Z</time>
</trkpt>
<trkpt lat="45.8625860" lon="9.2261870">
	<ele>907.60</ele>
	<time>2025-02-15T09:25:30.000Z</time>
</trkpt>
<trkpt lat="45.8625810" lon="9.2261860">
	<ele>907.60</ele>
	<time>2025-02-15T09:25:31.000Z</time>
</trkpt>
<trkpt lat="45.8625820" lon="9.2261820">
	<ele>907.80</ele>
	<time>2025-02-15T09:25:32.000Z</time>
</trkpt>
<trkpt lat="45.8625820" lon="9.2261770">
	<ele>907.80</ele>
	<time>2025-02-15T09:25:33.000Z</time>
</trkpt>
<trkpt lat="45.8625820" lon="9.2261750">
	<ele>908.00</ele>
	<time>2025-02-15T09:25:34.000Z</time>
</trkpt>
<trkpt lat="45.8625790" lon="9.2261720">
	<ele>908.20</ele>
	<time>2025-02-15T09:25:35.000Z</time>
</trkpt>
<trkpt lat="45.8625780" lon="9.2261670">
	<ele>908.20</ele>
	<time>2025-02-15T09:25:36.000Z</time>
</trkpt>
<trkpt lat="45.8625800" lon="9.2261680">
	<ele>908.40</ele>
	<time>2025-02-15T09:25:37.000Z</time>
</trkpt>
<trkpt lat="45.8625800" lon="9.2261680">
	<ele>908.60</ele>
	<time>2025-02-15T09:25:38.000Z</time>
</trkpt>
<trkpt lat="45.8625800" lon="9.2261680">
	<ele>908.60</ele>
	<time>2025-02-15T09:25:39.000Z</time>
</trkpt>
<trkpt lat="45.8625800" lon="9.2261680">
	<ele>908.80</ele>
	<time>2025-02-15T09:25:40.000Z</time>
</trkpt>
<trkpt lat="45.8625740" lon="9.2261670">
	<ele>908.80</ele>
	<time>2025-02-15T09:25:41.000Z</time>
</trkpt>
<trkpt lat="45.8625650" lon="9.2261670">
	<ele>909.00</ele>
	<time>2025-02-15T09:25:42.000Z</time>
</trkpt>
<trkpt lat="45.8625470" lon="9.2261610">
	<ele>909.00</ele>
	<time>2025-02-15T09:25:43.000Z</time>
</trkpt>
<trkpt lat="45.8625300" lon="9.2261620">
	<ele>909.00</ele>
	<time>2025-02-15T09:25:44.000Z</time>
</trkpt>
<trkpt lat="45.8625150" lon="9.2261590">
	<ele>909.20</ele>
	<time>2025-02-15T09:25:45.000Z</time>
</trkpt>
<trkpt lat="45.8625030" lon="9.2261520">
	<ele>909.40</ele>
	<time>2025-02-15T09:25:46.000Z</time>
</trkpt>
<trkpt lat="45.8624820" lon="9.2261620">
	<ele>909.60</ele>
	<time>2025-02-15T09:25:47.000Z</time>
</trkpt>
<trkpt lat="45.8624630" lon="9.2261660">
	<ele>909.80</ele>
	<time>2025-02-15T09:25:48.000Z</time>
</trkpt>
<trkpt lat="45.8624490" lon="9.2261600">
	<ele>909.80</ele>
	<time>2025-02-15T09:25:49.000Z</time>
</trkpt>
<trkpt lat="45.8624400" lon="9.2261510">
	<ele>910.00</ele>
	<time>2025-02-15T09:25:50.000Z</time>
</trkpt>
<trkpt lat="45.8624380" lon="9.2261460">
	<ele>910.00</ele>
	<time>2025-02-15T09:25:51.000Z</time>
</trkpt>
<trkpt lat="45.8624270" lon="9.2261420">
	<ele>910.00</ele>
	<time>2025-02-15T09:25:52.000Z</time>
</trkpt>
<trkpt lat="45.8624160" lon="9.2261390">
	<ele>910.00</ele>
	<time>2025-02-15T09:25:53.000Z</time>
</trkpt>
<trkpt lat="45.8624140" lon="9.2261340">
	<ele>910.20</ele>
	<time>2025-02-15T09:25:54.000Z</time>
</trkpt>
<trkpt lat="45.8624150" lon="9.2261250">
	<ele>910.40</ele>
	<time>2025-02-15T09:25:55.000Z</time>
</trkpt>
<trkpt lat="45.8624150" lon="9.2261190">
	<ele>910.60</ele>
	<time>2025-02-15T09:25:56.000Z</time>
</trkpt>
<trkpt lat="45.8624070" lon="9.2261180">
	<ele>910.80</ele>
	<time>2025-02-15T09:25:57.000Z</time>
</trkpt>
<trkpt lat="45.8624050" lon="9.2261090">
	<ele>910.80</ele>
	<time>2025-02-15T09:25:58.000Z</time>
</trkpt>
<trkpt lat="45.8624010" lon="9.2261020">
	<ele>910.80</ele>
	<time>2025-02-15T09:25:59.000Z</time>
</trkpt>
<trkpt lat="45.8623940" lon="9.2261000">
	<ele>911.20</ele>
	<time>2025-02-15T09:26:00.000Z</time>
</trkpt>
<trkpt lat="45.8623850" lon="9.2261000">
	<ele>911.40</ele>
	<time>2025-02-15T09:26:01.000Z</time>
</trkpt>
<trkpt lat="45.8623820" lon="9.2260890">
	<ele>911.60</ele>
	<time>2025-02-15T09:26:02.000Z</time>
</trkpt>
<trkpt lat="45.8623810" lon="9.2260850">
	<ele>911.80</ele>
	<time>2025-02-15T09:26:03.000Z</time>
</trkpt>
<trkpt lat="45.8623820" lon="9.2260780">
	<ele>912.00</ele>
	<time>2025-02-15T09:26:04.000Z</time>
</trkpt>
<trkpt lat="45.8623830" lon="9.2260770">
	<ele>912.20</ele>
	<time>2025-02-15T09:26:05.000Z</time>
</trkpt>
<trkpt lat="45.8623760" lon="9.2260760">
	<ele>912.20</ele>
	<time>2025-02-15T09:26:06.000Z</time>
</trkpt>
<trkpt lat="45.8623770" lon="9.2260760">
	<ele>912.20</ele>
	<time>2025-02-15T09:26:07.000Z</time>
</trkpt>
<trkpt lat="45.8623790" lon="9.2260780">
	<ele>912.20</ele>
	<time>2025-02-15T09:26:08.000Z</time>
</trkpt>
<trkpt lat="45.8623900" lon="9.2260810">
	<ele>912.60</ele>
	<time>2025-02-15T09:26:09.000Z</time>
</trkpt>
<trkpt lat="45.8623960" lon="9.2260810">
	<ele>912.60</ele>
	<time>2025-02-15T09:26:10.000Z</time>
</trkpt>
<trkpt lat="45.8624000" lon="9.2260810">
	<ele>912.80</ele>
	<time>2025-02-15T09:26:11.000Z</time>
</trkpt>
<trkpt lat="45.8624050" lon="9.2260690">
	<ele>912.80</ele>
	<time>2025-02-15T09:26:12.000Z</time>
</trkpt>
<trkpt lat="45.8624100" lon="9.2260640">
	<ele>913.00</ele>
	<time>2025-02-15T09:26:13.000Z</time>
</trkpt>
<trkpt lat="45.8624130" lon="9.2260650">
	<ele>913.20</ele>
	<time>2025-02-15T09:26:14.000Z</time>
</trkpt>
<trkpt lat="45.8624160" lon="9.2260660">
	<ele>913.40</ele>
	<time>2025-02-15T09:26:15.000Z</time>
</trkpt>
<trkpt lat="45.8624190" lon="9.2260670">
	<ele>913.40</ele>
	<time>2025-02-15T09:26:16.000Z</time>
</trkpt>
<trkpt lat="45.8624250" lon="9.2260640">
	<ele>913.60</ele>
	<time>2025-02-15T09:26:17.000Z</time>
</trkpt>
<trkpt lat="45.8624260" lon="9.2260610">
	<ele>913.80</ele>
	<time>2025-02-15T09:26:18.000Z</time>
</trkpt>
<trkpt lat="45.8624320" lon="9.2260600">
	<ele>913.80</ele>
	<time>2025-02-15T09:26:19.000Z</time>
</trkpt>
<trkpt lat="45.8624330" lon="9.2260630">
	<ele>914.20</ele>
	<time>2025-02-15T09:26:20.000Z</time>
</trkpt>
<trkpt lat="45.8624420" lon="9.2260600">
	<ele>914.20</ele>
	<time>2025-02-15T09:26:21.000Z</time>
</trkpt>
<trkpt lat="45.8624460" lon="9.2260560">
	<ele>914.40</ele>
	<time>2025-02-15T09:26:22.000Z</time>
</trkpt>
<trkpt lat="45.8624510" lon="9.2260520">
	<ele>914.60</ele>
	<time>2025-02-15T09:26:23.000Z</time>
</trkpt>
<trkpt lat="45.8624560" lon="9.2260430">
	<ele>914.60</ele>
	<time>2025-02-15T09:26:24.000Z</time>
</trkpt>
<trkpt lat="45.8624620" lon="9.2260330">
	<ele>914.80</ele>
	<time>2025-02-15T09:26:25.000Z</time>
</trkpt>
<trkpt lat="45.8624660" lon="9.2260260">
	<ele>915.00</ele>
	<time>2025-02-15T09:26:26.000Z</time>
</trkpt>
<trkpt lat="45.8624680" lon="9.2260230">
	<ele>915.20</ele>
	<time>2025-02-15T09:26:27.000Z</time>
</trkpt>
<trkpt lat="45.8624690" lon="9.2260180">
	<ele>915.40</ele>
	<time>2025-02-15T09:26:28.000Z</time>
</trkpt>
<trkpt lat="45.8624710" lon="9.2260130">
	<ele>915.40</ele>
	<time>2025-02-15T09:26:29.000Z</time>
</trkpt>
<trkpt lat="45.8624700" lon="9.2260080">
	<ele>915.60</ele>
	<time>2025-02-15T09:26:30.000Z</time>
</trkpt>
<trkpt lat="45.8624730" lon="9.2260010">
	<ele>915.60</ele>
	<time>2025-02-15T09:26:31.000Z</time>
</trkpt>
<trkpt lat="45.8624730" lon="9.2259990">
	<ele>915.80</ele>
	<time>2025-02-15T09:26:32.000Z</time>
</trkpt>
<trkpt lat="45.8624670" lon="9.2259870">
	<ele>915.80</ele>
	<time>2025-02-15T09:26:33.000Z</time>
</trkpt>
<trkpt lat="45.8624660" lon="9.2259720">
	<ele>916.00</ele>
	<time>2025-02-15T09:26:34.000Z</time>
</trkpt>
<trkpt lat="45.8624670" lon="9.2259600">
	<ele>916.20</ele>
	<time>2025-02-15T09:26:35.000Z</time>
</trkpt>
<trkpt lat="45.8624590" lon="9.2259510">
	<ele>916.40</ele>
	<time>2025-02-15T09:26:36.000Z</time>
</trkpt>
<trkpt lat="45.8624630" lon="9.2259360">
	<ele>916.60</ele>
	<time>2025-02-15T09:26:37.000Z</time>
</trkpt>
<trkpt lat="45.8624650" lon="9.2259300">
	<ele>916.80</ele>
	<time>2025-02-15T09:26:38.000Z</time>
</trkpt>
<trkpt lat="45.8624660" lon="9.2259290">
	<ele>917.00</ele>
	<time>2025-02-15T09:26:39.000Z</time>
</trkpt>
<trkpt lat="45.8624670" lon="9.2259250">
	<ele>917.20</ele>
	<time>2025-02-15T09:26:40.000Z</time>
</trkpt>
<trkpt lat="45.8624610" lon="9.2259230">
	<ele>917.40</ele>
	<time>2025-02-15T09:26:41.000Z</time>
</trkpt>
<trkpt lat="45.8624480" lon="9.2259250">
	<ele>917.40</ele>
	<time>2025-02-15T09:26:42.000Z</time>
</trkpt>
<trkpt lat="45.8624430" lon="9.2259170">
	<ele>917.40</ele>
	<time>2025-02-15T09:26:43.000Z</time>
</trkpt>
<trkpt lat="45.8624420" lon="9.2259130">
	<ele>917.60</ele>
	<time>2025-02-15T09:26:44.000Z</time>
</trkpt>
<trkpt lat="45.8624430" lon="9.2259140">
	<ele>917.60</ele>
	<time>2025-02-15T09:26:45.000Z</time>
</trkpt>
<trkpt lat="45.8624390" lon="9.2259070">
	<ele>918.20</ele>
	<time>2025-02-15T09:26:46.000Z</time>
</trkpt>
<trkpt lat="45.8624230" lon="9.2259000">
	<ele>918.40</ele>
	<time>2025-02-15T09:26:47.000Z</time>
</trkpt>
<trkpt lat="45.8624150" lon="9.2258930">
	<ele>918.60</ele>
	<time>2025-02-15T09:26:48.000Z</time>
</trkpt>
<trkpt lat="45.8624140" lon="9.2258830">
	<ele>918.80</ele>
	<time>2025-02-15T09:26:49.000Z</time>
</trkpt>
<trkpt lat="45.8624160" lon="9.2258720">
	<ele>918.80</ele>
	<time>2025-02-15T09:26:50.000Z</time>
</trkpt>
<trkpt lat="45.8624170" lon="9.2258630">
	<ele>919.00</ele>
	<time>2025-02-15T09:26:51.000Z</time>
</trkpt>
<trkpt lat="45.8624130" lon="9.2258520">
	<ele>919.20</ele>
	<time>2025-02-15T09:26:52.000Z</time>
</trkpt>
<trkpt lat="45.8624120" lon="9.2258300">
	<ele>919.80</ele>
	<time>2025-02-15T09:26:53.000Z</time>
</trkpt>
<trkpt lat="45.8624040" lon="9.2258110">
	<ele>920.00</ele>
	<time>2025-02-15T09:26:54.000Z</time>
</trkpt>
<trkpt lat="45.8623960" lon="9.2258010">
	<ele>920.20</ele>
	<time>2025-02-15T09:26:55.000Z</time>
</trkpt>
<trkpt lat="45.8623960" lon="9.2257890">
	<ele>920.20</ele>
	<time>2025-02-15T09:26:56.000Z</time>
</trkpt>
<trkpt lat="45.8623950" lon="9.2257760">
	<ele>920.40</ele>
	<time>2025-02-15T09:26:57.000Z</time>
</trkpt>
<trkpt lat="45.8623950" lon="9.2257660">
	<ele>920.40</ele>
	<time>2025-02-15T09:26:58.000Z</time>
</trkpt>
<trkpt lat="45.8623890" lon="9.2257550">
	<ele>920.40</ele>
	<time>2025-02-15T09:26:59.000Z</time>
</trkpt>
<trkpt lat="45.8623820" lon="9.2257440">
	<ele>920.60</ele>
	<time>2025-02-15T09:27:00.000Z</time>
</trkpt>
<trkpt lat="45.8623780" lon="9.2257350">
	<ele>920.80</ele>
	<time>2025-02-15T09:27:01.000Z</time>
</trkpt>
<trkpt lat="45.8623760" lon="9.2257290">
	<ele>920.80</ele>
	<time>2025-02-15T09:27:02.000Z</time>
</trkpt>
<trkpt lat="45.8623770" lon="9.2257270">
	<ele>921.00</ele>
	<time>2025-02-15T09:27:03.000Z</time>
</trkpt>
<trkpt lat="45.8623840" lon="9.2257220">
	<ele>921.00</ele>
	<time>2025-02-15T09:27:04.000Z</time>
</trkpt>
<trkpt lat="45.8623910" lon="9.2257090">
	<ele>921.20</ele>
	<time>2025-02-15T09:27:05.000Z</time>
</trkpt>
<trkpt lat="45.8623950" lon="9.2256970">
	<ele>921.20</ele>
	<time>2025-02-15T09:27:06.000Z</time>
</trkpt>
<trkpt lat="45.8623930" lon="9.2256920">
	<ele>921.40</ele>
	<time>2025-02-15T09:27:07.000Z</time>
</trkpt>
<trkpt lat="45.8623980" lon="9.2256800">
	<ele>921.60</ele>
	<time>2025-02-15T09:27:08.000Z</time>
</trkpt>
<trkpt lat="45.8623980" lon="9.2256660">
	<ele>921.80</ele>
	<time>2025-02-15T09:27:09.000Z</time>
</trkpt>
<trkpt lat="45.8623980" lon="9.2256540">
	<ele>922.00</ele>
	<time>2025-02-15T09:27:10.000Z</time>
</trkpt>
<trkpt lat="45.8623950" lon="9.2256490">
	<ele>922.20</ele>
	<time>2025-02-15T09:27:11.000Z</time>
</trkpt>
<trkpt lat="45.8623950" lon="9.2256410">
	<ele>922.40</ele>
	<time>2025-02-15T09:27:12.000Z</time>
</trkpt>
<trkpt lat="45.8624050" lon="9.2256310">
	<ele>922.40</ele>
	<time>2025-02-15T09:27:13.000Z</time>
</trkpt>
<trkpt lat="45.8624040" lon="9.2256280">
	<ele>922.40</ele>
	<time>2025-02-15T09:27:14.000Z</time>
</trkpt>
<trkpt lat="45.8624110" lon="9.2256090">
	<ele>922.60</ele>
	<time>2025-02-15T09:27:15.000Z</time>
</trkpt>
<trkpt lat="45.8623980" lon="9.2256050">
	<ele>922.60</ele>
	<time>2025-02-15T09:27:16.000Z</time>
</trkpt>
<trkpt lat="45.8623920" lon="9.2255990">
	<ele>922.80</ele>
	<time>2025-02-15T09:27:17.000Z</time>
</trkpt>
<trkpt lat="45.8623950" lon="9.2255880">
	<ele>923.00</ele>
	<time>2025-02-15T09:27:18.000Z</time>
</trkpt>
<trkpt lat="45.8623850" lon="9.2255750">
	<ele>923.20</ele>
	<time>2025-02-15T09:27:19.000Z</time>
</trkpt>
<trkpt lat="45.8623820" lon="9.2255690">
	<ele>923.40</ele>
	<time>2025-02-15T09:27:20.000Z</time>
</trkpt>
<trkpt lat="45.8623880" lon="9.2255560">
	<ele>923.60</ele>
	<time>2025-02-15T09:27:21.000Z</time>
</trkpt>
<trkpt lat="45.8623900" lon="9.2255520">
	<ele>923.60</ele>
	<time>2025-02-15T09:27:22.000Z</time>
</trkpt>
<trkpt lat="45.8623940" lon="9.2255370">
	<ele>923.60</ele>
	<time>2025-02-15T09:27:23.000Z</time>
</trkpt>
<trkpt lat="45.8623930" lon="9.2255220">
	<ele>923.80</ele>
	<time>2025-02-15T09:27:24.000Z</time>
</trkpt>
<trkpt lat="45.8623960" lon="9.2255090">
	<ele>924.00</ele>
	<time>2025-02-15T09:27:25.000Z</time>
</trkpt>
<trkpt lat="45.8623990" lon="9.2254950">
	<ele>924.20</ele>
	<time>2025-02-15T09:27:26.000Z</time>
</trkpt>
<trkpt lat="45.8624020" lon="9.2254800">
	<ele>924.20</ele>
	<time>2025-02-15T09:27:27.000Z</time>
</trkpt>
<trkpt lat="45.8624120" lon="9.2254640">
	<ele>924.40</ele>
	<time>2025-02-15T09:27:28.000Z</time>
</trkpt>
<trkpt lat="45.8624220" lon="9.2254450">
	<ele>924.40</ele>
	<time>2025-02-15T09:27:29.000Z</time>
</trkpt>
<trkpt lat="45.8624230" lon="9.2254380">
	<ele>924.60</ele>
	<time>2025-02-15T09:27:30.000Z</time>
</trkpt>
<trkpt lat="45.8624240" lon="9.2254330">
	<ele>924.80</ele>
	<time>2025-02-15T09:27:31.000Z</time>
</trkpt>
<trkpt lat="45.8624300" lon="9.2254230">
	<ele>925.20</ele>
	<time>2025-02-15T09:27:32.000Z</time>
</trkpt>
<trkpt lat="45.8624310" lon="9.2254140">
	<ele>925.40</ele>
	<time>2025-02-15T09:27:33.000Z</time>
</trkpt>
<trkpt lat="45.8624270" lon="9.2254060">
	<ele>925.40</ele>
	<time>2025-02-15T09:27:34.000Z</time>
</trkpt>
<trkpt lat="45.8624200" lon="9.2253930">
	<ele>925.40</ele>
	<time>2025-02-15T09:27:35.000Z</time>
</trkpt>
<trkpt lat="45.8624030" lon="9.2253950">
	<ele>925.60</ele>
	<time>2025-02-15T09:27:36.000Z</time>
</trkpt>
<trkpt lat="45.8623900" lon="9.2254010">
	<ele>926.20</ele>
	<time>2025-02-15T09:27:37.000Z</time>
</trkpt>
<trkpt lat="45.8623860" lon="9.2254030">
	<ele>926.60</ele>
	<time>2025-02-15T09:27:38.000Z</time>
</trkpt>
<trkpt lat="45.8623760" lon="9.2254030">
	<ele>926.80</ele>
	<time>2025-02-15T09:27:39.000Z</time>
</trkpt>
<trkpt lat="45.8623680" lon="9.2254010">
	<ele>927.00</ele>
	<time>2025-02-15T09:27:40.000Z</time>
</trkpt>
<trkpt lat="45.8623620" lon="9.2253940">
	<ele>927.00</ele>
	<time>2025-02-15T09:27:41.000Z</time>
</trkpt>
<trkpt lat="45.8623560" lon="9.2253900">
	<ele>927.00</ele>
	<time>2025-02-15T09:27:42.000Z</time>
</trkpt>
<trkpt lat="45.8623510" lon="9.2253930">
	<ele>927.00</ele>
	<time>2025-02-15T09:27:43.000Z</time>
</trkpt>
<trkpt lat="45.8623480" lon="9.2253960">
	<ele>927.20</ele>
	<time>2025-02-15T09:27:44.000Z</time>
</trkpt>
<trkpt lat="45.8623460" lon="9.2253980">
	<ele>927.20</ele>
	<time>2025-02-15T09:27:45.000Z</time>
</trkpt>
<trkpt lat="45.8623450" lon="9.2253980">
	<ele>927.40</ele>
	<time>2025-02-15T09:27:46.000Z</time>
</trkpt>
<trkpt lat="45.8623420" lon="9.2254000">
	<ele>927.60</ele>
	<time>2025-02-15T09:27:47.000Z</time>
</trkpt>
<trkpt lat="45.8623410" lon="9.2254010">
	<ele>927.80</ele>
	<time>2025-02-15T09:27:48.000Z</time>
</trkpt>
<trkpt lat="45.8623330" lon="9.2254010">
	<ele>927.80</ele>
	<time>2025-02-15T09:27:49.000Z</time>
</trkpt>
<trkpt lat="45.8623240" lon="9.2254010">
	<ele>928.00</ele>
	<time>2025-02-15T09:27:50.000Z</time>
</trkpt>
<trkpt lat="45.8623160" lon="9.2254050">
	<ele>928.20</ele>
	<time>2025-02-15T09:27:51.000Z</time>
</trkpt>
<trkpt lat="45.8623060" lon="9.2254050">
	<ele>928.40</ele>
	<time>2025-02-15T09:27:52.000Z</time>
</trkpt>
<trkpt lat="45.8622970" lon="9.2254060">
	<ele>928.40</ele>
	<time>2025-02-15T09:27:53.000Z</time>
</trkpt>
<trkpt lat="45.8622890" lon="9.2254050">
	<ele>928.60</ele>
	<time>2025-02-15T09:27:54.000Z</time>
</trkpt>
<trkpt lat="45.8622840" lon="9.2254040">
	<ele>928.60</ele>
	<time>2025-02-15T09:27:55.000Z</time>
</trkpt>
<trkpt lat="45.8622730" lon="9.2254080">
	<ele>928.60</ele>
	<time>2025-02-15T09:27:56.000Z</time>
</trkpt>
<trkpt lat="45.8622600" lon="9.2254080">
	<ele>928.60</ele>
	<time>2025-02-15T09:27:57.000Z</time>
</trkpt>
<trkpt lat="45.8622460" lon="9.2254040">
	<ele>928.60</ele>
	<time>2025-02-15T09:27:58.000Z</time>
</trkpt>
<trkpt lat="45.8622400" lon="9.2253980">
	<ele>928.80</ele>
	<time>2025-02-15T09:27:59.000Z</time>
</trkpt>
<trkpt lat="45.8622320" lon="9.2253990">
	<ele>928.80</ele>
	<time>2025-02-15T09:28:00.000Z</time>
</trkpt>
<trkpt lat="45.8622250" lon="9.2254030">
	<ele>929.00</ele>
	<time>2025-02-15T09:28:01.000Z</time>
</trkpt>
<trkpt lat="45.8622210" lon="9.2254050">
	<ele>929.00</ele>
	<time>2025-02-15T09:28:02.000Z</time>
</trkpt>
<trkpt lat="45.8622220" lon="9.2254110">
	<ele>929.20</ele>
	<time>2025-02-15T09:28:03.000Z</time>
</trkpt>
<trkpt lat="45.8622150" lon="9.2254190">
	<ele>929.00</ele>
	<time>2025-02-15T09:28:04.000Z</time>
</trkpt>
<trkpt lat="45.8621990" lon="9.2254220">
	<ele>929.20</ele>
	<time>2025-02-15T09:28:05.000Z</time>
</trkpt>
<trkpt lat="45.8621890" lon="9.2254210">
	<ele>929.20</ele>
	<time>2025-02-15T09:28:06.000Z</time>
</trkpt>
<trkpt lat="45.8621840" lon="9.2254260">
	<ele>929.40</ele>
	<time>2025-02-15T09:28:07.000Z</time>
</trkpt>
<trkpt lat="45.8621720" lon="9.2254310">
	<ele>929.60</ele>
	<time>2025-02-15T09:28:08.000Z</time>
</trkpt>
<trkpt lat="45.8621680" lon="9.2254340">
	<ele>929.80</ele>
	<time>2025-02-15T09:28:09.000Z</time>
</trkpt>
<trkpt lat="45.8621650" lon="9.2254390">
	<ele>930.00</ele>
	<time>2025-02-15T09:28:10.000Z</time>
</trkpt>
<trkpt lat="45.8621570" lon="9.2254460">
	<ele>930.20</ele>
	<time>2025-02-15T09:28:11.000Z</time>
</trkpt>
<trkpt lat="45.8621460" lon="9.2254530">
	<ele>930.20</ele>
	<time>2025-02-15T09:28:12.000Z</time>
</trkpt>
<trkpt lat="45.8621410" lon="9.2254590">
	<ele>930.20</ele>
	<time>2025-02-15T09:28:13.000Z</time>
</trkpt>
<trkpt lat="45.8621360" lon="9.2254650">
	<ele>930.40</ele>
	<time>2025-02-15T09:28:14.000Z</time>
</trkpt>
<trkpt lat="45.8621310" lon="9.2254640">
	<ele>930.40</ele>
	<time>2025-02-15T09:28:15.000Z</time>
</trkpt>
<trkpt lat="45.8621280" lon="9.2254650">
	<ele>930.40</ele>
	<time>2025-02-15T09:28:16.000Z</time>
</trkpt>
<trkpt lat="45.8621260" lon="9.2254640">
	<ele>930.60</ele>
	<time>2025-02-15T09:28:17.000Z</time>
</trkpt>
<trkpt lat="45.8621190" lon="9.2254640">
	<ele>930.80</ele>
	<time>2025-02-15T09:28:18.000Z</time>
</trkpt>
<trkpt lat="45.8621100" lon="9.2254700">
	<ele>931.20</ele>
	<time>2025-02-15T09:28:19.000Z</time>
</trkpt>
<trkpt lat="45.8621090" lon="9.2254740">
	<ele>931.20</ele>
	<time>2025-02-15T09:28:20.000Z</time>
</trkpt>
<trkpt lat="45.8621090" lon="9.2254770">
	<ele>931.40</ele>
	<time>2025-02-15T09:28:21.000Z</time>
</trkpt>
<trkpt lat="45.8621070" lon="9.2254820">
	<ele>931.40</ele>
	<time>2025-02-15T09:28:22.000Z</time>
</trkpt>
<trkpt lat="45.8621040" lon="9.2254870">
	<ele>931.60</ele>
	<time>2025-02-15T09:28:23.000Z</time>
</trkpt>
<trkpt lat="45.8620990" lon="9.2254920">
	<ele>931.60</ele>
	<time>2025-02-15T09:28:24.000Z</time>
</trkpt>
<trkpt lat="45.8620940" lon="9.2254950">
	<ele>931.80</ele>
	<time>2025-02-15T09:28:25.000Z</time>
</trkpt>
<trkpt lat="45.8620920" lon="9.2254980">
	<ele>932.00</ele>
	<time>2025-02-15T09:28:26.000Z</time>
</trkpt>
<trkpt lat="45.8620920" lon="9.2254970">
	<ele>932.20</ele>
	<time>2025-02-15T09:28:27.000Z</time>
</trkpt>
<trkpt lat="45.8620810" lon="9.2254970">
	<ele>932.20</ele>
	<time>2025-02-15T09:28:28.000Z</time>
</trkpt>
<trkpt lat="45.8620680" lon="9.2254950">
	<ele>932.40</ele>
	<time>2025-02-15T09:28:29.000Z</time>
</trkpt>
<trkpt lat="45.8620530" lon="9.2254990">
	<ele>932.40</ele>
	<time>2025-02-15T09:28:30.000Z</time>
</trkpt>
<trkpt lat="45.8620460" lon="9.2255020">
	<ele>932.60</ele>
	<time>2025-02-15T09:28:31.000Z</time>
</trkpt>
<trkpt lat="45.8620360" lon="9.2255060">
	<ele>933.00</ele>
	<time>2025-02-15T09:28:32.000Z</time>
</trkpt>
<trkpt lat="45.8620310" lon="9.2255050">
	<ele>933.20</ele>
	<time>2025-02-15T09:28:33.000Z</time>
</trkpt>
<trkpt lat="45.8620240" lon="9.2255040">
	<ele>933.40</ele>
	<time>2025-02-15T09:28:34.000Z</time>
</trkpt>
<trkpt lat="45.8620170" lon="9.2255070">
	<ele>933.60</ele>
	<time>2025-02-15T09:28:35.000Z</time>
</trkpt>
<trkpt lat="45.8620060" lon="9.2255080">
	<ele>933.60</ele>
	<time>2025-02-15T09:28:36.000Z</time>
</trkpt>
<trkpt lat="45.8620010" lon="9.2255090">
	<ele>933.60</ele>
	<time>2025-02-15T09:28:37.000Z</time>
</trkpt>
<trkpt lat="45.8619990" lon="9.2255110">
	<ele>933.60</ele>
	<time>2025-02-15T09:28:38.000Z</time>
</trkpt>
<trkpt lat="45.8619980" lon="9.2255120">
	<ele>933.80</ele>
	<time>2025-02-15T09:28:39.000Z</time>
</trkpt>
<trkpt lat="45.8619980" lon="9.2255110">
	<ele>934.00</ele>
	<time>2025-02-15T09:28:40.000Z</time>
</trkpt>
<trkpt lat="45.8619960" lon="9.2255100">
	<ele>934.40</ele>
	<time>2025-02-15T09:28:41.000Z</time>
</trkpt>
<trkpt lat="45.8619910" lon="9.2255060">
	<ele>934.60</ele>
	<time>2025-02-15T09:28:42.000Z</time>
</trkpt>
<trkpt lat="45.8619890" lon="9.2255070">
	<ele>934.60</ele>
	<time>2025-02-15T09:28:43.000Z</time>
</trkpt>
<trkpt lat="45.8619890" lon="9.2255080">
	<ele>934.60</ele>
	<time>2025-02-15T09:28:44.000Z</time>
</trkpt>
<trkpt lat="45.8619890" lon="9.2255090">
	<ele>934.80</ele>
	<time>2025-02-15T09:28:45.000Z</time>
</trkpt>
<trkpt lat="45.8619870" lon="9.2255110">
	<ele>934.80</ele>
	<time>2025-02-15T09:28:46.000Z</time>
</trkpt>
<trkpt lat="45.8619850" lon="9.2255140">
	<ele>935.00</ele>
	<time>2025-02-15T09:28:47.000Z</time>
</trkpt>
<trkpt lat="45.8619760" lon="9.2255180">
	<ele>935.40</ele>
	<time>2025-02-15T09:28:48.000Z</time>
</trkpt>
<trkpt lat="45.8619690" lon="9.2255170">
	<ele>935.80</ele>
	<time>2025-02-15T09:28:49.000Z</time>
</trkpt>
<trkpt lat="45.8619610" lon="9.2255220">
	<ele>935.80</ele>
	<time>2025-02-15T09:28:50.000Z</time>
</trkpt>
<trkpt lat="45.8619490" lon="9.2255220">
	<ele>936.00</ele>
	<time>2025-02-15T09:28:51.000Z</time>
</trkpt>
<trkpt lat="45.8619360" lon="9.2255290">
	<ele>936.20</ele>
	<time>2025-02-15T09:28:52.000Z</time>
</trkpt>
<trkpt lat="45.8619330" lon="9.2255300">
	<ele>936.20</ele>
	<time>2025-02-15T09:28:53.000Z</time>
</trkpt>
<trkpt lat="45.8619320" lon="9.2255360">
	<ele>936.40</ele>
	<time>2025-02-15T09:28:54.000Z</time>
</trkpt>
<trkpt lat="45.8619330" lon="9.2255400">
	<ele>936.60</ele>
	<time>2025-02-15T09:28:55.000Z</time>
</trkpt>
<trkpt lat="45.8619270" lon="9.2255420">
	<ele>936.80</ele>
	<time>2025-02-15T09:28:56.000Z</time>
</trkpt>
<trkpt lat="45.8619250" lon="9.2255440">
	<ele>937.00</ele>
	<time>2025-02-15T09:28:57.000Z</time>
</trkpt>
<trkpt lat="45.8619190" lon="9.2255410">
	<ele>937.00</ele>
	<time>2025-02-15T09:28:58.000Z</time>
</trkpt>
<trkpt lat="45.8619130" lon="9.2255400">
	<ele>937.20</ele>
	<time>2025-02-15T09:28:59.000Z</time>
</trkpt>
<trkpt lat="45.8619030" lon="9.2255450">
	<ele>937.20</ele>
	<time>2025-02-15T09:29:00.000Z</time>
</trkpt>
<trkpt lat="45.8618860" lon="9.2255490">
	<ele>937.40</ele>
	<time>2025-02-15T09:29:01.000Z</time>
</trkpt>
<trkpt lat="45.8618640" lon="9.2255520">
	<ele>937.60</ele>
	<time>2025-02-15T09:29:02.000Z</time>
</trkpt>
<trkpt lat="45.8618470" lon="9.2255580">
	<ele>937.60</ele>
	<time>2025-02-15T09:29:03.000Z</time>
</trkpt>
<trkpt lat="45.8618400" lon="9.2255620">
	<ele>937.60</ele>
	<time>2025-02-15T09:29:04.000Z</time>
</trkpt>
<trkpt lat="45.8618370" lon="9.2255620">
	<ele>937.80</ele>
	<time>2025-02-15T09:29:05.000Z</time>
</trkpt>
<trkpt lat="45.8618340" lon="9.2255630">
	<ele>938.00</ele>
	<time>2025-02-15T09:29:06.000Z</time>
</trkpt>
<trkpt lat="45.8618350" lon="9.2255680">
	<ele>938.00</ele>
	<time>2025-02-15T09:29:07.000Z</time>
</trkpt>
<trkpt lat="45.8618360" lon="9.2255710">
	<ele>938.20</ele>
	<time>2025-02-15T09:29:08.000Z</time>
</trkpt>
<trkpt lat="45.8618370" lon="9.2255730">
	<ele>938.40</ele>
	<time>2025-02-15T09:29:09.000Z</time>
</trkpt>
<trkpt lat="45.8618310" lon="9.2255770">
	<ele>938.60</ele>
	<time>2025-02-15T09:29:10.000Z</time>
</trkpt>
<trkpt lat="45.8618210" lon="9.2255840">
	<ele>938.80</ele>
	<time>2025-02-15T09:29:11.000Z</time>
</trkpt>
<trkpt lat="45.8618210" lon="9.2255880">
	<ele>938.80</ele>
	<time>2025-02-15T09:29:12.000Z</time>
</trkpt>
<trkpt lat="45.8618210" lon="9.2255900">
	<ele>938.80</ele>
	<time>2025-02-15T09:29:13.000Z</time>
</trkpt>
<trkpt lat="45.8618200" lon="9.2255900">
	<ele>939.00</ele>
	<time>2025-02-15T09:29:14.000Z</time>
</trkpt>
<trkpt lat="45.8618150" lon="9.2255860">
	<ele>939.00</ele>
	<time>2025-02-15T09:29:15.000Z</time>
</trkpt>
<trkpt lat="45.8618120" lon="9.2255800">
	<ele>939.00</ele>
	<time>2025-02-15T09:29:16.000Z</time>
</trkpt>
<trkpt lat="45.8618090" lon="9.2255770">
	<ele>939.00</ele>
	<time>2025-02-15T09:29:17.000Z</time>
</trkpt>
<trkpt lat="45.8618090" lon="9.2255790">
	<ele>939.20</ele>
	<time>2025-02-15T09:29:18.000Z</time>
</trkpt>
<trkpt lat="45.8618090" lon="9.2255810">
	<ele>939.20</ele>
	<time>2025-02-15T09:29:19.000Z</time>
</trkpt>
<trkpt lat="45.8618000" lon="9.2255870">
	<ele>939.20</ele>
	<time>2025-02-15T09:29:20.000Z</time>
</trkpt>
<trkpt lat="45.8617900" lon="9.2255920">
	<ele>939.40</ele>
	<time>2025-02-15T09:29:21.000Z</time>
</trkpt>
<trkpt lat="45.8617770" lon="9.2255960">
	<ele>939.40</ele>
	<time>2025-02-15T09:29:22.000Z</time>
</trkpt>
<trkpt lat="45.8617670" lon="9.2255930">
	<ele>939.60</ele>
	<time>2025-02-15T09:29:23.000Z</time>
</trkpt>
<trkpt lat="45.8617600" lon="9.2255880">
	<ele>939.80</ele>
	<time>2025-02-15T09:29:24.000Z</time>
</trkpt>
<trkpt lat="45.8617570" lon="9.2255850">
	<ele>940.20</ele>
	<time>2025-02-15T09:29:25.000Z</time>
</trkpt>
<trkpt lat="45.8617550" lon="9.2255810">
	<ele>940.40</ele>
	<time>2025-02-15T09:29:26.000Z</time>
</trkpt>
<trkpt lat="45.8617500" lon="9.2255800">
	<ele>940.40</ele>
	<time>2025-02-15T09:29:27.000Z</time>
</trkpt>
<trkpt lat="45.8617440" lon="9.2255740">
	<ele>940.40</ele>
	<time>2025-02-15T09:29:28.000Z</time>
</trkpt>
<trkpt lat="45.8617390" lon="9.2255660">
	<ele>940.60</ele>
	<time>2025-02-15T09:29:29.000Z</time>
</trkpt>
<trkpt lat="45.8617320" lon="9.2255610">
	<ele>940.60</ele>
	<time>2025-02-15T09:29:30.000Z</time>
</trkpt>
<trkpt lat="45.8617240" lon="9.2255540">
	<ele>940.60</ele>
	<time>2025-02-15T09:29:31.000Z</time>
</trkpt>
<trkpt lat="45.8617170" lon="9.2255460">
	<ele>940.60</ele>
	<time>2025-02-15T09:29:32.000Z</time>
</trkpt>
<trkpt lat="45.8617090" lon="9.2255410">
	<ele>940.80</ele>
	<time>2025-02-15T09:29:33.000Z</time>
</trkpt>
<trkpt lat="45.8617010" lon="9.2255390">
	<ele>940.80</ele>
	<time>2025-02-15T09:29:34.000Z</time>
</trkpt>
<trkpt lat="45.8616940" lon="9.2255310">
	<ele>940.80</ele>
	<time>2025-02-15T09:29:35.000Z</time>
</trkpt>
<trkpt lat="45.8616880" lon="9.2255260">
	<ele>941.00</ele>
	<time>2025-02-15T09:29:36.000Z</time>
</trkpt>
<trkpt lat="45.8616770" lon="9.2255230">
	<ele>941.00</ele>
	<time>2025-02-15T09:29:37.000Z</time>
</trkpt>
<trkpt lat="45.8616680" lon="9.2255180">
	<ele>941.20</ele>
	<time>2025-02-15T09:29:38.000Z</time>
</trkpt>
<trkpt lat="45.8616480" lon="9.2255230">
	<ele>941.40</ele>
	<time>2025-02-15T09:29:39.000Z</time>
</trkpt>
<trkpt lat="45.8616350" lon="9.2255200">
	<ele>941.60</ele>
	<time>2025-02-15T09:29:40.000Z</time>
</trkpt>
<trkpt lat="45.8616270" lon="9.2255160">
	<ele>941.60</ele>
	<time>2025-02-15T09:29:41.000Z</time>
</trkpt>
<trkpt lat="45.8616250" lon="9.2255110">
	<ele>941.80</ele>
	<time>2025-02-15T09:29:42.000Z</time>
</trkpt>
<trkpt lat="45.8616200" lon="9.2254950">
	<ele>942.00</ele>
	<time>2025-02-15T09:29:43.000Z</time>
</trkpt>
<trkpt lat="45.8616000" lon="9.2254830">
	<ele>942.20</ele>
	<time>2025-02-15T09:29:44.000Z</time>
</trkpt>
<trkpt lat="45.8615940" lon="9.2254660">
	<ele>942.20</ele>
	<time>2025-02-15T09:29:45.000Z</time>
</trkpt>
<trkpt lat="45.8615780" lon="9.2254630">
	<ele>942.20</ele>
	<time>2025-02-15T09:29:46.000Z</time>
</trkpt>
<trkpt lat="45.8615650" lon="9.2254640">
	<ele>942.20</ele>
	<time>2025-02-15T09:29:47.000Z</time>
</trkpt>
<trkpt lat="45.8615630" lon="9.2254610">
	<ele>942.40</ele>
	<time>2025-02-15T09:29:48.000Z</time>
</trkpt>
<trkpt lat="45.8615590" lon="9.2254510">
	<ele>942.60</ele>
	<time>2025-02-15T09:29:49.000Z</time>
</trkpt>
<trkpt lat="45.8615490" lon="9.2254480">
	<ele>942.60</ele>
	<time>2025-02-15T09:29:50.000Z</time>
</trkpt>
<trkpt lat="45.8615240" lon="9.2254400">
	<ele>942.80</ele>
	<time>2025-02-15T09:29:51.000Z</time>
</trkpt>
<trkpt lat="45.8615250" lon="9.2254310">
	<ele>942.80</ele>
	<time>2025-02-15T09:29:52.000Z</time>
</trkpt>
<trkpt lat="45.8615230" lon="9.2254180">
	<ele>943.00</ele>
	<time>2025-02-15T09:29:53.000Z</time>
</trkpt>
<trkpt lat="45.8615210" lon="9.2253970">
	<ele>943.00</ele>
	<time>2025-02-15T09:29:54.000Z</time>
</trkpt>
<trkpt lat="45.8615190" lon="9.2253900">
	<ele>943.00</ele>
	<time>2025-02-15T09:29:55.000Z</time>
</trkpt>
<trkpt lat="45.8615180" lon="9.2253840">
	<ele>943.20</ele>
	<time>2025-02-15T09:29:56.000Z</time>
</trkpt>
<trkpt lat="45.8615220" lon="9.2253660">
	<ele>943.20</ele>
	<time>2025-02-15T09:29:57.000Z</time>
</trkpt>
<trkpt lat="45.8615210" lon="9.2253590">
	<ele>943.20</ele>
	<time>2025-02-15T09:29:58.000Z</time>
</trkpt>
<trkpt lat="45.8615010" lon="9.2253620">
	<ele>943.40</ele>
	<time>2025-02-15T09:29:59.000Z</time>
</trkpt>
<trkpt lat="45.8614970" lon="9.2253550">
	<ele>943.60</ele>
	<time>2025-02-15T09:30:00.000Z</time>
</trkpt>
<trkpt lat="45.8614950" lon="9.2253500">
	<ele>943.80</ele>
	<time>2025-02-15T09:30:01.000Z</time>
</trkpt>
<trkpt lat="45.8614920" lon="9.2253460">
	<ele>944.00</ele>
	<time>2025-02-15T09:30:02.000Z</time>
</trkpt>
<trkpt lat="45.8614860" lon="9.2253270">
	<ele>944.00</ele>
	<time>2025-02-15T09:30:03.000Z</time>
</trkpt>
<trkpt lat="45.8614900" lon="9.2253040">
	<ele>944.00</ele>
	<time>2025-02-15T09:30:04.000Z</time>
</trkpt>
<trkpt lat="45.8614900" lon="9.2252970">
	<ele>944.20</ele>
	<time>2025-02-15T09:30:05.000Z</time>
</trkpt>
<trkpt lat="45.8614870" lon="9.2252960">
	<ele>944.20</ele>
	<time>2025-02-15T09:30:06.000Z</time>
</trkpt>
<trkpt lat="45.8614790" lon="9.2252930">
	<ele>944.60</ele>
	<time>2025-02-15T09:30:07.000Z</time>
</trkpt>
<trkpt lat="45.8614680" lon="9.2252950">
	<ele>944.80</ele>
	<time>2025-02-15T09:30:08.000Z</time>
</trkpt>
<trkpt lat="45.8614650" lon="9.2252940">
	<ele>944.80</ele>
	<time>2025-02-15T09:30:09.000Z</time>
</trkpt>
<trkpt lat="45.8614600" lon="9.2252900">
	<ele>945.00</ele>
	<time>2025-02-15T09:30:10.000Z</time>
</trkpt>
<trkpt lat="45.8614550" lon="9.2252920">
	<ele>945.00</ele>
	<time>2025-02-15T09:30:11.000Z</time>
</trkpt>
<trkpt lat="45.8614510" lon="9.2252840">
	<ele>945.20</ele>
	<time>2025-02-15T09:30:12.000Z</time>
</trkpt>
<trkpt lat="45.8614510" lon="9.2252730">
	<ele>945.20</ele>
	<time>2025-02-15T09:30:13.000Z</time>
</trkpt>
<trkpt lat="45.8614470" lon="9.2252660">
	<ele>945.20</ele>
	<time>2025-02-15T09:30:14.000Z</time>
</trkpt>
<trkpt lat="45.8614420" lon="9.2252610">
	<ele>945.40</ele>
	<time>2025-02-15T09:30:15.000Z</time>
</trkpt>
<trkpt lat="45.8614460" lon="9.2252560">
	<ele>945.40</ele>
	<time>2025-02-15T09:30:16.000Z</time>
</trkpt>
<trkpt lat="45.8614510" lon="9.2252480">
	<ele>945.60</ele>
	<time>2025-02-15T09:30:17.000Z</time>
</trkpt>
<trkpt lat="45.8614540" lon="9.2252270">
	<ele>945.80</ele>
	<time>2025-02-15T09:30:18.000Z</time>
</trkpt>
<trkpt lat="45.8614590" lon="9.2252060">
	<ele>945.80</ele>
	<time>2025-02-15T09:30:19.000Z</time>
</trkpt>
<trkpt lat="45.8614600" lon="9.2251990">
	<ele>946.00</ele>
	<time>2025-02-15T09:30:20.000Z</time>
</trkpt>
<trkpt lat="45.8614570" lon="9.2251910">
	<ele>946.00</ele>
	<time>2025-02-15T09:30:21.000Z</time>
</trkpt>
<trkpt lat="45.8614470" lon="9.2251850">
	<ele>946.20</ele>
	<time>2025-02-15T09:30:22.000Z</time>
</trkpt>
<trkpt lat="45.8614420" lon="9.2251800">
	<ele>946.40</ele>
	<time>2025-02-15T09:30:23.000Z</time>
</trkpt>
<trkpt lat="45.8614400" lon="9.2251770">
	<ele>946.80</ele>
	<time>2025-02-15T09:30:24.000Z</time>
</trkpt>
<trkpt lat="45.8614370" lon="9.2251760">
	<ele>947.00</ele>
	<time>2025-02-15T09:30:25.000Z</time>
</trkpt>
<trkpt lat="45.8614400" lon="9.2251670">
	<ele>947.00</ele>
	<time>2025-02-15T09:30:26.000Z</time>
</trkpt>
<trkpt lat="45.8614390" lon="9.2251580">
	<ele>947.20</ele>
	<time>2025-02-15T09:30:27.000Z</time>
</trkpt>
<trkpt lat="45.8614310" lon="9.2251490">
	<ele>947.40</ele>
	<time>2025-02-15T09:30:28.000Z</time>
</trkpt>
<trkpt lat="45.8614270" lon="9.2251450">
	<ele>947.40</ele>
	<time>2025-02-15T09:30:29.000Z</time>
</trkpt>
<trkpt lat="45.8614290" lon="9.2251340">
	<ele>947.60</ele>
	<time>2025-02-15T09:30:30.000Z</time>
</trkpt>
<trkpt lat="45.8614290" lon="9.2251290">
	<ele>947.60</ele>
	<time>2025-02-15T09:30:31.000Z</time>
</trkpt>
<trkpt lat="45.8614290" lon="9.2251270">
	<ele>947.60</ele>
	<time>2025-02-15T09:30:32.000Z</time>
</trkpt>
<trkpt lat="45.8614280" lon="9.2251270">
	<ele>947.80</ele>
	<time>2025-02-15T09:30:33.000Z</time>
</trkpt>
<trkpt lat="45.8614260" lon="9.2251150">
	<ele>948.00</ele>
	<time>2025-02-15T09:30:34.000Z</time>
</trkpt>
<trkpt lat="45.8614180" lon="9.2251080">
	<ele>948.20</ele>
	<time>2025-02-15T09:30:35.000Z</time>
</trkpt>
<trkpt lat="45.8614140" lon="9.2251080">
	<ele>948.40</ele>
	<time>2025-02-15T09:30:36.000Z</time>
</trkpt>
<trkpt lat="45.8614130" lon="9.2251050">
	<ele>948.60</ele>
	<time>2025-02-15T09:30:37.000Z</time>
</trkpt>
<trkpt lat="45.8614140" lon="9.2251000">
	<ele>948.80</ele>
	<time>2025-02-15T09:30:38.000Z</time>
</trkpt>
<trkpt lat="45.8614090" lon="9.2250920">
	<ele>948.80</ele>
	<time>2025-02-15T09:30:39.000Z</time>
</trkpt>
<trkpt lat="45.8614060" lon="9.2250840">
	<ele>949.00</ele>
	<time>2025-02-15T09:30:40.000Z</time>
</trkpt>
<trkpt lat="45.8614090" lon="9.2250740">
	<ele>949.20</ele>
	<time>2025-02-15T09:30:41.000Z</time>
</trkpt>
<trkpt lat="45.8614120" lon="9.2250660">
	<ele>949.20</ele>
	<time>2025-02-15T09:30:42.000Z</time>
</trkpt>
<trkpt lat="45.8614170" lon="9.2250570">
	<ele>949.40</ele>
	<time>2025-02-15T09:30:43.000Z</time>
</trkpt>
<trkpt lat="45.8614170" lon="9.2250490">
	<ele>949.40</ele>
	<time>2025-02-15T09:30:44.000Z</time>
</trkpt>
<trkpt lat="45.8614160" lon="9.2250400">
	<ele>949.40</ele>
	<time>2025-02-15T09:30:45.000Z</time>
</trkpt>
<trkpt lat="45.8614180" lon="9.2250310">
	<ele>949.80</ele>
	<time>2025-02-15T09:30:46.000Z</time>
</trkpt>
<trkpt lat="45.8614200" lon="9.2250270">
	<ele>950.00</ele>
	<time>2025-02-15T09:30:47.000Z</time>
</trkpt>
<trkpt lat="45.8614200" lon="9.2250230">
	<ele>950.00</ele>
	<time>2025-02-15T09:30:48.000Z</time>
</trkpt>
<trkpt lat="45.8614210" lon="9.2250180">
	<ele>950.20</ele>
	<time>2025-02-15T09:30:49.000Z</time>
</trkpt>
<trkpt lat="45.8614190" lon="9.2250150">
	<ele>950.40</ele>
	<time>2025-02-15T09:30:50.000Z</time>
</trkpt>
<trkpt lat="45.8614170" lon="9.2250050">
	<ele>950.60</ele>
	<time>2025-02-15T09:30:51.000Z</time>
</trkpt>
<trkpt lat="45.8614160" lon="9.2249930">
	<ele>950.60</ele>
	<time>2025-02-15T09:30:52.000Z</time>
</trkpt>
<trkpt lat="45.8614140" lon="9.2249870">
	<ele>950.80</ele>
	<time>2025-02-15T09:30:53.000Z</time>
</trkpt>
<trkpt lat="45.8614070" lon="9.2249810">
	<ele>950.80</ele>
	<time>2025-02-15T09:30:54.000Z</time>
</trkpt>
<trkpt lat="45.8614060" lon="9.2249640">
	<ele>951.00</ele>
	<time>2025-02-15T09:30:55.000Z</time>
</trkpt>
<trkpt lat="45.8614080" lon="9.2249490">
	<ele>951.00</ele>
	<time>2025-02-15T09:30:56.000Z</time>
</trkpt>
<trkpt lat="45.8614050" lon="9.2249380">
	<ele>951.20</ele>
	<time>2025-02-15T09:30:57.000Z</time>
</trkpt>
<trkpt lat="45.8614010" lon="9.2249330">
	<ele>951.20</ele>
	<time>2025-02-15T09:30:58.000Z</time>
</trkpt>
<trkpt lat="45.8614000" lon="9.2249260">
	<ele>951.20</ele>
	<time>2025-02-15T09:30:59.000Z</time>
</trkpt>
<trkpt lat="45.8613990" lon="9.2249180">
	<ele>951.20</ele>
	<time>2025-02-15T09:31:00.000Z</time>
</trkpt>
<trkpt lat="45.8614020" lon="9.2249100">
	<ele>951.40</ele>
	<time>2025-02-15T09:31:01.000Z</time>
</trkpt>
<trkpt lat="45.8614000" lon="9.2249110">
	<ele>951.60</ele>
	<time>2025-02-15T09:31:02.000Z</time>
</trkpt>
<trkpt lat="45.8613980" lon="9.2249030">
	<ele>951.80</ele>
	<time>2025-02-15T09:31:03.000Z</time>
</trkpt>
<trkpt lat="45.8613960" lon="9.2248910">
	<ele>951.80</ele>
	<time>2025-02-15T09:31:04.000Z</time>
</trkpt>
<trkpt lat="45.8613970" lon="9.2248780">
	<ele>952.00</ele>
	<time>2025-02-15T09:31:05.000Z</time>
</trkpt>
<trkpt lat="45.8613970" lon="9.2248670">
	<ele>952.00</ele>
	<time>2025-02-15T09:31:06.000Z</time>
</trkpt>
<trkpt lat="45.8613980" lon="9.2248560">
	<ele>952.20</ele>
	<time>2025-02-15T09:31:07.000Z</time>
</trkpt>
<trkpt lat="45.8613960" lon="9.2248420">
	<ele>952.20</ele>
	<time>2025-02-15T09:31:08.000Z</time>
</trkpt>
<trkpt lat="45.8613950" lon="9.2248260">
	<ele>952.40</ele>
	<time>2025-02-15T09:31:09.000Z</time>
</trkpt>
<trkpt lat="45.8614010" lon="9.2248100">
	<ele>952.40</ele>
	<time>2025-02-15T09:31:10.000Z</time>
</trkpt>
<trkpt lat="45.8614040" lon="9.2247960">
	<ele>952.60</ele>
	<time>2025-02-15T09:31:11.000Z</time>
</trkpt>
<trkpt lat="45.8614080" lon="9.2247850">
	<ele>952.60</ele>
	<time>2025-02-15T09:31:12.000Z</time>
</trkpt>
<trkpt lat="45.8614110" lon="9.2247770">
	<ele>952.80</ele>
	<time>2025-02-15T09:31:13.000Z</time>
</trkpt>
<trkpt lat="45.8614080" lon="9.2247740">
	<ele>953.00</ele>
	<time>2025-02-15T09:31:14.000Z</time>
</trkpt>
<trkpt lat="45.8614160" lon="9.2247630">
	<ele>953.20</ele>
	<time>2025-02-15T09:31:15.000Z</time>
</trkpt>
<trkpt lat="45.8614200" lon="9.2247580">
	<ele>953.40</ele>
	<time>2025-02-15T09:31:16.000Z</time>
</trkpt>
<trkpt lat="45.8614270" lon="9.2247390">
	<ele>953.40</ele>
	<time>2025-02-15T09:31:17.000Z</time>
</trkpt>
<trkpt lat="45.8614300" lon="9.2247350">
	<ele>953.60</ele>
	<time>2025-02-15T09:31:18.000Z</time>
</trkpt>
<trkpt lat="45.8614220" lon="9.2247310">
	<ele>953.60</ele>
	<time>2025-02-15T09:31:19.000Z</time>
</trkpt>
<trkpt lat="45.8614280" lon="9.2247250">
	<ele>953.80</ele>
	<time>2025-02-15T09:31:20.000Z</time>
</trkpt>
<trkpt lat="45.8614340" lon="9.2247150">
	<ele>953.80</ele>
	<time>2025-02-15T09:31:21.000Z</time>
</trkpt>
<trkpt lat="45.8614280" lon="9.2247030">
	<ele>954.00</ele>
	<time>2025-02-15T09:31:22.000Z</time>
</trkpt>
<trkpt lat="45.8614190" lon="9.2246930">
	<ele>954.20</ele>
	<time>2025-02-15T09:31:23.000Z</time>
</trkpt>
<trkpt lat="45.8614140" lon="9.2246810">
	<ele>954.40</ele>
	<time>2025-02-15T09:31:24.000Z</time>
</trkpt>
<trkpt lat="45.8614190" lon="9.2246720">
	<ele>954.60</ele>
	<time>2025-02-15T09:31:25.000Z</time>
</trkpt>
<trkpt lat="45.8614270" lon="9.2246590">
	<ele>954.60</ele>
	<time>2025-02-15T09:31:26.000Z</time>
</trkpt>
<trkpt lat="45.8614310" lon="9.2246460">
	<ele>954.80</ele>
	<time>2025-02-15T09:31:27.000Z</time>
</trkpt>
<trkpt lat="45.8614280" lon="9.2246330">
	<ele>954.80</ele>
	<time>2025-02-15T09:31:28.000Z</time>
</trkpt>
<trkpt lat="45.8614280" lon="9.2246270">
	<ele>954.80</ele>
	<time>2025-02-15T09:31:29.000Z</time>
</trkpt>
<trkpt lat="45.8614260" lon="9.2246200">
	<ele>954.80</ele>
	<time>2025-02-15T09:31:30.000Z</time>
</trkpt>
<trkpt lat="45.8614240" lon="9.2246120">
	<ele>954.80</ele>
	<time>2025-02-15T09:31:31.000Z</time>
</trkpt>
<trkpt lat="45.8614280" lon="9.2245980">
	<ele>955.20</ele>
	<time>2025-02-15T09:31:32.000Z</time>
</trkpt>
<trkpt lat="45.8614300" lon="9.2245860">
	<ele>955.20</ele>
	<time>2025-02-15T09:31:33.000Z</time>
</trkpt>
<trkpt lat="45.8614270" lon="9.2245780">
	<ele>955.60</ele>
	<time>2025-02-15T09:31:34.000Z</time>
</trkpt>
<trkpt lat="45.8614260" lon="9.2245710">
	<ele>955.80</ele>
	<time>2025-02-15T09:31:35.000Z</time>
</trkpt>
<trkpt lat="45.8614310" lon="9.2245610">
	<ele>955.80</ele>
	<time>2025-02-15T09:31:36.000Z</time>
</trkpt>
<trkpt lat="45.8614320" lon="9.2245530">
	<ele>956.20</ele>
	<time>2025-02-15T09:31:37.000Z</time>
</trkpt>
<trkpt lat="45.8614340" lon="9.2245360">
	<ele>956.60</ele>
	<time>2025-02-15T09:31:38.000Z</time>
</trkpt>
<trkpt lat="45.8614250" lon="9.2245250">
	<ele>956.60</ele>
	<time>2025-02-15T09:31:39.000Z</time>
</trkpt>
<trkpt lat="45.8614200" lon="9.2245130">
	<ele>956.80</ele>
	<time>2025-02-15T09:31:40.000Z</time>
</trkpt>
<trkpt lat="45.8614190" lon="9.2245030">
	<ele>956.80</ele>
	<time>2025-02-15T09:31:41.000Z</time>
</trkpt>
<trkpt lat="45.8614160" lon="9.2244890">
	<ele>956.80</ele>
	<time>2025-02-15T09:31:42.000Z</time>
</trkpt>
<trkpt lat="45.8614170" lon="9.2244780">
	<ele>957.00</ele>
	<time>2025-02-15T09:31:43.000Z</time>
</trkpt>
<trkpt lat="45.8614210" lon="9.2244650">
	<ele>957.20</ele>
	<time>2025-02-15T09:31:44.000Z</time>
</trkpt>
<trkpt lat="45.8614270" lon="9.2244570">
	<ele>957.00</ele>
	<time>2025-02-15T09:31:45.000Z</time>
</trkpt>
<trkpt lat="45.8614420" lon="9.2244410">
	<ele>957.20</ele>
	<time>2025-02-15T09:31:46.000Z</time>
</trkpt>
<trkpt lat="45.8614480" lon="9.2244280">
	<ele>957.40</ele>
	<time>2025-02-15T09:31:47.000Z</time>
</trkpt>
<trkpt lat="45.8614540" lon="9.2244170">
	<ele>957.60</ele>
	<time>2025-02-15T09:31:48.000Z</time>
</trkpt>
<trkpt lat="45.8614520" lon="9.2244170">
	<ele>957.60</ele>
	<time>2025-02-15T09:31:49.000Z</time>
</trkpt>
<trkpt lat="45.8614440" lon="9.2244210">
	<ele>957.80</ele>
	<time>2025-02-15T09:31:50.000Z</time>
</trkpt>
<trkpt lat="45.8614340" lon="9.2244180">
	<ele>957.80</ele>
	<time>2025-02-15T09:31:51.000Z</time>
</trkpt>
<trkpt lat="45.8614320" lon="9.2244120">
	<ele>958.00</ele>
	<time>2025-02-15T09:31:52.000Z</time>
</trkpt>
<trkpt lat="45.8614390" lon="9.2244020">
	<ele>958.20</ele>
	<time>2025-02-15T09:31:53.000Z</time>
</trkpt>
<trkpt lat="45.8614440" lon="9.2243890">
	<ele>958.20</ele>
	<time>2025-02-15T09:31:54.000Z</time>
</trkpt>
<trkpt lat="45.8614430" lon="9.2243830">
	<ele>958.60</ele>
	<time>2025-02-15T09:31:55.000Z</time>
</trkpt>
<trkpt lat="45.8614310" lon="9.2243750">
	<ele>958.60</ele>
	<time>2025-02-15T09:31:56.000Z</time>
</trkpt>
<trkpt lat="45.8614260" lon="9.2243710">
	<ele>958.80</ele>
	<time>2025-02-15T09:31:57.000Z</time>
</trkpt>
<trkpt lat="45.8614270" lon="9.2243680">
	<ele>958.80</ele>
	<time>2025-02-15T09:31:58.000Z</time>
</trkpt>
<trkpt lat="45.8614240" lon="9.2243510">
	<ele>958.80</ele>
	<time>2025-02-15T09:31:59.000Z</time>
</trkpt>
<trkpt lat="45.8614200" lon="9.2243400">
	<ele>958.80</ele>
	<time>2025-02-15T09:32:00.000Z</time>
</trkpt>
<trkpt lat="45.8614220" lon="9.2243330">
	<ele>959.00</ele>
	<time>2025-02-15T09:32:01.000Z</time>
</trkpt>
<trkpt lat="45.8614270" lon="9.2243230">
	<ele>959.00</ele>
	<time>2025-02-15T09:32:02.000Z</time>
</trkpt>
<trkpt lat="45.8614300" lon="9.2243070">
	<ele>959.00</ele>
	<time>2025-02-15T09:32:03.000Z</time>
</trkpt>
<trkpt lat="45.8614330" lon="9.2242920">
	<ele>959.20</ele>
	<time>2025-02-15T09:32:04.000Z</time>
</trkpt>
<trkpt lat="45.8614380" lon="9.2242840">
	<ele>959.20</ele>
	<time>2025-02-15T09:32:05.000Z</time>
</trkpt>
<trkpt lat="45.8614360" lon="9.2242800">
	<ele>959.40</ele>
	<time>2025-02-15T09:32:06.000Z</time>
</trkpt>
<trkpt lat="45.8614320" lon="9.2242760">
	<ele>959.60</ele>
	<time>2025-02-15T09:32:07.000Z</time>
</trkpt>
<trkpt lat="45.8614300" lon="9.2242690">
	<ele>959.80</ele>
	<time>2025-02-15T09:32:08.000Z</time>
</trkpt>
<trkpt lat="45.8614280" lon="9.2242640">
	<ele>959.80</ele>
	<time>2025-02-15T09:32:09.000Z</time>
</trkpt>
<trkpt lat="45.8614280" lon="9.2242580">
	<ele>960.00</ele>
	<time>2025-02-15T09:32:10.000Z</time>
</trkpt>
<trkpt lat="45.8614290" lon="9.2242480">
	<ele>960.00</ele>
	<time>2025-02-15T09:32:11.000Z</time>
</trkpt>
<trkpt lat="45.8614280" lon="9.2242400">
	<ele>960.20</ele>
	<time>2025-02-15T09:32:12.000Z</time>
</trkpt>
<trkpt lat="45.8614330" lon="9.2242320">
	<ele>960.20</ele>
	<time>2025-02-15T09:32:13.000Z</time>
</trkpt>
<trkpt lat="45.8614330" lon="9.2242220">
	<ele>960.40</ele>
	<time>2025-02-15T09:32:14.000Z</time>
</trkpt>
<trkpt lat="45.8614370" lon="9.2242140">
	<ele>960.60</ele>
	<time>2025-02-15T09:32:15.000Z</time>
</trkpt>
<trkpt lat="45.8614380" lon="9.2242040">
	<ele>960.60</ele>
	<time>2025-02-15T09:32:16.000Z</time>
</trkpt>
<trkpt lat="45.8614390" lon="9.2241970">
	<ele>960.80</ele>
	<time>2025-02-15T09:32:17.000Z</time>
</trkpt>
<trkpt lat="45.8614360" lon="9.2241930">
	<ele>961.00</ele>
	<time>2025-02-15T09:32:18.000Z</time>
</trkpt>
<trkpt lat="45.8614400" lon="9.2241820">
	<ele>961.20</ele>
	<time>2025-02-15T09:32:19.000Z</time>
</trkpt>
<trkpt lat="45.8614420" lon="9.2241740">
	<ele>961.40</ele>
	<time>2025-02-15T09:32:20.000Z</time>
</trkpt>
<trkpt lat="45.8614430" lon="9.2241630">
	<ele>961.40</ele>
	<time>2025-02-15T09:32:21.000Z</time>
</trkpt>
<trkpt lat="45.8614400" lon="9.2241570">
	<ele>961.60</ele>
	<time>2025-02-15T09:32:22.000Z</time>
</trkpt>
<trkpt lat="45.8614380" lon="9.2241510">
	<ele>961.80</ele>
	<time>2025-02-15T09:32:23.000Z</time>
</trkpt>
<trkpt lat="45.8614410" lon="9.2241420">
	<ele>961.80</ele>
	<time>2025-02-15T09:32:24.000Z</time>
</trkpt>
<trkpt lat="45.8614450" lon="9.2241320">
	<ele>962.00</ele>
	<time>2025-02-15T09:32:25.000Z</time>
</trkpt>
<trkpt lat="45.8614460" lon="9.2241260">
	<ele>962.00</ele>
	<time>2025-02-15T09:32:26.000Z</time>
</trkpt>
<trkpt lat="45.8614430" lon="9.2241190">
	<ele>962.00</ele>
	<time>2025-02-15T09:32:27.000Z</time>
</trkpt>
<trkpt lat="45.8614420" lon="9.2241140">
	<ele>962.00</ele>
	<time>2025-02-15T09:32:28.000Z</time>
</trkpt>
<trkpt lat="45.8614400" lon="9.2241070">
	<ele>962.40</ele>
	<time>2025-02-15T09:32:29.000Z</time>
</trkpt>
<trkpt lat="45.8614330" lon="9.2240970">
	<ele>962.40</ele>
	<time>2025-02-15T09:32:30.000Z</time>
</trkpt>
<trkpt lat="45.8614300" lon="9.2240860">
	<ele>962.60</ele>
	<time>2025-02-15T09:32:31.000Z</time>
</trkpt>
<trkpt lat="45.8614260" lon="9.2240740">
	<ele>962.60</ele>
	<time>2025-02-15T09:32:32.000Z</time>
</trkpt>
<trkpt lat="45.8614210" lon="9.2240610">
	<ele>962.60</ele>
	<time>2025-02-15T09:32:33.000Z</time>
</trkpt>
<trkpt lat="45.8614200" lon="9.2240470">
	<ele>962.60</ele>
	<time>2025-02-15T09:32:34.000Z</time>
</trkpt>
<trkpt lat="45.8614180" lon="9.2240290">
	<ele>962.80</ele>
	<time>2025-02-15T09:32:35.000Z</time>
</trkpt>
<trkpt lat="45.8614230" lon="9.2240080">
	<ele>963.00</ele>
	<time>2025-02-15T09:32:36.000Z</time>
</trkpt>
<trkpt lat="45.8614250" lon="9.2239870">
	<ele>963.40</ele>
	<time>2025-02-15T09:32:37.000Z</time>
</trkpt>
<trkpt lat="45.8614280" lon="9.2239730">
	<ele>963.60</ele>
	<time>2025-02-15T09:32:38.000Z</time>
</trkpt>
<trkpt lat="45.8614320" lon="9.2239610">
	<ele>963.80</ele>
	<time>2025-02-15T09:32:39.000Z</time>
</trkpt>
<trkpt lat="45.8614340" lon="9.2239530">
	<ele>963.80</ele>
	<time>2025-02-15T09:32:40.000Z</time>
</trkpt>
<trkpt lat="45.8614320" lon="9.2239460">
	<ele>964.00</ele>
	<time>2025-02-15T09:32:41.000Z</time>
</trkpt>
<trkpt lat="45.8614370" lon="9.2239330">
	<ele>964.00</ele>
	<time>2025-02-15T09:32:42.000Z</time>
</trkpt>
<trkpt lat="45.8614330" lon="9.2239230">
	<ele>964.20</ele>
	<time>2025-02-15T09:32:43.000Z</time>
</trkpt>
<trkpt lat="45.8614330" lon="9.2239140">
	<ele>964.20</ele>
	<time>2025-02-15T09:32:44.000Z</time>
</trkpt>
<trkpt lat="45.8614310" lon="9.2239040">
	<ele>964.20</ele>
	<time>2025-02-15T09:32:45.000Z</time>
</trkpt>
<trkpt lat="45.8614290" lon="9.2238930">
	<ele>964.40</ele>
	<time>2025-02-15T09:32:46.000Z</time>
</trkpt>
<trkpt lat="45.8614250" lon="9.2238790">
	<ele>964.40</ele>
	<time>2025-02-15T09:32:47.000Z</time>
</trkpt>
<trkpt lat="45.8614220" lon="9.2238710">
	<ele>964.60</ele>
	<time>2025-02-15T09:32:48.000Z</time>
</trkpt>
<trkpt lat="45.8614130" lon="9.2238600">
	<ele>964.60</ele>
	<time>2025-02-15T09:32:49.000Z</time>
</trkpt>
<trkpt lat="45.8614070" lon="9.2238480">
	<ele>964.80</ele>
	<time>2025-02-15T09:32:50.000Z</time>
</trkpt>
<trkpt lat="45.8614100" lon="9.2238330">
	<ele>965.00</ele>
	<time>2025-02-15T09:32:51.000Z</time>
</trkpt>
<trkpt lat="45.8614240" lon="9.2238170">
	<ele>965.00</ele>
	<time>2025-02-15T09:32:52.000Z</time>
</trkpt>
<trkpt lat="45.8614250" lon="9.2238050">
	<ele>965.20</ele>
	<time>2025-02-15T09:32:53.000Z</time>
</trkpt>
<trkpt lat="45.8614240" lon="9.2237980">
	<ele>965.40</ele>
	<time>2025-02-15T09:32:54.000Z</time>
</trkpt>
<trkpt lat="45.8614300" lon="9.2237820">
	<ele>965.40</ele>
	<time>2025-02-15T09:32:55.000Z</time>
</trkpt>
<trkpt lat="45.8614340" lon="9.2237700">
	<ele>965.40</ele>
	<time>2025-02-15T09:32:56.000Z</time>
</trkpt>
<trkpt lat="45.8614320" lon="9.2237600">
	<ele>965.40</ele>
	<time>2025-02-15T09:32:57.000Z</time>
</trkpt>
<trkpt lat="45.8614330" lon="9.2237520">
	<ele>965.60</ele>
	<time>2025-02-15T09:32:58.000Z</time>
</trkpt>
<trkpt lat="45.8614340" lon="9.2237450">
	<ele>966.00</ele>
	<time>2025-02-15T09:32:59.000Z</time>
</trkpt>
<trkpt lat="45.8614330" lon="9.2237400">
	<ele>966.20</ele>
	<time>2025-02-15T09:33:00.000Z</time>
</trkpt>
<trkpt lat="45.8614320" lon="9.2237350">
	<ele>966.20</ele>
	<time>2025-02-15T09:33:01.000Z</time>
</trkpt>
<trkpt lat="45.8614290" lon="9.2237310">
	<ele>966.40</ele>
	<time>2025-02-15T09:33:02.000Z</time>
</trkpt>
<trkpt lat="45.8614270" lon="9.2237250">
	<ele>966.40</ele>
	<time>2025-02-15T09:33:03.000Z</time>
</trkpt>
<trkpt lat="45.8614250" lon="9.2237190">
	<ele>966.40</ele>
	<time>2025-02-15T09:33:04.000Z</time>
</trkpt>
<trkpt lat="45.8614280" lon="9.2237090">
	<ele>966.40</ele>
	<time>2025-02-15T09:33:05.000Z</time>
</trkpt>
<trkpt lat="45.8614300" lon="9.2236970">
	<ele>966.60</ele>
	<time>2025-02-15T09:33:06.000Z</time>
</trkpt>
<trkpt lat="45.8614280" lon="9.2236950">
	<ele>966.60</ele>
	<time>2025-02-15T09:33:07.000Z</time>
</trkpt>
<trkpt lat="45.8614270" lon="9.2236920">
	<ele>967.00</ele>
	<time>2025-02-15T09:33:08.000Z</time>
</trkpt>
<trkpt lat="45.8614340" lon="9.2236860">
	<ele>967.00</ele>
	<time>2025-02-15T09:33:09.000Z</time>
</trkpt>
<trkpt lat="45.8614350" lon="9.2236770">
	<ele>967.20</ele>
	<time>2025-02-15T09:33:10.000Z</time>
</trkpt>
<trkpt lat="45.8614320" lon="9.2236760">
	<ele>967.20</ele>
	<time>2025-02-15T09:33:11.000Z</time>
</trkpt>
<trkpt lat="45.8614360" lon="9.2236690">
	<ele>967.40</ele>
	<time>2025-02-15T09:33:12.000Z</time>
</trkpt>
<trkpt lat="45.8614340" lon="9.2236610">
	<ele>967.40</ele>
	<time>2025-02-15T09:33:13.000Z</time>
</trkpt>
<trkpt lat="45.8614360" lon="9.2236530">
	<ele>967.40</ele>
	<time>2025-02-15T09:33:14.000Z</time>
</trkpt>
<trkpt lat="45.8614380" lon="9.2236480">
	<ele>967.60</ele>
	<time>2025-02-15T09:33:15.000Z</time>
</trkpt>
<trkpt lat="45.8614370" lon="9.2236380">
	<ele>967.80</ele>
	<time>2025-02-15T09:33:16.000Z</time>
</trkpt>
<trkpt lat="45.8614300" lon="9.2236280">
	<ele>968.00</ele>
	<time>2025-02-15T09:33:17.000Z</time>
</trkpt>
<trkpt lat="45.8614160" lon="9.2236180">
	<ele>968.00</ele>
	<time>2025-02-15T09:33:18.000Z</time>
</trkpt>
<trkpt lat="45.8614030" lon="9.2236190">
	<ele>968.20</ele>
	<time>2025-02-15T09:33:19.000Z</time>
</trkpt>
<trkpt lat="45.8613940" lon="9.2236210">
	<ele>968.20</ele>
	<time>2025-02-15T09:33:20.000Z</time>
</trkpt>
<trkpt lat="45.8613910" lon="9.2236080">
	<ele>968.40</ele>
	<time>2025-02-15T09:33:21.000Z</time>
</trkpt>
<trkpt lat="45.8613890" lon="9.2235880">
	<ele>968.40</ele>
	<time>2025-02-15T09:33:22.000Z</time>
</trkpt>
<trkpt lat="45.8613760" lon="9.2235660">
	<ele>968.60</ele>
	<time>2025-02-15T09:33:23.000Z</time>
</trkpt>
<trkpt lat="45.8613620" lon="9.2235590">
	<ele>968.80</ele>
	<time>2025-02-15T09:33:24.000Z</time>
</trkpt>
<trkpt lat="45.8613570" lon="9.2235460">
	<ele>968.80</ele>
	<time>2025-02-15T09:33:25.000Z</time>
</trkpt>
<trkpt lat="45.8613500" lon="9.2235310">
	<ele>969.20</ele>
	<time>2025-02-15T09:33:26.000Z</time>
</trkpt>
<trkpt lat="45.8613430" lon="9.2235150">
	<ele>969.40</ele>
	<time>2025-02-15T09:33:27.000Z</time>
</trkpt>
<trkpt lat="45.8613420" lon="9.2234960">
	<ele>969.40</ele>
	<time>2025-02-15T09:33:28.000Z</time>
</trkpt>
<trkpt lat="45.8613400" lon="9.2234820">
	<ele>969.40</ele>
	<time>2025-02-15T09:33:29.000Z</time>
</trkpt>
<trkpt lat="45.8613450" lon="9.2234660">
	<ele>969.40</ele>
	<time>2025-02-15T09:33:30.000Z</time>
</trkpt>
<trkpt lat="45.8613500" lon="9.2234460">
	<ele>969.60</ele>
	<time>2025-02-15T09:33:31.000Z</time>
</trkpt>
<trkpt lat="45.8613410" lon="9.2234450">
	<ele>969.80</ele>
	<time>2025-02-15T09:33:32.000Z</time>
</trkpt>
<trkpt lat="45.8613430" lon="9.2234360">
	<ele>970.00</ele>
	<time>2025-02-15T09:33:33.000Z</time>
</trkpt>
<trkpt lat="45.8613360" lon="9.2234290">
	<ele>970.20</ele>
	<time>2025-02-15T09:33:34.000Z</time>
</trkpt>
<trkpt lat="45.8613430" lon="9.2234190">
	<ele>970.20</ele>
	<time>2025-02-15T09:33:35.000Z</time>
</trkpt>
<trkpt lat="45.8613480" lon="9.2234040">
	<ele>970.40</ele>
	<time>2025-02-15T09:33:36.000Z</time>
</trkpt>
<trkpt lat="45.8613460" lon="9.2233980">
	<ele>970.60</ele>
	<time>2025-02-15T09:33:37.000Z</time>
</trkpt>
<trkpt lat="45.8613360" lon="9.2233950">
	<ele>970.80</ele>
	<time>2025-02-15T09:33:38.000Z</time>
</trkpt>
<trkpt lat="45.8613260" lon="9.2233890">
	<ele>971.00</ele>
	<time>2025-02-15T09:33:39.000Z</time>
</trkpt>
<trkpt lat="45.8613050" lon="9.2233850">
	<ele>971.00</ele>
	<time>2025-02-15T09:33:40.000Z</time>
</trkpt>
<trkpt lat="45.8612950" lon="9.2233820">
	<ele>971.20</ele>
	<time>2025-02-15T09:33:41.000Z</time>
</trkpt>
<trkpt lat="45.8612860" lon="9.2233850">
	<ele>971.20</ele>
	<time>2025-02-15T09:33:42.000Z</time>
</trkpt>
<trkpt lat="45.8612840" lon="9.2233820">
	<ele>971.40</ele>
	<time>2025-02-15T09:33:43.000Z</time>
</trkpt>
<trkpt lat="45.8612820" lon="9.2233730">
	<ele>971.40</ele>
	<time>2025-02-15T09:33:44.000Z</time>
</trkpt>
<trkpt lat="45.8612750" lon="9.2233670">
	<ele>971.60</ele>
	<time>2025-02-15T09:33:45.000Z</time>
</trkpt>
<trkpt lat="45.8612660" lon="9.2233600">
	<ele>971.80</ele>
	<time>2025-02-15T09:33:46.000Z</time>
</trkpt>
<trkpt lat="45.8612600" lon="9.2233550">
	<ele>971.80</ele>
	<time>2025-02-15T09:33:47.000Z</time>
</trkpt>
<trkpt lat="45.8612560" lon="9.2233530">
	<ele>972.00</ele>
	<time>2025-02-15T09:33:48.000Z</time>
</trkpt>
<trkpt lat="45.8612550" lon="9.2233480">
	<ele>972.20</ele>
	<time>2025-02-15T09:33:49.000Z</time>
</trkpt>
<trkpt lat="45.8612440" lon="9.2233430">
	<ele>972.60</ele>
	<time>2025-02-15T09:33:50.000Z</time>
</trkpt>
<trkpt lat="45.8612430" lon="9.2233280">
	<ele>972.80</ele>
	<time>2025-02-15T09:33:51.000Z</time>
</trkpt>
<trkpt lat="45.8612430" lon="9.2233210">
	<ele>972.80</ele>
	<time>2025-02-15T09:33:52.000Z</time>
</trkpt>
<trkpt lat="45.8612350" lon="9.2233180">
	<ele>973.00</ele>
	<time>2025-02-15T09:33:53.000Z</time>
</trkpt>
<trkpt lat="45.8612340" lon="9.2233100">
	<ele>973.00</ele>
	<time>2025-02-15T09:33:54.000Z</time>
</trkpt>
<trkpt lat="45.8612300" lon="9.2233040">
	<ele>973.20</ele>
	<time>2025-02-15T09:33:55.000Z</time>
</trkpt>
<trkpt lat="45.8612240" lon="9.2233020">
	<ele>973.20</ele>
	<time>2025-02-15T09:33:56.000Z</time>
</trkpt>
<trkpt lat="45.8612150" lon="9.2233010">
	<ele>973.40</ele>
	<time>2025-02-15T09:33:57.000Z</time>
</trkpt>
<trkpt lat="45.8612050" lon="9.2233020">
	<ele>973.40</ele>
	<time>2025-02-15T09:33:58.000Z</time>
</trkpt>
<trkpt lat="45.8611990" lon="9.2233010">
	<ele>973.40</ele>
	<time>2025-02-15T09:33:59.000Z</time>
</trkpt>
<trkpt lat="45.8611910" lon="9.2233010">
	<ele>973.60</ele>
	<time>2025-02-15T09:34:00.000Z</time>
</trkpt>
<trkpt lat="45.8611860" lon="9.2232980">
	<ele>973.80</ele>
	<time>2025-02-15T09:34:01.000Z</time>
</trkpt>
<trkpt lat="45.8611700" lon="9.2233000">
	<ele>973.80</ele>
	<time>2025-02-15T09:34:02.000Z</time>
</trkpt>
<trkpt lat="45.8611630" lon="9.2232990">
	<ele>974.00</ele>
	<time>2025-02-15T09:34:03.000Z</time>
</trkpt>
<trkpt lat="45.8611580" lon="9.2232880">
	<ele>974.00</ele>
	<time>2025-02-15T09:34:04.000Z</time>
</trkpt>
<trkpt lat="45.8611600" lon="9.2232770">
	<ele>974.20</ele>
	<time>2025-02-15T09:34:05.000Z</time>
</trkpt>
<trkpt lat="45.8611560" lon="9.2232760">
	<ele>974.20</ele>
	<time>2025-02-15T09:34:06.000Z</time>
</trkpt>
<trkpt lat="45.8611560" lon="9.2232740">
	<ele>974.40</ele>
	<time>2025-02-15T09:34:07.000Z</time>
</trkpt>
<trkpt lat="45.8611520" lon="9.2232840">
	<ele>974.40</ele>
	<time>2025-02-15T09:34:08.000Z</time>
</trkpt>
<trkpt lat="45.8611450" lon="9.2232930">
	<ele>974.40</ele>
	<time>2025-02-15T09:34:09.000Z</time>
</trkpt>
<trkpt lat="45.8611370" lon="9.2232980">
	<ele>974.60</ele>
	<time>2025-02-15T09:34:10.000Z</time>
</trkpt>
<trkpt lat="45.8611360" lon="9.2232920">
	<ele>974.80</ele>
	<time>2025-02-15T09:34:11.000Z</time>
</trkpt>
<trkpt lat="45.8611390" lon="9.2232900">
	<ele>974.80</ele>
	<time>2025-02-15T09:34:12.000Z</time>
</trkpt>
<trkpt lat="45.8611410" lon="9.2232870">
	<ele>974.80</ele>
	<time>2025-02-15T09:34:13.000Z</time>
</trkpt>
<trkpt lat="45.8611420" lon="9.2232840">
	<ele>975.00</ele>
	<time>2025-02-15T09:34:14.000Z</time>
</trkpt>
<trkpt lat="45.8611440" lon="9.2232830">
	<ele>975.00</ele>
	<time>2025-02-15T09:34:15.000Z</time>
</trkpt>
<trkpt lat="45.8611450" lon="9.2232810">
	<ele>975.00</ele>
	<time>2025-02-15T09:34:16.000Z</time>
</trkpt>
<trkpt lat="45.8611420" lon="9.2232750">
	<ele>975.00</ele>
	<time>2025-02-15T09:34:17.000Z</time>
</trkpt>
<trkpt lat="45.8611430" lon="9.2232670">
	<ele>975.00</ele>
	<time>2025-02-15T09:34:18.000Z</time>
</trkpt>
<trkpt lat="45.8611430" lon="9.2232620">
	<ele>975.00</ele>
	<time>2025-02-15T09:34:19.000Z</time>
</trkpt>
<trkpt lat="45.8611460" lon="9.2232560">
	<ele>975.00</ele>
	<time>2025-02-15T09:34:20.000Z</time>
</trkpt>
<trkpt lat="45.8611530" lon="9.2232520">
	<ele>974.80</ele>
	<time>2025-02-15T09:34:21.000Z</time>
</trkpt>
<trkpt lat="45.8611560" lon="9.2232500">
	<ele>974.80</ele>
	<time>2025-02-15T09:34:22.000Z</time>
</trkpt>
<trkpt lat="45.8611550" lon="9.2232500">
	<ele>974.80</ele>
	<time>2025-02-15T09:34:23.000Z</time>
</trkpt>
<trkpt lat="45.8611490" lon="9.2232540">
	<ele>974.80</ele>
	<time>2025-02-15T09:34:24.000Z</time>
</trkpt>
<trkpt lat="45.8611440" lon="9.2232570">
	<ele>974.80</ele>
	<time>2025-02-15T09:34:25.000Z</time>
</trkpt>
<trkpt lat="45.8611450" lon="9.2232540">
	<ele>974.80</ele>
	<time>2025-02-15T09:34:26.000Z</time>
</trkpt>
<trkpt lat="45.8611490" lon="9.2232540">
	<ele>974.80</ele>
	<time>2025-02-15T09:34:27.000Z</time>
</trkpt>
<trkpt lat="45.8611530" lon="9.2232530">
	<ele>974.80</ele>
	<time>2025-02-15T09:34:28.000Z</time>
</trkpt>
<trkpt lat="45.8611530" lon="9.2232540">
	<ele>974.60</ele>
	<time>2025-02-15T09:34:29.000Z</time>
</trkpt>
<trkpt lat="45.8611500" lon="9.2232460">
	<ele>974.60</ele>
	<time>2025-02-15T09:34:30.000Z</time>
</trkpt>
<trkpt lat="45.8611520" lon="9.2232470">
	<ele>974.60</ele>
	<time>2025-02-15T09:34:31.000Z</time>
</trkpt>
<trkpt lat="45.8611530" lon="9.2232480">
	<ele>974.60</ele>
	<time>2025-02-15T09:34:32.000Z</time>
</trkpt>
<trkpt lat="45.8611520" lon="9.2232490">
	<ele>974.60</ele>
	<time>2025-02-15T09:34:33.000Z</time>
</trkpt>
<trkpt lat="45.8611500" lon="9.2232490">
	<ele>974.60</ele>
	<time>2025-02-15T09:34:34.000Z</time>
</trkpt>
<trkpt lat="45.8611480" lon="9.2232490">
	<ele>974.60</ele>
	<time>2025-02-15T09:34:35.000Z</time>
</trkpt>
<trkpt lat="45.8611480" lon="9.2232500">
	<ele>974.60</ele>
	<time>2025-02-15T09:34:36.000Z</time>
</trkpt>
<trkpt lat="45.8611470" lon="9.2232470">
	<ele>974.60</ele>
	<time>2025-02-15T09:34:37.000Z</time>
</trkpt>
<trkpt lat="45.8611450" lon="9.2232500">
	<ele>974.60</ele>
	<time>2025-02-15T09:34:38.000Z</time>
</trkpt>
<trkpt lat="45.8611430" lon="9.2232500">
	<ele>974.60</ele>
	<time>2025-02-15T09:34:39.000Z</time>
</trkpt>
<trkpt lat="45.8611350" lon="9.2232460">
	<ele>974.60</ele>
	<time>2025-02-15T09:34:40.000Z</time>
</trkpt>
<trkpt lat="45.8611360" lon="9.2232430">
	<ele>974.60</ele>
	<time>2025-02-15T09:34:41.000Z</time>
</trkpt>
<trkpt lat="45.8611290" lon="9.2232330">
	<ele>974.60</ele>
	<time>2025-02-15T09:34:42.000Z</time>
</trkpt>
<trkpt lat="45.8611290" lon="9.2232280">
	<ele>974.60</ele>
	<time>2025-02-15T09:34:43.000Z</time>
</trkpt>
<trkpt lat="45.8611200" lon="9.2232230">
	<ele>974.80</ele>
	<time>2025-02-15T09:34:44.000Z</time>
</trkpt>
<trkpt lat="45.8611100" lon="9.2232150">
	<ele>975.00</ele>
	<time>2025-02-15T09:34:45.000Z</time>
</trkpt>
<trkpt lat="45.8611070" lon="9.2232120">
	<ele>975.00</ele>
	<time>2025-02-15T09:34:46.000Z</time>
</trkpt>
<trkpt lat="45.8611050" lon="9.2231980">
	<ele>975.20</ele>
	<time>2025-02-15T09:34:47.000Z</time>
</trkpt>
<trkpt lat="45.8610980" lon="9.2231850">
	<ele>975.20</ele>
	<time>2025-02-15T09:34:48.000Z</time>
</trkpt>
<trkpt lat="45.8610930" lon="9.2231650">
	<ele>975.40</ele>
	<time>2025-02-15T09:34:49.000Z</time>
</trkpt>
<trkpt lat="45.8610870" lon="9.2231480">
	<ele>975.60</ele>
	<time>2025-02-15T09:34:50.000Z</time>
</trkpt>
<trkpt lat="45.8610800" lon="9.2231400">
	<ele>975.80</ele>
	<time>2025-02-15T09:34:51.000Z</time>
</trkpt>
<trkpt lat="45.8610780" lon="9.2231360">
	<ele>975.80</ele>
	<time>2025-02-15T09:34:52.000Z</time>
</trkpt>
<trkpt lat="45.8610760" lon="9.2231310">
	<ele>976.00</ele>
	<time>2025-02-15T09:34:53.000Z</time>
</trkpt>
<trkpt lat="45.8610690" lon="9.2231230">
	<ele>976.00</ele>
	<time>2025-02-15T09:34:54.000Z</time>
</trkpt>
<trkpt lat="45.8610650" lon="9.2231200">
	<ele>976.20</ele>
	<time>2025-02-15T09:34:55.000Z</time>
</trkpt>
<trkpt lat="45.8610610" lon="9.2231170">
	<ele>976.40</ele>
	<time>2025-02-15T09:34:56.000Z</time>
</trkpt>
<trkpt lat="45.8610480" lon="9.2231120">
	<ele>976.40</ele>
	<time>2025-02-15T09:34:57.000Z</time>
</trkpt>
<trkpt lat="45.8610400" lon="9.2231090">
	<ele>976.60</ele>
	<time>2025-02-15T09:34:58.000Z</time>
</trkpt>
<trkpt lat="45.8610430" lon="9.2231040">
	<ele>976.60</ele>
	<time>2025-02-15T09:34:59.000Z</time>
</trkpt>
<trkpt lat="45.8610400" lon="9.2230980">
	<ele>976.80</ele>
	<time>2025-02-15T09:35:00.000Z</time>
</trkpt>
<trkpt lat="45.8610360" lon="9.2230890">
	<ele>977.00</ele>
	<time>2025-02-15T09:35:01.000Z</time>
</trkpt>
<trkpt lat="45.8610380" lon="9.2230780">
	<ele>977.20</ele>
	<time>2025-02-15T09:35:02.000Z</time>
</trkpt>
<trkpt lat="45.8610380" lon="9.2230690">
	<ele>977.20</ele>
	<time>2025-02-15T09:35:03.000Z</time>
</trkpt>
<trkpt lat="45.8610330" lon="9.2230580">
	<ele>977.40</ele>
	<time>2025-02-15T09:35:04.000Z</time>
</trkpt>
<trkpt lat="45.8610300" lon="9.2230430">
	<ele>977.60</ele>
	<time>2025-02-15T09:35:05.000Z</time>
</trkpt>
<trkpt lat="45.8610330" lon="9.2230250">
	<ele>977.80</ele>
	<time>2025-02-15T09:35:06.000Z</time>
</trkpt>
<trkpt lat="45.8610310" lon="9.2230040">
	<ele>978.00</ele>
	<time>2025-02-15T09:35:07.000Z</time>
</trkpt>
<trkpt lat="45.8610230" lon="9.2229850">
	<ele>978.20</ele>
	<time>2025-02-15T09:35:08.000Z</time>
</trkpt>
<trkpt lat="45.8610240" lon="9.2229680">
	<ele>978.20</ele>
	<time>2025-02-15T09:35:09.000Z</time>
</trkpt>
<trkpt lat="45.8610260" lon="9.2229540">
	<ele>978.40</ele>
	<time>2025-02-15T09:35:10.000Z</time>
</trkpt>
<trkpt lat="45.8610250" lon="9.2229440">
	<ele>978.40</ele>
	<time>2025-02-15T09:35:11.000Z</time>
</trkpt>
<trkpt lat="45.8610240" lon="9.2229370">
	<ele>978.40</ele>
	<time>2025-02-15T09:35:12.000Z</time>
</trkpt>
<trkpt lat="45.8610210" lon="9.2229270">
	<ele>978.40</ele>
	<time>2025-02-15T09:35:13.000Z</time>
</trkpt>
<trkpt lat="45.8610170" lon="9.2229160">
	<ele>978.40</ele>
	<time>2025-02-15T09:35:14.000Z</time>
</trkpt>
<trkpt lat="45.8610120" lon="9.2229050">
	<ele>978.40</ele>
	<time>2025-02-15T09:35:15.000Z</time>
</trkpt>
<trkpt lat="45.8610000" lon="9.2229010">
	<ele>978.40</ele>
	<time>2025-02-15T09:35:16.000Z</time>
</trkpt>
<trkpt lat="45.8609920" lon="9.2228950">
	<ele>978.60</ele>
	<time>2025-02-15T09:35:17.000Z</time>
</trkpt>
<trkpt lat="45.8609920" lon="9.2228940">
	<ele>979.00</ele>
	<time>2025-02-15T09:35:18.000Z</time>
</trkpt>
<trkpt lat="45.8609920" lon="9.2228850">
	<ele>979.20</ele>
	<time>2025-02-15T09:35:19.000Z</time>
</trkpt>
<trkpt lat="45.8609870" lon="9.2228820">
	<ele>979.40</ele>
	<time>2025-02-15T09:35:20.000Z</time>
</trkpt>
<trkpt lat="45.8609800" lon="9.2228800">
	<ele>979.60</ele>
	<time>2025-02-15T09:35:21.000Z</time>
</trkpt>
<trkpt lat="45.8609740" lon="9.2228730">
	<ele>979.60</ele>
	<time>2025-02-15T09:35:22.000Z</time>
</trkpt>
<trkpt lat="45.8609730" lon="9.2228720">
	<ele>979.60</ele>
	<time>2025-02-15T09:35:23.000Z</time>
</trkpt>
<trkpt lat="45.8609750" lon="9.2228720">
	<ele>979.80</ele>
	<time>2025-02-15T09:35:24.000Z</time>
</trkpt>
<trkpt lat="45.8609710" lon="9.2228640">
	<ele>979.80</ele>
	<time>2025-02-15T09:35:25.000Z</time>
</trkpt>
<trkpt lat="45.8609670" lon="9.2228600">
	<ele>979.80</ele>
	<time>2025-02-15T09:35:26.000Z</time>
</trkpt>
<trkpt lat="45.8609720" lon="9.2228490">
	<ele>980.00</ele>
	<time>2025-02-15T09:35:27.000Z</time>
</trkpt>
<trkpt lat="45.8609730" lon="9.2228440">
	<ele>980.00</ele>
	<time>2025-02-15T09:35:28.000Z</time>
</trkpt>
<trkpt lat="45.8609670" lon="9.2228310">
	<ele>980.40</ele>
	<time>2025-02-15T09:35:29.000Z</time>
</trkpt>
<trkpt lat="45.8609660" lon="9.2228110">
	<ele>980.40</ele>
	<time>2025-02-15T09:35:30.000Z</time>
</trkpt>
<trkpt lat="45.8609680" lon="9.2227980">
	<ele>980.60</ele>
	<time>2025-02-15T09:35:31.000Z</time>
</trkpt>
<trkpt lat="45.8609680" lon="9.2227920">
	<ele>980.60</ele>
	<time>2025-02-15T09:35:32.000Z</time>
</trkpt>
<trkpt lat="45.8609770" lon="9.2227830">
	<ele>980.80</ele>
	<time>2025-02-15T09:35:33.000Z</time>
</trkpt>
<trkpt lat="45.8609840" lon="9.2227710">
	<ele>981.00</ele>
	<time>2025-02-15T09:35:34.000Z</time>
</trkpt>
<trkpt lat="45.8609820" lon="9.2227560">
	<ele>981.20</ele>
	<time>2025-02-15T09:35:35.000Z</time>
</trkpt>
<trkpt lat="45.8609780" lon="9.2227450">
	<ele>981.20</ele>
	<time>2025-02-15T09:35:36.000Z</time>
</trkpt>
<trkpt lat="45.8609740" lon="9.2227310">
	<ele>981.60</ele>
	<time>2025-02-15T09:35:37.000Z</time>
</trkpt>
<trkpt lat="45.8609720" lon="9.2227120">
	<ele>981.80</ele>
	<time>2025-02-15T09:35:38.000Z</time>
</trkpt>
<trkpt lat="45.8609730" lon="9.2227000">
	<ele>981.80</ele>
	<time>2025-02-15T09:35:39.000Z</time>
</trkpt>
<trkpt lat="45.8609720" lon="9.2226910">
	<ele>982.00</ele>
	<time>2025-02-15T09:35:40.000Z</time>
</trkpt>
<trkpt lat="45.8609720" lon="9.2226840">
	<ele>982.00</ele>
	<time>2025-02-15T09:35:41.000Z</time>
</trkpt>
<trkpt lat="45.8609610" lon="9.2226750">
	<ele>982.20</ele>
	<time>2025-02-15T09:35:42.000Z</time>
</trkpt>
<trkpt lat="45.8609500" lon="9.2226600">
	<ele>982.40</ele>
	<time>2025-02-15T09:35:43.000Z</time>
</trkpt>
<trkpt lat="45.8609500" lon="9.2226460">
	<ele>982.40</ele>
	<time>2025-02-15T09:35:44.000Z</time>
</trkpt>
<trkpt lat="45.8609500" lon="9.2226390">
	<ele>982.60</ele>
	<time>2025-02-15T09:35:45.000Z</time>
</trkpt>
<trkpt lat="45.8609480" lon="9.2226310">
	<ele>982.80</ele>
	<time>2025-02-15T09:35:46.000Z</time>
</trkpt>
<trkpt lat="45.8609410" lon="9.2226210">
	<ele>983.00</ele>
	<time>2025-02-15T09:35:47.000Z</time>
</trkpt>
<trkpt lat="45.8609400" lon="9.2226110">
	<ele>983.00</ele>
	<time>2025-02-15T09:35:48.000Z</time>
</trkpt>
<trkpt lat="45.8609380" lon="9.2226030">
	<ele>983.20</ele>
	<time>2025-02-15T09:35:49.000Z</time>
</trkpt>
<trkpt lat="45.8609370" lon="9.2225940">
	<ele>983.20</ele>
	<time>2025-02-15T09:35:50.000Z</time>
</trkpt>
<trkpt lat="45.8609300" lon="9.2225900">
	<ele>983.40</ele>
	<time>2025-02-15T09:35:51.000Z</time>
</trkpt>
<trkpt lat="45.8609250" lon="9.2225850">
	<ele>983.60</ele>
	<time>2025-02-15T09:35:52.000Z</time>
</trkpt>
<trkpt lat="45.8609220" lon="9.2225820">
	<ele>983.60</ele>
	<time>2025-02-15T09:35:53.000Z</time>
</trkpt>
<trkpt lat="45.8609230" lon="9.2225720">
	<ele>983.80</ele>
	<time>2025-02-15T09:35:54.000Z</time>
</trkpt>
<trkpt lat="45.8609280" lon="9.2225630">
	<ele>984.00</ele>
	<time>2025-02-15T09:35:55.000Z</time>
</trkpt>
<trkpt lat="45.8609270" lon="9.2225550">
	<ele>984.40</ele>
	<time>2025-02-15T09:35:56.000Z</time>
</trkpt>
<trkpt lat="45.8609240" lon="9.2225540">
	<ele>984.60</ele>
	<time>2025-02-15T09:35:57.000Z</time>
</trkpt>
<trkpt lat="45.8609240" lon="9.2225410">
	<ele>984.80</ele>
	<time>2025-02-15T09:35:58.000Z</time>
</trkpt>
<trkpt lat="45.8609230" lon="9.2225400">
	<ele>985.00</ele>
	<time>2025-02-15T09:35:59.000Z</time>
</trkpt>
<trkpt lat="45.8609230" lon="9.2225390">
	<ele>985.00</ele>
	<time>2025-02-15T09:36:00.000Z</time>
</trkpt>
<trkpt lat="45.8609240" lon="9.2225370">
	<ele>985.40</ele>
	<time>2025-02-15T09:36:01.000Z</time>
</trkpt>
<trkpt lat="45.8609140" lon="9.2225340">
	<ele>985.60</ele>
	<time>2025-02-15T09:36:02.000Z</time>
</trkpt>
<trkpt lat="45.8609120" lon="9.2225310">
	<ele>985.80</ele>
	<time>2025-02-15T09:36:03.000Z</time>
</trkpt>
<trkpt lat="45.8609060" lon="9.2225270">
	<ele>986.00</ele>
	<time>2025-02-15T09:36:04.000Z</time>
</trkpt>
<trkpt lat="45.8608960" lon="9.2225240">
	<ele>986.20</ele>
	<time>2025-02-15T09:36:05.000Z</time>
</trkpt>
<trkpt lat="45.8608900" lon="9.2225260">
	<ele>986.20</ele>
	<time>2025-02-15T09:36:06.000Z</time>
</trkpt>
<trkpt lat="45.8608830" lon="9.2225200">
	<ele>986.40</ele>
	<time>2025-02-15T09:36:07.000Z</time>
</trkpt>
<trkpt lat="45.8608800" lon="9.2225140">
	<ele>986.40</ele>
	<time>2025-02-15T09:36:08.000Z</time>
</trkpt>
<trkpt lat="45.8608700" lon="9.2225040">
	<ele>986.40</ele>
	<time>2025-02-15T09:36:09.000Z</time>
</trkpt>
<trkpt lat="45.8608610" lon="9.2225000">
	<ele>986.60</ele>
	<time>2025-02-15T09:36:10.000Z</time>
</trkpt>
<trkpt lat="45.8608610" lon="9.2225000">
	<ele>986.80</ele>
	<time>2025-02-15T09:36:11.000Z</time>
</trkpt>
<trkpt lat="45.8608600" lon="9.2225020">
	<ele>987.00</ele>
	<time>2025-02-15T09:36:12.000Z</time>
</trkpt>
<trkpt lat="45.8608520" lon="9.2225060">
	<ele>987.00</ele>
	<time>2025-02-15T09:36:13.000Z</time>
</trkpt>
<trkpt lat="45.8608400" lon="9.2225030">
	<ele>987.20</ele>
	<time>2025-02-15T09:36:14.000Z</time>
</trkpt>
<trkpt lat="45.8608410" lon="9.2224920">
	<ele>987.60</ele>
	<time>2025-02-15T09:36:15.000Z</time>
</trkpt>
<trkpt lat="45.8608440" lon="9.2224850">
	<ele>987.60</ele>
	<time>2025-02-15T09:36:16.000Z</time>
</trkpt>
<trkpt lat="45.8608470" lon="9.2224820">
	<ele>987.80</ele>
	<time>2025-02-15T09:36:17.000Z</time>
</trkpt>
<trkpt lat="45.8608460" lon="9.2224770">
	<ele>988.00</ele>
	<time>2025-02-15T09:36:18.000Z</time>
</trkpt>
<trkpt lat="45.8608450" lon="9.2224740">
	<ele>988.00</ele>
	<time>2025-02-15T09:36:19.000Z</time>
</trkpt>
<trkpt lat="45.8608510" lon="9.2224790">
	<ele>988.20</ele>
	<time>2025-02-15T09:36:20.000Z</time>
</trkpt>
<trkpt lat="45.8608510" lon="9.2224730">
	<ele>988.60</ele>
	<time>2025-02-15T09:36:21.000Z</time>
</trkpt>
<trkpt lat="45.8608490" lon="9.2224590">
	<ele>988.80</ele>
	<time>2025-02-15T09:36:22.000Z</time>
</trkpt>
<trkpt lat="45.8608480" lon="9.2224540">
	<ele>989.00</ele>
	<time>2025-02-15T09:36:23.000Z</time>
</trkpt>
<trkpt lat="45.8608470" lon="9.2224410">
	<ele>989.20</ele>
	<time>2025-02-15T09:36:24.000Z</time>
</trkpt>
<trkpt lat="45.8608440" lon="9.2224330">
	<ele>989.40</ele>
	<time>2025-02-15T09:36:25.000Z</time>
</trkpt>
<trkpt lat="45.8608400" lon="9.2224240">
	<ele>989.40</ele>
	<time>2025-02-15T09:36:26.000Z</time>
</trkpt>
<trkpt lat="45.8608310" lon="9.2224130">
	<ele>989.60</ele>
	<time>2025-02-15T09:36:27.000Z</time>
</trkpt>
<trkpt lat="45.8608240" lon="9.2224050">
	<ele>989.60</ele>
	<time>2025-02-15T09:36:28.000Z</time>
</trkpt>
<trkpt lat="45.8608150" lon="9.2223980">
	<ele>989.60</ele>
	<time>2025-02-15T09:36:29.000Z</time>
</trkpt>
<trkpt lat="45.8608050" lon="9.2223900">
	<ele>989.80</ele>
	<time>2025-02-15T09:36:30.000Z</time>
</trkpt>
<trkpt lat="45.8607970" lon="9.2223830">
	<ele>990.00</ele>
	<time>2025-02-15T09:36:31.000Z</time>
</trkpt>
<trkpt lat="45.8607930" lon="9.2223770">
	<ele>990.00</ele>
	<time>2025-02-15T09:36:32.000Z</time>
</trkpt>
<trkpt lat="45.8607920" lon="9.2223740">
	<ele>990.00</ele>
	<time>2025-02-15T09:36:33.000Z</time>
</trkpt>
<trkpt lat="45.8607920" lon="9.2223670">
	<ele>990.20</ele>
	<time>2025-02-15T09:36:34.000Z</time>
</trkpt>
<trkpt lat="45.8607890" lon="9.2223560">
	<ele>990.20</ele>
	<time>2025-02-15T09:36:35.000Z</time>
</trkpt>
<trkpt lat="45.8607860" lon="9.2223450">
	<ele>990.20</ele>
	<time>2025-02-15T09:36:36.000Z</time>
</trkpt>
<trkpt lat="45.8607850" lon="9.2223400">
	<ele>990.40</ele>
	<time>2025-02-15T09:36:37.000Z</time>
</trkpt>
<trkpt lat="45.8607700" lon="9.2223390">
	<ele>990.60</ele>
	<time>2025-02-15T09:36:38.000Z</time>
</trkpt>
<trkpt lat="45.8607600" lon="9.2223380">
	<ele>991.00</ele>
	<time>2025-02-15T09:36:39.000Z</time>
</trkpt>
<trkpt lat="45.8607550" lon="9.2223370">
	<ele>991.20</ele>
	<time>2025-02-15T09:36:40.000Z</time>
</trkpt>
<trkpt lat="45.8607560" lon="9.2223380">
	<ele>991.40</ele>
	<time>2025-02-15T09:36:41.000Z</time>
</trkpt>
<trkpt lat="45.8607510" lon="9.2223290">
	<ele>991.60</ele>
	<time>2025-02-15T09:36:42.000Z</time>
</trkpt>
<trkpt lat="45.8607420" lon="9.2223220">
	<ele>991.80</ele>
	<time>2025-02-15T09:36:43.000Z</time>
</trkpt>
<trkpt lat="45.8607330" lon="9.2223210">
	<ele>991.80</ele>
	<time>2025-02-15T09:36:44.000Z</time>
</trkpt>
<trkpt lat="45.8607290" lon="9.2223190">
	<ele>991.80</ele>
	<time>2025-02-15T09:36:45.000Z</time>
</trkpt>
<trkpt lat="45.8607190" lon="9.2223150">
	<ele>992.00</ele>
	<time>2025-02-15T09:36:46.000Z</time>
</trkpt>
<trkpt lat="45.8607090" lon="9.2223130">
	<ele>992.20</ele>
	<time>2025-02-15T09:36:47.000Z</time>
</trkpt>
<trkpt lat="45.8606990" lon="9.2223090">
	<ele>992.40</ele>
	<time>2025-02-15T09:36:48.000Z</time>
</trkpt>
<trkpt lat="45.8606940" lon="9.2223060">
	<ele>992.60</ele>
	<time>2025-02-15T09:36:49.000Z</time>
</trkpt>
<trkpt lat="45.8606920" lon="9.2223090">
	<ele>992.80</ele>
	<time>2025-02-15T09:36:50.000Z</time>
</trkpt>
<trkpt lat="45.8606820" lon="9.2223130">
	<ele>992.80</ele>
	<time>2025-02-15T09:36:51.000Z</time>
</trkpt>
<trkpt lat="45.8606730" lon="9.2223160">
	<ele>993.00</ele>
	<time>2025-02-15T09:36:52.000Z</time>
</trkpt>
<trkpt lat="45.8606710" lon="9.2223200">
	<ele>993.20</ele>
	<time>2025-02-15T09:36:53.000Z</time>
</trkpt>
<trkpt lat="45.8606600" lon="9.2223240">
	<ele>993.40</ele>
	<time>2025-02-15T09:36:54.000Z</time>
</trkpt>
<trkpt lat="45.8606490" lon="9.2223260">
	<ele>993.60</ele>
	<time>2025-02-15T09:36:55.000Z</time>
</trkpt>
<trkpt lat="45.8606370" lon="9.2223300">
	<ele>993.80</ele>
	<time>2025-02-15T09:36:56.000Z</time>
</trkpt>
<trkpt lat="45.8606260" lon="9.2223370">
	<ele>994.00</ele>
	<time>2025-02-15T09:36:57.000Z</time>
</trkpt>
<trkpt lat="45.8606110" lon="9.2223430">
	<ele>994.00</ele>
	<time>2025-02-15T09:36:58.000Z</time>
</trkpt>
<trkpt lat="45.8606020" lon="9.2223440">
	<ele>994.20</ele>
	<time>2025-02-15T09:36:59.000Z</time>
</trkpt>
<trkpt lat="45.8606000" lon="9.2223470">
	<ele>994.20</ele>
	<time>2025-02-15T09:37:00.000Z</time>
</trkpt>
<trkpt lat="45.8605990" lon="9.2223510">
	<ele>994.40</ele>
	<time>2025-02-15T09:37:01.000Z</time>
</trkpt>
<trkpt lat="45.8606010" lon="9.2223550">
	<ele>994.40</ele>
	<time>2025-02-15T09:37:02.000Z</time>
</trkpt>
<trkpt lat="45.8605970" lon="9.2223590">
	<ele>994.60</ele>
	<time>2025-02-15T09:37:03.000Z</time>
</trkpt>
<trkpt lat="45.8605950" lon="9.2223670">
	<ele>994.60</ele>
	<time>2025-02-15T09:37:04.000Z</time>
</trkpt>
<trkpt lat="45.8605970" lon="9.2223750">
	<ele>994.80</ele>
	<time>2025-02-15T09:37:05.000Z</time>
</trkpt>
<trkpt lat="45.8605920" lon="9.2223820">
	<ele>995.00</ele>
	<time>2025-02-15T09:37:06.000Z</time>
</trkpt>
<trkpt lat="45.8605830" lon="9.2223850">
	<ele>995.00</ele>
	<time>2025-02-15T09:37:07.000Z</time>
</trkpt>
<trkpt lat="45.8605780" lon="9.2223860">
	<ele>995.00</ele>
	<time>2025-02-15T09:37:08.000Z</time>
</trkpt>
<trkpt lat="45.8605750" lon="9.2223890">
	<ele>995.20</ele>
	<time>2025-02-15T09:37:09.000Z</time>
</trkpt>
<trkpt lat="45.8605660" lon="9.2223910">
	<ele>995.20</ele>
	<time>2025-02-15T09:37:10.000Z</time>
</trkpt>
<trkpt lat="45.8605500" lon="9.2223910">
	<ele>995.20</ele>
	<time>2025-02-15T09:37:11.000Z</time>
</trkpt>
<trkpt lat="45.8605370" lon="9.2223890">
	<ele>995.20</ele>
	<time>2025-02-15T09:37:12.000Z</time>
</trkpt>
<trkpt lat="45.8605300" lon="9.2223870">
	<ele>995.40</ele>
	<time>2025-02-15T09:37:13.000Z</time>
</trkpt>
<trkpt lat="45.8605260" lon="9.2223930">
	<ele>995.40</ele>
	<time>2025-02-15T09:37:14.000Z</time>
</trkpt>
<trkpt lat="45.8605240" lon="9.2223930">
	<ele>995.60</ele>
	<time>2025-02-15T09:37:15.000Z</time>
</trkpt>
<trkpt lat="45.8605190" lon="9.2223950">
	<ele>995.60</ele>
	<time>2025-02-15T09:37:16.000Z</time>
</trkpt>
<trkpt lat="45.8605210" lon="9.2223920">
	<ele>995.60</ele>
	<time>2025-02-15T09:37:17.000Z</time>
</trkpt>
<trkpt lat="45.8605200" lon="9.2223890">
	<ele>995.80</ele>
	<time>2025-02-15T09:37:18.000Z</time>
</trkpt>
<trkpt lat="45.8605160" lon="9.2223890">
	<ele>996.00</ele>
	<time>2025-02-15T09:37:19.000Z</time>
</trkpt>
<trkpt lat="45.8605200" lon="9.2223930">
	<ele>996.00</ele>
	<time>2025-02-15T09:37:20.000Z</time>
</trkpt>
<trkpt lat="45.8605280" lon="9.2223980">
	<ele>996.00</ele>
	<time>2025-02-15T09:37:21.000Z</time>
</trkpt>
<trkpt lat="45.8605250" lon="9.2224060">
	<ele>996.00</ele>
	<time>2025-02-15T09:37:22.000Z</time>
</trkpt>
<trkpt lat="45.8605250" lon="9.2224100">
	<ele>996.00</ele>
	<time>2025-02-15T09:37:23.000Z</time>
</trkpt>
<trkpt lat="45.8605220" lon="9.2224110">
	<ele>996.00</ele>
	<time>2025-02-15T09:37:24.000Z</time>
</trkpt>
<trkpt lat="45.8605100" lon="9.2224110">
	<ele>996.20</ele>
	<time>2025-02-15T09:37:25.000Z</time>
</trkpt>
<trkpt lat="45.8605060" lon="9.2224090">
	<ele>996.20</ele>
	<time>2025-02-15T09:37:26.000Z</time>
</trkpt>
<trkpt lat="45.8605050" lon="9.2224060">
	<ele>996.40</ele>
	<time>2025-02-15T09:37:27.000Z</time>
</trkpt>
<trkpt lat="45.8605050" lon="9.2224050">
	<ele>996.60</ele>
	<time>2025-02-15T09:37:28.000Z</time>
</trkpt>
<trkpt lat="45.8605040" lon="9.2224050">
	<ele>996.60</ele>
	<time>2025-02-15T09:37:29.000Z</time>
</trkpt>
<trkpt lat="45.8605090" lon="9.2224040">
	<ele>996.60</ele>
	<time>2025-02-15T09:37:30.000Z</time>
</trkpt>
<trkpt lat="45.8605090" lon="9.2224050">
	<ele>996.60</ele>
	<time>2025-02-15T09:37:31.000Z</time>
</trkpt>
<trkpt lat="45.8605100" lon="9.2224060">
	<ele>996.60</ele>
	<time>2025-02-15T09:37:32.000Z</time>
</trkpt>
<trkpt lat="45.8605100" lon="9.2224070">
	<ele>996.60</ele>
	<time>2025-02-15T09:37:33.000Z</time>
</trkpt>
<trkpt lat="45.8605100" lon="9.2224090">
	<ele>996.60</ele>
	<time>2025-02-15T09:37:34.000Z</time>
</trkpt>
<trkpt lat="45.8605100" lon="9.2224090">
	<ele>996.60</ele>
	<time>2025-02-15T09:37:35.000Z</time>
</trkpt>
<trkpt lat="45.8605100" lon="9.2224090">
	<ele>996.60</ele>
	<time>2025-02-15T09:37:36.000Z</time>
</trkpt>
<trkpt lat="45.8605100" lon="9.2224090">
	<ele>996.60</ele>
	<time>2025-02-15T09:37:37.000Z</time>
</trkpt>
<trkpt lat="45.8605100" lon="9.2224090">
	<ele>996.60</ele>
	<time>2025-02-15T09:37:38.000Z</time>
</trkpt>
<trkpt lat="45.8605100" lon="9.2224090">
	<ele>996.60</ele>
	<time>2025-02-15T09:37:39.000Z</time>
</trkpt>
<trkpt lat="45.8605100" lon="9.2224090">
	<ele>996.60</ele>
	<time>2025-02-15T09:37:40.000Z</time>
</trkpt>
<trkpt lat="45.8605100" lon="9.2224090">
	<ele>996.80</ele>
	<time>2025-02-15T09:37:41.000Z</time>
</trkpt>
<trkpt lat="45.8605100" lon="9.2224090">
	<ele>996.80</ele>
	<time>2025-02-15T09:37:42.000Z</time>
</trkpt>
<trkpt lat="45.8605100" lon="9.2224090">
	<ele>997.00</ele>
	<time>2025-02-15T09:37:43.000Z</time>
</trkpt>
<trkpt lat="45.8605100" lon="9.2224090">
	<ele>997.00</ele>
	<time>2025-02-15T09:37:44.000Z</time>
</trkpt>
<trkpt lat="45.8605090" lon="9.2224090">
	<ele>997.20</ele>
	<time>2025-02-15T09:37:45.000Z</time>
</trkpt>
<trkpt lat="45.8605090" lon="9.2224090">
	<ele>997.40</ele>
	<time>2025-02-15T09:37:46.000Z</time>
</trkpt>
<trkpt lat="45.8605090" lon="9.2224090">
	<ele>997.40</ele>
	<time>2025-02-15T09:37:47.000Z</time>
</trkpt>
<trkpt lat="45.8605090" lon="9.2224080">
	<ele>997.60</ele>
	<time>2025-02-15T09:37:48.000Z</time>
</trkpt>
<trkpt lat="45.8605080" lon="9.2224070">
	<ele>997.80</ele>
	<time>2025-02-15T09:37:49.000Z</time>
</trkpt>
<trkpt lat="45.8605070" lon="9.2224060">
	<ele>997.80</ele>
	<time>2025-02-15T09:37:50.000Z</time>
</trkpt>
<trkpt lat="45.8605060" lon="9.2224060">
	<ele>997.80</ele>
	<time>2025-02-15T09:37:51.000Z</time>
</trkpt>
<trkpt lat="45.8605050" lon="9.2224050">
	<ele>998.00</ele>
	<time>2025-02-15T09:37:52.000Z</time>
</trkpt>
<trkpt lat="45.8605050" lon="9.2224050">
	<ele>998.00</ele>
	<time>2025-02-15T09:37:53.000Z</time>
</trkpt>
<trkpt lat="45.8605040" lon="9.2224050">
	<ele>998.20</ele>
	<time>2025-02-15T09:37:54.000Z</time>
</trkpt>
<trkpt lat="45.8604940" lon="9.2224050">
	<ele>998.40</ele>
	<time>2025-02-15T09:37:55.000Z</time>
</trkpt>
<trkpt lat="45.8604910" lon="9.2224050">
	<ele>998.60</ele>
	<time>2025-02-15T09:37:56.000Z</time>
</trkpt>
<trkpt lat="45.8604890" lon="9.2224040">
	<ele>999.00</ele>
	<time>2025-02-15T09:37:57.000Z</time>
</trkpt>
<trkpt lat="45.8604870" lon="9.2224010">
	<ele>999.20</ele>
	<time>2025-02-15T09:37:58.000Z</time>
</trkpt>
<trkpt lat="45.8604860" lon="9.2223970">
	<ele>999.20</ele>
	<time>2025-02-15T09:37:59.000Z</time>
</trkpt>
<trkpt lat="45.8604810" lon="9.2223900">
	<ele>999.20</ele>
	<time>2025-02-15T09:38:00.000Z</time>
</trkpt>
<trkpt lat="45.8604710" lon="9.2223880">
	<ele>999.20</ele>
	<time>2025-02-15T09:38:01.000Z</time>
</trkpt>
<trkpt lat="45.8604670" lon="9.2223840">
	<ele>999.20</ele>
	<time>2025-02-15T09:38:02.000Z</time>
</trkpt>
<trkpt lat="45.8604540" lon="9.2223830">
	<ele>999.20</ele>
	<time>2025-02-15T09:38:03.000Z</time>
</trkpt>
<trkpt lat="45.8604520" lon="9.2223820">
	<ele>999.20</ele>
	<time>2025-02-15T09:38:04.000Z</time>
</trkpt>
<trkpt lat="45.8604510" lon="9.2223820">
	<ele>999.20</ele>
	<time>2025-02-15T09:38:05.000Z</time>
</trkpt>
<trkpt lat="45.8604500" lon="9.2223760">
	<ele>999.20</ele>
	<time>2025-02-15T09:38:06.000Z</time>
</trkpt>
<trkpt lat="45.8604470" lon="9.2223690">
	<ele>999.20</ele>
	<time>2025-02-15T09:38:07.000Z</time>
</trkpt>
<trkpt lat="45.8604450" lon="9.2223650">
	<ele>999.20</ele>
	<time>2025-02-15T09:38:08.000Z</time>
</trkpt>
<trkpt lat="45.8604420" lon="9.2223620">
	<ele>999.20</ele>
	<time>2025-02-15T09:38:09.000Z</time>
</trkpt>
<trkpt lat="45.8604370" lon="9.2223570">
	<ele>999.20</ele>
	<time>2025-02-15T09:38:10.000Z</time>
</trkpt>
<trkpt lat="45.8604350" lon="9.2223510">
	<ele>999.20</ele>
	<time>2025-02-15T09:38:11.000Z</time>
</trkpt>
<trkpt lat="45.8604340" lon="9.2223500">
	<ele>999.20</ele>
	<time>2025-02-15T09:38:12.000Z</time>
</trkpt>
<trkpt lat="45.8604280" lon="9.2223520">
	<ele>999.20</ele>
	<time>2025-02-15T09:38:13.000Z</time>
</trkpt>
<trkpt lat="45.8604230" lon="9.2223560">
	<ele>999.00</ele>
	<time>2025-02-15T09:38:14.000Z</time>
</trkpt>
<trkpt lat="45.8604160" lon="9.2223590">
	<ele>999.00</ele>
	<time>2025-02-15T09:38:15.000Z</time>
</trkpt>
<trkpt lat="45.8604100" lon="9.2223600">
	<ele>999.00</ele>
	<time>2025-02-15T09:38:16.000Z</time>
</trkpt>
<trkpt lat="45.8604050" lon="9.2223560">
	<ele>999.00</ele>
	<time>2025-02-15T09:38:17.000Z</time>
</trkpt>
<trkpt lat="45.8604000" lon="9.2223520">
	<ele>999.00</ele>
	<time>2025-02-15T09:38:18.000Z</time>
</trkpt>
<trkpt lat="45.8603950" lon="9.2223520">
	<ele>999.00</ele>
	<time>2025-02-15T09:38:19.000Z</time>
</trkpt>
<trkpt lat="45.8603910" lon="9.2223520">
	<ele>998.80</ele>
	<time>2025-02-15T09:38:20.000Z</time>
</trkpt>
<trkpt lat="45.8603850" lon="9.2223540">
	<ele>998.80</ele>
	<time>2025-02-15T09:38:21.000Z</time>
</trkpt>
<trkpt lat="45.8603770" lon="9.2223570">
	<ele>999.00</ele>
	<time>2025-02-15T09:38:22.000Z</time>
</trkpt>
<trkpt lat="45.8603760" lon="9.2223570">
	<ele>999.00</ele>
	<time>2025-02-15T09:38:23.000Z</time>
</trkpt>
<trkpt lat="45.8603770" lon="9.2223470">
	<ele>999.00</ele>
	<time>2025-02-15T09:38:24.000Z</time>
</trkpt>
<trkpt lat="45.8603760" lon="9.2223380">
	<ele>999.00</ele>
	<time>2025-02-15T09:38:25.000Z</time>
</trkpt>
<trkpt lat="45.8603710" lon="9.2223270">
	<ele>999.40</ele>
	<time>2025-02-15T09:38:26.000Z</time>
</trkpt>
<trkpt lat="45.8603690" lon="9.2223220">
	<ele>999.60</ele>
	<time>2025-02-15T09:38:27.000Z</time>
</trkpt>
<trkpt lat="45.8603730" lon="9.2223090">
	<ele>999.80</ele>
	<time>2025-02-15T09:38:28.000Z</time>
</trkpt>
<trkpt lat="45.8603810" lon="9.2222970">
	<ele>1000.00</ele>
	<time>2025-02-15T09:38:29.000Z</time>
</trkpt>
<trkpt lat="45.8603810" lon="9.2222890">
	<ele>1000.20</ele>
	<time>2025-02-15T09:38:30.000Z</time>
</trkpt>
<trkpt lat="45.8603800" lon="9.2222800">
	<ele>1000.20</ele>
	<time>2025-02-15T09:38:31.000Z</time>
</trkpt>
<trkpt lat="45.8603840" lon="9.2222730">
	<ele>1000.40</ele>
	<time>2025-02-15T09:38:32.000Z</time>
</trkpt>
<trkpt lat="45.8603840" lon="9.2222650">
	<ele>1000.60</ele>
	<time>2025-02-15T09:38:33.000Z</time>
</trkpt>
<trkpt lat="45.8603810" lon="9.2222560">
	<ele>1000.80</ele>
	<time>2025-02-15T09:38:34.000Z</time>
</trkpt>
<trkpt lat="45.8603800" lon="9.2222530">
	<ele>1001.00</ele>
	<time>2025-02-15T09:38:35.000Z</time>
</trkpt>
<trkpt lat="45.8603740" lon="9.2222450">
	<ele>1001.20</ele>
	<time>2025-02-15T09:38:36.000Z</time>
</trkpt>
<trkpt lat="45.8603700" lon="9.2222410">
	<ele>1001.20</ele>
	<time>2025-02-15T09:38:37.000Z</time>
</trkpt>
<trkpt lat="45.8603650" lon="9.2222350">
	<ele>1001.20</ele>
	<time>2025-02-15T09:38:38.000Z</time>
</trkpt>
<trkpt lat="45.8603550" lon="9.2222280">
	<ele>1001.20</ele>
	<time>2025-02-15T09:38:39.000Z</time>
</trkpt>
<trkpt lat="45.8603360" lon="9.2222170">
	<ele>1001.40</ele>
	<time>2025-02-15T09:38:40.000Z</time>
</trkpt>
<trkpt lat="45.8603270" lon="9.2222110">
	<ele>1001.60</ele>
	<time>2025-02-15T09:38:41.000Z</time>
</trkpt>
<trkpt lat="45.8603130" lon="9.2221960">
	<ele>1001.80</ele>
	<time>2025-02-15T09:38:42.000Z</time>
</trkpt>
<trkpt lat="45.8603050" lon="9.2221830">
	<ele>1002.00</ele>
	<time>2025-02-15T09:38:43.000Z</time>
</trkpt>
<trkpt lat="45.8603070" lon="9.2221730">
	<ele>1002.20</ele>
	<time>2025-02-15T09:38:44.000Z</time>
</trkpt>
<trkpt lat="45.8603100" lon="9.2221630">
	<ele>1002.40</ele>
	<time>2025-02-15T09:38:45.000Z</time>
</trkpt>
<trkpt lat="45.8603110" lon="9.2221570">
	<ele>1002.60</ele>
	<time>2025-02-15T09:38:46.000Z</time>
</trkpt>
<trkpt lat="45.8603100" lon="9.2221460">
	<ele>1002.60</ele>
	<time>2025-02-15T09:38:47.000Z</time>
</trkpt>
<trkpt lat="45.8603130" lon="9.2221330">
	<ele>1002.80</ele>
	<time>2025-02-15T09:38:48.000Z</time>
</trkpt>
<trkpt lat="45.8603150" lon="9.2221240">
	<ele>1002.80</ele>
	<time>2025-02-15T09:38:49.000Z</time>
</trkpt>
<trkpt lat="45.8603130" lon="9.2221200">
	<ele>1003.00</ele>
	<time>2025-02-15T09:38:50.000Z</time>
</trkpt>
<trkpt lat="45.8603120" lon="9.2221170">
	<ele>1003.00</ele>
	<time>2025-02-15T09:38:51.000Z</time>
</trkpt>
<trkpt lat="45.8603100" lon="9.2221140">
	<ele>1003.40</ele>
	<time>2025-02-15T09:38:52.000Z</time>
</trkpt>
<trkpt lat="45.8603080" lon="9.2221050">
	<ele>1003.60</ele>
	<time>2025-02-15T09:38:53.000Z</time>
</trkpt>
<trkpt lat="45.8603030" lon="9.2220980">
	<ele>1003.80</ele>
	<time>2025-02-15T09:38:54.000Z</time>
</trkpt>
<trkpt lat="45.8603010" lon="9.2220930">
	<ele>1004.20</ele>
	<time>2025-02-15T09:38:55.000Z</time>
</trkpt>
<trkpt lat="45.8602980" lon="9.2220920">
	<ele>1004.20</ele>
	<time>2025-02-15T09:38:56.000Z</time>
</trkpt>
<trkpt lat="45.8602990" lon="9.2220870">
	<ele>1004.40</ele>
	<time>2025-02-15T09:38:57.000Z</time>
</trkpt>
<trkpt lat="45.8602980" lon="9.2220810">
	<ele>1004.40</ele>
	<time>2025-02-15T09:38:58.000Z</time>
</trkpt>
<trkpt lat="45.8603100" lon="9.2220690">
	<ele>1004.60</ele>
	<time>2025-02-15T09:38:59.000Z</time>
</trkpt>
<trkpt lat="45.8603200" lon="9.2220590">
	<ele>1004.60</ele>
	<time>2025-02-15T09:39:00.000Z</time>
</trkpt>
<trkpt lat="45.8603320" lon="9.2220460">
	<ele>1004.80</ele>
	<time>2025-02-15T09:39:01.000Z</time>
</trkpt>
<trkpt lat="45.8603330" lon="9.2220390">
	<ele>1005.00</ele>
	<time>2025-02-15T09:39:02.000Z</time>
</trkpt>
<trkpt lat="45.8603400" lon="9.2220270">
	<ele>1005.00</ele>
	<time>2025-02-15T09:39:03.000Z</time>
</trkpt>
<trkpt lat="45.8603390" lon="9.2220190">
	<ele>1005.00</ele>
	<time>2025-02-15T09:39:04.000Z</time>
</trkpt>
<trkpt lat="45.8603370" lon="9.2220090">
	<ele>1005.00</ele>
	<time>2025-02-15T09:39:05.000Z</time>
</trkpt>
<trkpt lat="45.8603350" lon="9.2220010">
	<ele>1005.00</ele>
	<time>2025-02-15T09:39:06.000Z</time>
</trkpt>
<trkpt lat="45.8603330" lon="9.2219910">
	<ele>1005.00</ele>
	<time>2025-02-15T09:39:07.000Z</time>
</trkpt>
<trkpt lat="45.8603280" lon="9.2219860">
	<ele>1005.20</ele>
	<time>2025-02-15T09:39:08.000Z</time>
</trkpt>
<trkpt lat="45.8603190" lon="9.2219860">
	<ele>1005.40</ele>
	<time>2025-02-15T09:39:09.000Z</time>
</trkpt>
<trkpt lat="45.8603160" lon="9.2219830">
	<ele>1005.60</ele>
	<time>2025-02-15T09:39:10.000Z</time>
</trkpt>
<trkpt lat="45.8603140" lon="9.2219790">
	<ele>1005.80</ele>
	<time>2025-02-15T09:39:11.000Z</time>
</trkpt>
<trkpt lat="45.8603110" lon="9.2219740">
	<ele>1005.80</ele>
	<time>2025-02-15T09:39:12.000Z</time>
</trkpt>
<trkpt lat="45.8603080" lon="9.2219670">
	<ele>1006.00</ele>
	<time>2025-02-15T09:39:13.000Z</time>
</trkpt>
<trkpt lat="45.8603050" lon="9.2219610">
	<ele>1006.00</ele>
	<time>2025-02-15T09:39:14.000Z</time>
</trkpt>
<trkpt lat="45.8602980" lon="9.2219560">
	<ele>1006.20</ele>
	<time>2025-02-15T09:39:15.000Z</time>
</trkpt>
<trkpt lat="45.8602860" lon="9.2219600">
	<ele>1006.40</ele>
	<time>2025-02-15T09:39:16.000Z</time>
</trkpt>
<trkpt lat="45.8602780" lon="9.2219660">
	<ele>1006.40</ele>
	<time>2025-02-15T09:39:17.000Z</time>
</trkpt>
<trkpt lat="45.8602750" lon="9.2219670">
	<ele>1006.60</ele>
	<time>2025-02-15T09:39:18.000Z</time>
</trkpt>
<trkpt lat="45.8602710" lon="9.2219690">
	<ele>1006.80</ele>
	<time>2025-02-15T09:39:19.000Z</time>
</trkpt>
<trkpt lat="45.8602500" lon="9.2219740">
	<ele>1007.00</ele>
	<time>2025-02-15T09:39:20.000Z</time>
</trkpt>
<trkpt lat="45.8602460" lon="9.2219720">
	<ele>1007.20</ele>
	<time>2025-02-15T09:39:21.000Z</time>
</trkpt>
<trkpt lat="45.8602420" lon="9.2219700">
	<ele>1007.40</ele>
	<time>2025-02-15T09:39:22.000Z</time>
</trkpt>
<trkpt lat="45.8602400" lon="9.2219670">
	<ele>1007.40</ele>
	<time>2025-02-15T09:39:23.000Z</time>
</trkpt>
<trkpt lat="45.8602320" lon="9.2219590">
	<ele>1007.60</ele>
	<time>2025-02-15T09:39:24.000Z</time>
</trkpt>
<trkpt lat="45.8602290" lon="9.2219420">
	<ele>1007.80</ele>
	<time>2025-02-15T09:39:25.000Z</time>
</trkpt>
<trkpt lat="45.8602290" lon="9.2219350">
	<ele>1008.00</ele>
	<time>2025-02-15T09:39:26.000Z</time>
</trkpt>
<trkpt lat="45.8602270" lon="9.2219330">
	<ele>1008.20</ele>
	<time>2025-02-15T09:39:27.000Z</time>
</trkpt>
<trkpt lat="45.8602270" lon="9.2219300">
	<ele>1008.20</ele>
	<time>2025-02-15T09:39:28.000Z</time>
</trkpt>
<trkpt lat="45.8602210" lon="9.2219140">
	<ele>1008.60</ele>
	<time>2025-02-15T09:39:29.000Z</time>
</trkpt>
<trkpt lat="45.8602050" lon="9.2219040">
	<ele>1009.00</ele>
	<time>2025-02-15T09:39:30.000Z</time>
</trkpt>
<trkpt lat="45.8602010" lon="9.2219010">
	<ele>1009.00</ele>
	<time>2025-02-15T09:39:31.000Z</time>
</trkpt>
<trkpt lat="45.8601840" lon="9.2219000">
	<ele>1009.20</ele>
	<time>2025-02-15T09:39:32.000Z</time>
</trkpt>
<trkpt lat="45.8601690" lon="9.2218990">
	<ele>1009.20</ele>
	<time>2025-02-15T09:39:33.000Z</time>
</trkpt>
<trkpt lat="45.8601600" lon="9.2218930">
	<ele>1009.20</ele>
	<time>2025-02-15T09:39:34.000Z</time>
</trkpt>
<trkpt lat="45.8601550" lon="9.2218900">
	<ele>1009.40</ele>
	<time>2025-02-15T09:39:35.000Z</time>
</trkpt>
<trkpt lat="45.8601520" lon="9.2218890">
	<ele>1009.40</ele>
	<time>2025-02-15T09:39:36.000Z</time>
</trkpt>
<trkpt lat="45.8601500" lon="9.2218780">
	<ele>1009.60</ele>
	<time>2025-02-15T09:39:37.000Z</time>
</trkpt>
<trkpt lat="45.8601450" lon="9.2218650">
	<ele>1010.00</ele>
	<time>2025-02-15T09:39:38.000Z</time>
</trkpt>
<trkpt lat="45.8601420" lon="9.2218540">
	<ele>1010.20</ele>
	<time>2025-02-15T09:39:39.000Z</time>
</trkpt>
<trkpt lat="45.8601420" lon="9.2218420">
	<ele>1010.20</ele>
	<time>2025-02-15T09:39:40.000Z</time>
</trkpt>
<trkpt lat="45.8601380" lon="9.2218320">
	<ele>1010.20</ele>
	<time>2025-02-15T09:39:41.000Z</time>
</trkpt>
<trkpt lat="45.8601300" lon="9.2218260">
	<ele>1010.40</ele>
	<time>2025-02-15T09:39:42.000Z</time>
</trkpt>
<trkpt lat="45.8601280" lon="9.2218190">
	<ele>1010.60</ele>
	<time>2025-02-15T09:39:43.000Z</time>
</trkpt>
<trkpt lat="45.8601250" lon="9.2218120">
	<ele>1010.80</ele>
	<time>2025-02-15T09:39:44.000Z</time>
</trkpt>
<trkpt lat="45.8601230" lon="9.2218040">
	<ele>1011.00</ele>
	<time>2025-02-15T09:39:45.000Z</time>
</trkpt>
<trkpt lat="45.8601200" lon="9.2217970">
	<ele>1011.20</ele>
	<time>2025-02-15T09:39:46.000Z</time>
</trkpt>
<trkpt lat="45.8601180" lon="9.2217880">
	<ele>1011.20</ele>
	<time>2025-02-15T09:39:47.000Z</time>
</trkpt>
<trkpt lat="45.8601160" lon="9.2217790">
	<ele>1011.40</ele>
	<time>2025-02-15T09:39:48.000Z</time>
</trkpt>
<trkpt lat="45.8601130" lon="9.2217730">
	<ele>1011.40</ele>
	<time>2025-02-15T09:39:49.000Z</time>
</trkpt>
<trkpt lat="45.8601070" lon="9.2217690">
	<ele>1011.40</ele>
	<time>2025-02-15T09:39:50.000Z</time>
</trkpt>
<trkpt lat="45.8600960" lon="9.2217690">
	<ele>1011.60</ele>
	<time>2025-02-15T09:39:51.000Z</time>
</trkpt>
<trkpt lat="45.8600880" lon="9.2217610">
	<ele>1011.80</ele>
	<time>2025-02-15T09:39:52.000Z</time>
</trkpt>
<trkpt lat="45.8600850" lon="9.2217590">
	<ele>1012.00</ele>
	<time>2025-02-15T09:39:53.000Z</time>
</trkpt>
<trkpt lat="45.8600800" lon="9.2217550">
	<ele>1012.20</ele>
	<time>2025-02-15T09:39:54.000Z</time>
</trkpt>
<trkpt lat="45.8600770" lon="9.2217510">
	<ele>1012.40</ele>
	<time>2025-02-15T09:39:55.000Z</time>
</trkpt>
<trkpt lat="45.8600730" lon="9.2217490">
	<ele>1012.40</ele>
	<time>2025-02-15T09:39:56.000Z</time>
</trkpt>
<trkpt lat="45.8600680" lon="9.2217510">
	<ele>1012.60</ele>
	<time>2025-02-15T09:39:57.000Z</time>
</trkpt>
<trkpt lat="45.8600640" lon="9.2217470">
	<ele>1012.80</ele>
	<time>2025-02-15T09:39:58.000Z</time>
</trkpt>
<trkpt lat="45.8600580" lon="9.2217420">
	<ele>1013.00</ele>
	<time>2025-02-15T09:39:59.000Z</time>
</trkpt>
<trkpt lat="45.8600550" lon="9.2217380">
	<ele>1012.80</ele>
	<time>2025-02-15T09:40:00.000Z</time>
</trkpt>
<trkpt lat="45.8600530" lon="9.2217350">
	<ele>1013.00</ele>
	<time>2025-02-15T09:40:01.000Z</time>
</trkpt>
<trkpt lat="45.8600460" lon="9.2217310">
	<ele>1013.20</ele>
	<time>2025-02-15T09:40:02.000Z</time>
</trkpt>
<trkpt lat="45.8600430" lon="9.2217310">
	<ele>1013.20</ele>
	<time>2025-02-15T09:40:03.000Z</time>
</trkpt>
<trkpt lat="45.8600400" lon="9.2217230">
	<ele>1013.40</ele>
	<time>2025-02-15T09:40:04.000Z</time>
</trkpt>
<trkpt lat="45.8600340" lon="9.2217200">
	<ele>1013.60</ele>
	<time>2025-02-15T09:40:05.000Z</time>
</trkpt>
<trkpt lat="45.8600310" lon="9.2217210">
	<ele>1013.80</ele>
	<time>2025-02-15T09:40:06.000Z</time>
</trkpt>
<trkpt lat="45.8600290" lon="9.2217140">
	<ele>1013.80</ele>
	<time>2025-02-15T09:40:07.000Z</time>
</trkpt>
<trkpt lat="45.8600260" lon="9.2217110">
	<ele>1014.00</ele>
	<time>2025-02-15T09:40:08.000Z</time>
</trkpt>
<trkpt lat="45.8600200" lon="9.2217050">
	<ele>1014.00</ele>
	<time>2025-02-15T09:40:09.000Z</time>
</trkpt>
<trkpt lat="45.8600160" lon="9.2216980">
	<ele>1014.20</ele>
	<time>2025-02-15T09:40:10.000Z</time>
</trkpt>
<trkpt lat="45.8600090" lon="9.2216890">
	<ele>1014.40</ele>
	<time>2025-02-15T09:40:11.000Z</time>
</trkpt>
<trkpt lat="45.8600050" lon="9.2216850">
	<ele>1014.40</ele>
	<time>2025-02-15T09:40:12.000Z</time>
</trkpt>
<trkpt lat="45.8600020" lon="9.2216820">
	<ele>1014.60</ele>
	<time>2025-02-15T09:40:13.000Z</time>
</trkpt>
<trkpt lat="45.8599940" lon="9.2216770">
	<ele>1015.00</ele>
	<time>2025-02-15T09:40:14.000Z</time>
</trkpt>
<trkpt lat="45.8599900" lon="9.2216700">
	<ele>1015.20</ele>
	<time>2025-02-15T09:40:15.000Z</time>
</trkpt>
<trkpt lat="45.8599850" lon="9.2216660">
	<ele>1015.40</ele>
	<time>2025-02-15T09:40:16.000Z</time>
</trkpt>
<trkpt lat="45.8599820" lon="9.2216590">
	<ele>1015.60</ele>
	<time>2025-02-15T09:40:17.000Z</time>
</trkpt>
<trkpt lat="45.8599750" lon="9.2216570">
	<ele>1015.60</ele>
	<time>2025-02-15T09:40:18.000Z</time>
</trkpt>
<trkpt lat="45.8599680" lon="9.2216540">
	<ele>1015.80</ele>
	<time>2025-02-15T09:40:19.000Z</time>
</trkpt>
<trkpt lat="45.8599590" lon="9.2216530">
	<ele>1015.80</ele>
	<time>2025-02-15T09:40:20.000Z</time>
</trkpt>
<trkpt lat="45.8599540" lon="9.2216450">
	<ele>1016.00</ele>
	<time>2025-02-15T09:40:21.000Z</time>
</trkpt>
<trkpt lat="45.8599530" lon="9.2216400">
	<ele>1016.20</ele>
	<time>2025-02-15T09:40:22.000Z</time>
</trkpt>
<trkpt lat="45.8599500" lon="9.2216320">
	<ele>1016.20</ele>
	<time>2025-02-15T09:40:23.000Z</time>
</trkpt>
<trkpt lat="45.8599500" lon="9.2216280">
	<ele>1016.40</ele>
	<time>2025-02-15T09:40:24.000Z</time>
</trkpt>
<trkpt lat="45.8599540" lon="9.2216160">
	<ele>1016.80</ele>
	<time>2025-02-15T09:40:25.000Z</time>
</trkpt>
<trkpt lat="45.8599530" lon="9.2216120">
	<ele>1017.00</ele>
	<time>2025-02-15T09:40:26.000Z</time>
</trkpt>
<trkpt lat="45.8599540" lon="9.2216030">
	<ele>1017.20</ele>
	<time>2025-02-15T09:40:27.000Z</time>
</trkpt>
<trkpt lat="45.8599520" lon="9.2215970">
	<ele>1017.20</ele>
	<time>2025-02-15T09:40:28.000Z</time>
</trkpt>
<trkpt lat="45.8599470" lon="9.2215910">
	<ele>1017.40</ele>
	<time>2025-02-15T09:40:29.000Z</time>
</trkpt>
<trkpt lat="45.8599440" lon="9.2215850">
	<ele>1017.60</ele>
	<time>2025-02-15T09:40:30.000Z</time>
</trkpt>
<trkpt lat="45.8599410" lon="9.2215820">
	<ele>1017.60</ele>
	<time>2025-02-15T09:40:31.000Z</time>
</trkpt>
<trkpt lat="45.8599440" lon="9.2215760">
	<ele>1017.60</ele>
	<time>2025-02-15T09:40:32.000Z</time>
</trkpt>
<trkpt lat="45.8599400" lon="9.2215700">
	<ele>1017.80</ele>
	<time>2025-02-15T09:40:33.000Z</time>
</trkpt>
<trkpt lat="45.8599400" lon="9.2215610">
	<ele>1018.00</ele>
	<time>2025-02-15T09:40:34.000Z</time>
</trkpt>
<trkpt lat="45.8599340" lon="9.2215600">
	<ele>1018.00</ele>
	<time>2025-02-15T09:40:35.000Z</time>
</trkpt>
<trkpt lat="45.8599240" lon="9.2215610">
	<ele>1018.20</ele>
	<time>2025-02-15T09:40:36.000Z</time>
</trkpt>
<trkpt lat="45.8599100" lon="9.2215570">
	<ele>1018.20</ele>
	<time>2025-02-15T09:40:37.000Z</time>
</trkpt>
<trkpt lat="45.8599050" lon="9.2215560">
	<ele>1018.40</ele>
	<time>2025-02-15T09:40:38.000Z</time>
</trkpt>
<trkpt lat="45.8598990" lon="9.2215520">
	<ele>1018.60</ele>
	<time>2025-02-15T09:40:39.000Z</time>
</trkpt>
<trkpt lat="45.8598990" lon="9.2215480">
	<ele>1018.60</ele>
	<time>2025-02-15T09:40:40.000Z</time>
</trkpt>
<trkpt lat="45.8599000" lon="9.2215470">
	<ele>1018.80</ele>
	<time>2025-02-15T09:40:41.000Z</time>
</trkpt>
<trkpt lat="45.8599010" lon="9.2215470">
	<ele>1018.80</ele>
	<time>2025-02-15T09:40:42.000Z</time>
</trkpt>
<trkpt lat="45.8598990" lon="9.2215450">
	<ele>1018.80</ele>
	<time>2025-02-15T09:40:43.000Z</time>
</trkpt>
<trkpt lat="45.8598950" lon="9.2215420">
	<ele>1018.80</ele>
	<time>2025-02-15T09:40:44.000Z</time>
</trkpt>
<trkpt lat="45.8598910" lon="9.2215390">
	<ele>1019.00</ele>
	<time>2025-02-15T09:40:45.000Z</time>
</trkpt>
<trkpt lat="45.8598860" lon="9.2215340">
	<ele>1019.20</ele>
	<time>2025-02-15T09:40:46.000Z</time>
</trkpt>
<trkpt lat="45.8598830" lon="9.2215310">
	<ele>1019.20</ele>
	<time>2025-02-15T09:40:47.000Z</time>
</trkpt>
<trkpt lat="45.8598820" lon="9.2215290">
	<ele>1019.40</ele>
	<time>2025-02-15T09:40:48.000Z</time>
</trkpt>
<trkpt lat="45.8598700" lon="9.2215240">
	<ele>1019.40</ele>
	<time>2025-02-15T09:40:49.000Z</time>
</trkpt>
<trkpt lat="45.8598700" lon="9.2215220">
	<ele>1019.40</ele>
	<time>2025-02-15T09:40:50.000Z</time>
</trkpt>
<trkpt lat="45.8598660" lon="9.2215190">
	<ele>1019.40</ele>
	<time>2025-02-15T09:40:51.000Z</time>
</trkpt>
<trkpt lat="45.8598650" lon="9.2215190">
	<ele>1019.60</ele>
	<time>2025-02-15T09:40:52.000Z</time>
</trkpt>
<trkpt lat="45.8598580" lon="9.2215160">
	<ele>1019.80</ele>
	<time>2025-02-15T09:40:53.000Z</time>
</trkpt>
<trkpt lat="45.8598550" lon="9.2215110">
	<ele>1019.80</ele>
	<time>2025-02-15T09:40:54.000Z</time>
</trkpt>
<trkpt lat="45.8598530" lon="9.2215100">
	<ele>1020.20</ele>
	<time>2025-02-15T09:40:55.000Z</time>
</trkpt>
<trkpt lat="45.8598450" lon="9.2215050">
	<ele>1020.40</ele>
	<time>2025-02-15T09:40:56.000Z</time>
</trkpt>
<trkpt lat="45.8598420" lon="9.2215030">
	<ele>1020.60</ele>
	<time>2025-02-15T09:40:57.000Z</time>
</trkpt>
<trkpt lat="45.8598410" lon="9.2215010">
	<ele>1020.80</ele>
	<time>2025-02-15T09:40:58.000Z</time>
</trkpt>
<trkpt lat="45.8598460" lon="9.2214990">
	<ele>1021.00</ele>
	<time>2025-02-15T09:40:59.000Z</time>
</trkpt>
<trkpt lat="45.8598460" lon="9.2214980">
	<ele>1021.00</ele>
	<time>2025-02-15T09:41:00.000Z</time>
</trkpt>
<trkpt lat="45.8598370" lon="9.2214960">
	<ele>1021.00</ele>
	<time>2025-02-15T09:41:01.000Z</time>
</trkpt>
<trkpt lat="45.8598350" lon="9.2214940">
	<ele>1021.20</ele>
	<time>2025-02-15T09:41:02.000Z</time>
</trkpt>
<trkpt lat="45.8598350" lon="9.2214910">
	<ele>1021.40</ele>
	<time>2025-02-15T09:41:03.000Z</time>
</trkpt>
<trkpt lat="45.8598360" lon="9.2214880">
	<ele>1021.40</ele>
	<time>2025-02-15T09:41:04.000Z</time>
</trkpt>
<trkpt lat="45.8598240" lon="9.2214860">
	<ele>1021.40</ele>
	<time>2025-02-15T09:41:05.000Z</time>
</trkpt>
<trkpt lat="45.8598080" lon="9.2214840">
	<ele>1021.40</ele>
	<time>2025-02-15T09:41:06.000Z</time>
</trkpt>
<trkpt lat="45.8598020" lon="9.2214820">
	<ele>1021.80</ele>
	<time>2025-02-15T09:41:07.000Z</time>
</trkpt>
<trkpt lat="45.8597900" lon="9.2214770">
	<ele>1022.00</ele>
	<time>2025-02-15T09:41:08.000Z</time>
</trkpt>
<trkpt lat="45.8597800" lon="9.2214710">
	<ele>1022.00</ele>
	<time>2025-02-15T09:41:09.000Z</time>
</trkpt>
<trkpt lat="45.8597720" lon="9.2214690">
	<ele>1022.40</ele>
	<time>2025-02-15T09:41:10.000Z</time>
</trkpt>
<trkpt lat="45.8597630" lon="9.2214700">
	<ele>1022.60</ele>
	<time>2025-02-15T09:41:11.000Z</time>
</trkpt>
<trkpt lat="45.8597560" lon="9.2214650">
	<ele>1022.60</ele>
	<time>2025-02-15T09:41:12.000Z</time>
</trkpt>
<trkpt lat="45.8597510" lon="9.2214550">
	<ele>1022.80</ele>
	<time>2025-02-15T09:41:13.000Z</time>
</trkpt>
<trkpt lat="45.8597450" lon="9.2214460">
	<ele>1023.00</ele>
	<time>2025-02-15T09:41:14.000Z</time>
</trkpt>
<trkpt lat="45.8597450" lon="9.2214340">
	<ele>1023.20</ele>
	<time>2025-02-15T09:41:15.000Z</time>
</trkpt>
<trkpt lat="45.8597450" lon="9.2214300">
	<ele>1023.20</ele>
	<time>2025-02-15T09:41:16.000Z</time>
</trkpt>
<trkpt lat="45.8597480" lon="9.2214200">
	<ele>1023.40</ele>
	<time>2025-02-15T09:41:17.000Z</time>
</trkpt>
<trkpt lat="45.8597480" lon="9.2214150">
	<ele>1023.60</ele>
	<time>2025-02-15T09:41:18.000Z</time>
</trkpt>
<trkpt lat="45.8597450" lon="9.2214100">
	<ele>1023.80</ele>
	<time>2025-02-15T09:41:19.000Z</time>
</trkpt>
<trkpt lat="45.8597470" lon="9.2214030">
	<ele>1023.80</ele>
	<time>2025-02-15T09:41:20.000Z</time>
</trkpt>
<trkpt lat="45.8597470" lon="9.2213910">
	<ele>1024.00</ele>
	<time>2025-02-15T09:41:21.000Z</time>
</trkpt>
<trkpt lat="45.8597460" lon="9.2213870">
	<ele>1024.00</ele>
	<time>2025-02-15T09:41:22.000Z</time>
</trkpt>
<trkpt lat="45.8597450" lon="9.2213850">
	<ele>1024.00</ele>
	<time>2025-02-15T09:41:23.000Z</time>
</trkpt>
<trkpt lat="45.8597320" lon="9.2213750">
	<ele>1024.20</ele>
	<time>2025-02-15T09:41:24.000Z</time>
</trkpt>
<trkpt lat="45.8597280" lon="9.2213680">
	<ele>1024.20</ele>
	<time>2025-02-15T09:41:25.000Z</time>
</trkpt>
<trkpt lat="45.8597260" lon="9.2213590">
	<ele>1024.60</ele>
	<time>2025-02-15T09:41:26.000Z</time>
</trkpt>
<trkpt lat="45.8597260" lon="9.2213450">
	<ele>1024.80</ele>
	<time>2025-02-15T09:41:27.000Z</time>
</trkpt>
<trkpt lat="45.8597230" lon="9.2213310">
	<ele>1025.00</ele>
	<time>2025-02-15T09:41:28.000Z</time>
</trkpt>
<trkpt lat="45.8597160" lon="9.2213260">
	<ele>1025.00</ele>
	<time>2025-02-15T09:41:29.000Z</time>
</trkpt>
<trkpt lat="45.8597140" lon="9.2213260">
	<ele>1025.20</ele>
	<time>2025-02-15T09:41:30.000Z</time>
</trkpt>
<trkpt lat="45.8597080" lon="9.2213280">
	<ele>1025.20</ele>
	<time>2025-02-15T09:41:31.000Z</time>
</trkpt>
<trkpt lat="45.8596970" lon="9.2213320">
	<ele>1025.20</ele>
	<time>2025-02-15T09:41:32.000Z</time>
</trkpt>
<trkpt lat="45.8596900" lon="9.2213380">
	<ele>1025.40</ele>
	<time>2025-02-15T09:41:33.000Z</time>
</trkpt>
<trkpt lat="45.8596780" lon="9.2213380">
	<ele>1025.40</ele>
	<time>2025-02-15T09:41:34.000Z</time>
</trkpt>
<trkpt lat="45.8596730" lon="9.2213340">
	<ele>1025.60</ele>
	<time>2025-02-15T09:41:35.000Z</time>
</trkpt>
<trkpt lat="45.8596680" lon="9.2213320">
	<ele>1025.80</ele>
	<time>2025-02-15T09:41:36.000Z</time>
</trkpt>
<trkpt lat="45.8596650" lon="9.2213310">
	<ele>1026.00</ele>
	<time>2025-02-15T09:41:37.000Z</time>
</trkpt>
<trkpt lat="45.8596590" lon="9.2213250">
	<ele>1026.20</ele>
	<time>2025-02-15T09:41:38.000Z</time>
</trkpt>
<trkpt lat="45.8596520" lon="9.2213190">
	<ele>1026.40</ele>
	<time>2025-02-15T09:41:39.000Z</time>
</trkpt>
<trkpt lat="45.8596440" lon="9.2213150">
	<ele>1026.60</ele>
	<time>2025-02-15T09:41:40.000Z</time>
</trkpt>
<trkpt lat="45.8596390" lon="9.2213160">
	<ele>1027.00</ele>
	<time>2025-02-15T09:41:41.000Z</time>
</trkpt>
<trkpt lat="45.8596340" lon="9.2213160">
	<ele>1027.20</ele>
	<time>2025-02-15T09:41:42.000Z</time>
</trkpt>
<trkpt lat="45.8596300" lon="9.2213110">
	<ele>1027.40</ele>
	<time>2025-02-15T09:41:43.000Z</time>
</trkpt>
<trkpt lat="45.8596270" lon="9.2212990">
	<ele>1027.60</ele>
	<time>2025-02-15T09:41:44.000Z</time>
</trkpt>
<trkpt lat="45.8596270" lon="9.2212930">
	<ele>1027.60</ele>
	<time>2025-02-15T09:41:45.000Z</time>
</trkpt>
<trkpt lat="45.8596270" lon="9.2212770">
	<ele>1027.80</ele>
	<time>2025-02-15T09:41:46.000Z</time>
</trkpt>
<trkpt lat="45.8596230" lon="9.2212640">
	<ele>1027.80</ele>
	<time>2025-02-15T09:41:47.000Z</time>
</trkpt>
<trkpt lat="45.8596190" lon="9.2212540">
	<ele>1027.80</ele>
	<time>2025-02-15T09:41:48.000Z</time>
</trkpt>
<trkpt lat="45.8596110" lon="9.2212490">
	<ele>1027.80</ele>
	<time>2025-02-15T09:41:49.000Z</time>
</trkpt>
<trkpt lat="45.8596100" lon="9.2212440">
	<ele>1027.80</ele>
	<time>2025-02-15T09:41:50.000Z</time>
</trkpt>
<trkpt lat="45.8596100" lon="9.2212390">
	<ele>1028.20</ele>
	<time>2025-02-15T09:41:51.000Z</time>
</trkpt>
<trkpt lat="45.8596050" lon="9.2212380">
	<ele>1028.60</ele>
	<time>2025-02-15T09:41:52.000Z</time>
</trkpt>
<trkpt lat="45.8596020" lon="9.2212290">
	<ele>1028.80</ele>
	<time>2025-02-15T09:41:53.000Z</time>
</trkpt>
<trkpt lat="45.8596050" lon="9.2212240">
	<ele>1029.00</ele>
	<time>2025-02-15T09:41:54.000Z</time>
</trkpt>
<trkpt lat="45.8596050" lon="9.2212140">
	<ele>1029.20</ele>
	<time>2025-02-15T09:41:55.000Z</time>
</trkpt>
<trkpt lat="45.8596030" lon="9.2212040">
	<ele>1029.20</ele>
	<time>2025-02-15T09:41:56.000Z</time>
</trkpt>
<trkpt lat="45.8595950" lon="9.2211930">
	<ele>1029.40</ele>
	<time>2025-02-15T09:41:57.000Z</time>
</trkpt>
<trkpt lat="45.8595920" lon="9.2211900">
	<ele>1029.40</ele>
	<time>2025-02-15T09:41:58.000Z</time>
</trkpt>
<trkpt lat="45.8595940" lon="9.2211860">
	<ele>1029.60</ele>
	<time>2025-02-15T09:41:59.000Z</time>
</trkpt>
<trkpt lat="45.8595950" lon="9.2211820">
	<ele>1029.60</ele>
	<time>2025-02-15T09:42:00.000Z</time>
</trkpt>
<trkpt lat="45.8595950" lon="9.2211800">
	<ele>1029.80</ele>
	<time>2025-02-15T09:42:01.000Z</time>
</trkpt>
<trkpt lat="45.8596020" lon="9.2211720">
	<ele>1029.80</ele>
	<time>2025-02-15T09:42:02.000Z</time>
</trkpt>
<trkpt lat="45.8596070" lon="9.2211640">
	<ele>1030.20</ele>
	<time>2025-02-15T09:42:03.000Z</time>
</trkpt>
<trkpt lat="45.8596070" lon="9.2211580">
	<ele>1030.40</ele>
	<time>2025-02-15T09:42:04.000Z</time>
</trkpt>
<trkpt lat="45.8596090" lon="9.2211520">
	<ele>1030.60</ele>
	<time>2025-02-15T09:42:05.000Z</time>
</trkpt>
<trkpt lat="45.8596130" lon="9.2211490">
	<ele>1030.60</ele>
	<time>2025-02-15T09:42:06.000Z</time>
</trkpt>
<trkpt lat="45.8596160" lon="9.2211460">
	<ele>1030.80</ele>
	<time>2025-02-15T09:42:07.000Z</time>
</trkpt>
<trkpt lat="45.8596180" lon="9.2211460">
	<ele>1030.80</ele>
	<time>2025-02-15T09:42:08.000Z</time>
</trkpt>
<trkpt lat="45.8596230" lon="9.2211430">
	<ele>1031.00</ele>
	<time>2025-02-15T09:42:09.000Z</time>
</trkpt>
<trkpt lat="45.8596250" lon="9.2211410">
	<ele>1031.00</ele>
	<time>2025-02-15T09:42:10.000Z</time>
</trkpt>
<trkpt lat="45.8596260" lon="9.2211360">
	<ele>1031.20</ele>
	<time>2025-02-15T09:42:11.000Z</time>
</trkpt>
<trkpt lat="45.8596290" lon="9.2211240">
	<ele>1031.20</ele>
	<time>2025-02-15T09:42:12.000Z</time>
</trkpt>
<trkpt lat="45.8596350" lon="9.2211130">
	<ele>1031.60</ele>
	<time>2025-02-15T09:42:13.000Z</time>
</trkpt>
<trkpt lat="45.8596430" lon="9.2211060">
	<ele>1031.60</ele>
	<time>2025-02-15T09:42:14.000Z</time>
</trkpt>
<trkpt lat="45.8596470" lon="9.2211050">
	<ele>1031.80</ele>
	<time>2025-02-15T09:42:15.000Z</time>
</trkpt>
<trkpt lat="45.8596520" lon="9.2211010">
	<ele>1031.80</ele>
	<time>2025-02-15T09:42:16.000Z</time>
</trkpt>
<trkpt lat="45.8596580" lon="9.2211050">
	<ele>1031.80</ele>
	<time>2025-02-15T09:42:17.000Z</time>
</trkpt>
<trkpt lat="45.8596660" lon="9.2211110">
	<ele>1032.20</ele>
	<time>2025-02-15T09:42:18.000Z</time>
</trkpt>
<trkpt lat="45.8596700" lon="9.2211190">
	<ele>1032.20</ele>
	<time>2025-02-15T09:42:19.000Z</time>
</trkpt>
<trkpt lat="45.8596730" lon="9.2211170">
	<ele>1032.20</ele>
	<time>2025-02-15T09:42:20.000Z</time>
</trkpt>
<trkpt lat="45.8596750" lon="9.2211140">
	<ele>1032.40</ele>
	<time>2025-02-15T09:42:21.000Z</time>
</trkpt>
<trkpt lat="45.8596820" lon="9.2211040">
	<ele>1032.40</ele>
	<time>2025-02-15T09:42:22.000Z</time>
</trkpt>
<trkpt lat="45.8596880" lon="9.2210900">
	<ele>1032.40</ele>
	<time>2025-02-15T09:42:23.000Z</time>
</trkpt>
<trkpt lat="45.8596890" lon="9.2210820">
	<ele>1032.60</ele>
	<time>2025-02-15T09:42:24.000Z</time>
</trkpt>
<trkpt lat="45.8596850" lon="9.2210730">
	<ele>1032.80</ele>
	<time>2025-02-15T09:42:25.000Z</time>
</trkpt>
<trkpt lat="45.8596840" lon="9.2210690">
	<ele>1033.00</ele>
	<time>2025-02-15T09:42:26.000Z</time>
</trkpt>
<trkpt lat="45.8596840" lon="9.2210660">
	<ele>1033.20</ele>
	<time>2025-02-15T09:42:27.000Z</time>
</trkpt>
<trkpt lat="45.8596870" lon="9.2210530">
	<ele>1033.40</ele>
	<time>2025-02-15T09:42:28.000Z</time>
</trkpt>
<trkpt lat="45.8596890" lon="9.2210400">
	<ele>1033.60</ele>
	<time>2025-02-15T09:42:29.000Z</time>
</trkpt>
<trkpt lat="45.8596920" lon="9.2210350">
	<ele>1033.60</ele>
	<time>2025-02-15T09:42:30.000Z</time>
</trkpt>
<trkpt lat="45.8596910" lon="9.2210290">
	<ele>1033.80</ele>
	<time>2025-02-15T09:42:31.000Z</time>
</trkpt>
<trkpt lat="45.8596920" lon="9.2210250">
	<ele>1033.80</ele>
	<time>2025-02-15T09:42:32.000Z</time>
</trkpt>
<trkpt lat="45.8596960" lon="9.2210160">
	<ele>1033.80</ele>
	<time>2025-02-15T09:42:33.000Z</time>
</trkpt>
<trkpt lat="45.8596970" lon="9.2210040">
	<ele>1034.00</ele>
	<time>2025-02-15T09:42:34.000Z</time>
</trkpt>
<trkpt lat="45.8596950" lon="9.2209980">
	<ele>1034.00</ele>
	<time>2025-02-15T09:42:35.000Z</time>
</trkpt>
<trkpt lat="45.8596970" lon="9.2209940">
	<ele>1034.00</ele>
	<time>2025-02-15T09:42:36.000Z</time>
</trkpt>
<trkpt lat="45.8596950" lon="9.2209840">
	<ele>1034.00</ele>
	<time>2025-02-15T09:42:37.000Z</time>
</trkpt>
<trkpt lat="45.8596960" lon="9.2209800">
	<ele>1034.20</ele>
	<time>2025-02-15T09:42:38.000Z</time>
</trkpt>
<trkpt lat="45.8596870" lon="9.2209710">
	<ele>1034.20</ele>
	<time>2025-02-15T09:42:39.000Z</time>
</trkpt>
<trkpt lat="45.8596780" lon="9.2209570">
	<ele>1034.40</ele>
	<time>2025-02-15T09:42:40.000Z</time>
</trkpt>
<trkpt lat="45.8596760" lon="9.2209400">
	<ele>1034.60</ele>
	<time>2025-02-15T09:42:41.000Z</time>
</trkpt>
<trkpt lat="45.8596750" lon="9.2209360">
	<ele>1034.80</ele>
	<time>2025-02-15T09:42:42.000Z</time>
</trkpt>
<trkpt lat="45.8596750" lon="9.2209310">
	<ele>1035.00</ele>
	<time>2025-02-15T09:42:43.000Z</time>
</trkpt>
<trkpt lat="45.8596800" lon="9.2209060">
	<ele>1035.20</ele>
	<time>2025-02-15T09:42:44.000Z</time>
</trkpt>
<trkpt lat="45.8596770" lon="9.2208890">
	<ele>1035.20</ele>
	<time>2025-02-15T09:42:45.000Z</time>
</trkpt>
<trkpt lat="45.8596720" lon="9.2208810">
	<ele>1035.40</ele>
	<time>2025-02-15T09:42:46.000Z</time>
</trkpt>
<trkpt lat="45.8596710" lon="9.2208750">
	<ele>1035.60</ele>
	<time>2025-02-15T09:42:47.000Z</time>
</trkpt>
<trkpt lat="45.8596690" lon="9.2208720">
	<ele>1035.80</ele>
	<time>2025-02-15T09:42:48.000Z</time>
</trkpt>
<trkpt lat="45.8596680" lon="9.2208600">
	<ele>1036.20</ele>
	<time>2025-02-15T09:42:49.000Z</time>
</trkpt>
<trkpt lat="45.8596680" lon="9.2208530">
	<ele>1036.40</ele>
	<time>2025-02-15T09:42:50.000Z</time>
</trkpt>
<trkpt lat="45.8596680" lon="9.2208480">
	<ele>1036.40</ele>
	<time>2025-02-15T09:42:51.000Z</time>
</trkpt>
<trkpt lat="45.8596710" lon="9.2208380">
	<ele>1036.80</ele>
	<time>2025-02-15T09:42:52.000Z</time>
</trkpt>
<trkpt lat="45.8596690" lon="9.2208370">
	<ele>1037.00</ele>
	<time>2025-02-15T09:42:53.000Z</time>
</trkpt>
<trkpt lat="45.8596690" lon="9.2208370">
	<ele>1037.20</ele>
	<time>2025-02-15T09:42:54.000Z</time>
</trkpt>
<trkpt lat="45.8596700" lon="9.2208260">
	<ele>1037.20</ele>
	<time>2025-02-15T09:42:55.000Z</time>
</trkpt>
<trkpt lat="45.8596680" lon="9.2208140">
	<ele>1037.40</ele>
	<time>2025-02-15T09:42:56.000Z</time>
</trkpt>
<trkpt lat="45.8596630" lon="9.2208040">
	<ele>1037.40</ele>
	<time>2025-02-15T09:42:57.000Z</time>
</trkpt>
<trkpt lat="45.8596610" lon="9.2207900">
	<ele>1037.40</ele>
	<time>2025-02-15T09:42:58.000Z</time>
</trkpt>
<trkpt lat="45.8596590" lon="9.2207910">
	<ele>1037.60</ele>
	<time>2025-02-15T09:42:59.000Z</time>
</trkpt>
<trkpt lat="45.8596570" lon="9.2207930">
	<ele>1037.80</ele>
	<time>2025-02-15T09:43:00.000Z</time>
</trkpt>
<trkpt lat="45.8596500" lon="9.2207970">
	<ele>1037.80</ele>
	<time>2025-02-15T09:43:01.000Z</time>
</trkpt>
<trkpt lat="45.8596460" lon="9.2208010">
	<ele>1038.00</ele>
	<time>2025-02-15T09:43:02.000Z</time>
</trkpt>
<trkpt lat="45.8596420" lon="9.2208040">
	<ele>1038.20</ele>
	<time>2025-02-15T09:43:03.000Z</time>
</trkpt>
<trkpt lat="45.8596310" lon="9.2207990">
	<ele>1038.40</ele>
	<time>2025-02-15T09:43:04.000Z</time>
</trkpt>
<trkpt lat="45.8596200" lon="9.2208020">
	<ele>1038.60</ele>
	<time>2025-02-15T09:43:05.000Z</time>
</trkpt>
<trkpt lat="45.8596100" lon="9.2208060">
	<ele>1038.80</ele>
	<time>2025-02-15T09:43:06.000Z</time>
</trkpt>
<trkpt lat="45.8595980" lon="9.2208020">
	<ele>1038.80</ele>
	<time>2025-02-15T09:43:07.000Z</time>
</trkpt>
<trkpt lat="45.8595910" lon="9.2208020">
	<ele>1039.00</ele>
	<time>2025-02-15T09:43:08.000Z</time>
</trkpt>
<trkpt lat="45.8595860" lon="9.2208060">
	<ele>1039.00</ele>
	<time>2025-02-15T09:43:09.000Z</time>
</trkpt>
<trkpt lat="45.8595850" lon="9.2208120">
	<ele>1039.20</ele>
	<time>2025-02-15T09:43:10.000Z</time>
</trkpt>
<trkpt lat="45.8595820" lon="9.2208190">
	<ele>1039.40</ele>
	<time>2025-02-15T09:43:11.000Z</time>
</trkpt>
<trkpt lat="45.8595870" lon="9.2208320">
	<ele>1039.60</ele>
	<time>2025-02-15T09:43:12.000Z</time>
</trkpt>
<trkpt lat="45.8595890" lon="9.2208350">
	<ele>1039.80</ele>
	<time>2025-02-15T09:43:13.000Z</time>
</trkpt>
<trkpt lat="45.8595910" lon="9.2208340">
	<ele>1039.80</ele>
	<time>2025-02-15T09:43:14.000Z</time>
</trkpt>
<trkpt lat="45.8595970" lon="9.2208400">
	<ele>1040.00</ele>
	<time>2025-02-15T09:43:15.000Z</time>
</trkpt>
<trkpt lat="45.8595990" lon="9.2208360">
	<ele>1040.20</ele>
	<time>2025-02-15T09:43:16.000Z</time>
</trkpt>
<trkpt lat="45.8596010" lon="9.2208350">
	<ele>1040.40</ele>
	<time>2025-02-15T09:43:17.000Z</time>
</trkpt>
<trkpt lat="45.8596020" lon="9.2208180">
	<ele>1040.60</ele>
	<time>2025-02-15T09:43:18.000Z</time>
</trkpt>
<trkpt lat="45.8596020" lon="9.2208040">
	<ele>1040.60</ele>
	<time>2025-02-15T09:43:19.000Z</time>
</trkpt>
<trkpt lat="45.8596010" lon="9.2207990">
	<ele>1040.60</ele>
	<time>2025-02-15T09:43:20.000Z</time>
</trkpt>
<trkpt lat="45.8595990" lon="9.2207970">
	<ele>1040.60</ele>
	<time>2025-02-15T09:43:21.000Z</time>
</trkpt>
<trkpt lat="45.8596030" lon="9.2207910">
	<ele>1040.80</ele>
	<time>2025-02-15T09:43:22.000Z</time>
</trkpt>
<trkpt lat="45.8596050" lon="9.2207840">
	<ele>1041.00</ele>
	<time>2025-02-15T09:43:23.000Z</time>
</trkpt>
<trkpt lat="45.8596070" lon="9.2207740">
	<ele>1041.00</ele>
	<time>2025-02-15T09:43:24.000Z</time>
</trkpt>
<trkpt lat="45.8596040" lon="9.2207650">
	<ele>1041.00</ele>
	<time>2025-02-15T09:43:25.000Z</time>
</trkpt>
<trkpt lat="45.8596010" lon="9.2207580">
	<ele>1041.20</ele>
	<time>2025-02-15T09:43:26.000Z</time>
</trkpt>
<trkpt lat="45.8596010" lon="9.2207480">
	<ele>1041.40</ele>
	<time>2025-02-15T09:43:27.000Z</time>
</trkpt>
<trkpt lat="45.8596020" lon="9.2207420">
	<ele>1041.80</ele>
	<time>2025-02-15T09:43:28.000Z</time>
</trkpt>
<trkpt lat="45.8596000" lon="9.2207340">
	<ele>1042.00</ele>
	<time>2025-02-15T09:43:29.000Z</time>
</trkpt>
<trkpt lat="45.8596020" lon="9.2207270">
	<ele>1042.20</ele>
	<time>2025-02-15T09:43:30.000Z</time>
</trkpt>
<trkpt lat="45.8596030" lon="9.2207220">
	<ele>1042.40</ele>
	<time>2025-02-15T09:43:31.000Z</time>
</trkpt>
<trkpt lat="45.8596020" lon="9.2207180">
	<ele>1042.40</ele>
	<time>2025-02-15T09:43:32.000Z</time>
</trkpt>
<trkpt lat="45.8596040" lon="9.2207040">
	<ele>1042.60</ele>
	<time>2025-02-15T09:43:33.000Z</time>
</trkpt>
<trkpt lat="45.8596030" lon="9.2206960">
	<ele>1042.60</ele>
	<time>2025-02-15T09:43:34.000Z</time>
</trkpt>
<trkpt lat="45.8596050" lon="9.2206850">
	<ele>1042.80</ele>
	<time>2025-02-15T09:43:35.000Z</time>
</trkpt>
<trkpt lat="45.8596050" lon="9.2206820">
	<ele>1043.00</ele>
	<time>2025-02-15T09:43:36.000Z</time>
</trkpt>
<trkpt lat="45.8596070" lon="9.2206780">
	<ele>1043.00</ele>
	<time>2025-02-15T09:43:37.000Z</time>
</trkpt>
<trkpt lat="45.8596090" lon="9.2206730">
	<ele>1043.00</ele>
	<time>2025-02-15T09:43:38.000Z</time>
</trkpt>
<trkpt lat="45.8596110" lon="9.2206690">
	<ele>1043.00</ele>
	<time>2025-02-15T09:43:39.000Z</time>
</trkpt>
<trkpt lat="45.8596110" lon="9.2206610">
	<ele>1043.20</ele>
	<time>2025-02-15T09:43:40.000Z</time>
</trkpt>
<trkpt lat="45.8596120" lon="9.2206490">
	<ele>1043.40</ele>
	<time>2025-02-15T09:43:41.000Z</time>
</trkpt>
<trkpt lat="45.8596180" lon="9.2206360">
	<ele>1043.60</ele>
	<time>2025-02-15T09:43:42.000Z</time>
</trkpt>
<trkpt lat="45.8596200" lon="9.2206240">
	<ele>1043.80</ele>
	<time>2025-02-15T09:43:43.000Z</time>
</trkpt>
<trkpt lat="45.8596210" lon="9.2206080">
	<ele>1044.00</ele>
	<time>2025-02-15T09:43:44.000Z</time>
</trkpt>
<trkpt lat="45.8596230" lon="9.2205880">
	<ele>1044.20</ele>
	<time>2025-02-15T09:43:45.000Z</time>
</trkpt>
<trkpt lat="45.8596220" lon="9.2205810">
	<ele>1044.20</ele>
	<time>2025-02-15T09:43:46.000Z</time>
</trkpt>
<trkpt lat="45.8596200" lon="9.2205750">
	<ele>1044.20</ele>
	<time>2025-02-15T09:43:47.000Z</time>
</trkpt>
<trkpt lat="45.8596160" lon="9.2205640">
	<ele>1044.40</ele>
	<time>2025-02-15T09:43:48.000Z</time>
</trkpt>
<trkpt lat="45.8596060" lon="9.2205600">
	<ele>1044.60</ele>
	<time>2025-02-15T09:43:49.000Z</time>
</trkpt>
<trkpt lat="45.8596050" lon="9.2205630">
	<ele>1044.80</ele>
	<time>2025-02-15T09:43:50.000Z</time>
</trkpt>
<trkpt lat="45.8595950" lon="9.2205650">
	<ele>1045.00</ele>
	<time>2025-02-15T09:43:51.000Z</time>
</trkpt>
<trkpt lat="45.8595940" lon="9.2205690">
	<ele>1045.20</ele>
	<time>2025-02-15T09:43:52.000Z</time>
</trkpt>
<trkpt lat="45.8595930" lon="9.2205740">
	<ele>1045.20</ele>
	<time>2025-02-15T09:43:53.000Z</time>
</trkpt>
<trkpt lat="45.8595860" lon="9.2205760">
	<ele>1045.20</ele>
	<time>2025-02-15T09:43:54.000Z</time>
</trkpt>
<trkpt lat="45.8595790" lon="9.2205790">
	<ele>1045.40</ele>
	<time>2025-02-15T09:43:55.000Z</time>
</trkpt>
<trkpt lat="45.8595700" lon="9.2205820">
	<ele>1045.40</ele>
	<time>2025-02-15T09:43:56.000Z</time>
</trkpt>
<trkpt lat="45.8595600" lon="9.2205870">
	<ele>1045.60</ele>
	<time>2025-02-15T09:43:57.000Z</time>
</trkpt>
<trkpt lat="45.8595490" lon="9.2205950">
	<ele>1045.80</ele>
	<time>2025-02-15T09:43:58.000Z</time>
</trkpt>
<trkpt lat="45.8595410" lon="9.2205980">
	<ele>1045.80</ele>
	<time>2025-02-15T09:43:59.000Z</time>
</trkpt>
<trkpt lat="45.8595300" lon="9.2206010">
	<ele>1046.00</ele>
	<time>2025-02-15T09:44:00.000Z</time>
</trkpt>
<trkpt lat="45.8595190" lon="9.2206000">
	<ele>1046.00</ele>
	<time>2025-02-15T09:44:01.000Z</time>
</trkpt>
<trkpt lat="45.8595100" lon="9.2206020">
	<ele>1046.20</ele>
	<time>2025-02-15T09:44:02.000Z</time>
</trkpt>
<trkpt lat="45.8595060" lon="9.2206030">
	<ele>1046.20</ele>
	<time>2025-02-15T09:44:03.000Z</time>
</trkpt>
<trkpt lat="45.8595020" lon="9.2206030">
	<ele>1046.40</ele>
	<time>2025-02-15T09:44:04.000Z</time>
</trkpt>
<trkpt lat="45.8594990" lon="9.2206040">
	<ele>1046.40</ele>
	<time>2025-02-15T09:44:05.000Z</time>
</trkpt>
<trkpt lat="45.8594910" lon="9.2205980">
	<ele>1046.40</ele>
	<time>2025-02-15T09:44:06.000Z</time>
</trkpt>
<trkpt lat="45.8594810" lon="9.2205950">
	<ele>1046.40</ele>
	<time>2025-02-15T09:44:07.000Z</time>
</trkpt>
<trkpt lat="45.8594770" lon="9.2205980">
	<ele>1046.60</ele>
	<time>2025-02-15T09:44:08.000Z</time>
</trkpt>
<trkpt lat="45.8594750" lon="9.2205980">
	<ele>1046.60</ele>
	<time>2025-02-15T09:44:09.000Z</time>
</trkpt>
<trkpt lat="45.8594730" lon="9.2206000">
	<ele>1046.80</ele>
	<time>2025-02-15T09:44:10.000Z</time>
</trkpt>
<trkpt lat="45.8594620" lon="9.2206020">
	<ele>1047.00</ele>
	<time>2025-02-15T09:44:11.000Z</time>
</trkpt>
<trkpt lat="45.8594540" lon="9.2206060">
	<ele>1047.20</ele>
	<time>2025-02-15T09:44:12.000Z</time>
</trkpt>
<trkpt lat="45.8594410" lon="9.2206080">
	<ele>1047.60</ele>
	<time>2025-02-15T09:44:13.000Z</time>
</trkpt>
<trkpt lat="45.8594390" lon="9.2206140">
	<ele>1047.60</ele>
	<time>2025-02-15T09:44:14.000Z</time>
</trkpt>
<trkpt lat="45.8594330" lon="9.2206220">
	<ele>1047.80</ele>
	<time>2025-02-15T09:44:15.000Z</time>
</trkpt>
<trkpt lat="45.8594270" lon="9.2206250">
	<ele>1047.80</ele>
	<time>2025-02-15T09:44:16.000Z</time>
</trkpt>
<trkpt lat="45.8594240" lon="9.2206190">
	<ele>1048.00</ele>
	<time>2025-02-15T09:44:17.000Z</time>
</trkpt>
<trkpt lat="45.8594210" lon="9.2206140">
	<ele>1048.00</ele>
	<time>2025-02-15T09:44:18.000Z</time>
</trkpt>
<trkpt lat="45.8594150" lon="9.2206070">
	<ele>1048.20</ele>
	<time>2025-02-15T09:44:19.000Z</time>
</trkpt>
<trkpt lat="45.8594110" lon="9.2206050">
	<ele>1048.20</ele>
	<time>2025-02-15T09:44:20.000Z</time>
</trkpt>
<trkpt lat="45.8594000" lon="9.2206020">
	<ele>1048.40</ele>
	<time>2025-02-15T09:44:21.000Z</time>
</trkpt>
<trkpt lat="45.8593930" lon="9.2205960">
	<ele>1048.60</ele>
	<time>2025-02-15T09:44:22.000Z</time>
</trkpt>
<trkpt lat="45.8593820" lon="9.2205910">
	<ele>1048.60</ele>
	<time>2025-02-15T09:44:23.000Z</time>
</trkpt>
<trkpt lat="45.8593700" lon="9.2205860">
	<ele>1048.80</ele>
	<time>2025-02-15T09:44:24.000Z</time>
</trkpt>
<trkpt lat="45.8593660" lon="9.2205840">
	<ele>1048.80</ele>
	<time>2025-02-15T09:44:25.000Z</time>
</trkpt>
<trkpt lat="45.8593600" lon="9.2205850">
	<ele>1049.20</ele>
	<time>2025-02-15T09:44:26.000Z</time>
</trkpt>
<trkpt lat="45.8593520" lon="9.2205890">
	<ele>1049.20</ele>
	<time>2025-02-15T09:44:27.000Z</time>
</trkpt>
<trkpt lat="45.8593470" lon="9.2205900">
	<ele>1049.40</ele>
	<time>2025-02-15T09:44:28.000Z</time>
</trkpt>
<trkpt lat="45.8593320" lon="9.2205920">
	<ele>1049.60</ele>
	<time>2025-02-15T09:44:29.000Z</time>
</trkpt>
<trkpt lat="45.8593220" lon="9.2205960">
	<ele>1049.80</ele>
	<time>2025-02-15T09:44:30.000Z</time>
</trkpt>
<trkpt lat="45.8593190" lon="9.2206010">
	<ele>1049.80</ele>
	<time>2025-02-15T09:44:31.000Z</time>
</trkpt>
<trkpt lat="45.8593140" lon="9.2206110">
	<ele>1050.00</ele>
	<time>2025-02-15T09:44:32.000Z</time>
</trkpt>
<trkpt lat="45.8593070" lon="9.2206130">
	<ele>1050.20</ele>
	<time>2025-02-15T09:44:33.000Z</time>
</trkpt>
<trkpt lat="45.8593030" lon="9.2206130">
	<ele>1050.40</ele>
	<time>2025-02-15T09:44:34.000Z</time>
</trkpt>
<trkpt lat="45.8592960" lon="9.2206040">
	<ele>1050.40</ele>
	<time>2025-02-15T09:44:35.000Z</time>
</trkpt>
<trkpt lat="45.8592860" lon="9.2205950">
	<ele>1050.60</ele>
	<time>2025-02-15T09:44:36.000Z</time>
</trkpt>
<trkpt lat="45.8592720" lon="9.2205930">
	<ele>1050.60</ele>
	<time>2025-02-15T09:44:37.000Z</time>
</trkpt>
<trkpt lat="45.8592700" lon="9.2205950">
	<ele>1050.60</ele>
	<time>2025-02-15T09:44:38.000Z</time>
</trkpt>
<trkpt lat="45.8592560" lon="9.2205900">
	<ele>1050.80</ele>
	<time>2025-02-15T09:44:39.000Z</time>
</trkpt>
<trkpt lat="45.8592360" lon="9.2205840">
	<ele>1051.00</ele>
	<time>2025-02-15T09:44:40.000Z</time>
</trkpt>
<trkpt lat="45.8592180" lon="9.2205790">
	<ele>1051.20</ele>
	<time>2025-02-15T09:44:41.000Z</time>
</trkpt>
<trkpt lat="45.8592220" lon="9.2205760">
	<ele>1051.40</ele>
	<time>2025-02-15T09:44:42.000Z</time>
</trkpt>
<trkpt lat="45.8592230" lon="9.2205730">
	<ele>1051.60</ele>
	<time>2025-02-15T09:44:43.000Z</time>
</trkpt>
<trkpt lat="45.8592210" lon="9.2205700">
	<ele>1051.60</ele>
	<time>2025-02-15T09:44:44.000Z</time>
</trkpt>
<trkpt lat="45.8592180" lon="9.2205670">
	<ele>1051.80</ele>
	<time>2025-02-15T09:44:45.000Z</time>
</trkpt>
<trkpt lat="45.8592060" lon="9.2205590">
	<ele>1052.00</ele>
	<time>2025-02-15T09:44:46.000Z</time>
</trkpt>
<trkpt lat="45.8591980" lon="9.2205550">
	<ele>1052.00</ele>
	<time>2025-02-15T09:44:47.000Z</time>
</trkpt>
<trkpt lat="45.8592000" lon="9.2205500">
	<ele>1052.00</ele>
	<time>2025-02-15T09:44:48.000Z</time>
</trkpt>
<trkpt lat="45.8592020" lon="9.2205430">
	<ele>1052.20</ele>
	<time>2025-02-15T09:44:49.000Z</time>
</trkpt>
<trkpt lat="45.8592000" lon="9.2205360">
	<ele>1052.20</ele>
	<time>2025-02-15T09:44:50.000Z</time>
</trkpt>
<trkpt lat="45.8591960" lon="9.2205320">
	<ele>1052.20</ele>
	<time>2025-02-15T09:44:51.000Z</time>
</trkpt>
<trkpt lat="45.8591870" lon="9.2205400">
	<ele>1052.40</ele>
	<time>2025-02-15T09:44:52.000Z</time>
</trkpt>
<trkpt lat="45.8591780" lon="9.2205440">
	<ele>1052.80</ele>
	<time>2025-02-15T09:44:53.000Z</time>
</trkpt>
<trkpt lat="45.8591720" lon="9.2205470">
	<ele>1052.80</ele>
	<time>2025-02-15T09:44:54.000Z</time>
</trkpt>
<trkpt lat="45.8591770" lon="9.2205450">
	<ele>1053.00</ele>
	<time>2025-02-15T09:44:55.000Z</time>
</trkpt>
<trkpt lat="45.8591740" lon="9.2205400">
	<ele>1053.20</ele>
	<time>2025-02-15T09:44:56.000Z</time>
</trkpt>
<trkpt lat="45.8591770" lon="9.2205350">
	<ele>1053.40</ele>
	<time>2025-02-15T09:44:57.000Z</time>
</trkpt>
<trkpt lat="45.8591820" lon="9.2205340">
	<ele>1053.80</ele>
	<time>2025-02-15T09:44:58.000Z</time>
</trkpt>
<trkpt lat="45.8591890" lon="9.2205310">
	<ele>1053.80</ele>
	<time>2025-02-15T09:44:59.000Z</time>
</trkpt>
<trkpt lat="45.8591930" lon="9.2205280">
	<ele>1054.00</ele>
	<time>2025-02-15T09:45:00.000Z</time>
</trkpt>
<trkpt lat="45.8592070" lon="9.2205220">
	<ele>1054.20</ele>
	<time>2025-02-15T09:45:01.000Z</time>
</trkpt>
<trkpt lat="45.8592210" lon="9.2205210">
	<ele>1054.40</ele>
	<time>2025-02-15T09:45:02.000Z</time>
</trkpt>
<trkpt lat="45.8592290" lon="9.2205230">
	<ele>1054.60</ele>
	<time>2025-02-15T09:45:03.000Z</time>
</trkpt>
<trkpt lat="45.8592340" lon="9.2205240">
	<ele>1055.00</ele>
	<time>2025-02-15T09:45:04.000Z</time>
</trkpt>
<trkpt lat="45.8592320" lon="9.2205220">
	<ele>1055.20</ele>
	<time>2025-02-15T09:45:05.000Z</time>
</trkpt>
<trkpt lat="45.8592320" lon="9.2205180">
	<ele>1055.20</ele>
	<time>2025-02-15T09:45:06.000Z</time>
</trkpt>
<trkpt lat="45.8592310" lon="9.2205150">
	<ele>1055.60</ele>
	<time>2025-02-15T09:45:07.000Z</time>
</trkpt>
<trkpt lat="45.8592320" lon="9.2205150">
	<ele>1055.80</ele>
	<time>2025-02-15T09:45:08.000Z</time>
</trkpt>
<trkpt lat="45.8592360" lon="9.2205150">
	<ele>1056.00</ele>
	<time>2025-02-15T09:45:09.000Z</time>
</trkpt>
<trkpt lat="45.8592420" lon="9.2205160">
	<ele>1056.20</ele>
	<time>2025-02-15T09:45:10.000Z</time>
</trkpt>
<trkpt lat="45.8592470" lon="9.2205170">
	<ele>1056.40</ele>
	<time>2025-02-15T09:45:11.000Z</time>
</trkpt>
<trkpt lat="45.8592490" lon="9.2205160">
	<ele>1056.60</ele>
	<time>2025-02-15T09:45:12.000Z</time>
</trkpt>
<trkpt lat="45.8592470" lon="9.2205150">
	<ele>1056.40</ele>
	<time>2025-02-15T09:45:13.000Z</time>
</trkpt>
<trkpt lat="45.8592550" lon="9.2205100">
	<ele>1056.60</ele>
	<time>2025-02-15T09:45:14.000Z</time>
</trkpt>
<trkpt lat="45.8592650" lon="9.2205040">
	<ele>1056.60</ele>
	<time>2025-02-15T09:45:15.000Z</time>
</trkpt>
<trkpt lat="45.8592760" lon="9.2205000">
	<ele>1056.60</ele>
	<time>2025-02-15T09:45:16.000Z</time>
</trkpt>
<trkpt lat="45.8592840" lon="9.2204970">
	<ele>1056.80</ele>
	<time>2025-02-15T09:45:17.000Z</time>
</trkpt>
<trkpt lat="45.8592860" lon="9.2204960">
	<ele>1057.00</ele>
	<time>2025-02-15T09:45:18.000Z</time>
</trkpt>
<trkpt lat="45.8592850" lon="9.2204840">
	<ele>1057.40</ele>
	<time>2025-02-15T09:45:19.000Z</time>
</trkpt>
<trkpt lat="45.8592860" lon="9.2204810">
	<ele>1057.60</ele>
	<time>2025-02-15T09:45:20.000Z</time>
</trkpt>
<trkpt lat="45.8592970" lon="9.2204710">
	<ele>1057.80</ele>
	<time>2025-02-15T09:45:21.000Z</time>
</trkpt>
<trkpt lat="45.8593100" lon="9.2204620">
	<ele>1058.00</ele>
	<time>2025-02-15T09:45:22.000Z</time>
</trkpt>
<trkpt lat="45.8593160" lon="9.2204580">
	<ele>1058.20</ele>
	<time>2025-02-15T09:45:23.000Z</time>
</trkpt>
<trkpt lat="45.8593180" lon="9.2204550">
	<ele>1058.40</ele>
	<time>2025-02-15T09:45:24.000Z</time>
</trkpt>
<trkpt lat="45.8593190" lon="9.2204580">
	<ele>1058.40</ele>
	<time>2025-02-15T09:45:25.000Z</time>
</trkpt>
<trkpt lat="45.8593250" lon="9.2204530">
	<ele>1058.40</ele>
	<time>2025-02-15T09:45:26.000Z</time>
</trkpt>
<trkpt lat="45.8593240" lon="9.2204460">
	<ele>1058.40</ele>
	<time>2025-02-15T09:45:27.000Z</time>
</trkpt>
<trkpt lat="45.8593250" lon="9.2204350">
	<ele>1058.40</ele>
	<time>2025-02-15T09:45:28.000Z</time>
</trkpt>
<trkpt lat="45.8593320" lon="9.2204200">
	<ele>1058.40</ele>
	<time>2025-02-15T09:45:29.000Z</time>
</trkpt>
<trkpt lat="45.8593370" lon="9.2204120">
	<ele>1058.40</ele>
	<time>2025-02-15T09:45:30.000Z</time>
</trkpt>
<trkpt lat="45.8593330" lon="9.2204010">
	<ele>1058.60</ele>
	<time>2025-02-15T09:45:31.000Z</time>
</trkpt>
<trkpt lat="45.8593430" lon="9.2203880">
	<ele>1058.80</ele>
	<time>2025-02-15T09:45:32.000Z</time>
</trkpt>
<trkpt lat="45.8593530" lon="9.2203740">
	<ele>1058.80</ele>
	<time>2025-02-15T09:45:33.000Z</time>
</trkpt>
<trkpt lat="45.8593570" lon="9.2203630">
	<ele>1059.00</ele>
	<time>2025-02-15T09:45:34.000Z</time>
</trkpt>
<trkpt lat="45.8593610" lon="9.2203560">
	<ele>1059.20</ele>
	<time>2025-02-15T09:45:35.000Z</time>
</trkpt>
<trkpt lat="45.8593610" lon="9.2203470">
	<ele>1059.40</ele>
	<time>2025-02-15T09:45:36.000Z</time>
</trkpt>
<trkpt lat="45.8593570" lon="9.2203310">
	<ele>1059.60</ele>
	<time>2025-02-15T09:45:37.000Z</time>
</trkpt>
<trkpt lat="45.8593530" lon="9.2203180">
	<ele>1059.80</ele>
	<time>2025-02-15T09:45:38.000Z</time>
</trkpt>
<trkpt lat="45.8593500" lon="9.2203070">
	<ele>1059.80</ele>
	<time>2025-02-15T09:45:39.000Z</time>
</trkpt>
<trkpt lat="45.8593480" lon="9.2203010">
	<ele>1060.00</ele>
	<time>2025-02-15T09:45:40.000Z</time>
</trkpt>
<trkpt lat="45.8593440" lon="9.2202950">
	<ele>1060.20</ele>
	<time>2025-02-15T09:45:41.000Z</time>
</trkpt>
<trkpt lat="45.8593410" lon="9.2202860">
	<ele>1060.40</ele>
	<time>2025-02-15T09:45:42.000Z</time>
</trkpt>
<trkpt lat="45.8593400" lon="9.2202810">
	<ele>1060.60</ele>
	<time>2025-02-15T09:45:43.000Z</time>
</trkpt>
<trkpt lat="45.8593430" lon="9.2202720">
	<ele>1060.80</ele>
	<time>2025-02-15T09:45:44.000Z</time>
</trkpt>
<trkpt lat="45.8593460" lon="9.2202600">
	<ele>1061.00</ele>
	<time>2025-02-15T09:45:45.000Z</time>
</trkpt>
<trkpt lat="45.8593470" lon="9.2202550">
	<ele>1061.20</ele>
	<time>2025-02-15T09:45:46.000Z</time>
</trkpt>
<trkpt lat="45.8593450" lon="9.2202440">
	<ele>1061.60</ele>
	<time>2025-02-15T09:45:47.000Z</time>
</trkpt>
<trkpt lat="45.8593490" lon="9.2202410">
	<ele>1061.80</ele>
	<time>2025-02-15T09:45:48.000Z</time>
</trkpt>
<trkpt lat="45.8593520" lon="9.2202370">
	<ele>1062.00</ele>
	<time>2025-02-15T09:45:49.000Z</time>
</trkpt>
<trkpt lat="45.8593570" lon="9.2202310">
	<ele>1062.00</ele>
	<time>2025-02-15T09:45:50.000Z</time>
</trkpt>
<trkpt lat="45.8593620" lon="9.2202150">
	<ele>1062.20</ele>
	<time>2025-02-15T09:45:51.000Z</time>
</trkpt>
<trkpt lat="45.8593630" lon="9.2201980">
	<ele>1062.40</ele>
	<time>2025-02-15T09:45:52.000Z</time>
</trkpt>
<trkpt lat="45.8593650" lon="9.2201860">
	<ele>1062.40</ele>
	<time>2025-02-15T09:45:53.000Z</time>
</trkpt>
<trkpt lat="45.8593620" lon="9.2201840">
	<ele>1062.60</ele>
	<time>2025-02-15T09:45:54.000Z</time>
</trkpt>
<trkpt lat="45.8593640" lon="9.2201770">
	<ele>1063.00</ele>
	<time>2025-02-15T09:45:55.000Z</time>
</trkpt>
<trkpt lat="45.8593630" lon="9.2201780">
	<ele>1063.20</ele>
	<time>2025-02-15T09:45:56.000Z</time>
</trkpt>
<trkpt lat="45.8593590" lon="9.2201670">
	<ele>1063.40</ele>
	<time>2025-02-15T09:45:57.000Z</time>
</trkpt>
<trkpt lat="45.8593520" lon="9.2201540">
	<ele>1063.40</ele>
	<time>2025-02-15T09:45:58.000Z</time>
</trkpt>
<trkpt lat="45.8593490" lon="9.2201400">
	<ele>1063.80</ele>
	<time>2025-02-15T09:45:59.000Z</time>
</trkpt>
<trkpt lat="45.8593480" lon="9.2201220">
	<ele>1064.00</ele>
	<time>2025-02-15T09:46:00.000Z</time>
</trkpt>
<trkpt lat="45.8593520" lon="9.2201100">
	<ele>1064.00</ele>
	<time>2025-02-15T09:46:01.000Z</time>
</trkpt>
<trkpt lat="45.8593440" lon="9.2200980">
	<ele>1064.20</ele>
	<time>2025-02-15T09:46:02.000Z</time>
</trkpt>
<trkpt lat="45.8593430" lon="9.2200890">
	<ele>1064.40</ele>
	<time>2025-02-15T09:46:03.000Z</time>
</trkpt>
<trkpt lat="45.8593450" lon="9.2200830">
	<ele>1064.40</ele>
	<time>2025-02-15T09:46:04.000Z</time>
</trkpt>
<trkpt lat="45.8593480" lon="9.2200780">
	<ele>1064.60</ele>
	<time>2025-02-15T09:46:05.000Z</time>
</trkpt>
<trkpt lat="45.8593540" lon="9.2200750">
	<ele>1064.80</ele>
	<time>2025-02-15T09:46:06.000Z</time>
</trkpt>
<trkpt lat="45.8593600" lon="9.2200730">
	<ele>1065.00</ele>
	<time>2025-02-15T09:46:07.000Z</time>
</trkpt>
<trkpt lat="45.8593730" lon="9.2200680">
	<ele>1065.20</ele>
	<time>2025-02-15T09:46:08.000Z</time>
</trkpt>
<trkpt lat="45.8593790" lon="9.2200630">
	<ele>1065.20</ele>
	<time>2025-02-15T09:46:09.000Z</time>
</trkpt>
<trkpt lat="45.8593780" lon="9.2200590">
	<ele>1065.20</ele>
	<time>2025-02-15T09:46:10.000Z</time>
</trkpt>
<trkpt lat="45.8593800" lon="9.2200540">
	<ele>1065.40</ele>
	<time>2025-02-15T09:46:11.000Z</time>
</trkpt>
<trkpt lat="45.8593820" lon="9.2200530">
	<ele>1065.40</ele>
	<time>2025-02-15T09:46:12.000Z</time>
</trkpt>
<trkpt lat="45.8593860" lon="9.2200500">
	<ele>1065.40</ele>
	<time>2025-02-15T09:46:13.000Z</time>
</trkpt>
<trkpt lat="45.8593900" lon="9.2200460">
	<ele>1065.60</ele>
	<time>2025-02-15T09:46:14.000Z</time>
</trkpt>
<trkpt lat="45.8593940" lon="9.2200420">
	<ele>1065.60</ele>
	<time>2025-02-15T09:46:15.000Z</time>
</trkpt>
<trkpt lat="45.8593970" lon="9.2200300">
	<ele>1065.80</ele>
	<time>2025-02-15T09:46:16.000Z</time>
</trkpt>
<trkpt lat="45.8593980" lon="9.2200180">
	<ele>1066.00</ele>
	<time>2025-02-15T09:46:17.000Z</time>
</trkpt>
<trkpt lat="45.8594000" lon="9.2200070">
	<ele>1066.00</ele>
	<time>2025-02-15T09:46:18.000Z</time>
</trkpt>
<trkpt lat="45.8594050" lon="9.2199950">
	<ele>1066.20</ele>
	<time>2025-02-15T09:46:19.000Z</time>
</trkpt>
<trkpt lat="45.8594050" lon="9.2199870">
	<ele>1066.40</ele>
	<time>2025-02-15T09:46:20.000Z</time>
</trkpt>
<trkpt lat="45.8594050" lon="9.2199780">
	<ele>1066.60</ele>
	<time>2025-02-15T09:46:21.000Z</time>
</trkpt>
<trkpt lat="45.8594040" lon="9.2199720">
	<ele>1067.00</ele>
	<time>2025-02-15T09:46:22.000Z</time>
</trkpt>
<trkpt lat="45.8594030" lon="9.2199650">
	<ele>1067.00</ele>
	<time>2025-02-15T09:46:23.000Z</time>
</trkpt>
<trkpt lat="45.8594040" lon="9.2199600">
	<ele>1067.20</ele>
	<time>2025-02-15T09:46:24.000Z</time>
</trkpt>
<trkpt lat="45.8594050" lon="9.2199460">
	<ele>1067.40</ele>
	<time>2025-02-15T09:46:25.000Z</time>
</trkpt>
<trkpt lat="45.8594130" lon="9.2199350">
	<ele>1067.60</ele>
	<time>2025-02-15T09:46:26.000Z</time>
</trkpt>
<trkpt lat="45.8594170" lon="9.2199240">
	<ele>1067.60</ele>
	<time>2025-02-15T09:46:27.000Z</time>
</trkpt>
<trkpt lat="45.8594210" lon="9.2199140">
	<ele>1068.00</ele>
	<time>2025-02-15T09:46:28.000Z</time>
</trkpt>
<trkpt lat="45.8594260" lon="9.2199020">
	<ele>1068.00</ele>
	<time>2025-02-15T09:46:29.000Z</time>
</trkpt>
<trkpt lat="45.8594320" lon="9.2198880">
	<ele>1068.00</ele>
	<time>2025-02-15T09:46:30.000Z</time>
</trkpt>
<trkpt lat="45.8594320" lon="9.2198740">
	<ele>1068.40</ele>
	<time>2025-02-15T09:46:31.000Z</time>
</trkpt>
<trkpt lat="45.8594270" lon="9.2198640">
	<ele>1068.40</ele>
	<time>2025-02-15T09:46:32.000Z</time>
</trkpt>
<trkpt lat="45.8594290" lon="9.2198520">
	<ele>1068.60</ele>
	<time>2025-02-15T09:46:33.000Z</time>
</trkpt>
<trkpt lat="45.8594290" lon="9.2198360">
	<ele>1068.60</ele>
	<time>2025-02-15T09:46:34.000Z</time>
</trkpt>
<trkpt lat="45.8594310" lon="9.2198230">
	<ele>1068.60</ele>
	<time>2025-02-15T09:46:35.000Z</time>
</trkpt>
<trkpt lat="45.8594320" lon="9.2198100">
	<ele>1069.00</ele>
	<time>2025-02-15T09:46:36.000Z</time>
</trkpt>
<trkpt lat="45.8594310" lon="9.2198010">
	<ele>1069.20</ele>
	<time>2025-02-15T09:46:37.000Z</time>
</trkpt>
<trkpt lat="45.8594290" lon="9.2198000">
	<ele>1069.20</ele>
	<time>2025-02-15T09:46:38.000Z</time>
</trkpt>
<trkpt lat="45.8594330" lon="9.2197950">
	<ele>1069.40</ele>
	<time>2025-02-15T09:46:39.000Z</time>
</trkpt>
<trkpt lat="45.8594360" lon="9.2197840">
	<ele>1069.40</ele>
	<time>2025-02-15T09:46:40.000Z</time>
</trkpt>
<trkpt lat="45.8594370" lon="9.2197760">
	<ele>1069.40</ele>
	<time>2025-02-15T09:46:41.000Z</time>
</trkpt>
<trkpt lat="45.8594370" lon="9.2197640">
	<ele>1069.60</ele>
	<time>2025-02-15T09:46:42.000Z</time>
</trkpt>
<trkpt lat="45.8594370" lon="9.2197490">
	<ele>1069.80</ele>
	<time>2025-02-15T09:46:43.000Z</time>
</trkpt>
<trkpt lat="45.8594370" lon="9.2197380">
	<ele>1070.20</ele>
	<time>2025-02-15T09:46:44.000Z</time>
</trkpt>
<trkpt lat="45.8594370" lon="9.2197330">
	<ele>1070.40</ele>
	<time>2025-02-15T09:46:45.000Z</time>
</trkpt>
<trkpt lat="45.8594370" lon="9.2197230">
	<ele>1070.60</ele>
	<time>2025-02-15T09:46:46.000Z</time>
</trkpt>
<trkpt lat="45.8594380" lon="9.2197100">
	<ele>1070.80</ele>
	<time>2025-02-15T09:46:47.000Z</time>
</trkpt>
<trkpt lat="45.8594370" lon="9.2197010">
	<ele>1071.00</ele>
	<time>2025-02-15T09:46:48.000Z</time>
</trkpt>
<trkpt lat="45.8594360" lon="9.2196900">
	<ele>1071.20</ele>
	<time>2025-02-15T09:46:49.000Z</time>
</trkpt>
<trkpt lat="45.8594300" lon="9.2196740">
	<ele>1071.40</ele>
	<time>2025-02-15T09:46:50.000Z</time>
</trkpt>
<trkpt lat="45.8594280" lon="9.2196690">
	<ele>1071.40</ele>
	<time>2025-02-15T09:46:51.000Z</time>
</trkpt>
<trkpt lat="45.8594250" lon="9.2196640">
	<ele>1071.60</ele>
	<time>2025-02-15T09:46:52.000Z</time>
</trkpt>
<trkpt lat="45.8594240" lon="9.2196550">
	<ele>1071.80</ele>
	<time>2025-02-15T09:46:53.000Z</time>
</trkpt>
<trkpt lat="45.8594200" lon="9.2196500">
	<ele>1072.00</ele>
	<time>2025-02-15T09:46:54.000Z</time>
</trkpt>
<trkpt lat="45.8594210" lon="9.2196290">
	<ele>1072.20</ele>
	<time>2025-02-15T09:46:55.000Z</time>
</trkpt>
<trkpt lat="45.8594250" lon="9.2196080">
	<ele>1072.20</ele>
	<time>2025-02-15T09:46:56.000Z</time>
</trkpt>
<trkpt lat="45.8594220" lon="9.2195960">
	<ele>1072.40</ele>
	<time>2025-02-15T09:46:57.000Z</time>
</trkpt>
<trkpt lat="45.8594200" lon="9.2195910">
	<ele>1072.60</ele>
	<time>2025-02-15T09:46:58.000Z</time>
</trkpt>
<trkpt lat="45.8594210" lon="9.2195900">
	<ele>1073.00</ele>
	<time>2025-02-15T09:46:59.000Z</time>
</trkpt>
<trkpt lat="45.8594330" lon="9.2195880">
	<ele>1073.20</ele>
	<time>2025-02-15T09:47:00.000Z</time>
</trkpt>
<trkpt lat="45.8594380" lon="9.2195850">
	<ele>1073.20</ele>
	<time>2025-02-15T09:47:01.000Z</time>
</trkpt>
<trkpt lat="45.8594400" lon="9.2195820">
	<ele>1073.40</ele>
	<time>2025-02-15T09:47:02.000Z</time>
</trkpt>
<trkpt lat="45.8594420" lon="9.2195660">
	<ele>1073.60</ele>
	<time>2025-02-15T09:47:03.000Z</time>
</trkpt>
<trkpt lat="45.8594350" lon="9.2195440">
	<ele>1073.80</ele>
	<time>2025-02-15T09:47:04.000Z</time>
</trkpt>
<trkpt lat="45.8594280" lon="9.2195250">
	<ele>1073.80</ele>
	<time>2025-02-15T09:47:05.000Z</time>
</trkpt>
<trkpt lat="45.8594260" lon="9.2195080">
	<ele>1074.00</ele>
	<time>2025-02-15T09:47:06.000Z</time>
</trkpt>
<trkpt lat="45.8594230" lon="9.2194920">
	<ele>1074.00</ele>
	<time>2025-02-15T09:47:07.000Z</time>
</trkpt>
<trkpt lat="45.8594200" lon="9.2194790">
	<ele>1074.40</ele>
	<time>2025-02-15T09:47:08.000Z</time>
</trkpt>
<trkpt lat="45.8594190" lon="9.2194670">
	<ele>1074.60</ele>
	<time>2025-02-15T09:47:09.000Z</time>
</trkpt>
<trkpt lat="45.8594190" lon="9.2194600">
	<ele>1075.00</ele>
	<time>2025-02-15T09:47:10.000Z</time>
</trkpt>
<trkpt lat="45.8594240" lon="9.2194480">
	<ele>1075.20</ele>
	<time>2025-02-15T09:47:11.000Z</time>
</trkpt>
<trkpt lat="45.8594300" lon="9.2194350">
	<ele>1075.40</ele>
	<time>2025-02-15T09:47:12.000Z</time>
</trkpt>
<trkpt lat="45.8594320" lon="9.2194200">
	<ele>1075.60</ele>
	<time>2025-02-15T09:47:13.000Z</time>
</trkpt>
<trkpt lat="45.8594330" lon="9.2194100">
	<ele>1075.60</ele>
	<time>2025-02-15T09:47:14.000Z</time>
</trkpt>
<trkpt lat="45.8594340" lon="9.2193980">
	<ele>1075.60</ele>
	<time>2025-02-15T09:47:15.000Z</time>
</trkpt>
<trkpt lat="45.8594340" lon="9.2193880">
	<ele>1075.60</ele>
	<time>2025-02-15T09:47:16.000Z</time>
</trkpt>
<trkpt lat="45.8594320" lon="9.2193830">
	<ele>1076.00</ele>
	<time>2025-02-15T09:47:17.000Z</time>
</trkpt>
<trkpt lat="45.8594340" lon="9.2193690">
	<ele>1076.20</ele>
	<time>2025-02-15T09:47:18.000Z</time>
</trkpt>
<trkpt lat="45.8594330" lon="9.2193600">
	<ele>1076.20</ele>
	<time>2025-02-15T09:47:19.000Z</time>
</trkpt>
<trkpt lat="45.8594350" lon="9.2193480">
	<ele>1076.40</ele>
	<time>2025-02-15T09:47:20.000Z</time>
</trkpt>
<trkpt lat="45.8594320" lon="9.2193350">
	<ele>1076.60</ele>
	<time>2025-02-15T09:47:21.000Z</time>
</trkpt>
<trkpt lat="45.8594280" lon="9.2193270">
	<ele>1076.80</ele>
	<time>2025-02-15T09:47:22.000Z</time>
</trkpt>
<trkpt lat="45.8594290" lon="9.2193180">
	<ele>1077.20</ele>
	<time>2025-02-15T09:47:23.000Z</time>
</trkpt>
<trkpt lat="45.8594310" lon="9.2193110">
	<ele>1077.20</ele>
	<time>2025-02-15T09:47:24.000Z</time>
</trkpt>
<trkpt lat="45.8594330" lon="9.2193060">
	<ele>1077.40</ele>
	<time>2025-02-15T09:47:25.000Z</time>
</trkpt>
<trkpt lat="45.8594330" lon="9.2193020">
	<ele>1077.40</ele>
	<time>2025-02-15T09:47:26.000Z</time>
</trkpt>
<trkpt lat="45.8594260" lon="9.2192980">
	<ele>1077.80</ele>
	<time>2025-02-15T09:47:27.000Z</time>
</trkpt>
<trkpt lat="45.8594290" lon="9.2192870">
	<ele>1078.00</ele>
	<time>2025-02-15T09:47:28.000Z</time>
</trkpt>
<trkpt lat="45.8594350" lon="9.2192720">
	<ele>1078.00</ele>
	<time>2025-02-15T09:47:29.000Z</time>
</trkpt>
<trkpt lat="45.8594370" lon="9.2192620">
	<ele>1078.20</ele>
	<time>2025-02-15T09:47:30.000Z</time>
</trkpt>
<trkpt lat="45.8594390" lon="9.2192550">
	<ele>1078.20</ele>
	<time>2025-02-15T09:47:31.000Z</time>
</trkpt>
<trkpt lat="45.8594430" lon="9.2192520">
	<ele>1078.60</ele>
	<time>2025-02-15T09:47:32.000Z</time>
</trkpt>
<trkpt lat="45.8594410" lon="9.2192430">
	<ele>1078.80</ele>
	<time>2025-02-15T09:47:33.000Z</time>
</trkpt>
<trkpt lat="45.8594380" lon="9.2192340">
	<ele>1078.80</ele>
	<time>2025-02-15T09:47:34.000Z</time>
</trkpt>
<trkpt lat="45.8594380" lon="9.2192320">
	<ele>1079.00</ele>
	<time>2025-02-15T09:47:35.000Z</time>
</trkpt>
<trkpt lat="45.8594380" lon="9.2192280">
	<ele>1079.20</ele>
	<time>2025-02-15T09:47:36.000Z</time>
</trkpt>
<trkpt lat="45.8594420" lon="9.2192190">
	<ele>1079.40</ele>
	<time>2025-02-15T09:47:37.000Z</time>
</trkpt>
<trkpt lat="45.8594430" lon="9.2192110">
	<ele>1079.40</ele>
	<time>2025-02-15T09:47:38.000Z</time>
</trkpt>
<trkpt lat="45.8594430" lon="9.2192020">
	<ele>1079.60</ele>
	<time>2025-02-15T09:47:39.000Z</time>
</trkpt>
<trkpt lat="45.8594360" lon="9.2191910">
	<ele>1079.60</ele>
	<time>2025-02-15T09:47:40.000Z</time>
</trkpt>
<trkpt lat="45.8594340" lon="9.2191830">
	<ele>1079.80</ele>
	<time>2025-02-15T09:47:41.000Z</time>
</trkpt>
<trkpt lat="45.8594340" lon="9.2191730">
	<ele>1080.00</ele>
	<time>2025-02-15T09:47:42.000Z</time>
</trkpt>
<trkpt lat="45.8594280" lon="9.2191600">
	<ele>1080.20</ele>
	<time>2025-02-15T09:47:43.000Z</time>
</trkpt>
<trkpt lat="45.8594270" lon="9.2191480">
	<ele>1080.40</ele>
	<time>2025-02-15T09:47:44.000Z</time>
</trkpt>
<trkpt lat="45.8594330" lon="9.2191350">
	<ele>1080.60</ele>
	<time>2025-02-15T09:47:45.000Z</time>
</trkpt>
<trkpt lat="45.8594390" lon="9.2191310">
	<ele>1081.00</ele>
	<time>2025-02-15T09:47:46.000Z</time>
</trkpt>
<trkpt lat="45.8594430" lon="9.2191250">
	<ele>1081.00</ele>
	<time>2025-02-15T09:47:47.000Z</time>
</trkpt>
<trkpt lat="45.8594470" lon="9.2191210">
	<ele>1081.20</ele>
	<time>2025-02-15T09:47:48.000Z</time>
</trkpt>
<trkpt lat="45.8594520" lon="9.2191150">
	<ele>1081.40</ele>
	<time>2025-02-15T09:47:49.000Z</time>
</trkpt>
<trkpt lat="45.8594520" lon="9.2191070">
	<ele>1081.40</ele>
	<time>2025-02-15T09:47:50.000Z</time>
</trkpt>
<trkpt lat="45.8594530" lon="9.2191010">
	<ele>1081.60</ele>
	<time>2025-02-15T09:47:51.000Z</time>
</trkpt>
<trkpt lat="45.8594500" lon="9.2190920">
	<ele>1082.00</ele>
	<time>2025-02-15T09:47:52.000Z</time>
</trkpt>
<trkpt lat="45.8594470" lon="9.2190880">
	<ele>1082.20</ele>
	<time>2025-02-15T09:47:53.000Z</time>
</trkpt>
<trkpt lat="45.8594490" lon="9.2190780">
	<ele>1082.40</ele>
	<time>2025-02-15T09:47:54.000Z</time>
</trkpt>
<trkpt lat="45.8594490" lon="9.2190680">
	<ele>1082.60</ele>
	<time>2025-02-15T09:47:55.000Z</time>
</trkpt>
<trkpt lat="45.8594500" lon="9.2190570">
	<ele>1082.60</ele>
	<time>2025-02-15T09:47:56.000Z</time>
</trkpt>
<trkpt lat="45.8594540" lon="9.2190520">
	<ele>1082.80</ele>
	<time>2025-02-15T09:47:57.000Z</time>
</trkpt>
<trkpt lat="45.8594590" lon="9.2190510">
	<ele>1082.80</ele>
	<time>2025-02-15T09:47:58.000Z</time>
</trkpt>
<trkpt lat="45.8594580" lon="9.2190510">
	<ele>1083.00</ele>
	<time>2025-02-15T09:47:59.000Z</time>
</trkpt>
<trkpt lat="45.8594560" lon="9.2190490">
	<ele>1083.00</ele>
	<time>2025-02-15T09:48:00.000Z</time>
</trkpt>
<trkpt lat="45.8594540" lon="9.2190460">
	<ele>1083.20</ele>
	<time>2025-02-15T09:48:01.000Z</time>
</trkpt>
<trkpt lat="45.8594620" lon="9.2190390">
	<ele>1083.20</ele>
	<time>2025-02-15T09:48:02.000Z</time>
</trkpt>
<trkpt lat="45.8594580" lon="9.2190340">
	<ele>1083.40</ele>
	<time>2025-02-15T09:48:03.000Z</time>
</trkpt>
<trkpt lat="45.8594550" lon="9.2190300">
	<ele>1083.60</ele>
	<time>2025-02-15T09:48:04.000Z</time>
</trkpt>
<trkpt lat="45.8594610" lon="9.2190270">
	<ele>1084.00</ele>
	<time>2025-02-15T09:48:05.000Z</time>
</trkpt>
<trkpt lat="45.8594610" lon="9.2190210">
	<ele>1084.20</ele>
	<time>2025-02-15T09:48:06.000Z</time>
</trkpt>
<trkpt lat="45.8594630" lon="9.2190040">
	<ele>1084.20</ele>
	<time>2025-02-15T09:48:07.000Z</time>
</trkpt>
<trkpt lat="45.8594590" lon="9.2189850">
	<ele>1084.40</ele>
	<time>2025-02-15T09:48:08.000Z</time>
</trkpt>
<trkpt lat="45.8594610" lon="9.2189770">
	<ele>1084.60</ele>
	<time>2025-02-15T09:48:09.000Z</time>
</trkpt>
<trkpt lat="45.8594580" lon="9.2189710">
	<ele>1084.80</ele>
	<time>2025-02-15T09:48:10.000Z</time>
</trkpt>
<trkpt lat="45.8594570" lon="9.2189670">
	<ele>1085.00</ele>
	<time>2025-02-15T09:48:11.000Z</time>
</trkpt>
<trkpt lat="45.8594550" lon="9.2189620">
	<ele>1085.00</ele>
	<time>2025-02-15T09:48:12.000Z</time>
</trkpt>
<trkpt lat="45.8594500" lon="9.2189530">
	<ele>1085.20</ele>
	<time>2025-02-15T09:48:13.000Z</time>
</trkpt>
<trkpt lat="45.8594460" lon="9.2189480">
	<ele>1085.40</ele>
	<time>2025-02-15T09:48:14.000Z</time>
</trkpt>
<trkpt lat="45.8594420" lon="9.2189430">
	<ele>1085.60</ele>
	<time>2025-02-15T09:48:15.000Z</time>
</trkpt>
<trkpt lat="45.8594410" lon="9.2189380">
	<ele>1085.80</ele>
	<time>2025-02-15T09:48:16.000Z</time>
</trkpt>
<trkpt lat="45.8594440" lon="9.2189300">
	<ele>1086.00</ele>
	<time>2025-02-15T09:48:17.000Z</time>
</trkpt>
<trkpt lat="45.8594420" lon="9.2189250">
	<ele>1086.20</ele>
	<time>2025-02-15T09:48:18.000Z</time>
</trkpt>
<trkpt lat="45.8594460" lon="9.2189120">
	<ele>1086.20</ele>
	<time>2025-02-15T09:48:19.000Z</time>
</trkpt>
<trkpt lat="45.8594450" lon="9.2189060">
	<ele>1086.40</ele>
	<time>2025-02-15T09:48:20.000Z</time>
</trkpt>
<trkpt lat="45.8594480" lon="9.2188900">
	<ele>1086.60</ele>
	<time>2025-02-15T09:48:21.000Z</time>
</trkpt>
<trkpt lat="45.8594490" lon="9.2188870">
	<ele>1086.60</ele>
	<time>2025-02-15T09:48:22.000Z</time>
</trkpt>
<trkpt lat="45.8594510" lon="9.2188720">
	<ele>1086.60</ele>
	<time>2025-02-15T09:48:23.000Z</time>
</trkpt>
<trkpt lat="45.8594530" lon="9.2188560">
	<ele>1086.80</ele>
	<time>2025-02-15T09:48:24.000Z</time>
</trkpt>
<trkpt lat="45.8594540" lon="9.2188520">
	<ele>1086.80</ele>
	<time>2025-02-15T09:48:25.000Z</time>
</trkpt>
<trkpt lat="45.8594600" lon="9.2188470">
	<ele>1087.00</ele>
	<time>2025-02-15T09:48:26.000Z</time>
</trkpt>
<trkpt lat="45.8594660" lon="9.2188340">
	<ele>1087.20</ele>
	<time>2025-02-15T09:48:27.000Z</time>
</trkpt>
<trkpt lat="45.8594730" lon="9.2188220">
	<ele>1087.60</ele>
	<time>2025-02-15T09:48:28.000Z</time>
</trkpt>
<trkpt lat="45.8594740" lon="9.2188180">
	<ele>1088.00</ele>
	<time>2025-02-15T09:48:29.000Z</time>
</trkpt>
<trkpt lat="45.8594740" lon="9.2188140">
	<ele>1088.40</ele>
	<time>2025-02-15T09:48:30.000Z</time>
</trkpt>
<trkpt lat="45.8594750" lon="9.2188120">
	<ele>1088.40</ele>
	<time>2025-02-15T09:48:31.000Z</time>
</trkpt>
<trkpt lat="45.8594730" lon="9.2188060">
	<ele>1088.60</ele>
	<time>2025-02-15T09:48:32.000Z</time>
</trkpt>
<trkpt lat="45.8594710" lon="9.2188040">
	<ele>1088.60</ele>
	<time>2025-02-15T09:48:33.000Z</time>
</trkpt>
<trkpt lat="45.8594710" lon="9.2187990">
	<ele>1088.80</ele>
	<time>2025-02-15T09:48:34.000Z</time>
</trkpt>
<trkpt lat="45.8594700" lon="9.2187960">
	<ele>1088.80</ele>
	<time>2025-02-15T09:48:35.000Z</time>
</trkpt>
<trkpt lat="45.8594680" lon="9.2187940">
	<ele>1089.00</ele>
	<time>2025-02-15T09:48:36.000Z</time>
</trkpt>
<trkpt lat="45.8594680" lon="9.2187920">
	<ele>1089.00</ele>
	<time>2025-02-15T09:48:37.000Z</time>
</trkpt>
<trkpt lat="45.8594680" lon="9.2187950">
	<ele>1089.40</ele>
	<time>2025-02-15T09:48:38.000Z</time>
</trkpt>
<trkpt lat="45.8594730" lon="9.2187890">
	<ele>1089.60</ele>
	<time>2025-02-15T09:48:39.000Z</time>
</trkpt>
<trkpt lat="45.8594780" lon="9.2187900">
	<ele>1089.80</ele>
	<time>2025-02-15T09:48:40.000Z</time>
</trkpt>
<trkpt lat="45.8594770" lon="9.2187760">
	<ele>1090.00</ele>
	<time>2025-02-15T09:48:41.000Z</time>
</trkpt>
<trkpt lat="45.8594740" lon="9.2187590">
	<ele>1090.00</ele>
	<time>2025-02-15T09:48:42.000Z</time>
</trkpt>
<trkpt lat="45.8594740" lon="9.2187530">
	<ele>1090.40</ele>
	<time>2025-02-15T09:48:43.000Z</time>
</trkpt>
<trkpt lat="45.8594750" lon="9.2187520">
	<ele>1090.40</ele>
	<time>2025-02-15T09:48:44.000Z</time>
</trkpt>
<trkpt lat="45.8594750" lon="9.2187500">
	<ele>1090.60</ele>
	<time>2025-02-15T09:48:45.000Z</time>
</trkpt>
<trkpt lat="45.8594760" lon="9.2187490">
	<ele>1090.80</ele>
	<time>2025-02-15T09:48:46.000Z</time>
</trkpt>
<trkpt lat="45.8594760" lon="9.2187460">
	<ele>1091.00</ele>
	<time>2025-02-15T09:48:47.000Z</time>
</trkpt>
<trkpt lat="45.8594760" lon="9.2187470">
	<ele>1091.00</ele>
	<time>2025-02-15T09:48:48.000Z</time>
</trkpt>
<trkpt lat="45.8594760" lon="9.2187470">
	<ele>1091.20</ele>
	<time>2025-02-15T09:48:49.000Z</time>
</trkpt>
<trkpt lat="45.8594760" lon="9.2187470">
	<ele>1091.20</ele>
	<time>2025-02-15T09:48:50.000Z</time>
</trkpt>
<trkpt lat="45.8594760" lon="9.2187470">
	<ele>1091.20</ele>
	<time>2025-02-15T09:48:51.000Z</time>
</trkpt>
<trkpt lat="45.8594760" lon="9.2187470">
	<ele>1091.20</ele>
	<time>2025-02-15T09:48:52.000Z</time>
</trkpt>
<trkpt lat="45.8594760" lon="9.2187470">
	<ele>1091.40</ele>
	<time>2025-02-15T09:48:53.000Z</time>
</trkpt>
<trkpt lat="45.8594760" lon="9.2187470">
	<ele>1091.60</ele>
	<time>2025-02-15T09:48:54.000Z</time>
</trkpt>
<trkpt lat="45.8594760" lon="9.2187470">
	<ele>1091.80</ele>
	<time>2025-02-15T09:48:55.000Z</time>
</trkpt>
<trkpt lat="45.8594760" lon="9.2187470">
	<ele>1091.80</ele>
	<time>2025-02-15T09:48:56.000Z</time>
</trkpt>
<trkpt lat="45.8594760" lon="9.2187470">
	<ele>1092.00</ele>
	<time>2025-02-15T09:48:57.000Z</time>
</trkpt>
<trkpt lat="45.8594760" lon="9.2187470">
	<ele>1092.20</ele>
	<time>2025-02-15T09:48:58.000Z</time>
</trkpt>
<trkpt lat="45.8594760" lon="9.2187470">
	<ele>1092.60</ele>
	<time>2025-02-15T09:48:59.000Z</time>
</trkpt>
<trkpt lat="45.8594760" lon="9.2187470">
	<ele>1092.80</ele>
	<time>2025-02-15T09:49:00.000Z</time>
</trkpt>
<trkpt lat="45.8594760" lon="9.2187470">
	<ele>1092.80</ele>
	<time>2025-02-15T09:49:01.000Z</time>
</trkpt>
<trkpt lat="45.8594760" lon="9.2187470">
	<ele>1093.00</ele>
	<time>2025-02-15T09:49:02.000Z</time>
</trkpt>
<trkpt lat="45.8594760" lon="9.2187460">
	<ele>1093.00</ele>
	<time>2025-02-15T09:49:03.000Z</time>
</trkpt>
<trkpt lat="45.8594760" lon="9.2187380">
	<ele>1093.20</ele>
	<time>2025-02-15T09:49:04.000Z</time>
</trkpt>
<trkpt lat="45.8594750" lon="9.2187300">
	<ele>1093.20</ele>
	<time>2025-02-15T09:49:05.000Z</time>
</trkpt>
<trkpt lat="45.8594750" lon="9.2187230">
	<ele>1093.40</ele>
	<time>2025-02-15T09:49:06.000Z</time>
</trkpt>
<trkpt lat="45.8594750" lon="9.2187200">
	<ele>1093.40</ele>
	<time>2025-02-15T09:49:07.000Z</time>
</trkpt>
<trkpt lat="45.8594740" lon="9.2187200">
	<ele>1093.60</ele>
	<time>2025-02-15T09:49:08.000Z</time>
</trkpt>
<trkpt lat="45.8594740" lon="9.2187190">
	<ele>1093.80</ele>
	<time>2025-02-15T09:49:09.000Z</time>
</trkpt>
<trkpt lat="45.8594710" lon="9.2187130">
	<ele>1093.80</ele>
	<time>2025-02-15T09:49:10.000Z</time>
</trkpt>
<trkpt lat="45.8594700" lon="9.2187100">
	<ele>1094.00</ele>
	<time>2025-02-15T09:49:11.000Z</time>
</trkpt>
<trkpt lat="45.8594690" lon="9.2187080">
	<ele>1094.00</ele>
	<time>2025-02-15T09:49:12.000Z</time>
</trkpt>
<trkpt lat="45.8594680" lon="9.2187070">
	<ele>1094.00</ele>
	<time>2025-02-15T09:49:13.000Z</time>
</trkpt>
<trkpt lat="45.8594680" lon="9.2186860">
	<ele>1094.60</ele>
	<time>2025-02-15T09:49:14.000Z</time>
</trkpt>
<trkpt lat="45.8594660" lon="9.2186510">
	<ele>1094.80</ele>
	<time>2025-02-15T09:49:15.000Z</time>
</trkpt>
<trkpt lat="45.8594680" lon="9.2186160">
	<ele>1095.00</ele>
	<time>2025-02-15T09:49:16.000Z</time>
</trkpt>
<trkpt lat="45.8594630" lon="9.2185750">
	<ele>1095.20</ele>
	<time>2025-02-15T09:49:17.000Z</time>
</trkpt>
<trkpt lat="45.8594560" lon="9.2185370">
	<ele>1095.40</ele>
	<time>2025-02-15T09:49:18.000Z</time>
</trkpt>
<trkpt lat="45.8594510" lon="9.2184990">
	<ele>1095.80</ele>
	<time>2025-02-15T09:49:19.000Z</time>
</trkpt>
<trkpt lat="45.8594450" lon="9.2184600">
	<ele>1095.80</ele>
	<time>2025-02-15T09:49:20.000Z</time>
</trkpt>
<trkpt lat="45.8594420" lon="9.2184250">
	<ele>1096.00</ele>
	<time>2025-02-15T09:49:21.000Z</time>
</trkpt>
<trkpt lat="45.8594350" lon="9.2183910">
	<ele>1096.20</ele>
	<time>2025-02-15T09:49:22.000Z</time>
</trkpt>
<trkpt lat="45.8594300" lon="9.2183550">
	<ele>1096.40</ele>
	<time>2025-02-15T09:49:23.000Z</time>
</trkpt>
<trkpt lat="45.8594290" lon="9.2183400">
	<ele>1096.60</ele>
	<time>2025-02-15T09:49:24.000Z</time>
</trkpt>
<trkpt lat="45.8594320" lon="9.2183360">
	<ele>1096.80</ele>
	<time>2025-02-15T09:49:25.000Z</time>
</trkpt>
<trkpt lat="45.8594330" lon="9.2183340">
	<ele>1097.20</ele>
	<time>2025-02-15T09:49:26.000Z</time>
</trkpt>
<trkpt lat="45.8594330" lon="9.2183280">
	<ele>1097.20</ele>
	<time>2025-02-15T09:49:27.000Z</time>
</trkpt>
<trkpt lat="45.8594390" lon="9.2183180">
	<ele>1097.40</ele>
	<time>2025-02-15T09:49:28.000Z</time>
</trkpt>
<trkpt lat="45.8594460" lon="9.2183010">
	<ele>1097.60</ele>
	<time>2025-02-15T09:49:29.000Z</time>
</trkpt>
<trkpt lat="45.8594480" lon="9.2182890">
	<ele>1097.80</ele>
	<time>2025-02-15T09:49:30.000Z</time>
</trkpt>
<trkpt lat="45.8594470" lon="9.2182850">
	<ele>1097.80</ele>
	<time>2025-02-15T09:49:31.000Z</time>
</trkpt>
<trkpt lat="45.8594450" lon="9.2182830">
	<ele>1098.00</ele>
	<time>2025-02-15T09:49:32.000Z</time>
</trkpt>
<trkpt lat="45.8594390" lon="9.2182770">
	<ele>1098.00</ele>
	<time>2025-02-15T09:49:33.000Z</time>
</trkpt>
<trkpt lat="45.8594350" lon="9.2182700">
	<ele>1098.20</ele>
	<time>2025-02-15T09:49:34.000Z</time>
</trkpt>
<trkpt lat="45.8594320" lon="9.2182610">
	<ele>1098.40</ele>
	<time>2025-02-15T09:49:35.000Z</time>
</trkpt>
<trkpt lat="45.8594280" lon="9.2182510">
	<ele>1098.60</ele>
	<time>2025-02-15T09:49:36.000Z</time>
</trkpt>
<trkpt lat="45.8594250" lon="9.2182420">
	<ele>1098.60</ele>
	<time>2025-02-15T09:49:37.000Z</time>
</trkpt>
<trkpt lat="45.8594220" lon="9.2182360">
	<ele>1098.80</ele>
	<time>2025-02-15T09:49:38.000Z</time>
</trkpt>
<trkpt lat="45.8594210" lon="9.2182320">
	<ele>1099.00</ele>
	<time>2025-02-15T09:49:39.000Z</time>
</trkpt>
<trkpt lat="45.8594220" lon="9.2182240">
	<ele>1099.20</ele>
	<time>2025-02-15T09:49:40.000Z</time>
</trkpt>
<trkpt lat="45.8594250" lon="9.2182150">
	<ele>1099.40</ele>
	<time>2025-02-15T09:49:41.000Z</time>
</trkpt>
<trkpt lat="45.8594250" lon="9.2182090">
	<ele>1099.40</ele>
	<time>2025-02-15T09:49:42.000Z</time>
</trkpt>
<trkpt lat="45.8594270" lon="9.2181970">
	<ele>1099.40</ele>
	<time>2025-02-15T09:49:43.000Z</time>
</trkpt>
<trkpt lat="45.8594230" lon="9.2181820">
	<ele>1099.60</ele>
	<time>2025-02-15T09:49:44.000Z</time>
</trkpt>
<trkpt lat="45.8594220" lon="9.2181780">
	<ele>1099.60</ele>
	<time>2025-02-15T09:49:45.000Z</time>
</trkpt>
<trkpt lat="45.8594200" lon="9.2181660">
	<ele>1099.60</ele>
	<time>2025-02-15T09:49:46.000Z</time>
</trkpt>
<trkpt lat="45.8594200" lon="9.2181610">
	<ele>1099.80</ele>
	<time>2025-02-15T09:49:47.000Z</time>
</trkpt>
<trkpt lat="45.8594160" lon="9.2181560">
	<ele>1100.00</ele>
	<time>2025-02-15T09:49:48.000Z</time>
</trkpt>
<trkpt lat="45.8594130" lon="9.2181550">
	<ele>1100.20</ele>
	<time>2025-02-15T09:49:49.000Z</time>
</trkpt>
<trkpt lat="45.8594110" lon="9.2181500">
	<ele>1100.40</ele>
	<time>2025-02-15T09:49:50.000Z</time>
</trkpt>
<trkpt lat="45.8594040" lon="9.2181380">
	<ele>1100.40</ele>
	<time>2025-02-15T09:49:51.000Z</time>
</trkpt>
<trkpt lat="45.8593940" lon="9.2181270">
	<ele>1100.40</ele>
	<time>2025-02-15T09:49:52.000Z</time>
</trkpt>
<trkpt lat="45.8593850" lon="9.2181170">
	<ele>1100.60</ele>
	<time>2025-02-15T09:49:53.000Z</time>
</trkpt>
<trkpt lat="45.8593790" lon="9.2181100">
	<ele>1100.80</ele>
	<time>2025-02-15T09:49:54.000Z</time>
</trkpt>
<trkpt lat="45.8593750" lon="9.2181060">
	<ele>1101.00</ele>
	<time>2025-02-15T09:49:55.000Z</time>
</trkpt>
<trkpt lat="45.8593680" lon="9.2181010">
	<ele>1101.00</ele>
	<time>2025-02-15T09:49:56.000Z</time>
</trkpt>
<trkpt lat="45.8593590" lon="9.2180930">
	<ele>1101.20</ele>
	<time>2025-02-15T09:49:57.000Z</time>
</trkpt>
<trkpt lat="45.8593490" lon="9.2180820">
	<ele>1101.40</ele>
	<time>2025-02-15T09:49:58.000Z</time>
</trkpt>
<trkpt lat="45.8593430" lon="9.2180680">
	<ele>1101.60</ele>
	<time>2025-02-15T09:49:59.000Z</time>
</trkpt>
<trkpt lat="45.8593400" lon="9.2180570">
	<ele>1101.60</ele>
	<time>2025-02-15T09:50:00.000Z</time>
</trkpt>
<trkpt lat="45.8593280" lon="9.2180480">
	<ele>1101.80</ele>
	<time>2025-02-15T09:50:01.000Z</time>
</trkpt>
<trkpt lat="45.8593220" lon="9.2180440">
	<ele>1101.80</ele>
	<time>2025-02-15T09:50:02.000Z</time>
</trkpt>
<trkpt lat="45.8593100" lon="9.2180230">
	<ele>1102.00</ele>
	<time>2025-02-15T09:50:03.000Z</time>
</trkpt>
<trkpt lat="45.8592980" lon="9.2180000">
	<ele>1102.20</ele>
	<time>2025-02-15T09:50:04.000Z</time>
</trkpt>
<trkpt lat="45.8592960" lon="9.2179950">
	<ele>1102.20</ele>
	<time>2025-02-15T09:50:05.000Z</time>
</trkpt>
<trkpt lat="45.8592940" lon="9.2179860">
	<ele>1102.40</ele>
	<time>2025-02-15T09:50:06.000Z</time>
</trkpt>
<trkpt lat="45.8592820" lon="9.2179750">
	<ele>1102.60</ele>
	<time>2025-02-15T09:50:07.000Z</time>
</trkpt>
<trkpt lat="45.8592810" lon="9.2179720">
	<ele>1102.80</ele>
	<time>2025-02-15T09:50:08.000Z</time>
</trkpt>
<trkpt lat="45.8592820" lon="9.2179680">
	<ele>1102.80</ele>
	<time>2025-02-15T09:50:09.000Z</time>
</trkpt>
<trkpt lat="45.8592800" lon="9.2179630">
	<ele>1103.00</ele>
	<time>2025-02-15T09:50:10.000Z</time>
</trkpt>
<trkpt lat="45.8592800" lon="9.2179600">
	<ele>1103.00</ele>
	<time>2025-02-15T09:50:11.000Z</time>
</trkpt>
<trkpt lat="45.8592780" lon="9.2179560">
	<ele>1103.20</ele>
	<time>2025-02-15T09:50:12.000Z</time>
</trkpt>
<trkpt lat="45.8592680" lon="9.2179400">
	<ele>1103.40</ele>
	<time>2025-02-15T09:50:13.000Z</time>
</trkpt>
<trkpt lat="45.8592590" lon="9.2179260">
	<ele>1103.40</ele>
	<time>2025-02-15T09:50:14.000Z</time>
</trkpt>
<trkpt lat="45.8592520" lon="9.2179170">
	<ele>1103.60</ele>
	<time>2025-02-15T09:50:15.000Z</time>
</trkpt>
<trkpt lat="45.8592480" lon="9.2179090">
	<ele>1103.80</ele>
	<time>2025-02-15T09:50:16.000Z</time>
</trkpt>
<trkpt lat="45.8592400" lon="9.2179000">
	<ele>1103.80</ele>
	<time>2025-02-15T09:50:17.000Z</time>
</trkpt>
<trkpt lat="45.8592280" lon="9.2178910">
	<ele>1104.00</ele>
	<time>2025-02-15T09:50:18.000Z</time>
</trkpt>
<trkpt lat="45.8592250" lon="9.2178850">
	<ele>1104.20</ele>
	<time>2025-02-15T09:50:19.000Z</time>
</trkpt>
<trkpt lat="45.8592190" lon="9.2178750">
	<ele>1104.40</ele>
	<time>2025-02-15T09:50:20.000Z</time>
</trkpt>
<trkpt lat="45.8592100" lon="9.2178740">
	<ele>1104.60</ele>
	<time>2025-02-15T09:50:21.000Z</time>
</trkpt>
<trkpt lat="45.8592060" lon="9.2178700">
	<ele>1104.60</ele>
	<time>2025-02-15T09:50:22.000Z</time>
</trkpt>
<trkpt lat="45.8592010" lon="9.2178670">
	<ele>1104.80</ele>
	<time>2025-02-15T09:50:23.000Z</time>
</trkpt>
<trkpt lat="45.8592020" lon="9.2178610">
	<ele>1105.00</ele>
	<time>2025-02-15T09:50:24.000Z</time>
</trkpt>
<trkpt lat="45.8592010" lon="9.2178510">
	<ele>1105.20</ele>
	<time>2025-02-15T09:50:25.000Z</time>
</trkpt>
<trkpt lat="45.8591990" lon="9.2178400">
	<ele>1105.20</ele>
	<time>2025-02-15T09:50:26.000Z</time>
</trkpt>
<trkpt lat="45.8592010" lon="9.2178290">
	<ele>1105.40</ele>
	<time>2025-02-15T09:50:27.000Z</time>
</trkpt>
<trkpt lat="45.8592020" lon="9.2178230">
	<ele>1105.60</ele>
	<time>2025-02-15T09:50:28.000Z</time>
</trkpt>
<trkpt lat="45.8592030" lon="9.2178180">
	<ele>1105.60</ele>
	<time>2025-02-15T09:50:29.000Z</time>
</trkpt>
<trkpt lat="45.8592020" lon="9.2178150">
	<ele>1105.80</ele>
	<time>2025-02-15T09:50:30.000Z</time>
</trkpt>
<trkpt lat="45.8591980" lon="9.2178220">
	<ele>1105.80</ele>
	<time>2025-02-15T09:50:31.000Z</time>
</trkpt>
<trkpt lat="45.8591950" lon="9.2178260">
	<ele>1106.00</ele>
	<time>2025-02-15T09:50:32.000Z</time>
</trkpt>
<trkpt lat="45.8592010" lon="9.2178290">
	<ele>1106.00</ele>
	<time>2025-02-15T09:50:33.000Z</time>
</trkpt>
<trkpt lat="45.8592010" lon="9.2178270">
	<ele>1106.00</ele>
	<time>2025-02-15T09:50:34.000Z</time>
</trkpt>
<trkpt lat="45.8592030" lon="9.2178270">
	<ele>1106.00</ele>
	<time>2025-02-15T09:50:35.000Z</time>
</trkpt>
<trkpt lat="45.8592040" lon="9.2178270">
	<ele>1106.00</ele>
	<time>2025-02-15T09:50:36.000Z</time>
</trkpt>
<trkpt lat="45.8592040" lon="9.2178270">
	<ele>1106.00</ele>
	<time>2025-02-15T09:50:37.000Z</time>
</trkpt>
<trkpt lat="45.8592040" lon="9.2178270">
	<ele>1106.00</ele>
	<time>2025-02-15T09:50:38.000Z</time>
</trkpt>
<trkpt lat="45.8592040" lon="9.2178270">
	<ele>1106.00</ele>
	<time>2025-02-15T09:50:39.000Z</time>
</trkpt>
<trkpt lat="45.8592040" lon="9.2178270">
	<ele>1106.00</ele>
	<time>2025-02-15T09:50:40.000Z</time>
</trkpt>
<trkpt lat="45.8592040" lon="9.2178270">
	<ele>1106.00</ele>
	<time>2025-02-15T09:50:41.000Z</time>
</trkpt>
<trkpt lat="45.8592040" lon="9.2178270">
	<ele>1106.00</ele>
	<time>2025-02-15T09:50:42.000Z</time>
</trkpt>
<trkpt lat="45.8592040" lon="9.2178270">
	<ele>1106.00</ele>
	<time>2025-02-15T09:50:43.000Z</time>
</trkpt>
<trkpt lat="45.8592040" lon="9.2178270">
	<ele>1106.00</ele>
	<time>2025-02-15T09:50:44.000Z</time>
</trkpt>
<trkpt lat="45.8592040" lon="9.2178270">
	<ele>1106.00</ele>
	<time>2025-02-15T09:50:45.000Z</time>
</trkpt>
<trkpt lat="45.8592040" lon="9.2178270">
	<ele>1106.00</ele>
	<time>2025-02-15T09:50:46.000Z</time>
</trkpt>
<trkpt lat="45.8592040" lon="9.2178270">
	<ele>1106.00</ele>
	<time>2025-02-15T09:50:47.000Z</time>
</trkpt>
<trkpt lat="45.8592040" lon="9.2178270">
	<ele>1106.00</ele>
	<time>2025-02-15T09:50:48.000Z</time>
</trkpt>
<trkpt lat="45.8592040" lon="9.2178260">
	<ele>1106.00</ele>
	<time>2025-02-15T09:50:49.000Z</time>
</trkpt>
<trkpt lat="45.8592040" lon="9.2178230">
	<ele>1106.00</ele>
	<time>2025-02-15T09:50:50.000Z</time>
</trkpt>
<trkpt lat="45.8592040" lon="9.2178220">
	<ele>1106.00</ele>
	<time>2025-02-15T09:50:51.000Z</time>
</trkpt>
<trkpt lat="45.8592040" lon="9.2178180">
	<ele>1106.00</ele>
	<time>2025-02-15T09:50:52.000Z</time>
</trkpt>
<trkpt lat="45.8592040" lon="9.2178150">
	<ele>1106.00</ele>
	<time>2025-02-15T09:50:53.000Z</time>
</trkpt>
<trkpt lat="45.8592040" lon="9.2178140">
	<ele>1106.00</ele>
	<time>2025-02-15T09:50:54.000Z</time>
</trkpt>
<trkpt lat="45.8592050" lon="9.2178010">
	<ele>1106.00</ele>
	<time>2025-02-15T09:50:55.000Z</time>
</trkpt>
<trkpt lat="45.8592050" lon="9.2177890">
	<ele>1106.00</ele>
	<time>2025-02-15T09:50:56.000Z</time>
</trkpt>
<trkpt lat="45.8592050" lon="9.2177840">
	<ele>1106.00</ele>
	<time>2025-02-15T09:50:57.000Z</time>
</trkpt>
<trkpt lat="45.8592070" lon="9.2177680">
	<ele>1106.00</ele>
	<time>2025-02-15T09:50:58.000Z</time>
</trkpt>
<trkpt lat="45.8592080" lon="9.2177640">
	<ele>1106.00</ele>
	<time>2025-02-15T09:50:59.000Z</time>
</trkpt>
<trkpt lat="45.8592080" lon="9.2177630">
	<ele>1106.00</ele>
	<time>2025-02-15T09:51:00.000Z</time>
</trkpt>
<trkpt lat="45.8592090" lon="9.2177630">
	<ele>1106.00</ele>
	<time>2025-02-15T09:51:01.000Z</time>
</trkpt>
<trkpt lat="45.8592090" lon="9.2177620">
	<ele>1106.00</ele>
	<time>2025-02-15T09:51:02.000Z</time>
</trkpt>
<trkpt lat="45.8592090" lon="9.2177620">
	<ele>1105.80</ele>
	<time>2025-02-15T09:51:03.000Z</time>
</trkpt>
<trkpt lat="45.8592090" lon="9.2177610">
	<ele>1105.80</ele>
	<time>2025-02-15T09:51:04.000Z</time>
</trkpt>
<trkpt lat="45.8592090" lon="9.2177610">
	<ele>1105.80</ele>
	<time>2025-02-15T09:51:05.000Z</time>
</trkpt>
<trkpt lat="45.8592090" lon="9.2177610">
	<ele>1105.80</ele>
	<time>2025-02-15T09:51:06.000Z</time>
</trkpt>
<trkpt lat="45.8592090" lon="9.2177610">
	<ele>1106.00</ele>
	<time>2025-02-15T09:51:07.000Z</time>
</trkpt>
<trkpt lat="45.8592090" lon="9.2177600">
	<ele>1106.00</ele>
	<time>2025-02-15T09:51:08.000Z</time>
</trkpt>
<trkpt lat="45.8592090" lon="9.2177600">
	<ele>1106.00</ele>
	<time>2025-02-15T09:51:09.000Z</time>
</trkpt>
<trkpt lat="45.8592090" lon="9.2177590">
	<ele>1106.00</ele>
	<time>2025-02-15T09:51:10.000Z</time>
</trkpt>
<trkpt lat="45.8592090" lon="9.2177590">
	<ele>1106.00</ele>
	<time>2025-02-15T09:51:11.000Z</time>
</trkpt>
<trkpt lat="45.8592090" lon="9.2177590">
	<ele>1106.00</ele>
	<time>2025-02-15T09:51:12.000Z</time>
</trkpt>
<trkpt lat="45.8592090" lon="9.2177580">
	<ele>1105.80</ele>
	<time>2025-02-15T09:51:13.000Z</time>
</trkpt>
<trkpt lat="45.8592090" lon="9.2177580">
	<ele>1105.80</ele>
	<time>2025-02-15T09:51:14.000Z</time>
</trkpt>
<trkpt lat="45.8592090" lon="9.2177580">
	<ele>1105.80</ele>
	<time>2025-02-15T09:51:15.000Z</time>
</trkpt>
<trkpt lat="45.8592090" lon="9.2177580">
	<ele>1105.80</ele>
	<time>2025-02-15T09:51:16.000Z</time>
</trkpt>
<trkpt lat="45.8592090" lon="9.2177580">
	<ele>1105.80</ele>
	<time>2025-02-15T09:51:17.000Z</time>
</trkpt>
<trkpt lat="45.8592090" lon="9.2177580">
	<ele>1105.80</ele>
	<time>2025-02-15T09:51:18.000Z</time>
</trkpt>
<trkpt lat="45.8592090" lon="9.2177580">
	<ele>1105.80</ele>
	<time>2025-02-15T09:51:19.000Z</time>
</trkpt>
<trkpt lat="45.8592090" lon="9.2177580">
	<ele>1105.80</ele>
	<time>2025-02-15T09:51:20.000Z</time>
</trkpt>
<trkpt lat="45.8592090" lon="9.2177590">
	<ele>1105.80</ele>
	<time>2025-02-15T09:51:21.000Z</time>
</trkpt>
<trkpt lat="45.8592090" lon="9.2177590">
	<ele>1105.80</ele>
	<time>2025-02-15T09:51:22.000Z</time>
</trkpt>
<trkpt lat="45.8592090" lon="9.2177600">
	<ele>1105.80</ele>
	<time>2025-02-15T09:51:23.000Z</time>
</trkpt>
<trkpt lat="45.8592090" lon="9.2177600">
	<ele>1105.80</ele>
	<time>2025-02-15T09:51:24.000Z</time>
</trkpt>
<trkpt lat="45.8592090" lon="9.2177610">
	<ele>1105.80</ele>
	<time>2025-02-15T09:51:25.000Z</time>
</trkpt>
<trkpt lat="45.8592090" lon="9.2177610">
	<ele>1105.80</ele>
	<time>2025-02-15T09:51:26.000Z</time>
</trkpt>
<trkpt lat="45.8592100" lon="9.2177610">
	<ele>1105.80</ele>
	<time>2025-02-15T09:51:27.000Z</time>
</trkpt>
<trkpt lat="45.8592110" lon="9.2177610">
	<ele>1105.80</ele>
	<time>2025-02-15T09:51:28.000Z</time>
</trkpt>
<trkpt lat="45.8592120" lon="9.2177600">
	<ele>1105.80</ele>
	<time>2025-02-15T09:51:29.000Z</time>
</trkpt>
<trkpt lat="45.8592130" lon="9.2177600">
	<ele>1105.80</ele>
	<time>2025-02-15T09:51:30.000Z</time>
</trkpt>
<trkpt lat="45.8592140" lon="9.2177600">
	<ele>1105.80</ele>
	<time>2025-02-15T09:51:31.000Z</time>
</trkpt>
<trkpt lat="45.8592140" lon="9.2177590">
	<ele>1105.80</ele>
	<time>2025-02-15T09:51:32.000Z</time>
</trkpt>
<trkpt lat="45.8592140" lon="9.2177580">
	<ele>1105.80</ele>
	<time>2025-02-15T09:51:33.000Z</time>
</trkpt>
<trkpt lat="45.8592140" lon="9.2177580">
	<ele>1105.80</ele>
	<time>2025-02-15T09:51:34.000Z</time>
</trkpt>
<trkpt lat="45.8592140" lon="9.2177580">
	<ele>1106.00</ele>
	<time>2025-02-15T09:51:35.000Z</time>
</trkpt>
<trkpt lat="45.8592140" lon="9.2177580">
	<ele>1106.00</ele>
	<time>2025-02-15T09:51:36.000Z</time>
</trkpt>
<trkpt lat="45.8592140" lon="9.2177580">
	<ele>1106.00</ele>
	<time>2025-02-15T09:51:37.000Z</time>
</trkpt>
<trkpt lat="45.8592140" lon="9.2177580">
	<ele>1106.20</ele>
	<time>2025-02-15T09:51:38.000Z</time>
</trkpt>
<trkpt lat="45.8592140" lon="9.2177570">
	<ele>1106.20</ele>
	<time>2025-02-15T09:51:39.000Z</time>
</trkpt>
<trkpt lat="45.8592140" lon="9.2177560">
	<ele>1106.40</ele>
	<time>2025-02-15T09:51:40.000Z</time>
</trkpt>
<trkpt lat="45.8592140" lon="9.2177560">
	<ele>1106.40</ele>
	<time>2025-02-15T09:51:41.000Z</time>
</trkpt>
<trkpt lat="45.8592140" lon="9.2177560">
	<ele>1106.60</ele>
	<time>2025-02-15T09:51:42.000Z</time>
</trkpt>
<trkpt lat="45.8592140" lon="9.2177560">
	<ele>1106.80</ele>
	<time>2025-02-15T09:51:43.000Z</time>
</trkpt>
<trkpt lat="45.8592140" lon="9.2177490">
	<ele>1107.00</ele>
	<time>2025-02-15T09:51:44.000Z</time>
</trkpt>
<trkpt lat="45.8592140" lon="9.2177450">
	<ele>1107.20</ele>
	<time>2025-02-15T09:51:45.000Z</time>
</trkpt>
<trkpt lat="45.8592140" lon="9.2177400">
	<ele>1107.40</ele>
	<time>2025-02-15T09:51:46.000Z</time>
</trkpt>
<trkpt lat="45.8592140" lon="9.2177350">
	<ele>1107.60</ele>
	<time>2025-02-15T09:51:47.000Z</time>
</trkpt>
<trkpt lat="45.8592140" lon="9.2177320">
	<ele>1107.80</ele>
	<time>2025-02-15T09:51:48.000Z</time>
</trkpt>
<trkpt lat="45.8592120" lon="9.2177260">
	<ele>1108.00</ele>
	<time>2025-02-15T09:51:49.000Z</time>
</trkpt>
<trkpt lat="45.8592100" lon="9.2177200">
	<ele>1108.00</ele>
	<time>2025-02-15T09:51:50.000Z</time>
</trkpt>
<trkpt lat="45.8592060" lon="9.2177150">
	<ele>1108.20</ele>
	<time>2025-02-15T09:51:51.000Z</time>
</trkpt>
<trkpt lat="45.8592020" lon="9.2177060">
	<ele>1108.40</ele>
	<time>2025-02-15T09:51:52.000Z</time>
</trkpt>
<trkpt lat="45.8591960" lon="9.2176960">
	<ele>1108.80</ele>
	<time>2025-02-15T09:51:53.000Z</time>
</trkpt>
<trkpt lat="45.8591920" lon="9.2176860">
	<ele>1109.00</ele>
	<time>2025-02-15T09:51:54.000Z</time>
</trkpt>
<trkpt lat="45.8591880" lon="9.2176790">
	<ele>1109.00</ele>
	<time>2025-02-15T09:51:55.000Z</time>
</trkpt>
<trkpt lat="45.8591840" lon="9.2176700">
	<ele>1109.00</ele>
	<time>2025-02-15T09:51:56.000Z</time>
</trkpt>
<trkpt lat="45.8591820" lon="9.2176610">
	<ele>1109.20</ele>
	<time>2025-02-15T09:51:57.000Z</time>
</trkpt>
<trkpt lat="45.8591790" lon="9.2176530">
	<ele>1109.20</ele>
	<time>2025-02-15T09:51:58.000Z</time>
</trkpt>
<trkpt lat="45.8591750" lon="9.2176460">
	<ele>1109.20</ele>
	<time>2025-02-15T09:51:59.000Z</time>
</trkpt>
<trkpt lat="45.8591700" lon="9.2176380">
	<ele>1109.40</ele>
	<time>2025-02-15T09:52:00.000Z</time>
</trkpt>
<trkpt lat="45.8591620" lon="9.2176290">
	<ele>1109.80</ele>
	<time>2025-02-15T09:52:01.000Z</time>
</trkpt>
<trkpt lat="45.8591570" lon="9.2176220">
	<ele>1110.00</ele>
	<time>2025-02-15T09:52:02.000Z</time>
</trkpt>
<trkpt lat="45.8591500" lon="9.2176180">
	<ele>1110.00</ele>
	<time>2025-02-15T09:52:03.000Z</time>
</trkpt>
<trkpt lat="45.8591450" lon="9.2176120">
	<ele>1110.20</ele>
	<time>2025-02-15T09:52:04.000Z</time>
</trkpt>
<trkpt lat="45.8591420" lon="9.2176050">
	<ele>1110.20</ele>
	<time>2025-02-15T09:52:05.000Z</time>
</trkpt>
<trkpt lat="45.8591390" lon="9.2176010">
	<ele>1110.60</ele>
	<time>2025-02-15T09:52:06.000Z</time>
</trkpt>
<trkpt lat="45.8591380" lon="9.2175960">
	<ele>1110.80</ele>
	<time>2025-02-15T09:52:07.000Z</time>
</trkpt>
<trkpt lat="45.8591360" lon="9.2175890">
	<ele>1111.00</ele>
	<time>2025-02-15T09:52:08.000Z</time>
</trkpt>
<trkpt lat="45.8591350" lon="9.2175820">
	<ele>1111.20</ele>
	<time>2025-02-15T09:52:09.000Z</time>
</trkpt>
<trkpt lat="45.8591340" lon="9.2175740">
	<ele>1111.40</ele>
	<time>2025-02-15T09:52:10.000Z</time>
</trkpt>
<trkpt lat="45.8591320" lon="9.2175650">
	<ele>1111.40</ele>
	<time>2025-02-15T09:52:11.000Z</time>
</trkpt>
<trkpt lat="45.8591310" lon="9.2175580">
	<ele>1111.40</ele>
	<time>2025-02-15T09:52:12.000Z</time>
</trkpt>
<trkpt lat="45.8591310" lon="9.2175500">
	<ele>1111.60</ele>
	<time>2025-02-15T09:52:13.000Z</time>
</trkpt>
<trkpt lat="45.8591300" lon="9.2175430">
	<ele>1111.80</ele>
	<time>2025-02-15T09:52:14.000Z</time>
</trkpt>
<trkpt lat="45.8591290" lon="9.2175360">
	<ele>1112.00</ele>
	<time>2025-02-15T09:52:15.000Z</time>
</trkpt>
<trkpt lat="45.8591280" lon="9.2175300">
	<ele>1112.20</ele>
	<time>2025-02-15T09:52:16.000Z</time>
</trkpt>
<trkpt lat="45.8591280" lon="9.2175220">
	<ele>1112.40</ele>
	<time>2025-02-15T09:52:17.000Z</time>
</trkpt>
<trkpt lat="45.8591270" lon="9.2175130">
	<ele>1112.60</ele>
	<time>2025-02-15T09:52:18.000Z</time>
</trkpt>
<trkpt lat="45.8591260" lon="9.2175050">
	<ele>1112.60</ele>
	<time>2025-02-15T09:52:19.000Z</time>
</trkpt>
<trkpt lat="45.8591250" lon="9.2174990">
	<ele>1112.80</ele>
	<time>2025-02-15T09:52:20.000Z</time>
</trkpt>
<trkpt lat="45.8591240" lon="9.2174940">
	<ele>1112.80</ele>
	<time>2025-02-15T09:52:21.000Z</time>
</trkpt>
<trkpt lat="45.8591240" lon="9.2174890">
	<ele>1113.00</ele>
	<time>2025-02-15T09:52:22.000Z</time>
</trkpt>
<trkpt lat="45.8591220" lon="9.2174840">
	<ele>1113.20</ele>
	<time>2025-02-15T09:52:23.000Z</time>
</trkpt>
<trkpt lat="45.8591200" lon="9.2174790">
	<ele>1113.40</ele>
	<time>2025-02-15T09:52:24.000Z</time>
</trkpt>
<trkpt lat="45.8591190" lon="9.2174740">
	<ele>1113.60</ele>
	<time>2025-02-15T09:52:25.000Z</time>
</trkpt>
<trkpt lat="45.8591170" lon="9.2174690">
	<ele>1113.80</ele>
	<time>2025-02-15T09:52:26.000Z</time>
</trkpt>
<trkpt lat="45.8591130" lon="9.2174670">
	<ele>1113.80</ele>
	<time>2025-02-15T09:52:27.000Z</time>
</trkpt>
<trkpt lat="45.8591100" lon="9.2174640">
	<ele>1114.00</ele>
	<time>2025-02-15T09:52:28.000Z</time>
</trkpt>
<trkpt lat="45.8591080" lon="9.2174530">
	<ele>1114.20</ele>
	<time>2025-02-15T09:52:29.000Z</time>
</trkpt>
<trkpt lat="45.8591050" lon="9.2174330">
	<ele>1114.20</ele>
	<time>2025-02-15T09:52:30.000Z</time>
</trkpt>
<trkpt lat="45.8591010" lon="9.2174090">
	<ele>1114.40</ele>
	<time>2025-02-15T09:52:31.000Z</time>
</trkpt>
<trkpt lat="45.8590970" lon="9.2173920">
	<ele>1114.60</ele>
	<time>2025-02-15T09:52:32.000Z</time>
</trkpt>
<trkpt lat="45.8590910" lon="9.2173760">
	<ele>1115.00</ele>
	<time>2025-02-15T09:52:33.000Z</time>
</trkpt>
<trkpt lat="45.8590850" lon="9.2173600">
	<ele>1115.20</ele>
	<time>2025-02-15T09:52:34.000Z</time>
</trkpt>
<trkpt lat="45.8590810" lon="9.2173410">
	<ele>1115.40</ele>
	<time>2025-02-15T09:52:35.000Z</time>
</trkpt>
<trkpt lat="45.8590780" lon="9.2173190">
	<ele>1115.40</ele>
	<time>2025-02-15T09:52:36.000Z</time>
</trkpt>
<trkpt lat="45.8590780" lon="9.2173040">
	<ele>1115.60</ele>
	<time>2025-02-15T09:52:37.000Z</time>
</trkpt>
<trkpt lat="45.8590810" lon="9.2172890">
	<ele>1115.60</ele>
	<time>2025-02-15T09:52:38.000Z</time>
</trkpt>
<trkpt lat="45.8590890" lon="9.2172830">
	<ele>1115.80</ele>
	<time>2025-02-15T09:52:39.000Z</time>
</trkpt>
<trkpt lat="45.8590950" lon="9.2172750">
	<ele>1115.80</ele>
	<time>2025-02-15T09:52:40.000Z</time>
</trkpt>
<trkpt lat="45.8591010" lon="9.2172670">
	<ele>1115.80</ele>
	<time>2025-02-15T09:52:41.000Z</time>
</trkpt>
<trkpt lat="45.8591090" lon="9.2172590">
	<ele>1115.80</ele>
	<time>2025-02-15T09:52:42.000Z</time>
</trkpt>
<trkpt lat="45.8591120" lon="9.2172540">
	<ele>1115.80</ele>
	<time>2025-02-15T09:52:43.000Z</time>
</trkpt>
<trkpt lat="45.8591150" lon="9.2172490">
	<ele>1116.20</ele>
	<time>2025-02-15T09:52:44.000Z</time>
</trkpt>
<trkpt lat="45.8591180" lon="9.2172390">
	<ele>1116.40</ele>
	<time>2025-02-15T09:52:45.000Z</time>
</trkpt>
<trkpt lat="45.8591250" lon="9.2172280">
	<ele>1116.60</ele>
	<time>2025-02-15T09:52:46.000Z</time>
</trkpt>
<trkpt lat="45.8591280" lon="9.2172200">
	<ele>1116.60</ele>
	<time>2025-02-15T09:52:47.000Z</time>
</trkpt>
<trkpt lat="45.8591410" lon="9.2172070">
	<ele>1116.60</ele>
	<time>2025-02-15T09:52:48.000Z</time>
</trkpt>
<trkpt lat="45.8591490" lon="9.2172010">
	<ele>1116.80</ele>
	<time>2025-02-15T09:52:49.000Z</time>
</trkpt>
<trkpt lat="45.8591560" lon="9.2171920">
	<ele>1117.00</ele>
	<time>2025-02-15T09:52:50.000Z</time>
</trkpt>
<trkpt lat="45.8591580" lon="9.2171790">
	<ele>1117.00</ele>
	<time>2025-02-15T09:52:51.000Z</time>
</trkpt>
<trkpt lat="45.8591550" lon="9.2171660">
	<ele>1117.00</ele>
	<time>2025-02-15T09:52:52.000Z</time>
</trkpt>
<trkpt lat="45.8591500" lon="9.2171540">
	<ele>1117.00</ele>
	<time>2025-02-15T09:52:53.000Z</time>
</trkpt>
<trkpt lat="45.8591430" lon="9.2171490">
	<ele>1117.00</ele>
	<time>2025-02-15T09:52:54.000Z</time>
</trkpt>
<trkpt lat="45.8591400" lon="9.2171450">
	<ele>1117.20</ele>
	<time>2025-02-15T09:52:55.000Z</time>
</trkpt>
<trkpt lat="45.8591360" lon="9.2171390">
	<ele>1117.20</ele>
	<time>2025-02-15T09:52:56.000Z</time>
</trkpt>
<trkpt lat="45.8591380" lon="9.2171330">
	<ele>1117.20</ele>
	<time>2025-02-15T09:52:57.000Z</time>
</trkpt>
<trkpt lat="45.8591420" lon="9.2171250">
	<ele>1117.40</ele>
	<time>2025-02-15T09:52:58.000Z</time>
</trkpt>
<trkpt lat="45.8591420" lon="9.2171130">
	<ele>1117.40</ele>
	<time>2025-02-15T09:52:59.000Z</time>
</trkpt>
<trkpt lat="45.8591420" lon="9.2171060">
	<ele>1117.60</ele>
	<time>2025-02-15T09:53:00.000Z</time>
</trkpt>
<trkpt lat="45.8591400" lon="9.2171000">
	<ele>1117.60</ele>
	<time>2025-02-15T09:53:01.000Z</time>
</trkpt>
<trkpt lat="45.8591360" lon="9.2170950">
	<ele>1117.80</ele>
	<time>2025-02-15T09:53:02.000Z</time>
</trkpt>
<trkpt lat="45.8591320" lon="9.2170880">
	<ele>1118.00</ele>
	<time>2025-02-15T09:53:03.000Z</time>
</trkpt>
<trkpt lat="45.8591300" lon="9.2170790">
	<ele>1118.20</ele>
	<time>2025-02-15T09:53:04.000Z</time>
</trkpt>
<trkpt lat="45.8591260" lon="9.2170710">
	<ele>1118.20</ele>
	<time>2025-02-15T09:53:05.000Z</time>
</trkpt>
<trkpt lat="45.8591240" lon="9.2170550">
	<ele>1118.40</ele>
	<time>2025-02-15T09:53:06.000Z</time>
</trkpt>
<trkpt lat="45.8591240" lon="9.2170340">
	<ele>1118.60</ele>
	<time>2025-02-15T09:53:07.000Z</time>
</trkpt>
<trkpt lat="45.8591230" lon="9.2170280">
	<ele>1118.60</ele>
	<time>2025-02-15T09:53:08.000Z</time>
</trkpt>
<trkpt lat="45.8591270" lon="9.2170140">
	<ele>1118.80</ele>
	<time>2025-02-15T09:53:09.000Z</time>
</trkpt>
<trkpt lat="45.8591260" lon="9.2170010">
	<ele>1118.80</ele>
	<time>2025-02-15T09:53:10.000Z</time>
</trkpt>
<trkpt lat="45.8591270" lon="9.2169940">
	<ele>1118.80</ele>
	<time>2025-02-15T09:53:11.000Z</time>
</trkpt>
<trkpt lat="45.8591280" lon="9.2169870">
	<ele>1118.80</ele>
	<time>2025-02-15T09:53:12.000Z</time>
</trkpt>
<trkpt lat="45.8591310" lon="9.2169750">
	<ele>1119.00</ele>
	<time>2025-02-15T09:53:13.000Z</time>
</trkpt>
<trkpt lat="45.8591300" lon="9.2169610">
	<ele>1119.20</ele>
	<time>2025-02-15T09:53:14.000Z</time>
</trkpt>
<trkpt lat="45.8591360" lon="9.2169470">
	<ele>1119.20</ele>
	<time>2025-02-15T09:53:15.000Z</time>
</trkpt>
<trkpt lat="45.8591400" lon="9.2169330">
	<ele>1119.20</ele>
	<time>2025-02-15T09:53:16.000Z</time>
</trkpt>
<trkpt lat="45.8591390" lon="9.2169190">
	<ele>1119.40</ele>
	<time>2025-02-15T09:53:17.000Z</time>
</trkpt>
<trkpt lat="45.8591340" lon="9.2169050">
	<ele>1119.40</ele>
	<time>2025-02-15T09:53:18.000Z</time>
</trkpt>
<trkpt lat="45.8591320" lon="9.2168930">
	<ele>1119.40</ele>
	<time>2025-02-15T09:53:19.000Z</time>
</trkpt>
<trkpt lat="45.8591350" lon="9.2168800">
	<ele>1119.40</ele>
	<time>2025-02-15T09:53:20.000Z</time>
</trkpt>
<trkpt lat="45.8591410" lon="9.2168700">
	<ele>1119.60</ele>
	<time>2025-02-15T09:53:21.000Z</time>
</trkpt>
<trkpt lat="45.8591450" lon="9.2168580">
	<ele>1119.80</ele>
	<time>2025-02-15T09:53:22.000Z</time>
</trkpt>
<trkpt lat="45.8591480" lon="9.2168450">
	<ele>1119.80</ele>
	<time>2025-02-15T09:53:23.000Z</time>
</trkpt>
<trkpt lat="45.8591490" lon="9.2168290">
	<ele>1119.80</ele>
	<time>2025-02-15T09:53:24.000Z</time>
</trkpt>
<trkpt lat="45.8591500" lon="9.2168130">
	<ele>1120.00</ele>
	<time>2025-02-15T09:53:25.000Z</time>
</trkpt>
<trkpt lat="45.8591480" lon="9.2168020">
	<ele>1120.00</ele>
	<time>2025-02-15T09:53:26.000Z</time>
</trkpt>
<trkpt lat="45.8591460" lon="9.2167930">
	<ele>1120.00</ele>
	<time>2025-02-15T09:53:27.000Z</time>
</trkpt>
<trkpt lat="45.8591440" lon="9.2167830">
	<ele>1120.00</ele>
	<time>2025-02-15T09:53:28.000Z</time>
</trkpt>
<trkpt lat="45.8591410" lon="9.2167710">
	<ele>1120.20</ele>
	<time>2025-02-15T09:53:29.000Z</time>
</trkpt>
<trkpt lat="45.8591360" lon="9.2167650">
	<ele>1120.40</ele>
	<time>2025-02-15T09:53:30.000Z</time>
</trkpt>
<trkpt lat="45.8591360" lon="9.2167620">
	<ele>1120.40</ele>
	<time>2025-02-15T09:53:31.000Z</time>
</trkpt>
<trkpt lat="45.8591350" lon="9.2167570">
	<ele>1120.60</ele>
	<time>2025-02-15T09:53:32.000Z</time>
</trkpt>
<trkpt lat="45.8591250" lon="9.2167480">
	<ele>1120.60</ele>
	<time>2025-02-15T09:53:33.000Z</time>
</trkpt>
<trkpt lat="45.8591130" lon="9.2167440">
	<ele>1120.60</ele>
	<time>2025-02-15T09:53:34.000Z</time>
</trkpt>
<trkpt lat="45.8591050" lon="9.2167400">
	<ele>1120.80</ele>
	<time>2025-02-15T09:53:35.000Z</time>
</trkpt>
<trkpt lat="45.8591010" lon="9.2167360">
	<ele>1121.00</ele>
	<time>2025-02-15T09:53:36.000Z</time>
</trkpt>
<trkpt lat="45.8590980" lon="9.2167300">
	<ele>1121.00</ele>
	<time>2025-02-15T09:53:37.000Z</time>
</trkpt>
<trkpt lat="45.8590960" lon="9.2167250">
	<ele>1121.40</ele>
	<time>2025-02-15T09:53:38.000Z</time>
</trkpt>
<trkpt lat="45.8590930" lon="9.2167200">
	<ele>1121.60</ele>
	<time>2025-02-15T09:53:39.000Z</time>
</trkpt>
<trkpt lat="45.8590910" lon="9.2167150">
	<ele>1121.60</ele>
	<time>2025-02-15T09:53:40.000Z</time>
</trkpt>
<trkpt lat="45.8590880" lon="9.2167110">
	<ele>1122.00</ele>
	<time>2025-02-15T09:53:41.000Z</time>
</trkpt>
<trkpt lat="45.8590920" lon="9.2167060">
	<ele>1122.20</ele>
	<time>2025-02-15T09:53:42.000Z</time>
</trkpt>
<trkpt lat="45.8590940" lon="9.2167030">
	<ele>1122.40</ele>
	<time>2025-02-15T09:53:43.000Z</time>
</trkpt>
<trkpt lat="45.8590920" lon="9.2166920">
	<ele>1122.40</ele>
	<time>2025-02-15T09:53:44.000Z</time>
</trkpt>
<trkpt lat="45.8590840" lon="9.2166820">
	<ele>1122.40</ele>
	<time>2025-02-15T09:53:45.000Z</time>
</trkpt>
<trkpt lat="45.8590780" lon="9.2166710">
	<ele>1122.60</ele>
	<time>2025-02-15T09:53:46.000Z</time>
</trkpt>
<trkpt lat="45.8590790" lon="9.2166630">
	<ele>1122.60</ele>
	<time>2025-02-15T09:53:47.000Z</time>
</trkpt>
<trkpt lat="45.8590810" lon="9.2166580">
	<ele>1122.80</ele>
	<time>2025-02-15T09:53:48.000Z</time>
</trkpt>
<trkpt lat="45.8590810" lon="9.2166500">
	<ele>1122.80</ele>
	<time>2025-02-15T09:53:49.000Z</time>
</trkpt>
<trkpt lat="45.8590840" lon="9.2166410">
	<ele>1122.80</ele>
	<time>2025-02-15T09:53:50.000Z</time>
</trkpt>
<trkpt lat="45.8590860" lon="9.2166300">
	<ele>1122.80</ele>
	<time>2025-02-15T09:53:51.000Z</time>
</trkpt>
<trkpt lat="45.8590920" lon="9.2166210">
	<ele>1122.80</ele>
	<time>2025-02-15T09:53:52.000Z</time>
</trkpt>
<trkpt lat="45.8590980" lon="9.2166100">
	<ele>1122.80</ele>
	<time>2025-02-15T09:53:53.000Z</time>
</trkpt>
<trkpt lat="45.8591010" lon="9.2165980">
	<ele>1122.80</ele>
	<time>2025-02-15T09:53:54.000Z</time>
</trkpt>
<trkpt lat="45.8591040" lon="9.2165850">
	<ele>1122.80</ele>
	<time>2025-02-15T09:53:55.000Z</time>
</trkpt>
<trkpt lat="45.8591030" lon="9.2165710">
	<ele>1123.00</ele>
	<time>2025-02-15T09:53:56.000Z</time>
</trkpt>
<trkpt lat="45.8591000" lon="9.2165570">
	<ele>1123.00</ele>
	<time>2025-02-15T09:53:57.000Z</time>
</trkpt>
<trkpt lat="45.8590960" lon="9.2165500">
	<ele>1123.20</ele>
	<time>2025-02-15T09:53:58.000Z</time>
</trkpt>
<trkpt lat="45.8590950" lon="9.2165370">
	<ele>1123.40</ele>
	<time>2025-02-15T09:53:59.000Z</time>
</trkpt>
<trkpt lat="45.8590960" lon="9.2165260">
	<ele>1123.40</ele>
	<time>2025-02-15T09:54:00.000Z</time>
</trkpt>
<trkpt lat="45.8590950" lon="9.2165170">
	<ele>1123.60</ele>
	<time>2025-02-15T09:54:01.000Z</time>
</trkpt>
<trkpt lat="45.8590950" lon="9.2165070">
	<ele>1123.60</ele>
	<time>2025-02-15T09:54:02.000Z</time>
</trkpt>
<trkpt lat="45.8590960" lon="9.2164960">
	<ele>1123.60</ele>
	<time>2025-02-15T09:54:03.000Z</time>
</trkpt>
<trkpt lat="45.8590980" lon="9.2164820">
	<ele>1123.80</ele>
	<time>2025-02-15T09:54:04.000Z</time>
</trkpt>
<trkpt lat="45.8590940" lon="9.2164660">
	<ele>1123.80</ele>
	<time>2025-02-15T09:54:05.000Z</time>
</trkpt>
<trkpt lat="45.8590900" lon="9.2164510">
	<ele>1124.00</ele>
	<time>2025-02-15T09:54:06.000Z</time>
</trkpt>
<trkpt lat="45.8590820" lon="9.2164420">
	<ele>1124.20</ele>
	<time>2025-02-15T09:54:07.000Z</time>
</trkpt>
<trkpt lat="45.8590730" lon="9.2164370">
	<ele>1124.40</ele>
	<time>2025-02-15T09:54:08.000Z</time>
</trkpt>
<trkpt lat="45.8590680" lon="9.2164330">
	<ele>1124.60</ele>
	<time>2025-02-15T09:54:09.000Z</time>
</trkpt>
<trkpt lat="45.8590680" lon="9.2164300">
	<ele>1124.60</ele>
	<time>2025-02-15T09:54:10.000Z</time>
</trkpt>
<trkpt lat="45.8590670" lon="9.2164230">
	<ele>1124.60</ele>
	<time>2025-02-15T09:54:11.000Z</time>
</trkpt>
<trkpt lat="45.8590640" lon="9.2164150">
	<ele>1124.80</ele>
	<time>2025-02-15T09:54:12.000Z</time>
</trkpt>
<trkpt lat="45.8590580" lon="9.2164130">
	<ele>1124.80</ele>
	<time>2025-02-15T09:54:13.000Z</time>
</trkpt>
<trkpt lat="45.8590480" lon="9.2164090">
	<ele>1124.80</ele>
	<time>2025-02-15T09:54:14.000Z</time>
</trkpt>
<trkpt lat="45.8590430" lon="9.2164080">
	<ele>1125.00</ele>
	<time>2025-02-15T09:54:15.000Z</time>
</trkpt>
<trkpt lat="45.8590400" lon="9.2164090">
	<ele>1125.20</ele>
	<time>2025-02-15T09:54:16.000Z</time>
</trkpt>
<trkpt lat="45.8590320" lon="9.2163970">
	<ele>1125.60</ele>
	<time>2025-02-15T09:54:17.000Z</time>
</trkpt>
<trkpt lat="45.8590230" lon="9.2163840">
	<ele>1125.80</ele>
	<time>2025-02-15T09:54:18.000Z</time>
</trkpt>
<trkpt lat="45.8590200" lon="9.2163800">
	<ele>1126.00</ele>
	<time>2025-02-15T09:54:19.000Z</time>
</trkpt>
<trkpt lat="45.8590190" lon="9.2163790">
	<ele>1126.00</ele>
	<time>2025-02-15T09:54:20.000Z</time>
</trkpt>
<trkpt lat="45.8590210" lon="9.2163740">
	<ele>1126.20</ele>
	<time>2025-02-15T09:54:21.000Z</time>
</trkpt>
<trkpt lat="45.8590230" lon="9.2163730">
	<ele>1126.20</ele>
	<time>2025-02-15T09:54:22.000Z</time>
</trkpt>
<trkpt lat="45.8590210" lon="9.2163710">
	<ele>1126.40</ele>
	<time>2025-02-15T09:54:23.000Z</time>
</trkpt>
<trkpt lat="45.8590180" lon="9.2163620">
	<ele>1126.80</ele>
	<time>2025-02-15T09:54:24.000Z</time>
</trkpt>
<trkpt lat="45.8590150" lon="9.2163570">
	<ele>1127.00</ele>
	<time>2025-02-15T09:54:25.000Z</time>
</trkpt>
<trkpt lat="45.8590150" lon="9.2163440">
	<ele>1127.20</ele>
	<time>2025-02-15T09:54:26.000Z</time>
</trkpt>
<trkpt lat="45.8590140" lon="9.2163310">
	<ele>1127.40</ele>
	<time>2025-02-15T09:54:27.000Z</time>
</trkpt>
<trkpt lat="45.8590120" lon="9.2163250">
	<ele>1127.40</ele>
	<time>2025-02-15T09:54:28.000Z</time>
</trkpt>
<trkpt lat="45.8590170" lon="9.2163120">
	<ele>1127.40</ele>
	<time>2025-02-15T09:54:29.000Z</time>
</trkpt>
<trkpt lat="45.8590230" lon="9.2163010">
	<ele>1127.60</ele>
	<time>2025-02-15T09:54:30.000Z</time>
</trkpt>
<trkpt lat="45.8590310" lon="9.2162950">
	<ele>1127.60</ele>
	<time>2025-02-15T09:54:31.000Z</time>
</trkpt>
<trkpt lat="45.8590330" lon="9.2162900">
	<ele>1127.60</ele>
	<time>2025-02-15T09:54:32.000Z</time>
</trkpt>
<trkpt lat="45.8590340" lon="9.2162860">
	<ele>1127.80</ele>
	<time>2025-02-15T09:54:33.000Z</time>
</trkpt>
<trkpt lat="45.8590350" lon="9.2162750">
	<ele>1128.00</ele>
	<time>2025-02-15T09:54:34.000Z</time>
</trkpt>
<trkpt lat="45.8590370" lon="9.2162710">
	<ele>1128.20</ele>
	<time>2025-02-15T09:54:35.000Z</time>
</trkpt>
<trkpt lat="45.8590380" lon="9.2162650">
	<ele>1128.20</ele>
	<time>2025-02-15T09:54:36.000Z</time>
</trkpt>
<trkpt lat="45.8590390" lon="9.2162580">
	<ele>1128.20</ele>
	<time>2025-02-15T09:54:37.000Z</time>
</trkpt>
<trkpt lat="45.8590420" lon="9.2162440">
	<ele>1128.20</ele>
	<time>2025-02-15T09:54:38.000Z</time>
</trkpt>
<trkpt lat="45.8590470" lon="9.2162330">
	<ele>1128.40</ele>
	<time>2025-02-15T09:54:39.000Z</time>
</trkpt>
<trkpt lat="45.8590480" lon="9.2162240">
	<ele>1128.60</ele>
	<time>2025-02-15T09:54:40.000Z</time>
</trkpt>
<trkpt lat="45.8590470" lon="9.2162180">
	<ele>1128.60</ele>
	<time>2025-02-15T09:54:41.000Z</time>
</trkpt>
<trkpt lat="45.8590470" lon="9.2162080">
	<ele>1128.60</ele>
	<time>2025-02-15T09:54:42.000Z</time>
</trkpt>
<trkpt lat="45.8590500" lon="9.2161990">
	<ele>1128.80</ele>
	<time>2025-02-15T09:54:43.000Z</time>
</trkpt>
<trkpt lat="45.8590510" lon="9.2161940">
	<ele>1128.80</ele>
	<time>2025-02-15T09:54:44.000Z</time>
</trkpt>
<trkpt lat="45.8590510" lon="9.2161910">
	<ele>1129.00</ele>
	<time>2025-02-15T09:54:45.000Z</time>
</trkpt>
<trkpt lat="45.8590510" lon="9.2161870">
	<ele>1129.40</ele>
	<time>2025-02-15T09:54:46.000Z</time>
</trkpt>
<trkpt lat="45.8590470" lon="9.2161780">
	<ele>1129.40</ele>
	<time>2025-02-15T09:54:47.000Z</time>
</trkpt>
<trkpt lat="45.8590420" lon="9.2161760">
	<ele>1129.60</ele>
	<time>2025-02-15T09:54:48.000Z</time>
</trkpt>
<trkpt lat="45.8590380" lon="9.2161740">
	<ele>1129.80</ele>
	<time>2025-02-15T09:54:49.000Z</time>
</trkpt>
<trkpt lat="45.8590350" lon="9.2161700">
	<ele>1130.00</ele>
	<time>2025-02-15T09:54:50.000Z</time>
</trkpt>
<trkpt lat="45.8590340" lon="9.2161690">
	<ele>1130.00</ele>
	<time>2025-02-15T09:54:51.000Z</time>
</trkpt>
<trkpt lat="45.8590340" lon="9.2161680">
	<ele>1130.20</ele>
	<time>2025-02-15T09:54:52.000Z</time>
</trkpt>
<trkpt lat="45.8590340" lon="9.2161670">
	<ele>1130.20</ele>
	<time>2025-02-15T09:54:53.000Z</time>
</trkpt>
<trkpt lat="45.8590330" lon="9.2161640">
	<ele>1130.40</ele>
	<time>2025-02-15T09:54:54.000Z</time>
</trkpt>
<trkpt lat="45.8590380" lon="9.2161570">
	<ele>1130.40</ele>
	<time>2025-02-15T09:54:55.000Z</time>
</trkpt>
<trkpt lat="45.8590350" lon="9.2161440">
	<ele>1130.40</ele>
	<time>2025-02-15T09:54:56.000Z</time>
</trkpt>
<trkpt lat="45.8590360" lon="9.2161410">
	<ele>1130.60</ele>
	<time>2025-02-15T09:54:57.000Z</time>
</trkpt>
<trkpt lat="45.8590360" lon="9.2161400">
	<ele>1130.80</ele>
	<time>2025-02-15T09:54:58.000Z</time>
</trkpt>
<trkpt lat="45.8590340" lon="9.2161390">
	<ele>1130.80</ele>
	<time>2025-02-15T09:54:59.000Z</time>
</trkpt>
<trkpt lat="45.8590370" lon="9.2161290">
	<ele>1131.00</ele>
	<time>2025-02-15T09:55:00.000Z</time>
</trkpt>
<trkpt lat="45.8590380" lon="9.2161200">
	<ele>1131.20</ele>
	<time>2025-02-15T09:55:01.000Z</time>
</trkpt>
<trkpt lat="45.8590380" lon="9.2161160">
	<ele>1131.20</ele>
	<time>2025-02-15T09:55:02.000Z</time>
</trkpt>
<trkpt lat="45.8590400" lon="9.2161130">
	<ele>1131.20</ele>
	<time>2025-02-15T09:55:03.000Z</time>
</trkpt>
<trkpt lat="45.8590400" lon="9.2161030">
	<ele>1131.20</ele>
	<time>2025-02-15T09:55:04.000Z</time>
</trkpt>
<trkpt lat="45.8590370" lon="9.2160920">
	<ele>1131.40</ele>
	<time>2025-02-15T09:55:05.000Z</time>
</trkpt>
<trkpt lat="45.8590380" lon="9.2160760">
	<ele>1131.40</ele>
	<time>2025-02-15T09:55:06.000Z</time>
</trkpt>
<trkpt lat="45.8590360" lon="9.2160720">
	<ele>1131.40</ele>
	<time>2025-02-15T09:55:07.000Z</time>
</trkpt>
<trkpt lat="45.8590320" lon="9.2160610">
	<ele>1131.60</ele>
	<time>2025-02-15T09:55:08.000Z</time>
</trkpt>
<trkpt lat="45.8590240" lon="9.2160510">
	<ele>1131.60</ele>
	<time>2025-02-15T09:55:09.000Z</time>
</trkpt>
<trkpt lat="45.8590170" lon="9.2160420">
	<ele>1131.80</ele>
	<time>2025-02-15T09:55:10.000Z</time>
</trkpt>
<trkpt lat="45.8590140" lon="9.2160300">
	<ele>1131.80</ele>
	<time>2025-02-15T09:55:11.000Z</time>
</trkpt>
<trkpt lat="45.8590180" lon="9.2160170">
	<ele>1132.00</ele>
	<time>2025-02-15T09:55:12.000Z</time>
</trkpt>
<trkpt lat="45.8590180" lon="9.2160130">
	<ele>1132.20</ele>
	<time>2025-02-15T09:55:13.000Z</time>
</trkpt>
<trkpt lat="45.8590170" lon="9.2160090">
	<ele>1132.40</ele>
	<time>2025-02-15T09:55:14.000Z</time>
</trkpt>
<trkpt lat="45.8590150" lon="9.2160050">
	<ele>1132.40</ele>
	<time>2025-02-15T09:55:15.000Z</time>
</trkpt>
<trkpt lat="45.8590140" lon="9.2159960">
	<ele>1132.80</ele>
	<time>2025-02-15T09:55:16.000Z</time>
</trkpt>
<trkpt lat="45.8590160" lon="9.2159840">
	<ele>1133.00</ele>
	<time>2025-02-15T09:55:17.000Z</time>
</trkpt>
<trkpt lat="45.8590140" lon="9.2159780">
	<ele>1133.20</ele>
	<time>2025-02-15T09:55:18.000Z</time>
</trkpt>
<trkpt lat="45.8590160" lon="9.2159670">
	<ele>1133.40</ele>
	<time>2025-02-15T09:55:19.000Z</time>
</trkpt>
<trkpt lat="45.8590200" lon="9.2159560">
	<ele>1133.60</ele>
	<time>2025-02-15T09:55:20.000Z</time>
</trkpt>
<trkpt lat="45.8590210" lon="9.2159520">
	<ele>1133.80</ele>
	<time>2025-02-15T09:55:21.000Z</time>
</trkpt>
<trkpt lat="45.8590210" lon="9.2159470">
	<ele>1134.00</ele>
	<time>2025-02-15T09:55:22.000Z</time>
</trkpt>
<trkpt lat="45.8590250" lon="9.2159390">
	<ele>1134.00</ele>
	<time>2025-02-15T09:55:23.000Z</time>
</trkpt>
<trkpt lat="45.8590290" lon="9.2159280">
	<ele>1134.20</ele>
	<time>2025-02-15T09:55:24.000Z</time>
</trkpt>
<trkpt lat="45.8590310" lon="9.2159230">
	<ele>1134.20</ele>
	<time>2025-02-15T09:55:25.000Z</time>
</trkpt>
<trkpt lat="45.8590330" lon="9.2159180">
	<ele>1134.20</ele>
	<time>2025-02-15T09:55:26.000Z</time>
</trkpt>
<trkpt lat="45.8590390" lon="9.2159050">
	<ele>1134.40</ele>
	<time>2025-02-15T09:55:27.000Z</time>
</trkpt>
<trkpt lat="45.8590510" lon="9.2158950">
	<ele>1134.40</ele>
	<time>2025-02-15T09:55:28.000Z</time>
</trkpt>
<trkpt lat="45.8590630" lon="9.2158790">
	<ele>1134.60</ele>
	<time>2025-02-15T09:55:29.000Z</time>
</trkpt>
<trkpt lat="45.8590680" lon="9.2158660">
	<ele>1134.60</ele>
	<time>2025-02-15T09:55:30.000Z</time>
</trkpt>
<trkpt lat="45.8590690" lon="9.2158540">
	<ele>1134.80</ele>
	<time>2025-02-15T09:55:31.000Z</time>
</trkpt>
<trkpt lat="45.8590660" lon="9.2158410">
	<ele>1135.00</ele>
	<time>2025-02-15T09:55:32.000Z</time>
</trkpt>
<trkpt lat="45.8590670" lon="9.2158340">
	<ele>1135.20</ele>
	<time>2025-02-15T09:55:33.000Z</time>
</trkpt>
<trkpt lat="45.8590720" lon="9.2158260">
	<ele>1135.20</ele>
	<time>2025-02-15T09:55:34.000Z</time>
</trkpt>
<trkpt lat="45.8590720" lon="9.2158180">
	<ele>1135.40</ele>
	<time>2025-02-15T09:55:35.000Z</time>
</trkpt>
<trkpt lat="45.8590720" lon="9.2158130">
	<ele>1135.60</ele>
	<time>2025-02-15T09:55:36.000Z</time>
</trkpt>
<trkpt lat="45.8590700" lon="9.2158080">
	<ele>1135.60</ele>
	<time>2025-02-15T09:55:37.000Z</time>
</trkpt>
<trkpt lat="45.8590690" lon="9.2158050">
	<ele>1135.60</ele>
	<time>2025-02-15T09:55:38.000Z</time>
</trkpt>
<trkpt lat="45.8590700" lon="9.2158030">
	<ele>1135.80</ele>
	<time>2025-02-15T09:55:39.000Z</time>
</trkpt>
<trkpt lat="45.8590820" lon="9.2157990">
	<ele>1136.20</ele>
	<time>2025-02-15T09:55:40.000Z</time>
</trkpt>
<trkpt lat="45.8590810" lon="9.2157920">
	<ele>1136.40</ele>
	<time>2025-02-15T09:55:41.000Z</time>
</trkpt>
<trkpt lat="45.8590800" lon="9.2157800">
	<ele>1136.60</ele>
	<time>2025-02-15T09:55:42.000Z</time>
</trkpt>
<trkpt lat="45.8590710" lon="9.2157680">
	<ele>1136.60</ele>
	<time>2025-02-15T09:55:43.000Z</time>
</trkpt>
<trkpt lat="45.8590720" lon="9.2157540">
	<ele>1136.80</ele>
	<time>2025-02-15T09:55:44.000Z</time>
</trkpt>
<trkpt lat="45.8590700" lon="9.2157500">
	<ele>1136.80</ele>
	<time>2025-02-15T09:55:45.000Z</time>
</trkpt>
<trkpt lat="45.8590690" lon="9.2157500">
	<ele>1136.80</ele>
	<time>2025-02-15T09:55:46.000Z</time>
</trkpt>
<trkpt lat="45.8590720" lon="9.2157450">
	<ele>1137.00</ele>
	<time>2025-02-15T09:55:47.000Z</time>
</trkpt>
<trkpt lat="45.8590740" lon="9.2157390">
	<ele>1137.00</ele>
	<time>2025-02-15T09:55:48.000Z</time>
</trkpt>
<trkpt lat="45.8590750" lon="9.2157360">
	<ele>1137.00</ele>
	<time>2025-02-15T09:55:49.000Z</time>
</trkpt>
<trkpt lat="45.8590730" lon="9.2157290">
	<ele>1137.20</ele>
	<time>2025-02-15T09:55:50.000Z</time>
</trkpt>
<trkpt lat="45.8590760" lon="9.2157250">
	<ele>1137.60</ele>
	<time>2025-02-15T09:55:51.000Z</time>
</trkpt>
<trkpt lat="45.8590810" lon="9.2157210">
	<ele>1137.80</ele>
	<time>2025-02-15T09:55:52.000Z</time>
</trkpt>
<trkpt lat="45.8590820" lon="9.2157180">
	<ele>1138.00</ele>
	<time>2025-02-15T09:55:53.000Z</time>
</trkpt>
<trkpt lat="45.8590830" lon="9.2157110">
	<ele>1138.20</ele>
	<time>2025-02-15T09:55:54.000Z</time>
</trkpt>
<trkpt lat="45.8590820" lon="9.2157060">
	<ele>1138.40</ele>
	<time>2025-02-15T09:55:55.000Z</time>
</trkpt>
<trkpt lat="45.8590830" lon="9.2157040">
	<ele>1138.40</ele>
	<time>2025-02-15T09:55:56.000Z</time>
</trkpt>
<trkpt lat="45.8590850" lon="9.2156950">
	<ele>1138.60</ele>
	<time>2025-02-15T09:55:57.000Z</time>
</trkpt>
<trkpt lat="45.8590850" lon="9.2156840">
	<ele>1138.80</ele>
	<time>2025-02-15T09:55:58.000Z</time>
</trkpt>
<trkpt lat="45.8590820" lon="9.2156740">
	<ele>1139.20</ele>
	<time>2025-02-15T09:55:59.000Z</time>
</trkpt>
<trkpt lat="45.8590830" lon="9.2156690">
	<ele>1139.40</ele>
	<time>2025-02-15T09:56:00.000Z</time>
</trkpt>
<trkpt lat="45.8590880" lon="9.2156570">
	<ele>1139.60</ele>
	<time>2025-02-15T09:56:01.000Z</time>
</trkpt>
<trkpt lat="45.8590920" lon="9.2156490">
	<ele>1139.60</ele>
	<time>2025-02-15T09:56:02.000Z</time>
</trkpt>
<trkpt lat="45.8590950" lon="9.2156300">
	<ele>1139.60</ele>
	<time>2025-02-15T09:56:03.000Z</time>
</trkpt>
<trkpt lat="45.8591010" lon="9.2156170">
	<ele>1139.80</ele>
	<time>2025-02-15T09:56:04.000Z</time>
</trkpt>
<trkpt lat="45.8591020" lon="9.2156090">
	<ele>1139.80</ele>
	<time>2025-02-15T09:56:05.000Z</time>
</trkpt>
<trkpt lat="45.8591110" lon="9.2156020">
	<ele>1140.00</ele>
	<time>2025-02-15T09:56:06.000Z</time>
</trkpt>
<trkpt lat="45.8591130" lon="9.2155930">
	<ele>1140.00</ele>
	<time>2025-02-15T09:56:07.000Z</time>
</trkpt>
<trkpt lat="45.8591110" lon="9.2155890">
	<ele>1140.40</ele>
	<time>2025-02-15T09:56:08.000Z</time>
</trkpt>
<trkpt lat="45.8591110" lon="9.2155850">
	<ele>1140.40</ele>
	<time>2025-02-15T09:56:09.000Z</time>
</trkpt>
<trkpt lat="45.8591090" lon="9.2155790">
	<ele>1140.60</ele>
	<time>2025-02-15T09:56:10.000Z</time>
</trkpt>
<trkpt lat="45.8591070" lon="9.2155720">
	<ele>1140.60</ele>
	<time>2025-02-15T09:56:11.000Z</time>
</trkpt>
<trkpt lat="45.8591060" lon="9.2155660">
	<ele>1140.80</ele>
	<time>2025-02-15T09:56:12.000Z</time>
</trkpt>
<trkpt lat="45.8591080" lon="9.2155550">
	<ele>1140.80</ele>
	<time>2025-02-15T09:56:13.000Z</time>
</trkpt>
<trkpt lat="45.8591060" lon="9.2155460">
	<ele>1141.20</ele>
	<time>2025-02-15T09:56:14.000Z</time>
</trkpt>
<trkpt lat="45.8591020" lon="9.2155350">
	<ele>1141.60</ele>
	<time>2025-02-15T09:56:15.000Z</time>
</trkpt>
<trkpt lat="45.8591010" lon="9.2155280">
	<ele>1141.80</ele>
	<time>2025-02-15T09:56:16.000Z</time>
</trkpt>
<trkpt lat="45.8591040" lon="9.2155170">
	<ele>1141.60</ele>
	<time>2025-02-15T09:56:17.000Z</time>
</trkpt>
<trkpt lat="45.8591080" lon="9.2155050">
	<ele>1141.60</ele>
	<time>2025-02-15T09:56:18.000Z</time>
</trkpt>
<trkpt lat="45.8591080" lon="9.2154940">
	<ele>1141.80</ele>
	<time>2025-02-15T09:56:19.000Z</time>
</trkpt>
<trkpt lat="45.8591070" lon="9.2154860">
	<ele>1142.20</ele>
	<time>2025-02-15T09:56:20.000Z</time>
</trkpt>
<trkpt lat="45.8591070" lon="9.2154830">
	<ele>1142.40</ele>
	<time>2025-02-15T09:56:21.000Z</time>
</trkpt>
<trkpt lat="45.8590970" lon="9.2154780">
	<ele>1142.40</ele>
	<time>2025-02-15T09:56:22.000Z</time>
</trkpt>
<trkpt lat="45.8590970" lon="9.2154750">
	<ele>1143.00</ele>
	<time>2025-02-15T09:56:23.000Z</time>
</trkpt>
<trkpt lat="45.8590980" lon="9.2154730">
	<ele>1143.20</ele>
	<time>2025-02-15T09:56:24.000Z</time>
</trkpt>
<trkpt lat="45.8590970" lon="9.2154690">
	<ele>1143.40</ele>
	<time>2025-02-15T09:56:25.000Z</time>
</trkpt>
<trkpt lat="45.8590970" lon="9.2154670">
	<ele>1143.60</ele>
	<time>2025-02-15T09:56:26.000Z</time>
</trkpt>
<trkpt lat="45.8590960" lon="9.2154670">
	<ele>1143.60</ele>
	<time>2025-02-15T09:56:27.000Z</time>
</trkpt>
<trkpt lat="45.8590960" lon="9.2154680">
	<ele>1143.80</ele>
	<time>2025-02-15T09:56:28.000Z</time>
</trkpt>
<trkpt lat="45.8590970" lon="9.2154660">
	<ele>1144.00</ele>
	<time>2025-02-15T09:56:29.000Z</time>
</trkpt>
<trkpt lat="45.8590960" lon="9.2154630">
	<ele>1144.20</ele>
	<time>2025-02-15T09:56:30.000Z</time>
</trkpt>
<trkpt lat="45.8590940" lon="9.2154600">
	<ele>1144.40</ele>
	<time>2025-02-15T09:56:31.000Z</time>
</trkpt>
<trkpt lat="45.8590920" lon="9.2154590">
	<ele>1144.40</ele>
	<time>2025-02-15T09:56:32.000Z</time>
</trkpt>
<trkpt lat="45.8590920" lon="9.2154590">
	<ele>1144.40</ele>
	<time>2025-02-15T09:56:33.000Z</time>
</trkpt>
<trkpt lat="45.8590920" lon="9.2154590">
	<ele>1144.60</ele>
	<time>2025-02-15T09:56:34.000Z</time>
</trkpt>
<trkpt lat="45.8590920" lon="9.2154590">
	<ele>1144.60</ele>
	<time>2025-02-15T09:56:35.000Z</time>
</trkpt>
<trkpt lat="45.8590920" lon="9.2154590">
	<ele>1144.80</ele>
	<time>2025-02-15T09:56:36.000Z</time>
</trkpt>
<trkpt lat="45.8590920" lon="9.2154590">
	<ele>1144.80</ele>
	<time>2025-02-15T09:56:37.000Z</time>
</trkpt>
<trkpt lat="45.8590920" lon="9.2154590">
	<ele>1144.80</ele>
	<time>2025-02-15T09:56:38.000Z</time>
</trkpt>
<trkpt lat="45.8590920" lon="9.2154590">
	<ele>1145.00</ele>
	<time>2025-02-15T09:56:39.000Z</time>
</trkpt>
<trkpt lat="45.8590920" lon="9.2154590">
	<ele>1145.20</ele>
	<time>2025-02-15T09:56:40.000Z</time>
</trkpt>
<trkpt lat="45.8590920" lon="9.2154590">
	<ele>1145.20</ele>
	<time>2025-02-15T09:56:41.000Z</time>
</trkpt>
<trkpt lat="45.8590920" lon="9.2154590">
	<ele>1145.40</ele>
	<time>2025-02-15T09:56:42.000Z</time>
</trkpt>
<trkpt lat="45.8590920" lon="9.2154590">
	<ele>1145.40</ele>
	<time>2025-02-15T09:56:43.000Z</time>
</trkpt>
<trkpt lat="45.8590920" lon="9.2154590">
	<ele>1145.60</ele>
	<time>2025-02-15T09:56:44.000Z</time>
</trkpt>
<trkpt lat="45.8590920" lon="9.2154590">
	<ele>1145.80</ele>
	<time>2025-02-15T09:56:45.000Z</time>
</trkpt>
<trkpt lat="45.8590920" lon="9.2154590">
	<ele>1145.80</ele>
	<time>2025-02-15T09:56:46.000Z</time>
</trkpt>
<trkpt lat="45.8590920" lon="9.2154590">
	<ele>1146.00</ele>
	<time>2025-02-15T09:56:47.000Z</time>
</trkpt>
<trkpt lat="45.8590920" lon="9.2154590">
	<ele>1146.20</ele>
	<time>2025-02-15T09:56:48.000Z</time>
</trkpt>
<trkpt lat="45.8590920" lon="9.2154580">
	<ele>1146.20</ele>
	<time>2025-02-15T09:56:49.000Z</time>
</trkpt>
<trkpt lat="45.8590920" lon="9.2154520">
	<ele>1146.40</ele>
	<time>2025-02-15T09:56:50.000Z</time>
</trkpt>
<trkpt lat="45.8590930" lon="9.2154480">
	<ele>1146.40</ele>
	<time>2025-02-15T09:56:51.000Z</time>
</trkpt>
<trkpt lat="45.8590940" lon="9.2154470">
	<ele>1146.60</ele>
	<time>2025-02-15T09:56:52.000Z</time>
</trkpt>
<trkpt lat="45.8590940" lon="9.2154450">
	<ele>1146.60</ele>
	<time>2025-02-15T09:56:53.000Z</time>
</trkpt>
<trkpt lat="45.8590950" lon="9.2154420">
	<ele>1146.60</ele>
	<time>2025-02-15T09:56:54.000Z</time>
</trkpt>
<trkpt lat="45.8590950" lon="9.2154380">
	<ele>1146.60</ele>
	<time>2025-02-15T09:56:55.000Z</time>
</trkpt>
<trkpt lat="45.8590950" lon="9.2154330">
	<ele>1146.60</ele>
	<time>2025-02-15T09:56:56.000Z</time>
</trkpt>
<trkpt lat="45.8590950" lon="9.2154280">
	<ele>1146.80</ele>
	<time>2025-02-15T09:56:57.000Z</time>
</trkpt>
<trkpt lat="45.8590950" lon="9.2154240">
	<ele>1147.00</ele>
	<time>2025-02-15T09:56:58.000Z</time>
</trkpt>
<trkpt lat="45.8590940" lon="9.2154200">
	<ele>1147.20</ele>
	<time>2025-02-15T09:56:59.000Z</time>
</trkpt>
<trkpt lat="45.8590930" lon="9.2154130">
	<ele>1147.60</ele>
	<time>2025-02-15T09:57:00.000Z</time>
</trkpt>
<trkpt lat="45.8590920" lon="9.2154050">
	<ele>1147.80</ele>
	<time>2025-02-15T09:57:01.000Z</time>
</trkpt>
<trkpt lat="45.8590920" lon="9.2153940">
	<ele>1147.80</ele>
	<time>2025-02-15T09:57:02.000Z</time>
</trkpt>
<trkpt lat="45.8590920" lon="9.2153830">
	<ele>1147.80</ele>
	<time>2025-02-15T09:57:03.000Z</time>
</trkpt>
<trkpt lat="45.8590920" lon="9.2153760">
	<ele>1148.20</ele>
	<time>2025-02-15T09:57:04.000Z</time>
</trkpt>
<trkpt lat="45.8590920" lon="9.2153710">
	<ele>1148.40</ele>
	<time>2025-02-15T09:57:05.000Z</time>
</trkpt>
<trkpt lat="45.8590920" lon="9.2153600">
	<ele>1148.60</ele>
	<time>2025-02-15T09:57:06.000Z</time>
</trkpt>
<trkpt lat="45.8590920" lon="9.2153520">
	<ele>1148.60</ele>
	<time>2025-02-15T09:57:07.000Z</time>
</trkpt>
<trkpt lat="45.8590910" lon="9.2153470">
	<ele>1148.80</ele>
	<time>2025-02-15T09:57:08.000Z</time>
</trkpt>
<trkpt lat="45.8590900" lon="9.2153450">
	<ele>1149.00</ele>
	<time>2025-02-15T09:57:09.000Z</time>
</trkpt>
<trkpt lat="45.8590900" lon="9.2153400">
	<ele>1149.40</ele>
	<time>2025-02-15T09:57:10.000Z</time>
</trkpt>
<trkpt lat="45.8590900" lon="9.2153350">
	<ele>1149.60</ele>
	<time>2025-02-15T09:57:11.000Z</time>
</trkpt>
<trkpt lat="45.8590900" lon="9.2153300">
	<ele>1149.80</ele>
	<time>2025-02-15T09:57:12.000Z</time>
</trkpt>
<trkpt lat="45.8590900" lon="9.2153270">
	<ele>1150.00</ele>
	<time>2025-02-15T09:57:13.000Z</time>
</trkpt>
<trkpt lat="45.8590880" lon="9.2153190">
	<ele>1150.00</ele>
	<time>2025-02-15T09:57:14.000Z</time>
</trkpt>
<trkpt lat="45.8590870" lon="9.2153140">
	<ele>1150.00</ele>
	<time>2025-02-15T09:57:15.000Z</time>
</trkpt>
<trkpt lat="45.8590860" lon="9.2153110">
	<ele>1150.00</ele>
	<time>2025-02-15T09:57:16.000Z</time>
</trkpt>
<trkpt lat="45.8590840" lon="9.2153050">
	<ele>1150.20</ele>
	<time>2025-02-15T09:57:17.000Z</time>
</trkpt>
<trkpt lat="45.8590830" lon="9.2152990">
	<ele>1150.40</ele>
	<time>2025-02-15T09:57:18.000Z</time>
</trkpt>
<trkpt lat="45.8590820" lon="9.2152940">
	<ele>1150.60</ele>
	<time>2025-02-15T09:57:19.000Z</time>
</trkpt>
<trkpt lat="45.8590820" lon="9.2152830">
	<ele>1150.60</ele>
	<time>2025-02-15T09:57:20.000Z</time>
</trkpt>
<trkpt lat="45.8590810" lon="9.2152690">
	<ele>1150.80</ele>
	<time>2025-02-15T09:57:21.000Z</time>
</trkpt>
<trkpt lat="45.8590800" lon="9.2152610">
	<ele>1151.20</ele>
	<time>2025-02-15T09:57:22.000Z</time>
</trkpt>
<trkpt lat="45.8590790" lon="9.2152550">
	<ele>1151.40</ele>
	<time>2025-02-15T09:57:23.000Z</time>
</trkpt>
<trkpt lat="45.8590780" lon="9.2152450">
	<ele>1151.60</ele>
	<time>2025-02-15T09:57:24.000Z</time>
</trkpt>
<trkpt lat="45.8590740" lon="9.2152350">
	<ele>1151.80</ele>
	<time>2025-02-15T09:57:25.000Z</time>
</trkpt>
<trkpt lat="45.8590720" lon="9.2152230">
	<ele>1152.00</ele>
	<time>2025-02-15T09:57:26.000Z</time>
</trkpt>
<trkpt lat="45.8590720" lon="9.2152170">
	<ele>1152.00</ele>
	<time>2025-02-15T09:57:27.000Z</time>
</trkpt>
<trkpt lat="45.8590690" lon="9.2152070">
	<ele>1152.00</ele>
	<time>2025-02-15T09:57:28.000Z</time>
</trkpt>
<trkpt lat="45.8590620" lon="9.2151980">
	<ele>1152.00</ele>
	<time>2025-02-15T09:57:29.000Z</time>
</trkpt>
<trkpt lat="45.8590580" lon="9.2151930">
	<ele>1152.00</ele>
	<time>2025-02-15T09:57:30.000Z</time>
</trkpt>
<trkpt lat="45.8590570" lon="9.2151830">
	<ele>1152.00</ele>
	<time>2025-02-15T09:57:31.000Z</time>
</trkpt>
<trkpt lat="45.8590570" lon="9.2151690">
	<ele>1152.00</ele>
	<time>2025-02-15T09:57:32.000Z</time>
</trkpt>
<trkpt lat="45.8590570" lon="9.2151620">
	<ele>1152.40</ele>
	<time>2025-02-15T09:57:33.000Z</time>
</trkpt>
<trkpt lat="45.8590560" lon="9.2151560">
	<ele>1152.60</ele>
	<time>2025-02-15T09:57:34.000Z</time>
</trkpt>
<trkpt lat="45.8590560" lon="9.2151450">
	<ele>1152.60</ele>
	<time>2025-02-15T09:57:35.000Z</time>
</trkpt>
<trkpt lat="45.8590550" lon="9.2151330">
	<ele>1152.80</ele>
	<time>2025-02-15T09:57:36.000Z</time>
</trkpt>
<trkpt lat="45.8590540" lon="9.2151260">
	<ele>1153.00</ele>
	<time>2025-02-15T09:57:37.000Z</time>
</trkpt>
<trkpt lat="45.8590540" lon="9.2151200">
	<ele>1153.20</ele>
	<time>2025-02-15T09:57:38.000Z</time>
</trkpt>
<trkpt lat="45.8590530" lon="9.2151100">
	<ele>1153.40</ele>
	<time>2025-02-15T09:57:39.000Z</time>
</trkpt>
<trkpt lat="45.8590520" lon="9.2151010">
	<ele>1153.40</ele>
	<time>2025-02-15T09:57:40.000Z</time>
</trkpt>
<trkpt lat="45.8590520" lon="9.2150940">
	<ele>1153.40</ele>
	<time>2025-02-15T09:57:41.000Z</time>
</trkpt>
<trkpt lat="45.8590520" lon="9.2150850">
	<ele>1153.60</ele>
	<time>2025-02-15T09:57:42.000Z</time>
</trkpt>
<trkpt lat="45.8590510" lon="9.2150740">
	<ele>1153.80</ele>
	<time>2025-02-15T09:57:43.000Z</time>
</trkpt>
<trkpt lat="45.8590510" lon="9.2150670">
	<ele>1154.00</ele>
	<time>2025-02-15T09:57:44.000Z</time>
</trkpt>
<trkpt lat="45.8590510" lon="9.2150600">
	<ele>1154.20</ele>
	<time>2025-02-15T09:57:45.000Z</time>
</trkpt>
<trkpt lat="45.8590510" lon="9.2150560">
	<ele>1154.40</ele>
	<time>2025-02-15T09:57:46.000Z</time>
</trkpt>
<trkpt lat="45.8590510" lon="9.2150460">
	<ele>1154.60</ele>
	<time>2025-02-15T09:57:47.000Z</time>
</trkpt>
<trkpt lat="45.8590510" lon="9.2150390">
	<ele>1154.60</ele>
	<time>2025-02-15T09:57:48.000Z</time>
</trkpt>
<trkpt lat="45.8590520" lon="9.2150270">
	<ele>1154.60</ele>
	<time>2025-02-15T09:57:49.000Z</time>
</trkpt>
<trkpt lat="45.8590520" lon="9.2150130">
	<ele>1154.60</ele>
	<time>2025-02-15T09:57:50.000Z</time>
</trkpt>
<trkpt lat="45.8590520" lon="9.2150000">
	<ele>1154.80</ele>
	<time>2025-02-15T09:57:51.000Z</time>
</trkpt>
<trkpt lat="45.8590510" lon="9.2149910">
	<ele>1155.00</ele>
	<time>2025-02-15T09:57:52.000Z</time>
</trkpt>
<trkpt lat="45.8590510" lon="9.2149840">
	<ele>1155.20</ele>
	<time>2025-02-15T09:57:53.000Z</time>
</trkpt>
<trkpt lat="45.8590510" lon="9.2149770">
	<ele>1155.40</ele>
	<time>2025-02-15T09:57:54.000Z</time>
</trkpt>
<trkpt lat="45.8590510" lon="9.2149710">
	<ele>1155.40</ele>
	<time>2025-02-15T09:57:55.000Z</time>
</trkpt>
<trkpt lat="45.8590510" lon="9.2149650">
	<ele>1155.60</ele>
	<time>2025-02-15T09:57:56.000Z</time>
</trkpt>
<trkpt lat="45.8590510" lon="9.2149530">
	<ele>1155.60</ele>
	<time>2025-02-15T09:57:57.000Z</time>
</trkpt>
<trkpt lat="45.8590520" lon="9.2149450">
	<ele>1155.80</ele>
	<time>2025-02-15T09:57:58.000Z</time>
</trkpt>
<trkpt lat="45.8590520" lon="9.2149410">
	<ele>1155.80</ele>
	<time>2025-02-15T09:57:59.000Z</time>
</trkpt>
<trkpt lat="45.8590520" lon="9.2149360">
	<ele>1155.80</ele>
	<time>2025-02-15T09:58:00.000Z</time>
</trkpt>
<trkpt lat="45.8590520" lon="9.2149300">
	<ele>1156.20</ele>
	<time>2025-02-15T09:58:01.000Z</time>
</trkpt>
<trkpt lat="45.8590520" lon="9.2149220">
	<ele>1156.60</ele>
	<time>2025-02-15T09:58:02.000Z</time>
</trkpt>
<trkpt lat="45.8590520" lon="9.2149140">
	<ele>1157.00</ele>
	<time>2025-02-15T09:58:03.000Z</time>
</trkpt>
<trkpt lat="45.8590520" lon="9.2149080">
	<ele>1157.20</ele>
	<time>2025-02-15T09:58:04.000Z</time>
</trkpt>
<trkpt lat="45.8590520" lon="9.2148990">
	<ele>1157.20</ele>
	<time>2025-02-15T09:58:05.000Z</time>
</trkpt>
<trkpt lat="45.8590520" lon="9.2148900">
	<ele>1157.20</ele>
	<time>2025-02-15T09:58:06.000Z</time>
</trkpt>
<trkpt lat="45.8590520" lon="9.2148800">
	<ele>1157.20</ele>
	<time>2025-02-15T09:58:07.000Z</time>
</trkpt>
<trkpt lat="45.8590520" lon="9.2148720">
	<ele>1157.40</ele>
	<time>2025-02-15T09:58:08.000Z</time>
</trkpt>
<trkpt lat="45.8590520" lon="9.2148610">
	<ele>1157.40</ele>
	<time>2025-02-15T09:58:09.000Z</time>
</trkpt>
<trkpt lat="45.8590520" lon="9.2148510">
	<ele>1157.40</ele>
	<time>2025-02-15T09:58:10.000Z</time>
</trkpt>
<trkpt lat="45.8590520" lon="9.2148430">
	<ele>1157.60</ele>
	<time>2025-02-15T09:58:11.000Z</time>
</trkpt>
<trkpt lat="45.8590520" lon="9.2148370">
	<ele>1157.80</ele>
	<time>2025-02-15T09:58:12.000Z</time>
</trkpt>
<trkpt lat="45.8590520" lon="9.2148300">
	<ele>1158.00</ele>
	<time>2025-02-15T09:58:13.000Z</time>
</trkpt>
<trkpt lat="45.8590510" lon="9.2148220">
	<ele>1158.00</ele>
	<time>2025-02-15T09:58:14.000Z</time>
</trkpt>
<trkpt lat="45.8590510" lon="9.2148120">
	<ele>1158.20</ele>
	<time>2025-02-15T09:58:15.000Z</time>
</trkpt>
<trkpt lat="45.8590480" lon="9.2148040">
	<ele>1158.20</ele>
	<time>2025-02-15T09:58:16.000Z</time>
</trkpt>
<trkpt lat="45.8590450" lon="9.2147970">
	<ele>1158.40</ele>
	<time>2025-02-15T09:58:17.000Z</time>
</trkpt>
<trkpt lat="45.8590430" lon="9.2147870">
	<ele>1158.80</ele>
	<time>2025-02-15T09:58:18.000Z</time>
</trkpt>
<trkpt lat="45.8590420" lon="9.2147800">
	<ele>1159.00</ele>
	<time>2025-02-15T09:58:19.000Z</time>
</trkpt>
<trkpt lat="45.8590410" lon="9.2147730">
	<ele>1159.20</ele>
	<time>2025-02-15T09:58:20.000Z</time>
</trkpt>
<trkpt lat="45.8590400" lon="9.2147630">
	<ele>1159.20</ele>
	<time>2025-02-15T09:58:21.000Z</time>
</trkpt>
<trkpt lat="45.8590400" lon="9.2147530">
	<ele>1159.40</ele>
	<time>2025-02-15T09:58:22.000Z</time>
</trkpt>
<trkpt lat="45.8590400" lon="9.2147450">
	<ele>1159.40</ele>
	<time>2025-02-15T09:58:23.000Z</time>
</trkpt>
<trkpt lat="45.8590400" lon="9.2147400">
	<ele>1159.40</ele>
	<time>2025-02-15T09:58:24.000Z</time>
</trkpt>
<trkpt lat="45.8590400" lon="9.2147370">
	<ele>1159.60</ele>
	<time>2025-02-15T09:58:25.000Z</time>
</trkpt>
<trkpt lat="45.8590400" lon="9.2147290">
	<ele>1159.80</ele>
	<time>2025-02-15T09:58:26.000Z</time>
</trkpt>
<trkpt lat="45.8590400" lon="9.2147200">
	<ele>1160.00</ele>
	<time>2025-02-15T09:58:27.000Z</time>
</trkpt>
<trkpt lat="45.8590400" lon="9.2147130">
	<ele>1160.00</ele>
	<time>2025-02-15T09:58:28.000Z</time>
</trkpt>
<trkpt lat="45.8590400" lon="9.2147060">
	<ele>1160.20</ele>
	<time>2025-02-15T09:58:29.000Z</time>
</trkpt>
<trkpt lat="45.8590400" lon="9.2146960">
	<ele>1160.40</ele>
	<time>2025-02-15T09:58:30.000Z</time>
</trkpt>
<trkpt lat="45.8590400" lon="9.2146860">
	<ele>1160.60</ele>
	<time>2025-02-15T09:58:31.000Z</time>
</trkpt>
<trkpt lat="45.8590400" lon="9.2146790">
	<ele>1160.80</ele>
	<time>2025-02-15T09:58:32.000Z</time>
</trkpt>
<trkpt lat="45.8590400" lon="9.2146740">
	<ele>1161.00</ele>
	<time>2025-02-15T09:58:33.000Z</time>
</trkpt>
<trkpt lat="45.8590450" lon="9.2146610">
	<ele>1161.20</ele>
	<time>2025-02-15T09:58:34.000Z</time>
</trkpt>
<trkpt lat="45.8590520" lon="9.2146450">
	<ele>1161.20</ele>
	<time>2025-02-15T09:58:35.000Z</time>
</trkpt>
<trkpt lat="45.8590570" lon="9.2146280">
	<ele>1161.40</ele>
	<time>2025-02-15T09:58:36.000Z</time>
</trkpt>
<trkpt lat="45.8590600" lon="9.2146130">
	<ele>1161.40</ele>
	<time>2025-02-15T09:58:37.000Z</time>
</trkpt>
<trkpt lat="45.8590600" lon="9.2145970">
	<ele>1161.40</ele>
	<time>2025-02-15T09:58:38.000Z</time>
</trkpt>
<trkpt lat="45.8590620" lon="9.2145810">
	<ele>1161.60</ele>
	<time>2025-02-15T09:58:39.000Z</time>
</trkpt>
<trkpt lat="45.8590670" lon="9.2145640">
	<ele>1161.80</ele>
	<time>2025-02-15T09:58:40.000Z</time>
</trkpt>
<trkpt lat="45.8590700" lon="9.2145460">
	<ele>1162.20</ele>
	<time>2025-02-15T09:58:41.000Z</time>
</trkpt>
<trkpt lat="45.8590750" lon="9.2145240">
	<ele>1162.40</ele>
	<time>2025-02-15T09:58:42.000Z</time>
</trkpt>
<trkpt lat="45.8590860" lon="9.2145040">
	<ele>1162.60</ele>
	<time>2025-02-15T09:58:43.000Z</time>
</trkpt>
<trkpt lat="45.8590910" lon="9.2144960">
	<ele>1162.60</ele>
	<time>2025-02-15T09:58:44.000Z</time>
</trkpt>
<trkpt lat="45.8590920" lon="9.2144920">
	<ele>1162.80</ele>
	<time>2025-02-15T09:58:45.000Z</time>
</trkpt>
<trkpt lat="45.8590920" lon="9.2144880">
	<ele>1162.80</ele>
	<time>2025-02-15T09:58:46.000Z</time>
</trkpt>
<trkpt lat="45.8590880" lon="9.2144810">
	<ele>1162.80</ele>
	<time>2025-02-15T09:58:47.000Z</time>
</trkpt>
<trkpt lat="45.8590830" lon="9.2144660">
	<ele>1163.20</ele>
	<time>2025-02-15T09:58:48.000Z</time>
</trkpt>
<trkpt lat="45.8590790" lon="9.2144540">
	<ele>1163.40</ele>
	<time>2025-02-15T09:58:49.000Z</time>
</trkpt>
<trkpt lat="45.8590760" lon="9.2144480">
	<ele>1163.60</ele>
	<time>2025-02-15T09:58:50.000Z</time>
</trkpt>
<trkpt lat="45.8590750" lon="9.2144450">
	<ele>1163.80</ele>
	<time>2025-02-15T09:58:51.000Z</time>
</trkpt>
<trkpt lat="45.8590740" lon="9.2144400">
	<ele>1163.80</ele>
	<time>2025-02-15T09:58:52.000Z</time>
</trkpt>
<trkpt lat="45.8590780" lon="9.2144260">
	<ele>1163.80</ele>
	<time>2025-02-15T09:58:53.000Z</time>
</trkpt>
<trkpt lat="45.8590820" lon="9.2144080">
	<ele>1164.20</ele>
	<time>2025-02-15T09:58:54.000Z</time>
</trkpt>
<trkpt lat="45.8590890" lon="9.2143910">
	<ele>1164.40</ele>
	<time>2025-02-15T09:58:55.000Z</time>
</trkpt>
<trkpt lat="45.8590900" lon="9.2143850">
	<ele>1164.80</ele>
	<time>2025-02-15T09:58:56.000Z</time>
</trkpt>
<trkpt lat="45.8590920" lon="9.2143650">
	<ele>1164.80</ele>
	<time>2025-02-15T09:58:57.000Z</time>
</trkpt>
<trkpt lat="45.8590910" lon="9.2143480">
	<ele>1165.00</ele>
	<time>2025-02-15T09:58:58.000Z</time>
</trkpt>
<trkpt lat="45.8590880" lon="9.2143290">
	<ele>1165.20</ele>
	<time>2025-02-15T09:58:59.000Z</time>
</trkpt>
<trkpt lat="45.8590880" lon="9.2143210">
	<ele>1165.20</ele>
	<time>2025-02-15T09:59:00.000Z</time>
</trkpt>
<trkpt lat="45.8590910" lon="9.2143130">
	<ele>1165.40</ele>
	<time>2025-02-15T09:59:01.000Z</time>
</trkpt>
<trkpt lat="45.8590930" lon="9.2143070">
	<ele>1165.80</ele>
	<time>2025-02-15T09:59:02.000Z</time>
</trkpt>
<trkpt lat="45.8590940" lon="9.2142940">
	<ele>1165.80</ele>
	<time>2025-02-15T09:59:03.000Z</time>
</trkpt>
<trkpt lat="45.8590970" lon="9.2142830">
	<ele>1166.00</ele>
	<time>2025-02-15T09:59:04.000Z</time>
</trkpt>
<trkpt lat="45.8590940" lon="9.2142690">
	<ele>1166.00</ele>
	<time>2025-02-15T09:59:05.000Z</time>
</trkpt>
<trkpt lat="45.8590920" lon="9.2142590">
	<ele>1166.00</ele>
	<time>2025-02-15T09:59:06.000Z</time>
</trkpt>
<trkpt lat="45.8590970" lon="9.2142460">
	<ele>1166.20</ele>
	<time>2025-02-15T09:59:07.000Z</time>
</trkpt>
<trkpt lat="45.8591020" lon="9.2142340">
	<ele>1166.20</ele>
	<time>2025-02-15T09:59:08.000Z</time>
</trkpt>
<trkpt lat="45.8591080" lon="9.2142270">
	<ele>1166.20</ele>
	<time>2025-02-15T09:59:09.000Z</time>
</trkpt>
<trkpt lat="45.8591090" lon="9.2142190">
	<ele>1166.20</ele>
	<time>2025-02-15T09:59:10.000Z</time>
</trkpt>
<trkpt lat="45.8591060" lon="9.2142160">
	<ele>1166.60</ele>
	<time>2025-02-15T09:59:11.000Z</time>
</trkpt>
<trkpt lat="45.8591060" lon="9.2142130">
	<ele>1166.80</ele>
	<time>2025-02-15T09:59:12.000Z</time>
</trkpt>
<trkpt lat="45.8591050" lon="9.2142030">
	<ele>1167.00</ele>
	<time>2025-02-15T09:59:13.000Z</time>
</trkpt>
<trkpt lat="45.8591050" lon="9.2141960">
	<ele>1167.20</ele>
	<time>2025-02-15T09:59:14.000Z</time>
</trkpt>
<trkpt lat="45.8591040" lon="9.2141880">
	<ele>1167.20</ele>
	<time>2025-02-15T09:59:15.000Z</time>
</trkpt>
<trkpt lat="45.8591060" lon="9.2141810">
	<ele>1167.40</ele>
	<time>2025-02-15T09:59:16.000Z</time>
</trkpt>
<trkpt lat="45.8591090" lon="9.2141720">
	<ele>1167.60</ele>
	<time>2025-02-15T09:59:17.000Z</time>
</trkpt>
<trkpt lat="45.8591120" lon="9.2141640">
	<ele>1167.60</ele>
	<time>2025-02-15T09:59:18.000Z</time>
</trkpt>
<trkpt lat="45.8591120" lon="9.2141590">
	<ele>1167.80</ele>
	<time>2025-02-15T09:59:19.000Z</time>
</trkpt>
<trkpt lat="45.8591150" lon="9.2141510">
	<ele>1167.80</ele>
	<time>2025-02-15T09:59:20.000Z</time>
</trkpt>
<trkpt lat="45.8591170" lon="9.2141470">
	<ele>1167.80</ele>
	<time>2025-02-15T09:59:21.000Z</time>
</trkpt>
<trkpt lat="45.8591130" lon="9.2141420">
	<ele>1168.00</ele>
	<time>2025-02-15T09:59:22.000Z</time>
</trkpt>
<trkpt lat="45.8591120" lon="9.2141370">
	<ele>1168.00</ele>
	<time>2025-02-15T09:59:23.000Z</time>
</trkpt>
<trkpt lat="45.8591110" lon="9.2141330">
	<ele>1168.00</ele>
	<time>2025-02-15T09:59:24.000Z</time>
</trkpt>
<trkpt lat="45.8591110" lon="9.2141290">
	<ele>1168.40</ele>
	<time>2025-02-15T09:59:25.000Z</time>
</trkpt>
<trkpt lat="45.8591110" lon="9.2141260">
	<ele>1168.80</ele>
	<time>2025-02-15T09:59:26.000Z</time>
</trkpt>
<trkpt lat="45.8591100" lon="9.2141240">
	<ele>1168.80</ele>
	<time>2025-02-15T09:59:27.000Z</time>
</trkpt>
<trkpt lat="45.8591110" lon="9.2141220">
	<ele>1169.00</ele>
	<time>2025-02-15T09:59:28.000Z</time>
</trkpt>
<trkpt lat="45.8591120" lon="9.2141200">
	<ele>1169.20</ele>
	<time>2025-02-15T09:59:29.000Z</time>
</trkpt>
<trkpt lat="45.8591120" lon="9.2141170">
	<ele>1169.20</ele>
	<time>2025-02-15T09:59:30.000Z</time>
</trkpt>
<trkpt lat="45.8591120" lon="9.2141150">
	<ele>1169.40</ele>
	<time>2025-02-15T09:59:31.000Z</time>
</trkpt>
<trkpt lat="45.8591120" lon="9.2141100">
	<ele>1169.60</ele>
	<time>2025-02-15T09:59:32.000Z</time>
</trkpt>
<trkpt lat="45.8591120" lon="9.2141000">
	<ele>1169.60</ele>
	<time>2025-02-15T09:59:33.000Z</time>
</trkpt>
<trkpt lat="45.8591070" lon="9.2140880">
	<ele>1169.60</ele>
	<time>2025-02-15T09:59:34.000Z</time>
</trkpt>
<trkpt lat="45.8591000" lon="9.2140760">
	<ele>1169.80</ele>
	<time>2025-02-15T09:59:35.000Z</time>
</trkpt>
<trkpt lat="45.8590980" lon="9.2140710">
	<ele>1170.00</ele>
	<time>2025-02-15T09:59:36.000Z</time>
</trkpt>
<trkpt lat="45.8590980" lon="9.2140590">
	<ele>1170.00</ele>
	<time>2025-02-15T09:59:37.000Z</time>
</trkpt>
<trkpt lat="45.8591010" lon="9.2140450">
	<ele>1170.20</ele>
	<time>2025-02-15T09:59:38.000Z</time>
</trkpt>
<trkpt lat="45.8590970" lon="9.2140340">
	<ele>1170.20</ele>
	<time>2025-02-15T09:59:39.000Z</time>
</trkpt>
<trkpt lat="45.8590950" lon="9.2140290">
	<ele>1170.40</ele>
	<time>2025-02-15T09:59:40.000Z</time>
</trkpt>
<trkpt lat="45.8590960" lon="9.2140180">
	<ele>1170.60</ele>
	<time>2025-02-15T09:59:41.000Z</time>
</trkpt>
<trkpt lat="45.8590970" lon="9.2140080">
	<ele>1170.80</ele>
	<time>2025-02-15T09:59:42.000Z</time>
</trkpt>
<trkpt lat="45.8590980" lon="9.2140020">
	<ele>1171.00</ele>
	<time>2025-02-15T09:59:43.000Z</time>
</trkpt>
<trkpt lat="45.8591000" lon="9.2139820">
	<ele>1171.20</ele>
	<time>2025-02-15T09:59:44.000Z</time>
</trkpt>
<trkpt lat="45.8591000" lon="9.2139760">
	<ele>1171.20</ele>
	<time>2025-02-15T09:59:45.000Z</time>
</trkpt>
<trkpt lat="45.8591060" lon="9.2139700">
	<ele>1171.40</ele>
	<time>2025-02-15T09:59:46.000Z</time>
</trkpt>
<trkpt lat="45.8591060" lon="9.2139650">
	<ele>1171.40</ele>
	<time>2025-02-15T09:59:47.000Z</time>
</trkpt>
<trkpt lat="45.8591060" lon="9.2139580">
	<ele>1171.60</ele>
	<time>2025-02-15T09:59:48.000Z</time>
</trkpt>
<trkpt lat="45.8591120" lon="9.2139490">
	<ele>1171.60</ele>
	<time>2025-02-15T09:59:49.000Z</time>
</trkpt>
<trkpt lat="45.8591170" lon="9.2139390">
	<ele>1171.60</ele>
	<time>2025-02-15T09:59:50.000Z</time>
</trkpt>
<trkpt lat="45.8591180" lon="9.2139270">
	<ele>1171.60</ele>
	<time>2025-02-15T09:59:51.000Z</time>
</trkpt>
<trkpt lat="45.8591220" lon="9.2139180">
	<ele>1171.80</ele>
	<time>2025-02-15T09:59:52.000Z</time>
</trkpt>
<trkpt lat="45.8591250" lon="9.2139080">
	<ele>1171.80</ele>
	<time>2025-02-15T09:59:53.000Z</time>
</trkpt>
<trkpt lat="45.8591260" lon="9.2138970">
	<ele>1171.80</ele>
	<time>2025-02-15T09:59:54.000Z</time>
</trkpt>
<trkpt lat="45.8591260" lon="9.2138890">
	<ele>1171.80</ele>
	<time>2025-02-15T09:59:55.000Z</time>
</trkpt>
<trkpt lat="45.8591250" lon="9.2138750">
	<ele>1171.80</ele>
	<time>2025-02-15T09:59:56.000Z</time>
</trkpt>
<trkpt lat="45.8591270" lon="9.2138610">
	<ele>1172.00</ele>
	<time>2025-02-15T09:59:57.000Z</time>
</trkpt>
<trkpt lat="45.8591280" lon="9.2138530">
	<ele>1172.20</ele>
	<time>2025-02-15T09:59:58.000Z</time>
</trkpt>
<trkpt lat="45.8591230" lon="9.2138290">
	<ele>1172.60</ele>
	<time>2025-02-15T09:59:59.000Z</time>
</trkpt>
<trkpt lat="45.8591170" lon="9.2138060">
	<ele>1172.80</ele>
	<time>2025-02-15T10:00:00.000Z</time>
</trkpt>
<trkpt lat="45.8591100" lon="9.2137900">
	<ele>1173.20</ele>
	<time>2025-02-15T10:00:01.000Z</time>
</trkpt>
<trkpt lat="45.8591130" lon="9.2137760">
	<ele>1173.40</ele>
	<time>2025-02-15T10:00:02.000Z</time>
</trkpt>
<trkpt lat="45.8591130" lon="9.2137680">
	<ele>1173.40</ele>
	<time>2025-02-15T10:00:03.000Z</time>
</trkpt>
<trkpt lat="45.8591110" lon="9.2137630">
	<ele>1173.60</ele>
	<time>2025-02-15T10:00:04.000Z</time>
</trkpt>
<trkpt lat="45.8591130" lon="9.2137520">
	<ele>1173.60</ele>
	<time>2025-02-15T10:00:05.000Z</time>
</trkpt>
<trkpt lat="45.8591160" lon="9.2137470">
	<ele>1173.60</ele>
	<time>2025-02-15T10:00:06.000Z</time>
</trkpt>
<trkpt lat="45.8591230" lon="9.2137400">
	<ele>1173.80</ele>
	<time>2025-02-15T10:00:07.000Z</time>
</trkpt>
<trkpt lat="45.8591280" lon="9.2137290">
	<ele>1173.80</ele>
	<time>2025-02-15T10:00:08.000Z</time>
</trkpt>
<trkpt lat="45.8591340" lon="9.2137190">
	<ele>1173.80</ele>
	<time>2025-02-15T10:00:09.000Z</time>
</trkpt>
<trkpt lat="45.8591390" lon="9.2137130">
	<ele>1173.80</ele>
	<time>2025-02-15T10:00:10.000Z</time>
</trkpt>
<trkpt lat="45.8591480" lon="9.2137080">
	<ele>1173.80</ele>
	<time>2025-02-15T10:00:11.000Z</time>
</trkpt>
<trkpt lat="45.8591570" lon="9.2137010">
	<ele>1174.00</ele>
	<time>2025-02-15T10:00:12.000Z</time>
</trkpt>
<trkpt lat="45.8591640" lon="9.2136950">
	<ele>1174.00</ele>
	<time>2025-02-15T10:00:13.000Z</time>
</trkpt>
<trkpt lat="45.8591680" lon="9.2136870">
	<ele>1174.00</ele>
	<time>2025-02-15T10:00:14.000Z</time>
</trkpt>
<trkpt lat="45.8591690" lon="9.2136750">
	<ele>1174.20</ele>
	<time>2025-02-15T10:00:15.000Z</time>
</trkpt>
<trkpt lat="45.8591700" lon="9.2136690">
	<ele>1174.20</ele>
	<time>2025-02-15T10:00:16.000Z</time>
</trkpt>
<trkpt lat="45.8591800" lon="9.2136620">
	<ele>1174.40</ele>
	<time>2025-02-15T10:00:17.000Z</time>
</trkpt>
<trkpt lat="45.8591960" lon="9.2136540">
	<ele>1174.40</ele>
	<time>2025-02-15T10:00:18.000Z</time>
</trkpt>
<trkpt lat="45.8592050" lon="9.2136450">
	<ele>1174.40</ele>
	<time>2025-02-15T10:00:19.000Z</time>
</trkpt>
<trkpt lat="45.8592050" lon="9.2136290">
	<ele>1174.40</ele>
	<time>2025-02-15T10:00:20.000Z</time>
</trkpt>
<trkpt lat="45.8591990" lon="9.2136120">
	<ele>1174.60</ele>
	<time>2025-02-15T10:00:21.000Z</time>
</trkpt>
<trkpt lat="45.8591960" lon="9.2135970">
	<ele>1174.60</ele>
	<time>2025-02-15T10:00:22.000Z</time>
</trkpt>
<trkpt lat="45.8591930" lon="9.2135870">
	<ele>1174.60</ele>
	<time>2025-02-15T10:00:23.000Z</time>
</trkpt>
<trkpt lat="45.8591910" lon="9.2135780">
	<ele>1174.80</ele>
	<time>2025-02-15T10:00:24.000Z</time>
</trkpt>
<trkpt lat="45.8591900" lon="9.2135720">
	<ele>1175.20</ele>
	<time>2025-02-15T10:00:25.000Z</time>
</trkpt>
<trkpt lat="45.8591930" lon="9.2135680">
	<ele>1175.40</ele>
	<time>2025-02-15T10:00:26.000Z</time>
</trkpt>
<trkpt lat="45.8591970" lon="9.2135640">
	<ele>1175.40</ele>
	<time>2025-02-15T10:00:27.000Z</time>
</trkpt>
<trkpt lat="45.8591990" lon="9.2135630">
	<ele>1175.40</ele>
	<time>2025-02-15T10:00:28.000Z</time>
</trkpt>
<trkpt lat="45.8591970" lon="9.2135600">
	<ele>1175.80</ele>
	<time>2025-02-15T10:00:29.000Z</time>
</trkpt>
<trkpt lat="45.8591970" lon="9.2135550">
	<ele>1176.00</ele>
	<time>2025-02-15T10:00:30.000Z</time>
</trkpt>
<trkpt lat="45.8592060" lon="9.2135480">
	<ele>1176.20</ele>
	<time>2025-02-15T10:00:31.000Z</time>
</trkpt>
<trkpt lat="45.8592150" lon="9.2135370">
	<ele>1176.20</ele>
	<time>2025-02-15T10:00:32.000Z</time>
</trkpt>
<trkpt lat="45.8592190" lon="9.2135280">
	<ele>1176.40</ele>
	<time>2025-02-15T10:00:33.000Z</time>
</trkpt>
<trkpt lat="45.8592190" lon="9.2135240">
	<ele>1176.40</ele>
	<time>2025-02-15T10:00:34.000Z</time>
</trkpt>
<trkpt lat="45.8592180" lon="9.2135210">
	<ele>1176.40</ele>
	<time>2025-02-15T10:00:35.000Z</time>
</trkpt>
<trkpt lat="45.8592070" lon="9.2135160">
	<ele>1176.60</ele>
	<time>2025-02-15T10:00:36.000Z</time>
</trkpt>
<trkpt lat="45.8592060" lon="9.2135140">
	<ele>1176.80</ele>
	<time>2025-02-15T10:00:37.000Z</time>
</trkpt>
<trkpt lat="45.8592110" lon="9.2135080">
	<ele>1177.00</ele>
	<time>2025-02-15T10:00:38.000Z</time>
</trkpt>
<trkpt lat="45.8592130" lon="9.2135030">
	<ele>1177.20</ele>
	<time>2025-02-15T10:00:39.000Z</time>
</trkpt>
<trkpt lat="45.8592130" lon="9.2134930">
	<ele>1177.20</ele>
	<time>2025-02-15T10:00:40.000Z</time>
</trkpt>
<trkpt lat="45.8592110" lon="9.2134810">
	<ele>1177.20</ele>
	<time>2025-02-15T10:00:41.000Z</time>
</trkpt>
<trkpt lat="45.8592100" lon="9.2134710">
	<ele>1177.20</ele>
	<time>2025-02-15T10:00:42.000Z</time>
</trkpt>
<trkpt lat="45.8592120" lon="9.2134600">
	<ele>1177.40</ele>
	<time>2025-02-15T10:00:43.000Z</time>
</trkpt>
<trkpt lat="45.8592130" lon="9.2134460">
	<ele>1177.40</ele>
	<time>2025-02-15T10:00:44.000Z</time>
</trkpt>
<trkpt lat="45.8592170" lon="9.2134310">
	<ele>1177.60</ele>
	<time>2025-02-15T10:00:45.000Z</time>
</trkpt>
<trkpt lat="45.8592190" lon="9.2134190">
	<ele>1177.60</ele>
	<time>2025-02-15T10:00:46.000Z</time>
</trkpt>
<trkpt lat="45.8592180" lon="9.2134050">
	<ele>1177.80</ele>
	<time>2025-02-15T10:00:47.000Z</time>
</trkpt>
<trkpt lat="45.8592220" lon="9.2133900">
	<ele>1178.00</ele>
	<time>2025-02-15T10:00:48.000Z</time>
</trkpt>
<trkpt lat="45.8592270" lon="9.2133770">
	<ele>1178.20</ele>
	<time>2025-02-15T10:00:49.000Z</time>
</trkpt>
<trkpt lat="45.8592270" lon="9.2133700">
	<ele>1178.20</ele>
	<time>2025-02-15T10:00:50.000Z</time>
</trkpt>
<trkpt lat="45.8592250" lon="9.2133600">
	<ele>1178.40</ele>
	<time>2025-02-15T10:00:51.000Z</time>
</trkpt>
<trkpt lat="45.8592210" lon="9.2133500">
	<ele>1178.60</ele>
	<time>2025-02-15T10:00:52.000Z</time>
</trkpt>
<trkpt lat="45.8592180" lon="9.2133410">
	<ele>1178.60</ele>
	<time>2025-02-15T10:00:53.000Z</time>
</trkpt>
<trkpt lat="45.8592160" lon="9.2133310">
	<ele>1178.80</ele>
	<time>2025-02-15T10:00:54.000Z</time>
</trkpt>
<trkpt lat="45.8592170" lon="9.2133200">
	<ele>1178.80</ele>
	<time>2025-02-15T10:00:55.000Z</time>
</trkpt>
<trkpt lat="45.8592180" lon="9.2133110">
	<ele>1179.00</ele>
	<time>2025-02-15T10:00:56.000Z</time>
</trkpt>
<trkpt lat="45.8592140" lon="9.2132990">
	<ele>1179.00</ele>
	<time>2025-02-15T10:00:57.000Z</time>
</trkpt>
<trkpt lat="45.8592120" lon="9.2132880">
	<ele>1179.20</ele>
	<time>2025-02-15T10:00:58.000Z</time>
</trkpt>
<trkpt lat="45.8592120" lon="9.2132770">
	<ele>1179.40</ele>
	<time>2025-02-15T10:00:59.000Z</time>
</trkpt>
<trkpt lat="45.8592110" lon="9.2132670">
	<ele>1179.40</ele>
	<time>2025-02-15T10:01:00.000Z</time>
</trkpt>
<trkpt lat="45.8592050" lon="9.2132590">
	<ele>1179.60</ele>
	<time>2025-02-15T10:01:01.000Z</time>
</trkpt>
<trkpt lat="45.8591890" lon="9.2132530">
	<ele>1179.80</ele>
	<time>2025-02-15T10:01:02.000Z</time>
</trkpt>
<trkpt lat="45.8591820" lon="9.2132440">
	<ele>1180.00</ele>
	<time>2025-02-15T10:01:03.000Z</time>
</trkpt>
<trkpt lat="45.8591830" lon="9.2132350">
	<ele>1180.20</ele>
	<time>2025-02-15T10:01:04.000Z</time>
</trkpt>
<trkpt lat="45.8591900" lon="9.2132230">
	<ele>1180.40</ele>
	<time>2025-02-15T10:01:05.000Z</time>
</trkpt>
<trkpt lat="45.8591980" lon="9.2132090">
	<ele>1180.60</ele>
	<time>2025-02-15T10:01:06.000Z</time>
</trkpt>
<trkpt lat="45.8592070" lon="9.2131970">
	<ele>1180.60</ele>
	<time>2025-02-15T10:01:07.000Z</time>
</trkpt>
<trkpt lat="45.8592070" lon="9.2131870">
	<ele>1180.80</ele>
	<time>2025-02-15T10:01:08.000Z</time>
</trkpt>
<trkpt lat="45.8592060" lon="9.2131770">
	<ele>1181.00</ele>
	<time>2025-02-15T10:01:09.000Z</time>
</trkpt>
<trkpt lat="45.8592060" lon="9.2131690">
	<ele>1181.00</ele>
	<time>2025-02-15T10:01:10.000Z</time>
</trkpt>
<trkpt lat="45.8592040" lon="9.2131610">
	<ele>1181.20</ele>
	<time>2025-02-15T10:01:11.000Z</time>
</trkpt>
<trkpt lat="45.8592060" lon="9.2131550">
	<ele>1181.40</ele>
	<time>2025-02-15T10:01:12.000Z</time>
</trkpt>
<trkpt lat="45.8592050" lon="9.2131480">
	<ele>1181.40</ele>
	<time>2025-02-15T10:01:13.000Z</time>
</trkpt>
<trkpt lat="45.8592010" lon="9.2131360">
	<ele>1181.60</ele>
	<time>2025-02-15T10:01:14.000Z</time>
</trkpt>
<trkpt lat="45.8591990" lon="9.2131260">
	<ele>1181.60</ele>
	<time>2025-02-15T10:01:15.000Z</time>
</trkpt>
<trkpt lat="45.8592030" lon="9.2131170">
	<ele>1181.60</ele>
	<time>2025-02-15T10:01:16.000Z</time>
</trkpt>
<trkpt lat="45.8591990" lon="9.2131050">
	<ele>1181.60</ele>
	<time>2025-02-15T10:01:17.000Z</time>
</trkpt>
<trkpt lat="45.8591950" lon="9.2130910">
	<ele>1181.60</ele>
	<time>2025-02-15T10:01:18.000Z</time>
</trkpt>
<trkpt lat="45.8591890" lon="9.2130750">
	<ele>1182.00</ele>
	<time>2025-02-15T10:01:19.000Z</time>
</trkpt>
<trkpt lat="45.8591880" lon="9.2130600">
	<ele>1182.20</ele>
	<time>2025-02-15T10:01:20.000Z</time>
</trkpt>
<trkpt lat="45.8591860" lon="9.2130480">
	<ele>1182.40</ele>
	<time>2025-02-15T10:01:21.000Z</time>
</trkpt>
<trkpt lat="45.8591810" lon="9.2130460">
	<ele>1182.60</ele>
	<time>2025-02-15T10:01:22.000Z</time>
</trkpt>
<trkpt lat="45.8591760" lon="9.2130370">
	<ele>1182.80</ele>
	<time>2025-02-15T10:01:23.000Z</time>
</trkpt>
<trkpt lat="45.8591730" lon="9.2130290">
	<ele>1182.80</ele>
	<time>2025-02-15T10:01:24.000Z</time>
</trkpt>
<trkpt lat="45.8591710" lon="9.2130250">
	<ele>1183.00</ele>
	<time>2025-02-15T10:01:25.000Z</time>
</trkpt>
<trkpt lat="45.8591790" lon="9.2130180">
	<ele>1183.20</ele>
	<time>2025-02-15T10:01:26.000Z</time>
</trkpt>
<trkpt lat="45.8591840" lon="9.2130060">
	<ele>1183.20</ele>
	<time>2025-02-15T10:01:27.000Z</time>
</trkpt>
<trkpt lat="45.8591950" lon="9.2129930">
	<ele>1183.40</ele>
	<time>2025-02-15T10:01:28.000Z</time>
</trkpt>
<trkpt lat="45.8591960" lon="9.2129830">
	<ele>1183.40</ele>
	<time>2025-02-15T10:01:29.000Z</time>
</trkpt>
<trkpt lat="45.8591960" lon="9.2129720">
	<ele>1183.60</ele>
	<time>2025-02-15T10:01:30.000Z</time>
</trkpt>
<trkpt lat="45.8591980" lon="9.2129600">
	<ele>1183.60</ele>
	<time>2025-02-15T10:01:31.000Z</time>
</trkpt>
<trkpt lat="45.8591990" lon="9.2129550">
	<ele>1183.80</ele>
	<time>2025-02-15T10:01:32.000Z</time>
</trkpt>
<trkpt lat="45.8591950" lon="9.2129490">
	<ele>1183.80</ele>
	<time>2025-02-15T10:01:33.000Z</time>
</trkpt>
<trkpt lat="45.8591930" lon="9.2129400">
	<ele>1184.00</ele>
	<time>2025-02-15T10:01:34.000Z</time>
</trkpt>
<trkpt lat="45.8591890" lon="9.2129290">
	<ele>1184.20</ele>
	<time>2025-02-15T10:01:35.000Z</time>
</trkpt>
<trkpt lat="45.8591840" lon="9.2129210">
	<ele>1184.40</ele>
	<time>2025-02-15T10:01:36.000Z</time>
</trkpt>
<trkpt lat="45.8591770" lon="9.2129140">
	<ele>1184.60</ele>
	<time>2025-02-15T10:01:37.000Z</time>
</trkpt>
<trkpt lat="45.8591780" lon="9.2129080">
	<ele>1184.80</ele>
	<time>2025-02-15T10:01:38.000Z</time>
</trkpt>
<trkpt lat="45.8591820" lon="9.2128970">
	<ele>1184.80</ele>
	<time>2025-02-15T10:01:39.000Z</time>
</trkpt>
<trkpt lat="45.8591820" lon="9.2128810">
	<ele>1185.00</ele>
	<time>2025-02-15T10:01:40.000Z</time>
</trkpt>
<trkpt lat="45.8591810" lon="9.2128670">
	<ele>1185.20</ele>
	<time>2025-02-15T10:01:41.000Z</time>
</trkpt>
<trkpt lat="45.8591840" lon="9.2128600">
	<ele>1185.20</ele>
	<time>2025-02-15T10:01:42.000Z</time>
</trkpt>
<trkpt lat="45.8591830" lon="9.2128560">
	<ele>1185.20</ele>
	<time>2025-02-15T10:01:43.000Z</time>
</trkpt>
<trkpt lat="45.8591790" lon="9.2128480">
	<ele>1185.40</ele>
	<time>2025-02-15T10:01:44.000Z</time>
</trkpt>
<trkpt lat="45.8591770" lon="9.2128420">
	<ele>1185.60</ele>
	<time>2025-02-15T10:01:45.000Z</time>
</trkpt>
<trkpt lat="45.8591770" lon="9.2128360">
	<ele>1185.80</ele>
	<time>2025-02-15T10:01:46.000Z</time>
</trkpt>
<trkpt lat="45.8591760" lon="9.2128300">
	<ele>1186.00</ele>
	<time>2025-02-15T10:01:47.000Z</time>
</trkpt>
<trkpt lat="45.8591750" lon="9.2128260">
	<ele>1186.00</ele>
	<time>2025-02-15T10:01:48.000Z</time>
</trkpt>
<trkpt lat="45.8591710" lon="9.2128180">
	<ele>1186.20</ele>
	<time>2025-02-15T10:01:49.000Z</time>
</trkpt>
<trkpt lat="45.8591670" lon="9.2128100">
	<ele>1186.40</ele>
	<time>2025-02-15T10:01:50.000Z</time>
</trkpt>
<trkpt lat="45.8591680" lon="9.2128010">
	<ele>1186.60</ele>
	<time>2025-02-15T10:01:51.000Z</time>
</trkpt>
<trkpt lat="45.8591680" lon="9.2127900">
	<ele>1186.80</ele>
	<time>2025-02-15T10:01:52.000Z</time>
</trkpt>
<trkpt lat="45.8591680" lon="9.2127840">
	<ele>1186.80</ele>
	<time>2025-02-15T10:01:53.000Z</time>
</trkpt>
<trkpt lat="45.8591650" lon="9.2127710">
	<ele>1187.00</ele>
	<time>2025-02-15T10:01:54.000Z</time>
</trkpt>
<trkpt lat="45.8591660" lon="9.2127650">
	<ele>1187.20</ele>
	<time>2025-02-15T10:01:55.000Z</time>
</trkpt>
<trkpt lat="45.8591670" lon="9.2127590">
	<ele>1187.40</ele>
	<time>2025-02-15T10:01:56.000Z</time>
</trkpt>
<trkpt lat="45.8591640" lon="9.2127480">
	<ele>1187.40</ele>
	<time>2025-02-15T10:01:57.000Z</time>
</trkpt>
<trkpt lat="45.8591630" lon="9.2127380">
	<ele>1187.80</ele>
	<time>2025-02-15T10:01:58.000Z</time>
</trkpt>
<trkpt lat="45.8591630" lon="9.2127310">
	<ele>1188.00</ele>
	<time>2025-02-15T10:01:59.000Z</time>
</trkpt>
<trkpt lat="45.8591630" lon="9.2127230">
	<ele>1188.00</ele>
	<time>2025-02-15T10:02:00.000Z</time>
</trkpt>
<trkpt lat="45.8591640" lon="9.2127170">
	<ele>1188.20</ele>
	<time>2025-02-15T10:02:01.000Z</time>
</trkpt>
<trkpt lat="45.8591650" lon="9.2127050">
	<ele>1188.20</ele>
	<time>2025-02-15T10:02:02.000Z</time>
</trkpt>
<trkpt lat="45.8591660" lon="9.2126960">
	<ele>1188.20</ele>
	<time>2025-02-15T10:02:03.000Z</time>
</trkpt>
<trkpt lat="45.8591670" lon="9.2126920">
	<ele>1188.20</ele>
	<time>2025-02-15T10:02:04.000Z</time>
</trkpt>
<trkpt lat="45.8591590" lon="9.2126870">
	<ele>1188.20</ele>
	<time>2025-02-15T10:02:05.000Z</time>
</trkpt>
<trkpt lat="45.8591530" lon="9.2126790">
	<ele>1188.40</ele>
	<time>2025-02-15T10:02:06.000Z</time>
</trkpt>
<trkpt lat="45.8591510" lon="9.2126730">
	<ele>1188.40</ele>
	<time>2025-02-15T10:02:07.000Z</time>
</trkpt>
<trkpt lat="45.8591510" lon="9.2126650">
	<ele>1188.60</ele>
	<time>2025-02-15T10:02:08.000Z</time>
</trkpt>
<trkpt lat="45.8591500" lon="9.2126570">
	<ele>1188.80</ele>
	<time>2025-02-15T10:02:09.000Z</time>
</trkpt>
<trkpt lat="45.8591500" lon="9.2126460">
	<ele>1188.80</ele>
	<time>2025-02-15T10:02:10.000Z</time>
</trkpt>
<trkpt lat="45.8591480" lon="9.2126370">
	<ele>1188.80</ele>
	<time>2025-02-15T10:02:11.000Z</time>
</trkpt>
<trkpt lat="45.8591460" lon="9.2126290">
	<ele>1188.80</ele>
	<time>2025-02-15T10:02:12.000Z</time>
</trkpt>
<trkpt lat="45.8591450" lon="9.2126220">
	<ele>1189.00</ele>
	<time>2025-02-15T10:02:13.000Z</time>
</trkpt>
<trkpt lat="45.8591410" lon="9.2126150">
	<ele>1189.00</ele>
	<time>2025-02-15T10:02:14.000Z</time>
</trkpt>
<trkpt lat="45.8591380" lon="9.2126060">
	<ele>1189.00</ele>
	<time>2025-02-15T10:02:15.000Z</time>
</trkpt>
<trkpt lat="45.8591370" lon="9.2125950">
	<ele>1189.20</ele>
	<time>2025-02-15T10:02:16.000Z</time>
</trkpt>
<trkpt lat="45.8591370" lon="9.2125860">
	<ele>1189.20</ele>
	<time>2025-02-15T10:02:17.000Z</time>
</trkpt>
<trkpt lat="45.8591350" lon="9.2125760">
	<ele>1189.20</ele>
	<time>2025-02-15T10:02:18.000Z</time>
</trkpt>
<trkpt lat="45.8591330" lon="9.2125720">
	<ele>1189.40</ele>
	<time>2025-02-15T10:02:19.000Z</time>
</trkpt>
<trkpt lat="45.8591350" lon="9.2125670">
	<ele>1189.40</ele>
	<time>2025-02-15T10:02:20.000Z</time>
</trkpt>
<trkpt lat="45.8591380" lon="9.2125630">
	<ele>1189.40</ele>
	<time>2025-02-15T10:02:21.000Z</time>
</trkpt>
<trkpt lat="45.8591440" lon="9.2125550">
	<ele>1189.60</ele>
	<time>2025-02-15T10:02:22.000Z</time>
</trkpt>
<trkpt lat="45.8591490" lon="9.2125490">
	<ele>1189.60</ele>
	<time>2025-02-15T10:02:23.000Z</time>
</trkpt>
<trkpt lat="45.8591510" lon="9.2125450">
	<ele>1189.60</ele>
	<time>2025-02-15T10:02:24.000Z</time>
</trkpt>
<trkpt lat="45.8591630" lon="9.2125160">
	<ele>1189.60</ele>
	<time>2025-02-15T10:02:25.000Z</time>
</trkpt>
<trkpt lat="45.8591760" lon="9.2124860">
	<ele>1189.80</ele>
	<time>2025-02-15T10:02:26.000Z</time>
</trkpt>
<trkpt lat="45.8591840" lon="9.2124650">
	<ele>1189.80</ele>
	<time>2025-02-15T10:02:27.000Z</time>
</trkpt>
<trkpt lat="45.8591850" lon="9.2124570">
	<ele>1190.00</ele>
	<time>2025-02-15T10:02:28.000Z</time>
</trkpt>
<trkpt lat="45.8591860" lon="9.2124510">
	<ele>1190.00</ele>
	<time>2025-02-15T10:02:29.000Z</time>
</trkpt>
<trkpt lat="45.8591850" lon="9.2124480">
	<ele>1190.20</ele>
	<time>2025-02-15T10:02:30.000Z</time>
</trkpt>
<trkpt lat="45.8591830" lon="9.2124440">
	<ele>1190.20</ele>
	<time>2025-02-15T10:02:31.000Z</time>
</trkpt>
<trkpt lat="45.8591830" lon="9.2124390">
	<ele>1190.40</ele>
	<time>2025-02-15T10:02:32.000Z</time>
</trkpt>
<trkpt lat="45.8591820" lon="9.2124270">
	<ele>1190.40</ele>
	<time>2025-02-15T10:02:33.000Z</time>
</trkpt>
<trkpt lat="45.8591760" lon="9.2124080">
	<ele>1190.60</ele>
	<time>2025-02-15T10:02:34.000Z</time>
</trkpt>
<trkpt lat="45.8591730" lon="9.2123940">
	<ele>1190.80</ele>
	<time>2025-02-15T10:02:35.000Z</time>
</trkpt>
<trkpt lat="45.8591720" lon="9.2123830">
	<ele>1190.80</ele>
	<time>2025-02-15T10:02:36.000Z</time>
</trkpt>
<trkpt lat="45.8591760" lon="9.2123720">
	<ele>1190.80</ele>
	<time>2025-02-15T10:02:37.000Z</time>
</trkpt>
<trkpt lat="45.8591760" lon="9.2123680">
	<ele>1191.00</ele>
	<time>2025-02-15T10:02:38.000Z</time>
</trkpt>
<trkpt lat="45.8591770" lon="9.2123630">
	<ele>1191.00</ele>
	<time>2025-02-15T10:02:39.000Z</time>
</trkpt>
<trkpt lat="45.8591780" lon="9.2123580">
	<ele>1191.20</ele>
	<time>2025-02-15T10:02:40.000Z</time>
</trkpt>
<trkpt lat="45.8591760" lon="9.2123520">
	<ele>1191.20</ele>
	<time>2025-02-15T10:02:41.000Z</time>
</trkpt>
<trkpt lat="45.8591720" lon="9.2123500">
	<ele>1191.20</ele>
	<time>2025-02-15T10:02:42.000Z</time>
</trkpt>
<trkpt lat="45.8591700" lon="9.2123460">
	<ele>1191.20</ele>
	<time>2025-02-15T10:02:43.000Z</time>
</trkpt>
<trkpt lat="45.8591690" lon="9.2123420">
	<ele>1191.20</ele>
	<time>2025-02-15T10:02:44.000Z</time>
</trkpt>
<trkpt lat="45.8591730" lon="9.2123270">
	<ele>1191.20</ele>
	<time>2025-02-15T10:02:45.000Z</time>
</trkpt>
<trkpt lat="45.8591780" lon="9.2123150">
	<ele>1191.20</ele>
	<time>2025-02-15T10:02:46.000Z</time>
</trkpt>
<trkpt lat="45.8591790" lon="9.2123070">
	<ele>1191.20</ele>
	<time>2025-02-15T10:02:47.000Z</time>
</trkpt>
<trkpt lat="45.8591780" lon="9.2123000">
	<ele>1191.20</ele>
	<time>2025-02-15T10:02:48.000Z</time>
</trkpt>
<trkpt lat="45.8591820" lon="9.2122910">
	<ele>1191.20</ele>
	<time>2025-02-15T10:02:49.000Z</time>
</trkpt>
<trkpt lat="45.8591790" lon="9.2122830">
	<ele>1191.20</ele>
	<time>2025-02-15T10:02:50.000Z</time>
</trkpt>
<trkpt lat="45.8591740" lon="9.2122760">
	<ele>1191.20</ele>
	<time>2025-02-15T10:02:51.000Z</time>
</trkpt>
<trkpt lat="45.8591690" lon="9.2122700">
	<ele>1191.20</ele>
	<time>2025-02-15T10:02:52.000Z</time>
</trkpt>
<trkpt lat="45.8591670" lon="9.2122630">
	<ele>1191.40</ele>
	<time>2025-02-15T10:02:53.000Z</time>
</trkpt>
<trkpt lat="45.8591650" lon="9.2122580">
	<ele>1191.40</ele>
	<time>2025-02-15T10:02:54.000Z</time>
</trkpt>
<trkpt lat="45.8591660" lon="9.2122470">
	<ele>1191.40</ele>
	<time>2025-02-15T10:02:55.000Z</time>
</trkpt>
<trkpt lat="45.8591670" lon="9.2122350">
	<ele>1191.60</ele>
	<time>2025-02-15T10:02:56.000Z</time>
</trkpt>
<trkpt lat="45.8591640" lon="9.2122300">
	<ele>1191.60</ele>
	<time>2025-02-15T10:02:57.000Z</time>
</trkpt>
<trkpt lat="45.8591610" lon="9.2122260">
	<ele>1191.80</ele>
	<time>2025-02-15T10:02:58.000Z</time>
</trkpt>
<trkpt lat="45.8591630" lon="9.2122120">
	<ele>1191.80</ele>
	<time>2025-02-15T10:02:59.000Z</time>
</trkpt>
<trkpt lat="45.8591650" lon="9.2121940">
	<ele>1192.00</ele>
	<time>2025-02-15T10:03:00.000Z</time>
</trkpt>
<trkpt lat="45.8591680" lon="9.2121780">
	<ele>1192.00</ele>
	<time>2025-02-15T10:03:01.000Z</time>
</trkpt>
<trkpt lat="45.8591700" lon="9.2121630">
	<ele>1192.00</ele>
	<time>2025-02-15T10:03:02.000Z</time>
</trkpt>
<trkpt lat="45.8591740" lon="9.2121520">
	<ele>1192.20</ele>
	<time>2025-02-15T10:03:03.000Z</time>
</trkpt>
<trkpt lat="45.8591810" lon="9.2121440">
	<ele>1192.20</ele>
	<time>2025-02-15T10:03:04.000Z</time>
</trkpt>
<trkpt lat="45.8591890" lon="9.2121340">
	<ele>1192.40</ele>
	<time>2025-02-15T10:03:05.000Z</time>
</trkpt>
<trkpt lat="45.8591900" lon="9.2121300">
	<ele>1192.40</ele>
	<time>2025-02-15T10:03:06.000Z</time>
</trkpt>
<trkpt lat="45.8591940" lon="9.2121210">
	<ele>1192.40</ele>
	<time>2025-02-15T10:03:07.000Z</time>
</trkpt>
<trkpt lat="45.8591970" lon="9.2121170">
	<ele>1192.40</ele>
	<time>2025-02-15T10:03:08.000Z</time>
</trkpt>
<trkpt lat="45.8591970" lon="9.2121020">
	<ele>1192.40</ele>
	<time>2025-02-15T10:03:09.000Z</time>
</trkpt>
<trkpt lat="45.8591990" lon="9.2120850">
	<ele>1192.40</ele>
	<time>2025-02-15T10:03:10.000Z</time>
</trkpt>
<trkpt lat="45.8592010" lon="9.2120690">
	<ele>1192.40</ele>
	<time>2025-02-15T10:03:11.000Z</time>
</trkpt>
<trkpt lat="45.8592020" lon="9.2120570">
	<ele>1192.40</ele>
	<time>2025-02-15T10:03:12.000Z</time>
</trkpt>
<trkpt lat="45.8591990" lon="9.2120460">
	<ele>1192.40</ele>
	<time>2025-02-15T10:03:13.000Z</time>
</trkpt>
<trkpt lat="45.8591990" lon="9.2120340">
	<ele>1192.60</ele>
	<time>2025-02-15T10:03:14.000Z</time>
</trkpt>
<trkpt lat="45.8591980" lon="9.2120190">
	<ele>1192.80</ele>
	<time>2025-02-15T10:03:15.000Z</time>
</trkpt>
<trkpt lat="45.8591990" lon="9.2120050">
	<ele>1193.00</ele>
	<time>2025-02-15T10:03:16.000Z</time>
</trkpt>
<trkpt lat="45.8592000" lon="9.2119900">
	<ele>1193.00</ele>
	<time>2025-02-15T10:03:17.000Z</time>
</trkpt>
<trkpt lat="45.8592060" lon="9.2119820">
	<ele>1193.00</ele>
	<time>2025-02-15T10:03:18.000Z</time>
</trkpt>
<trkpt lat="45.8592130" lon="9.2119740">
	<ele>1193.20</ele>
	<time>2025-02-15T10:03:19.000Z</time>
</trkpt>
<trkpt lat="45.8592150" lon="9.2119680">
	<ele>1193.00</ele>
	<time>2025-02-15T10:03:20.000Z</time>
</trkpt>
<trkpt lat="45.8592280" lon="9.2119500">
	<ele>1193.00</ele>
	<time>2025-02-15T10:03:21.000Z</time>
</trkpt>
<trkpt lat="45.8592360" lon="9.2119360">
	<ele>1193.00</ele>
	<time>2025-02-15T10:03:22.000Z</time>
</trkpt>
<trkpt lat="45.8592360" lon="9.2119220">
	<ele>1193.00</ele>
	<time>2025-02-15T10:03:23.000Z</time>
</trkpt>
<trkpt lat="45.8592370" lon="9.2119030">
	<ele>1193.00</ele>
	<time>2025-02-15T10:03:24.000Z</time>
</trkpt>
<trkpt lat="45.8592350" lon="9.2118830">
	<ele>1193.00</ele>
	<time>2025-02-15T10:03:25.000Z</time>
</trkpt>
<trkpt lat="45.8592350" lon="9.2118610">
	<ele>1193.00</ele>
	<time>2025-02-15T10:03:26.000Z</time>
</trkpt>
<trkpt lat="45.8592410" lon="9.2118320">
	<ele>1193.00</ele>
	<time>2025-02-15T10:03:27.000Z</time>
</trkpt>
<trkpt lat="45.8592470" lon="9.2118050">
	<ele>1193.00</ele>
	<time>2025-02-15T10:03:28.000Z</time>
</trkpt>
<trkpt lat="45.8592520" lon="9.2117860">
	<ele>1193.00</ele>
	<time>2025-02-15T10:03:29.000Z</time>
</trkpt>
<trkpt lat="45.8592620" lon="9.2117670">
	<ele>1193.00</ele>
	<time>2025-02-15T10:03:30.000Z</time>
</trkpt>
<trkpt lat="45.8592710" lon="9.2117510">
	<ele>1193.00</ele>
	<time>2025-02-15T10:03:31.000Z</time>
</trkpt>
<trkpt lat="45.8592770" lon="9.2117320">
	<ele>1193.00</ele>
	<time>2025-02-15T10:03:32.000Z</time>
</trkpt>
<trkpt lat="45.8592800" lon="9.2117170">
	<ele>1193.20</ele>
	<time>2025-02-15T10:03:33.000Z</time>
</trkpt>
<trkpt lat="45.8592800" lon="9.2117050">
	<ele>1193.20</ele>
	<time>2025-02-15T10:03:34.000Z</time>
</trkpt>
<trkpt lat="45.8592810" lon="9.2116920">
	<ele>1193.20</ele>
	<time>2025-02-15T10:03:35.000Z</time>
</trkpt>
<trkpt lat="45.8592830" lon="9.2116790">
	<ele>1193.20</ele>
	<time>2025-02-15T10:03:36.000Z</time>
</trkpt>
<trkpt lat="45.8592870" lon="9.2116680">
	<ele>1193.20</ele>
	<time>2025-02-15T10:03:37.000Z</time>
</trkpt>
<trkpt lat="45.8592940" lon="9.2116600">
	<ele>1193.40</ele>
	<time>2025-02-15T10:03:38.000Z</time>
</trkpt>
<trkpt lat="45.8593000" lon="9.2116500">
	<ele>1193.40</ele>
	<time>2025-02-15T10:03:39.000Z</time>
</trkpt>
<trkpt lat="45.8593020" lon="9.2116430">
	<ele>1193.40</ele>
	<time>2025-02-15T10:03:40.000Z</time>
</trkpt>
<trkpt lat="45.8593060" lon="9.2116340">
	<ele>1193.40</ele>
	<time>2025-02-15T10:03:41.000Z</time>
</trkpt>
<trkpt lat="45.8593100" lon="9.2116230">
	<ele>1193.60</ele>
	<time>2025-02-15T10:03:42.000Z</time>
</trkpt>
<trkpt lat="45.8593110" lon="9.2116160">
	<ele>1193.60</ele>
	<time>2025-02-15T10:03:43.000Z</time>
</trkpt>
<trkpt lat="45.8593120" lon="9.2116050">
	<ele>1193.60</ele>
	<time>2025-02-15T10:03:44.000Z</time>
</trkpt>
<trkpt lat="45.8593110" lon="9.2116000">
	<ele>1193.60</ele>
	<time>2025-02-15T10:03:45.000Z</time>
</trkpt>
<trkpt lat="45.8593110" lon="9.2115940">
	<ele>1193.60</ele>
	<time>2025-02-15T10:03:46.000Z</time>
</trkpt>
<trkpt lat="45.8593140" lon="9.2115750">
	<ele>1193.60</ele>
	<time>2025-02-15T10:03:47.000Z</time>
</trkpt>
<trkpt lat="45.8593210" lon="9.2115680">
	<ele>1193.80</ele>
	<time>2025-02-15T10:03:48.000Z</time>
</trkpt>
<trkpt lat="45.8593240" lon="9.2115600">
	<ele>1193.80</ele>
	<time>2025-02-15T10:03:49.000Z</time>
</trkpt>
<trkpt lat="45.8593260" lon="9.2115540">
	<ele>1193.80</ele>
	<time>2025-02-15T10:03:50.000Z</time>
</trkpt>
<trkpt lat="45.8593250" lon="9.2115460">
	<ele>1193.80</ele>
	<time>2025-02-15T10:03:51.000Z</time>
</trkpt>
<trkpt lat="45.8593280" lon="9.2115370">
	<ele>1193.80</ele>
	<time>2025-02-15T10:03:52.000Z</time>
</trkpt>
<trkpt lat="45.8593310" lon="9.2115300">
	<ele>1194.00</ele>
	<time>2025-02-15T10:03:53.000Z</time>
</trkpt>
<trkpt lat="45.8593360" lon="9.2115190">
	<ele>1194.00</ele>
	<time>2025-02-15T10:03:54.000Z</time>
</trkpt>
<trkpt lat="45.8593360" lon="9.2115130">
	<ele>1194.00</ele>
	<time>2025-02-15T10:03:55.000Z</time>
</trkpt>
<trkpt lat="45.8593370" lon="9.2115070">
	<ele>1194.00</ele>
	<time>2025-02-15T10:03:56.000Z</time>
</trkpt>
<trkpt lat="45.8593440" lon="9.2115010">
	<ele>1194.00</ele>
	<time>2025-02-15T10:03:57.000Z</time>
</trkpt>
<trkpt lat="45.8593460" lon="9.2114900">
	<ele>1194.00</ele>
	<time>2025-02-15T10:03:58.000Z</time>
</trkpt>
<trkpt lat="45.8593530" lon="9.2114720">
	<ele>1194.00</ele>
	<time>2025-02-15T10:03:59.000Z</time>
</trkpt>
<trkpt lat="45.8593590" lon="9.2114530">
	<ele>1194.00</ele>
	<time>2025-02-15T10:04:00.000Z</time>
</trkpt>
<trkpt lat="45.8593710" lon="9.2114420">
	<ele>1194.00</ele>
	<time>2025-02-15T10:04:01.000Z</time>
</trkpt>
<trkpt lat="45.8593800" lon="9.2114310">
	<ele>1193.80</ele>
	<time>2025-02-15T10:04:02.000Z</time>
</trkpt>
<trkpt lat="45.8593870" lon="9.2114160">
	<ele>1193.80</ele>
	<time>2025-02-15T10:04:03.000Z</time>
</trkpt>
<trkpt lat="45.8593930" lon="9.2114010">
	<ele>1193.60</ele>
	<time>2025-02-15T10:04:04.000Z</time>
</trkpt>
<trkpt lat="45.8593960" lon="9.2113930">
	<ele>1193.60</ele>
	<time>2025-02-15T10:04:05.000Z</time>
</trkpt>
<trkpt lat="45.8593980" lon="9.2113770">
	<ele>1193.40</ele>
	<time>2025-02-15T10:04:06.000Z</time>
</trkpt>
<trkpt lat="45.8593980" lon="9.2113560">
	<ele>1193.40</ele>
	<time>2025-02-15T10:04:07.000Z</time>
</trkpt>
<trkpt lat="45.8594000" lon="9.2113380">
	<ele>1193.60</ele>
	<time>2025-02-15T10:04:08.000Z</time>
</trkpt>
<trkpt lat="45.8593980" lon="9.2113220">
	<ele>1193.60</ele>
	<time>2025-02-15T10:04:09.000Z</time>
</trkpt>
<trkpt lat="45.8594000" lon="9.2113140">
	<ele>1193.60</ele>
	<time>2025-02-15T10:04:10.000Z</time>
</trkpt>
<trkpt lat="45.8594010" lon="9.2113100">
	<ele>1193.60</ele>
	<time>2025-02-15T10:04:11.000Z</time>
</trkpt>
<trkpt lat="45.8594030" lon="9.2113040">
	<ele>1193.60</ele>
	<time>2025-02-15T10:04:12.000Z</time>
</trkpt>
<trkpt lat="45.8594070" lon="9.2112970">
	<ele>1193.80</ele>
	<time>2025-02-15T10:04:13.000Z</time>
</trkpt>
<trkpt lat="45.8594130" lon="9.2112890">
	<ele>1193.80</ele>
	<time>2025-02-15T10:04:14.000Z</time>
</trkpt>
<trkpt lat="45.8594140" lon="9.2112840">
	<ele>1193.80</ele>
	<time>2025-02-15T10:04:15.000Z</time>
</trkpt>
<trkpt lat="45.8594130" lon="9.2112680">
	<ele>1193.80</ele>
	<time>2025-02-15T10:04:16.000Z</time>
</trkpt>
<trkpt lat="45.8594130" lon="9.2112510">
	<ele>1193.80</ele>
	<time>2025-02-15T10:04:17.000Z</time>
</trkpt>
<trkpt lat="45.8594130" lon="9.2112290">
	<ele>1193.80</ele>
	<time>2025-02-15T10:04:18.000Z</time>
</trkpt>
<trkpt lat="45.8594190" lon="9.2112080">
	<ele>1193.80</ele>
	<time>2025-02-15T10:04:19.000Z</time>
</trkpt>
<trkpt lat="45.8594260" lon="9.2111920">
	<ele>1193.80</ele>
	<time>2025-02-15T10:04:20.000Z</time>
</trkpt>
<trkpt lat="45.8594330" lon="9.2111790">
	<ele>1193.60</ele>
	<time>2025-02-15T10:04:21.000Z</time>
</trkpt>
<trkpt lat="45.8594380" lon="9.2111730">
	<ele>1193.60</ele>
	<time>2025-02-15T10:04:22.000Z</time>
</trkpt>
<trkpt lat="45.8594420" lon="9.2111670">
	<ele>1193.80</ele>
	<time>2025-02-15T10:04:23.000Z</time>
</trkpt>
<trkpt lat="45.8594430" lon="9.2111560">
	<ele>1193.80</ele>
	<time>2025-02-15T10:04:24.000Z</time>
</trkpt>
<trkpt lat="45.8594460" lon="9.2111420">
	<ele>1193.80</ele>
	<time>2025-02-15T10:04:25.000Z</time>
</trkpt>
<trkpt lat="45.8594460" lon="9.2111360">
	<ele>1193.80</ele>
	<time>2025-02-15T10:04:26.000Z</time>
</trkpt>
<trkpt lat="45.8594480" lon="9.2111280">
	<ele>1194.00</ele>
	<time>2025-02-15T10:04:27.000Z</time>
</trkpt>
<trkpt lat="45.8594500" lon="9.2111160">
	<ele>1194.00</ele>
	<time>2025-02-15T10:04:28.000Z</time>
</trkpt>
<trkpt lat="45.8594510" lon="9.2111100">
	<ele>1194.20</ele>
	<time>2025-02-15T10:04:29.000Z</time>
</trkpt>
<trkpt lat="45.8594600" lon="9.2110920">
	<ele>1194.20</ele>
	<time>2025-02-15T10:04:30.000Z</time>
</trkpt>
<trkpt lat="45.8594630" lon="9.2110880">
	<ele>1194.20</ele>
	<time>2025-02-15T10:04:31.000Z</time>
</trkpt>
<trkpt lat="45.8594650" lon="9.2110830">
	<ele>1194.20</ele>
	<time>2025-02-15T10:04:32.000Z</time>
</trkpt>
<trkpt lat="45.8594650" lon="9.2110770">
	<ele>1194.40</ele>
	<time>2025-02-15T10:04:33.000Z</time>
</trkpt>
<trkpt lat="45.8594660" lon="9.2110720">
	<ele>1194.40</ele>
	<time>2025-02-15T10:04:34.000Z</time>
</trkpt>
<trkpt lat="45.8594750" lon="9.2110640">
	<ele>1194.40</ele>
	<time>2025-02-15T10:04:35.000Z</time>
</trkpt>
<trkpt lat="45.8594850" lon="9.2110540">
	<ele>1194.40</ele>
	<time>2025-02-15T10:04:36.000Z</time>
</trkpt>
<trkpt lat="45.8594920" lon="9.2110420">
	<ele>1194.40</ele>
	<time>2025-02-15T10:04:37.000Z</time>
</trkpt>
<trkpt lat="45.8595050" lon="9.2110250">
	<ele>1194.60</ele>
	<time>2025-02-15T10:04:38.000Z</time>
</trkpt>
<trkpt lat="45.8595090" lon="9.2110130">
	<ele>1194.80</ele>
	<time>2025-02-15T10:04:39.000Z</time>
</trkpt>
<trkpt lat="45.8595120" lon="9.2110040">
	<ele>1195.00</ele>
	<time>2025-02-15T10:04:40.000Z</time>
</trkpt>
<trkpt lat="45.8595150" lon="9.2109980">
	<ele>1195.00</ele>
	<time>2025-02-15T10:04:41.000Z</time>
</trkpt>
<trkpt lat="45.8595180" lon="9.2109900">
	<ele>1195.00</ele>
	<time>2025-02-15T10:04:42.000Z</time>
</trkpt>
<trkpt lat="45.8595240" lon="9.2109820">
	<ele>1195.20</ele>
	<time>2025-02-15T10:04:43.000Z</time>
</trkpt>
<trkpt lat="45.8595310" lon="9.2109750">
	<ele>1195.20</ele>
	<time>2025-02-15T10:04:44.000Z</time>
</trkpt>
<trkpt lat="45.8595320" lon="9.2109670">
	<ele>1195.20</ele>
	<time>2025-02-15T10:04:45.000Z</time>
</trkpt>
<trkpt lat="45.8595320" lon="9.2109620">
	<ele>1195.20</ele>
	<time>2025-02-15T10:04:46.000Z</time>
</trkpt>
<trkpt lat="45.8595300" lon="9.2109510">
	<ele>1195.60</ele>
	<time>2025-02-15T10:04:47.000Z</time>
</trkpt>
<trkpt lat="45.8595320" lon="9.2109420">
	<ele>1195.60</ele>
	<time>2025-02-15T10:04:48.000Z</time>
</trkpt>
<trkpt lat="45.8595310" lon="9.2109400">
	<ele>1195.80</ele>
	<time>2025-02-15T10:04:49.000Z</time>
</trkpt>
<trkpt lat="45.8595250" lon="9.2109340">
	<ele>1196.00</ele>
	<time>2025-02-15T10:04:50.000Z</time>
</trkpt>
<trkpt lat="45.8595210" lon="9.2109320">
	<ele>1196.20</ele>
	<time>2025-02-15T10:04:51.000Z</time>
</trkpt>
<trkpt lat="45.8595210" lon="9.2109110">
	<ele>1196.40</ele>
	<time>2025-02-15T10:04:52.000Z</time>
</trkpt>
<trkpt lat="45.8595220" lon="9.2109030">
	<ele>1196.80</ele>
	<time>2025-02-15T10:04:53.000Z</time>
</trkpt>
<trkpt lat="45.8595230" lon="9.2108990">
	<ele>1196.80</ele>
	<time>2025-02-15T10:04:54.000Z</time>
</trkpt>
<trkpt lat="45.8595260" lon="9.2108860">
	<ele>1197.00</ele>
	<time>2025-02-15T10:04:55.000Z</time>
</trkpt>
<trkpt lat="45.8595260" lon="9.2108790">
	<ele>1197.00</ele>
	<time>2025-02-15T10:04:56.000Z</time>
</trkpt>
<trkpt lat="45.8595290" lon="9.2108660">
	<ele>1197.20</ele>
	<time>2025-02-15T10:04:57.000Z</time>
</trkpt>
<trkpt lat="45.8595290" lon="9.2108640">
	<ele>1197.40</ele>
	<time>2025-02-15T10:04:58.000Z</time>
</trkpt>
<trkpt lat="45.8595330" lon="9.2108560">
	<ele>1197.40</ele>
	<time>2025-02-15T10:04:59.000Z</time>
</trkpt>
<trkpt lat="45.8595360" lon="9.2108540">
	<ele>1197.40</ele>
	<time>2025-02-15T10:05:00.000Z</time>
</trkpt>
<trkpt lat="45.8595420" lon="9.2108280">
	<ele>1197.60</ele>
	<time>2025-02-15T10:05:01.000Z</time>
</trkpt>
<trkpt lat="45.8595450" lon="9.2108260">
	<ele>1197.80</ele>
	<time>2025-02-15T10:05:02.000Z</time>
</trkpt>
<trkpt lat="45.8595470" lon="9.2108250">
	<ele>1197.80</ele>
	<time>2025-02-15T10:05:03.000Z</time>
</trkpt>
<trkpt lat="45.8595490" lon="9.2108260">
	<ele>1198.00</ele>
	<time>2025-02-15T10:05:04.000Z</time>
</trkpt>
<trkpt lat="45.8595500" lon="9.2108240">
	<ele>1198.20</ele>
	<time>2025-02-15T10:05:05.000Z</time>
</trkpt>
<trkpt lat="45.8595510" lon="9.2108240">
	<ele>1198.20</ele>
	<time>2025-02-15T10:05:06.000Z</time>
</trkpt>
<trkpt lat="45.8595520" lon="9.2108250">
	<ele>1198.40</ele>
	<time>2025-02-15T10:05:07.000Z</time>
</trkpt>
<trkpt lat="45.8595540" lon="9.2108250">
	<ele>1198.40</ele>
	<time>2025-02-15T10:05:08.000Z</time>
</trkpt>
<trkpt lat="45.8595540" lon="9.2108220">
	<ele>1198.40</ele>
	<time>2025-02-15T10:05:09.000Z</time>
</trkpt>
<trkpt lat="45.8595550" lon="9.2108200">
	<ele>1198.40</ele>
	<time>2025-02-15T10:05:10.000Z</time>
</trkpt>
<trkpt lat="45.8595560" lon="9.2108190">
	<ele>1198.40</ele>
	<time>2025-02-15T10:05:11.000Z</time>
</trkpt>
<trkpt lat="45.8595560" lon="9.2108170">
	<ele>1198.40</ele>
	<time>2025-02-15T10:05:12.000Z</time>
</trkpt>
<trkpt lat="45.8595560" lon="9.2108170">
	<ele>1198.40</ele>
	<time>2025-02-15T10:05:13.000Z</time>
</trkpt>
<trkpt lat="45.8595560" lon="9.2108170">
	<ele>1198.20</ele>
	<time>2025-02-15T10:05:14.000Z</time>
</trkpt>
<trkpt lat="45.8595560" lon="9.2108170">
	<ele>1198.20</ele>
	<time>2025-02-15T10:05:15.000Z</time>
</trkpt>
<trkpt lat="45.8595560" lon="9.2108170">
	<ele>1198.20</ele>
	<time>2025-02-15T10:05:16.000Z</time>
</trkpt>
<trkpt lat="45.8595560" lon="9.2108170">
	<ele>1198.20</ele>
	<time>2025-02-15T10:05:17.000Z</time>
</trkpt>
<trkpt lat="45.8595560" lon="9.2108170">
	<ele>1198.20</ele>
	<time>2025-02-15T10:05:18.000Z</time>
</trkpt>
<trkpt lat="45.8595560" lon="9.2108170">
	<ele>1198.20</ele>
	<time>2025-02-15T10:05:19.000Z</time>
</trkpt>
<trkpt lat="45.8595560" lon="9.2108170">
	<ele>1198.20</ele>
	<time>2025-02-15T10:05:20.000Z</time>
</trkpt>
<trkpt lat="45.8595560" lon="9.2108180">
	<ele>1198.20</ele>
	<time>2025-02-15T10:05:21.000Z</time>
</trkpt>
<trkpt lat="45.8595560" lon="9.2108180">
	<ele>1198.20</ele>
	<time>2025-02-15T10:05:22.000Z</time>
</trkpt>
<trkpt lat="45.8595560" lon="9.2108180">
	<ele>1198.20</ele>
	<time>2025-02-15T10:05:23.000Z</time>
</trkpt>
<trkpt lat="45.8595560" lon="9.2108180">
	<ele>1198.40</ele>
	<time>2025-02-15T10:05:24.000Z</time>
</trkpt>
<trkpt lat="45.8595560" lon="9.2108180">
	<ele>1198.40</ele>
	<time>2025-02-15T10:05:25.000Z</time>
</trkpt>
<trkpt lat="45.8595560" lon="9.2108180">
	<ele>1198.60</ele>
	<time>2025-02-15T10:05:26.000Z</time>
</trkpt>
<trkpt lat="45.8595560" lon="9.2108180">
	<ele>1198.60</ele>
	<time>2025-02-15T10:05:27.000Z</time>
</trkpt>
<trkpt lat="45.8595560" lon="9.2108180">
	<ele>1198.60</ele>
	<time>2025-02-15T10:05:28.000Z</time>
</trkpt>
<trkpt lat="45.8595560" lon="9.2108180">
	<ele>1198.80</ele>
	<time>2025-02-15T10:05:29.000Z</time>
</trkpt>
<trkpt lat="45.8595590" lon="9.2108070">
	<ele>1198.80</ele>
	<time>2025-02-15T10:05:30.000Z</time>
</trkpt>
<trkpt lat="45.8595650" lon="9.2107820">
	<ele>1198.60</ele>
	<time>2025-02-15T10:05:31.000Z</time>
</trkpt>
<trkpt lat="45.8595740" lon="9.2107570">
	<ele>1198.60</ele>
	<time>2025-02-15T10:05:32.000Z</time>
</trkpt>
<trkpt lat="45.8595840" lon="9.2107350">
	<ele>1198.60</ele>
	<time>2025-02-15T10:05:33.000Z</time>
</trkpt>
<trkpt lat="45.8595920" lon="9.2107110">
	<ele>1198.60</ele>
	<time>2025-02-15T10:05:34.000Z</time>
</trkpt>
<trkpt lat="45.8595980" lon="9.2106940">
	<ele>1198.60</ele>
	<time>2025-02-15T10:05:35.000Z</time>
</trkpt>
<trkpt lat="45.8596070" lon="9.2106690">
	<ele>1198.60</ele>
	<time>2025-02-15T10:05:36.000Z</time>
</trkpt>
<trkpt lat="45.8596180" lon="9.2106500">
	<ele>1198.60</ele>
	<time>2025-02-15T10:05:37.000Z</time>
</trkpt>
<trkpt lat="45.8596310" lon="9.2106260">
	<ele>1198.80</ele>
	<time>2025-02-15T10:05:38.000Z</time>
</trkpt>
<trkpt lat="45.8596370" lon="9.2106090">
	<ele>1198.60</ele>
	<time>2025-02-15T10:05:39.000Z</time>
</trkpt>
<trkpt lat="45.8596440" lon="9.2105970">
	<ele>1198.60</ele>
	<time>2025-02-15T10:05:40.000Z</time>
</trkpt>
<trkpt lat="45.8596520" lon="9.2105790">
	<ele>1198.60</ele>
	<time>2025-02-15T10:05:41.000Z</time>
</trkpt>
<trkpt lat="45.8596550" lon="9.2105630">
	<ele>1198.60</ele>
	<time>2025-02-15T10:05:42.000Z</time>
</trkpt>
<trkpt lat="45.8596600" lon="9.2105430">
	<ele>1198.60</ele>
	<time>2025-02-15T10:05:43.000Z</time>
</trkpt>
<trkpt lat="45.8596650" lon="9.2105240">
	<ele>1198.60</ele>
	<time>2025-02-15T10:05:44.000Z</time>
</trkpt>
<trkpt lat="45.8596670" lon="9.2105160">
	<ele>1198.60</ele>
	<time>2025-02-15T10:05:45.000Z</time>
</trkpt>
<trkpt lat="45.8596700" lon="9.2105090">
	<ele>1198.60</ele>
	<time>2025-02-15T10:05:46.000Z</time>
</trkpt>
<trkpt lat="45.8596720" lon="9.2105020">
	<ele>1198.80</ele>
	<time>2025-02-15T10:05:47.000Z</time>
</trkpt>
<trkpt lat="45.8596730" lon="9.2104960">
	<ele>1199.00</ele>
	<time>2025-02-15T10:05:48.000Z</time>
</trkpt>
<trkpt lat="45.8596760" lon="9.2104850">
	<ele>1199.40</ele>
	<time>2025-02-15T10:05:49.000Z</time>
</trkpt>
<trkpt lat="45.8596790" lon="9.2104750">
	<ele>1199.60</ele>
	<time>2025-02-15T10:05:50.000Z</time>
</trkpt>
<trkpt lat="45.8596790" lon="9.2104680">
	<ele>1199.80</ele>
	<time>2025-02-15T10:05:51.000Z</time>
</trkpt>
<trkpt lat="45.8596790" lon="9.2104650">
	<ele>1199.80</ele>
	<time>2025-02-15T10:05:52.000Z</time>
</trkpt>
<trkpt lat="45.8596820" lon="9.2104630">
	<ele>1200.00</ele>
	<time>2025-02-15T10:05:53.000Z</time>
</trkpt>
<trkpt lat="45.8596840" lon="9.2104590">
	<ele>1200.00</ele>
	<time>2025-02-15T10:05:54.000Z</time>
</trkpt>
<trkpt lat="45.8596910" lon="9.2104550">
	<ele>1200.20</ele>
	<time>2025-02-15T10:05:55.000Z</time>
</trkpt>
<trkpt lat="45.8596950" lon="9.2104520">
	<ele>1200.40</ele>
	<time>2025-02-15T10:05:56.000Z</time>
</trkpt>
<trkpt lat="45.8597080" lon="9.2104440">
	<ele>1200.40</ele>
	<time>2025-02-15T10:05:57.000Z</time>
</trkpt>
<trkpt lat="45.8597210" lon="9.2104360">
	<ele>1200.40</ele>
	<time>2025-02-15T10:05:58.000Z</time>
</trkpt>
<trkpt lat="45.8597300" lon="9.2104250">
	<ele>1200.80</ele>
	<time>2025-02-15T10:05:59.000Z</time>
</trkpt>
<trkpt lat="45.8597350" lon="9.2104160">
	<ele>1200.80</ele>
	<time>2025-02-15T10:06:00.000Z</time>
</trkpt>
<trkpt lat="45.8597400" lon="9.2104090">
	<ele>1201.00</ele>
	<time>2025-02-15T10:06:01.000Z</time>
</trkpt>
<trkpt lat="45.8597420" lon="9.2104000">
	<ele>1201.20</ele>
	<time>2025-02-15T10:06:02.000Z</time>
</trkpt>
<trkpt lat="45.8597410" lon="9.2103920">
	<ele>1201.40</ele>
	<time>2025-02-15T10:06:03.000Z</time>
</trkpt>
<trkpt lat="45.8597420" lon="9.2103810">
	<ele>1201.80</ele>
	<time>2025-02-15T10:06:04.000Z</time>
</trkpt>
<trkpt lat="45.8597410" lon="9.2103730">
	<ele>1202.00</ele>
	<time>2025-02-15T10:06:05.000Z</time>
</trkpt>
<trkpt lat="45.8597430" lon="9.2103640">
	<ele>1202.20</ele>
	<time>2025-02-15T10:06:06.000Z</time>
</trkpt>
<trkpt lat="45.8597430" lon="9.2103530">
	<ele>1202.40</ele>
	<time>2025-02-15T10:06:07.000Z</time>
</trkpt>
<trkpt lat="45.8597430" lon="9.2103450">
	<ele>1202.80</ele>
	<time>2025-02-15T10:06:08.000Z</time>
</trkpt>
<trkpt lat="45.8597430" lon="9.2103400">
	<ele>1203.00</ele>
	<time>2025-02-15T10:06:09.000Z</time>
</trkpt>
<trkpt lat="45.8597420" lon="9.2103340">
	<ele>1203.00</ele>
	<time>2025-02-15T10:06:10.000Z</time>
</trkpt>
<trkpt lat="45.8597420" lon="9.2103290">
	<ele>1203.00</ele>
	<time>2025-02-15T10:06:11.000Z</time>
</trkpt>
<trkpt lat="45.8597420" lon="9.2103230">
	<ele>1203.20</ele>
	<time>2025-02-15T10:06:12.000Z</time>
</trkpt>
<trkpt lat="45.8597440" lon="9.2103170">
	<ele>1203.20</ele>
	<time>2025-02-15T10:06:13.000Z</time>
</trkpt>
<trkpt lat="45.8597480" lon="9.2103060">
	<ele>1203.20</ele>
	<time>2025-02-15T10:06:14.000Z</time>
</trkpt>
<trkpt lat="45.8597510" lon="9.2102920">
	<ele>1203.40</ele>
	<time>2025-02-15T10:06:15.000Z</time>
</trkpt>
<trkpt lat="45.8597550" lon="9.2102760">
	<ele>1203.40</ele>
	<time>2025-02-15T10:06:16.000Z</time>
</trkpt>
<trkpt lat="45.8597570" lon="9.2102580">
	<ele>1203.40</ele>
	<time>2025-02-15T10:06:17.000Z</time>
</trkpt>
<trkpt lat="45.8597630" lon="9.2102440">
	<ele>1203.60</ele>
	<time>2025-02-15T10:06:18.000Z</time>
</trkpt>
<trkpt lat="45.8597650" lon="9.2102320">
	<ele>1203.80</ele>
	<time>2025-02-15T10:06:19.000Z</time>
</trkpt>
<trkpt lat="45.8597640" lon="9.2102250">
	<ele>1203.80</ele>
	<time>2025-02-15T10:06:20.000Z</time>
</trkpt>
<trkpt lat="45.8597620" lon="9.2102200">
	<ele>1204.40</ele>
	<time>2025-02-15T10:06:21.000Z</time>
</trkpt>
<trkpt lat="45.8597610" lon="9.2102150">
	<ele>1204.80</ele>
	<time>2025-02-15T10:06:22.000Z</time>
</trkpt>
<trkpt lat="45.8597630" lon="9.2102110">
	<ele>1205.00</ele>
	<time>2025-02-15T10:06:23.000Z</time>
</trkpt>
<trkpt lat="45.8597650" lon="9.2102070">
	<ele>1205.20</ele>
	<time>2025-02-15T10:06:24.000Z</time>
</trkpt>
<trkpt lat="45.8597670" lon="9.2102030">
	<ele>1205.40</ele>
	<time>2025-02-15T10:06:25.000Z</time>
</trkpt>
<trkpt lat="45.8597690" lon="9.2101990">
	<ele>1205.40</ele>
	<time>2025-02-15T10:06:26.000Z</time>
</trkpt>
<trkpt lat="45.8597730" lon="9.2101870">
	<ele>1205.40</ele>
	<time>2025-02-15T10:06:27.000Z</time>
</trkpt>
<trkpt lat="45.8597790" lon="9.2101770">
	<ele>1205.40</ele>
	<time>2025-02-15T10:06:28.000Z</time>
</trkpt>
<trkpt lat="45.8597850" lon="9.2101630">
	<ele>1205.60</ele>
	<time>2025-02-15T10:06:29.000Z</time>
</trkpt>
<trkpt lat="45.8597870" lon="9.2101580">
	<ele>1206.00</ele>
	<time>2025-02-15T10:06:30.000Z</time>
</trkpt>
<trkpt lat="45.8597900" lon="9.2101550">
	<ele>1206.00</ele>
	<time>2025-02-15T10:06:31.000Z</time>
</trkpt>
<trkpt lat="45.8597930" lon="9.2101480">
	<ele>1206.20</ele>
	<time>2025-02-15T10:06:32.000Z</time>
</trkpt>
<trkpt lat="45.8597960" lon="9.2101420">
	<ele>1206.20</ele>
	<time>2025-02-15T10:06:33.000Z</time>
</trkpt>
<trkpt lat="45.8597990" lon="9.2101340">
	<ele>1206.40</ele>
	<time>2025-02-15T10:06:34.000Z</time>
</trkpt>
<trkpt lat="45.8598000" lon="9.2101300">
	<ele>1206.40</ele>
	<time>2025-02-15T10:06:35.000Z</time>
</trkpt>
<trkpt lat="45.8598000" lon="9.2101270">
	<ele>1206.60</ele>
	<time>2025-02-15T10:06:36.000Z</time>
</trkpt>
<trkpt lat="45.8598000" lon="9.2101230">
	<ele>1206.80</ele>
	<time>2025-02-15T10:06:37.000Z</time>
</trkpt>
<trkpt lat="45.8597990" lon="9.2101160">
	<ele>1207.20</ele>
	<time>2025-02-15T10:06:38.000Z</time>
</trkpt>
<trkpt lat="45.8597990" lon="9.2101080">
	<ele>1207.60</ele>
	<time>2025-02-15T10:06:39.000Z</time>
</trkpt>
<trkpt lat="45.8598010" lon="9.2100950">
	<ele>1207.80</ele>
	<time>2025-02-15T10:06:40.000Z</time>
</trkpt>
<trkpt lat="45.8598030" lon="9.2100800">
	<ele>1207.80</ele>
	<time>2025-02-15T10:06:41.000Z</time>
</trkpt>
<trkpt lat="45.8598050" lon="9.2100650">
	<ele>1208.00</ele>
	<time>2025-02-15T10:06:42.000Z</time>
</trkpt>
<trkpt lat="45.8598060" lon="9.2100580">
	<ele>1208.00</ele>
	<time>2025-02-15T10:06:43.000Z</time>
</trkpt>
<trkpt lat="45.8598110" lon="9.2100390">
	<ele>1208.00</ele>
	<time>2025-02-15T10:06:44.000Z</time>
</trkpt>
<trkpt lat="45.8598160" lon="9.2100200">
	<ele>1208.00</ele>
	<time>2025-02-15T10:06:45.000Z</time>
</trkpt>
<trkpt lat="45.8598180" lon="9.2100060">
	<ele>1208.00</ele>
	<time>2025-02-15T10:06:46.000Z</time>
</trkpt>
<trkpt lat="45.8598260" lon="9.2099880">
	<ele>1208.00</ele>
	<time>2025-02-15T10:06:47.000Z</time>
</trkpt>
<trkpt lat="45.8598260" lon="9.2099810">
	<ele>1208.20</ele>
	<time>2025-02-15T10:06:48.000Z</time>
</trkpt>
<trkpt lat="45.8598270" lon="9.2099690">
	<ele>1208.40</ele>
	<time>2025-02-15T10:06:49.000Z</time>
</trkpt>
<trkpt lat="45.8598310" lon="9.2099530">
	<ele>1208.60</ele>
	<time>2025-02-15T10:06:50.000Z</time>
</trkpt>
<trkpt lat="45.8598340" lon="9.2099460">
	<ele>1208.80</ele>
	<time>2025-02-15T10:06:51.000Z</time>
</trkpt>
<trkpt lat="45.8598340" lon="9.2099390">
	<ele>1208.80</ele>
	<time>2025-02-15T10:06:52.000Z</time>
</trkpt>
<trkpt lat="45.8598360" lon="9.2099260">
	<ele>1209.00</ele>
	<time>2025-02-15T10:06:53.000Z</time>
</trkpt>
<trkpt lat="45.8598410" lon="9.2099130">
	<ele>1209.00</ele>
	<time>2025-02-15T10:06:54.000Z</time>
</trkpt>
<trkpt lat="45.8598500" lon="9.2099010">
	<ele>1209.00</ele>
	<time>2025-02-15T10:06:55.000Z</time>
</trkpt>
<trkpt lat="45.8598590" lon="9.2098930">
	<ele>1209.00</ele>
	<time>2025-02-15T10:06:56.000Z</time>
</trkpt>
<trkpt lat="45.8598720" lon="9.2098870">
	<ele>1209.20</ele>
	<time>2025-02-15T10:06:57.000Z</time>
</trkpt>
<trkpt lat="45.8598770" lon="9.2098790">
	<ele>1209.00</ele>
	<time>2025-02-15T10:06:58.000Z</time>
</trkpt>
<trkpt lat="45.8598770" lon="9.2098700">
	<ele>1209.00</ele>
	<time>2025-02-15T10:06:59.000Z</time>
</trkpt>
<trkpt lat="45.8598720" lon="9.2098540">
	<ele>1209.00</ele>
	<time>2025-02-15T10:07:00.000Z</time>
</trkpt>
<trkpt lat="45.8598720" lon="9.2098460">
	<ele>1209.40</ele>
	<time>2025-02-15T10:07:01.000Z</time>
</trkpt>
<trkpt lat="45.8598720" lon="9.2098400">
	<ele>1209.60</ele>
	<time>2025-02-15T10:07:02.000Z</time>
</trkpt>
<trkpt lat="45.8598730" lon="9.2098360">
	<ele>1209.80</ele>
	<time>2025-02-15T10:07:03.000Z</time>
</trkpt>
<trkpt lat="45.8598780" lon="9.2098270">
	<ele>1210.00</ele>
	<time>2025-02-15T10:07:04.000Z</time>
</trkpt>
<trkpt lat="45.8598810" lon="9.2098230">
	<ele>1210.00</ele>
	<time>2025-02-15T10:07:05.000Z</time>
</trkpt>
<trkpt lat="45.8598770" lon="9.2098180">
	<ele>1210.20</ele>
	<time>2025-02-15T10:07:06.000Z</time>
</trkpt>
<trkpt lat="45.8598840" lon="9.2098090">
	<ele>1210.20</ele>
	<time>2025-02-15T10:07:07.000Z</time>
</trkpt>
<trkpt lat="45.8598940" lon="9.2098090">
	<ele>1210.40</ele>
	<time>2025-02-15T10:07:08.000Z</time>
</trkpt>
<trkpt lat="45.8598960" lon="9.2098020">
	<ele>1210.40</ele>
	<time>2025-02-15T10:07:09.000Z</time>
</trkpt>
<trkpt lat="45.8598980" lon="9.2097900">
	<ele>1210.60</ele>
	<time>2025-02-15T10:07:10.000Z</time>
</trkpt>
<trkpt lat="45.8599020" lon="9.2097780">
	<ele>1210.80</ele>
	<time>2025-02-15T10:07:11.000Z</time>
</trkpt>
<trkpt lat="45.8599100" lon="9.2097680">
	<ele>1211.00</ele>
	<time>2025-02-15T10:07:12.000Z</time>
</trkpt>
<trkpt lat="45.8599140" lon="9.2097630">
	<ele>1211.00</ele>
	<time>2025-02-15T10:07:13.000Z</time>
</trkpt>
<trkpt lat="45.8599160" lon="9.2097600">
	<ele>1211.00</ele>
	<time>2025-02-15T10:07:14.000Z</time>
</trkpt>
<trkpt lat="45.8599190" lon="9.2097550">
	<ele>1211.00</ele>
	<time>2025-02-15T10:07:15.000Z</time>
</trkpt>
<trkpt lat="45.8599230" lon="9.2097480">
	<ele>1211.20</ele>
	<time>2025-02-15T10:07:16.000Z</time>
</trkpt>
<trkpt lat="45.8599240" lon="9.2097430">
	<ele>1211.20</ele>
	<time>2025-02-15T10:07:17.000Z</time>
</trkpt>
<trkpt lat="45.8599250" lon="9.2097340">
	<ele>1211.40</ele>
	<time>2025-02-15T10:07:18.000Z</time>
</trkpt>
<trkpt lat="45.8599230" lon="9.2097270">
	<ele>1211.40</ele>
	<time>2025-02-15T10:07:19.000Z</time>
</trkpt>
<trkpt lat="45.8599240" lon="9.2097140">
	<ele>1211.60</ele>
	<time>2025-02-15T10:07:20.000Z</time>
</trkpt>
<trkpt lat="45.8599230" lon="9.2097030">
	<ele>1211.60</ele>
	<time>2025-02-15T10:07:21.000Z</time>
</trkpt>
<trkpt lat="45.8599220" lon="9.2096900">
	<ele>1211.60</ele>
	<time>2025-02-15T10:07:22.000Z</time>
</trkpt>
<trkpt lat="45.8599180" lon="9.2096750">
	<ele>1211.80</ele>
	<time>2025-02-15T10:07:23.000Z</time>
</trkpt>
<trkpt lat="45.8599160" lon="9.2096670">
	<ele>1211.80</ele>
	<time>2025-02-15T10:07:24.000Z</time>
</trkpt>
<trkpt lat="45.8599150" lon="9.2096550">
	<ele>1211.80</ele>
	<time>2025-02-15T10:07:25.000Z</time>
</trkpt>
<trkpt lat="45.8599180" lon="9.2096400">
	<ele>1212.00</ele>
	<time>2025-02-15T10:07:26.000Z</time>
</trkpt>
<trkpt lat="45.8599190" lon="9.2096310">
	<ele>1212.00</ele>
	<time>2025-02-15T10:07:27.000Z</time>
</trkpt>
<trkpt lat="45.8599200" lon="9.2096210">
	<ele>1212.00</ele>
	<time>2025-02-15T10:07:28.000Z</time>
</trkpt>
<trkpt lat="45.8599240" lon="9.2096060">
	<ele>1212.20</ele>
	<time>2025-02-15T10:07:29.000Z</time>
</trkpt>
<trkpt lat="45.8599230" lon="9.2095880">
	<ele>1212.20</ele>
	<time>2025-02-15T10:07:30.000Z</time>
</trkpt>
<trkpt lat="45.8599200" lon="9.2095720">
	<ele>1212.20</ele>
	<time>2025-02-15T10:07:31.000Z</time>
</trkpt>
<trkpt lat="45.8599190" lon="9.2095570">
	<ele>1212.20</ele>
	<time>2025-02-15T10:07:32.000Z</time>
</trkpt>
<trkpt lat="45.8599230" lon="9.2095450">
	<ele>1212.20</ele>
	<time>2025-02-15T10:07:33.000Z</time>
</trkpt>
<trkpt lat="45.8599240" lon="9.2095380">
	<ele>1212.20</ele>
	<time>2025-02-15T10:07:34.000Z</time>
</trkpt>
<trkpt lat="45.8599250" lon="9.2095250">
	<ele>1212.20</ele>
	<time>2025-02-15T10:07:35.000Z</time>
</trkpt>
<trkpt lat="45.8599270" lon="9.2095150">
	<ele>1212.20</ele>
	<time>2025-02-15T10:07:36.000Z</time>
</trkpt>
<trkpt lat="45.8599320" lon="9.2095050">
	<ele>1212.40</ele>
	<time>2025-02-15T10:07:37.000Z</time>
</trkpt>
<trkpt lat="45.8599320" lon="9.2094990">
	<ele>1212.60</ele>
	<time>2025-02-15T10:07:38.000Z</time>
</trkpt>
<trkpt lat="45.8599330" lon="9.2094930">
	<ele>1212.60</ele>
	<time>2025-02-15T10:07:39.000Z</time>
</trkpt>
<trkpt lat="45.8599340" lon="9.2094870">
	<ele>1212.80</ele>
	<time>2025-02-15T10:07:40.000Z</time>
</trkpt>
<trkpt lat="45.8599340" lon="9.2094810">
	<ele>1213.00</ele>
	<time>2025-02-15T10:07:41.000Z</time>
</trkpt>
<trkpt lat="45.8599430" lon="9.2094610">
	<ele>1213.00</ele>
	<time>2025-02-15T10:07:42.000Z</time>
</trkpt>
<trkpt lat="45.8599480" lon="9.2094360">
	<ele>1213.20</ele>
	<time>2025-02-15T10:07:43.000Z</time>
</trkpt>
<trkpt lat="45.8599480" lon="9.2094200">
	<ele>1213.20</ele>
	<time>2025-02-15T10:07:44.000Z</time>
</trkpt>
<trkpt lat="45.8599510" lon="9.2094060">
	<ele>1213.00</ele>
	<time>2025-02-15T10:07:45.000Z</time>
</trkpt>
<trkpt lat="45.8599520" lon="9.2093940">
	<ele>1213.00</ele>
	<time>2025-02-15T10:07:46.000Z</time>
</trkpt>
<trkpt lat="45.8599560" lon="9.2093780">
	<ele>1213.00</ele>
	<time>2025-02-15T10:07:47.000Z</time>
</trkpt>
<trkpt lat="45.8599560" lon="9.2093690">
	<ele>1213.00</ele>
	<time>2025-02-15T10:07:48.000Z</time>
</trkpt>
<trkpt lat="45.8599550" lon="9.2093620">
	<ele>1213.00</ele>
	<time>2025-02-15T10:07:49.000Z</time>
</trkpt>
<trkpt lat="45.8599670" lon="9.2093500">
	<ele>1213.00</ele>
	<time>2025-02-15T10:07:50.000Z</time>
</trkpt>
<trkpt lat="45.8599760" lon="9.2093380">
	<ele>1213.40</ele>
	<time>2025-02-15T10:07:51.000Z</time>
</trkpt>
<trkpt lat="45.8599750" lon="9.2093310">
	<ele>1213.40</ele>
	<time>2025-02-15T10:07:52.000Z</time>
</trkpt>
<trkpt lat="45.8599740" lon="9.2093230">
	<ele>1213.60</ele>
	<time>2025-02-15T10:07:53.000Z</time>
</trkpt>
<trkpt lat="45.8599750" lon="9.2093140">
	<ele>1213.60</ele>
	<time>2025-02-15T10:07:54.000Z</time>
</trkpt>
<trkpt lat="45.8599730" lon="9.2093020">
	<ele>1213.80</ele>
	<time>2025-02-15T10:07:55.000Z</time>
</trkpt>
<trkpt lat="45.8599720" lon="9.2092950">
	<ele>1214.00</ele>
	<time>2025-02-15T10:07:56.000Z</time>
</trkpt>
<trkpt lat="45.8599720" lon="9.2092820">
	<ele>1214.20</ele>
	<time>2025-02-15T10:07:57.000Z</time>
</trkpt>
<trkpt lat="45.8599730" lon="9.2092710">
	<ele>1214.20</ele>
	<time>2025-02-15T10:07:58.000Z</time>
</trkpt>
<trkpt lat="45.8599710" lon="9.2092690">
	<ele>1214.40</ele>
	<time>2025-02-15T10:07:59.000Z</time>
</trkpt>
<trkpt lat="45.8599650" lon="9.2092690">
	<ele>1214.60</ele>
	<time>2025-02-15T10:08:00.000Z</time>
</trkpt>
<trkpt lat="45.8599640" lon="9.2092700">
	<ele>1214.60</ele>
	<time>2025-02-15T10:08:01.000Z</time>
</trkpt>
<trkpt lat="45.8599640" lon="9.2092680">
	<ele>1214.80</ele>
	<time>2025-02-15T10:08:02.000Z</time>
</trkpt>
<trkpt lat="45.8599600" lon="9.2092600">
	<ele>1214.80</ele>
	<time>2025-02-15T10:08:03.000Z</time>
</trkpt>
<trkpt lat="45.8599570" lon="9.2092510">
	<ele>1214.80</ele>
	<time>2025-02-15T10:08:04.000Z</time>
</trkpt>
<trkpt lat="45.8599560" lon="9.2092450">
	<ele>1214.80</ele>
	<time>2025-02-15T10:08:05.000Z</time>
</trkpt>
<trkpt lat="45.8599550" lon="9.2092420">
	<ele>1214.80</ele>
	<time>2025-02-15T10:08:06.000Z</time>
</trkpt>
<trkpt lat="45.8599530" lon="9.2092400">
	<ele>1215.00</ele>
	<time>2025-02-15T10:08:07.000Z</time>
</trkpt>
<trkpt lat="45.8599500" lon="9.2092390">
	<ele>1215.20</ele>
	<time>2025-02-15T10:08:08.000Z</time>
</trkpt>
<trkpt lat="45.8599480" lon="9.2092380">
	<ele>1215.40</ele>
	<time>2025-02-15T10:08:09.000Z</time>
</trkpt>
<trkpt lat="45.8599460" lon="9.2092420">
	<ele>1215.40</ele>
	<time>2025-02-15T10:08:10.000Z</time>
</trkpt>
<trkpt lat="45.8599430" lon="9.2092480">
	<ele>1215.40</ele>
	<time>2025-02-15T10:08:11.000Z</time>
</trkpt>
<trkpt lat="45.8599410" lon="9.2092550">
	<ele>1215.40</ele>
	<time>2025-02-15T10:08:12.000Z</time>
</trkpt>
<trkpt lat="45.8599390" lon="9.2092590">
	<ele>1215.40</ele>
	<time>2025-02-15T10:08:13.000Z</time>
</trkpt>
<trkpt lat="45.8599330" lon="9.2092600">
	<ele>1215.40</ele>
	<time>2025-02-15T10:08:14.000Z</time>
</trkpt>
<trkpt lat="45.8599280" lon="9.2092660">
	<ele>1215.60</ele>
	<time>2025-02-15T10:08:15.000Z</time>
</trkpt>
<trkpt lat="45.8599260" lon="9.2092710">
	<ele>1215.60</ele>
	<time>2025-02-15T10:08:16.000Z</time>
</trkpt>
<trkpt lat="45.8599260" lon="9.2092730">
	<ele>1215.80</ele>
	<time>2025-02-15T10:08:17.000Z</time>
</trkpt>
<trkpt lat="45.8599250" lon="9.2092740">
	<ele>1216.00</ele>
	<time>2025-02-15T10:08:18.000Z</time>
</trkpt>
<trkpt lat="45.8599250" lon="9.2092740">
	<ele>1216.00</ele>
	<time>2025-02-15T10:08:19.000Z</time>
</trkpt>
<trkpt lat="45.8599250" lon="9.2092740">
	<ele>1216.00</ele>
	<time>2025-02-15T10:08:20.000Z</time>
</trkpt>
<trkpt lat="45.8599250" lon="9.2092740">
	<ele>1216.00</ele>
	<time>2025-02-15T10:08:21.000Z</time>
</trkpt>
<trkpt lat="45.8599250" lon="9.2092740">
	<ele>1216.00</ele>
	<time>2025-02-15T10:08:22.000Z</time>
</trkpt>
<trkpt lat="45.8599250" lon="9.2092740">
	<ele>1216.00</ele>
	<time>2025-02-15T10:08:23.000Z</time>
</trkpt>
<trkpt lat="45.8599250" lon="9.2092740">
	<ele>1215.80</ele>
	<time>2025-02-15T10:08:24.000Z</time>
</trkpt>
<trkpt lat="45.8599250" lon="9.2092740">
	<ele>1215.80</ele>
	<time>2025-02-15T10:08:25.000Z</time>
</trkpt>
<trkpt lat="45.8599250" lon="9.2092740">
	<ele>1215.60</ele>
	<time>2025-02-15T10:08:26.000Z</time>
</trkpt>
<trkpt lat="45.8599250" lon="9.2092740">
	<ele>1215.60</ele>
	<time>2025-02-15T10:08:27.000Z</time>
</trkpt>
<trkpt lat="45.8599250" lon="9.2092730">
	<ele>1215.60</ele>
	<time>2025-02-15T10:08:28.000Z</time>
</trkpt>
<trkpt lat="45.8599250" lon="9.2092730">
	<ele>1215.40</ele>
	<time>2025-02-15T10:08:29.000Z</time>
</trkpt>
<trkpt lat="45.8599250" lon="9.2092730">
	<ele>1215.20</ele>
	<time>2025-02-15T10:08:30.000Z</time>
</trkpt>
<trkpt lat="45.8599250" lon="9.2092720">
	<ele>1215.20</ele>
	<time>2025-02-15T10:08:31.000Z</time>
</trkpt>
<trkpt lat="45.8599250" lon="9.2092720">
	<ele>1215.20</ele>
	<time>2025-02-15T10:08:32.000Z</time>
</trkpt>
<trkpt lat="45.8599250" lon="9.2092710">
	<ele>1215.20</ele>
	<time>2025-02-15T10:08:33.000Z</time>
</trkpt>
<trkpt lat="45.8599250" lon="9.2092690">
	<ele>1215.20</ele>
	<time>2025-02-15T10:08:34.000Z</time>
</trkpt>
<trkpt lat="45.8599250" lon="9.2092680">
	<ele>1215.20</ele>
	<time>2025-02-15T10:08:35.000Z</time>
</trkpt>
<trkpt lat="45.8599250" lon="9.2092680">
	<ele>1215.20</ele>
	<time>2025-02-15T10:08:36.000Z</time>
</trkpt>
<trkpt lat="45.8599250" lon="9.2092680">
	<ele>1215.20</ele>
	<time>2025-02-15T10:08:37.000Z</time>
</trkpt>
<trkpt lat="45.8599250" lon="9.2092680">
	<ele>1215.20</ele>
	<time>2025-02-15T10:08:38.000Z</time>
</trkpt>
<trkpt lat="45.8599250" lon="9.2092680">
	<ele>1215.20</ele>
	<time>2025-02-15T10:08:39.000Z</time>
</trkpt>
<trkpt lat="45.8599250" lon="9.2092680">
	<ele>1215.20</ele>
	<time>2025-02-15T10:08:40.000Z</time>
</trkpt>
<trkpt lat="45.8599250" lon="9.2092680">
	<ele>1215.20</ele>
	<time>2025-02-15T10:08:41.000Z</time>
</trkpt>
<trkpt lat="45.8599250" lon="9.2092680">
	<ele>1215.20</ele>
	<time>2025-02-15T10:08:42.000Z</time>
</trkpt>
<trkpt lat="45.8599240" lon="9.2092680">
	<ele>1215.20</ele>
	<time>2025-02-15T10:08:43.000Z</time>
</trkpt>
<trkpt lat="45.8599240" lon="9.2092680">
	<ele>1215.20</ele>
	<time>2025-02-15T10:08:44.000Z</time>
</trkpt>
<trkpt lat="45.8599240" lon="9.2092680">
	<ele>1215.20</ele>
	<time>2025-02-15T10:08:45.000Z</time>
</trkpt>
<trkpt lat="45.8599240" lon="9.2092680">
	<ele>1215.20</ele>
	<time>2025-02-15T10:08:46.000Z</time>
</trkpt>
<trkpt lat="45.8599240" lon="9.2092680">
	<ele>1215.20</ele>
	<time>2025-02-15T10:08:47.000Z</time>
</trkpt>
<trkpt lat="45.8599240" lon="9.2092680">
	<ele>1215.40</ele>
	<time>2025-02-15T10:08:48.000Z</time>
</trkpt>
<trkpt lat="45.8599230" lon="9.2092670">
	<ele>1215.40</ele>
	<time>2025-02-15T10:08:49.000Z</time>
</trkpt>
<trkpt lat="45.8599230" lon="9.2092670">
	<ele>1215.40</ele>
	<time>2025-02-15T10:08:50.000Z</time>
</trkpt>
<trkpt lat="45.8599230" lon="9.2092670">
	<ele>1215.40</ele>
	<time>2025-02-15T10:08:51.000Z</time>
</trkpt>
<trkpt lat="45.8599230" lon="9.2092660">
	<ele>1215.40</ele>
	<time>2025-02-15T10:08:52.000Z</time>
</trkpt>
<trkpt lat="45.8599230" lon="9.2092660">
	<ele>1215.40</ele>
	<time>2025-02-15T10:08:53.000Z</time>
</trkpt>
<trkpt lat="45.8599230" lon="9.2092650">
	<ele>1215.20</ele>
	<time>2025-02-15T10:08:54.000Z</time>
</trkpt>
<trkpt lat="45.8599230" lon="9.2092650">
	<ele>1215.20</ele>
	<time>2025-02-15T10:08:55.000Z</time>
</trkpt>
<trkpt lat="45.8599230" lon="9.2092620">
	<ele>1215.40</ele>
	<time>2025-02-15T10:08:56.000Z</time>
</trkpt>
<trkpt lat="45.8599230" lon="9.2092620">
	<ele>1215.40</ele>
	<time>2025-02-15T10:08:57.000Z</time>
</trkpt>
<trkpt lat="45.8599230" lon="9.2092610">
	<ele>1215.20</ele>
	<time>2025-02-15T10:08:58.000Z</time>
</trkpt>
<trkpt lat="45.8599230" lon="9.2092610">
	<ele>1215.20</ele>
	<time>2025-02-15T10:08:59.000Z</time>
</trkpt>
<trkpt lat="45.8599230" lon="9.2092600">
	<ele>1215.20</ele>
	<time>2025-02-15T10:09:00.000Z</time>
</trkpt>
<trkpt lat="45.8599230" lon="9.2092600">
	<ele>1215.20</ele>
	<time>2025-02-15T10:09:01.000Z</time>
</trkpt>
<trkpt lat="45.8599230" lon="9.2092600">
	<ele>1215.40</ele>
	<time>2025-02-15T10:09:02.000Z</time>
</trkpt>
<trkpt lat="45.8599230" lon="9.2092580">
	<ele>1215.40</ele>
	<time>2025-02-15T10:09:03.000Z</time>
</trkpt>
<trkpt lat="45.8599230" lon="9.2092580">
	<ele>1215.40</ele>
	<time>2025-02-15T10:09:04.000Z</time>
</trkpt>
<trkpt lat="45.8599230" lon="9.2092570">
	<ele>1215.40</ele>
	<time>2025-02-15T10:09:05.000Z</time>
</trkpt>
<trkpt lat="45.8599230" lon="9.2092570">
	<ele>1215.40</ele>
	<time>2025-02-15T10:09:06.000Z</time>
</trkpt>
<trkpt lat="45.8599230" lon="9.2092560">
	<ele>1215.40</ele>
	<time>2025-02-15T10:09:07.000Z</time>
</trkpt>
<trkpt lat="45.8599220" lon="9.2092550">
	<ele>1215.40</ele>
	<time>2025-02-15T10:09:08.000Z</time>
</trkpt>
<trkpt lat="45.8599220" lon="9.2092550">
	<ele>1215.40</ele>
	<time>2025-02-15T10:09:09.000Z</time>
</trkpt>
<trkpt lat="45.8599220" lon="9.2092540">
	<ele>1215.40</ele>
	<time>2025-02-15T10:09:10.000Z</time>
</trkpt>
<trkpt lat="45.8599210" lon="9.2092530">
	<ele>1215.40</ele>
	<time>2025-02-15T10:09:11.000Z</time>
</trkpt>
<trkpt lat="45.8599210" lon="9.2092500">
	<ele>1215.40</ele>
	<time>2025-02-15T10:09:12.000Z</time>
</trkpt>
<trkpt lat="45.8599210" lon="9.2092480">
	<ele>1215.40</ele>
	<time>2025-02-15T10:09:13.000Z</time>
</trkpt>
<trkpt lat="45.8599200" lon="9.2092460">
	<ele>1215.40</ele>
	<time>2025-02-15T10:09:14.000Z</time>
</trkpt>
<trkpt lat="45.8599200" lon="9.2092450">
	<ele>1215.40</ele>
	<time>2025-02-15T10:09:15.000Z</time>
</trkpt>
<trkpt lat="45.8599200" lon="9.2092440">
	<ele>1215.40</ele>
	<time>2025-02-15T10:09:16.000Z</time>
</trkpt>
<trkpt lat="45.8599190" lon="9.2092440">
	<ele>1215.40</ele>
	<time>2025-02-15T10:09:17.000Z</time>
</trkpt>
<trkpt lat="45.8599190" lon="9.2092430">
	<ele>1215.40</ele>
	<time>2025-02-15T10:09:18.000Z</time>
</trkpt>
<trkpt lat="45.8599160" lon="9.2092420">
	<ele>1215.40</ele>
	<time>2025-02-15T10:09:19.000Z</time>
</trkpt>
<trkpt lat="45.8599120" lon="9.2092410">
	<ele>1215.40</ele>
	<time>2025-02-15T10:09:20.000Z</time>
</trkpt>
<trkpt lat="45.8599080" lon="9.2092410">
	<ele>1215.40</ele>
	<time>2025-02-15T10:09:21.000Z</time>
</trkpt>
<trkpt lat="45.8599050" lon="9.2092410">
	<ele>1215.40</ele>
	<time>2025-02-15T10:09:22.000Z</time>
</trkpt>
<trkpt lat="45.8599030" lon="9.2092410">
	<ele>1215.40</ele>
	<time>2025-02-15T10:09:23.000Z</time>
</trkpt>
<trkpt lat="45.8599030" lon="9.2092400">
	<ele>1215.40</ele>
	<time>2025-02-15T10:09:24.000Z</time>
</trkpt>
<trkpt lat="45.8599020" lon="9.2092400">
	<ele>1215.40</ele>
	<time>2025-02-15T10:09:25.000Z</time>
</trkpt>
<trkpt lat="45.8599010" lon="9.2092400">
	<ele>1215.40</ele>
	<time>2025-02-15T10:09:26.000Z</time>
</trkpt>
<trkpt lat="45.8598990" lon="9.2092400">
	<ele>1215.40</ele>
	<time>2025-02-15T10:09:27.000Z</time>
</trkpt>
<trkpt lat="45.8598970" lon="9.2092400">
	<ele>1215.40</ele>
	<time>2025-02-15T10:09:28.000Z</time>
</trkpt>
<trkpt lat="45.8598970" lon="9.2092390">
	<ele>1215.40</ele>
	<time>2025-02-15T10:09:29.000Z</time>
</trkpt>
<trkpt lat="45.8598960" lon="9.2092390">
	<ele>1215.40</ele>
	<time>2025-02-15T10:09:30.000Z</time>
</trkpt>
<trkpt lat="45.8598960" lon="9.2092390">
	<ele>1215.40</ele>
	<time>2025-02-15T10:09:31.000Z</time>
</trkpt>
<trkpt lat="45.8598960" lon="9.2092390">
	<ele>1215.40</ele>
	<time>2025-02-15T10:09:32.000Z</time>
</trkpt>
<trkpt lat="45.8598960" lon="9.2092380">
	<ele>1215.40</ele>
	<time>2025-02-15T10:09:33.000Z</time>
</trkpt>
<trkpt lat="45.8598960" lon="9.2092380">
	<ele>1215.40</ele>
	<time>2025-02-15T10:09:34.000Z</time>
</trkpt>
<trkpt lat="45.8598960" lon="9.2092380">
	<ele>1215.40</ele>
	<time>2025-02-15T10:09:35.000Z</time>
</trkpt>
<trkpt lat="45.8598960" lon="9.2092380">
	<ele>1215.40</ele>
	<time>2025-02-15T10:09:36.000Z</time>
</trkpt>
<trkpt lat="45.8598960" lon="9.2092370">
	<ele>1215.40</ele>
	<time>2025-02-15T10:09:37.000Z</time>
</trkpt>
<trkpt lat="45.8598960" lon="9.2092370">
	<ele>1215.40</ele>
	<time>2025-02-15T10:09:38.000Z</time>
</trkpt>
<trkpt lat="45.8598960" lon="9.2092370">
	<ele>1215.40</ele>
	<time>2025-02-15T10:09:39.000Z</time>
</trkpt>
<trkpt lat="45.8598960" lon="9.2092370">
	<ele>1215.40</ele>
	<time>2025-02-15T10:09:40.000Z</time>
</trkpt>
<trkpt lat="45.8598960" lon="9.2092370">
	<ele>1215.40</ele>
	<time>2025-02-15T10:09:41.000Z</time>
</trkpt>
<trkpt lat="45.8598960" lon="9.2092360">
	<ele>1215.40</ele>
	<time>2025-02-15T10:09:42.000Z</time>
</trkpt>
<trkpt lat="45.8598990" lon="9.2092310">
	<ele>1215.40</ele>
	<time>2025-02-15T10:09:43.000Z</time>
</trkpt>
<trkpt lat="45.8599020" lon="9.2092290">
	<ele>1215.40</ele>
	<time>2025-02-15T10:09:44.000Z</time>
</trkpt>
<trkpt lat="45.8599030" lon="9.2092280">
	<ele>1215.40</ele>
	<time>2025-02-15T10:09:45.000Z</time>
</trkpt>
<trkpt lat="45.8599040" lon="9.2092270">
	<ele>1215.40</ele>
	<time>2025-02-15T10:09:46.000Z</time>
</trkpt>
<trkpt lat="45.8599040" lon="9.2092270">
	<ele>1215.40</ele>
	<time>2025-02-15T10:09:47.000Z</time>
</trkpt>
<trkpt lat="45.8599040" lon="9.2092260">
	<ele>1215.40</ele>
	<time>2025-02-15T10:09:48.000Z</time>
</trkpt>
<trkpt lat="45.8599050" lon="9.2092260">
	<ele>1215.40</ele>
	<time>2025-02-15T10:09:49.000Z</time>
</trkpt>
<trkpt lat="45.8599050" lon="9.2092260">
	<ele>1215.40</ele>
	<time>2025-02-15T10:09:50.000Z</time>
</trkpt>
<trkpt lat="45.8599050" lon="9.2092260">
	<ele>1215.40</ele>
	<time>2025-02-15T10:09:51.000Z</time>
</trkpt>
<trkpt lat="45.8599050" lon="9.2092250">
	<ele>1215.40</ele>
	<time>2025-02-15T10:09:52.000Z</time>
</trkpt>
<trkpt lat="45.8599050" lon="9.2092250">
	<ele>1215.40</ele>
	<time>2025-02-15T10:09:53.000Z</time>
</trkpt>
<trkpt lat="45.8599060" lon="9.2092250">
	<ele>1215.40</ele>
	<time>2025-02-15T10:09:54.000Z</time>
</trkpt>
<trkpt lat="45.8599060" lon="9.2092250">
	<ele>1215.40</ele>
	<time>2025-02-15T10:09:55.000Z</time>
</trkpt>
<trkpt lat="45.8599060" lon="9.2092250">
	<ele>1215.40</ele>
	<time>2025-02-15T10:09:56.000Z</time>
</trkpt>
<trkpt lat="45.8599060" lon="9.2092240">
	<ele>1215.40</ele>
	<time>2025-02-15T10:09:57.000Z</time>
</trkpt>
<trkpt lat="45.8599060" lon="9.2092240">
	<ele>1215.40</ele>
	<time>2025-02-15T10:09:58.000Z</time>
</trkpt>
<trkpt lat="45.8599090" lon="9.2092240">
	<ele>1215.40</ele>
	<time>2025-02-15T10:09:59.000Z</time>
</trkpt>
<trkpt lat="45.8599110" lon="9.2092240">
	<ele>1215.40</ele>
	<time>2025-02-15T10:10:00.000Z</time>
</trkpt>
<trkpt lat="45.8599120" lon="9.2092240">
	<ele>1215.40</ele>
	<time>2025-02-15T10:10:01.000Z</time>
</trkpt>
<trkpt lat="45.8599130" lon="9.2092240">
	<ele>1215.40</ele>
	<time>2025-02-15T10:10:02.000Z</time>
</trkpt>
<trkpt lat="45.8599130" lon="9.2092230">
	<ele>1215.40</ele>
	<time>2025-02-15T10:10:03.000Z</time>
</trkpt>
<trkpt lat="45.8599130" lon="9.2092230">
	<ele>1215.40</ele>
	<time>2025-02-15T10:10:04.000Z</time>
</trkpt>
<trkpt lat="45.8599130" lon="9.2092230">
	<ele>1215.40</ele>
	<time>2025-02-15T10:10:05.000Z</time>
</trkpt>
<trkpt lat="45.8599130" lon="9.2092230">
	<ele>1215.40</ele>
	<time>2025-02-15T10:10:06.000Z</time>
</trkpt>
<trkpt lat="45.8599130" lon="9.2092220">
	<ele>1215.40</ele>
	<time>2025-02-15T10:10:07.000Z</time>
</trkpt>
<trkpt lat="45.8599130" lon="9.2092220">
	<ele>1215.40</ele>
	<time>2025-02-15T10:10:08.000Z</time>
</trkpt>
<trkpt lat="45.8599130" lon="9.2092220">
	<ele>1215.40</ele>
	<time>2025-02-15T10:10:09.000Z</time>
</trkpt>
<trkpt lat="45.8599130" lon="9.2092220">
	<ele>1215.40</ele>
	<time>2025-02-15T10:10:10.000Z</time>
</trkpt>
<trkpt lat="45.8599130" lon="9.2092220">
	<ele>1215.40</ele>
	<time>2025-02-15T10:10:11.000Z</time>
</trkpt>
<trkpt lat="45.8599130" lon="9.2092210">
	<ele>1215.40</ele>
	<time>2025-02-15T10:10:12.000Z</time>
</trkpt>
<trkpt lat="45.8599130" lon="9.2092200">
	<ele>1215.40</ele>
	<time>2025-02-15T10:10:13.000Z</time>
</trkpt>
<trkpt lat="45.8599130" lon="9.2092170">
	<ele>1215.40</ele>
	<time>2025-02-15T10:10:14.000Z</time>
</trkpt>
<trkpt lat="45.8599130" lon="9.2092150">
	<ele>1215.40</ele>
	<time>2025-02-15T10:10:15.000Z</time>
</trkpt>
<trkpt lat="45.8599130" lon="9.2092110">
	<ele>1215.40</ele>
	<time>2025-02-15T10:10:16.000Z</time>
</trkpt>
<trkpt lat="45.8599110" lon="9.2092060">
	<ele>1215.40</ele>
	<time>2025-02-15T10:10:17.000Z</time>
</trkpt>
<trkpt lat="45.8599090" lon="9.2092020">
	<ele>1215.40</ele>
	<time>2025-02-15T10:10:18.000Z</time>
</trkpt>
<trkpt lat="45.8599080" lon="9.2091970">
	<ele>1215.40</ele>
	<time>2025-02-15T10:10:19.000Z</time>
</trkpt>
<trkpt lat="45.8599080" lon="9.2091930">
	<ele>1215.40</ele>
	<time>2025-02-15T10:10:20.000Z</time>
</trkpt>
<trkpt lat="45.8599080" lon="9.2091910">
	<ele>1215.40</ele>
	<time>2025-02-15T10:10:21.000Z</time>
</trkpt>
<trkpt lat="45.8599070" lon="9.2091880">
	<ele>1215.40</ele>
	<time>2025-02-15T10:10:22.000Z</time>
</trkpt>
<trkpt lat="45.8599070" lon="9.2091860">
	<ele>1215.40</ele>
	<time>2025-02-15T10:10:23.000Z</time>
</trkpt>
<trkpt lat="45.8599070" lon="9.2091820">
	<ele>1215.40</ele>
	<time>2025-02-15T10:10:24.000Z</time>
</trkpt>
<trkpt lat="45.8599070" lon="9.2091750">
	<ele>1215.40</ele>
	<time>2025-02-15T10:10:25.000Z</time>
</trkpt>
<trkpt lat="45.8599070" lon="9.2091680">
	<ele>1215.40</ele>
	<time>2025-02-15T10:10:26.000Z</time>
</trkpt>
<trkpt lat="45.8599070" lon="9.2091590">
	<ele>1215.40</ele>
	<time>2025-02-15T10:10:27.000Z</time>
</trkpt>
<trkpt lat="45.8599070" lon="9.2091480">
	<ele>1215.40</ele>
	<time>2025-02-15T10:10:28.000Z</time>
</trkpt>
<trkpt lat="45.8599070" lon="9.2091400">
	<ele>1215.40</ele>
	<time>2025-02-15T10:10:29.000Z</time>
</trkpt>
<trkpt lat="45.8599070" lon="9.2091350">
	<ele>1215.40</ele>
	<time>2025-02-15T10:10:30.000Z</time>
</trkpt>
<trkpt lat="45.8599070" lon="9.2091310">
	<ele>1215.40</ele>
	<time>2025-02-15T10:10:31.000Z</time>
</trkpt>
<trkpt lat="45.8599070" lon="9.2091290">
	<ele>1215.40</ele>
	<time>2025-02-15T10:10:32.000Z</time>
</trkpt>
<trkpt lat="45.8599070" lon="9.2091270">
	<ele>1215.40</ele>
	<time>2025-02-15T10:10:33.000Z</time>
</trkpt>
<trkpt lat="45.8599070" lon="9.2091250">
	<ele>1215.40</ele>
	<time>2025-02-15T10:10:34.000Z</time>
</trkpt>
<trkpt lat="45.8599090" lon="9.2091240">
	<ele>1215.40</ele>
	<time>2025-02-15T10:10:35.000Z</time>
</trkpt>
<trkpt lat="45.8599100" lon="9.2091220">
	<ele>1215.40</ele>
	<time>2025-02-15T10:10:36.000Z</time>
</trkpt>
<trkpt lat="45.8599120" lon="9.2091210">
	<ele>1215.40</ele>
	<time>2025-02-15T10:10:37.000Z</time>
</trkpt>
<trkpt lat="45.8599130" lon="9.2091200">
	<ele>1215.40</ele>
	<time>2025-02-15T10:10:38.000Z</time>
</trkpt>
<trkpt lat="45.8599140" lon="9.2091190">
	<ele>1215.40</ele>
	<time>2025-02-15T10:10:39.000Z</time>
</trkpt>
<trkpt lat="45.8599160" lon="9.2091190">
	<ele>1215.40</ele>
	<time>2025-02-15T10:10:40.000Z</time>
</trkpt>
<trkpt lat="45.8599160" lon="9.2091180">
	<ele>1215.40</ele>
	<time>2025-02-15T10:10:41.000Z</time>
</trkpt>
<trkpt lat="45.8599170" lon="9.2091170">
	<ele>1215.40</ele>
	<time>2025-02-15T10:10:42.000Z</time>
</trkpt>
<trkpt lat="45.8599180" lon="9.2091170">
	<ele>1215.40</ele>
	<time>2025-02-15T10:10:43.000Z</time>
</trkpt>
<trkpt lat="45.8599180" lon="9.2091160">
	<ele>1215.40</ele>
	<time>2025-02-15T10:10:44.000Z</time>
</trkpt>
<trkpt lat="45.8599190" lon="9.2091160">
	<ele>1215.40</ele>
	<time>2025-02-15T10:10:45.000Z</time>
</trkpt>
<trkpt lat="45.8599190" lon="9.2091150">
	<ele>1215.40</ele>
	<time>2025-02-15T10:10:46.000Z</time>
</trkpt>
<trkpt lat="45.8599200" lon="9.2091140">
	<ele>1215.40</ele>
	<time>2025-02-15T10:10:47.000Z</time>
</trkpt>
<trkpt lat="45.8599200" lon="9.2091130">
	<ele>1215.40</ele>
	<time>2025-02-15T10:10:48.000Z</time>
</trkpt>
<trkpt lat="45.8599210" lon="9.2091120">
	<ele>1215.40</ele>
	<time>2025-02-15T10:10:49.000Z</time>
</trkpt>
<trkpt lat="45.8599210" lon="9.2091110">
	<ele>1215.40</ele>
	<time>2025-02-15T10:10:50.000Z</time>
</trkpt>
<trkpt lat="45.8599200" lon="9.2091010">
	<ele>1215.40</ele>
	<time>2025-02-15T10:10:51.000Z</time>
</trkpt>
<trkpt lat="45.8599160" lon="9.2090690">
	<ele>1215.40</ele>
	<time>2025-02-15T10:10:52.000Z</time>
</trkpt>
<trkpt lat="45.8599150" lon="9.2090370">
	<ele>1215.40</ele>
	<time>2025-02-15T10:10:53.000Z</time>
</trkpt>
<trkpt lat="45.8599160" lon="9.2090040">
	<ele>1215.40</ele>
	<time>2025-02-15T10:10:54.000Z</time>
</trkpt>
<trkpt lat="45.8599150" lon="9.2089860">
	<ele>1215.40</ele>
	<time>2025-02-15T10:10:55.000Z</time>
</trkpt>
<trkpt lat="45.8599110" lon="9.2089570">
	<ele>1215.40</ele>
	<time>2025-02-15T10:10:56.000Z</time>
</trkpt>
<trkpt lat="45.8599060" lon="9.2089270">
	<ele>1215.40</ele>
	<time>2025-02-15T10:10:57.000Z</time>
</trkpt>
<trkpt lat="45.8599070" lon="9.2089090">
	<ele>1215.40</ele>
	<time>2025-02-15T10:10:58.000Z</time>
</trkpt>
<trkpt lat="45.8599060" lon="9.2088980">
	<ele>1215.40</ele>
	<time>2025-02-15T10:10:59.000Z</time>
</trkpt>
<trkpt lat="45.8599050" lon="9.2088830">
	<ele>1215.40</ele>
	<time>2025-02-15T10:11:00.000Z</time>
</trkpt>
<trkpt lat="45.8599060" lon="9.2088760">
	<ele>1215.40</ele>
	<time>2025-02-15T10:11:01.000Z</time>
</trkpt>
<trkpt lat="45.8599070" lon="9.2088730">
	<ele>1214.00</ele>
	<time>2025-02-15T10:11:02.000Z</time>
</trkpt>
<trkpt lat="45.8599060" lon="9.2088660">
	<ele>1213.00</ele>
	<time>2025-02-15T10:11:03.000Z</time>
</trkpt>
<trkpt lat="45.8599060" lon="9.2088620">
	<ele>1212.20</ele>
	<time>2025-02-15T10:11:04.000Z</time>
</trkpt>
<trkpt lat="45.8599090" lon="9.2088580">
	<ele>1212.00</ele>
	<time>2025-02-15T10:11:05.000Z</time>
</trkpt>
<trkpt lat="45.8599070" lon="9.2088480">
	<ele>1211.80</ele>
	<time>2025-02-15T10:11:06.000Z</time>
</trkpt>
<trkpt lat="45.8599040" lon="9.2088350">
	<ele>1211.60</ele>
	<time>2025-02-15T10:11:07.000Z</time>
</trkpt>
<trkpt lat="45.8599010" lon="9.2088150">
	<ele>1211.60</ele>
	<time>2025-02-15T10:11:08.000Z</time>
</trkpt>
<trkpt lat="45.8598820" lon="9.2087840">
	<ele>1211.60</ele>
	<time>2025-02-15T10:11:09.000Z</time>
</trkpt>
<trkpt lat="45.8598820" lon="9.2087750">
	<ele>1211.40</ele>
	<time>2025-02-15T10:11:10.000Z</time>
</trkpt>
<trkpt lat="45.8598820" lon="9.2087700">
	<ele>1211.20</ele>
	<time>2025-02-15T10:11:11.000Z</time>
</trkpt>
<trkpt lat="45.8598810" lon="9.2087670">
	<ele>1211.20</ele>
	<time>2025-02-15T10:11:12.000Z</time>
</trkpt>
<trkpt lat="45.8598830" lon="9.2087560">
	<ele>1211.20</ele>
	<time>2025-02-15T10:11:13.000Z</time>
</trkpt>
<trkpt lat="45.8598850" lon="9.2087430">
	<ele>1211.00</ele>
	<time>2025-02-15T10:11:14.000Z</time>
</trkpt>
<trkpt lat="45.8598860" lon="9.2087400">
	<ele>1210.80</ele>
	<time>2025-02-15T10:11:15.000Z</time>
</trkpt>
<trkpt lat="45.8598890" lon="9.2087290">
	<ele>1210.60</ele>
	<time>2025-02-15T10:11:16.000Z</time>
</trkpt>
<trkpt lat="45.8598920" lon="9.2087090">
	<ele>1210.60</ele>
	<time>2025-02-15T10:11:17.000Z</time>
</trkpt>
<trkpt lat="45.8598900" lon="9.2086930">
	<ele>1210.40</ele>
	<time>2025-02-15T10:11:18.000Z</time>
</trkpt>
<trkpt lat="45.8598900" lon="9.2086890">
	<ele>1210.40</ele>
	<time>2025-02-15T10:11:19.000Z</time>
</trkpt>
<trkpt lat="45.8598870" lon="9.2086700">
	<ele>1210.40</ele>
	<time>2025-02-15T10:11:20.000Z</time>
</trkpt>
<trkpt lat="45.8598890" lon="9.2086530">
	<ele>1210.40</ele>
	<time>2025-02-15T10:11:21.000Z</time>
</trkpt>
<trkpt lat="45.8598880" lon="9.2086460">
	<ele>1210.40</ele>
	<time>2025-02-15T10:11:22.000Z</time>
</trkpt>
<trkpt lat="45.8598860" lon="9.2086400">
	<ele>1210.40</ele>
	<time>2025-02-15T10:11:23.000Z</time>
</trkpt>
<trkpt lat="45.8598850" lon="9.2086300">
	<ele>1210.40</ele>
	<time>2025-02-15T10:11:24.000Z</time>
</trkpt>
<trkpt lat="45.8598840" lon="9.2086240">
	<ele>1210.00</ele>
	<time>2025-02-15T10:11:25.000Z</time>
</trkpt>
<trkpt lat="45.8598840" lon="9.2086210">
	<ele>1210.00</ele>
	<time>2025-02-15T10:11:26.000Z</time>
</trkpt>
<trkpt lat="45.8598780" lon="9.2086000">
	<ele>1209.80</ele>
	<time>2025-02-15T10:11:27.000Z</time>
</trkpt>
<trkpt lat="45.8598830" lon="9.2085670">
	<ele>1209.60</ele>
	<time>2025-02-15T10:11:28.000Z</time>
</trkpt>
<trkpt lat="45.8598880" lon="9.2085510">
	<ele>1209.60</ele>
	<time>2025-02-15T10:11:29.000Z</time>
</trkpt>
<trkpt lat="45.8598870" lon="9.2085460">
	<ele>1209.60</ele>
	<time>2025-02-15T10:11:30.000Z</time>
</trkpt>
<trkpt lat="45.8598890" lon="9.2085370">
	<ele>1209.60</ele>
	<time>2025-02-15T10:11:31.000Z</time>
</trkpt>
<trkpt lat="45.8598910" lon="9.2085310">
	<ele>1209.40</ele>
	<time>2025-02-15T10:11:32.000Z</time>
</trkpt>
<trkpt lat="45.8598770" lon="9.2085280">
	<ele>1209.40</ele>
	<time>2025-02-15T10:11:33.000Z</time>
</trkpt>
<trkpt lat="45.8598700" lon="9.2085170">
	<ele>1209.40</ele>
	<time>2025-02-15T10:11:34.000Z</time>
</trkpt>
<trkpt lat="45.8598680" lon="9.2085130">
	<ele>1209.20</ele>
	<time>2025-02-15T10:11:35.000Z</time>
</trkpt>
<trkpt lat="45.8598640" lon="9.2085010">
	<ele>1209.00</ele>
	<time>2025-02-15T10:11:36.000Z</time>
</trkpt>
<trkpt lat="45.8598620" lon="9.2084910">
	<ele>1209.00</ele>
	<time>2025-02-15T10:11:37.000Z</time>
</trkpt>
<trkpt lat="45.8598590" lon="9.2084880">
	<ele>1208.80</ele>
	<time>2025-02-15T10:11:38.000Z</time>
</trkpt>
<trkpt lat="45.8598580" lon="9.2084830">
	<ele>1208.80</ele>
	<time>2025-02-15T10:11:39.000Z</time>
</trkpt>
<trkpt lat="45.8598500" lon="9.2084720">
	<ele>1208.60</ele>
	<time>2025-02-15T10:11:40.000Z</time>
</trkpt>
<trkpt lat="45.8598390" lon="9.2084560">
	<ele>1208.60</ele>
	<time>2025-02-15T10:11:41.000Z</time>
</trkpt>
<trkpt lat="45.8598330" lon="9.2084400">
	<ele>1208.40</ele>
	<time>2025-02-15T10:11:42.000Z</time>
</trkpt>
<trkpt lat="45.8598320" lon="9.2084210">
	<ele>1208.40</ele>
	<time>2025-02-15T10:11:43.000Z</time>
</trkpt>
<trkpt lat="45.8598350" lon="9.2084100">
	<ele>1208.20</ele>
	<time>2025-02-15T10:11:44.000Z</time>
</trkpt>
<trkpt lat="45.8598380" lon="9.2083990">
	<ele>1208.20</ele>
	<time>2025-02-15T10:11:45.000Z</time>
</trkpt>
<trkpt lat="45.8598380" lon="9.2083920">
	<ele>1208.00</ele>
	<time>2025-02-15T10:11:46.000Z</time>
</trkpt>
<trkpt lat="45.8598360" lon="9.2083790">
	<ele>1208.00</ele>
	<time>2025-02-15T10:11:47.000Z</time>
</trkpt>
<trkpt lat="45.8598370" lon="9.2083630">
	<ele>1208.00</ele>
	<time>2025-02-15T10:11:48.000Z</time>
</trkpt>
<trkpt lat="45.8598380" lon="9.2083480">
	<ele>1207.80</ele>
	<time>2025-02-15T10:11:49.000Z</time>
</trkpt>
<trkpt lat="45.8598360" lon="9.2083290">
	<ele>1207.80</ele>
	<time>2025-02-15T10:11:50.000Z</time>
</trkpt>
<trkpt lat="45.8598370" lon="9.2083180">
	<ele>1207.80</ele>
	<time>2025-02-15T10:11:51.000Z</time>
</trkpt>
<trkpt lat="45.8598380" lon="9.2083020">
	<ele>1207.80</ele>
	<time>2025-02-15T10:11:52.000Z</time>
</trkpt>
<trkpt lat="45.8598310" lon="9.2082870">
	<ele>1207.60</ele>
	<time>2025-02-15T10:11:53.000Z</time>
</trkpt>
<trkpt lat="45.8598280" lon="9.2082770">
	<ele>1207.60</ele>
	<time>2025-02-15T10:11:54.000Z</time>
</trkpt>
<trkpt lat="45.8598310" lon="9.2082660">
	<ele>1207.80</ele>
	<time>2025-02-15T10:11:55.000Z</time>
</trkpt>
<trkpt lat="45.8598300" lon="9.2082600">
	<ele>1207.80</ele>
	<time>2025-02-15T10:11:56.000Z</time>
</trkpt>
<trkpt lat="45.8598280" lon="9.2082530">
	<ele>1207.80</ele>
	<time>2025-02-15T10:11:57.000Z</time>
</trkpt>
<trkpt lat="45.8598270" lon="9.2082490">
	<ele>1207.80</ele>
	<time>2025-02-15T10:11:58.000Z</time>
</trkpt>
<trkpt lat="45.8598260" lon="9.2082480">
	<ele>1207.60</ele>
	<time>2025-02-15T10:11:59.000Z</time>
</trkpt>
<trkpt lat="45.8598240" lon="9.2082450">
	<ele>1207.60</ele>
	<time>2025-02-15T10:12:00.000Z</time>
</trkpt>
<trkpt lat="45.8598200" lon="9.2082390">
	<ele>1207.20</ele>
	<time>2025-02-15T10:12:01.000Z</time>
</trkpt>
<trkpt lat="45.8598130" lon="9.2082260">
	<ele>1207.00</ele>
	<time>2025-02-15T10:12:02.000Z</time>
</trkpt>
<trkpt lat="45.8598100" lon="9.2082170">
	<ele>1206.80</ele>
	<time>2025-02-15T10:12:03.000Z</time>
</trkpt>
<trkpt lat="45.8598040" lon="9.2082050">
	<ele>1206.60</ele>
	<time>2025-02-15T10:12:04.000Z</time>
</trkpt>
<trkpt lat="45.8598040" lon="9.2082010">
	<ele>1206.60</ele>
	<time>2025-02-15T10:12:05.000Z</time>
</trkpt>
<trkpt lat="45.8598050" lon="9.2081950">
	<ele>1206.60</ele>
	<time>2025-02-15T10:12:06.000Z</time>
</trkpt>
<trkpt lat="45.8598020" lon="9.2081780">
	<ele>1206.40</ele>
	<time>2025-02-15T10:12:07.000Z</time>
</trkpt>
<trkpt lat="45.8598020" lon="9.2081620">
	<ele>1206.20</ele>
	<time>2025-02-15T10:12:08.000Z</time>
</trkpt>
<trkpt lat="45.8598010" lon="9.2081520">
	<ele>1206.20</ele>
	<time>2025-02-15T10:12:09.000Z</time>
</trkpt>
<trkpt lat="45.8598000" lon="9.2081410">
	<ele>1206.20</ele>
	<time>2025-02-15T10:12:10.000Z</time>
</trkpt>
<trkpt lat="45.8598000" lon="9.2081300">
	<ele>1206.20</ele>
	<time>2025-02-15T10:12:11.000Z</time>
</trkpt>
<trkpt lat="45.8597990" lon="9.2081260">
	<ele>1206.20</ele>
	<time>2025-02-15T10:12:12.000Z</time>
</trkpt>
<trkpt lat="45.8598010" lon="9.2081140">
	<ele>1206.00</ele>
	<time>2025-02-15T10:12:13.000Z</time>
</trkpt>
<trkpt lat="45.8598010" lon="9.2081120">
	<ele>1206.00</ele>
	<time>2025-02-15T10:12:14.000Z</time>
</trkpt>
<trkpt lat="45.8598000" lon="9.2080940">
	<ele>1205.80</ele>
	<time>2025-02-15T10:12:15.000Z</time>
</trkpt>
<trkpt lat="45.8598000" lon="9.2080900">
	<ele>1205.60</ele>
	<time>2025-02-15T10:12:16.000Z</time>
</trkpt>
<trkpt lat="45.8598010" lon="9.2080870">
	<ele>1205.20</ele>
	<time>2025-02-15T10:12:17.000Z</time>
</trkpt>
<trkpt lat="45.8598040" lon="9.2080830">
	<ele>1205.00</ele>
	<time>2025-02-15T10:12:18.000Z</time>
</trkpt>
<trkpt lat="45.8598050" lon="9.2080770">
	<ele>1204.80</ele>
	<time>2025-02-15T10:12:19.000Z</time>
</trkpt>
<trkpt lat="45.8598000" lon="9.2080630">
	<ele>1204.60</ele>
	<time>2025-02-15T10:12:20.000Z</time>
</trkpt>
<trkpt lat="45.8597970" lon="9.2080550">
	<ele>1204.60</ele>
	<time>2025-02-15T10:12:21.000Z</time>
</trkpt>
<trkpt lat="45.8597960" lon="9.2080420">
	<ele>1204.40</ele>
	<time>2025-02-15T10:12:22.000Z</time>
</trkpt>
<trkpt lat="45.8597950" lon="9.2080240">
	<ele>1204.00</ele>
	<time>2025-02-15T10:12:23.000Z</time>
</trkpt>
<trkpt lat="45.8597940" lon="9.2080040">
	<ele>1204.00</ele>
	<time>2025-02-15T10:12:24.000Z</time>
</trkpt>
<trkpt lat="45.8597950" lon="9.2079980">
	<ele>1203.80</ele>
	<time>2025-02-15T10:12:25.000Z</time>
</trkpt>
<trkpt lat="45.8597890" lon="9.2079810">
	<ele>1203.80</ele>
	<time>2025-02-15T10:12:26.000Z</time>
</trkpt>
<trkpt lat="45.8597880" lon="9.2079690">
	<ele>1203.80</ele>
	<time>2025-02-15T10:12:27.000Z</time>
</trkpt>
<trkpt lat="45.8597870" lon="9.2079650">
	<ele>1203.60</ele>
	<time>2025-02-15T10:12:28.000Z</time>
</trkpt>
<trkpt lat="45.8597850" lon="9.2079600">
	<ele>1203.40</ele>
	<time>2025-02-15T10:12:29.000Z</time>
</trkpt>
<trkpt lat="45.8597840" lon="9.2079500">
	<ele>1203.40</ele>
	<time>2025-02-15T10:12:30.000Z</time>
</trkpt>
<trkpt lat="45.8597850" lon="9.2079340">
	<ele>1203.40</ele>
	<time>2025-02-15T10:12:31.000Z</time>
</trkpt>
<trkpt lat="45.8597800" lon="9.2079020">
	<ele>1203.00</ele>
	<time>2025-02-15T10:12:32.000Z</time>
</trkpt>
<trkpt lat="45.8597740" lon="9.2078760">
	<ele>1202.80</ele>
	<time>2025-02-15T10:12:33.000Z</time>
</trkpt>
<trkpt lat="45.8597710" lon="9.2078540">
	<ele>1202.60</ele>
	<time>2025-02-15T10:12:34.000Z</time>
</trkpt>
<trkpt lat="45.8597680" lon="9.2078330">
	<ele>1202.60</ele>
	<time>2025-02-15T10:12:35.000Z</time>
</trkpt>
<trkpt lat="45.8597600" lon="9.2078120">
	<ele>1202.60</ele>
	<time>2025-02-15T10:12:36.000Z</time>
</trkpt>
<trkpt lat="45.8597560" lon="9.2077930">
	<ele>1202.60</ele>
	<time>2025-02-15T10:12:37.000Z</time>
</trkpt>
<trkpt lat="45.8597570" lon="9.2077820">
	<ele>1202.60</ele>
	<time>2025-02-15T10:12:38.000Z</time>
</trkpt>
<trkpt lat="45.8597640" lon="9.2077720">
	<ele>1202.60</ele>
	<time>2025-02-15T10:12:39.000Z</time>
</trkpt>
<trkpt lat="45.8597620" lon="9.2077630">
	<ele>1202.40</ele>
	<time>2025-02-15T10:12:40.000Z</time>
</trkpt>
<trkpt lat="45.8597640" lon="9.2077470">
	<ele>1202.20</ele>
	<time>2025-02-15T10:12:41.000Z</time>
</trkpt>
<trkpt lat="45.8597630" lon="9.2077400">
	<ele>1202.20</ele>
	<time>2025-02-15T10:12:42.000Z</time>
</trkpt>
<trkpt lat="45.8597600" lon="9.2077370">
	<ele>1202.00</ele>
	<time>2025-02-15T10:12:43.000Z</time>
</trkpt>
<trkpt lat="45.8597560" lon="9.2077120">
	<ele>1201.80</ele>
	<time>2025-02-15T10:12:44.000Z</time>
</trkpt>
<trkpt lat="45.8597540" lon="9.2076900">
	<ele>1201.60</ele>
	<time>2025-02-15T10:12:45.000Z</time>
</trkpt>
<trkpt lat="45.8597500" lon="9.2076770">
	<ele>1201.60</ele>
	<time>2025-02-15T10:12:46.000Z</time>
</trkpt>
<trkpt lat="45.8597480" lon="9.2076670">
	<ele>1201.40</ele>
	<time>2025-02-15T10:12:47.000Z</time>
</trkpt>
<trkpt lat="45.8597470" lon="9.2076540">
	<ele>1201.40</ele>
	<time>2025-02-15T10:12:48.000Z</time>
</trkpt>
<trkpt lat="45.8597530" lon="9.2076430">
	<ele>1201.20</ele>
	<time>2025-02-15T10:12:49.000Z</time>
</trkpt>
<trkpt lat="45.8597610" lon="9.2076210">
	<ele>1201.20</ele>
	<time>2025-02-15T10:12:50.000Z</time>
</trkpt>
<trkpt lat="45.8597610" lon="9.2075930">
	<ele>1201.20</ele>
	<time>2025-02-15T10:12:51.000Z</time>
</trkpt>
<trkpt lat="45.8597630" lon="9.2075680">
	<ele>1201.00</ele>
	<time>2025-02-15T10:12:52.000Z</time>
</trkpt>
<trkpt lat="45.8597630" lon="9.2075610">
	<ele>1201.00</ele>
	<time>2025-02-15T10:12:53.000Z</time>
</trkpt>
<trkpt lat="45.8597520" lon="9.2075660">
	<ele>1200.80</ele>
	<time>2025-02-15T10:12:54.000Z</time>
</trkpt>
<trkpt lat="45.8597420" lon="9.2075630">
	<ele>1200.60</ele>
	<time>2025-02-15T10:12:55.000Z</time>
</trkpt>
<trkpt lat="45.8597340" lon="9.2075560">
	<ele>1200.40</ele>
	<time>2025-02-15T10:12:56.000Z</time>
</trkpt>
<trkpt lat="45.8597290" lon="9.2075420">
	<ele>1200.20</ele>
	<time>2025-02-15T10:12:57.000Z</time>
</trkpt>
<trkpt lat="45.8597180" lon="9.2075210">
	<ele>1199.80</ele>
	<time>2025-02-15T10:12:58.000Z</time>
</trkpt>
<trkpt lat="45.8597120" lon="9.2075020">
	<ele>1199.60</ele>
	<time>2025-02-15T10:12:59.000Z</time>
</trkpt>
<trkpt lat="45.8597060" lon="9.2074840">
	<ele>1199.40</ele>
	<time>2025-02-15T10:13:00.000Z</time>
</trkpt>
<trkpt lat="45.8596980" lon="9.2074690">
	<ele>1199.20</ele>
	<time>2025-02-15T10:13:01.000Z</time>
</trkpt>
<trkpt lat="45.8596990" lon="9.2074570">
	<ele>1199.00</ele>
	<time>2025-02-15T10:13:02.000Z</time>
</trkpt>
<trkpt lat="45.8596990" lon="9.2074510">
	<ele>1199.00</ele>
	<time>2025-02-15T10:13:03.000Z</time>
</trkpt>
<trkpt lat="45.8597060" lon="9.2074370">
	<ele>1198.80</ele>
	<time>2025-02-15T10:13:04.000Z</time>
</trkpt>
<trkpt lat="45.8597060" lon="9.2074160">
	<ele>1198.80</ele>
	<time>2025-02-15T10:13:05.000Z</time>
</trkpt>
<trkpt lat="45.8597000" lon="9.2073980">
	<ele>1198.60</ele>
	<time>2025-02-15T10:13:06.000Z</time>
</trkpt>
<trkpt lat="45.8596950" lon="9.2073780">
	<ele>1198.60</ele>
	<time>2025-02-15T10:13:07.000Z</time>
</trkpt>
<trkpt lat="45.8597010" lon="9.2073650">
	<ele>1198.60</ele>
	<time>2025-02-15T10:13:08.000Z</time>
</trkpt>
<trkpt lat="45.8597040" lon="9.2073570">
	<ele>1198.40</ele>
	<time>2025-02-15T10:13:09.000Z</time>
</trkpt>
<trkpt lat="45.8596980" lon="9.2073340">
	<ele>1198.20</ele>
	<time>2025-02-15T10:13:10.000Z</time>
</trkpt>
<trkpt lat="45.8597020" lon="9.2073190">
	<ele>1198.20</ele>
	<time>2025-02-15T10:13:11.000Z</time>
</trkpt>
<trkpt lat="45.8597000" lon="9.2073020">
	<ele>1197.80</ele>
	<time>2025-02-15T10:13:12.000Z</time>
</trkpt>
<trkpt lat="45.8596930" lon="9.2072930">
	<ele>1197.80</ele>
	<time>2025-02-15T10:13:13.000Z</time>
</trkpt>
<trkpt lat="45.8596870" lon="9.2072830">
	<ele>1197.60</ele>
	<time>2025-02-15T10:13:14.000Z</time>
</trkpt>
<trkpt lat="45.8596830" lon="9.2072650">
	<ele>1197.40</ele>
	<time>2025-02-15T10:13:15.000Z</time>
</trkpt>
<trkpt lat="45.8596750" lon="9.2072540">
	<ele>1197.20</ele>
	<time>2025-02-15T10:13:16.000Z</time>
</trkpt>
<trkpt lat="45.8596680" lon="9.2072430">
	<ele>1197.00</ele>
	<time>2025-02-15T10:13:17.000Z</time>
</trkpt>
<trkpt lat="45.8596600" lon="9.2072340">
	<ele>1196.80</ele>
	<time>2025-02-15T10:13:18.000Z</time>
</trkpt>
<trkpt lat="45.8596530" lon="9.2072290">
	<ele>1196.60</ele>
	<time>2025-02-15T10:13:19.000Z</time>
</trkpt>
<trkpt lat="45.8596480" lon="9.2072210">
	<ele>1196.60</ele>
	<time>2025-02-15T10:13:20.000Z</time>
</trkpt>
<trkpt lat="45.8596460" lon="9.2072090">
	<ele>1196.40</ele>
	<time>2025-02-15T10:13:21.000Z</time>
</trkpt>
<trkpt lat="45.8596420" lon="9.2071960">
	<ele>1196.40</ele>
	<time>2025-02-15T10:13:22.000Z</time>
</trkpt>
<trkpt lat="45.8596380" lon="9.2071930">
	<ele>1196.00</ele>
	<time>2025-02-15T10:13:23.000Z</time>
</trkpt>
<trkpt lat="45.8596350" lon="9.2071880">
	<ele>1195.80</ele>
	<time>2025-02-15T10:13:24.000Z</time>
</trkpt>
<trkpt lat="45.8596320" lon="9.2071740">
	<ele>1195.60</ele>
	<time>2025-02-15T10:13:25.000Z</time>
</trkpt>
<trkpt lat="45.8596250" lon="9.2071590">
	<ele>1195.40</ele>
	<time>2025-02-15T10:13:26.000Z</time>
</trkpt>
<trkpt lat="45.8596230" lon="9.2071390">
	<ele>1195.40</ele>
	<time>2025-02-15T10:13:27.000Z</time>
</trkpt>
<trkpt lat="45.8596150" lon="9.2071200">
	<ele>1195.20</ele>
	<time>2025-02-15T10:13:28.000Z</time>
</trkpt>
<trkpt lat="45.8596100" lon="9.2071110">
	<ele>1195.00</ele>
	<time>2025-02-15T10:13:29.000Z</time>
</trkpt>
<trkpt lat="45.8596030" lon="9.2070950">
	<ele>1195.00</ele>
	<time>2025-02-15T10:13:30.000Z</time>
</trkpt>
<trkpt lat="45.8596000" lon="9.2070850">
	<ele>1194.80</ele>
	<time>2025-02-15T10:13:31.000Z</time>
</trkpt>
<trkpt lat="45.8595970" lon="9.2070780">
	<ele>1194.80</ele>
	<time>2025-02-15T10:13:32.000Z</time>
</trkpt>
<trkpt lat="45.8595950" lon="9.2070720">
	<ele>1194.60</ele>
	<time>2025-02-15T10:13:33.000Z</time>
</trkpt>
<trkpt lat="45.8595900" lon="9.2070680">
	<ele>1194.60</ele>
	<time>2025-02-15T10:13:34.000Z</time>
</trkpt>
<trkpt lat="45.8595850" lon="9.2070630">
	<ele>1194.60</ele>
	<time>2025-02-15T10:13:35.000Z</time>
</trkpt>
<trkpt lat="45.8595770" lon="9.2070500">
	<ele>1194.60</ele>
	<time>2025-02-15T10:13:36.000Z</time>
</trkpt>
<trkpt lat="45.8595690" lon="9.2070380">
	<ele>1194.60</ele>
	<time>2025-02-15T10:13:37.000Z</time>
</trkpt>
<trkpt lat="45.8595620" lon="9.2070320">
	<ele>1194.40</ele>
	<time>2025-02-15T10:13:38.000Z</time>
</trkpt>
<trkpt lat="45.8595570" lon="9.2070200">
	<ele>1194.40</ele>
	<time>2025-02-15T10:13:39.000Z</time>
</trkpt>
<trkpt lat="45.8595510" lon="9.2070030">
	<ele>1194.40</ele>
	<time>2025-02-15T10:13:40.000Z</time>
</trkpt>
<trkpt lat="45.8595510" lon="9.2069860">
	<ele>1194.20</ele>
	<time>2025-02-15T10:13:41.000Z</time>
</trkpt>
<trkpt lat="45.8595470" lon="9.2069780">
	<ele>1194.20</ele>
	<time>2025-02-15T10:13:42.000Z</time>
</trkpt>
<trkpt lat="45.8595490" lon="9.2069620">
	<ele>1194.20</ele>
	<time>2025-02-15T10:13:43.000Z</time>
</trkpt>
<trkpt lat="45.8595540" lon="9.2069380">
	<ele>1194.00</ele>
	<time>2025-02-15T10:13:44.000Z</time>
</trkpt>
<trkpt lat="45.8595540" lon="9.2069230">
	<ele>1194.00</ele>
	<time>2025-02-15T10:13:45.000Z</time>
</trkpt>
<trkpt lat="45.8595520" lon="9.2069170">
	<ele>1194.20</ele>
	<time>2025-02-15T10:13:46.000Z</time>
</trkpt>
<trkpt lat="45.8595500" lon="9.2069100">
	<ele>1194.40</ele>
	<time>2025-02-15T10:13:47.000Z</time>
</trkpt>
<trkpt lat="45.8595450" lon="9.2069000">
	<ele>1194.40</ele>
	<time>2025-02-15T10:13:48.000Z</time>
</trkpt>
<trkpt lat="45.8595430" lon="9.2068940">
	<ele>1194.60</ele>
	<time>2025-02-15T10:13:49.000Z</time>
</trkpt>
<trkpt lat="45.8595420" lon="9.2068820">
	<ele>1194.80</ele>
	<time>2025-02-15T10:13:50.000Z</time>
</trkpt>
<trkpt lat="45.8595410" lon="9.2068770">
	<ele>1194.80</ele>
	<time>2025-02-15T10:13:51.000Z</time>
</trkpt>
<trkpt lat="45.8595440" lon="9.2068780">
	<ele>1195.00</ele>
	<time>2025-02-15T10:13:52.000Z</time>
</trkpt>
<trkpt lat="45.8595410" lon="9.2068800">
	<ele>1195.00</ele>
	<time>2025-02-15T10:13:53.000Z</time>
</trkpt>
<trkpt lat="45.8595410" lon="9.2068750">
	<ele>1195.20</ele>
	<time>2025-02-15T10:13:54.000Z</time>
</trkpt>
<trkpt lat="45.8595340" lon="9.2068720">
	<ele>1195.20</ele>
	<time>2025-02-15T10:13:55.000Z</time>
</trkpt>
<trkpt lat="45.8595320" lon="9.2068600">
	<ele>1195.20</ele>
	<time>2025-02-15T10:13:56.000Z</time>
</trkpt>
<trkpt lat="45.8595310" lon="9.2068460">
	<ele>1195.00</ele>
	<time>2025-02-15T10:13:57.000Z</time>
</trkpt>
<trkpt lat="45.8595260" lon="9.2068370">
	<ele>1195.00</ele>
	<time>2025-02-15T10:13:58.000Z</time>
</trkpt>
<trkpt lat="45.8595220" lon="9.2068290">
	<ele>1195.00</ele>
	<time>2025-02-15T10:13:59.000Z</time>
</trkpt>
<trkpt lat="45.8595180" lon="9.2068160">
	<ele>1194.80</ele>
	<time>2025-02-15T10:14:00.000Z</time>
</trkpt>
<trkpt lat="45.8595120" lon="9.2068060">
	<ele>1194.80</ele>
	<time>2025-02-15T10:14:01.000Z</time>
</trkpt>
<trkpt lat="45.8595090" lon="9.2067930">
	<ele>1194.60</ele>
	<time>2025-02-15T10:14:02.000Z</time>
</trkpt>
<trkpt lat="45.8595040" lon="9.2067900">
	<ele>1194.60</ele>
	<time>2025-02-15T10:14:03.000Z</time>
</trkpt>
<trkpt lat="45.8594980" lon="9.2067830">
	<ele>1194.40</ele>
	<time>2025-02-15T10:14:04.000Z</time>
</trkpt>
<trkpt lat="45.8594940" lon="9.2067750">
	<ele>1194.40</ele>
	<time>2025-02-15T10:14:05.000Z</time>
</trkpt>
<trkpt lat="45.8594920" lon="9.2067630">
	<ele>1194.20</ele>
	<time>2025-02-15T10:14:06.000Z</time>
</trkpt>
<trkpt lat="45.8594910" lon="9.2067490">
	<ele>1194.20</ele>
	<time>2025-02-15T10:14:07.000Z</time>
</trkpt>
<trkpt lat="45.8594870" lon="9.2067350">
	<ele>1194.00</ele>
	<time>2025-02-15T10:14:08.000Z</time>
</trkpt>
<trkpt lat="45.8594880" lon="9.2067200">
	<ele>1194.00</ele>
	<time>2025-02-15T10:14:09.000Z</time>
</trkpt>
<trkpt lat="45.8594900" lon="9.2066970">
	<ele>1194.00</ele>
	<time>2025-02-15T10:14:10.000Z</time>
</trkpt>
<trkpt lat="45.8594860" lon="9.2066800">
	<ele>1194.00</ele>
	<time>2025-02-15T10:14:11.000Z</time>
</trkpt>
<trkpt lat="45.8594860" lon="9.2066640">
	<ele>1193.80</ele>
	<time>2025-02-15T10:14:12.000Z</time>
</trkpt>
<trkpt lat="45.8594900" lon="9.2066610">
	<ele>1193.80</ele>
	<time>2025-02-15T10:14:13.000Z</time>
</trkpt>
<trkpt lat="45.8594840" lon="9.2066610">
	<ele>1193.80</ele>
	<time>2025-02-15T10:14:14.000Z</time>
</trkpt>
<trkpt lat="45.8594850" lon="9.2066580">
	<ele>1193.80</ele>
	<time>2025-02-15T10:14:15.000Z</time>
</trkpt>
<trkpt lat="45.8594750" lon="9.2066420">
	<ele>1193.80</ele>
	<time>2025-02-15T10:14:16.000Z</time>
</trkpt>
<trkpt lat="45.8594650" lon="9.2066180">
	<ele>1194.00</ele>
	<time>2025-02-15T10:14:17.000Z</time>
</trkpt>
<trkpt lat="45.8594550" lon="9.2065950">
	<ele>1194.00</ele>
	<time>2025-02-15T10:14:18.000Z</time>
</trkpt>
<trkpt lat="45.8594510" lon="9.2065770">
	<ele>1194.20</ele>
	<time>2025-02-15T10:14:19.000Z</time>
</trkpt>
<trkpt lat="45.8594450" lon="9.2065710">
	<ele>1194.20</ele>
	<time>2025-02-15T10:14:20.000Z</time>
</trkpt>
<trkpt lat="45.8594420" lon="9.2065590">
	<ele>1194.40</ele>
	<time>2025-02-15T10:14:21.000Z</time>
</trkpt>
<trkpt lat="45.8594400" lon="9.2065430">
	<ele>1194.40</ele>
	<time>2025-02-15T10:14:22.000Z</time>
</trkpt>
<trkpt lat="45.8594380" lon="9.2065230">
	<ele>1194.40</ele>
	<time>2025-02-15T10:14:23.000Z</time>
</trkpt>
<trkpt lat="45.8594350" lon="9.2065200">
	<ele>1194.60</ele>
	<time>2025-02-15T10:14:24.000Z</time>
</trkpt>
<trkpt lat="45.8594320" lon="9.2065160">
	<ele>1194.40</ele>
	<time>2025-02-15T10:14:25.000Z</time>
</trkpt>
<trkpt lat="45.8594230" lon="9.2064960">
	<ele>1194.40</ele>
	<time>2025-02-15T10:14:26.000Z</time>
</trkpt>
<trkpt lat="45.8594200" lon="9.2064790">
	<ele>1194.40</ele>
	<time>2025-02-15T10:14:27.000Z</time>
</trkpt>
<trkpt lat="45.8594120" lon="9.2064630">
	<ele>1194.40</ele>
	<time>2025-02-15T10:14:28.000Z</time>
</trkpt>
<trkpt lat="45.8594060" lon="9.2064490">
	<ele>1194.40</ele>
	<time>2025-02-15T10:14:29.000Z</time>
</trkpt>
<trkpt lat="45.8593970" lon="9.2064460">
	<ele>1194.40</ele>
	<time>2025-02-15T10:14:30.000Z</time>
</trkpt>
<trkpt lat="45.8593940" lon="9.2064420">
	<ele>1194.40</ele>
	<time>2025-02-15T10:14:31.000Z</time>
</trkpt>
<trkpt lat="45.8593910" lon="9.2064390">
	<ele>1194.40</ele>
	<time>2025-02-15T10:14:32.000Z</time>
</trkpt>
<trkpt lat="45.8593900" lon="9.2064350">
	<ele>1194.60</ele>
	<time>2025-02-15T10:14:33.000Z</time>
</trkpt>
<trkpt lat="45.8593880" lon="9.2064330">
	<ele>1194.80</ele>
	<time>2025-02-15T10:14:34.000Z</time>
</trkpt>
<trkpt lat="45.8593880" lon="9.2064280">
	<ele>1195.20</ele>
	<time>2025-02-15T10:14:35.000Z</time>
</trkpt>
<trkpt lat="45.8593860" lon="9.2064250">
	<ele>1195.20</ele>
	<time>2025-02-15T10:14:36.000Z</time>
</trkpt>
<trkpt lat="45.8593800" lon="9.2064210">
	<ele>1195.40</ele>
	<time>2025-02-15T10:14:37.000Z</time>
</trkpt>
<trkpt lat="45.8593720" lon="9.2064210">
	<ele>1195.40</ele>
	<time>2025-02-15T10:14:38.000Z</time>
</trkpt>
<trkpt lat="45.8593700" lon="9.2064190">
	<ele>1195.40</ele>
	<time>2025-02-15T10:14:39.000Z</time>
</trkpt>
<trkpt lat="45.8593680" lon="9.2064030">
	<ele>1195.40</ele>
	<time>2025-02-15T10:14:40.000Z</time>
</trkpt>
<trkpt lat="45.8593640" lon="9.2063870">
	<ele>1195.40</ele>
	<time>2025-02-15T10:14:41.000Z</time>
</trkpt>
<trkpt lat="45.8593570" lon="9.2063720">
	<ele>1195.20</ele>
	<time>2025-02-15T10:14:42.000Z</time>
</trkpt>
<trkpt lat="45.8593480" lon="9.2063630">
	<ele>1195.20</ele>
	<time>2025-02-15T10:14:43.000Z</time>
</trkpt>
<trkpt lat="45.8593450" lon="9.2063420">
	<ele>1195.20</ele>
	<time>2025-02-15T10:14:44.000Z</time>
</trkpt>
<trkpt lat="45.8593380" lon="9.2063300">
	<ele>1195.20</ele>
	<time>2025-02-15T10:14:45.000Z</time>
</trkpt>
<trkpt lat="45.8593340" lon="9.2063120">
	<ele>1195.20</ele>
	<time>2025-02-15T10:14:46.000Z</time>
</trkpt>
<trkpt lat="45.8593290" lon="9.2063040">
	<ele>1195.20</ele>
	<time>2025-02-15T10:14:47.000Z</time>
</trkpt>
<trkpt lat="45.8593230" lon="9.2062920">
	<ele>1195.20</ele>
	<time>2025-02-15T10:14:48.000Z</time>
</trkpt>
<trkpt lat="45.8593210" lon="9.2062780">
	<ele>1195.20</ele>
	<time>2025-02-15T10:14:49.000Z</time>
</trkpt>
<trkpt lat="45.8593220" lon="9.2062700">
	<ele>1195.20</ele>
	<time>2025-02-15T10:14:50.000Z</time>
</trkpt>
<trkpt lat="45.8593220" lon="9.2062650">
	<ele>1195.20</ele>
	<time>2025-02-15T10:14:51.000Z</time>
</trkpt>
<trkpt lat="45.8593200" lon="9.2062600">
	<ele>1195.00</ele>
	<time>2025-02-15T10:14:52.000Z</time>
</trkpt>
<trkpt lat="45.8593140" lon="9.2062580">
	<ele>1195.00</ele>
	<time>2025-02-15T10:14:53.000Z</time>
</trkpt>
<trkpt lat="45.8593060" lon="9.2062570">
	<ele>1194.80</ele>
	<time>2025-02-15T10:14:54.000Z</time>
</trkpt>
<trkpt lat="45.8593010" lon="9.2062550">
	<ele>1194.60</ele>
	<time>2025-02-15T10:14:55.000Z</time>
</trkpt>
<trkpt lat="45.8592980" lon="9.2062410">
	<ele>1194.40</ele>
	<time>2025-02-15T10:14:56.000Z</time>
</trkpt>
<trkpt lat="45.8592970" lon="9.2062350">
	<ele>1194.20</ele>
	<time>2025-02-15T10:14:57.000Z</time>
</trkpt>
<trkpt lat="45.8592930" lon="9.2062210">
	<ele>1194.20</ele>
	<time>2025-02-15T10:14:58.000Z</time>
</trkpt>
<trkpt lat="45.8592920" lon="9.2062110">
	<ele>1194.00</ele>
	<time>2025-02-15T10:14:59.000Z</time>
</trkpt>
<trkpt lat="45.8592930" lon="9.2061990">
	<ele>1194.00</ele>
	<time>2025-02-15T10:15:00.000Z</time>
</trkpt>
<trkpt lat="45.8592920" lon="9.2061950">
	<ele>1193.80</ele>
	<time>2025-02-15T10:15:01.000Z</time>
</trkpt>
<trkpt lat="45.8592880" lon="9.2061880">
	<ele>1193.60</ele>
	<time>2025-02-15T10:15:02.000Z</time>
</trkpt>
<trkpt lat="45.8592850" lon="9.2061800">
	<ele>1193.40</ele>
	<time>2025-02-15T10:15:03.000Z</time>
</trkpt>
<trkpt lat="45.8592840" lon="9.2061710">
	<ele>1193.20</ele>
	<time>2025-02-15T10:15:04.000Z</time>
</trkpt>
<trkpt lat="45.8592810" lon="9.2061600">
	<ele>1192.80</ele>
	<time>2025-02-15T10:15:05.000Z</time>
</trkpt>
<trkpt lat="45.8592750" lon="9.2061430">
	<ele>1192.60</ele>
	<time>2025-02-15T10:15:06.000Z</time>
</trkpt>
<trkpt lat="45.8592690" lon="9.2061290">
	<ele>1192.60</ele>
	<time>2025-02-15T10:15:07.000Z</time>
</trkpt>
<trkpt lat="45.8592670" lon="9.2061220">
	<ele>1192.40</ele>
	<time>2025-02-15T10:15:08.000Z</time>
</trkpt>
<trkpt lat="45.8592650" lon="9.2061190">
	<ele>1192.20</ele>
	<time>2025-02-15T10:15:09.000Z</time>
</trkpt>
<trkpt lat="45.8592660" lon="9.2061160">
	<ele>1192.00</ele>
	<time>2025-02-15T10:15:10.000Z</time>
</trkpt>
<trkpt lat="45.8592660" lon="9.2061150">
	<ele>1192.00</ele>
	<time>2025-02-15T10:15:11.000Z</time>
</trkpt>
<trkpt lat="45.8592660" lon="9.2061140">
	<ele>1191.80</ele>
	<time>2025-02-15T10:15:12.000Z</time>
</trkpt>
<trkpt lat="45.8592660" lon="9.2061140">
	<ele>1191.80</ele>
	<time>2025-02-15T10:15:13.000Z</time>
</trkpt>
<trkpt lat="45.8592650" lon="9.2061150">
	<ele>1191.80</ele>
	<time>2025-02-15T10:15:14.000Z</time>
</trkpt>
<trkpt lat="45.8592670" lon="9.2061170">
	<ele>1191.80</ele>
	<time>2025-02-15T10:15:15.000Z</time>
</trkpt>
<trkpt lat="45.8592700" lon="9.2061170">
	<ele>1192.00</ele>
	<time>2025-02-15T10:15:16.000Z</time>
</trkpt>
<trkpt lat="45.8592650" lon="9.2061160">
	<ele>1192.00</ele>
	<time>2025-02-15T10:15:17.000Z</time>
</trkpt>
<trkpt lat="45.8592650" lon="9.2061150">
	<ele>1192.00</ele>
	<time>2025-02-15T10:15:18.000Z</time>
</trkpt>
<trkpt lat="45.8592630" lon="9.2061090">
	<ele>1192.00</ele>
	<time>2025-02-15T10:15:19.000Z</time>
</trkpt>
<trkpt lat="45.8592620" lon="9.2061080">
	<ele>1192.00</ele>
	<time>2025-02-15T10:15:20.000Z</time>
</trkpt>
<trkpt lat="45.8592630" lon="9.2061080">
	<ele>1192.00</ele>
	<time>2025-02-15T10:15:21.000Z</time>
</trkpt>
<trkpt lat="45.8592640" lon="9.2061060">
	<ele>1192.00</ele>
	<time>2025-02-15T10:15:22.000Z</time>
</trkpt>
<trkpt lat="45.8592650" lon="9.2061050">
	<ele>1191.80</ele>
	<time>2025-02-15T10:15:23.000Z</time>
</trkpt>
<trkpt lat="45.8592670" lon="9.2060970">
	<ele>1191.80</ele>
	<time>2025-02-15T10:15:24.000Z</time>
</trkpt>
<trkpt lat="45.8592670" lon="9.2060970">
	<ele>1191.80</ele>
	<time>2025-02-15T10:15:25.000Z</time>
</trkpt>
<trkpt lat="45.8592670" lon="9.2060980">
	<ele>1191.80</ele>
	<time>2025-02-15T10:15:26.000Z</time>
</trkpt>
<trkpt lat="45.8592670" lon="9.2060980">
	<ele>1191.80</ele>
	<time>2025-02-15T10:15:27.000Z</time>
</trkpt>
<trkpt lat="45.8592670" lon="9.2060980">
	<ele>1191.60</ele>
	<time>2025-02-15T10:15:28.000Z</time>
</trkpt>
<trkpt lat="45.8592670" lon="9.2060980">
	<ele>1191.60</ele>
	<time>2025-02-15T10:15:29.000Z</time>
</trkpt>
<trkpt lat="45.8592670" lon="9.2060980">
	<ele>1191.60</ele>
	<time>2025-02-15T10:15:30.000Z</time>
</trkpt>
<trkpt lat="45.8592670" lon="9.2060980">
	<ele>1191.60</ele>
	<time>2025-02-15T10:15:31.000Z</time>
</trkpt>
<trkpt lat="45.8592670" lon="9.2060980">
	<ele>1191.60</ele>
	<time>2025-02-15T10:15:32.000Z</time>
</trkpt>
<trkpt lat="45.8592670" lon="9.2060980">
	<ele>1191.40</ele>
	<time>2025-02-15T10:15:33.000Z</time>
</trkpt>
<trkpt lat="45.8592670" lon="9.2060980">
	<ele>1191.40</ele>
	<time>2025-02-15T10:15:34.000Z</time>
</trkpt>
<trkpt lat="45.8592670" lon="9.2060980">
	<ele>1191.40</ele>
	<time>2025-02-15T10:15:35.000Z</time>
</trkpt>
<trkpt lat="45.8592670" lon="9.2060980">
	<ele>1191.40</ele>
	<time>2025-02-15T10:15:36.000Z</time>
</trkpt>
<trkpt lat="45.8592670" lon="9.2060980">
	<ele>1191.40</ele>
	<time>2025-02-15T10:15:37.000Z</time>
</trkpt>
<trkpt lat="45.8592660" lon="9.2060980">
	<ele>1191.40</ele>
	<time>2025-02-15T10:15:38.000Z</time>
</trkpt>
<trkpt lat="45.8592650" lon="9.2060980">
	<ele>1191.40</ele>
	<time>2025-02-15T10:15:39.000Z</time>
</trkpt>
<trkpt lat="45.8592640" lon="9.2060980">
	<ele>1191.40</ele>
	<time>2025-02-15T10:15:40.000Z</time>
</trkpt>
<trkpt lat="45.8592630" lon="9.2060980">
	<ele>1191.40</ele>
	<time>2025-02-15T10:15:41.000Z</time>
</trkpt>
<trkpt lat="45.8592630" lon="9.2060970">
	<ele>1191.40</ele>
	<time>2025-02-15T10:15:42.000Z</time>
</trkpt>
<trkpt lat="45.8592630" lon="9.2060960">
	<ele>1191.40</ele>
	<time>2025-02-15T10:15:43.000Z</time>
</trkpt>
<trkpt lat="45.8592610" lon="9.2060890">
	<ele>1191.20</ele>
	<time>2025-02-15T10:15:44.000Z</time>
</trkpt>
<trkpt lat="45.8592570" lon="9.2060780">
	<ele>1191.20</ele>
	<time>2025-02-15T10:15:45.000Z</time>
</trkpt>
<trkpt lat="45.8592520" lon="9.2060700">
	<ele>1191.20</ele>
	<time>2025-02-15T10:15:46.000Z</time>
</trkpt>
<trkpt lat="45.8592500" lon="9.2060630">
	<ele>1191.20</ele>
	<time>2025-02-15T10:15:47.000Z</time>
</trkpt>
<trkpt lat="45.8592420" lon="9.2060450">
	<ele>1191.00</ele>
	<time>2025-02-15T10:15:48.000Z</time>
</trkpt>
<trkpt lat="45.8592340" lon="9.2060280">
	<ele>1190.80</ele>
	<time>2025-02-15T10:15:49.000Z</time>
</trkpt>
<trkpt lat="45.8592270" lon="9.2060100">
	<ele>1190.60</ele>
	<time>2025-02-15T10:15:50.000Z</time>
</trkpt>
<trkpt lat="45.8592200" lon="9.2059950">
	<ele>1190.60</ele>
	<time>2025-02-15T10:15:51.000Z</time>
</trkpt>
<trkpt lat="45.8592120" lon="9.2059790">
	<ele>1190.60</ele>
	<time>2025-02-15T10:15:52.000Z</time>
</trkpt>
<trkpt lat="45.8592040" lon="9.2059610">
	<ele>1190.60</ele>
	<time>2025-02-15T10:15:53.000Z</time>
</trkpt>
<trkpt lat="45.8591980" lon="9.2059410">
	<ele>1190.40</ele>
	<time>2025-02-15T10:15:54.000Z</time>
</trkpt>
<trkpt lat="45.8591920" lon="9.2059210">
	<ele>1190.40</ele>
	<time>2025-02-15T10:15:55.000Z</time>
</trkpt>
<trkpt lat="45.8591860" lon="9.2059000">
	<ele>1190.40</ele>
	<time>2025-02-15T10:15:56.000Z</time>
</trkpt>
<trkpt lat="45.8591830" lon="9.2058850">
	<ele>1190.40</ele>
	<time>2025-02-15T10:15:57.000Z</time>
</trkpt>
<trkpt lat="45.8591750" lon="9.2058730">
	<ele>1190.40</ele>
	<time>2025-02-15T10:15:58.000Z</time>
</trkpt>
<trkpt lat="45.8591740" lon="9.2058620">
	<ele>1190.40</ele>
	<time>2025-02-15T10:15:59.000Z</time>
</trkpt>
<trkpt lat="45.8591720" lon="9.2058480">
	<ele>1190.20</ele>
	<time>2025-02-15T10:16:00.000Z</time>
</trkpt>
<trkpt lat="45.8591700" lon="9.2058430">
	<ele>1190.20</ele>
	<time>2025-02-15T10:16:01.000Z</time>
</trkpt>
<trkpt lat="45.8591730" lon="9.2058450">
	<ele>1190.20</ele>
	<time>2025-02-15T10:16:02.000Z</time>
</trkpt>
<trkpt lat="45.8591750" lon="9.2058470">
	<ele>1190.40</ele>
	<time>2025-02-15T10:16:03.000Z</time>
</trkpt>
<trkpt lat="45.8591750" lon="9.2058480">
	<ele>1190.40</ele>
	<time>2025-02-15T10:16:04.000Z</time>
</trkpt>
<trkpt lat="45.8591800" lon="9.2058550">
	<ele>1190.40</ele>
	<time>2025-02-15T10:16:05.000Z</time>
</trkpt>
<trkpt lat="45.8591790" lon="9.2058550">
	<ele>1190.20</ele>
	<time>2025-02-15T10:16:06.000Z</time>
</trkpt>
<trkpt lat="45.8591790" lon="9.2058560">
	<ele>1190.20</ele>
	<time>2025-02-15T10:16:07.000Z</time>
</trkpt>
<trkpt lat="45.8591790" lon="9.2058570">
	<ele>1190.20</ele>
	<time>2025-02-15T10:16:08.000Z</time>
</trkpt>
<trkpt lat="45.8591790" lon="9.2058630">
	<ele>1190.20</ele>
	<time>2025-02-15T10:16:09.000Z</time>
</trkpt>
<trkpt lat="45.8591790" lon="9.2058720">
	<ele>1190.20</ele>
	<time>2025-02-15T10:16:10.000Z</time>
</trkpt>
<trkpt lat="45.8591810" lon="9.2058710">
	<ele>1190.20</ele>
	<time>2025-02-15T10:16:11.000Z</time>
</trkpt>
<trkpt lat="45.8591820" lon="9.2058690">
	<ele>1190.20</ele>
	<time>2025-02-15T10:16:12.000Z</time>
</trkpt>
<trkpt lat="45.8591780" lon="9.2058660">
	<ele>1190.20</ele>
	<time>2025-02-15T10:16:13.000Z</time>
</trkpt>
<trkpt lat="45.8591760" lon="9.2058690">
	<ele>1190.20</ele>
	<time>2025-02-15T10:16:14.000Z</time>
</trkpt>
<trkpt lat="45.8591700" lon="9.2058600">
	<ele>1190.20</ele>
	<time>2025-02-15T10:16:15.000Z</time>
</trkpt>
<trkpt lat="45.8591680" lon="9.2058460">
	<ele>1190.20</ele>
	<time>2025-02-15T10:16:16.000Z</time>
</trkpt>
<trkpt lat="45.8591620" lon="9.2058320">
	<ele>1190.20</ele>
	<time>2025-02-15T10:16:17.000Z</time>
</trkpt>
<trkpt lat="45.8591570" lon="9.2058240">
	<ele>1190.20</ele>
	<time>2025-02-15T10:16:18.000Z</time>
</trkpt>
<trkpt lat="45.8591520" lon="9.2058160">
	<ele>1190.40</ele>
	<time>2025-02-15T10:16:19.000Z</time>
</trkpt>
<trkpt lat="45.8591440" lon="9.2058100">
	<ele>1190.40</ele>
	<time>2025-02-15T10:16:20.000Z</time>
</trkpt>
<trkpt lat="45.8591360" lon="9.2058060">
	<ele>1190.60</ele>
	<time>2025-02-15T10:16:21.000Z</time>
</trkpt>
<trkpt lat="45.8591300" lon="9.2057990">
	<ele>1190.60</ele>
	<time>2025-02-15T10:16:22.000Z</time>
</trkpt>
<trkpt lat="45.8591230" lon="9.2057880">
	<ele>1190.80</ele>
	<time>2025-02-15T10:16:23.000Z</time>
</trkpt>
<trkpt lat="45.8591180" lon="9.2057760">
	<ele>1191.00</ele>
	<time>2025-02-15T10:16:24.000Z</time>
</trkpt>
<trkpt lat="45.8591140" lon="9.2057650">
	<ele>1191.20</ele>
	<time>2025-02-15T10:16:25.000Z</time>
</trkpt>
<trkpt lat="45.8591070" lon="9.2057580">
	<ele>1191.40</ele>
	<time>2025-02-15T10:16:26.000Z</time>
</trkpt>
<trkpt lat="45.8591080" lon="9.2057440">
	<ele>1191.40</ele>
	<time>2025-02-15T10:16:27.000Z</time>
</trkpt>
<trkpt lat="45.8591060" lon="9.2057320">
	<ele>1191.60</ele>
	<time>2025-02-15T10:16:28.000Z</time>
</trkpt>
<trkpt lat="45.8591040" lon="9.2057210">
	<ele>1191.60</ele>
	<time>2025-02-15T10:16:29.000Z</time>
</trkpt>
<trkpt lat="45.8591020" lon="9.2057120">
	<ele>1191.80</ele>
	<time>2025-02-15T10:16:30.000Z</time>
</trkpt>
<trkpt lat="45.8590990" lon="9.2057020">
	<ele>1192.00</ele>
	<time>2025-02-15T10:16:31.000Z</time>
</trkpt>
<trkpt lat="45.8590960" lon="9.2056930">
	<ele>1192.00</ele>
	<time>2025-02-15T10:16:32.000Z</time>
</trkpt>
<trkpt lat="45.8590900" lon="9.2056820">
	<ele>1192.40</ele>
	<time>2025-02-15T10:16:33.000Z</time>
</trkpt>
<trkpt lat="45.8590850" lon="9.2056750">
	<ele>1192.60</ele>
	<time>2025-02-15T10:16:34.000Z</time>
</trkpt>
<trkpt lat="45.8590820" lon="9.2056680">
	<ele>1192.80</ele>
	<time>2025-02-15T10:16:35.000Z</time>
</trkpt>
<trkpt lat="45.8590770" lon="9.2056650">
	<ele>1192.80</ele>
	<time>2025-02-15T10:16:36.000Z</time>
</trkpt>
<trkpt lat="45.8590740" lon="9.2056580">
	<ele>1193.00</ele>
	<time>2025-02-15T10:16:37.000Z</time>
</trkpt>
<trkpt lat="45.8590720" lon="9.2056520">
	<ele>1193.20</ele>
	<time>2025-02-15T10:16:38.000Z</time>
</trkpt>
<trkpt lat="45.8590700" lon="9.2056420">
	<ele>1193.60</ele>
	<time>2025-02-15T10:16:39.000Z</time>
</trkpt>
<trkpt lat="45.8590660" lon="9.2056350">
	<ele>1193.80</ele>
	<time>2025-02-15T10:16:40.000Z</time>
</trkpt>
<trkpt lat="45.8590640" lon="9.2056300">
	<ele>1194.00</ele>
	<time>2025-02-15T10:16:41.000Z</time>
</trkpt>
<trkpt lat="45.8590610" lon="9.2056250">
	<ele>1194.40</ele>
	<time>2025-02-15T10:16:42.000Z</time>
</trkpt>
<trkpt lat="45.8590610" lon="9.2056170">
	<ele>1194.60</ele>
	<time>2025-02-15T10:16:43.000Z</time>
</trkpt>
<trkpt lat="45.8590590" lon="9.2056100">
	<ele>1194.80</ele>
	<time>2025-02-15T10:16:44.000Z</time>
</trkpt>
<trkpt lat="45.8590620" lon="9.2055990">
	<ele>1195.00</ele>
	<time>2025-02-15T10:16:45.000Z</time>
</trkpt>
<trkpt lat="45.8590650" lon="9.2055890">
	<ele>1195.00</ele>
	<time>2025-02-15T10:16:46.000Z</time>
</trkpt>
<trkpt lat="45.8590630" lon="9.2055830">
	<ele>1195.20</ele>
	<time>2025-02-15T10:16:47.000Z</time>
</trkpt>
<trkpt lat="45.8590620" lon="9.2055750">
	<ele>1195.20</ele>
	<time>2025-02-15T10:16:48.000Z</time>
</trkpt>
<trkpt lat="45.8590610" lon="9.2055650">
	<ele>1195.40</ele>
	<time>2025-02-15T10:16:49.000Z</time>
</trkpt>
<trkpt lat="45.8590610" lon="9.2055610">
	<ele>1195.40</ele>
	<time>2025-02-15T10:16:50.000Z</time>
</trkpt>
<trkpt lat="45.8590660" lon="9.2055550">
	<ele>1195.40</ele>
	<time>2025-02-15T10:16:51.000Z</time>
</trkpt>
<trkpt lat="45.8590650" lon="9.2055500">
	<ele>1195.60</ele>
	<time>2025-02-15T10:16:52.000Z</time>
</trkpt>
<trkpt lat="45.8590640" lon="9.2055470">
	<ele>1196.00</ele>
	<time>2025-02-15T10:16:53.000Z</time>
</trkpt>
<trkpt lat="45.8590630" lon="9.2055440">
	<ele>1196.00</ele>
	<time>2025-02-15T10:16:54.000Z</time>
</trkpt>
<trkpt lat="45.8590630" lon="9.2055410">
	<ele>1196.20</ele>
	<time>2025-02-15T10:16:55.000Z</time>
</trkpt>
<trkpt lat="45.8590610" lon="9.2055280">
	<ele>1196.40</ele>
	<time>2025-02-15T10:16:56.000Z</time>
</trkpt>
<trkpt lat="45.8590610" lon="9.2055220">
	<ele>1196.60</ele>
	<time>2025-02-15T10:16:57.000Z</time>
</trkpt>
<trkpt lat="45.8590600" lon="9.2055140">
	<ele>1196.80</ele>
	<time>2025-02-15T10:16:58.000Z</time>
</trkpt>
<trkpt lat="45.8590580" lon="9.2055050">
	<ele>1196.80</ele>
	<time>2025-02-15T10:16:59.000Z</time>
</trkpt>
<trkpt lat="45.8590560" lon="9.2054950">
	<ele>1197.00</ele>
	<time>2025-02-15T10:17:00.000Z</time>
</trkpt>
<trkpt lat="45.8590510" lon="9.2054860">
	<ele>1197.00</ele>
	<time>2025-02-15T10:17:01.000Z</time>
</trkpt>
<trkpt lat="45.8590460" lon="9.2054760">
	<ele>1197.20</ele>
	<time>2025-02-15T10:17:02.000Z</time>
</trkpt>
<trkpt lat="45.8590440" lon="9.2054650">
	<ele>1197.20</ele>
	<time>2025-02-15T10:17:03.000Z</time>
</trkpt>
<trkpt lat="45.8590370" lon="9.2054570">
	<ele>1197.20</ele>
	<time>2025-02-15T10:17:04.000Z</time>
</trkpt>
<trkpt lat="45.8590320" lon="9.2054490">
	<ele>1197.20</ele>
	<time>2025-02-15T10:17:05.000Z</time>
</trkpt>
<trkpt lat="45.8590290" lon="9.2054420">
	<ele>1197.20</ele>
	<time>2025-02-15T10:17:06.000Z</time>
</trkpt>
<trkpt lat="45.8590290" lon="9.2054370">
	<ele>1197.60</ele>
	<time>2025-02-15T10:17:07.000Z</time>
</trkpt>
<trkpt lat="45.8590270" lon="9.2054280">
	<ele>1197.80</ele>
	<time>2025-02-15T10:17:08.000Z</time>
</trkpt>
<trkpt lat="45.8590250" lon="9.2054180">
	<ele>1198.00</ele>
	<time>2025-02-15T10:17:09.000Z</time>
</trkpt>
<trkpt lat="45.8590260" lon="9.2054070">
	<ele>1198.00</ele>
	<time>2025-02-15T10:17:10.000Z</time>
</trkpt>
<trkpt lat="45.8590230" lon="9.2053990">
	<ele>1198.20</ele>
	<time>2025-02-15T10:17:11.000Z</time>
</trkpt>
<trkpt lat="45.8590220" lon="9.2053880">
	<ele>1198.20</ele>
	<time>2025-02-15T10:17:12.000Z</time>
</trkpt>
<trkpt lat="45.8590230" lon="9.2053740">
	<ele>1198.20</ele>
	<time>2025-02-15T10:17:13.000Z</time>
</trkpt>
<trkpt lat="45.8590240" lon="9.2053640">
	<ele>1198.20</ele>
	<time>2025-02-15T10:17:14.000Z</time>
</trkpt>
<trkpt lat="45.8590260" lon="9.2053570">
	<ele>1198.40</ele>
	<time>2025-02-15T10:17:15.000Z</time>
</trkpt>
<trkpt lat="45.8590250" lon="9.2053470">
	<ele>1198.40</ele>
	<time>2025-02-15T10:17:16.000Z</time>
</trkpt>
<trkpt lat="45.8590240" lon="9.2053360">
	<ele>1198.60</ele>
	<time>2025-02-15T10:17:17.000Z</time>
</trkpt>
<trkpt lat="45.8590200" lon="9.2053200">
	<ele>1199.00</ele>
	<time>2025-02-15T10:17:18.000Z</time>
</trkpt>
<trkpt lat="45.8590200" lon="9.2053150">
	<ele>1199.40</ele>
	<time>2025-02-15T10:17:19.000Z</time>
</trkpt>
<trkpt lat="45.8590230" lon="9.2053070">
	<ele>1199.60</ele>
	<time>2025-02-15T10:17:20.000Z</time>
</trkpt>
<trkpt lat="45.8590230" lon="9.2053010">
	<ele>1199.80</ele>
	<time>2025-02-15T10:17:21.000Z</time>
</trkpt>
<trkpt lat="45.8590230" lon="9.2052920">
	<ele>1199.80</ele>
	<time>2025-02-15T10:17:22.000Z</time>
</trkpt>
<trkpt lat="45.8590250" lon="9.2052820">
	<ele>1200.00</ele>
	<time>2025-02-15T10:17:23.000Z</time>
</trkpt>
<trkpt lat="45.8590290" lon="9.2052720">
	<ele>1200.00</ele>
	<time>2025-02-15T10:17:24.000Z</time>
</trkpt>
<trkpt lat="45.8590250" lon="9.2052620">
	<ele>1200.20</ele>
	<time>2025-02-15T10:17:25.000Z</time>
</trkpt>
<trkpt lat="45.8590210" lon="9.2052460">
	<ele>1200.20</ele>
	<time>2025-02-15T10:17:26.000Z</time>
</trkpt>
<trkpt lat="45.8590230" lon="9.2052360">
	<ele>1200.40</ele>
	<time>2025-02-15T10:17:27.000Z</time>
</trkpt>
<trkpt lat="45.8590210" lon="9.2052310">
	<ele>1200.40</ele>
	<time>2025-02-15T10:17:28.000Z</time>
</trkpt>
<trkpt lat="45.8590180" lon="9.2052190">
	<ele>1200.40</ele>
	<time>2025-02-15T10:17:29.000Z</time>
</trkpt>
<trkpt lat="45.8590180" lon="9.2052030">
	<ele>1200.40</ele>
	<time>2025-02-15T10:17:30.000Z</time>
</trkpt>
<trkpt lat="45.8590150" lon="9.2051900">
	<ele>1200.40</ele>
	<time>2025-02-15T10:17:31.000Z</time>
</trkpt>
<trkpt lat="45.8590100" lon="9.2051820">
	<ele>1200.40</ele>
	<time>2025-02-15T10:17:32.000Z</time>
</trkpt>
<trkpt lat="45.8590090" lon="9.2051730">
	<ele>1200.20</ele>
	<time>2025-02-15T10:17:33.000Z</time>
</trkpt>
<trkpt lat="45.8590090" lon="9.2051600">
	<ele>1200.00</ele>
	<time>2025-02-15T10:17:34.000Z</time>
</trkpt>
<trkpt lat="45.8590100" lon="9.2051390">
	<ele>1200.00</ele>
	<time>2025-02-15T10:17:35.000Z</time>
</trkpt>
<trkpt lat="45.8590120" lon="9.2051270">
	<ele>1200.00</ele>
	<time>2025-02-15T10:17:36.000Z</time>
</trkpt>
<trkpt lat="45.8590140" lon="9.2051130">
	<ele>1200.00</ele>
	<time>2025-02-15T10:17:37.000Z</time>
</trkpt>
<trkpt lat="45.8590180" lon="9.2051030">
	<ele>1200.00</ele>
	<time>2025-02-15T10:17:38.000Z</time>
</trkpt>
<trkpt lat="45.8590170" lon="9.2050940">
	<ele>1200.00</ele>
	<time>2025-02-15T10:17:39.000Z</time>
</trkpt>
<trkpt lat="45.8590170" lon="9.2050840">
	<ele>1200.00</ele>
	<time>2025-02-15T10:17:40.000Z</time>
</trkpt>
<trkpt lat="45.8590180" lon="9.2050760">
	<ele>1200.00</ele>
	<time>2025-02-15T10:17:41.000Z</time>
</trkpt>
<trkpt lat="45.8590190" lon="9.2050670">
	<ele>1200.00</ele>
	<time>2025-02-15T10:17:42.000Z</time>
</trkpt>
<trkpt lat="45.8590130" lon="9.2050650">
	<ele>1200.20</ele>
	<time>2025-02-15T10:17:43.000Z</time>
</trkpt>
<trkpt lat="45.8590140" lon="9.2050560">
	<ele>1200.40</ele>
	<time>2025-02-15T10:17:44.000Z</time>
</trkpt>
<trkpt lat="45.8590150" lon="9.2050460">
	<ele>1200.60</ele>
	<time>2025-02-15T10:17:45.000Z</time>
</trkpt>
<trkpt lat="45.8590120" lon="9.2050430">
	<ele>1200.80</ele>
	<time>2025-02-15T10:17:46.000Z</time>
</trkpt>
<trkpt lat="45.8590120" lon="9.2050380">
	<ele>1201.00</ele>
	<time>2025-02-15T10:17:47.000Z</time>
</trkpt>
<trkpt lat="45.8590120" lon="9.2050340">
	<ele>1201.00</ele>
	<time>2025-02-15T10:17:48.000Z</time>
</trkpt>
<trkpt lat="45.8590100" lon="9.2050260">
	<ele>1201.00</ele>
	<time>2025-02-15T10:17:49.000Z</time>
</trkpt>
<trkpt lat="45.8590100" lon="9.2050240">
	<ele>1201.20</ele>
	<time>2025-02-15T10:17:50.000Z</time>
</trkpt>
<trkpt lat="45.8590070" lon="9.2050140">
	<ele>1201.40</ele>
	<time>2025-02-15T10:17:51.000Z</time>
</trkpt>
<trkpt lat="45.8590060" lon="9.2050090">
	<ele>1201.40</ele>
	<time>2025-02-15T10:17:52.000Z</time>
</trkpt>
<trkpt lat="45.8590080" lon="9.2050020">
	<ele>1201.60</ele>
	<time>2025-02-15T10:17:53.000Z</time>
</trkpt>
<trkpt lat="45.8590110" lon="9.2049940">
	<ele>1201.80</ele>
	<time>2025-02-15T10:17:54.000Z</time>
</trkpt>
<trkpt lat="45.8590100" lon="9.2049910">
	<ele>1202.20</ele>
	<time>2025-02-15T10:17:55.000Z</time>
</trkpt>
<trkpt lat="45.8590110" lon="9.2049800">
	<ele>1202.40</ele>
	<time>2025-02-15T10:17:56.000Z</time>
</trkpt>
<trkpt lat="45.8590110" lon="9.2049720">
	<ele>1202.60</ele>
	<time>2025-02-15T10:17:57.000Z</time>
</trkpt>
<trkpt lat="45.8590080" lon="9.2049680">
	<ele>1202.60</ele>
	<time>2025-02-15T10:17:58.000Z</time>
</trkpt>
<trkpt lat="45.8590080" lon="9.2049640">
	<ele>1202.80</ele>
	<time>2025-02-15T10:17:59.000Z</time>
</trkpt>
<trkpt lat="45.8590090" lon="9.2049590">
	<ele>1202.80</ele>
	<time>2025-02-15T10:18:00.000Z</time>
</trkpt>
<trkpt lat="45.8590100" lon="9.2049460">
	<ele>1202.80</ele>
	<time>2025-02-15T10:18:01.000Z</time>
</trkpt>
<trkpt lat="45.8590080" lon="9.2049380">
	<ele>1203.00</ele>
	<time>2025-02-15T10:18:02.000Z</time>
</trkpt>
<trkpt lat="45.8590020" lon="9.2049290">
	<ele>1203.20</ele>
	<time>2025-02-15T10:18:03.000Z</time>
</trkpt>
<trkpt lat="45.8589930" lon="9.2049240">
	<ele>1203.20</ele>
	<time>2025-02-15T10:18:04.000Z</time>
</trkpt>
<trkpt lat="45.8589860" lon="9.2049160">
	<ele>1203.40</ele>
	<time>2025-02-15T10:18:05.000Z</time>
</trkpt>
<trkpt lat="45.8589780" lon="9.2049050">
	<ele>1203.60</ele>
	<time>2025-02-15T10:18:06.000Z</time>
</trkpt>
<trkpt lat="45.8589730" lon="9.2048950">
	<ele>1203.60</ele>
	<time>2025-02-15T10:18:07.000Z</time>
</trkpt>
<trkpt lat="45.8589700" lon="9.2048850">
	<ele>1203.60</ele>
	<time>2025-02-15T10:18:08.000Z</time>
</trkpt>
<trkpt lat="45.8589670" lon="9.2048760">
	<ele>1203.60</ele>
	<time>2025-02-15T10:18:09.000Z</time>
</trkpt>
<trkpt lat="45.8589610" lon="9.2048670">
	<ele>1203.60</ele>
	<time>2025-02-15T10:18:10.000Z</time>
</trkpt>
<trkpt lat="45.8589580" lon="9.2048510">
	<ele>1203.40</ele>
	<time>2025-02-15T10:18:11.000Z</time>
</trkpt>
<trkpt lat="45.8589550" lon="9.2048350">
	<ele>1203.40</ele>
	<time>2025-02-15T10:18:12.000Z</time>
</trkpt>
<trkpt lat="45.8589520" lon="9.2048240">
	<ele>1203.20</ele>
	<time>2025-02-15T10:18:13.000Z</time>
</trkpt>
<trkpt lat="45.8589500" lon="9.2048200">
	<ele>1203.20</ele>
	<time>2025-02-15T10:18:14.000Z</time>
</trkpt>
<trkpt lat="45.8589450" lon="9.2048140">
	<ele>1203.20</ele>
	<time>2025-02-15T10:18:15.000Z</time>
</trkpt>
<trkpt lat="45.8589400" lon="9.2048090">
	<ele>1203.20</ele>
	<time>2025-02-15T10:18:16.000Z</time>
</trkpt>
<trkpt lat="45.8589360" lon="9.2047980">
	<ele>1203.20</ele>
	<time>2025-02-15T10:18:17.000Z</time>
</trkpt>
<trkpt lat="45.8589310" lon="9.2047920">
	<ele>1203.40</ele>
	<time>2025-02-15T10:18:18.000Z</time>
</trkpt>
<trkpt lat="45.8589270" lon="9.2047880">
	<ele>1203.40</ele>
	<time>2025-02-15T10:18:19.000Z</time>
</trkpt>
<trkpt lat="45.8589200" lon="9.2047790">
	<ele>1203.40</ele>
	<time>2025-02-15T10:18:20.000Z</time>
</trkpt>
<trkpt lat="45.8589150" lon="9.2047740">
	<ele>1203.60</ele>
	<time>2025-02-15T10:18:21.000Z</time>
</trkpt>
<trkpt lat="45.8589100" lon="9.2047690">
	<ele>1203.60</ele>
	<time>2025-02-15T10:18:22.000Z</time>
</trkpt>
<trkpt lat="45.8589050" lon="9.2047660">
	<ele>1203.80</ele>
	<time>2025-02-15T10:18:23.000Z</time>
</trkpt>
<trkpt lat="45.8588950" lon="9.2047490">
	<ele>1203.40</ele>
	<time>2025-02-15T10:18:24.000Z</time>
</trkpt>
<trkpt lat="45.8588850" lon="9.2047370">
	<ele>1203.40</ele>
	<time>2025-02-15T10:18:25.000Z</time>
</trkpt>
<trkpt lat="45.8588810" lon="9.2047180">
	<ele>1203.40</ele>
	<time>2025-02-15T10:18:26.000Z</time>
</trkpt>
<trkpt lat="45.8588760" lon="9.2047020">
	<ele>1203.20</ele>
	<time>2025-02-15T10:18:27.000Z</time>
</trkpt>
<trkpt lat="45.8588720" lon="9.2046910">
	<ele>1203.20</ele>
	<time>2025-02-15T10:18:28.000Z</time>
</trkpt>
<trkpt lat="45.8588660" lon="9.2046810">
	<ele>1203.20</ele>
	<time>2025-02-15T10:18:29.000Z</time>
</trkpt>
<trkpt lat="45.8588660" lon="9.2046640">
	<ele>1203.20</ele>
	<time>2025-02-15T10:18:30.000Z</time>
</trkpt>
<trkpt lat="45.8588670" lon="9.2046450">
	<ele>1203.00</ele>
	<time>2025-02-15T10:18:31.000Z</time>
</trkpt>
<trkpt lat="45.8588720" lon="9.2046270">
	<ele>1203.00</ele>
	<time>2025-02-15T10:18:32.000Z</time>
</trkpt>
<trkpt lat="45.8588770" lon="9.2046040">
	<ele>1202.80</ele>
	<time>2025-02-15T10:18:33.000Z</time>
</trkpt>
<trkpt lat="45.8588780" lon="9.2045960">
	<ele>1202.60</ele>
	<time>2025-02-15T10:18:34.000Z</time>
</trkpt>
<trkpt lat="45.8588760" lon="9.2045810">
	<ele>1202.40</ele>
	<time>2025-02-15T10:18:35.000Z</time>
</trkpt>
<trkpt lat="45.8588800" lon="9.2045690">
	<ele>1202.20</ele>
	<time>2025-02-15T10:18:36.000Z</time>
</trkpt>
<trkpt lat="45.8588810" lon="9.2045590">
	<ele>1202.20</ele>
	<time>2025-02-15T10:18:37.000Z</time>
</trkpt>
<trkpt lat="45.8588850" lon="9.2045440">
	<ele>1202.00</ele>
	<time>2025-02-15T10:18:38.000Z</time>
</trkpt>
<trkpt lat="45.8588870" lon="9.2045310">
	<ele>1202.00</ele>
	<time>2025-02-15T10:18:39.000Z</time>
</trkpt>
<trkpt lat="45.8588900" lon="9.2045220">
	<ele>1201.60</ele>
	<time>2025-02-15T10:18:40.000Z</time>
</trkpt>
<trkpt lat="45.8588950" lon="9.2045070">
	<ele>1201.60</ele>
	<time>2025-02-15T10:18:41.000Z</time>
</trkpt>
<trkpt lat="45.8589000" lon="9.2044960">
	<ele>1201.60</ele>
	<time>2025-02-15T10:18:42.000Z</time>
</trkpt>
<trkpt lat="45.8589050" lon="9.2044890">
	<ele>1201.40</ele>
	<time>2025-02-15T10:18:43.000Z</time>
</trkpt>
<trkpt lat="45.8589080" lon="9.2044820">
	<ele>1201.40</ele>
	<time>2025-02-15T10:18:44.000Z</time>
</trkpt>
<trkpt lat="45.8589070" lon="9.2044750">
	<ele>1201.40</ele>
	<time>2025-02-15T10:18:45.000Z</time>
</trkpt>
<trkpt lat="45.8589090" lon="9.2044660">
	<ele>1201.40</ele>
	<time>2025-02-15T10:18:46.000Z</time>
</trkpt>
<trkpt lat="45.8589100" lon="9.2044560">
	<ele>1201.40</ele>
	<time>2025-02-15T10:18:47.000Z</time>
</trkpt>
<trkpt lat="45.8589140" lon="9.2044380">
	<ele>1201.40</ele>
	<time>2025-02-15T10:18:48.000Z</time>
</trkpt>
<trkpt lat="45.8589210" lon="9.2044180">
	<ele>1201.20</ele>
	<time>2025-02-15T10:18:49.000Z</time>
</trkpt>
<trkpt lat="45.8589340" lon="9.2044090">
	<ele>1201.00</ele>
	<time>2025-02-15T10:18:50.000Z</time>
</trkpt>
<trkpt lat="45.8589370" lon="9.2043980">
	<ele>1200.80</ele>
	<time>2025-02-15T10:18:51.000Z</time>
</trkpt>
<trkpt lat="45.8589400" lon="9.2043820">
	<ele>1200.60</ele>
	<time>2025-02-15T10:18:52.000Z</time>
</trkpt>
<trkpt lat="45.8589420" lon="9.2043650">
	<ele>1200.40</ele>
	<time>2025-02-15T10:18:53.000Z</time>
</trkpt>
<trkpt lat="45.8589440" lon="9.2043570">
	<ele>1200.20</ele>
	<time>2025-02-15T10:18:54.000Z</time>
</trkpt>
<trkpt lat="45.8589450" lon="9.2043510">
	<ele>1199.80</ele>
	<time>2025-02-15T10:18:55.000Z</time>
</trkpt>
<trkpt lat="45.8589440" lon="9.2043460">
	<ele>1199.80</ele>
	<time>2025-02-15T10:18:56.000Z</time>
</trkpt>
<trkpt lat="45.8589430" lon="9.2043450">
	<ele>1199.80</ele>
	<time>2025-02-15T10:18:57.000Z</time>
</trkpt>
<trkpt lat="45.8589420" lon="9.2043430">
	<ele>1199.80</ele>
	<time>2025-02-15T10:18:58.000Z</time>
</trkpt>
<trkpt lat="45.8589420" lon="9.2043440">
	<ele>1200.00</ele>
	<time>2025-02-15T10:18:59.000Z</time>
</trkpt>
<trkpt lat="45.8589520" lon="9.2043460">
	<ele>1200.00</ele>
	<time>2025-02-15T10:19:00.000Z</time>
</trkpt>
<trkpt lat="45.8589530" lon="9.2043490">
	<ele>1200.00</ele>
	<time>2025-02-15T10:19:01.000Z</time>
</trkpt>
<trkpt lat="45.8589540" lon="9.2043520">
	<ele>1200.00</ele>
	<time>2025-02-15T10:19:02.000Z</time>
</trkpt>
<trkpt lat="45.8589550" lon="9.2043550">
	<ele>1200.00</ele>
	<time>2025-02-15T10:19:03.000Z</time>
</trkpt>
<trkpt lat="45.8589560" lon="9.2043520">
	<ele>1200.00</ele>
	<time>2025-02-15T10:19:04.000Z</time>
</trkpt>
<trkpt lat="45.8589580" lon="9.2043430">
	<ele>1200.00</ele>
	<time>2025-02-15T10:19:05.000Z</time>
</trkpt>
<trkpt lat="45.8589570" lon="9.2043350">
	<ele>1200.00</ele>
	<time>2025-02-15T10:19:06.000Z</time>
</trkpt>
<trkpt lat="45.8589570" lon="9.2043360">
	<ele>1200.00</ele>
	<time>2025-02-15T10:19:07.000Z</time>
</trkpt>
<trkpt lat="45.8589570" lon="9.2043350">
	<ele>1199.80</ele>
	<time>2025-02-15T10:19:08.000Z</time>
</trkpt>
<trkpt lat="45.8589580" lon="9.2043350">
	<ele>1199.80</ele>
	<time>2025-02-15T10:19:09.000Z</time>
</trkpt>
<trkpt lat="45.8589580" lon="9.2043350">
	<ele>1200.00</ele>
	<time>2025-02-15T10:19:10.000Z</time>
</trkpt>
<trkpt lat="45.8589580" lon="9.2043350">
	<ele>1200.00</ele>
	<time>2025-02-15T10:19:11.000Z</time>
</trkpt>
<trkpt lat="45.8589580" lon="9.2043350">
	<ele>1200.00</ele>
	<time>2025-02-15T10:19:12.000Z</time>
</trkpt>
<trkpt lat="45.8589580" lon="9.2043350">
	<ele>1200.00</ele>
	<time>2025-02-15T10:19:13.000Z</time>
</trkpt>
<trkpt lat="45.8589580" lon="9.2043350">
	<ele>1200.00</ele>
	<time>2025-02-15T10:19:14.000Z</time>
</trkpt>
<trkpt lat="45.8589590" lon="9.2043290">
	<ele>1200.00</ele>
	<time>2025-02-15T10:19:15.000Z</time>
</trkpt>
<trkpt lat="45.8589630" lon="9.2043120">
	<ele>1200.00</ele>
	<time>2025-02-15T10:19:16.000Z</time>
</trkpt>
<trkpt lat="45.8589650" lon="9.2042950">
	<ele>1200.00</ele>
	<time>2025-02-15T10:19:17.000Z</time>
</trkpt>
<trkpt lat="45.8589670" lon="9.2042750">
	<ele>1200.00</ele>
	<time>2025-02-15T10:19:18.000Z</time>
</trkpt>
<trkpt lat="45.8589660" lon="9.2042520">
	<ele>1200.00</ele>
	<time>2025-02-15T10:19:19.000Z</time>
</trkpt>
<trkpt lat="45.8589670" lon="9.2042300">
	<ele>1200.20</ele>
	<time>2025-02-15T10:19:20.000Z</time>
</trkpt>
<trkpt lat="45.8589690" lon="9.2042080">
	<ele>1200.20</ele>
	<time>2025-02-15T10:19:21.000Z</time>
</trkpt>
<trkpt lat="45.8589710" lon="9.2041890">
	<ele>1200.40</ele>
	<time>2025-02-15T10:19:22.000Z</time>
</trkpt>
<trkpt lat="45.8589740" lon="9.2041750">
	<ele>1200.40</ele>
	<time>2025-02-15T10:19:23.000Z</time>
</trkpt>
<trkpt lat="45.8589770" lon="9.2041580">
	<ele>1200.40</ele>
	<time>2025-02-15T10:19:24.000Z</time>
</trkpt>
<trkpt lat="45.8589760" lon="9.2041390">
	<ele>1200.40</ele>
	<time>2025-02-15T10:19:25.000Z</time>
</trkpt>
<trkpt lat="45.8589800" lon="9.2041210">
	<ele>1200.40</ele>
	<time>2025-02-15T10:19:26.000Z</time>
</trkpt>
<trkpt lat="45.8589840" lon="9.2041040">
	<ele>1200.20</ele>
	<time>2025-02-15T10:19:27.000Z</time>
</trkpt>
<trkpt lat="45.8589830" lon="9.2040860">
	<ele>1200.00</ele>
	<time>2025-02-15T10:19:28.000Z</time>
</trkpt>
<trkpt lat="45.8589830" lon="9.2040670">
	<ele>1199.80</ele>
	<time>2025-02-15T10:19:29.000Z</time>
</trkpt>
<trkpt lat="45.8589820" lon="9.2040490">
	<ele>1199.80</ele>
	<time>2025-02-15T10:19:30.000Z</time>
</trkpt>
<trkpt lat="45.8589830" lon="9.2040370">
	<ele>1200.00</ele>
	<time>2025-02-15T10:19:31.000Z</time>
</trkpt>
<trkpt lat="45.8589800" lon="9.2040220">
	<ele>1200.20</ele>
	<time>2025-02-15T10:19:32.000Z</time>
</trkpt>
<trkpt lat="45.8589750" lon="9.2040030">
	<ele>1200.20</ele>
	<time>2025-02-15T10:19:33.000Z</time>
</trkpt>
<trkpt lat="45.8589730" lon="9.2039890">
	<ele>1200.20</ele>
	<time>2025-02-15T10:19:34.000Z</time>
</trkpt>
<trkpt lat="45.8589740" lon="9.2039750">
	<ele>1200.20</ele>
	<time>2025-02-15T10:19:35.000Z</time>
</trkpt>
<trkpt lat="45.8589750" lon="9.2039590">
	<ele>1200.40</ele>
	<time>2025-02-15T10:19:36.000Z</time>
</trkpt>
<trkpt lat="45.8589750" lon="9.2039450">
	<ele>1200.40</ele>
	<time>2025-02-15T10:19:37.000Z</time>
</trkpt>
<trkpt lat="45.8589770" lon="9.2039300">
	<ele>1200.40</ele>
	<time>2025-02-15T10:19:38.000Z</time>
</trkpt>
<trkpt lat="45.8589780" lon="9.2039140">
	<ele>1200.60</ele>
	<time>2025-02-15T10:19:39.000Z</time>
</trkpt>
<trkpt lat="45.8589780" lon="9.2038980">
	<ele>1200.60</ele>
	<time>2025-02-15T10:19:40.000Z</time>
</trkpt>
<trkpt lat="45.8589780" lon="9.2038850">
	<ele>1200.60</ele>
	<time>2025-02-15T10:19:41.000Z</time>
</trkpt>
<trkpt lat="45.8589780" lon="9.2038700">
	<ele>1200.60</ele>
	<time>2025-02-15T10:19:42.000Z</time>
</trkpt>
<trkpt lat="45.8589780" lon="9.2038540">
	<ele>1200.60</ele>
	<time>2025-02-15T10:19:43.000Z</time>
</trkpt>
<trkpt lat="45.8589750" lon="9.2038370">
	<ele>1200.60</ele>
	<time>2025-02-15T10:19:44.000Z</time>
</trkpt>
<trkpt lat="45.8589770" lon="9.2038210">
	<ele>1200.60</ele>
	<time>2025-02-15T10:19:45.000Z</time>
</trkpt>
<trkpt lat="45.8589820" lon="9.2038040">
	<ele>1200.60</ele>
	<time>2025-02-15T10:19:46.000Z</time>
</trkpt>
<trkpt lat="45.8589860" lon="9.2037880">
	<ele>1200.60</ele>
	<time>2025-02-15T10:19:47.000Z</time>
</trkpt>
<trkpt lat="45.8589810" lon="9.2037710">
	<ele>1200.60</ele>
	<time>2025-02-15T10:19:48.000Z</time>
</trkpt>
<trkpt lat="45.8589800" lon="9.2037530">
	<ele>1200.60</ele>
	<time>2025-02-15T10:19:49.000Z</time>
</trkpt>
<trkpt lat="45.8589800" lon="9.2037380">
	<ele>1200.60</ele>
	<time>2025-02-15T10:19:50.000Z</time>
</trkpt>
<trkpt lat="45.8589760" lon="9.2037210">
	<ele>1200.60</ele>
	<time>2025-02-15T10:19:51.000Z</time>
</trkpt>
<trkpt lat="45.8589770" lon="9.2037110">
	<ele>1200.80</ele>
	<time>2025-02-15T10:19:52.000Z</time>
</trkpt>
<trkpt lat="45.8589740" lon="9.2037000">
	<ele>1200.80</ele>
	<time>2025-02-15T10:19:53.000Z</time>
</trkpt>
<trkpt lat="45.8589720" lon="9.2036840">
	<ele>1200.80</ele>
	<time>2025-02-15T10:19:54.000Z</time>
</trkpt>
<trkpt lat="45.8589720" lon="9.2036730">
	<ele>1200.60</ele>
	<time>2025-02-15T10:19:55.000Z</time>
</trkpt>
<trkpt lat="45.8589760" lon="9.2036610">
	<ele>1200.60</ele>
	<time>2025-02-15T10:19:56.000Z</time>
</trkpt>
<trkpt lat="45.8589780" lon="9.2036490">
	<ele>1200.60</ele>
	<time>2025-02-15T10:19:57.000Z</time>
</trkpt>
<trkpt lat="45.8589760" lon="9.2036340">
	<ele>1200.60</ele>
	<time>2025-02-15T10:19:58.000Z</time>
</trkpt>
<trkpt lat="45.8589740" lon="9.2036230">
	<ele>1200.60</ele>
	<time>2025-02-15T10:19:59.000Z</time>
</trkpt>
<trkpt lat="45.8589690" lon="9.2036090">
	<ele>1200.60</ele>
	<time>2025-02-15T10:20:00.000Z</time>
</trkpt>
<trkpt lat="45.8589670" lon="9.2035980">
	<ele>1201.00</ele>
	<time>2025-02-15T10:20:01.000Z</time>
</trkpt>
<trkpt lat="45.8589690" lon="9.2035850">
	<ele>1201.20</ele>
	<time>2025-02-15T10:20:02.000Z</time>
</trkpt>
<trkpt lat="45.8589700" lon="9.2035690">
	<ele>1201.20</ele>
	<time>2025-02-15T10:20:03.000Z</time>
</trkpt>
<trkpt lat="45.8589710" lon="9.2035560">
	<ele>1201.40</ele>
	<time>2025-02-15T10:20:04.000Z</time>
</trkpt>
<trkpt lat="45.8589710" lon="9.2035480">
	<ele>1201.40</ele>
	<time>2025-02-15T10:20:05.000Z</time>
</trkpt>
<trkpt lat="45.8589710" lon="9.2035390">
	<ele>1201.60</ele>
	<time>2025-02-15T10:20:06.000Z</time>
</trkpt>
<trkpt lat="45.8589660" lon="9.2035280">
	<ele>1201.60</ele>
	<time>2025-02-15T10:20:07.000Z</time>
</trkpt>
<trkpt lat="45.8589650" lon="9.2035170">
	<ele>1201.60</ele>
	<time>2025-02-15T10:20:08.000Z</time>
</trkpt>
<trkpt lat="45.8589660" lon="9.2035060">
	<ele>1202.00</ele>
	<time>2025-02-15T10:20:09.000Z</time>
</trkpt>
<trkpt lat="45.8589670" lon="9.2034950">
	<ele>1202.20</ele>
	<time>2025-02-15T10:20:10.000Z</time>
</trkpt>
<trkpt lat="45.8589680" lon="9.2034850">
	<ele>1202.20</ele>
	<time>2025-02-15T10:20:11.000Z</time>
</trkpt>
<trkpt lat="45.8589690" lon="9.2034800">
	<ele>1202.60</ele>
	<time>2025-02-15T10:20:12.000Z</time>
</trkpt>
<trkpt lat="45.8589700" lon="9.2034720">
	<ele>1203.00</ele>
	<time>2025-02-15T10:20:13.000Z</time>
</trkpt>
<trkpt lat="45.8589710" lon="9.2034620">
	<ele>1203.20</ele>
	<time>2025-02-15T10:20:14.000Z</time>
</trkpt>
<trkpt lat="45.8589690" lon="9.2034520">
	<ele>1203.40</ele>
	<time>2025-02-15T10:20:15.000Z</time>
</trkpt>
<trkpt lat="45.8589680" lon="9.2034430">
	<ele>1203.60</ele>
	<time>2025-02-15T10:20:16.000Z</time>
</trkpt>
<trkpt lat="45.8589640" lon="9.2034330">
	<ele>1204.00</ele>
	<time>2025-02-15T10:20:17.000Z</time>
</trkpt>
<trkpt lat="45.8589620" lon="9.2034190">
	<ele>1204.20</ele>
	<time>2025-02-15T10:20:18.000Z</time>
</trkpt>
<trkpt lat="45.8589580" lon="9.2034050">
	<ele>1204.20</ele>
	<time>2025-02-15T10:20:19.000Z</time>
</trkpt>
<trkpt lat="45.8589550" lon="9.2033930">
	<ele>1204.20</ele>
	<time>2025-02-15T10:20:20.000Z</time>
</trkpt>
<trkpt lat="45.8589480" lon="9.2033820">
	<ele>1204.40</ele>
	<time>2025-02-15T10:20:21.000Z</time>
</trkpt>
<trkpt lat="45.8589420" lon="9.2033750">
	<ele>1204.40</ele>
	<time>2025-02-15T10:20:22.000Z</time>
</trkpt>
<trkpt lat="45.8589370" lon="9.2033640">
	<ele>1204.40</ele>
	<time>2025-02-15T10:20:23.000Z</time>
</trkpt>
<trkpt lat="45.8589360" lon="9.2033530">
	<ele>1204.40</ele>
	<time>2025-02-15T10:20:24.000Z</time>
</trkpt>
<trkpt lat="45.8589320" lon="9.2033440">
	<ele>1204.40</ele>
	<time>2025-02-15T10:20:25.000Z</time>
</trkpt>
<trkpt lat="45.8589290" lon="9.2033300">
	<ele>1204.40</ele>
	<time>2025-02-15T10:20:26.000Z</time>
</trkpt>
<trkpt lat="45.8589270" lon="9.2033180">
	<ele>1204.40</ele>
	<time>2025-02-15T10:20:27.000Z</time>
</trkpt>
<trkpt lat="45.8589230" lon="9.2033080">
	<ele>1204.40</ele>
	<time>2025-02-15T10:20:28.000Z</time>
</trkpt>
<trkpt lat="45.8589180" lon="9.2032980">
	<ele>1204.60</ele>
	<time>2025-02-15T10:20:29.000Z</time>
</trkpt>
<trkpt lat="45.8589150" lon="9.2032810">
	<ele>1204.40</ele>
	<time>2025-02-15T10:20:30.000Z</time>
</trkpt>
<trkpt lat="45.8589130" lon="9.2032670">
	<ele>1204.20</ele>
	<time>2025-02-15T10:20:31.000Z</time>
</trkpt>
<trkpt lat="45.8589090" lon="9.2032530">
	<ele>1204.00</ele>
	<time>2025-02-15T10:20:32.000Z</time>
</trkpt>
<trkpt lat="45.8589030" lon="9.2032420">
	<ele>1203.80</ele>
	<time>2025-02-15T10:20:33.000Z</time>
</trkpt>
<trkpt lat="45.8588980" lon="9.2032340">
	<ele>1203.60</ele>
	<time>2025-02-15T10:20:34.000Z</time>
</trkpt>
<trkpt lat="45.8588900" lon="9.2032230">
	<ele>1203.40</ele>
	<time>2025-02-15T10:20:35.000Z</time>
</trkpt>
<trkpt lat="45.8588850" lon="9.2032100">
	<ele>1203.40</ele>
	<time>2025-02-15T10:20:36.000Z</time>
</trkpt>
<trkpt lat="45.8588780" lon="9.2031950">
	<ele>1203.40</ele>
	<time>2025-02-15T10:20:37.000Z</time>
</trkpt>
<trkpt lat="45.8588700" lon="9.2031830">
	<ele>1203.40</ele>
	<time>2025-02-15T10:20:38.000Z</time>
</trkpt>
<trkpt lat="45.8588690" lon="9.2031720">
	<ele>1203.40</ele>
	<time>2025-02-15T10:20:39.000Z</time>
</trkpt>
<trkpt lat="45.8588670" lon="9.2031610">
	<ele>1203.40</ele>
	<time>2025-02-15T10:20:40.000Z</time>
</trkpt>
<trkpt lat="45.8588620" lon="9.2031520">
	<ele>1203.40</ele>
	<time>2025-02-15T10:20:41.000Z</time>
</trkpt>
<trkpt lat="45.8588570" lon="9.2031410">
	<ele>1203.40</ele>
	<time>2025-02-15T10:20:42.000Z</time>
</trkpt>
<trkpt lat="45.8588500" lon="9.2031310">
	<ele>1203.40</ele>
	<time>2025-02-15T10:20:43.000Z</time>
</trkpt>
<trkpt lat="45.8588430" lon="9.2031190">
	<ele>1203.20</ele>
	<time>2025-02-15T10:20:44.000Z</time>
</trkpt>
<trkpt lat="45.8588360" lon="9.2031090">
	<ele>1203.20</ele>
	<time>2025-02-15T10:20:45.000Z</time>
</trkpt>
<trkpt lat="45.8588270" lon="9.2030960">
	<ele>1203.20</ele>
	<time>2025-02-15T10:20:46.000Z</time>
</trkpt>
<trkpt lat="45.8588200" lon="9.2030860">
	<ele>1203.00</ele>
	<time>2025-02-15T10:20:47.000Z</time>
</trkpt>
<trkpt lat="45.8588110" lon="9.2030760">
	<ele>1203.00</ele>
	<time>2025-02-15T10:20:48.000Z</time>
</trkpt>
<trkpt lat="45.8588020" lon="9.2030660">
	<ele>1203.00</ele>
	<time>2025-02-15T10:20:49.000Z</time>
</trkpt>
<trkpt lat="45.8587940" lon="9.2030520">
	<ele>1203.00</ele>
	<time>2025-02-15T10:20:50.000Z</time>
</trkpt>
<trkpt lat="45.8587850" lon="9.2030420">
	<ele>1203.00</ele>
	<time>2025-02-15T10:20:51.000Z</time>
</trkpt>
<trkpt lat="45.8587760" lon="9.2030340">
	<ele>1203.00</ele>
	<time>2025-02-15T10:20:52.000Z</time>
</trkpt>
<trkpt lat="45.8587690" lon="9.2030210">
	<ele>1203.00</ele>
	<time>2025-02-15T10:20:53.000Z</time>
</trkpt>
<trkpt lat="45.8587620" lon="9.2030040">
	<ele>1203.00</ele>
	<time>2025-02-15T10:20:54.000Z</time>
</trkpt>
<trkpt lat="45.8587560" lon="9.2029930">
	<ele>1203.00</ele>
	<time>2025-02-15T10:20:55.000Z</time>
</trkpt>
<trkpt lat="45.8587480" lon="9.2029870">
	<ele>1203.00</ele>
	<time>2025-02-15T10:20:56.000Z</time>
</trkpt>
<trkpt lat="45.8587420" lon="9.2029770">
	<ele>1203.00</ele>
	<time>2025-02-15T10:20:57.000Z</time>
</trkpt>
<trkpt lat="45.8587310" lon="9.2029680">
	<ele>1203.00</ele>
	<time>2025-02-15T10:20:58.000Z</time>
</trkpt>
<trkpt lat="45.8587220" lon="9.2029570">
	<ele>1203.00</ele>
	<time>2025-02-15T10:20:59.000Z</time>
</trkpt>
<trkpt lat="45.8587140" lon="9.2029440">
	<ele>1203.00</ele>
	<time>2025-02-15T10:21:00.000Z</time>
</trkpt>
<trkpt lat="45.8587070" lon="9.2029290">
	<ele>1203.00</ele>
	<time>2025-02-15T10:21:01.000Z</time>
</trkpt>
<trkpt lat="45.8587050" lon="9.2029160">
	<ele>1203.00</ele>
	<time>2025-02-15T10:21:02.000Z</time>
</trkpt>
<trkpt lat="45.8586990" lon="9.2029120">
	<ele>1203.00</ele>
	<time>2025-02-15T10:21:03.000Z</time>
</trkpt>
<trkpt lat="45.8586920" lon="9.2029100">
	<ele>1203.00</ele>
	<time>2025-02-15T10:21:04.000Z</time>
</trkpt>
<trkpt lat="45.8586840" lon="9.2029040">
	<ele>1203.20</ele>
	<time>2025-02-15T10:21:05.000Z</time>
</trkpt>
<trkpt lat="45.8586730" lon="9.2029020">
	<ele>1203.20</ele>
	<time>2025-02-15T10:21:06.000Z</time>
</trkpt>
<trkpt lat="45.8586630" lon="9.2028950">
	<ele>1203.20</ele>
	<time>2025-02-15T10:21:07.000Z</time>
</trkpt>
<trkpt lat="45.8586590" lon="9.2028830">
	<ele>1203.40</ele>
	<time>2025-02-15T10:21:08.000Z</time>
</trkpt>
<trkpt lat="45.8586510" lon="9.2028720">
	<ele>1203.20</ele>
	<time>2025-02-15T10:21:09.000Z</time>
</trkpt>
<trkpt lat="45.8586410" lon="9.2028650">
	<ele>1203.20</ele>
	<time>2025-02-15T10:21:10.000Z</time>
</trkpt>
<trkpt lat="45.8586310" lon="9.2028630">
	<ele>1203.00</ele>
	<time>2025-02-15T10:21:11.000Z</time>
</trkpt>
<trkpt lat="45.8586220" lon="9.2028570">
	<ele>1203.00</ele>
	<time>2025-02-15T10:21:12.000Z</time>
</trkpt>
<trkpt lat="45.8586150" lon="9.2028540">
	<ele>1203.20</ele>
	<time>2025-02-15T10:21:13.000Z</time>
</trkpt>
<trkpt lat="45.8586070" lon="9.2028510">
	<ele>1203.20</ele>
	<time>2025-02-15T10:21:14.000Z</time>
</trkpt>
<trkpt lat="45.8586000" lon="9.2028470">
	<ele>1203.00</ele>
	<time>2025-02-15T10:21:15.000Z</time>
</trkpt>
<trkpt lat="45.8585900" lon="9.2028430">
	<ele>1203.00</ele>
	<time>2025-02-15T10:21:16.000Z</time>
</trkpt>
<trkpt lat="45.8585770" lon="9.2028310">
	<ele>1203.20</ele>
	<time>2025-02-15T10:21:17.000Z</time>
</trkpt>
<trkpt lat="45.8585670" lon="9.2028190">
	<ele>1203.20</ele>
	<time>2025-02-15T10:21:18.000Z</time>
</trkpt>
<trkpt lat="45.8585580" lon="9.2028040">
	<ele>1203.20</ele>
	<time>2025-02-15T10:21:19.000Z</time>
</trkpt>
<trkpt lat="45.8585530" lon="9.2028010">
	<ele>1203.20</ele>
	<time>2025-02-15T10:21:20.000Z</time>
</trkpt>
<trkpt lat="45.8585450" lon="9.2027930">
	<ele>1203.20</ele>
	<time>2025-02-15T10:21:21.000Z</time>
</trkpt>
<trkpt lat="45.8585390" lon="9.2027950">
	<ele>1203.00</ele>
	<time>2025-02-15T10:21:22.000Z</time>
</trkpt>
<trkpt lat="45.8585350" lon="9.2027860">
	<ele>1203.20</ele>
	<time>2025-02-15T10:21:23.000Z</time>
</trkpt>
<trkpt lat="45.8585340" lon="9.2027780">
	<ele>1203.00</ele>
	<time>2025-02-15T10:21:24.000Z</time>
</trkpt>
<trkpt lat="45.8585270" lon="9.2027610">
	<ele>1203.00</ele>
	<time>2025-02-15T10:21:25.000Z</time>
</trkpt>
<trkpt lat="45.8585250" lon="9.2027430">
	<ele>1203.00</ele>
	<time>2025-02-15T10:21:26.000Z</time>
</trkpt>
<trkpt lat="45.8585190" lon="9.2027250">
	<ele>1203.00</ele>
	<time>2025-02-15T10:21:27.000Z</time>
</trkpt>
<trkpt lat="45.8585170" lon="9.2027090">
	<ele>1203.00</ele>
	<time>2025-02-15T10:21:28.000Z</time>
</trkpt>
<trkpt lat="45.8585080" lon="9.2026930">
	<ele>1203.00</ele>
	<time>2025-02-15T10:21:29.000Z</time>
</trkpt>
<trkpt lat="45.8584940" lon="9.2026830">
	<ele>1203.00</ele>
	<time>2025-02-15T10:21:30.000Z</time>
</trkpt>
<trkpt lat="45.8584800" lon="9.2026750">
	<ele>1203.00</ele>
	<time>2025-02-15T10:21:31.000Z</time>
</trkpt>
<trkpt lat="45.8584730" lon="9.2026680">
	<ele>1203.20</ele>
	<time>2025-02-15T10:21:32.000Z</time>
</trkpt>
<trkpt lat="45.8584660" lon="9.2026720">
	<ele>1203.40</ele>
	<time>2025-02-15T10:21:33.000Z</time>
</trkpt>
<trkpt lat="45.8584590" lon="9.2026600">
	<ele>1203.40</ele>
	<time>2025-02-15T10:21:34.000Z</time>
</trkpt>
<trkpt lat="45.8584540" lon="9.2026470">
	<ele>1203.60</ele>
	<time>2025-02-15T10:21:35.000Z</time>
</trkpt>
<trkpt lat="45.8584420" lon="9.2026430">
	<ele>1203.80</ele>
	<time>2025-02-15T10:21:36.000Z</time>
</trkpt>
<trkpt lat="45.8584350" lon="9.2026350">
	<ele>1204.00</ele>
	<time>2025-02-15T10:21:37.000Z</time>
</trkpt>
<trkpt lat="45.8584200" lon="9.2026210">
	<ele>1204.40</ele>
	<time>2025-02-15T10:21:38.000Z</time>
</trkpt>
<trkpt lat="45.8584110" lon="9.2026070">
	<ele>1204.40</ele>
	<time>2025-02-15T10:21:39.000Z</time>
</trkpt>
<trkpt lat="45.8584100" lon="9.2025980">
	<ele>1204.60</ele>
	<time>2025-02-15T10:21:40.000Z</time>
</trkpt>
<trkpt lat="45.8584100" lon="9.2025960">
	<ele>1204.80</ele>
	<time>2025-02-15T10:21:41.000Z</time>
</trkpt>
<trkpt lat="45.8584070" lon="9.2025830">
	<ele>1204.80</ele>
	<time>2025-02-15T10:21:42.000Z</time>
</trkpt>
<trkpt lat="45.8584060" lon="9.2025700">
	<ele>1205.00</ele>
	<time>2025-02-15T10:21:43.000Z</time>
</trkpt>
<trkpt lat="45.8584020" lon="9.2025600">
	<ele>1205.00</ele>
	<time>2025-02-15T10:21:44.000Z</time>
</trkpt>
<trkpt lat="45.8584000" lon="9.2025500">
	<ele>1205.00</ele>
	<time>2025-02-15T10:21:45.000Z</time>
</trkpt>
<trkpt lat="45.8583980" lon="9.2025430">
	<ele>1205.00</ele>
	<time>2025-02-15T10:21:46.000Z</time>
</trkpt>
<trkpt lat="45.8583940" lon="9.2025420">
	<ele>1205.00</ele>
	<time>2025-02-15T10:21:47.000Z</time>
</trkpt>
<trkpt lat="45.8583940" lon="9.2025340">
	<ele>1205.00</ele>
	<time>2025-02-15T10:21:48.000Z</time>
</trkpt>
<trkpt lat="45.8583890" lon="9.2025210">
	<ele>1205.00</ele>
	<time>2025-02-15T10:21:49.000Z</time>
</trkpt>
<trkpt lat="45.8583790" lon="9.2025120">
	<ele>1205.00</ele>
	<time>2025-02-15T10:21:50.000Z</time>
</trkpt>
<trkpt lat="45.8583720" lon="9.2025040">
	<ele>1205.00</ele>
	<time>2025-02-15T10:21:51.000Z</time>
</trkpt>
<trkpt lat="45.8583700" lon="9.2024900">
	<ele>1205.00</ele>
	<time>2025-02-15T10:21:52.000Z</time>
</trkpt>
<trkpt lat="45.8583720" lon="9.2024620">
	<ele>1205.20</ele>
	<time>2025-02-15T10:21:53.000Z</time>
</trkpt>
<trkpt lat="45.8583690" lon="9.2024340">
	<ele>1205.20</ele>
	<time>2025-02-15T10:21:54.000Z</time>
</trkpt>
<trkpt lat="45.8583650" lon="9.2024120">
	<ele>1205.20</ele>
	<time>2025-02-15T10:21:55.000Z</time>
</trkpt>
<trkpt lat="45.8583610" lon="9.2023940">
	<ele>1205.20</ele>
	<time>2025-02-15T10:21:56.000Z</time>
</trkpt>
<trkpt lat="45.8583600" lon="9.2023880">
	<ele>1205.00</ele>
	<time>2025-02-15T10:21:57.000Z</time>
</trkpt>
<trkpt lat="45.8583540" lon="9.2023780">
	<ele>1205.00</ele>
	<time>2025-02-15T10:21:58.000Z</time>
</trkpt>
<trkpt lat="45.8583520" lon="9.2023540">
	<ele>1204.80</ele>
	<time>2025-02-15T10:21:59.000Z</time>
</trkpt>
<trkpt lat="45.8583420" lon="9.2023290">
	<ele>1204.80</ele>
	<time>2025-02-15T10:22:00.000Z</time>
</trkpt>
<trkpt lat="45.8583410" lon="9.2023220">
	<ele>1204.80</ele>
	<time>2025-02-15T10:22:01.000Z</time>
</trkpt>
<trkpt lat="45.8583360" lon="9.2023050">
	<ele>1204.80</ele>
	<time>2025-02-15T10:22:02.000Z</time>
</trkpt>
<trkpt lat="45.8583310" lon="9.2022880">
	<ele>1204.60</ele>
	<time>2025-02-15T10:22:03.000Z</time>
</trkpt>
<trkpt lat="45.8583350" lon="9.2022810">
	<ele>1204.40</ele>
	<time>2025-02-15T10:22:04.000Z</time>
</trkpt>
<trkpt lat="45.8583370" lon="9.2022750">
	<ele>1204.40</ele>
	<time>2025-02-15T10:22:05.000Z</time>
</trkpt>
<trkpt lat="45.8583350" lon="9.2022590">
	<ele>1204.40</ele>
	<time>2025-02-15T10:22:06.000Z</time>
</trkpt>
<trkpt lat="45.8583340" lon="9.2022530">
	<ele>1204.40</ele>
	<time>2025-02-15T10:22:07.000Z</time>
</trkpt>
<trkpt lat="45.8583210" lon="9.2022330">
	<ele>1204.20</ele>
	<time>2025-02-15T10:22:08.000Z</time>
</trkpt>
<trkpt lat="45.8583220" lon="9.2022290">
	<ele>1204.40</ele>
	<time>2025-02-15T10:22:09.000Z</time>
</trkpt>
<trkpt lat="45.8583260" lon="9.2022160">
	<ele>1204.40</ele>
	<time>2025-02-15T10:22:10.000Z</time>
</trkpt>
<trkpt lat="45.8583310" lon="9.2022040">
	<ele>1204.40</ele>
	<time>2025-02-15T10:22:11.000Z</time>
</trkpt>
<trkpt lat="45.8583410" lon="9.2021910">
	<ele>1204.40</ele>
	<time>2025-02-15T10:22:12.000Z</time>
</trkpt>
<trkpt lat="45.8583500" lon="9.2021840">
	<ele>1204.40</ele>
	<time>2025-02-15T10:22:13.000Z</time>
</trkpt>
<trkpt lat="45.8583500" lon="9.2021630">
	<ele>1204.40</ele>
	<time>2025-02-15T10:22:14.000Z</time>
</trkpt>
<trkpt lat="45.8583490" lon="9.2021440">
	<ele>1204.40</ele>
	<time>2025-02-15T10:22:15.000Z</time>
</trkpt>
<trkpt lat="45.8583500" lon="9.2021260">
	<ele>1204.40</ele>
	<time>2025-02-15T10:22:16.000Z</time>
</trkpt>
<trkpt lat="45.8583490" lon="9.2021120">
	<ele>1204.40</ele>
	<time>2025-02-15T10:22:17.000Z</time>
</trkpt>
<trkpt lat="45.8583470" lon="9.2021090">
	<ele>1204.40</ele>
	<time>2025-02-15T10:22:18.000Z</time>
</trkpt>
<trkpt lat="45.8583450" lon="9.2021030">
	<ele>1204.40</ele>
	<time>2025-02-15T10:22:19.000Z</time>
</trkpt>
<trkpt lat="45.8583400" lon="9.2020950">
	<ele>1204.40</ele>
	<time>2025-02-15T10:22:20.000Z</time>
</trkpt>
<trkpt lat="45.8583340" lon="9.2020840">
	<ele>1204.40</ele>
	<time>2025-02-15T10:22:21.000Z</time>
</trkpt>
<trkpt lat="45.8583250" lon="9.2020730">
	<ele>1204.20</ele>
	<time>2025-02-15T10:22:22.000Z</time>
</trkpt>
<trkpt lat="45.8583210" lon="9.2020600">
	<ele>1204.40</ele>
	<time>2025-02-15T10:22:23.000Z</time>
</trkpt>
<trkpt lat="45.8583150" lon="9.2020340">
	<ele>1204.40</ele>
	<time>2025-02-15T10:22:24.000Z</time>
</trkpt>
<trkpt lat="45.8583090" lon="9.2020070">
	<ele>1204.40</ele>
	<time>2025-02-15T10:22:25.000Z</time>
</trkpt>
<trkpt lat="45.8583060" lon="9.2019880">
	<ele>1204.40</ele>
	<time>2025-02-15T10:22:26.000Z</time>
</trkpt>
<trkpt lat="45.8583120" lon="9.2019690">
	<ele>1204.20</ele>
	<time>2025-02-15T10:22:27.000Z</time>
</trkpt>
<trkpt lat="45.8583090" lon="9.2019550">
	<ele>1204.20</ele>
	<time>2025-02-15T10:22:28.000Z</time>
</trkpt>
<trkpt lat="45.8583050" lon="9.2019400">
	<ele>1204.00</ele>
	<time>2025-02-15T10:22:29.000Z</time>
</trkpt>
<trkpt lat="45.8582960" lon="9.2019260">
	<ele>1203.80</ele>
	<time>2025-02-15T10:22:30.000Z</time>
</trkpt>
<trkpt lat="45.8582840" lon="9.2019110">
	<ele>1203.80</ele>
	<time>2025-02-15T10:22:31.000Z</time>
</trkpt>
<trkpt lat="45.8582710" lon="9.2018920">
	<ele>1203.80</ele>
	<time>2025-02-15T10:22:32.000Z</time>
</trkpt>
<trkpt lat="45.8582680" lon="9.2018780">
	<ele>1203.80</ele>
	<time>2025-02-15T10:22:33.000Z</time>
</trkpt>
<trkpt lat="45.8582650" lon="9.2018610">
	<ele>1203.80</ele>
	<time>2025-02-15T10:22:34.000Z</time>
</trkpt>
<trkpt lat="45.8582620" lon="9.2018480">
	<ele>1204.00</ele>
	<time>2025-02-15T10:22:35.000Z</time>
</trkpt>
<trkpt lat="45.8582560" lon="9.2018350">
	<ele>1204.00</ele>
	<time>2025-02-15T10:22:36.000Z</time>
</trkpt>
<trkpt lat="45.8582450" lon="9.2018250">
	<ele>1204.20</ele>
	<time>2025-02-15T10:22:37.000Z</time>
</trkpt>
<trkpt lat="45.8582370" lon="9.2018240">
	<ele>1204.20</ele>
	<time>2025-02-15T10:22:38.000Z</time>
</trkpt>
<trkpt lat="45.8582340" lon="9.2018170">
	<ele>1204.40</ele>
	<time>2025-02-15T10:22:39.000Z</time>
</trkpt>
<trkpt lat="45.8582320" lon="9.2018140">
	<ele>1204.40</ele>
	<time>2025-02-15T10:22:40.000Z</time>
</trkpt>
<trkpt lat="45.8582230" lon="9.2018120">
	<ele>1204.40</ele>
	<time>2025-02-15T10:22:41.000Z</time>
</trkpt>
<trkpt lat="45.8582190" lon="9.2018020">
	<ele>1204.40</ele>
	<time>2025-02-15T10:22:42.000Z</time>
</trkpt>
<trkpt lat="45.8582150" lon="9.2017870">
	<ele>1204.40</ele>
	<time>2025-02-15T10:22:43.000Z</time>
</trkpt>
<trkpt lat="45.8582130" lon="9.2017810">
	<ele>1204.40</ele>
	<time>2025-02-15T10:22:44.000Z</time>
</trkpt>
<trkpt lat="45.8582120" lon="9.2017620">
	<ele>1204.40</ele>
	<time>2025-02-15T10:22:45.000Z</time>
</trkpt>
<trkpt lat="45.8582110" lon="9.2017300">
	<ele>1204.40</ele>
	<time>2025-02-15T10:22:46.000Z</time>
</trkpt>
<trkpt lat="45.8582060" lon="9.2016970">
	<ele>1204.40</ele>
	<time>2025-02-15T10:22:47.000Z</time>
</trkpt>
<trkpt lat="45.8582000" lon="9.2016890">
	<ele>1204.60</ele>
	<time>2025-02-15T10:22:48.000Z</time>
</trkpt>
<trkpt lat="45.8581910" lon="9.2016810">
	<ele>1204.60</ele>
	<time>2025-02-15T10:22:49.000Z</time>
</trkpt>
<trkpt lat="45.8581850" lon="9.2016690">
	<ele>1204.60</ele>
	<time>2025-02-15T10:22:50.000Z</time>
</trkpt>
<trkpt lat="45.8581790" lon="9.2016540">
	<ele>1204.60</ele>
	<time>2025-02-15T10:22:51.000Z</time>
</trkpt>
<trkpt lat="45.8581700" lon="9.2016220">
	<ele>1204.60</ele>
	<time>2025-02-15T10:22:52.000Z</time>
</trkpt>
<trkpt lat="45.8581710" lon="9.2016040">
	<ele>1204.60</ele>
	<time>2025-02-15T10:22:53.000Z</time>
</trkpt>
<trkpt lat="45.8581650" lon="9.2016030">
	<ele>1204.80</ele>
	<time>2025-02-15T10:22:54.000Z</time>
</trkpt>
<trkpt lat="45.8581500" lon="9.2016060">
	<ele>1204.80</ele>
	<time>2025-02-15T10:22:55.000Z</time>
</trkpt>
<trkpt lat="45.8581310" lon="9.2016120">
	<ele>1205.00</ele>
	<time>2025-02-15T10:22:56.000Z</time>
</trkpt>
<trkpt lat="45.8581210" lon="9.2016070">
	<ele>1205.00</ele>
	<time>2025-02-15T10:22:57.000Z</time>
</trkpt>
<trkpt lat="45.8581140" lon="9.2015820">
	<ele>1205.00</ele>
	<time>2025-02-15T10:22:58.000Z</time>
</trkpt>
<trkpt lat="45.8581090" lon="9.2015590">
	<ele>1205.00</ele>
	<time>2025-02-15T10:22:59.000Z</time>
</trkpt>
<trkpt lat="45.8580970" lon="9.2015550">
	<ele>1205.00</ele>
	<time>2025-02-15T10:23:00.000Z</time>
</trkpt>
<trkpt lat="45.8580860" lon="9.2015660">
	<ele>1205.20</ele>
	<time>2025-02-15T10:23:01.000Z</time>
</trkpt>
<trkpt lat="45.8580730" lon="9.2015670">
	<ele>1205.20</ele>
	<time>2025-02-15T10:23:02.000Z</time>
</trkpt>
<trkpt lat="45.8580610" lon="9.2015570">
	<ele>1205.20</ele>
	<time>2025-02-15T10:23:03.000Z</time>
</trkpt>
<trkpt lat="45.8580550" lon="9.2015260">
	<ele>1205.20</ele>
	<time>2025-02-15T10:23:04.000Z</time>
</trkpt>
<trkpt lat="45.8580570" lon="9.2015080">
	<ele>1205.20</ele>
	<time>2025-02-15T10:23:05.000Z</time>
</trkpt>
<trkpt lat="45.8580570" lon="9.2015050">
	<ele>1205.40</ele>
	<time>2025-02-15T10:23:06.000Z</time>
</trkpt>
<trkpt lat="45.8580520" lon="9.2015010">
	<ele>1205.60</ele>
	<time>2025-02-15T10:23:07.000Z</time>
</trkpt>
<trkpt lat="45.8580460" lon="9.2014910">
	<ele>1205.60</ele>
	<time>2025-02-15T10:23:08.000Z</time>
</trkpt>
<trkpt lat="45.8580400" lon="9.2014840">
	<ele>1205.80</ele>
	<time>2025-02-15T10:23:09.000Z</time>
</trkpt>
<trkpt lat="45.8580320" lon="9.2014800">
	<ele>1205.80</ele>
	<time>2025-02-15T10:23:10.000Z</time>
</trkpt>
<trkpt lat="45.8580250" lon="9.2014760">
	<ele>1206.00</ele>
	<time>2025-02-15T10:23:11.000Z</time>
</trkpt>
<trkpt lat="45.8580230" lon="9.2014710">
	<ele>1206.00</ele>
	<time>2025-02-15T10:23:12.000Z</time>
</trkpt>
<trkpt lat="45.8580180" lon="9.2014690">
	<ele>1206.20</ele>
	<time>2025-02-15T10:23:13.000Z</time>
</trkpt>
<trkpt lat="45.8580110" lon="9.2014660">
	<ele>1206.20</ele>
	<time>2025-02-15T10:23:14.000Z</time>
</trkpt>
<trkpt lat="45.8580060" lon="9.2014550">
	<ele>1206.20</ele>
	<time>2025-02-15T10:23:15.000Z</time>
</trkpt>
<trkpt lat="45.8580000" lon="9.2014420">
	<ele>1206.20</ele>
	<time>2025-02-15T10:23:16.000Z</time>
</trkpt>
<trkpt lat="45.8579950" lon="9.2014270">
	<ele>1206.20</ele>
	<time>2025-02-15T10:23:17.000Z</time>
</trkpt>
<trkpt lat="45.8579880" lon="9.2014170">
	<ele>1206.20</ele>
	<time>2025-02-15T10:23:18.000Z</time>
</trkpt>
<trkpt lat="45.8579840" lon="9.2014110">
	<ele>1206.20</ele>
	<time>2025-02-15T10:23:19.000Z</time>
</trkpt>
<trkpt lat="45.8579810" lon="9.2013950">
	<ele>1206.20</ele>
	<time>2025-02-15T10:23:20.000Z</time>
</trkpt>
<trkpt lat="45.8579770" lon="9.2013840">
	<ele>1206.40</ele>
	<time>2025-02-15T10:23:21.000Z</time>
</trkpt>
<trkpt lat="45.8579720" lon="9.2013770">
	<ele>1206.40</ele>
	<time>2025-02-15T10:23:22.000Z</time>
</trkpt>
<trkpt lat="45.8579640" lon="9.2013670">
	<ele>1206.60</ele>
	<time>2025-02-15T10:23:23.000Z</time>
</trkpt>
<trkpt lat="45.8579580" lon="9.2013500">
	<ele>1206.60</ele>
	<time>2025-02-15T10:23:24.000Z</time>
</trkpt>
<trkpt lat="45.8579540" lon="9.2013310">
	<ele>1206.80</ele>
	<time>2025-02-15T10:23:25.000Z</time>
</trkpt>
<trkpt lat="45.8579480" lon="9.2013140">
	<ele>1206.80</ele>
	<time>2025-02-15T10:23:26.000Z</time>
</trkpt>
<trkpt lat="45.8579390" lon="9.2012960">
	<ele>1206.80</ele>
	<time>2025-02-15T10:23:27.000Z</time>
</trkpt>
<trkpt lat="45.8579300" lon="9.2012760">
	<ele>1206.80</ele>
	<time>2025-02-15T10:23:28.000Z</time>
</trkpt>
<trkpt lat="45.8579250" lon="9.2012570">
	<ele>1206.80</ele>
	<time>2025-02-15T10:23:29.000Z</time>
</trkpt>
<trkpt lat="45.8579200" lon="9.2012410">
	<ele>1206.60</ele>
	<time>2025-02-15T10:23:30.000Z</time>
</trkpt>
<trkpt lat="45.8579130" lon="9.2012350">
	<ele>1206.60</ele>
	<time>2025-02-15T10:23:31.000Z</time>
</trkpt>
<trkpt lat="45.8579070" lon="9.2012300">
	<ele>1206.40</ele>
	<time>2025-02-15T10:23:32.000Z</time>
</trkpt>
<trkpt lat="45.8578960" lon="9.2012200">
	<ele>1206.40</ele>
	<time>2025-02-15T10:23:33.000Z</time>
</trkpt>
<trkpt lat="45.8578890" lon="9.2012090">
	<ele>1206.20</ele>
	<time>2025-02-15T10:23:34.000Z</time>
</trkpt>
<trkpt lat="45.8578820" lon="9.2011970">
	<ele>1206.20</ele>
	<time>2025-02-15T10:23:35.000Z</time>
</trkpt>
<trkpt lat="45.8578720" lon="9.2011930">
	<ele>1206.20</ele>
	<time>2025-02-15T10:23:36.000Z</time>
</trkpt>
<trkpt lat="45.8578640" lon="9.2011790">
	<ele>1206.20</ele>
	<time>2025-02-15T10:23:37.000Z</time>
</trkpt>
<trkpt lat="45.8578570" lon="9.2011660">
	<ele>1206.20</ele>
	<time>2025-02-15T10:23:38.000Z</time>
</trkpt>
<trkpt lat="45.8578440" lon="9.2011600">
	<ele>1206.20</ele>
	<time>2025-02-15T10:23:39.000Z</time>
</trkpt>
<trkpt lat="45.8578310" lon="9.2011580">
	<ele>1206.20</ele>
	<time>2025-02-15T10:23:40.000Z</time>
</trkpt>
<trkpt lat="45.8578210" lon="9.2011530">
	<ele>1206.00</ele>
	<time>2025-02-15T10:23:41.000Z</time>
</trkpt>
<trkpt lat="45.8578140" lon="9.2011370">
	<ele>1206.00</ele>
	<time>2025-02-15T10:23:42.000Z</time>
</trkpt>
<trkpt lat="45.8578080" lon="9.2011190">
	<ele>1206.00</ele>
	<time>2025-02-15T10:23:43.000Z</time>
</trkpt>
<trkpt lat="45.8578040" lon="9.2010910">
	<ele>1206.00</ele>
	<time>2025-02-15T10:23:44.000Z</time>
</trkpt>
<trkpt lat="45.8577980" lon="9.2010790">
	<ele>1206.00</ele>
	<time>2025-02-15T10:23:45.000Z</time>
</trkpt>
<trkpt lat="45.8577940" lon="9.2010720">
	<ele>1206.00</ele>
	<time>2025-02-15T10:23:46.000Z</time>
</trkpt>
<trkpt lat="45.8577910" lon="9.2010640">
	<ele>1206.00</ele>
	<time>2025-02-15T10:23:47.000Z</time>
</trkpt>
<trkpt lat="45.8577930" lon="9.2010530">
	<ele>1206.00</ele>
	<time>2025-02-15T10:23:48.000Z</time>
</trkpt>
<trkpt lat="45.8577960" lon="9.2010310">
	<ele>1206.00</ele>
	<time>2025-02-15T10:23:49.000Z</time>
</trkpt>
<trkpt lat="45.8577970" lon="9.2010060">
	<ele>1206.00</ele>
	<time>2025-02-15T10:23:50.000Z</time>
</trkpt>
<trkpt lat="45.8577960" lon="9.2009830">
	<ele>1206.00</ele>
	<time>2025-02-15T10:23:51.000Z</time>
</trkpt>
<trkpt lat="45.8577870" lon="9.2009630">
	<ele>1206.00</ele>
	<time>2025-02-15T10:23:52.000Z</time>
</trkpt>
<trkpt lat="45.8577720" lon="9.2009510">
	<ele>1206.20</ele>
	<time>2025-02-15T10:23:53.000Z</time>
</trkpt>
<trkpt lat="45.8577670" lon="9.2009500">
	<ele>1206.20</ele>
	<time>2025-02-15T10:23:54.000Z</time>
</trkpt>
<trkpt lat="45.8577620" lon="9.2009480">
	<ele>1206.20</ele>
	<time>2025-02-15T10:23:55.000Z</time>
</trkpt>
<trkpt lat="45.8577550" lon="9.2009380">
	<ele>1206.20</ele>
	<time>2025-02-15T10:23:56.000Z</time>
</trkpt>
<trkpt lat="45.8577460" lon="9.2009260">
	<ele>1206.40</ele>
	<time>2025-02-15T10:23:57.000Z</time>
</trkpt>
<trkpt lat="45.8577360" lon="9.2009030">
	<ele>1206.20</ele>
	<time>2025-02-15T10:23:58.000Z</time>
</trkpt>
<trkpt lat="45.8577320" lon="9.2008760">
	<ele>1206.20</ele>
	<time>2025-02-15T10:23:59.000Z</time>
</trkpt>
<trkpt lat="45.8577230" lon="9.2008550">
	<ele>1206.20</ele>
	<time>2025-02-15T10:24:00.000Z</time>
</trkpt>
<trkpt lat="45.8577250" lon="9.2008290">
	<ele>1206.20</ele>
	<time>2025-02-15T10:24:01.000Z</time>
</trkpt>
<trkpt lat="45.8577340" lon="9.2008170">
	<ele>1206.20</ele>
	<time>2025-02-15T10:24:02.000Z</time>
</trkpt>
<trkpt lat="45.8577380" lon="9.2007900">
	<ele>1206.20</ele>
	<time>2025-02-15T10:24:03.000Z</time>
</trkpt>
<trkpt lat="45.8577320" lon="9.2007560">
	<ele>1206.20</ele>
	<time>2025-02-15T10:24:04.000Z</time>
</trkpt>
<trkpt lat="45.8577200" lon="9.2007290">
	<ele>1206.20</ele>
	<time>2025-02-15T10:24:05.000Z</time>
</trkpt>
<trkpt lat="45.8577140" lon="9.2007120">
	<ele>1206.20</ele>
	<time>2025-02-15T10:24:06.000Z</time>
</trkpt>
<trkpt lat="45.8577070" lon="9.2007050">
	<ele>1206.20</ele>
	<time>2025-02-15T10:24:07.000Z</time>
</trkpt>
<trkpt lat="45.8576990" lon="9.2006950">
	<ele>1206.20</ele>
	<time>2025-02-15T10:24:08.000Z</time>
</trkpt>
<trkpt lat="45.8576940" lon="9.2006810">
	<ele>1206.00</ele>
	<time>2025-02-15T10:24:09.000Z</time>
</trkpt>
<trkpt lat="45.8576880" lon="9.2006410">
	<ele>1206.00</ele>
	<time>2025-02-15T10:24:10.000Z</time>
</trkpt>
<trkpt lat="45.8576890" lon="9.2006250">
	<ele>1206.00</ele>
	<time>2025-02-15T10:24:11.000Z</time>
</trkpt>
<trkpt lat="45.8576890" lon="9.2006190">
	<ele>1206.00</ele>
	<time>2025-02-15T10:24:12.000Z</time>
</trkpt>
<trkpt lat="45.8576860" lon="9.2006070">
	<ele>1206.20</ele>
	<time>2025-02-15T10:24:13.000Z</time>
</trkpt>
<trkpt lat="45.8576830" lon="9.2005960">
	<ele>1206.40</ele>
	<time>2025-02-15T10:24:14.000Z</time>
</trkpt>
<trkpt lat="45.8576790" lon="9.2005760">
	<ele>1206.40</ele>
	<time>2025-02-15T10:24:15.000Z</time>
</trkpt>
<trkpt lat="45.8576690" lon="9.2005550">
	<ele>1206.40</ele>
	<time>2025-02-15T10:24:16.000Z</time>
</trkpt>
<trkpt lat="45.8576640" lon="9.2005500">
	<ele>1206.40</ele>
	<time>2025-02-15T10:24:17.000Z</time>
</trkpt>
<trkpt lat="45.8576610" lon="9.2005420">
	<ele>1206.40</ele>
	<time>2025-02-15T10:24:18.000Z</time>
</trkpt>
<trkpt lat="45.8576610" lon="9.2005230">
	<ele>1206.60</ele>
	<time>2025-02-15T10:24:19.000Z</time>
</trkpt>
<trkpt lat="45.8576570" lon="9.2004980">
	<ele>1206.60</ele>
	<time>2025-02-15T10:24:20.000Z</time>
</trkpt>
<trkpt lat="45.8576500" lon="9.2004880">
	<ele>1206.40</ele>
	<time>2025-02-15T10:24:21.000Z</time>
</trkpt>
<trkpt lat="45.8576430" lon="9.2004780">
	<ele>1206.40</ele>
	<time>2025-02-15T10:24:22.000Z</time>
</trkpt>
<trkpt lat="45.8576380" lon="9.2004700">
	<ele>1206.60</ele>
	<time>2025-02-15T10:24:23.000Z</time>
</trkpt>
<trkpt lat="45.8576340" lon="9.2004650">
	<ele>1206.40</ele>
	<time>2025-02-15T10:24:24.000Z</time>
</trkpt>
<trkpt lat="45.8576300" lon="9.2004500">
	<ele>1206.60</ele>
	<time>2025-02-15T10:24:25.000Z</time>
</trkpt>
<trkpt lat="45.8576280" lon="9.2004380">
	<ele>1206.60</ele>
	<time>2025-02-15T10:24:26.000Z</time>
</trkpt>
<trkpt lat="45.8576230" lon="9.2004300">
	<ele>1206.80</ele>
	<time>2025-02-15T10:24:27.000Z</time>
</trkpt>
<trkpt lat="45.8576190" lon="9.2004210">
	<ele>1206.80</ele>
	<time>2025-02-15T10:24:28.000Z</time>
</trkpt>
<trkpt lat="45.8576140" lon="9.2004120">
	<ele>1206.80</ele>
	<time>2025-02-15T10:24:29.000Z</time>
</trkpt>
<trkpt lat="45.8576070" lon="9.2003990">
	<ele>1207.00</ele>
	<time>2025-02-15T10:24:30.000Z</time>
</trkpt>
<trkpt lat="45.8575980" lon="9.2003900">
	<ele>1207.00</ele>
	<time>2025-02-15T10:24:31.000Z</time>
</trkpt>
<trkpt lat="45.8575890" lon="9.2003810">
	<ele>1207.00</ele>
	<time>2025-02-15T10:24:32.000Z</time>
</trkpt>
<trkpt lat="45.8575820" lon="9.2003730">
	<ele>1207.00</ele>
	<time>2025-02-15T10:24:33.000Z</time>
</trkpt>
<trkpt lat="45.8575790" lon="9.2003640">
	<ele>1207.00</ele>
	<time>2025-02-15T10:24:34.000Z</time>
</trkpt>
<trkpt lat="45.8575770" lon="9.2003530">
	<ele>1207.00</ele>
	<time>2025-02-15T10:24:35.000Z</time>
</trkpt>
<trkpt lat="45.8575650" lon="9.2003410">
	<ele>1207.00</ele>
	<time>2025-02-15T10:24:36.000Z</time>
</trkpt>
<trkpt lat="45.8575500" lon="9.2003290">
	<ele>1207.00</ele>
	<time>2025-02-15T10:24:37.000Z</time>
</trkpt>
<trkpt lat="45.8575400" lon="9.2003210">
	<ele>1207.00</ele>
	<time>2025-02-15T10:24:38.000Z</time>
</trkpt>
<trkpt lat="45.8575320" lon="9.2003130">
	<ele>1207.00</ele>
	<time>2025-02-15T10:24:39.000Z</time>
</trkpt>
<trkpt lat="45.8575260" lon="9.2003010">
	<ele>1207.00</ele>
	<time>2025-02-15T10:24:40.000Z</time>
</trkpt>
<trkpt lat="45.8575200" lon="9.2002860">
	<ele>1207.00</ele>
	<time>2025-02-15T10:24:41.000Z</time>
</trkpt>
<trkpt lat="45.8575080" lon="9.2002660">
	<ele>1207.00</ele>
	<time>2025-02-15T10:24:42.000Z</time>
</trkpt>
<trkpt lat="45.8575000" lon="9.2002550">
	<ele>1207.00</ele>
	<time>2025-02-15T10:24:43.000Z</time>
</trkpt>
<trkpt lat="45.8574930" lon="9.2002470">
	<ele>1207.00</ele>
	<time>2025-02-15T10:24:44.000Z</time>
</trkpt>
<trkpt lat="45.8574850" lon="9.2002390">
	<ele>1207.00</ele>
	<time>2025-02-15T10:24:45.000Z</time>
</trkpt>
<trkpt lat="45.8574790" lon="9.2002230">
	<ele>1207.00</ele>
	<time>2025-02-15T10:24:46.000Z</time>
</trkpt>
<trkpt lat="45.8574670" lon="9.2002010">
	<ele>1207.00</ele>
	<time>2025-02-15T10:24:47.000Z</time>
</trkpt>
<trkpt lat="45.8574580" lon="9.2001910">
	<ele>1207.00</ele>
	<time>2025-02-15T10:24:48.000Z</time>
</trkpt>
<trkpt lat="45.8574470" lon="9.2001710">
	<ele>1207.00</ele>
	<time>2025-02-15T10:24:49.000Z</time>
</trkpt>
<trkpt lat="45.8574360" lon="9.2001650">
	<ele>1207.00</ele>
	<time>2025-02-15T10:24:50.000Z</time>
</trkpt>
<trkpt lat="45.8574250" lon="9.2001590">
	<ele>1207.00</ele>
	<time>2025-02-15T10:24:51.000Z</time>
</trkpt>
<trkpt lat="45.8574240" lon="9.2001550">
	<ele>1207.20</ele>
	<time>2025-02-15T10:24:52.000Z</time>
</trkpt>
<trkpt lat="45.8574190" lon="9.2001460">
	<ele>1207.20</ele>
	<time>2025-02-15T10:24:53.000Z</time>
</trkpt>
<trkpt lat="45.8574140" lon="9.2001340">
	<ele>1207.20</ele>
	<time>2025-02-15T10:24:54.000Z</time>
</trkpt>
<trkpt lat="45.8574060" lon="9.2001220">
	<ele>1207.40</ele>
	<time>2025-02-15T10:24:55.000Z</time>
</trkpt>
<trkpt lat="45.8573970" lon="9.2001110">
	<ele>1207.40</ele>
	<time>2025-02-15T10:24:56.000Z</time>
</trkpt>
<trkpt lat="45.8573890" lon="9.2000990">
	<ele>1207.60</ele>
	<time>2025-02-15T10:24:57.000Z</time>
</trkpt>
<trkpt lat="45.8573800" lon="9.2000890">
	<ele>1207.60</ele>
	<time>2025-02-15T10:24:58.000Z</time>
</trkpt>
<trkpt lat="45.8573710" lon="9.2000830">
	<ele>1207.60</ele>
	<time>2025-02-15T10:24:59.000Z</time>
</trkpt>
<trkpt lat="45.8573580" lon="9.2000770">
	<ele>1207.80</ele>
	<time>2025-02-15T10:25:00.000Z</time>
</trkpt>
<trkpt lat="45.8573450" lon="9.2000690">
	<ele>1208.00</ele>
	<time>2025-02-15T10:25:01.000Z</time>
</trkpt>
<trkpt lat="45.8573320" lon="9.2000630">
	<ele>1208.00</ele>
	<time>2025-02-15T10:25:02.000Z</time>
</trkpt>
<trkpt lat="45.8573210" lon="9.2000520">
	<ele>1208.20</ele>
	<time>2025-02-15T10:25:03.000Z</time>
</trkpt>
<trkpt lat="45.8573100" lon="9.2000370">
	<ele>1208.20</ele>
	<time>2025-02-15T10:25:04.000Z</time>
</trkpt>
<trkpt lat="45.8573020" lon="9.2000260">
	<ele>1208.00</ele>
	<time>2025-02-15T10:25:05.000Z</time>
</trkpt>
<trkpt lat="45.8572940" lon="9.2000170">
	<ele>1208.20</ele>
	<time>2025-02-15T10:25:06.000Z</time>
</trkpt>
<trkpt lat="45.8572850" lon="9.2000030">
	<ele>1208.00</ele>
	<time>2025-02-15T10:25:07.000Z</time>
</trkpt>
<trkpt lat="45.8572720" lon="9.1999990">
	<ele>1207.80</ele>
	<time>2025-02-15T10:25:08.000Z</time>
</trkpt>
<trkpt lat="45.8572590" lon="9.1999900">
	<ele>1207.80</ele>
	<time>2025-02-15T10:25:09.000Z</time>
</trkpt>
<trkpt lat="45.8572520" lon="9.1999790">
	<ele>1207.80</ele>
	<time>2025-02-15T10:25:10.000Z</time>
</trkpt>
<trkpt lat="45.8572480" lon="9.1999650">
	<ele>1208.00</ele>
	<time>2025-02-15T10:25:11.000Z</time>
</trkpt>
<trkpt lat="45.8572420" lon="9.1999490">
	<ele>1208.20</ele>
	<time>2025-02-15T10:25:12.000Z</time>
</trkpt>
<trkpt lat="45.8572370" lon="9.1999370">
	<ele>1208.20</ele>
	<time>2025-02-15T10:25:13.000Z</time>
</trkpt>
<trkpt lat="45.8572350" lon="9.1999280">
	<ele>1208.20</ele>
	<time>2025-02-15T10:25:14.000Z</time>
</trkpt>
<trkpt lat="45.8572290" lon="9.1999150">
	<ele>1208.40</ele>
	<time>2025-02-15T10:25:15.000Z</time>
</trkpt>
<trkpt lat="45.8572200" lon="9.1999090">
	<ele>1208.40</ele>
	<time>2025-02-15T10:25:16.000Z</time>
</trkpt>
<trkpt lat="45.8572090" lon="9.1999050">
	<ele>1208.60</ele>
	<time>2025-02-15T10:25:17.000Z</time>
</trkpt>
<trkpt lat="45.8571980" lon="9.1999040">
	<ele>1208.80</ele>
	<time>2025-02-15T10:25:18.000Z</time>
</trkpt>
<trkpt lat="45.8571930" lon="9.1998940">
	<ele>1209.00</ele>
	<time>2025-02-15T10:25:19.000Z</time>
</trkpt>
<trkpt lat="45.8571860" lon="9.1998950">
	<ele>1209.20</ele>
	<time>2025-02-15T10:25:20.000Z</time>
</trkpt>
<trkpt lat="45.8571830" lon="9.1998820">
	<ele>1209.20</ele>
	<time>2025-02-15T10:25:21.000Z</time>
</trkpt>
<trkpt lat="45.8571800" lon="9.1998810">
	<ele>1209.40</ele>
	<time>2025-02-15T10:25:22.000Z</time>
</trkpt>
<trkpt lat="45.8571630" lon="9.1998610">
	<ele>1209.40</ele>
	<time>2025-02-15T10:25:23.000Z</time>
</trkpt>
<trkpt lat="45.8571630" lon="9.1998590">
	<ele>1209.60</ele>
	<time>2025-02-15T10:25:24.000Z</time>
</trkpt>
<trkpt lat="45.8571510" lon="9.1998620">
	<ele>1209.60</ele>
	<time>2025-02-15T10:25:25.000Z</time>
</trkpt>
<trkpt lat="45.8571380" lon="9.1998510">
	<ele>1209.60</ele>
	<time>2025-02-15T10:25:26.000Z</time>
</trkpt>
<trkpt lat="45.8571310" lon="9.1998430">
	<ele>1209.80</ele>
	<time>2025-02-15T10:25:27.000Z</time>
</trkpt>
<trkpt lat="45.8571300" lon="9.1998450">
	<ele>1209.80</ele>
	<time>2025-02-15T10:25:28.000Z</time>
</trkpt>
<trkpt lat="45.8571260" lon="9.1998330">
	<ele>1209.80</ele>
	<time>2025-02-15T10:25:29.000Z</time>
</trkpt>
<trkpt lat="45.8571250" lon="9.1998220">
	<ele>1210.00</ele>
	<time>2025-02-15T10:25:30.000Z</time>
</trkpt>
<trkpt lat="45.8571170" lon="9.1998150">
	<ele>1210.20</ele>
	<time>2025-02-15T10:25:31.000Z</time>
</trkpt>
<trkpt lat="45.8571100" lon="9.1998070">
	<ele>1210.20</ele>
	<time>2025-02-15T10:25:32.000Z</time>
</trkpt>
<trkpt lat="45.8571050" lon="9.1998050">
	<ele>1210.40</ele>
	<time>2025-02-15T10:25:33.000Z</time>
</trkpt>
<trkpt lat="45.8570960" lon="9.1998130">
	<ele>1210.40</ele>
	<time>2025-02-15T10:25:34.000Z</time>
</trkpt>
<trkpt lat="45.8570850" lon="9.1998030">
	<ele>1210.60</ele>
	<time>2025-02-15T10:25:35.000Z</time>
</trkpt>
<trkpt lat="45.8570770" lon="9.1997930">
	<ele>1210.80</ele>
	<time>2025-02-15T10:25:36.000Z</time>
</trkpt>
<trkpt lat="45.8570670" lon="9.1997860">
	<ele>1211.00</ele>
	<time>2025-02-15T10:25:37.000Z</time>
</trkpt>
<trkpt lat="45.8570580" lon="9.1997810">
	<ele>1211.20</ele>
	<time>2025-02-15T10:25:38.000Z</time>
</trkpt>
<trkpt lat="45.8570420" lon="9.1997760">
	<ele>1211.20</ele>
	<time>2025-02-15T10:25:39.000Z</time>
</trkpt>
<trkpt lat="45.8570290" lon="9.1997710">
	<ele>1211.20</ele>
	<time>2025-02-15T10:25:40.000Z</time>
</trkpt>
<trkpt lat="45.8570170" lon="9.1997670">
	<ele>1211.40</ele>
	<time>2025-02-15T10:25:41.000Z</time>
</trkpt>
<trkpt lat="45.8570070" lon="9.1997660">
	<ele>1211.60</ele>
	<time>2025-02-15T10:25:42.000Z</time>
</trkpt>
<trkpt lat="45.8569980" lon="9.1997690">
	<ele>1211.80</ele>
	<time>2025-02-15T10:25:43.000Z</time>
</trkpt>
<trkpt lat="45.8569920" lon="9.1997720">
	<ele>1211.80</ele>
	<time>2025-02-15T10:25:44.000Z</time>
</trkpt>
<trkpt lat="45.8569830" lon="9.1997520">
	<ele>1212.00</ele>
	<time>2025-02-15T10:25:45.000Z</time>
</trkpt>
<trkpt lat="45.8569720" lon="9.1997320">
	<ele>1212.00</ele>
	<time>2025-02-15T10:25:46.000Z</time>
</trkpt>
<trkpt lat="45.8569670" lon="9.1997380">
	<ele>1212.00</ele>
	<time>2025-02-15T10:25:47.000Z</time>
</trkpt>
<trkpt lat="45.8569600" lon="9.1997380">
	<ele>1212.00</ele>
	<time>2025-02-15T10:25:48.000Z</time>
</trkpt>
<trkpt lat="45.8569610" lon="9.1997290">
	<ele>1212.00</ele>
	<time>2025-02-15T10:25:49.000Z</time>
</trkpt>
<trkpt lat="45.8569650" lon="9.1997120">
	<ele>1212.20</ele>
	<time>2025-02-15T10:25:50.000Z</time>
</trkpt>
<trkpt lat="45.8569630" lon="9.1996980">
	<ele>1212.20</ele>
	<time>2025-02-15T10:25:51.000Z</time>
</trkpt>
<trkpt lat="45.8569540" lon="9.1996840">
	<ele>1212.20</ele>
	<time>2025-02-15T10:25:52.000Z</time>
</trkpt>
<trkpt lat="45.8569510" lon="9.1996760">
	<ele>1212.40</ele>
	<time>2025-02-15T10:25:53.000Z</time>
</trkpt>
<trkpt lat="45.8569510" lon="9.1996640">
	<ele>1212.40</ele>
	<time>2025-02-15T10:25:54.000Z</time>
</trkpt>
<trkpt lat="45.8569550" lon="9.1996570">
	<ele>1212.60</ele>
	<time>2025-02-15T10:25:55.000Z</time>
</trkpt>
<trkpt lat="45.8569580" lon="9.1996520">
	<ele>1212.60</ele>
	<time>2025-02-15T10:25:56.000Z</time>
</trkpt>
<trkpt lat="45.8569600" lon="9.1996460">
	<ele>1212.60</ele>
	<time>2025-02-15T10:25:57.000Z</time>
</trkpt>
<trkpt lat="45.8569650" lon="9.1996310">
	<ele>1212.60</ele>
	<time>2025-02-15T10:25:58.000Z</time>
</trkpt>
<trkpt lat="45.8569690" lon="9.1996150">
	<ele>1212.60</ele>
	<time>2025-02-15T10:25:59.000Z</time>
</trkpt>
<trkpt lat="45.8569680" lon="9.1996010">
	<ele>1212.60</ele>
	<time>2025-02-15T10:26:00.000Z</time>
</trkpt>
<trkpt lat="45.8569690" lon="9.1995850">
	<ele>1212.40</ele>
	<time>2025-02-15T10:26:01.000Z</time>
</trkpt>
<trkpt lat="45.8569740" lon="9.1995680">
	<ele>1212.20</ele>
	<time>2025-02-15T10:26:02.000Z</time>
</trkpt>
<trkpt lat="45.8569790" lon="9.1995580">
	<ele>1212.20</ele>
	<time>2025-02-15T10:26:03.000Z</time>
</trkpt>
<trkpt lat="45.8569800" lon="9.1995440">
	<ele>1212.20</ele>
	<time>2025-02-15T10:26:04.000Z</time>
</trkpt>
<trkpt lat="45.8569810" lon="9.1995290">
	<ele>1212.00</ele>
	<time>2025-02-15T10:26:05.000Z</time>
</trkpt>
<trkpt lat="45.8569850" lon="9.1995100">
	<ele>1212.00</ele>
	<time>2025-02-15T10:26:06.000Z</time>
</trkpt>
<trkpt lat="45.8569920" lon="9.1994930">
	<ele>1212.00</ele>
	<time>2025-02-15T10:26:07.000Z</time>
</trkpt>
<trkpt lat="45.8569980" lon="9.1994800">
	<ele>1212.00</ele>
	<time>2025-02-15T10:26:08.000Z</time>
</trkpt>
<trkpt lat="45.8570050" lon="9.1994770">
	<ele>1211.80</ele>
	<time>2025-02-15T10:26:09.000Z</time>
</trkpt>
<trkpt lat="45.8570060" lon="9.1994690">
	<ele>1211.80</ele>
	<time>2025-02-15T10:26:10.000Z</time>
</trkpt>
<trkpt lat="45.8570080" lon="9.1994620">
	<ele>1211.80</ele>
	<time>2025-02-15T10:26:11.000Z</time>
</trkpt>
<trkpt lat="45.8570160" lon="9.1994440">
	<ele>1211.80</ele>
	<time>2025-02-15T10:26:12.000Z</time>
</trkpt>
<trkpt lat="45.8570170" lon="9.1994280">
	<ele>1211.80</ele>
	<time>2025-02-15T10:26:13.000Z</time>
</trkpt>
<trkpt lat="45.8570200" lon="9.1994130">
	<ele>1211.80</ele>
	<time>2025-02-15T10:26:14.000Z</time>
</trkpt>
<trkpt lat="45.8570340" lon="9.1994040">
	<ele>1212.00</ele>
	<time>2025-02-15T10:26:15.000Z</time>
</trkpt>
<trkpt lat="45.8570450" lon="9.1993920">
	<ele>1212.00</ele>
	<time>2025-02-15T10:26:16.000Z</time>
</trkpt>
<trkpt lat="45.8570550" lon="9.1993840">
	<ele>1212.00</ele>
	<time>2025-02-15T10:26:17.000Z</time>
</trkpt>
<trkpt lat="45.8570590" lon="9.1993700">
	<ele>1212.00</ele>
	<time>2025-02-15T10:26:18.000Z</time>
</trkpt>
<trkpt lat="45.8570610" lon="9.1993610">
	<ele>1212.00</ele>
	<time>2025-02-15T10:26:19.000Z</time>
</trkpt>
<trkpt lat="45.8570600" lon="9.1993340">
	<ele>1212.00</ele>
	<time>2025-02-15T10:26:20.000Z</time>
</trkpt>
<trkpt lat="45.8570590" lon="9.1993100">
	<ele>1212.00</ele>
	<time>2025-02-15T10:26:21.000Z</time>
</trkpt>
<trkpt lat="45.8570580" lon="9.1992980">
	<ele>1212.00</ele>
	<time>2025-02-15T10:26:22.000Z</time>
</trkpt>
<trkpt lat="45.8570610" lon="9.1992800">
	<ele>1212.20</ele>
	<time>2025-02-15T10:26:23.000Z</time>
</trkpt>
<trkpt lat="45.8570620" lon="9.1992710">
	<ele>1212.20</ele>
	<time>2025-02-15T10:26:24.000Z</time>
</trkpt>
<trkpt lat="45.8570720" lon="9.1992670">
	<ele>1212.20</ele>
	<time>2025-02-15T10:26:25.000Z</time>
</trkpt>
<trkpt lat="45.8570730" lon="9.1992500">
	<ele>1212.20</ele>
	<time>2025-02-15T10:26:26.000Z</time>
</trkpt>
<trkpt lat="45.8570730" lon="9.1992310">
	<ele>1212.20</ele>
	<time>2025-02-15T10:26:27.000Z</time>
</trkpt>
<trkpt lat="45.8570720" lon="9.1992120">
	<ele>1212.20</ele>
	<time>2025-02-15T10:26:28.000Z</time>
</trkpt>
<trkpt lat="45.8570680" lon="9.1991950">
	<ele>1212.20</ele>
	<time>2025-02-15T10:26:29.000Z</time>
</trkpt>
<trkpt lat="45.8570670" lon="9.1991760">
	<ele>1212.20</ele>
	<time>2025-02-15T10:26:30.000Z</time>
</trkpt>
<trkpt lat="45.8570670" lon="9.1991590">
	<ele>1212.20</ele>
	<time>2025-02-15T10:26:31.000Z</time>
</trkpt>
<trkpt lat="45.8570650" lon="9.1991510">
	<ele>1212.00</ele>
	<time>2025-02-15T10:26:32.000Z</time>
</trkpt>
<trkpt lat="45.8570660" lon="9.1991350">
	<ele>1212.20</ele>
	<time>2025-02-15T10:26:33.000Z</time>
</trkpt>
<trkpt lat="45.8570630" lon="9.1991150">
	<ele>1212.20</ele>
	<time>2025-02-15T10:26:34.000Z</time>
</trkpt>
<trkpt lat="45.8570630" lon="9.1990960">
	<ele>1212.00</ele>
	<time>2025-02-15T10:26:35.000Z</time>
</trkpt>
<trkpt lat="45.8570630" lon="9.1990810">
	<ele>1211.80</ele>
	<time>2025-02-15T10:26:36.000Z</time>
</trkpt>
<trkpt lat="45.8570620" lon="9.1990750">
	<ele>1212.00</ele>
	<time>2025-02-15T10:26:37.000Z</time>
</trkpt>
<trkpt lat="45.8570640" lon="9.1990640">
	<ele>1212.00</ele>
	<time>2025-02-15T10:26:38.000Z</time>
</trkpt>
<trkpt lat="45.8570630" lon="9.1990510">
	<ele>1212.00</ele>
	<time>2025-02-15T10:26:39.000Z</time>
</trkpt>
<trkpt lat="45.8570580" lon="9.1990360">
	<ele>1212.00</ele>
	<time>2025-02-15T10:26:40.000Z</time>
</trkpt>
<trkpt lat="45.8570550" lon="9.1990230">
	<ele>1212.00</ele>
	<time>2025-02-15T10:26:41.000Z</time>
</trkpt>
<trkpt lat="45.8570570" lon="9.1990050">
	<ele>1212.00</ele>
	<time>2025-02-15T10:26:42.000Z</time>
</trkpt>
<trkpt lat="45.8570570" lon="9.1989830">
	<ele>1212.00</ele>
	<time>2025-02-15T10:26:43.000Z</time>
</trkpt>
<trkpt lat="45.8570560" lon="9.1989650">
	<ele>1212.20</ele>
	<time>2025-02-15T10:26:44.000Z</time>
</trkpt>
<trkpt lat="45.8570540" lon="9.1989520">
	<ele>1212.20</ele>
	<time>2025-02-15T10:26:45.000Z</time>
</trkpt>
<trkpt lat="45.8570560" lon="9.1989450">
	<ele>1212.20</ele>
	<time>2025-02-15T10:26:46.000Z</time>
</trkpt>
<trkpt lat="45.8570550" lon="9.1989410">
	<ele>1212.20</ele>
	<time>2025-02-15T10:26:47.000Z</time>
</trkpt>
<trkpt lat="45.8570560" lon="9.1989360">
	<ele>1212.20</ele>
	<time>2025-02-15T10:26:48.000Z</time>
</trkpt>
<trkpt lat="45.8570660" lon="9.1989120">
	<ele>1212.20</ele>
	<time>2025-02-15T10:26:49.000Z</time>
</trkpt>
<trkpt lat="45.8570730" lon="9.1988860">
	<ele>1212.20</ele>
	<time>2025-02-15T10:26:50.000Z</time>
</trkpt>
<trkpt lat="45.8570840" lon="9.1988660">
	<ele>1212.20</ele>
	<time>2025-02-15T10:26:51.000Z</time>
</trkpt>
<trkpt lat="45.8570910" lon="9.1988450">
	<ele>1212.20</ele>
	<time>2025-02-15T10:26:52.000Z</time>
</trkpt>
<trkpt lat="45.8570960" lon="9.1988240">
	<ele>1212.20</ele>
	<time>2025-02-15T10:26:53.000Z</time>
</trkpt>
<trkpt lat="45.8571120" lon="9.1988050">
	<ele>1212.20</ele>
	<time>2025-02-15T10:26:54.000Z</time>
</trkpt>
<trkpt lat="45.8571230" lon="9.1987910">
	<ele>1212.20</ele>
	<time>2025-02-15T10:26:55.000Z</time>
</trkpt>
<trkpt lat="45.8571320" lon="9.1987710">
	<ele>1212.20</ele>
	<time>2025-02-15T10:26:56.000Z</time>
</trkpt>
<trkpt lat="45.8571300" lon="9.1987570">
	<ele>1212.20</ele>
	<time>2025-02-15T10:26:57.000Z</time>
</trkpt>
<trkpt lat="45.8571210" lon="9.1987400">
	<ele>1212.20</ele>
	<time>2025-02-15T10:26:58.000Z</time>
</trkpt>
<trkpt lat="45.8571050" lon="9.1987130">
	<ele>1212.20</ele>
	<time>2025-02-15T10:26:59.000Z</time>
</trkpt>
<trkpt lat="45.8570970" lon="9.1986860">
	<ele>1212.20</ele>
	<time>2025-02-15T10:27:00.000Z</time>
</trkpt>
<trkpt lat="45.8570940" lon="9.1986660">
	<ele>1212.20</ele>
	<time>2025-02-15T10:27:01.000Z</time>
</trkpt>
<trkpt lat="45.8570930" lon="9.1986500">
	<ele>1212.20</ele>
	<time>2025-02-15T10:27:02.000Z</time>
</trkpt>
<trkpt lat="45.8570890" lon="9.1986350">
	<ele>1212.20</ele>
	<time>2025-02-15T10:27:03.000Z</time>
</trkpt>
<trkpt lat="45.8570850" lon="9.1986280">
	<ele>1212.20</ele>
	<time>2025-02-15T10:27:04.000Z</time>
</trkpt>
<trkpt lat="45.8570860" lon="9.1986130">
	<ele>1212.20</ele>
	<time>2025-02-15T10:27:05.000Z</time>
</trkpt>
<trkpt lat="45.8570830" lon="9.1986000">
	<ele>1212.20</ele>
	<time>2025-02-15T10:27:06.000Z</time>
</trkpt>
<trkpt lat="45.8570790" lon="9.1985850">
	<ele>1212.40</ele>
	<time>2025-02-15T10:27:07.000Z</time>
</trkpt>
<trkpt lat="45.8570770" lon="9.1985690">
	<ele>1212.40</ele>
	<time>2025-02-15T10:27:08.000Z</time>
</trkpt>
<trkpt lat="45.8570730" lon="9.1985510">
	<ele>1212.60</ele>
	<time>2025-02-15T10:27:09.000Z</time>
</trkpt>
<trkpt lat="45.8570670" lon="9.1985460">
	<ele>1212.60</ele>
	<time>2025-02-15T10:27:10.000Z</time>
</trkpt>
<trkpt lat="45.8570600" lon="9.1985490">
	<ele>1212.60</ele>
	<time>2025-02-15T10:27:11.000Z</time>
</trkpt>
<trkpt lat="45.8570510" lon="9.1985530">
	<ele>1212.60</ele>
	<time>2025-02-15T10:27:12.000Z</time>
</trkpt>
<trkpt lat="45.8570480" lon="9.1985430">
	<ele>1212.60</ele>
	<time>2025-02-15T10:27:13.000Z</time>
</trkpt>
<trkpt lat="45.8570430" lon="9.1985260">
	<ele>1212.80</ele>
	<time>2025-02-15T10:27:14.000Z</time>
</trkpt>
<trkpt lat="45.8570400" lon="9.1985090">
	<ele>1212.80</ele>
	<time>2025-02-15T10:27:15.000Z</time>
</trkpt>
<trkpt lat="45.8570370" lon="9.1984940">
	<ele>1212.80</ele>
	<time>2025-02-15T10:27:16.000Z</time>
</trkpt>
<trkpt lat="45.8570320" lon="9.1984770">
	<ele>1212.80</ele>
	<time>2025-02-15T10:27:17.000Z</time>
</trkpt>
<trkpt lat="45.8570330" lon="9.1984370">
	<ele>1212.80</ele>
	<time>2025-02-15T10:27:18.000Z</time>
</trkpt>
<trkpt lat="45.8570300" lon="9.1984140">
	<ele>1212.80</ele>
	<time>2025-02-15T10:27:19.000Z</time>
</trkpt>
<trkpt lat="45.8570260" lon="9.1983910">
	<ele>1213.00</ele>
	<time>2025-02-15T10:27:20.000Z</time>
</trkpt>
<trkpt lat="45.8570250" lon="9.1983660">
	<ele>1213.00</ele>
	<time>2025-02-15T10:27:21.000Z</time>
</trkpt>
<trkpt lat="45.8570180" lon="9.1983450">
	<ele>1213.20</ele>
	<time>2025-02-15T10:27:22.000Z</time>
</trkpt>
<trkpt lat="45.8570140" lon="9.1983280">
	<ele>1213.20</ele>
	<time>2025-02-15T10:27:23.000Z</time>
</trkpt>
<trkpt lat="45.8570100" lon="9.1983160">
	<ele>1213.20</ele>
	<time>2025-02-15T10:27:24.000Z</time>
</trkpt>
<trkpt lat="45.8570070" lon="9.1983030">
	<ele>1213.40</ele>
	<time>2025-02-15T10:27:25.000Z</time>
</trkpt>
<trkpt lat="45.8570010" lon="9.1982750">
	<ele>1213.40</ele>
	<time>2025-02-15T10:27:26.000Z</time>
</trkpt>
<trkpt lat="45.8570000" lon="9.1982580">
	<ele>1213.40</ele>
	<time>2025-02-15T10:27:27.000Z</time>
</trkpt>
<trkpt lat="45.8570030" lon="9.1982540">
	<ele>1213.60</ele>
	<time>2025-02-15T10:27:28.000Z</time>
</trkpt>
<trkpt lat="45.8570050" lon="9.1982470">
	<ele>1213.60</ele>
	<time>2025-02-15T10:27:29.000Z</time>
</trkpt>
<trkpt lat="45.8570040" lon="9.1982410">
	<ele>1213.80</ele>
	<time>2025-02-15T10:27:30.000Z</time>
</trkpt>
<trkpt lat="45.8570090" lon="9.1982350">
	<ele>1214.40</ele>
	<time>2025-02-15T10:27:31.000Z</time>
</trkpt>
<trkpt lat="45.8570080" lon="9.1982300">
	<ele>1214.60</ele>
	<time>2025-02-15T10:27:32.000Z</time>
</trkpt>
<trkpt lat="45.8570160" lon="9.1982300">
	<ele>1214.80</ele>
	<time>2025-02-15T10:27:33.000Z</time>
</trkpt>
<trkpt lat="45.8570160" lon="9.1982250">
	<ele>1215.00</ele>
	<time>2025-02-15T10:27:34.000Z</time>
</trkpt>
<trkpt lat="45.8570160" lon="9.1982270">
	<ele>1215.20</ele>
	<time>2025-02-15T10:27:35.000Z</time>
</trkpt>
<trkpt lat="45.8570120" lon="9.1982210">
	<ele>1215.20</ele>
	<time>2025-02-15T10:27:36.000Z</time>
</trkpt>
<trkpt lat="45.8570110" lon="9.1982190">
	<ele>1215.40</ele>
	<time>2025-02-15T10:27:37.000Z</time>
</trkpt>
<trkpt lat="45.8570080" lon="9.1982190">
	<ele>1215.60</ele>
	<time>2025-02-15T10:27:38.000Z</time>
</trkpt>
<trkpt lat="45.8570060" lon="9.1982160">
	<ele>1215.60</ele>
	<time>2025-02-15T10:27:39.000Z</time>
</trkpt>
<trkpt lat="45.8570060" lon="9.1982130">
	<ele>1215.60</ele>
	<time>2025-02-15T10:27:40.000Z</time>
</trkpt>
<trkpt lat="45.8570070" lon="9.1982080">
	<ele>1215.80</ele>
	<time>2025-02-15T10:27:41.000Z</time>
</trkpt>
<trkpt lat="45.8570080" lon="9.1981990">
	<ele>1215.80</ele>
	<time>2025-02-15T10:27:42.000Z</time>
</trkpt>
<trkpt lat="45.8570060" lon="9.1981950">
	<ele>1215.80</ele>
	<time>2025-02-15T10:27:43.000Z</time>
</trkpt>
<trkpt lat="45.8570050" lon="9.1981930">
	<ele>1215.80</ele>
	<time>2025-02-15T10:27:44.000Z</time>
</trkpt>
<trkpt lat="45.8570040" lon="9.1981900">
	<ele>1216.00</ele>
	<time>2025-02-15T10:27:45.000Z</time>
</trkpt>
<trkpt lat="45.8570030" lon="9.1981860">
	<ele>1216.00</ele>
	<time>2025-02-15T10:27:46.000Z</time>
</trkpt>
<trkpt lat="45.8569950" lon="9.1981750">
	<ele>1216.00</ele>
	<time>2025-02-15T10:27:47.000Z</time>
</trkpt>
<trkpt lat="45.8569920" lon="9.1981690">
	<ele>1216.00</ele>
	<time>2025-02-15T10:27:48.000Z</time>
</trkpt>
<trkpt lat="45.8569910" lon="9.1981680">
	<ele>1216.00</ele>
	<time>2025-02-15T10:27:49.000Z</time>
</trkpt>
<trkpt lat="45.8569910" lon="9.1981680">
	<ele>1216.20</ele>
	<time>2025-02-15T10:27:50.000Z</time>
</trkpt>
<trkpt lat="45.8569910" lon="9.1981680">
	<ele>1216.20</ele>
	<time>2025-02-15T10:27:51.000Z</time>
</trkpt>
<trkpt lat="45.8569910" lon="9.1981680">
	<ele>1216.20</ele>
	<time>2025-02-15T10:27:52.000Z</time>
</trkpt>
<trkpt lat="45.8569910" lon="9.1981680">
	<ele>1216.00</ele>
	<time>2025-02-15T10:27:53.000Z</time>
</trkpt>
<trkpt lat="45.8569910" lon="9.1981680">
	<ele>1216.20</ele>
	<time>2025-02-15T10:27:54.000Z</time>
</trkpt>
<trkpt lat="45.8569910" lon="9.1981680">
	<ele>1216.20</ele>
	<time>2025-02-15T10:27:55.000Z</time>
</trkpt>
<trkpt lat="45.8569910" lon="9.1981680">
	<ele>1216.20</ele>
	<time>2025-02-15T10:27:56.000Z</time>
</trkpt>
<trkpt lat="45.8569910" lon="9.1981680">
	<ele>1216.20</ele>
	<time>2025-02-15T10:27:57.000Z</time>
</trkpt>
<trkpt lat="45.8569910" lon="9.1981680">
	<ele>1216.20</ele>
	<time>2025-02-15T10:27:58.000Z</time>
</trkpt>
<trkpt lat="45.8569910" lon="9.1981680">
	<ele>1216.20</ele>
	<time>2025-02-15T10:27:59.000Z</time>
</trkpt>
<trkpt lat="45.8569910" lon="9.1981680">
	<ele>1216.20</ele>
	<time>2025-02-15T10:28:00.000Z</time>
</trkpt>
<trkpt lat="45.8569920" lon="9.1981680">
	<ele>1216.20</ele>
	<time>2025-02-15T10:28:01.000Z</time>
</trkpt>
<trkpt lat="45.8569950" lon="9.1981690">
	<ele>1216.20</ele>
	<time>2025-02-15T10:28:02.000Z</time>
</trkpt>
<trkpt lat="45.8569960" lon="9.1981710">
	<ele>1216.20</ele>
	<time>2025-02-15T10:28:03.000Z</time>
</trkpt>
<trkpt lat="45.8569970" lon="9.1981730">
	<ele>1216.20</ele>
	<time>2025-02-15T10:28:04.000Z</time>
</trkpt>
<trkpt lat="45.8569980" lon="9.1981750">
	<ele>1216.40</ele>
	<time>2025-02-15T10:28:05.000Z</time>
</trkpt>
<trkpt lat="45.8569990" lon="9.1981770">
	<ele>1216.40</ele>
	<time>2025-02-15T10:28:06.000Z</time>
</trkpt>
<trkpt lat="45.8569990" lon="9.1981800">
	<ele>1216.60</ele>
	<time>2025-02-15T10:28:07.000Z</time>
</trkpt>
<trkpt lat="45.8570000" lon="9.1981800">
	<ele>1216.60</ele>
	<time>2025-02-15T10:28:08.000Z</time>
</trkpt>
<trkpt lat="45.8570000" lon="9.1981810">
	<ele>1216.60</ele>
	<time>2025-02-15T10:28:09.000Z</time>
</trkpt>
<trkpt lat="45.8570010" lon="9.1981810">
	<ele>1216.80</ele>
	<time>2025-02-15T10:28:10.000Z</time>
</trkpt>
<trkpt lat="45.8570010" lon="9.1981810">
	<ele>1216.80</ele>
	<time>2025-02-15T10:28:11.000Z</time>
</trkpt>
<trkpt lat="45.8570010" lon="9.1981810">
	<ele>1216.80</ele>
	<time>2025-02-15T10:28:12.000Z</time>
</trkpt>
<trkpt lat="45.8570010" lon="9.1981810">
	<ele>1217.20</ele>
	<time>2025-02-15T10:28:13.000Z</time>
</trkpt>
<trkpt lat="45.8570010" lon="9.1981810">
	<ele>1217.20</ele>
	<time>2025-02-15T10:28:14.000Z</time>
</trkpt>
<trkpt lat="45.8570010" lon="9.1981810">
	<ele>1217.40</ele>
	<time>2025-02-15T10:28:15.000Z</time>
</trkpt>
<trkpt lat="45.8570010" lon="9.1981810">
	<ele>1217.60</ele>
	<time>2025-02-15T10:28:16.000Z</time>
</trkpt>
<trkpt lat="45.8570100" lon="9.1981940">
	<ele>1217.60</ele>
	<time>2025-02-15T10:28:17.000Z</time>
</trkpt>
<trkpt lat="45.8570250" lon="9.1982120">
	<ele>1217.60</ele>
	<time>2025-02-15T10:28:18.000Z</time>
</trkpt>
<trkpt lat="45.8570430" lon="9.1982290">
	<ele>1218.00</ele>
	<time>2025-02-15T10:28:19.000Z</time>
</trkpt>
<trkpt lat="45.8570600" lon="9.1982460">
	<ele>1218.00</ele>
	<time>2025-02-15T10:28:20.000Z</time>
</trkpt>
<trkpt lat="45.8570770" lon="9.1982640">
	<ele>1218.20</ele>
	<time>2025-02-15T10:28:21.000Z</time>
</trkpt>
<trkpt lat="45.8570920" lon="9.1982770">
	<ele>1218.40</ele>
	<time>2025-02-15T10:28:22.000Z</time>
</trkpt>
<trkpt lat="45.8571080" lon="9.1982920">
	<ele>1218.60</ele>
	<time>2025-02-15T10:28:23.000Z</time>
</trkpt>
<trkpt lat="45.8571240" lon="9.1983090">
	<ele>1218.80</ele>
	<time>2025-02-15T10:28:24.000Z</time>
</trkpt>
<trkpt lat="45.8571350" lon="9.1983220">
	<ele>1219.00</ele>
	<time>2025-02-15T10:28:25.000Z</time>
</trkpt>
<trkpt lat="45.8571470" lon="9.1983300">
	<ele>1219.20</ele>
	<time>2025-02-15T10:28:26.000Z</time>
</trkpt>
<trkpt lat="45.8571470" lon="9.1983270">
	<ele>1219.20</ele>
	<time>2025-02-15T10:28:27.000Z</time>
</trkpt>
<trkpt lat="45.8571490" lon="9.1983240">
	<ele>1219.20</ele>
	<time>2025-02-15T10:28:28.000Z</time>
</trkpt>
<trkpt lat="45.8571510" lon="9.1983190">
	<ele>1219.20</ele>
	<time>2025-02-15T10:28:29.000Z</time>
</trkpt>
<trkpt lat="45.8571530" lon="9.1983170">
	<ele>1219.20</ele>
	<time>2025-02-15T10:28:30.000Z</time>
</trkpt>
<trkpt lat="45.8571530" lon="9.1983160">
	<ele>1219.20</ele>
	<time>2025-02-15T10:28:31.000Z</time>
</trkpt>
<trkpt lat="45.8571540" lon="9.1983140">
	<ele>1219.20</ele>
	<time>2025-02-15T10:28:32.000Z</time>
</trkpt>
<trkpt lat="45.8571520" lon="9.1983110">
	<ele>1219.20</ele>
	<time>2025-02-15T10:28:33.000Z</time>
</trkpt>
<trkpt lat="45.8571640" lon="9.1983160">
	<ele>1219.20</ele>
	<time>2025-02-15T10:28:34.000Z</time>
</trkpt>
<trkpt lat="45.8571670" lon="9.1983130">
	<ele>1219.40</ele>
	<time>2025-02-15T10:28:35.000Z</time>
</trkpt>
<trkpt lat="45.8571760" lon="9.1983170">
	<ele>1219.40</ele>
	<time>2025-02-15T10:28:36.000Z</time>
</trkpt>
<trkpt lat="45.8571870" lon="9.1983220">
	<ele>1219.60</ele>
	<time>2025-02-15T10:28:37.000Z</time>
</trkpt>
<trkpt lat="45.8571980" lon="9.1983340">
	<ele>1219.60</ele>
	<time>2025-02-15T10:28:38.000Z</time>
</trkpt>
<trkpt lat="45.8572090" lon="9.1983410">
	<ele>1219.80</ele>
	<time>2025-02-15T10:28:39.000Z</time>
</trkpt>
<trkpt lat="45.8572170" lon="9.1983500">
	<ele>1220.00</ele>
	<time>2025-02-15T10:28:40.000Z</time>
</trkpt>
<trkpt lat="45.8572260" lon="9.1983620">
	<ele>1220.20</ele>
	<time>2025-02-15T10:28:41.000Z</time>
</trkpt>
<trkpt lat="45.8572340" lon="9.1983760">
	<ele>1220.20</ele>
	<time>2025-02-15T10:28:42.000Z</time>
</trkpt>
<trkpt lat="45.8572370" lon="9.1983780">
	<ele>1220.40</ele>
	<time>2025-02-15T10:28:43.000Z</time>
</trkpt>
<trkpt lat="45.8572470" lon="9.1983800">
	<ele>1220.40</ele>
	<time>2025-02-15T10:28:44.000Z</time>
</trkpt>
<trkpt lat="45.8572490" lon="9.1983790">
	<ele>1220.60</ele>
	<time>2025-02-15T10:28:45.000Z</time>
</trkpt>
<trkpt lat="45.8572500" lon="9.1983800">
	<ele>1220.80</ele>
	<time>2025-02-15T10:28:46.000Z</time>
</trkpt>
<trkpt lat="45.8572510" lon="9.1983810">
	<ele>1221.00</ele>
	<time>2025-02-15T10:28:47.000Z</time>
</trkpt>
<trkpt lat="45.8572510" lon="9.1983820">
	<ele>1221.20</ele>
	<time>2025-02-15T10:28:48.000Z</time>
</trkpt>
<trkpt lat="45.8572520" lon="9.1983810">
	<ele>1221.20</ele>
	<time>2025-02-15T10:28:49.000Z</time>
</trkpt>
<trkpt lat="45.8572540" lon="9.1983800">
	<ele>1221.20</ele>
	<time>2025-02-15T10:28:50.000Z</time>
</trkpt>
<trkpt lat="45.8572600" lon="9.1983910">
	<ele>1221.20</ele>
	<time>2025-02-15T10:28:51.000Z</time>
</trkpt>
<trkpt lat="45.8572640" lon="9.1983910">
	<ele>1221.20</ele>
	<time>2025-02-15T10:28:52.000Z</time>
</trkpt>
<trkpt lat="45.8572720" lon="9.1983850">
	<ele>1221.20</ele>
	<time>2025-02-15T10:28:53.000Z</time>
</trkpt>
<trkpt lat="45.8572810" lon="9.1983870">
	<ele>1221.20</ele>
	<time>2025-02-15T10:28:54.000Z</time>
</trkpt>
<trkpt lat="45.8572850" lon="9.1983850">
	<ele>1221.20</ele>
	<time>2025-02-15T10:28:55.000Z</time>
</trkpt>
<trkpt lat="45.8572920" lon="9.1983800">
	<ele>1221.20</ele>
	<time>2025-02-15T10:28:56.000Z</time>
</trkpt>
<trkpt lat="45.8572960" lon="9.1983820">
	<ele>1221.20</ele>
	<time>2025-02-15T10:28:57.000Z</time>
</trkpt>
<trkpt lat="45.8573060" lon="9.1983850">
	<ele>1221.40</ele>
	<time>2025-02-15T10:28:58.000Z</time>
</trkpt>
<trkpt lat="45.8573160" lon="9.1983920">
	<ele>1221.40</ele>
	<time>2025-02-15T10:28:59.000Z</time>
</trkpt>
<trkpt lat="45.8573260" lon="9.1983970">
	<ele>1221.40</ele>
	<time>2025-02-15T10:29:00.000Z</time>
</trkpt>
<trkpt lat="45.8573330" lon="9.1983960">
	<ele>1221.60</ele>
	<time>2025-02-15T10:29:01.000Z</time>
</trkpt>
<trkpt lat="45.8573390" lon="9.1983960">
	<ele>1221.60</ele>
	<time>2025-02-15T10:29:02.000Z</time>
</trkpt>
<trkpt lat="45.8573460" lon="9.1983950">
	<ele>1221.60</ele>
	<time>2025-02-15T10:29:03.000Z</time>
</trkpt>
<trkpt lat="45.8573470" lon="9.1983940">
	<ele>1222.00</ele>
	<time>2025-02-15T10:29:04.000Z</time>
</trkpt>
<trkpt lat="45.8573540" lon="9.1983970">
	<ele>1222.20</ele>
	<time>2025-02-15T10:29:05.000Z</time>
</trkpt>
<trkpt lat="45.8573630" lon="9.1984020">
	<ele>1222.20</ele>
	<time>2025-02-15T10:29:06.000Z</time>
</trkpt>
<trkpt lat="45.8573720" lon="9.1984060">
	<ele>1222.40</ele>
	<time>2025-02-15T10:29:07.000Z</time>
</trkpt>
<trkpt lat="45.8573780" lon="9.1984090">
	<ele>1222.60</ele>
	<time>2025-02-15T10:29:08.000Z</time>
</trkpt>
<trkpt lat="45.8573830" lon="9.1984120">
	<ele>1222.80</ele>
	<time>2025-02-15T10:29:09.000Z</time>
</trkpt>
<trkpt lat="45.8573920" lon="9.1984100">
	<ele>1223.00</ele>
	<time>2025-02-15T10:29:10.000Z</time>
</trkpt>
<trkpt lat="45.8573990" lon="9.1984060">
	<ele>1223.00</ele>
	<time>2025-02-15T10:29:11.000Z</time>
</trkpt>
<trkpt lat="45.8574040" lon="9.1983960">
	<ele>1223.20</ele>
	<time>2025-02-15T10:29:12.000Z</time>
</trkpt>
<trkpt lat="45.8574090" lon="9.1983920">
	<ele>1223.20</ele>
	<time>2025-02-15T10:29:13.000Z</time>
</trkpt>
<trkpt lat="45.8574120" lon="9.1983860">
	<ele>1223.40</ele>
	<time>2025-02-15T10:29:14.000Z</time>
</trkpt>
<trkpt lat="45.8574150" lon="9.1983840">
	<ele>1223.40</ele>
	<time>2025-02-15T10:29:15.000Z</time>
</trkpt>
<trkpt lat="45.8574160" lon="9.1983800">
	<ele>1223.60</ele>
	<time>2025-02-15T10:29:16.000Z</time>
</trkpt>
<trkpt lat="45.8574180" lon="9.1983780">
	<ele>1223.60</ele>
	<time>2025-02-15T10:29:17.000Z</time>
</trkpt>
<trkpt lat="45.8574210" lon="9.1983780">
	<ele>1223.80</ele>
	<time>2025-02-15T10:29:18.000Z</time>
</trkpt>
<trkpt lat="45.8574260" lon="9.1983760">
	<ele>1224.00</ele>
	<time>2025-02-15T10:29:19.000Z</time>
</trkpt>
<trkpt lat="45.8574300" lon="9.1983670">
	<ele>1224.20</ele>
	<time>2025-02-15T10:29:20.000Z</time>
</trkpt>
<trkpt lat="45.8574360" lon="9.1983660">
	<ele>1224.40</ele>
	<time>2025-02-15T10:29:21.000Z</time>
</trkpt>
<trkpt lat="45.8574440" lon="9.1983690">
	<ele>1224.60</ele>
	<time>2025-02-15T10:29:22.000Z</time>
</trkpt>
<trkpt lat="45.8574550" lon="9.1983750">
	<ele>1224.60</ele>
	<time>2025-02-15T10:29:23.000Z</time>
</trkpt>
<trkpt lat="45.8574690" lon="9.1983860">
	<ele>1224.80</ele>
	<time>2025-02-15T10:29:24.000Z</time>
</trkpt>
<trkpt lat="45.8574820" lon="9.1983950">
	<ele>1225.00</ele>
	<time>2025-02-15T10:29:25.000Z</time>
</trkpt>
<trkpt lat="45.8574920" lon="9.1984040">
	<ele>1225.00</ele>
	<time>2025-02-15T10:29:26.000Z</time>
</trkpt>
<trkpt lat="45.8575010" lon="9.1984130">
	<ele>1225.40</ele>
	<time>2025-02-15T10:29:27.000Z</time>
</trkpt>
<trkpt lat="45.8575110" lon="9.1984260">
	<ele>1225.40</ele>
	<time>2025-02-15T10:29:28.000Z</time>
</trkpt>
<trkpt lat="45.8575230" lon="9.1984380">
	<ele>1225.40</ele>
	<time>2025-02-15T10:29:29.000Z</time>
</trkpt>
<trkpt lat="45.8575350" lon="9.1984430">
	<ele>1225.60</ele>
	<time>2025-02-15T10:29:30.000Z</time>
</trkpt>
<trkpt lat="45.8575420" lon="9.1984470">
	<ele>1225.60</ele>
	<time>2025-02-15T10:29:31.000Z</time>
</trkpt>
<trkpt lat="45.8575540" lon="9.1984550">
	<ele>1225.60</ele>
	<time>2025-02-15T10:29:32.000Z</time>
</trkpt>
<trkpt lat="45.8575580" lon="9.1984520">
	<ele>1225.60</ele>
	<time>2025-02-15T10:29:33.000Z</time>
</trkpt>
<trkpt lat="45.8575610" lon="9.1984510">
	<ele>1225.80</ele>
	<time>2025-02-15T10:29:34.000Z</time>
</trkpt>
<trkpt lat="45.8575700" lon="9.1984500">
	<ele>1225.80</ele>
	<time>2025-02-15T10:29:35.000Z</time>
</trkpt>
<trkpt lat="45.8575820" lon="9.1984450">
	<ele>1226.00</ele>
	<time>2025-02-15T10:29:36.000Z</time>
</trkpt>
<trkpt lat="45.8575940" lon="9.1984440">
	<ele>1226.20</ele>
	<time>2025-02-15T10:29:37.000Z</time>
</trkpt>
<trkpt lat="45.8576060" lon="9.1984510">
	<ele>1226.20</ele>
	<time>2025-02-15T10:29:38.000Z</time>
</trkpt>
<trkpt lat="45.8576160" lon="9.1984530">
	<ele>1226.20</ele>
	<time>2025-02-15T10:29:39.000Z</time>
</trkpt>
<trkpt lat="45.8576240" lon="9.1984530">
	<ele>1226.20</ele>
	<time>2025-02-15T10:29:40.000Z</time>
</trkpt>
<trkpt lat="45.8576270" lon="9.1984500">
	<ele>1226.20</ele>
	<time>2025-02-15T10:29:41.000Z</time>
</trkpt>
<trkpt lat="45.8576270" lon="9.1984480">
	<ele>1226.20</ele>
	<time>2025-02-15T10:29:42.000Z</time>
</trkpt>
<trkpt lat="45.8576280" lon="9.1984480">
	<ele>1226.20</ele>
	<time>2025-02-15T10:29:43.000Z</time>
</trkpt>
<trkpt lat="45.8576290" lon="9.1984460">
	<ele>1226.20</ele>
	<time>2025-02-15T10:29:44.000Z</time>
</trkpt>
<trkpt lat="45.8576470" lon="9.1984500">
	<ele>1226.40</ele>
	<time>2025-02-15T10:29:45.000Z</time>
</trkpt>
<trkpt lat="45.8576490" lon="9.1984480">
	<ele>1226.40</ele>
	<time>2025-02-15T10:29:46.000Z</time>
</trkpt>
<trkpt lat="45.8576490" lon="9.1984490">
	<ele>1226.40</ele>
	<time>2025-02-15T10:29:47.000Z</time>
</trkpt>
<trkpt lat="45.8576490" lon="9.1984500">
	<ele>1226.40</ele>
	<time>2025-02-15T10:29:48.000Z</time>
</trkpt>
<trkpt lat="45.8576490" lon="9.1984510">
	<ele>1226.60</ele>
	<time>2025-02-15T10:29:49.000Z</time>
</trkpt>
<trkpt lat="45.8576470" lon="9.1984530">
	<ele>1226.60</ele>
	<time>2025-02-15T10:29:50.000Z</time>
</trkpt>
<trkpt lat="45.8576520" lon="9.1984530">
	<ele>1226.60</ele>
	<time>2025-02-15T10:29:51.000Z</time>
</trkpt>
<trkpt lat="45.8576680" lon="9.1984530">
	<ele>1226.60</ele>
	<time>2025-02-15T10:29:52.000Z</time>
</trkpt>
<trkpt lat="45.8576760" lon="9.1984550">
	<ele>1226.60</ele>
	<time>2025-02-15T10:29:53.000Z</time>
</trkpt>
<trkpt lat="45.8576890" lon="9.1984610">
	<ele>1226.60</ele>
	<time>2025-02-15T10:29:54.000Z</time>
</trkpt>
<trkpt lat="45.8576990" lon="9.1984610">
	<ele>1226.60</ele>
	<time>2025-02-15T10:29:55.000Z</time>
</trkpt>
<trkpt lat="45.8577060" lon="9.1984580">
	<ele>1226.60</ele>
	<time>2025-02-15T10:29:56.000Z</time>
</trkpt>
<trkpt lat="45.8577140" lon="9.1984600">
	<ele>1226.60</ele>
	<time>2025-02-15T10:29:57.000Z</time>
</trkpt>
<trkpt lat="45.8577220" lon="9.1984580">
	<ele>1226.60</ele>
	<time>2025-02-15T10:29:58.000Z</time>
</trkpt>
<trkpt lat="45.8577300" lon="9.1984550">
	<ele>1226.60</ele>
	<time>2025-02-15T10:29:59.000Z</time>
</trkpt>
<trkpt lat="45.8577420" lon="9.1984580">
	<ele>1226.60</ele>
	<time>2025-02-15T10:30:00.000Z</time>
</trkpt>
<trkpt lat="45.8577510" lon="9.1984530">
	<ele>1226.60</ele>
	<time>2025-02-15T10:30:01.000Z</time>
</trkpt>
<trkpt lat="45.8577620" lon="9.1984530">
	<ele>1226.60</ele>
	<time>2025-02-15T10:30:02.000Z</time>
</trkpt>
<trkpt lat="45.8577720" lon="9.1984560">
	<ele>1226.60</ele>
	<time>2025-02-15T10:30:03.000Z</time>
</trkpt>
<trkpt lat="45.8577760" lon="9.1984550">
	<ele>1226.60</ele>
	<time>2025-02-15T10:30:04.000Z</time>
</trkpt>
<trkpt lat="45.8577810" lon="9.1984560">
	<ele>1226.80</ele>
	<time>2025-02-15T10:30:05.000Z</time>
</trkpt>
<trkpt lat="45.8577860" lon="9.1984570">
	<ele>1226.80</ele>
	<time>2025-02-15T10:30:06.000Z</time>
</trkpt>
<trkpt lat="45.8577880" lon="9.1984610">
	<ele>1227.00</ele>
	<time>2025-02-15T10:30:07.000Z</time>
</trkpt>
<trkpt lat="45.8577860" lon="9.1984560">
	<ele>1227.00</ele>
	<time>2025-02-15T10:30:08.000Z</time>
</trkpt>
<trkpt lat="45.8577890" lon="9.1984530">
	<ele>1227.20</ele>
	<time>2025-02-15T10:30:09.000Z</time>
</trkpt>
<trkpt lat="45.8577900" lon="9.1984510">
	<ele>1227.20</ele>
	<time>2025-02-15T10:30:10.000Z</time>
</trkpt>
<trkpt lat="45.8577930" lon="9.1984520">
	<ele>1227.40</ele>
	<time>2025-02-15T10:30:11.000Z</time>
</trkpt>
<trkpt lat="45.8577970" lon="9.1984550">
	<ele>1227.40</ele>
	<time>2025-02-15T10:30:12.000Z</time>
</trkpt>
<trkpt lat="45.8578040" lon="9.1984560">
	<ele>1227.60</ele>
	<time>2025-02-15T10:30:13.000Z</time>
</trkpt>
<trkpt lat="45.8578120" lon="9.1984620">
	<ele>1227.60</ele>
	<time>2025-02-15T10:30:14.000Z</time>
</trkpt>
<trkpt lat="45.8578180" lon="9.1984630">
	<ele>1227.80</ele>
	<time>2025-02-15T10:30:15.000Z</time>
</trkpt>
<trkpt lat="45.8578240" lon="9.1984690">
	<ele>1227.80</ele>
	<time>2025-02-15T10:30:16.000Z</time>
</trkpt>
<trkpt lat="45.8578290" lon="9.1984740">
	<ele>1228.00</ele>
	<time>2025-02-15T10:30:17.000Z</time>
</trkpt>
<trkpt lat="45.8578310" lon="9.1984620">
	<ele>1228.20</ele>
	<time>2025-02-15T10:30:18.000Z</time>
</trkpt>
<trkpt lat="45.8578400" lon="9.1984650">
	<ele>1228.40</ele>
	<time>2025-02-15T10:30:19.000Z</time>
</trkpt>
<trkpt lat="45.8578520" lon="9.1984740">
	<ele>1228.40</ele>
	<time>2025-02-15T10:30:20.000Z</time>
</trkpt>
<trkpt lat="45.8578600" lon="9.1984780">
	<ele>1228.60</ele>
	<time>2025-02-15T10:30:21.000Z</time>
</trkpt>
<trkpt lat="45.8578650" lon="9.1984790">
	<ele>1228.80</ele>
	<time>2025-02-15T10:30:22.000Z</time>
</trkpt>
<trkpt lat="45.8578700" lon="9.1984780">
	<ele>1228.80</ele>
	<time>2025-02-15T10:30:23.000Z</time>
</trkpt>
<trkpt lat="45.8578780" lon="9.1984780">
	<ele>1229.00</ele>
	<time>2025-02-15T10:30:24.000Z</time>
</trkpt>
<trkpt lat="45.8578830" lon="9.1984740">
	<ele>1229.20</ele>
	<time>2025-02-15T10:30:25.000Z</time>
</trkpt>
<trkpt lat="45.8578910" lon="9.1984800">
	<ele>1229.20</ele>
	<time>2025-02-15T10:30:26.000Z</time>
</trkpt>
<trkpt lat="45.8578960" lon="9.1984850">
	<ele>1229.40</ele>
	<time>2025-02-15T10:30:27.000Z</time>
</trkpt>
<trkpt lat="45.8579030" lon="9.1984840">
	<ele>1229.40</ele>
	<time>2025-02-15T10:30:28.000Z</time>
</trkpt>
<trkpt lat="45.8579140" lon="9.1984850">
	<ele>1229.60</ele>
	<time>2025-02-15T10:30:29.000Z</time>
</trkpt>
<trkpt lat="45.8579210" lon="9.1984840">
	<ele>1229.60</ele>
	<time>2025-02-15T10:30:30.000Z</time>
</trkpt>
<trkpt lat="45.8579260" lon="9.1984840">
	<ele>1230.00</ele>
	<time>2025-02-15T10:30:31.000Z</time>
</trkpt>
<trkpt lat="45.8579340" lon="9.1984920">
	<ele>1230.20</ele>
	<time>2025-02-15T10:30:32.000Z</time>
</trkpt>
<trkpt lat="45.8579390" lon="9.1984940">
	<ele>1230.20</ele>
	<time>2025-02-15T10:30:33.000Z</time>
</trkpt>
<trkpt lat="45.8579460" lon="9.1984980">
	<ele>1230.40</ele>
	<time>2025-02-15T10:30:34.000Z</time>
</trkpt>
<trkpt lat="45.8579520" lon="9.1984950">
	<ele>1230.40</ele>
	<time>2025-02-15T10:30:35.000Z</time>
</trkpt>
<trkpt lat="45.8579590" lon="9.1984900">
	<ele>1230.40</ele>
	<time>2025-02-15T10:30:36.000Z</time>
</trkpt>
<trkpt lat="45.8579660" lon="9.1984860">
	<ele>1230.60</ele>
	<time>2025-02-15T10:30:37.000Z</time>
</trkpt>
<trkpt lat="45.8579790" lon="9.1984900">
	<ele>1230.80</ele>
	<time>2025-02-15T10:30:38.000Z</time>
</trkpt>
<trkpt lat="45.8579870" lon="9.1984870">
	<ele>1231.00</ele>
	<time>2025-02-15T10:30:39.000Z</time>
</trkpt>
<trkpt lat="45.8579970" lon="9.1984870">
	<ele>1231.20</ele>
	<time>2025-02-15T10:30:40.000Z</time>
</trkpt>
<trkpt lat="45.8580070" lon="9.1984900">
	<ele>1231.40</ele>
	<time>2025-02-15T10:30:41.000Z</time>
</trkpt>
<trkpt lat="45.8580130" lon="9.1984870">
	<ele>1231.60</ele>
	<time>2025-02-15T10:30:42.000Z</time>
</trkpt>
<trkpt lat="45.8580190" lon="9.1984820">
	<ele>1231.60</ele>
	<time>2025-02-15T10:30:43.000Z</time>
</trkpt>
<trkpt lat="45.8580280" lon="9.1984840">
	<ele>1231.80</ele>
	<time>2025-02-15T10:30:44.000Z</time>
</trkpt>
<trkpt lat="45.8580330" lon="9.1984810">
	<ele>1231.80</ele>
	<time>2025-02-15T10:30:45.000Z</time>
</trkpt>
<trkpt lat="45.8580370" lon="9.1984770">
	<ele>1232.00</ele>
	<time>2025-02-15T10:30:46.000Z</time>
</trkpt>
<trkpt lat="45.8580370" lon="9.1984760">
	<ele>1232.00</ele>
	<time>2025-02-15T10:30:47.000Z</time>
</trkpt>
<trkpt lat="45.8580400" lon="9.1984750">
	<ele>1232.00</ele>
	<time>2025-02-15T10:30:48.000Z</time>
</trkpt>
<trkpt lat="45.8580420" lon="9.1984730">
	<ele>1232.20</ele>
	<time>2025-02-15T10:30:49.000Z</time>
</trkpt>
<trkpt lat="45.8580430" lon="9.1984720">
	<ele>1232.20</ele>
	<time>2025-02-15T10:30:50.000Z</time>
</trkpt>
<trkpt lat="45.8580420" lon="9.1984700">
	<ele>1232.40</ele>
	<time>2025-02-15T10:30:51.000Z</time>
</trkpt>
<trkpt lat="45.8580430" lon="9.1984630">
	<ele>1232.40</ele>
	<time>2025-02-15T10:30:52.000Z</time>
</trkpt>
<trkpt lat="45.8580470" lon="9.1984580">
	<ele>1232.80</ele>
	<time>2025-02-15T10:30:53.000Z</time>
</trkpt>
<trkpt lat="45.8580560" lon="9.1984580">
	<ele>1232.80</ele>
	<time>2025-02-15T10:30:54.000Z</time>
</trkpt>
<trkpt lat="45.8580640" lon="9.1984590">
	<ele>1233.00</ele>
	<time>2025-02-15T10:30:55.000Z</time>
</trkpt>
<trkpt lat="45.8580720" lon="9.1984620">
	<ele>1233.20</ele>
	<time>2025-02-15T10:30:56.000Z</time>
</trkpt>
<trkpt lat="45.8580730" lon="9.1984610">
	<ele>1233.20</ele>
	<time>2025-02-15T10:30:57.000Z</time>
</trkpt>
<trkpt lat="45.8580750" lon="9.1984610">
	<ele>1233.40</ele>
	<time>2025-02-15T10:30:58.000Z</time>
</trkpt>
<trkpt lat="45.8580780" lon="9.1984680">
	<ele>1233.40</ele>
	<time>2025-02-15T10:30:59.000Z</time>
</trkpt>
<trkpt lat="45.8580850" lon="9.1984710">
	<ele>1233.60</ele>
	<time>2025-02-15T10:31:00.000Z</time>
</trkpt>
<trkpt lat="45.8580930" lon="9.1984680">
	<ele>1233.80</ele>
	<time>2025-02-15T10:31:01.000Z</time>
</trkpt>
<trkpt lat="45.8580970" lon="9.1984680">
	<ele>1234.00</ele>
	<time>2025-02-15T10:31:02.000Z</time>
</trkpt>
<trkpt lat="45.8581030" lon="9.1984630">
	<ele>1234.20</ele>
	<time>2025-02-15T10:31:03.000Z</time>
</trkpt>
<trkpt lat="45.8581080" lon="9.1984580">
	<ele>1234.40</ele>
	<time>2025-02-15T10:31:04.000Z</time>
</trkpt>
<trkpt lat="45.8581100" lon="9.1984530">
	<ele>1234.60</ele>
	<time>2025-02-15T10:31:05.000Z</time>
</trkpt>
<trkpt lat="45.8581160" lon="9.1984520">
	<ele>1234.60</ele>
	<time>2025-02-15T10:31:06.000Z</time>
</trkpt>
<trkpt lat="45.8581220" lon="9.1984500">
	<ele>1234.80</ele>
	<time>2025-02-15T10:31:07.000Z</time>
</trkpt>
<trkpt lat="45.8581320" lon="9.1984500">
	<ele>1234.80</ele>
	<time>2025-02-15T10:31:08.000Z</time>
</trkpt>
<trkpt lat="45.8581350" lon="9.1984570">
	<ele>1234.80</ele>
	<time>2025-02-15T10:31:09.000Z</time>
</trkpt>
<trkpt lat="45.8581410" lon="9.1984590">
	<ele>1234.80</ele>
	<time>2025-02-15T10:31:10.000Z</time>
</trkpt>
<trkpt lat="45.8581470" lon="9.1984560">
	<ele>1234.60</ele>
	<time>2025-02-15T10:31:11.000Z</time>
</trkpt>
<trkpt lat="45.8581520" lon="9.1984500">
	<ele>1234.60</ele>
	<time>2025-02-15T10:31:12.000Z</time>
</trkpt>
<trkpt lat="45.8581580" lon="9.1984490">
	<ele>1234.80</ele>
	<time>2025-02-15T10:31:13.000Z</time>
</trkpt>
<trkpt lat="45.8581690" lon="9.1984540">
	<ele>1235.20</ele>
	<time>2025-02-15T10:31:14.000Z</time>
</trkpt>
<trkpt lat="45.8581740" lon="9.1984540">
	<ele>1235.20</ele>
	<time>2025-02-15T10:31:15.000Z</time>
</trkpt>
<trkpt lat="45.8581780" lon="9.1984500">
	<ele>1235.40</ele>
	<time>2025-02-15T10:31:16.000Z</time>
</trkpt>
<trkpt lat="45.8581850" lon="9.1984510">
	<ele>1235.60</ele>
	<time>2025-02-15T10:31:17.000Z</time>
</trkpt>
<trkpt lat="45.8581940" lon="9.1984530">
	<ele>1235.60</ele>
	<time>2025-02-15T10:31:18.000Z</time>
</trkpt>
<trkpt lat="45.8581990" lon="9.1984540">
	<ele>1235.60</ele>
	<time>2025-02-15T10:31:19.000Z</time>
</trkpt>
<trkpt lat="45.8582050" lon="9.1984560">
	<ele>1235.80</ele>
	<time>2025-02-15T10:31:20.000Z</time>
</trkpt>
<trkpt lat="45.8582160" lon="9.1984590">
	<ele>1235.80</ele>
	<time>2025-02-15T10:31:21.000Z</time>
</trkpt>
<trkpt lat="45.8582260" lon="9.1984640">
	<ele>1236.00</ele>
	<time>2025-02-15T10:31:22.000Z</time>
</trkpt>
<trkpt lat="45.8582370" lon="9.1984690">
	<ele>1236.20</ele>
	<time>2025-02-15T10:31:23.000Z</time>
</trkpt>
<trkpt lat="45.8582440" lon="9.1984650">
	<ele>1236.40</ele>
	<time>2025-02-15T10:31:24.000Z</time>
</trkpt>
<trkpt lat="45.8582490" lon="9.1984600">
	<ele>1236.60</ele>
	<time>2025-02-15T10:31:25.000Z</time>
</trkpt>
<trkpt lat="45.8582550" lon="9.1984550">
	<ele>1236.80</ele>
	<time>2025-02-15T10:31:26.000Z</time>
</trkpt>
<trkpt lat="45.8582610" lon="9.1984530">
	<ele>1237.00</ele>
	<time>2025-02-15T10:31:27.000Z</time>
</trkpt>
<trkpt lat="45.8582650" lon="9.1984470">
	<ele>1237.20</ele>
	<time>2025-02-15T10:31:28.000Z</time>
</trkpt>
<trkpt lat="45.8582710" lon="9.1984450">
	<ele>1237.20</ele>
	<time>2025-02-15T10:31:29.000Z</time>
</trkpt>
<trkpt lat="45.8582800" lon="9.1984460">
	<ele>1237.20</ele>
	<time>2025-02-15T10:31:30.000Z</time>
</trkpt>
<trkpt lat="45.8582850" lon="9.1984400">
	<ele>1237.20</ele>
	<time>2025-02-15T10:31:31.000Z</time>
</trkpt>
<trkpt lat="45.8582900" lon="9.1984360">
	<ele>1237.20</ele>
	<time>2025-02-15T10:31:32.000Z</time>
</trkpt>
<trkpt lat="45.8582990" lon="9.1984370">
	<ele>1237.20</ele>
	<time>2025-02-15T10:31:33.000Z</time>
</trkpt>
<trkpt lat="45.8583110" lon="9.1984420">
	<ele>1237.20</ele>
	<time>2025-02-15T10:31:34.000Z</time>
</trkpt>
<trkpt lat="45.8583220" lon="9.1984450">
	<ele>1237.40</ele>
	<time>2025-02-15T10:31:35.000Z</time>
</trkpt>
<trkpt lat="45.8583260" lon="9.1984380">
	<ele>1237.40</ele>
	<time>2025-02-15T10:31:36.000Z</time>
</trkpt>
<trkpt lat="45.8583320" lon="9.1984360">
	<ele>1237.40</ele>
	<time>2025-02-15T10:31:37.000Z</time>
</trkpt>
<trkpt lat="45.8583400" lon="9.1984350">
	<ele>1237.60</ele>
	<time>2025-02-15T10:31:38.000Z</time>
</trkpt>
<trkpt lat="45.8583460" lon="9.1984300">
	<ele>1237.60</ele>
	<time>2025-02-15T10:31:39.000Z</time>
</trkpt>
<trkpt lat="45.8583550" lon="9.1984290">
	<ele>1237.80</ele>
	<time>2025-02-15T10:31:40.000Z</time>
</trkpt>
<trkpt lat="45.8583620" lon="9.1984280">
	<ele>1237.80</ele>
	<time>2025-02-15T10:31:41.000Z</time>
</trkpt>
<trkpt lat="45.8583720" lon="9.1984310">
	<ele>1237.80</ele>
	<time>2025-02-15T10:31:42.000Z</time>
</trkpt>
<trkpt lat="45.8583790" lon="9.1984310">
	<ele>1237.80</ele>
	<time>2025-02-15T10:31:43.000Z</time>
</trkpt>
<trkpt lat="45.8583830" lon="9.1984270">
	<ele>1238.20</ele>
	<time>2025-02-15T10:31:44.000Z</time>
</trkpt>
<trkpt lat="45.8583880" lon="9.1984240">
	<ele>1238.40</ele>
	<time>2025-02-15T10:31:45.000Z</time>
</trkpt>
<trkpt lat="45.8583990" lon="9.1984230">
	<ele>1238.60</ele>
	<time>2025-02-15T10:31:46.000Z</time>
</trkpt>
<trkpt lat="45.8584080" lon="9.1984210">
	<ele>1238.60</ele>
	<time>2025-02-15T10:31:47.000Z</time>
</trkpt>
<trkpt lat="45.8584160" lon="9.1984190">
	<ele>1238.60</ele>
	<time>2025-02-15T10:31:48.000Z</time>
</trkpt>
<trkpt lat="45.8584210" lon="9.1984160">
	<ele>1238.80</ele>
	<time>2025-02-15T10:31:49.000Z</time>
</trkpt>
<trkpt lat="45.8584290" lon="9.1984160">
	<ele>1239.00</ele>
	<time>2025-02-15T10:31:50.000Z</time>
</trkpt>
<trkpt lat="45.8584360" lon="9.1984150">
	<ele>1239.20</ele>
	<time>2025-02-15T10:31:51.000Z</time>
</trkpt>
<trkpt lat="45.8584430" lon="9.1984090">
	<ele>1239.20</ele>
	<time>2025-02-15T10:31:52.000Z</time>
</trkpt>
<trkpt lat="45.8584550" lon="9.1984120">
	<ele>1239.20</ele>
	<time>2025-02-15T10:31:53.000Z</time>
</trkpt>
<trkpt lat="45.8584660" lon="9.1984180">
	<ele>1239.40</ele>
	<time>2025-02-15T10:31:54.000Z</time>
</trkpt>
<trkpt lat="45.8584750" lon="9.1984150">
	<ele>1239.40</ele>
	<time>2025-02-15T10:31:55.000Z</time>
</trkpt>
<trkpt lat="45.8584830" lon="9.1984100">
	<ele>1239.60</ele>
	<time>2025-02-15T10:31:56.000Z</time>
</trkpt>
<trkpt lat="45.8584850" lon="9.1984000">
	<ele>1239.60</ele>
	<time>2025-02-15T10:31:57.000Z</time>
</trkpt>
<trkpt lat="45.8584840" lon="9.1983950">
	<ele>1239.80</ele>
	<time>2025-02-15T10:31:58.000Z</time>
</trkpt>
<trkpt lat="45.8584840" lon="9.1983940">
	<ele>1239.80</ele>
	<time>2025-02-15T10:31:59.000Z</time>
</trkpt>
<trkpt lat="45.8584950" lon="9.1983890">
	<ele>1239.80</ele>
	<time>2025-02-15T10:32:00.000Z</time>
</trkpt>
<trkpt lat="45.8585060" lon="9.1983810">
	<ele>1239.80</ele>
	<time>2025-02-15T10:32:01.000Z</time>
</trkpt>
<trkpt lat="45.8585130" lon="9.1983720">
	<ele>1239.80</ele>
	<time>2025-02-15T10:32:02.000Z</time>
</trkpt>
<trkpt lat="45.8585260" lon="9.1983730">
	<ele>1240.00</ele>
	<time>2025-02-15T10:32:03.000Z</time>
</trkpt>
<trkpt lat="45.8585310" lon="9.1983750">
	<ele>1240.20</ele>
	<time>2025-02-15T10:32:04.000Z</time>
</trkpt>
<trkpt lat="45.8585390" lon="9.1983800">
	<ele>1240.40</ele>
	<time>2025-02-15T10:32:05.000Z</time>
</trkpt>
<trkpt lat="45.8585400" lon="9.1983780">
	<ele>1240.40</ele>
	<time>2025-02-15T10:32:06.000Z</time>
</trkpt>
<trkpt lat="45.8585470" lon="9.1983780">
	<ele>1240.60</ele>
	<time>2025-02-15T10:32:07.000Z</time>
</trkpt>
<trkpt lat="45.8585490" lon="9.1983730">
	<ele>1240.60</ele>
	<time>2025-02-15T10:32:08.000Z</time>
</trkpt>
<trkpt lat="45.8585530" lon="9.1983700">
	<ele>1240.60</ele>
	<time>2025-02-15T10:32:09.000Z</time>
</trkpt>
<trkpt lat="45.8585590" lon="9.1983630">
	<ele>1240.60</ele>
	<time>2025-02-15T10:32:10.000Z</time>
</trkpt>
<trkpt lat="45.8585630" lon="9.1983530">
	<ele>1240.80</ele>
	<time>2025-02-15T10:32:11.000Z</time>
</trkpt>
<trkpt lat="45.8585640" lon="9.1983400">
	<ele>1240.80</ele>
	<time>2025-02-15T10:32:12.000Z</time>
</trkpt>
<trkpt lat="45.8585670" lon="9.1983290">
	<ele>1240.80</ele>
	<time>2025-02-15T10:32:13.000Z</time>
</trkpt>
<trkpt lat="45.8585670" lon="9.1983240">
	<ele>1240.60</ele>
	<time>2025-02-15T10:32:14.000Z</time>
</trkpt>
<trkpt lat="45.8585670" lon="9.1983220">
	<ele>1240.80</ele>
	<time>2025-02-15T10:32:15.000Z</time>
</trkpt>
<trkpt lat="45.8585630" lon="9.1983260">
	<ele>1240.80</ele>
	<time>2025-02-15T10:32:16.000Z</time>
</trkpt>
<trkpt lat="45.8585610" lon="9.1983260">
	<ele>1241.00</ele>
	<time>2025-02-15T10:32:17.000Z</time>
</trkpt>
<trkpt lat="45.8585600" lon="9.1983250">
	<ele>1241.00</ele>
	<time>2025-02-15T10:32:18.000Z</time>
</trkpt>
<trkpt lat="45.8585590" lon="9.1983230">
	<ele>1241.00</ele>
	<time>2025-02-15T10:32:19.000Z</time>
</trkpt>
<trkpt lat="45.8585590" lon="9.1983230">
	<ele>1241.00</ele>
	<time>2025-02-15T10:32:20.000Z</time>
</trkpt>
<trkpt lat="45.8585600" lon="9.1983250">
	<ele>1241.00</ele>
	<time>2025-02-15T10:32:21.000Z</time>
</trkpt>
<trkpt lat="45.8585550" lon="9.1983200">
	<ele>1241.00</ele>
	<time>2025-02-15T10:32:22.000Z</time>
</trkpt>
<trkpt lat="45.8585550" lon="9.1983200">
	<ele>1241.20</ele>
	<time>2025-02-15T10:32:23.000Z</time>
</trkpt>
<trkpt lat="45.8585550" lon="9.1983200">
	<ele>1241.20</ele>
	<time>2025-02-15T10:32:24.000Z</time>
</trkpt>
<trkpt lat="45.8585530" lon="9.1983150">
	<ele>1240.80</ele>
	<time>2025-02-15T10:32:25.000Z</time>
</trkpt>
<trkpt lat="45.8585520" lon="9.1983160">
	<ele>1240.80</ele>
	<time>2025-02-15T10:32:26.000Z</time>
</trkpt>
<trkpt lat="45.8585510" lon="9.1983160">
	<ele>1240.80</ele>
	<time>2025-02-15T10:32:27.000Z</time>
</trkpt>
<trkpt lat="45.8585560" lon="9.1983160">
	<ele>1240.80</ele>
	<time>2025-02-15T10:32:28.000Z</time>
</trkpt>
<trkpt lat="45.8585530" lon="9.1983220">
	<ele>1240.80</ele>
	<time>2025-02-15T10:32:29.000Z</time>
</trkpt>
<trkpt lat="45.8585510" lon="9.1983250">
	<ele>1240.80</ele>
	<time>2025-02-15T10:32:30.000Z</time>
</trkpt>
<trkpt lat="45.8585510" lon="9.1983300">
	<ele>1240.60</ele>
	<time>2025-02-15T10:32:31.000Z</time>
</trkpt>
<trkpt lat="45.8585510" lon="9.1983320">
	<ele>1240.60</ele>
	<time>2025-02-15T10:32:32.000Z</time>
</trkpt>
<trkpt lat="45.8585530" lon="9.1983320">
	<ele>1240.60</ele>
	<time>2025-02-15T10:32:33.000Z</time>
</trkpt>
<trkpt lat="45.8585590" lon="9.1983320">
	<ele>1240.60</ele>
	<time>2025-02-15T10:32:34.000Z</time>
</trkpt>
<trkpt lat="45.8585650" lon="9.1983300">
	<ele>1240.60</ele>
	<time>2025-02-15T10:32:35.000Z</time>
</trkpt>
<trkpt lat="45.8585660" lon="9.1983300">
	<ele>1240.60</ele>
	<time>2025-02-15T10:32:36.000Z</time>
</trkpt>
<trkpt lat="45.8585660" lon="9.1983280">
	<ele>1240.60</ele>
	<time>2025-02-15T10:32:37.000Z</time>
</trkpt>
<trkpt lat="45.8585690" lon="9.1983300">
	<ele>1240.60</ele>
	<time>2025-02-15T10:32:38.000Z</time>
</trkpt>
<trkpt lat="45.8585670" lon="9.1983320">
	<ele>1240.60</ele>
	<time>2025-02-15T10:32:39.000Z</time>
</trkpt>
<trkpt lat="45.8585660" lon="9.1983330">
	<ele>1240.60</ele>
	<time>2025-02-15T10:32:40.000Z</time>
</trkpt>
<trkpt lat="45.8585640" lon="9.1983330">
	<ele>1240.80</ele>
	<time>2025-02-15T10:32:41.000Z</time>
</trkpt>
<trkpt lat="45.8585650" lon="9.1983340">
	<ele>1240.80</ele>
	<time>2025-02-15T10:32:42.000Z</time>
</trkpt>
<trkpt lat="45.8585700" lon="9.1983350">
	<ele>1240.80</ele>
	<time>2025-02-15T10:32:43.000Z</time>
</trkpt>
<trkpt lat="45.8585740" lon="9.1983300">
	<ele>1241.00</ele>
	<time>2025-02-15T10:32:44.000Z</time>
</trkpt>
<trkpt lat="45.8585800" lon="9.1983250">
	<ele>1241.00</ele>
	<time>2025-02-15T10:32:45.000Z</time>
</trkpt>
<trkpt lat="45.8585840" lon="9.1983220">
	<ele>1241.20</ele>
	<time>2025-02-15T10:32:46.000Z</time>
</trkpt>
<trkpt lat="45.8585870" lon="9.1983190">
	<ele>1241.20</ele>
	<time>2025-02-15T10:32:47.000Z</time>
</trkpt>
<trkpt lat="45.8585900" lon="9.1983190">
	<ele>1241.40</ele>
	<time>2025-02-15T10:32:48.000Z</time>
</trkpt>
<trkpt lat="45.8585950" lon="9.1983210">
	<ele>1241.60</ele>
	<time>2025-02-15T10:32:49.000Z</time>
</trkpt>
<trkpt lat="45.8586030" lon="9.1983240">
	<ele>1241.80</ele>
	<time>2025-02-15T10:32:50.000Z</time>
</trkpt>
<trkpt lat="45.8586110" lon="9.1983290">
	<ele>1241.80</ele>
	<time>2025-02-15T10:32:51.000Z</time>
</trkpt>
<trkpt lat="45.8586180" lon="9.1983260">
	<ele>1242.00</ele>
	<time>2025-02-15T10:32:52.000Z</time>
</trkpt>
<trkpt lat="45.8586190" lon="9.1983190">
	<ele>1242.00</ele>
	<time>2025-02-15T10:32:53.000Z</time>
</trkpt>
<trkpt lat="45.8586240" lon="9.1983170">
	<ele>1242.00</ele>
	<time>2025-02-15T10:32:54.000Z</time>
</trkpt>
<trkpt lat="45.8586300" lon="9.1983130">
	<ele>1242.00</ele>
	<time>2025-02-15T10:32:55.000Z</time>
</trkpt>
<trkpt lat="45.8586430" lon="9.1983150">
	<ele>1242.00</ele>
	<time>2025-02-15T10:32:56.000Z</time>
</trkpt>
<trkpt lat="45.8586550" lon="9.1983150">
	<ele>1242.40</ele>
	<time>2025-02-15T10:32:57.000Z</time>
</trkpt>
<trkpt lat="45.8586660" lon="9.1983160">
	<ele>1242.60</ele>
	<time>2025-02-15T10:32:58.000Z</time>
</trkpt>
<trkpt lat="45.8586760" lon="9.1983200">
	<ele>1242.60</ele>
	<time>2025-02-15T10:32:59.000Z</time>
</trkpt>
<trkpt lat="45.8586800" lon="9.1983170">
	<ele>1243.00</ele>
	<time>2025-02-15T10:33:00.000Z</time>
</trkpt>
<trkpt lat="45.8586840" lon="9.1983160">
	<ele>1243.20</ele>
	<time>2025-02-15T10:33:01.000Z</time>
</trkpt>
<trkpt lat="45.8586890" lon="9.1983120">
	<ele>1243.20</ele>
	<time>2025-02-15T10:33:02.000Z</time>
</trkpt>
<trkpt lat="45.8586940" lon="9.1983040">
	<ele>1243.40</ele>
	<time>2025-02-15T10:33:03.000Z</time>
</trkpt>
<trkpt lat="45.8587010" lon="9.1982950">
	<ele>1243.60</ele>
	<time>2025-02-15T10:33:04.000Z</time>
</trkpt>
<trkpt lat="45.8587050" lon="9.1982870">
	<ele>1243.60</ele>
	<time>2025-02-15T10:33:05.000Z</time>
</trkpt>
<trkpt lat="45.8587100" lon="9.1982840">
	<ele>1243.60</ele>
	<time>2025-02-15T10:33:06.000Z</time>
</trkpt>
<trkpt lat="45.8587140" lon="9.1982800">
	<ele>1243.60</ele>
	<time>2025-02-15T10:33:07.000Z</time>
</trkpt>
<trkpt lat="45.8587210" lon="9.1982730">
	<ele>1243.60</ele>
	<time>2025-02-15T10:33:08.000Z</time>
</trkpt>
<trkpt lat="45.8587350" lon="9.1982690">
	<ele>1243.80</ele>
	<time>2025-02-15T10:33:09.000Z</time>
</trkpt>
<trkpt lat="45.8587460" lon="9.1982600">
	<ele>1243.80</ele>
	<time>2025-02-15T10:33:10.000Z</time>
</trkpt>
<trkpt lat="45.8587590" lon="9.1982570">
	<ele>1243.80</ele>
	<time>2025-02-15T10:33:11.000Z</time>
</trkpt>
<trkpt lat="45.8587700" lon="9.1982620">
	<ele>1244.00</ele>
	<time>2025-02-15T10:33:12.000Z</time>
</trkpt>
<trkpt lat="45.8587830" lon="9.1982630">
	<ele>1244.00</ele>
	<time>2025-02-15T10:33:13.000Z</time>
</trkpt>
<trkpt lat="45.8587910" lon="9.1982620">
	<ele>1244.00</ele>
	<time>2025-02-15T10:33:14.000Z</time>
</trkpt>
<trkpt lat="45.8587980" lon="9.1982530">
	<ele>1244.00</ele>
	<time>2025-02-15T10:33:15.000Z</time>
</trkpt>
<trkpt lat="45.8588050" lon="9.1982450">
	<ele>1244.00</ele>
	<time>2025-02-15T10:33:16.000Z</time>
</trkpt>
<trkpt lat="45.8588130" lon="9.1982440">
	<ele>1244.00</ele>
	<time>2025-02-15T10:33:17.000Z</time>
</trkpt>
<trkpt lat="45.8588180" lon="9.1982340">
	<ele>1244.00</ele>
	<time>2025-02-15T10:33:18.000Z</time>
</trkpt>
<trkpt lat="45.8588220" lon="9.1982230">
	<ele>1244.00</ele>
	<time>2025-02-15T10:33:19.000Z</time>
</trkpt>
<trkpt lat="45.8588270" lon="9.1982160">
	<ele>1244.00</ele>
	<time>2025-02-15T10:33:20.000Z</time>
</trkpt>
<trkpt lat="45.8588340" lon="9.1982090">
	<ele>1244.00</ele>
	<time>2025-02-15T10:33:21.000Z</time>
</trkpt>
<trkpt lat="45.8588380" lon="9.1982050">
	<ele>1244.00</ele>
	<time>2025-02-15T10:33:22.000Z</time>
</trkpt>
<trkpt lat="45.8588410" lon="9.1981950">
	<ele>1244.00</ele>
	<time>2025-02-15T10:33:23.000Z</time>
</trkpt>
<trkpt lat="45.8588500" lon="9.1981800">
	<ele>1244.00</ele>
	<time>2025-02-15T10:33:24.000Z</time>
</trkpt>
<trkpt lat="45.8588550" lon="9.1981730">
	<ele>1244.00</ele>
	<time>2025-02-15T10:33:25.000Z</time>
</trkpt>
<trkpt lat="45.8588550" lon="9.1981690">
	<ele>1244.00</ele>
	<time>2025-02-15T10:33:26.000Z</time>
</trkpt>
<trkpt lat="45.8588670" lon="9.1981650">
	<ele>1244.00</ele>
	<time>2025-02-15T10:33:27.000Z</time>
</trkpt>
<trkpt lat="45.8588670" lon="9.1981620">
	<ele>1244.00</ele>
	<time>2025-02-15T10:33:28.000Z</time>
</trkpt>
<trkpt lat="45.8588700" lon="9.1981610">
	<ele>1244.00</ele>
	<time>2025-02-15T10:33:29.000Z</time>
</trkpt>
<trkpt lat="45.8588740" lon="9.1981600">
	<ele>1244.20</ele>
	<time>2025-02-15T10:33:30.000Z</time>
</trkpt>
<trkpt lat="45.8588760" lon="9.1981570">
	<ele>1244.40</ele>
	<time>2025-02-15T10:33:31.000Z</time>
</trkpt>
<trkpt lat="45.8588750" lon="9.1981550">
	<ele>1244.60</ele>
	<time>2025-02-15T10:33:32.000Z</time>
</trkpt>
<trkpt lat="45.8588770" lon="9.1981550">
	<ele>1244.60</ele>
	<time>2025-02-15T10:33:33.000Z</time>
</trkpt>
<trkpt lat="45.8588770" lon="9.1981560">
	<ele>1244.60</ele>
	<time>2025-02-15T10:33:34.000Z</time>
</trkpt>
<trkpt lat="45.8588780" lon="9.1981570">
	<ele>1244.80</ele>
	<time>2025-02-15T10:33:35.000Z</time>
</trkpt>
<trkpt lat="45.8588780" lon="9.1981570">
	<ele>1244.80</ele>
	<time>2025-02-15T10:33:36.000Z</time>
</trkpt>
<trkpt lat="45.8588780" lon="9.1981570">
	<ele>1244.80</ele>
	<time>2025-02-15T10:33:37.000Z</time>
</trkpt>
<trkpt lat="45.8588790" lon="9.1981570">
	<ele>1245.00</ele>
	<time>2025-02-15T10:33:38.000Z</time>
</trkpt>
<trkpt lat="45.8588790" lon="9.1981570">
	<ele>1245.00</ele>
	<time>2025-02-15T10:33:39.000Z</time>
</trkpt>
<trkpt lat="45.8588790" lon="9.1981570">
	<ele>1245.00</ele>
	<time>2025-02-15T10:33:40.000Z</time>
</trkpt>
<trkpt lat="45.8588790" lon="9.1981570">
	<ele>1245.00</ele>
	<time>2025-02-15T10:33:41.000Z</time>
</trkpt>
<trkpt lat="45.8588790" lon="9.1981570">
	<ele>1245.00</ele>
	<time>2025-02-15T10:33:42.000Z</time>
</trkpt>
<trkpt lat="45.8588790" lon="9.1981570">
	<ele>1245.00</ele>
	<time>2025-02-15T10:33:43.000Z</time>
</trkpt>
<trkpt lat="45.8588790" lon="9.1981570">
	<ele>1245.00</ele>
	<time>2025-02-15T10:33:44.000Z</time>
</trkpt>
<trkpt lat="45.8588790" lon="9.1981570">
	<ele>1245.00</ele>
	<time>2025-02-15T10:33:45.000Z</time>
</trkpt>
<trkpt lat="45.8588780" lon="9.1981570">
	<ele>1245.00</ele>
	<time>2025-02-15T10:33:46.000Z</time>
</trkpt>
<trkpt lat="45.8588780" lon="9.1981570">
	<ele>1245.00</ele>
	<time>2025-02-15T10:33:47.000Z</time>
</trkpt>
<trkpt lat="45.8588780" lon="9.1981570">
	<ele>1245.00</ele>
	<time>2025-02-15T10:33:48.000Z</time>
</trkpt>
<trkpt lat="45.8588780" lon="9.1981570">
	<ele>1245.00</ele>
	<time>2025-02-15T10:33:49.000Z</time>
</trkpt>
<trkpt lat="45.8588780" lon="9.1981570">
	<ele>1245.00</ele>
	<time>2025-02-15T10:33:50.000Z</time>
</trkpt>
<trkpt lat="45.8588780" lon="9.1981560">
	<ele>1244.80</ele>
	<time>2025-02-15T10:33:51.000Z</time>
</trkpt>
<trkpt lat="45.8588780" lon="9.1981560">
	<ele>1244.80</ele>
	<time>2025-02-15T10:33:52.000Z</time>
</trkpt>
<trkpt lat="45.8588780" lon="9.1981550">
	<ele>1244.80</ele>
	<time>2025-02-15T10:33:53.000Z</time>
</trkpt>
<trkpt lat="45.8588780" lon="9.1981550">
	<ele>1244.80</ele>
	<time>2025-02-15T10:33:54.000Z</time>
</trkpt>
<trkpt lat="45.8588780" lon="9.1981550">
	<ele>1244.80</ele>
	<time>2025-02-15T10:33:55.000Z</time>
</trkpt>
<trkpt lat="45.8588780" lon="9.1981550">
	<ele>1244.80</ele>
	<time>2025-02-15T10:33:56.000Z</time>
</trkpt>
<trkpt lat="45.8588780" lon="9.1981540">
	<ele>1245.00</ele>
	<time>2025-02-15T10:33:57.000Z</time>
</trkpt>
<trkpt lat="45.8588780" lon="9.1981530">
	<ele>1245.00</ele>
	<time>2025-02-15T10:33:58.000Z</time>
</trkpt>
<trkpt lat="45.8588780" lon="9.1981530">
	<ele>1245.00</ele>
	<time>2025-02-15T10:33:59.000Z</time>
</trkpt>
<trkpt lat="45.8588780" lon="9.1981530">
	<ele>1245.00</ele>
	<time>2025-02-15T10:34:00.000Z</time>
</trkpt>
<trkpt lat="45.8588780" lon="9.1981520">
	<ele>1245.00</ele>
	<time>2025-02-15T10:34:01.000Z</time>
</trkpt>
<trkpt lat="45.8588780" lon="9.1981520">
	<ele>1245.00</ele>
	<time>2025-02-15T10:34:02.000Z</time>
</trkpt>
<trkpt lat="45.8588780" lon="9.1981520">
	<ele>1245.00</ele>
	<time>2025-02-15T10:34:03.000Z</time>
</trkpt>
<trkpt lat="45.8588780" lon="9.1981510">
	<ele>1245.00</ele>
	<time>2025-02-15T10:34:04.000Z</time>
</trkpt>
<trkpt lat="45.8588790" lon="9.1981500">
	<ele>1245.00</ele>
	<time>2025-02-15T10:34:05.000Z</time>
</trkpt>
<trkpt lat="45.8588790" lon="9.1981500">
	<ele>1245.00</ele>
	<time>2025-02-15T10:34:06.000Z</time>
</trkpt>
<trkpt lat="45.8588810" lon="9.1981500">
	<ele>1245.00</ele>
	<time>2025-02-15T10:34:07.000Z</time>
</trkpt>
<trkpt lat="45.8588830" lon="9.1981500">
	<ele>1245.00</ele>
	<time>2025-02-15T10:34:08.000Z</time>
</trkpt>
<trkpt lat="45.8588830" lon="9.1981500">
	<ele>1245.00</ele>
	<time>2025-02-15T10:34:09.000Z</time>
</trkpt>
<trkpt lat="45.8588840" lon="9.1981500">
	<ele>1245.00</ele>
	<time>2025-02-15T10:34:10.000Z</time>
</trkpt>
<trkpt lat="45.8588840" lon="9.1981500">
	<ele>1245.00</ele>
	<time>2025-02-15T10:34:11.000Z</time>
</trkpt>
<trkpt lat="45.8588850" lon="9.1981500">
	<ele>1245.00</ele>
	<time>2025-02-15T10:34:12.000Z</time>
</trkpt>
<trkpt lat="45.8588880" lon="9.1981500">
	<ele>1245.00</ele>
	<time>2025-02-15T10:34:13.000Z</time>
</trkpt>
<trkpt lat="45.8588900" lon="9.1981490">
	<ele>1245.00</ele>
	<time>2025-02-15T10:34:14.000Z</time>
</trkpt>
<trkpt lat="45.8588900" lon="9.1981490">
	<ele>1245.00</ele>
	<time>2025-02-15T10:34:15.000Z</time>
</trkpt>
<trkpt lat="45.8588910" lon="9.1981490">
	<ele>1245.00</ele>
	<time>2025-02-15T10:34:16.000Z</time>
</trkpt>
<trkpt lat="45.8588920" lon="9.1981490">
	<ele>1245.00</ele>
	<time>2025-02-15T10:34:17.000Z</time>
</trkpt>
<trkpt lat="45.8588920" lon="9.1981480">
	<ele>1245.00</ele>
	<time>2025-02-15T10:34:18.000Z</time>
</trkpt>
<trkpt lat="45.8588920" lon="9.1981480">
	<ele>1245.00</ele>
	<time>2025-02-15T10:34:19.000Z</time>
</trkpt>
<trkpt lat="45.8588960" lon="9.1981480">
	<ele>1245.00</ele>
	<time>2025-02-15T10:34:20.000Z</time>
</trkpt>
<trkpt lat="45.8588970" lon="9.1981480">
	<ele>1245.00</ele>
	<time>2025-02-15T10:34:21.000Z</time>
</trkpt>
<trkpt lat="45.8588970" lon="9.1981480">
	<ele>1245.00</ele>
	<time>2025-02-15T10:34:22.000Z</time>
</trkpt>
<trkpt lat="45.8588980" lon="9.1981470">
	<ele>1245.00</ele>
	<time>2025-02-15T10:34:23.000Z</time>
</trkpt>
<trkpt lat="45.8588980" lon="9.1981470">
	<ele>1245.00</ele>
	<time>2025-02-15T10:34:24.000Z</time>
</trkpt>
<trkpt lat="45.8588990" lon="9.1981470">
	<ele>1245.00</ele>
	<time>2025-02-15T10:34:25.000Z</time>
</trkpt>
<trkpt lat="45.8588990" lon="9.1981460">
	<ele>1245.00</ele>
	<time>2025-02-15T10:34:26.000Z</time>
</trkpt>
<trkpt lat="45.8589000" lon="9.1981460">
	<ele>1245.00</ele>
	<time>2025-02-15T10:34:27.000Z</time>
</trkpt>
<trkpt lat="45.8589000" lon="9.1981450">
	<ele>1245.00</ele>
	<time>2025-02-15T10:34:28.000Z</time>
</trkpt>
<trkpt lat="45.8589000" lon="9.1981450">
	<ele>1245.00</ele>
	<time>2025-02-15T10:34:29.000Z</time>
</trkpt>
<trkpt lat="45.8589000" lon="9.1981450">
	<ele>1245.00</ele>
	<time>2025-02-15T10:34:30.000Z</time>
</trkpt>
<trkpt lat="45.8589000" lon="9.1981450">
	<ele>1245.00</ele>
	<time>2025-02-15T10:34:31.000Z</time>
</trkpt>
<trkpt lat="45.8589010" lon="9.1981450">
	<ele>1245.00</ele>
	<time>2025-02-15T10:34:32.000Z</time>
</trkpt>
<trkpt lat="45.8589010" lon="9.1981450">
	<ele>1245.00</ele>
	<time>2025-02-15T10:34:33.000Z</time>
</trkpt>
<trkpt lat="45.8589010" lon="9.1981460">
	<ele>1245.20</ele>
	<time>2025-02-15T10:34:34.000Z</time>
</trkpt>
<trkpt lat="45.8589010" lon="9.1981460">
	<ele>1245.20</ele>
	<time>2025-02-15T10:34:35.000Z</time>
</trkpt>
<trkpt lat="45.8589020" lon="9.1981470">
	<ele>1245.20</ele>
	<time>2025-02-15T10:34:36.000Z</time>
</trkpt>
<trkpt lat="45.8589020" lon="9.1981470">
	<ele>1245.20</ele>
	<time>2025-02-15T10:34:37.000Z</time>
</trkpt>
<trkpt lat="45.8589020" lon="9.1981470">
	<ele>1245.20</ele>
	<time>2025-02-15T10:34:38.000Z</time>
</trkpt>
<trkpt lat="45.8589020" lon="9.1981470">
	<ele>1245.20</ele>
	<time>2025-02-15T10:34:39.000Z</time>
</trkpt>
<trkpt lat="45.8589020" lon="9.1981470">
	<ele>1245.20</ele>
	<time>2025-02-15T10:34:40.000Z</time>
</trkpt>
<trkpt lat="45.8589020" lon="9.1981470">
	<ele>1245.20</ele>
	<time>2025-02-15T10:34:41.000Z</time>
</trkpt>
<trkpt lat="45.8589030" lon="9.1981470">
	<ele>1245.20</ele>
	<time>2025-02-15T10:34:42.000Z</time>
</trkpt>
<trkpt lat="45.8589030" lon="9.1981470">
	<ele>1245.20</ele>
	<time>2025-02-15T10:34:43.000Z</time>
</trkpt>
<trkpt lat="45.8589030" lon="9.1981470">
	<ele>1245.20</ele>
	<time>2025-02-15T10:34:44.000Z</time>
</trkpt>
<trkpt lat="45.8589030" lon="9.1981470">
	<ele>1245.20</ele>
	<time>2025-02-15T10:34:45.000Z</time>
</trkpt>
<trkpt lat="45.8589030" lon="9.1981470">
	<ele>1245.20</ele>
	<time>2025-02-15T10:34:46.000Z</time>
</trkpt>
<trkpt lat="45.8589030" lon="9.1981470">
	<ele>1245.20</ele>
	<time>2025-02-15T10:34:47.000Z</time>
</trkpt>
<trkpt lat="45.8589040" lon="9.1981470">
	<ele>1245.20</ele>
	<time>2025-02-15T10:34:48.000Z</time>
</trkpt>
<trkpt lat="45.8589050" lon="9.1981460">
	<ele>1245.20</ele>
	<time>2025-02-15T10:34:49.000Z</time>
</trkpt>
<trkpt lat="45.8589090" lon="9.1981400">
	<ele>1245.20</ele>
	<time>2025-02-15T10:34:50.000Z</time>
</trkpt>
<trkpt lat="45.8589110" lon="9.1981400">
	<ele>1245.20</ele>
	<time>2025-02-15T10:34:51.000Z</time>
</trkpt>
<trkpt lat="45.8589130" lon="9.1981390">
	<ele>1245.20</ele>
	<time>2025-02-15T10:34:52.000Z</time>
</trkpt>
<trkpt lat="45.8589150" lon="9.1981380">
	<ele>1245.20</ele>
	<time>2025-02-15T10:34:53.000Z</time>
</trkpt>
<trkpt lat="45.8589150" lon="9.1981370">
	<ele>1245.20</ele>
	<time>2025-02-15T10:34:54.000Z</time>
</trkpt>
<trkpt lat="45.8589170" lon="9.1981330">
	<ele>1245.20</ele>
	<time>2025-02-15T10:34:55.000Z</time>
</trkpt>
<trkpt lat="45.8589170" lon="9.1981310">
	<ele>1245.20</ele>
	<time>2025-02-15T10:34:56.000Z</time>
</trkpt>
<trkpt lat="45.8589170" lon="9.1981310">
	<ele>1245.20</ele>
	<time>2025-02-15T10:34:57.000Z</time>
</trkpt>
<trkpt lat="45.8589170" lon="9.1981300">
	<ele>1245.20</ele>
	<time>2025-02-15T10:34:58.000Z</time>
</trkpt>
<trkpt lat="45.8589170" lon="9.1981300">
	<ele>1245.20</ele>
	<time>2025-02-15T10:34:59.000Z</time>
</trkpt>
<trkpt lat="45.8589170" lon="9.1981300">
	<ele>1245.20</ele>
	<time>2025-02-15T10:35:00.000Z</time>
</trkpt>
<trkpt lat="45.8589170" lon="9.1981300">
	<ele>1245.20</ele>
	<time>2025-02-15T10:35:01.000Z</time>
</trkpt>
<trkpt lat="45.8589170" lon="9.1981300">
	<ele>1245.20</ele>
	<time>2025-02-15T10:35:02.000Z</time>
</trkpt>
<trkpt lat="45.8589170" lon="9.1981300">
	<ele>1245.20</ele>
	<time>2025-02-15T10:35:03.000Z</time>
</trkpt>
<trkpt lat="45.8589170" lon="9.1981300">
	<ele>1245.20</ele>
	<time>2025-02-15T10:35:04.000Z</time>
</trkpt>
<trkpt lat="45.8589170" lon="9.1981300">
	<ele>1245.20</ele>
	<time>2025-02-15T10:35:05.000Z</time>
</trkpt>
<trkpt lat="45.8589170" lon="9.1981300">
	<ele>1245.20</ele>
	<time>2025-02-15T10:35:06.000Z</time>
</trkpt>
<trkpt lat="45.8589170" lon="9.1981300">
	<ele>1245.20</ele>
	<time>2025-02-15T10:35:07.000Z</time>
</trkpt>
<trkpt lat="45.8589170" lon="9.1981300">
	<ele>1245.20</ele>
	<time>2025-02-15T10:35:08.000Z</time>
</trkpt>
<trkpt lat="45.8589170" lon="9.1981300">
	<ele>1245.20</ele>
	<time>2025-02-15T10:35:09.000Z</time>
</trkpt>
<trkpt lat="45.8589170" lon="9.1981300">
	<ele>1245.20</ele>
	<time>2025-02-15T10:35:10.000Z</time>
</trkpt>
<trkpt lat="45.8589170" lon="9.1981300">
	<ele>1245.20</ele>
	<time>2025-02-15T10:35:11.000Z</time>
</trkpt>
<trkpt lat="45.8589170" lon="9.1981300">
	<ele>1245.20</ele>
	<time>2025-02-15T10:35:12.000Z</time>
</trkpt>
<trkpt lat="45.8589170" lon="9.1981300">
	<ele>1245.20</ele>
	<time>2025-02-15T10:35:13.000Z</time>
</trkpt>
<trkpt lat="45.8589170" lon="9.1981300">
	<ele>1245.20</ele>
	<time>2025-02-15T10:35:14.000Z</time>
</trkpt>
<trkpt lat="45.8589170" lon="9.1981300">
	<ele>1245.20</ele>
	<time>2025-02-15T10:35:15.000Z</time>
</trkpt>
<trkpt lat="45.8589170" lon="9.1981300">
	<ele>1245.20</ele>
	<time>2025-02-15T10:35:16.000Z</time>
</trkpt>
<trkpt lat="45.8589170" lon="9.1981300">
	<ele>1245.20</ele>
	<time>2025-02-15T10:35:17.000Z</time>
</trkpt>
<trkpt lat="45.8589170" lon="9.1981300">
	<ele>1245.20</ele>
	<time>2025-02-15T10:35:18.000Z</time>
</trkpt>
<trkpt lat="45.8589170" lon="9.1981300">
	<ele>1245.20</ele>
	<time>2025-02-15T10:35:19.000Z</time>
</trkpt>
<trkpt lat="45.8589170" lon="9.1981300">
	<ele>1245.20</ele>
	<time>2025-02-15T10:35:20.000Z</time>
</trkpt>
<trkpt lat="45.8589170" lon="9.1981290">
	<ele>1245.20</ele>
	<time>2025-02-15T10:35:21.000Z</time>
</trkpt>
<trkpt lat="45.8589170" lon="9.1981290">
	<ele>1245.20</ele>
	<time>2025-02-15T10:35:22.000Z</time>
</trkpt>
<trkpt lat="45.8589160" lon="9.1981290">
	<ele>1245.20</ele>
	<time>2025-02-15T10:35:23.000Z</time>
</trkpt>
<trkpt lat="45.8589150" lon="9.1981290">
	<ele>1245.20</ele>
	<time>2025-02-15T10:35:24.000Z</time>
</trkpt>
<trkpt lat="45.8589150" lon="9.1981280">
	<ele>1245.20</ele>
	<time>2025-02-15T10:35:25.000Z</time>
</trkpt>
<trkpt lat="45.8589140" lon="9.1981280">
	<ele>1245.20</ele>
	<time>2025-02-15T10:35:26.000Z</time>
</trkpt>
<trkpt lat="45.8589140" lon="9.1981280">
	<ele>1245.20</ele>
	<time>2025-02-15T10:35:27.000Z</time>
</trkpt>
<trkpt lat="45.8589120" lon="9.1981280">
	<ele>1245.20</ele>
	<time>2025-02-15T10:35:28.000Z</time>
</trkpt>
<trkpt lat="45.8589110" lon="9.1981280">
	<ele>1245.20</ele>
	<time>2025-02-15T10:35:29.000Z</time>
</trkpt>
<trkpt lat="45.8589110" lon="9.1981280">
	<ele>1245.20</ele>
	<time>2025-02-15T10:35:30.000Z</time>
</trkpt>
<trkpt lat="45.8589110" lon="9.1981280">
	<ele>1245.20</ele>
	<time>2025-02-15T10:35:31.000Z</time>
</trkpt>
<trkpt lat="45.8589110" lon="9.1981280">
	<ele>1245.20</ele>
	<time>2025-02-15T10:35:32.000Z</time>
</trkpt>
<trkpt lat="45.8589110" lon="9.1981280">
	<ele>1245.20</ele>
	<time>2025-02-15T10:35:33.000Z</time>
</trkpt>
<trkpt lat="45.8589110" lon="9.1981260">
	<ele>1245.20</ele>
	<time>2025-02-15T10:35:34.000Z</time>
</trkpt>
<trkpt lat="45.8589110" lon="9.1981250">
	<ele>1245.20</ele>
	<time>2025-02-15T10:35:35.000Z</time>
</trkpt>
<trkpt lat="45.8589110" lon="9.1981240">
	<ele>1245.20</ele>
	<time>2025-02-15T10:35:36.000Z</time>
</trkpt>
<trkpt lat="45.8589110" lon="9.1981240">
	<ele>1245.20</ele>
	<time>2025-02-15T10:35:37.000Z</time>
</trkpt>
<trkpt lat="45.8589110" lon="9.1981240">
	<ele>1245.20</ele>
	<time>2025-02-15T10:35:38.000Z</time>
</trkpt>
<trkpt lat="45.8589110" lon="9.1981210">
	<ele>1245.20</ele>
	<time>2025-02-15T10:35:39.000Z</time>
</trkpt>
<trkpt lat="45.8589110" lon="9.1981210">
	<ele>1245.20</ele>
	<time>2025-02-15T10:35:40.000Z</time>
</trkpt>
<trkpt lat="45.8589190" lon="9.1981210">
	<ele>1245.20</ele>
	<time>2025-02-15T10:35:41.000Z</time>
</trkpt>
<trkpt lat="45.8589310" lon="9.1981230">
	<ele>1245.20</ele>
	<time>2025-02-15T10:35:42.000Z</time>
</trkpt>
<trkpt lat="45.8589460" lon="9.1981260">
	<ele>1245.20</ele>
	<time>2025-02-15T10:35:43.000Z</time>
</trkpt>
<trkpt lat="45.8589610" lon="9.1981220">
	<ele>1245.20</ele>
	<time>2025-02-15T10:35:44.000Z</time>
</trkpt>
<trkpt lat="45.8589720" lon="9.1981190">
	<ele>1245.20</ele>
	<time>2025-02-15T10:35:45.000Z</time>
</trkpt>
<trkpt lat="45.8589840" lon="9.1981180">
	<ele>1245.20</ele>
	<time>2025-02-15T10:35:46.000Z</time>
</trkpt>
<trkpt lat="45.8589940" lon="9.1981170">
	<ele>1245.20</ele>
	<time>2025-02-15T10:35:47.000Z</time>
</trkpt>
<trkpt lat="45.8590040" lon="9.1981110">
	<ele>1245.20</ele>
	<time>2025-02-15T10:35:48.000Z</time>
</trkpt>
<trkpt lat="45.8590130" lon="9.1981050">
	<ele>1246.20</ele>
	<time>2025-02-15T10:35:49.000Z</time>
</trkpt>
<trkpt lat="45.8590240" lon="9.1981010">
	<ele>1246.80</ele>
	<time>2025-02-15T10:35:50.000Z</time>
</trkpt>
<trkpt lat="45.8590310" lon="9.1980990">
	<ele>1247.00</ele>
	<time>2025-02-15T10:35:51.000Z</time>
</trkpt>
<trkpt lat="45.8590360" lon="9.1980960">
	<ele>1247.20</ele>
	<time>2025-02-15T10:35:52.000Z</time>
</trkpt>
<trkpt lat="45.8590440" lon="9.1980960">
	<ele>1247.20</ele>
	<time>2025-02-15T10:35:53.000Z</time>
</trkpt>
<trkpt lat="45.8590590" lon="9.1980950">
	<ele>1247.40</ele>
	<time>2025-02-15T10:35:54.000Z</time>
</trkpt>
<trkpt lat="45.8590720" lon="9.1980960">
	<ele>1247.40</ele>
	<time>2025-02-15T10:35:55.000Z</time>
</trkpt>
<trkpt lat="45.8590800" lon="9.1980940">
	<ele>1247.60</ele>
	<time>2025-02-15T10:35:56.000Z</time>
</trkpt>
<trkpt lat="45.8590830" lon="9.1980900">
	<ele>1247.80</ele>
	<time>2025-02-15T10:35:57.000Z</time>
</trkpt>
<trkpt lat="45.8590880" lon="9.1980890">
	<ele>1247.80</ele>
	<time>2025-02-15T10:35:58.000Z</time>
</trkpt>
<trkpt lat="45.8590950" lon="9.1980930">
	<ele>1247.80</ele>
	<time>2025-02-15T10:35:59.000Z</time>
</trkpt>
<trkpt lat="45.8591040" lon="9.1980910">
	<ele>1248.00</ele>
	<time>2025-02-15T10:36:00.000Z</time>
</trkpt>
<trkpt lat="45.8591130" lon="9.1980880">
	<ele>1247.80</ele>
	<time>2025-02-15T10:36:01.000Z</time>
</trkpt>
<trkpt lat="45.8591230" lon="9.1980840">
	<ele>1248.00</ele>
	<time>2025-02-15T10:36:02.000Z</time>
</trkpt>
<trkpt lat="45.8591340" lon="9.1980840">
	<ele>1248.00</ele>
	<time>2025-02-15T10:36:03.000Z</time>
</trkpt>
<trkpt lat="45.8591390" lon="9.1980820">
	<ele>1248.00</ele>
	<time>2025-02-15T10:36:04.000Z</time>
</trkpt>
<trkpt lat="45.8591460" lon="9.1980790">
	<ele>1248.20</ele>
	<time>2025-02-15T10:36:05.000Z</time>
</trkpt>
<trkpt lat="45.8591540" lon="9.1980740">
	<ele>1248.20</ele>
	<time>2025-02-15T10:36:06.000Z</time>
</trkpt>
<trkpt lat="45.8591620" lon="9.1980690">
	<ele>1248.40</ele>
	<time>2025-02-15T10:36:07.000Z</time>
</trkpt>
<trkpt lat="45.8591730" lon="9.1980670">
	<ele>1248.60</ele>
	<time>2025-02-15T10:36:08.000Z</time>
</trkpt>
<trkpt lat="45.8591820" lon="9.1980640">
	<ele>1248.60</ele>
	<time>2025-02-15T10:36:09.000Z</time>
</trkpt>
<trkpt lat="45.8591910" lon="9.1980640">
	<ele>1248.80</ele>
	<time>2025-02-15T10:36:10.000Z</time>
</trkpt>
<trkpt lat="45.8591950" lon="9.1980640">
	<ele>1248.80</ele>
	<time>2025-02-15T10:36:11.000Z</time>
</trkpt>
<trkpt lat="45.8592080" lon="9.1980670">
	<ele>1249.20</ele>
	<time>2025-02-15T10:36:12.000Z</time>
</trkpt>
<trkpt lat="45.8592270" lon="9.1980700">
	<ele>1249.60</ele>
	<time>2025-02-15T10:36:13.000Z</time>
</trkpt>
<trkpt lat="45.8592460" lon="9.1980730">
	<ele>1249.80</ele>
	<time>2025-02-15T10:36:14.000Z</time>
</trkpt>
<trkpt lat="45.8592570" lon="9.1980740">
	<ele>1249.80</ele>
	<time>2025-02-15T10:36:15.000Z</time>
</trkpt>
<trkpt lat="45.8592600" lon="9.1980700">
	<ele>1250.00</ele>
	<time>2025-02-15T10:36:16.000Z</time>
</trkpt>
<trkpt lat="45.8592680" lon="9.1980670">
	<ele>1250.00</ele>
	<time>2025-02-15T10:36:17.000Z</time>
</trkpt>
<trkpt lat="45.8592720" lon="9.1980590">
	<ele>1250.20</ele>
	<time>2025-02-15T10:36:18.000Z</time>
</trkpt>
<trkpt lat="45.8592790" lon="9.1980580">
	<ele>1250.20</ele>
	<time>2025-02-15T10:36:19.000Z</time>
</trkpt>
<trkpt lat="45.8592930" lon="9.1980560">
	<ele>1250.40</ele>
	<time>2025-02-15T10:36:20.000Z</time>
</trkpt>
<trkpt lat="45.8593020" lon="9.1980530">
	<ele>1250.40</ele>
	<time>2025-02-15T10:36:21.000Z</time>
</trkpt>
<trkpt lat="45.8593120" lon="9.1980540">
	<ele>1250.40</ele>
	<time>2025-02-15T10:36:22.000Z</time>
</trkpt>
<trkpt lat="45.8593220" lon="9.1980610">
	<ele>1250.40</ele>
	<time>2025-02-15T10:36:23.000Z</time>
</trkpt>
<trkpt lat="45.8593310" lon="9.1980680">
	<ele>1250.40</ele>
	<time>2025-02-15T10:36:24.000Z</time>
</trkpt>
<trkpt lat="45.8593380" lon="9.1980690">
	<ele>1250.60</ele>
	<time>2025-02-15T10:36:25.000Z</time>
</trkpt>
<trkpt lat="45.8593420" lon="9.1980690">
	<ele>1250.60</ele>
	<time>2025-02-15T10:36:26.000Z</time>
</trkpt>
<trkpt lat="45.8593480" lon="9.1980690">
	<ele>1250.80</ele>
	<time>2025-02-15T10:36:27.000Z</time>
</trkpt>
<trkpt lat="45.8593580" lon="9.1980710">
	<ele>1251.00</ele>
	<time>2025-02-15T10:36:28.000Z</time>
</trkpt>
<trkpt lat="45.8593670" lon="9.1980770">
	<ele>1250.80</ele>
	<time>2025-02-15T10:36:29.000Z</time>
</trkpt>
<trkpt lat="45.8593790" lon="9.1980820">
	<ele>1251.00</ele>
	<time>2025-02-15T10:36:30.000Z</time>
</trkpt>
<trkpt lat="45.8593910" lon="9.1980880">
	<ele>1251.00</ele>
	<time>2025-02-15T10:36:31.000Z</time>
</trkpt>
<trkpt lat="45.8593950" lon="9.1980880">
	<ele>1251.20</ele>
	<time>2025-02-15T10:36:32.000Z</time>
</trkpt>
<trkpt lat="45.8593980" lon="9.1980880">
	<ele>1251.40</ele>
	<time>2025-02-15T10:36:33.000Z</time>
</trkpt>
<trkpt lat="45.8594040" lon="9.1980860">
	<ele>1251.40</ele>
	<time>2025-02-15T10:36:34.000Z</time>
</trkpt>
<trkpt lat="45.8594040" lon="9.1980910">
	<ele>1251.40</ele>
	<time>2025-02-15T10:36:35.000Z</time>
</trkpt>
<trkpt lat="45.8594050" lon="9.1980960">
	<ele>1251.40</ele>
	<time>2025-02-15T10:36:36.000Z</time>
</trkpt>
<trkpt lat="45.8594140" lon="9.1980830">
	<ele>1251.60</ele>
	<time>2025-02-15T10:36:37.000Z</time>
</trkpt>
<trkpt lat="45.8594220" lon="9.1980810">
	<ele>1251.80</ele>
	<time>2025-02-15T10:36:38.000Z</time>
</trkpt>
<trkpt lat="45.8594250" lon="9.1980810">
	<ele>1251.80</ele>
	<time>2025-02-15T10:36:39.000Z</time>
</trkpt>
<trkpt lat="45.8594330" lon="9.1980830">
	<ele>1252.00</ele>
	<time>2025-02-15T10:36:40.000Z</time>
</trkpt>
<trkpt lat="45.8594410" lon="9.1980700">
	<ele>1252.20</ele>
	<time>2025-02-15T10:36:41.000Z</time>
</trkpt>
<trkpt lat="45.8594490" lon="9.1980670">
	<ele>1252.40</ele>
	<time>2025-02-15T10:36:42.000Z</time>
</trkpt>
<trkpt lat="45.8594600" lon="9.1980710">
	<ele>1252.40</ele>
	<time>2025-02-15T10:36:43.000Z</time>
</trkpt>
<trkpt lat="45.8594720" lon="9.1980730">
	<ele>1252.40</ele>
	<time>2025-02-15T10:36:44.000Z</time>
</trkpt>
<trkpt lat="45.8594760" lon="9.1980780">
	<ele>1252.40</ele>
	<time>2025-02-15T10:36:45.000Z</time>
</trkpt>
<trkpt lat="45.8594820" lon="9.1980760">
	<ele>1252.40</ele>
	<time>2025-02-15T10:36:46.000Z</time>
</trkpt>
<trkpt lat="45.8594810" lon="9.1980800">
	<ele>1252.40</ele>
	<time>2025-02-15T10:36:47.000Z</time>
</trkpt>
<trkpt lat="45.8594830" lon="9.1980810">
	<ele>1252.40</ele>
	<time>2025-02-15T10:36:48.000Z</time>
</trkpt>
<trkpt lat="45.8594940" lon="9.1980810">
	<ele>1252.40</ele>
	<time>2025-02-15T10:36:49.000Z</time>
</trkpt>
<trkpt lat="45.8594950" lon="9.1980850">
	<ele>1252.40</ele>
	<time>2025-02-15T10:36:50.000Z</time>
</trkpt>
<trkpt lat="45.8595050" lon="9.1980920">
	<ele>1252.40</ele>
	<time>2025-02-15T10:36:51.000Z</time>
</trkpt>
<trkpt lat="45.8595190" lon="9.1981020">
	<ele>1252.20</ele>
	<time>2025-02-15T10:36:52.000Z</time>
</trkpt>
<trkpt lat="45.8595310" lon="9.1981030">
	<ele>1252.40</ele>
	<time>2025-02-15T10:36:53.000Z</time>
</trkpt>
<trkpt lat="45.8595420" lon="9.1980980">
	<ele>1252.60</ele>
	<time>2025-02-15T10:36:54.000Z</time>
</trkpt>
<trkpt lat="45.8595510" lon="9.1980960">
	<ele>1252.80</ele>
	<time>2025-02-15T10:36:55.000Z</time>
</trkpt>
<trkpt lat="45.8595620" lon="9.1981010">
	<ele>1252.80</ele>
	<time>2025-02-15T10:36:56.000Z</time>
</trkpt>
<trkpt lat="45.8595740" lon="9.1981020">
	<ele>1252.80</ele>
	<time>2025-02-15T10:36:57.000Z</time>
</trkpt>
<trkpt lat="45.8595890" lon="9.1981080">
	<ele>1252.80</ele>
	<time>2025-02-15T10:36:58.000Z</time>
</trkpt>
<trkpt lat="45.8596000" lon="9.1981140">
	<ele>1253.00</ele>
	<time>2025-02-15T10:36:59.000Z</time>
</trkpt>
<trkpt lat="45.8596110" lon="9.1981250">
	<ele>1253.00</ele>
	<time>2025-02-15T10:37:00.000Z</time>
</trkpt>
<trkpt lat="45.8596210" lon="9.1981280">
	<ele>1253.20</ele>
	<time>2025-02-15T10:37:01.000Z</time>
</trkpt>
<trkpt lat="45.8596340" lon="9.1981280">
	<ele>1253.20</ele>
	<time>2025-02-15T10:37:02.000Z</time>
</trkpt>
<trkpt lat="45.8596490" lon="9.1981340">
	<ele>1253.20</ele>
	<time>2025-02-15T10:37:03.000Z</time>
</trkpt>
<trkpt lat="45.8596610" lon="9.1981440">
	<ele>1253.00</ele>
	<time>2025-02-15T10:37:04.000Z</time>
</trkpt>
<trkpt lat="45.8596700" lon="9.1981450">
	<ele>1253.00</ele>
	<time>2025-02-15T10:37:05.000Z</time>
</trkpt>
<trkpt lat="45.8596830" lon="9.1981450">
	<ele>1253.00</ele>
	<time>2025-02-15T10:37:06.000Z</time>
</trkpt>
<trkpt lat="45.8597010" lon="9.1981610">
	<ele>1253.00</ele>
	<time>2025-02-15T10:37:07.000Z</time>
</trkpt>
<trkpt lat="45.8597090" lon="9.1981740">
	<ele>1253.00</ele>
	<time>2025-02-15T10:37:08.000Z</time>
</trkpt>
<trkpt lat="45.8597210" lon="9.1981910">
	<ele>1253.00</ele>
	<time>2025-02-15T10:37:09.000Z</time>
</trkpt>
<trkpt lat="45.8597320" lon="9.1982050">
	<ele>1253.20</ele>
	<time>2025-02-15T10:37:10.000Z</time>
</trkpt>
<trkpt lat="45.8597450" lon="9.1982220">
	<ele>1253.20</ele>
	<time>2025-02-15T10:37:11.000Z</time>
</trkpt>
<trkpt lat="45.8597570" lon="9.1982280">
	<ele>1253.40</ele>
	<time>2025-02-15T10:37:12.000Z</time>
</trkpt>
<trkpt lat="45.8597710" lon="9.1982300">
	<ele>1253.40</ele>
	<time>2025-02-15T10:37:13.000Z</time>
</trkpt>
<trkpt lat="45.8597860" lon="9.1982430">
	<ele>1253.40</ele>
	<time>2025-02-15T10:37:14.000Z</time>
</trkpt>
<trkpt lat="45.8597980" lon="9.1982410">
	<ele>1253.40</ele>
	<time>2025-02-15T10:37:15.000Z</time>
</trkpt>
<trkpt lat="45.8598130" lon="9.1982430">
	<ele>1253.40</ele>
	<time>2025-02-15T10:37:16.000Z</time>
</trkpt>
<trkpt lat="45.8598290" lon="9.1982390">
	<ele>1253.40</ele>
	<time>2025-02-15T10:37:17.000Z</time>
</trkpt>
<trkpt lat="45.8598510" lon="9.1982380">
	<ele>1253.60</ele>
	<time>2025-02-15T10:37:18.000Z</time>
</trkpt>
<trkpt lat="45.8598670" lon="9.1982320">
	<ele>1253.60</ele>
	<time>2025-02-15T10:37:19.000Z</time>
</trkpt>
<trkpt lat="45.8598840" lon="9.1982110">
	<ele>1253.60</ele>
	<time>2025-02-15T10:37:20.000Z</time>
</trkpt>
<trkpt lat="45.8598980" lon="9.1982110">
	<ele>1253.60</ele>
	<time>2025-02-15T10:37:21.000Z</time>
</trkpt>
<trkpt lat="45.8599070" lon="9.1982160">
	<ele>1253.60</ele>
	<time>2025-02-15T10:37:22.000Z</time>
</trkpt>
<trkpt lat="45.8599130" lon="9.1982280">
	<ele>1253.60</ele>
	<time>2025-02-15T10:37:23.000Z</time>
</trkpt>
<trkpt lat="45.8599230" lon="9.1982400">
	<ele>1253.80</ele>
	<time>2025-02-15T10:37:24.000Z</time>
</trkpt>
<trkpt lat="45.8599370" lon="9.1982480">
	<ele>1253.80</ele>
	<time>2025-02-15T10:37:25.000Z</time>
</trkpt>
<trkpt lat="45.8599520" lon="9.1982550">
	<ele>1254.20</ele>
	<time>2025-02-15T10:37:26.000Z</time>
</trkpt>
<trkpt lat="45.8599650" lon="9.1982530">
	<ele>1254.20</ele>
	<time>2025-02-15T10:37:27.000Z</time>
</trkpt>
<trkpt lat="45.8599700" lon="9.1982540">
	<ele>1254.40</ele>
	<time>2025-02-15T10:37:28.000Z</time>
</trkpt>
<trkpt lat="45.8599760" lon="9.1982590">
	<ele>1254.60</ele>
	<time>2025-02-15T10:37:29.000Z</time>
</trkpt>
<trkpt lat="45.8599800" lon="9.1982620">
	<ele>1254.60</ele>
	<time>2025-02-15T10:37:30.000Z</time>
</trkpt>
<trkpt lat="45.8599890" lon="9.1982690">
	<ele>1254.80</ele>
	<time>2025-02-15T10:37:31.000Z</time>
</trkpt>
<trkpt lat="45.8600000" lon="9.1982670">
	<ele>1254.80</ele>
	<time>2025-02-15T10:37:32.000Z</time>
</trkpt>
<trkpt lat="45.8600130" lon="9.1982660">
	<ele>1254.80</ele>
	<time>2025-02-15T10:37:33.000Z</time>
</trkpt>
<trkpt lat="45.8600210" lon="9.1982680">
	<ele>1254.80</ele>
	<time>2025-02-15T10:37:34.000Z</time>
</trkpt>
<trkpt lat="45.8600230" lon="9.1982690">
	<ele>1254.80</ele>
	<time>2025-02-15T10:37:35.000Z</time>
</trkpt>
<trkpt lat="45.8600260" lon="9.1982740">
	<ele>1254.80</ele>
	<time>2025-02-15T10:37:36.000Z</time>
</trkpt>
<trkpt lat="45.8600380" lon="9.1982740">
	<ele>1254.80</ele>
	<time>2025-02-15T10:37:37.000Z</time>
</trkpt>
<trkpt lat="45.8600480" lon="9.1982740">
	<ele>1255.00</ele>
	<time>2025-02-15T10:37:38.000Z</time>
</trkpt>
<trkpt lat="45.8600680" lon="9.1982710">
	<ele>1255.00</ele>
	<time>2025-02-15T10:37:39.000Z</time>
</trkpt>
<trkpt lat="45.8600810" lon="9.1982780">
	<ele>1255.00</ele>
	<time>2025-02-15T10:37:40.000Z</time>
</trkpt>
<trkpt lat="45.8600920" lon="9.1982810">
	<ele>1255.20</ele>
	<time>2025-02-15T10:37:41.000Z</time>
</trkpt>
<trkpt lat="45.8601020" lon="9.1982880">
	<ele>1255.40</ele>
	<time>2025-02-15T10:37:42.000Z</time>
</trkpt>
<trkpt lat="45.8601140" lon="9.1982970">
	<ele>1255.60</ele>
	<time>2025-02-15T10:37:43.000Z</time>
</trkpt>
<trkpt lat="45.8601280" lon="9.1983040">
	<ele>1255.80</ele>
	<time>2025-02-15T10:37:44.000Z</time>
</trkpt>
<trkpt lat="45.8601370" lon="9.1983130">
	<ele>1255.80</ele>
	<time>2025-02-15T10:37:45.000Z</time>
</trkpt>
<trkpt lat="45.8601460" lon="9.1983230">
	<ele>1255.80</ele>
	<time>2025-02-15T10:37:46.000Z</time>
</trkpt>
<trkpt lat="45.8601570" lon="9.1983300">
	<ele>1256.00</ele>
	<time>2025-02-15T10:37:47.000Z</time>
</trkpt>
<trkpt lat="45.8601630" lon="9.1983360">
	<ele>1256.00</ele>
	<time>2025-02-15T10:37:48.000Z</time>
</trkpt>
<trkpt lat="45.8601710" lon="9.1983460">
	<ele>1256.20</ele>
	<time>2025-02-15T10:37:49.000Z</time>
</trkpt>
<trkpt lat="45.8601820" lon="9.1983520">
	<ele>1256.20</ele>
	<time>2025-02-15T10:37:50.000Z</time>
</trkpt>
<trkpt lat="45.8601930" lon="9.1983540">
	<ele>1256.20</ele>
	<time>2025-02-15T10:37:51.000Z</time>
</trkpt>
<trkpt lat="45.8602040" lon="9.1983530">
	<ele>1256.20</ele>
	<time>2025-02-15T10:37:52.000Z</time>
</trkpt>
<trkpt lat="45.8602160" lon="9.1983500">
	<ele>1256.20</ele>
	<time>2025-02-15T10:37:53.000Z</time>
</trkpt>
<trkpt lat="45.8602290" lon="9.1983570">
	<ele>1256.20</ele>
	<time>2025-02-15T10:37:54.000Z</time>
</trkpt>
<trkpt lat="45.8602390" lon="9.1983610">
	<ele>1256.20</ele>
	<time>2025-02-15T10:37:55.000Z</time>
</trkpt>
<trkpt lat="45.8602490" lon="9.1983630">
	<ele>1256.00</ele>
	<time>2025-02-15T10:37:56.000Z</time>
</trkpt>
<trkpt lat="45.8602580" lon="9.1983620">
	<ele>1255.80</ele>
	<time>2025-02-15T10:37:57.000Z</time>
</trkpt>
<trkpt lat="45.8602670" lon="9.1983570">
	<ele>1256.00</ele>
	<time>2025-02-15T10:37:58.000Z</time>
</trkpt>
<trkpt lat="45.8602810" lon="9.1983520">
	<ele>1256.00</ele>
	<time>2025-02-15T10:37:59.000Z</time>
</trkpt>
<trkpt lat="45.8602930" lon="9.1983470">
	<ele>1256.20</ele>
	<time>2025-02-15T10:38:00.000Z</time>
</trkpt>
<trkpt lat="45.8603040" lon="9.1983400">
	<ele>1256.20</ele>
	<time>2025-02-15T10:38:01.000Z</time>
</trkpt>
<trkpt lat="45.8603170" lon="9.1983340">
	<ele>1256.20</ele>
	<time>2025-02-15T10:38:02.000Z</time>
</trkpt>
<trkpt lat="45.8603310" lon="9.1983210">
	<ele>1256.20</ele>
	<time>2025-02-15T10:38:03.000Z</time>
</trkpt>
<trkpt lat="45.8603410" lon="9.1983080">
	<ele>1256.20</ele>
	<time>2025-02-15T10:38:04.000Z</time>
</trkpt>
<trkpt lat="45.8603510" lon="9.1982970">
	<ele>1256.20</ele>
	<time>2025-02-15T10:38:05.000Z</time>
</trkpt>
<trkpt lat="45.8603620" lon="9.1982880">
	<ele>1256.20</ele>
	<time>2025-02-15T10:38:06.000Z</time>
</trkpt>
<trkpt lat="45.8603720" lon="9.1982800">
	<ele>1256.20</ele>
	<time>2025-02-15T10:38:07.000Z</time>
</trkpt>
<trkpt lat="45.8603830" lon="9.1982760">
	<ele>1256.20</ele>
	<time>2025-02-15T10:38:08.000Z</time>
</trkpt>
<trkpt lat="45.8603940" lon="9.1982670">
	<ele>1256.20</ele>
	<time>2025-02-15T10:38:09.000Z</time>
</trkpt>
<trkpt lat="45.8604030" lon="9.1982590">
	<ele>1256.20</ele>
	<time>2025-02-15T10:38:10.000Z</time>
</trkpt>
<trkpt lat="45.8604130" lon="9.1982520">
	<ele>1256.20</ele>
	<time>2025-02-15T10:38:11.000Z</time>
</trkpt>
<trkpt lat="45.8604230" lon="9.1982440">
	<ele>1256.20</ele>
	<time>2025-02-15T10:38:12.000Z</time>
</trkpt>
<trkpt lat="45.8604360" lon="9.1982340">
	<ele>1256.40</ele>
	<time>2025-02-15T10:38:13.000Z</time>
</trkpt>
<trkpt lat="45.8604490" lon="9.1982290">
	<ele>1256.40</ele>
	<time>2025-02-15T10:38:14.000Z</time>
</trkpt>
<trkpt lat="45.8604610" lon="9.1982260">
	<ele>1256.40</ele>
	<time>2025-02-15T10:38:15.000Z</time>
</trkpt>
<trkpt lat="45.8604740" lon="9.1982240">
	<ele>1256.40</ele>
	<time>2025-02-15T10:38:16.000Z</time>
</trkpt>
<trkpt lat="45.8604820" lon="9.1982190">
	<ele>1256.40</ele>
	<time>2025-02-15T10:38:17.000Z</time>
</trkpt>
<trkpt lat="45.8604890" lon="9.1982070">
	<ele>1256.60</ele>
	<time>2025-02-15T10:38:18.000Z</time>
</trkpt>
<trkpt lat="45.8604970" lon="9.1981970">
	<ele>1256.60</ele>
	<time>2025-02-15T10:38:19.000Z</time>
</trkpt>
<trkpt lat="45.8605090" lon="9.1981880">
	<ele>1256.80</ele>
	<time>2025-02-15T10:38:20.000Z</time>
</trkpt>
<trkpt lat="45.8605150" lon="9.1981760">
	<ele>1256.80</ele>
	<time>2025-02-15T10:38:21.000Z</time>
</trkpt>
<trkpt lat="45.8605260" lon="9.1981680">
	<ele>1256.60</ele>
	<time>2025-02-15T10:38:22.000Z</time>
</trkpt>
<trkpt lat="45.8605400" lon="9.1981590">
	<ele>1256.80</ele>
	<time>2025-02-15T10:38:23.000Z</time>
</trkpt>
<trkpt lat="45.8605500" lon="9.1981550">
	<ele>1256.80</ele>
	<time>2025-02-15T10:38:24.000Z</time>
</trkpt>
<trkpt lat="45.8605630" lon="9.1981510">
	<ele>1256.80</ele>
	<time>2025-02-15T10:38:25.000Z</time>
</trkpt>
<trkpt lat="45.8605750" lon="9.1981450">
	<ele>1256.80</ele>
	<time>2025-02-15T10:38:26.000Z</time>
</trkpt>
<trkpt lat="45.8605850" lon="9.1981360">
	<ele>1257.00</ele>
	<time>2025-02-15T10:38:27.000Z</time>
</trkpt>
<trkpt lat="45.8605960" lon="9.1981290">
	<ele>1257.20</ele>
	<time>2025-02-15T10:38:28.000Z</time>
</trkpt>
<trkpt lat="45.8606050" lon="9.1981150">
	<ele>1257.40</ele>
	<time>2025-02-15T10:38:29.000Z</time>
</trkpt>
<trkpt lat="45.8606120" lon="9.1981040">
	<ele>1257.40</ele>
	<time>2025-02-15T10:38:30.000Z</time>
</trkpt>
<trkpt lat="45.8606200" lon="9.1980970">
	<ele>1257.40</ele>
	<time>2025-02-15T10:38:31.000Z</time>
</trkpt>
<trkpt lat="45.8606290" lon="9.1980900">
	<ele>1257.60</ele>
	<time>2025-02-15T10:38:32.000Z</time>
</trkpt>
<trkpt lat="45.8606380" lon="9.1980830">
	<ele>1257.80</ele>
	<time>2025-02-15T10:38:33.000Z</time>
</trkpt>
<trkpt lat="45.8606460" lon="9.1980740">
	<ele>1257.80</ele>
	<time>2025-02-15T10:38:34.000Z</time>
</trkpt>
<trkpt lat="45.8606530" lon="9.1980650">
	<ele>1258.00</ele>
	<time>2025-02-15T10:38:35.000Z</time>
</trkpt>
<trkpt lat="45.8606620" lon="9.1980570">
	<ele>1258.00</ele>
	<time>2025-02-15T10:38:36.000Z</time>
</trkpt>
<trkpt lat="45.8606720" lon="9.1980490">
	<ele>1258.20</ele>
	<time>2025-02-15T10:38:37.000Z</time>
</trkpt>
<trkpt lat="45.8606860" lon="9.1980420">
	<ele>1258.40</ele>
	<time>2025-02-15T10:38:38.000Z</time>
</trkpt>
<trkpt lat="45.8606990" lon="9.1980350">
	<ele>1258.60</ele>
	<time>2025-02-15T10:38:39.000Z</time>
</trkpt>
<trkpt lat="45.8607080" lon="9.1980280">
	<ele>1258.80</ele>
	<time>2025-02-15T10:38:40.000Z</time>
</trkpt>
<trkpt lat="45.8607150" lon="9.1980190">
	<ele>1259.00</ele>
	<time>2025-02-15T10:38:41.000Z</time>
</trkpt>
<trkpt lat="45.8607220" lon="9.1980110">
	<ele>1259.00</ele>
	<time>2025-02-15T10:38:42.000Z</time>
</trkpt>
<trkpt lat="45.8607290" lon="9.1980010">
	<ele>1259.20</ele>
	<time>2025-02-15T10:38:43.000Z</time>
</trkpt>
<trkpt lat="45.8607360" lon="9.1979900">
	<ele>1259.20</ele>
	<time>2025-02-15T10:38:44.000Z</time>
</trkpt>
<trkpt lat="45.8607430" lon="9.1979800">
	<ele>1259.20</ele>
	<time>2025-02-15T10:38:45.000Z</time>
</trkpt>
<trkpt lat="45.8607450" lon="9.1979690">
	<ele>1259.20</ele>
	<time>2025-02-15T10:38:46.000Z</time>
</trkpt>
<trkpt lat="45.8607520" lon="9.1979620">
	<ele>1259.40</ele>
	<time>2025-02-15T10:38:47.000Z</time>
</trkpt>
<trkpt lat="45.8607580" lon="9.1979560">
	<ele>1259.80</ele>
	<time>2025-02-15T10:38:48.000Z</time>
</trkpt>
<trkpt lat="45.8607640" lon="9.1979460">
	<ele>1260.00</ele>
	<time>2025-02-15T10:38:49.000Z</time>
</trkpt>
<trkpt lat="45.8607700" lon="9.1979370">
	<ele>1260.20</ele>
	<time>2025-02-15T10:38:50.000Z</time>
</trkpt>
<trkpt lat="45.8607770" lon="9.1979300">
	<ele>1260.20</ele>
	<time>2025-02-15T10:38:51.000Z</time>
</trkpt>
<trkpt lat="45.8607850" lon="9.1979250">
	<ele>1260.20</ele>
	<time>2025-02-15T10:38:52.000Z</time>
</trkpt>
<trkpt lat="45.8607890" lon="9.1979150">
	<ele>1260.40</ele>
	<time>2025-02-15T10:38:53.000Z</time>
</trkpt>
<trkpt lat="45.8607950" lon="9.1979060">
	<ele>1260.40</ele>
	<time>2025-02-15T10:38:54.000Z</time>
</trkpt>
<trkpt lat="45.8608010" lon="9.1978980">
	<ele>1260.60</ele>
	<time>2025-02-15T10:38:55.000Z</time>
</trkpt>
<trkpt lat="45.8608030" lon="9.1978940">
	<ele>1260.80</ele>
	<time>2025-02-15T10:38:56.000Z</time>
</trkpt>
<trkpt lat="45.8608080" lon="9.1978930">
	<ele>1261.00</ele>
	<time>2025-02-15T10:38:57.000Z</time>
</trkpt>
<trkpt lat="45.8608130" lon="9.1978890">
	<ele>1261.20</ele>
	<time>2025-02-15T10:38:58.000Z</time>
</trkpt>
<trkpt lat="45.8608190" lon="9.1978810">
	<ele>1261.40</ele>
	<time>2025-02-15T10:38:59.000Z</time>
</trkpt>
<trkpt lat="45.8608260" lon="9.1978760">
	<ele>1261.40</ele>
	<time>2025-02-15T10:39:00.000Z</time>
</trkpt>
<trkpt lat="45.8608350" lon="9.1978700">
	<ele>1261.60</ele>
	<time>2025-02-15T10:39:01.000Z</time>
</trkpt>
<trkpt lat="45.8608430" lon="9.1978630">
	<ele>1261.60</ele>
	<time>2025-02-15T10:39:02.000Z</time>
</trkpt>
<trkpt lat="45.8608490" lon="9.1978540">
	<ele>1261.80</ele>
	<time>2025-02-15T10:39:03.000Z</time>
</trkpt>
<trkpt lat="45.8608570" lon="9.1978490">
	<ele>1262.00</ele>
	<time>2025-02-15T10:39:04.000Z</time>
</trkpt>
<trkpt lat="45.8608640" lon="9.1978430">
	<ele>1262.20</ele>
	<time>2025-02-15T10:39:05.000Z</time>
</trkpt>
<trkpt lat="45.8608690" lon="9.1978360">
	<ele>1262.40</ele>
	<time>2025-02-15T10:39:06.000Z</time>
</trkpt>
<trkpt lat="45.8608730" lon="9.1978300">
	<ele>1262.80</ele>
	<time>2025-02-15T10:39:07.000Z</time>
</trkpt>
<trkpt lat="45.8608810" lon="9.1978260">
	<ele>1263.00</ele>
	<time>2025-02-15T10:39:08.000Z</time>
</trkpt>
<trkpt lat="45.8608880" lon="9.1978230">
	<ele>1263.20</ele>
	<time>2025-02-15T10:39:09.000Z</time>
</trkpt>
<trkpt lat="45.8608950" lon="9.1978170">
	<ele>1263.40</ele>
	<time>2025-02-15T10:39:10.000Z</time>
</trkpt>
<trkpt lat="45.8608950" lon="9.1978070">
	<ele>1263.40</ele>
	<time>2025-02-15T10:39:11.000Z</time>
</trkpt>
<trkpt lat="45.8608980" lon="9.1977990">
	<ele>1263.40</ele>
	<time>2025-02-15T10:39:12.000Z</time>
</trkpt>
<trkpt lat="45.8609040" lon="9.1977970">
	<ele>1263.60</ele>
	<time>2025-02-15T10:39:13.000Z</time>
</trkpt>
<trkpt lat="45.8609110" lon="9.1977940">
	<ele>1263.60</ele>
	<time>2025-02-15T10:39:14.000Z</time>
</trkpt>
<trkpt lat="45.8609190" lon="9.1977930">
	<ele>1264.00</ele>
	<time>2025-02-15T10:39:15.000Z</time>
</trkpt>
<trkpt lat="45.8609200" lon="9.1977860">
	<ele>1264.40</ele>
	<time>2025-02-15T10:39:16.000Z</time>
</trkpt>
<trkpt lat="45.8609320" lon="9.1977780">
	<ele>1264.80</ele>
	<time>2025-02-15T10:39:17.000Z</time>
</trkpt>
<trkpt lat="45.8609410" lon="9.1977730">
	<ele>1265.00</ele>
	<time>2025-02-15T10:39:18.000Z</time>
</trkpt>
<trkpt lat="45.8609450" lon="9.1977710">
	<ele>1265.20</ele>
	<time>2025-02-15T10:39:19.000Z</time>
</trkpt>
<trkpt lat="45.8609510" lon="9.1977670">
	<ele>1265.40</ele>
	<time>2025-02-15T10:39:20.000Z</time>
</trkpt>
<trkpt lat="45.8609560" lon="9.1977620">
	<ele>1265.40</ele>
	<time>2025-02-15T10:39:21.000Z</time>
</trkpt>
<trkpt lat="45.8609610" lon="9.1977560">
	<ele>1265.40</ele>
	<time>2025-02-15T10:39:22.000Z</time>
</trkpt>
<trkpt lat="45.8609630" lon="9.1977500">
	<ele>1265.80</ele>
	<time>2025-02-15T10:39:23.000Z</time>
</trkpt>
<trkpt lat="45.8609700" lon="9.1977440">
	<ele>1265.80</ele>
	<time>2025-02-15T10:39:24.000Z</time>
</trkpt>
<trkpt lat="45.8609790" lon="9.1977360">
	<ele>1266.20</ele>
	<time>2025-02-15T10:39:25.000Z</time>
</trkpt>
<trkpt lat="45.8609850" lon="9.1977320">
	<ele>1266.60</ele>
	<time>2025-02-15T10:39:26.000Z</time>
</trkpt>
<trkpt lat="45.8609910" lon="9.1977260">
	<ele>1266.80</ele>
	<time>2025-02-15T10:39:27.000Z</time>
</trkpt>
<trkpt lat="45.8610020" lon="9.1977240">
	<ele>1266.80</ele>
	<time>2025-02-15T10:39:28.000Z</time>
</trkpt>
<trkpt lat="45.8610130" lon="9.1977210">
	<ele>1267.00</ele>
	<time>2025-02-15T10:39:29.000Z</time>
</trkpt>
<trkpt lat="45.8610210" lon="9.1977120">
	<ele>1267.00</ele>
	<time>2025-02-15T10:39:30.000Z</time>
</trkpt>
<trkpt lat="45.8610260" lon="9.1977000">
	<ele>1267.00</ele>
	<time>2025-02-15T10:39:31.000Z</time>
</trkpt>
<trkpt lat="45.8610310" lon="9.1976910">
	<ele>1267.00</ele>
	<time>2025-02-15T10:39:32.000Z</time>
</trkpt>
<trkpt lat="45.8610350" lon="9.1976790">
	<ele>1267.20</ele>
	<time>2025-02-15T10:39:33.000Z</time>
</trkpt>
<trkpt lat="45.8610400" lon="9.1976690">
	<ele>1267.40</ele>
	<time>2025-02-15T10:39:34.000Z</time>
</trkpt>
<trkpt lat="45.8610450" lon="9.1976620">
	<ele>1267.60</ele>
	<time>2025-02-15T10:39:35.000Z</time>
</trkpt>
<trkpt lat="45.8610530" lon="9.1976550">
	<ele>1267.60</ele>
	<time>2025-02-15T10:39:36.000Z</time>
</trkpt>
<trkpt lat="45.8610620" lon="9.1976520">
	<ele>1267.80</ele>
	<time>2025-02-15T10:39:37.000Z</time>
</trkpt>
<trkpt lat="45.8610700" lon="9.1976490">
	<ele>1267.60</ele>
	<time>2025-02-15T10:39:38.000Z</time>
</trkpt>
<trkpt lat="45.8610790" lon="9.1976440">
	<ele>1267.80</ele>
	<time>2025-02-15T10:39:39.000Z</time>
</trkpt>
<trkpt lat="45.8610870" lon="9.1976410">
	<ele>1267.60</ele>
	<time>2025-02-15T10:39:40.000Z</time>
</trkpt>
<trkpt lat="45.8610950" lon="9.1976370">
	<ele>1267.60</ele>
	<time>2025-02-15T10:39:41.000Z</time>
</trkpt>
<trkpt lat="45.8611040" lon="9.1976320">
	<ele>1267.60</ele>
	<time>2025-02-15T10:39:42.000Z</time>
</trkpt>
<trkpt lat="45.8611140" lon="9.1976280">
	<ele>1267.60</ele>
	<time>2025-02-15T10:39:43.000Z</time>
</trkpt>
<trkpt lat="45.8611240" lon="9.1976260">
	<ele>1267.80</ele>
	<time>2025-02-15T10:39:44.000Z</time>
</trkpt>
<trkpt lat="45.8611340" lon="9.1976220">
	<ele>1267.60</ele>
	<time>2025-02-15T10:39:45.000Z</time>
</trkpt>
<trkpt lat="45.8611440" lon="9.1976190">
	<ele>1267.80</ele>
	<time>2025-02-15T10:39:46.000Z</time>
</trkpt>
<trkpt lat="45.8611550" lon="9.1976200">
	<ele>1267.80</ele>
	<time>2025-02-15T10:39:47.000Z</time>
</trkpt>
<trkpt lat="45.8611690" lon="9.1976190">
	<ele>1267.80</ele>
	<time>2025-02-15T10:39:48.000Z</time>
</trkpt>
<trkpt lat="45.8611800" lon="9.1976170">
	<ele>1268.00</ele>
	<time>2025-02-15T10:39:49.000Z</time>
</trkpt>
<trkpt lat="45.8611900" lon="9.1976130">
	<ele>1268.00</ele>
	<time>2025-02-15T10:39:50.000Z</time>
</trkpt>
<trkpt lat="45.8611990" lon="9.1976100">
	<ele>1268.00</ele>
	<time>2025-02-15T10:39:51.000Z</time>
</trkpt>
<trkpt lat="45.8612080" lon="9.1976110">
	<ele>1268.00</ele>
	<time>2025-02-15T10:39:52.000Z</time>
</trkpt>
<trkpt lat="45.8612170" lon="9.1976140">
	<ele>1268.00</ele>
	<time>2025-02-15T10:39:53.000Z</time>
</trkpt>
<trkpt lat="45.8612240" lon="9.1976160">
	<ele>1268.00</ele>
	<time>2025-02-15T10:39:54.000Z</time>
</trkpt>
<trkpt lat="45.8612340" lon="9.1976160">
	<ele>1268.00</ele>
	<time>2025-02-15T10:39:55.000Z</time>
</trkpt>
<trkpt lat="45.8612470" lon="9.1976170">
	<ele>1268.00</ele>
	<time>2025-02-15T10:39:56.000Z</time>
</trkpt>
<trkpt lat="45.8612590" lon="9.1976160">
	<ele>1268.00</ele>
	<time>2025-02-15T10:39:57.000Z</time>
</trkpt>
<trkpt lat="45.8612710" lon="9.1976200">
	<ele>1268.00</ele>
	<time>2025-02-15T10:39:58.000Z</time>
</trkpt>
<trkpt lat="45.8612800" lon="9.1976230">
	<ele>1268.00</ele>
	<time>2025-02-15T10:39:59.000Z</time>
</trkpt>
<trkpt lat="45.8612900" lon="9.1976240">
	<ele>1268.40</ele>
	<time>2025-02-15T10:40:00.000Z</time>
</trkpt>
<trkpt lat="45.8612990" lon="9.1976210">
	<ele>1268.60</ele>
	<time>2025-02-15T10:40:01.000Z</time>
</trkpt>
<trkpt lat="45.8613020" lon="9.1976190">
	<ele>1268.60</ele>
	<time>2025-02-15T10:40:02.000Z</time>
</trkpt>
<trkpt lat="45.8613080" lon="9.1976180">
	<ele>1268.80</ele>
	<time>2025-02-15T10:40:03.000Z</time>
</trkpt>
<trkpt lat="45.8613130" lon="9.1976180">
	<ele>1268.80</ele>
	<time>2025-02-15T10:40:04.000Z</time>
</trkpt>
<trkpt lat="45.8613190" lon="9.1976220">
	<ele>1268.80</ele>
	<time>2025-02-15T10:40:05.000Z</time>
</trkpt>
<trkpt lat="45.8613240" lon="9.1976250">
	<ele>1269.00</ele>
	<time>2025-02-15T10:40:06.000Z</time>
</trkpt>
<trkpt lat="45.8613370" lon="9.1976340">
	<ele>1269.00</ele>
	<time>2025-02-15T10:40:07.000Z</time>
</trkpt>
<trkpt lat="45.8613490" lon="9.1976340">
	<ele>1269.20</ele>
	<time>2025-02-15T10:40:08.000Z</time>
</trkpt>
<trkpt lat="45.8613610" lon="9.1976340">
	<ele>1269.20</ele>
	<time>2025-02-15T10:40:09.000Z</time>
</trkpt>
<trkpt lat="45.8613650" lon="9.1976330">
	<ele>1269.40</ele>
	<time>2025-02-15T10:40:10.000Z</time>
</trkpt>
<trkpt lat="45.8613700" lon="9.1976330">
	<ele>1269.40</ele>
	<time>2025-02-15T10:40:11.000Z</time>
</trkpt>
<trkpt lat="45.8613790" lon="9.1976330">
	<ele>1269.60</ele>
	<time>2025-02-15T10:40:12.000Z</time>
</trkpt>
<trkpt lat="45.8613940" lon="9.1976410">
	<ele>1269.60</ele>
	<time>2025-02-15T10:40:13.000Z</time>
</trkpt>
<trkpt lat="45.8614000" lon="9.1976500">
	<ele>1269.80</ele>
	<time>2025-02-15T10:40:14.000Z</time>
</trkpt>
<trkpt lat="45.8614010" lon="9.1976540">
	<ele>1269.80</ele>
	<time>2025-02-15T10:40:15.000Z</time>
</trkpt>
<trkpt lat="45.8614050" lon="9.1976640">
	<ele>1269.80</ele>
	<time>2025-02-15T10:40:16.000Z</time>
</trkpt>
<trkpt lat="45.8614090" lon="9.1976740">
	<ele>1270.00</ele>
	<time>2025-02-15T10:40:17.000Z</time>
</trkpt>
<trkpt lat="45.8614140" lon="9.1976800">
	<ele>1270.00</ele>
	<time>2025-02-15T10:40:18.000Z</time>
</trkpt>
<trkpt lat="45.8614210" lon="9.1976820">
	<ele>1270.20</ele>
	<time>2025-02-15T10:40:19.000Z</time>
</trkpt>
<trkpt lat="45.8614290" lon="9.1976900">
	<ele>1270.20</ele>
	<time>2025-02-15T10:40:20.000Z</time>
</trkpt>
<trkpt lat="45.8614390" lon="9.1976950">
	<ele>1270.40</ele>
	<time>2025-02-15T10:40:21.000Z</time>
</trkpt>
<trkpt lat="45.8614470" lon="9.1977000">
	<ele>1270.40</ele>
	<time>2025-02-15T10:40:22.000Z</time>
</trkpt>
<trkpt lat="45.8614540" lon="9.1977010">
	<ele>1270.60</ele>
	<time>2025-02-15T10:40:23.000Z</time>
</trkpt>
<trkpt lat="45.8614610" lon="9.1976950">
	<ele>1270.80</ele>
	<time>2025-02-15T10:40:24.000Z</time>
</trkpt>
<trkpt lat="45.8614650" lon="9.1976930">
	<ele>1270.80</ele>
	<time>2025-02-15T10:40:25.000Z</time>
</trkpt>
<trkpt lat="45.8614730" lon="9.1976920">
	<ele>1270.80</ele>
	<time>2025-02-15T10:40:26.000Z</time>
</trkpt>
<trkpt lat="45.8614800" lon="9.1976950">
	<ele>1271.00</ele>
	<time>2025-02-15T10:40:27.000Z</time>
</trkpt>
<trkpt lat="45.8614890" lon="9.1977010">
	<ele>1271.20</ele>
	<time>2025-02-15T10:40:28.000Z</time>
</trkpt>
<trkpt lat="45.8614990" lon="9.1977040">
	<ele>1271.20</ele>
	<time>2025-02-15T10:40:29.000Z</time>
</trkpt>
<trkpt lat="45.8615090" lon="9.1977080">
	<ele>1271.20</ele>
	<time>2025-02-15T10:40:30.000Z</time>
</trkpt>
<trkpt lat="45.8615160" lon="9.1977110">
	<ele>1271.40</ele>
	<time>2025-02-15T10:40:31.000Z</time>
</trkpt>
<trkpt lat="45.8615230" lon="9.1977170">
	<ele>1271.40</ele>
	<time>2025-02-15T10:40:32.000Z</time>
</trkpt>
<trkpt lat="45.8615280" lon="9.1977170">
	<ele>1271.80</ele>
	<time>2025-02-15T10:40:33.000Z</time>
</trkpt>
<trkpt lat="45.8615350" lon="9.1977160">
	<ele>1272.00</ele>
	<time>2025-02-15T10:40:34.000Z</time>
</trkpt>
<trkpt lat="45.8615420" lon="9.1977140">
	<ele>1272.00</ele>
	<time>2025-02-15T10:40:35.000Z</time>
</trkpt>
<trkpt lat="45.8615490" lon="9.1977140">
	<ele>1272.20</ele>
	<time>2025-02-15T10:40:36.000Z</time>
</trkpt>
<trkpt lat="45.8615580" lon="9.1977130">
	<ele>1272.40</ele>
	<time>2025-02-15T10:40:37.000Z</time>
</trkpt>
<trkpt lat="45.8615680" lon="9.1977120">
	<ele>1272.60</ele>
	<time>2025-02-15T10:40:38.000Z</time>
</trkpt>
<trkpt lat="45.8615770" lon="9.1977120">
	<ele>1272.60</ele>
	<time>2025-02-15T10:40:39.000Z</time>
</trkpt>
<trkpt lat="45.8615870" lon="9.1977100">
	<ele>1272.80</ele>
	<time>2025-02-15T10:40:40.000Z</time>
</trkpt>
<trkpt lat="45.8615960" lon="9.1977080">
	<ele>1272.80</ele>
	<time>2025-02-15T10:40:41.000Z</time>
</trkpt>
<trkpt lat="45.8616050" lon="9.1977050">
	<ele>1273.00</ele>
	<time>2025-02-15T10:40:42.000Z</time>
</trkpt>
<trkpt lat="45.8616140" lon="9.1977080">
	<ele>1273.00</ele>
	<time>2025-02-15T10:40:43.000Z</time>
</trkpt>
<trkpt lat="45.8616210" lon="9.1977110">
	<ele>1273.00</ele>
	<time>2025-02-15T10:40:44.000Z</time>
</trkpt>
<trkpt lat="45.8616340" lon="9.1977130">
	<ele>1273.00</ele>
	<time>2025-02-15T10:40:45.000Z</time>
</trkpt>
<trkpt lat="45.8616470" lon="9.1977150">
	<ele>1273.00</ele>
	<time>2025-02-15T10:40:46.000Z</time>
</trkpt>
<trkpt lat="45.8616520" lon="9.1977090">
	<ele>1273.00</ele>
	<time>2025-02-15T10:40:47.000Z</time>
</trkpt>
<trkpt lat="45.8616540" lon="9.1977100">
	<ele>1273.20</ele>
	<time>2025-02-15T10:40:48.000Z</time>
</trkpt>
<trkpt lat="45.8616470" lon="9.1977080">
	<ele>1273.20</ele>
	<time>2025-02-15T10:40:49.000Z</time>
</trkpt>
<trkpt lat="45.8616460" lon="9.1977090">
	<ele>1273.40</ele>
	<time>2025-02-15T10:40:50.000Z</time>
</trkpt>
<trkpt lat="45.8616450" lon="9.1977090">
	<ele>1273.40</ele>
	<time>2025-02-15T10:40:51.000Z</time>
</trkpt>
<trkpt lat="45.8616460" lon="9.1976910">
	<ele>1273.60</ele>
	<time>2025-02-15T10:40:52.000Z</time>
</trkpt>
<trkpt lat="45.8616470" lon="9.1976790">
	<ele>1273.60</ele>
	<time>2025-02-15T10:40:53.000Z</time>
</trkpt>
<trkpt lat="45.8616430" lon="9.1976690">
	<ele>1273.60</ele>
	<time>2025-02-15T10:40:54.000Z</time>
</trkpt>
<trkpt lat="45.8616400" lon="9.1976640">
	<ele>1273.60</ele>
	<time>2025-02-15T10:40:55.000Z</time>
</trkpt>
<trkpt lat="45.8616410" lon="9.1976610">
	<ele>1273.80</ele>
	<time>2025-02-15T10:40:56.000Z</time>
</trkpt>
<trkpt lat="45.8616440" lon="9.1976600">
	<ele>1273.80</ele>
	<time>2025-02-15T10:40:57.000Z</time>
</trkpt>
<trkpt lat="45.8616510" lon="9.1976550">
	<ele>1273.80</ele>
	<time>2025-02-15T10:40:58.000Z</time>
</trkpt>
<trkpt lat="45.8616600" lon="9.1976610">
	<ele>1274.00</ele>
	<time>2025-02-15T10:40:59.000Z</time>
</trkpt>
<trkpt lat="45.8616650" lon="9.1976610">
	<ele>1274.00</ele>
	<time>2025-02-15T10:41:00.000Z</time>
</trkpt>
<trkpt lat="45.8616770" lon="9.1976610">
	<ele>1274.20</ele>
	<time>2025-02-15T10:41:01.000Z</time>
</trkpt>
<trkpt lat="45.8616900" lon="9.1976730">
	<ele>1274.20</ele>
	<time>2025-02-15T10:41:02.000Z</time>
</trkpt>
<trkpt lat="45.8616930" lon="9.1976740">
	<ele>1274.40</ele>
	<time>2025-02-15T10:41:03.000Z</time>
</trkpt>
<trkpt lat="45.8616960" lon="9.1976800">
	<ele>1274.40</ele>
	<time>2025-02-15T10:41:04.000Z</time>
</trkpt>
<trkpt lat="45.8617030" lon="9.1976840">
	<ele>1274.40</ele>
	<time>2025-02-15T10:41:05.000Z</time>
</trkpt>
<trkpt lat="45.8617090" lon="9.1976880">
	<ele>1274.60</ele>
	<time>2025-02-15T10:41:06.000Z</time>
</trkpt>
<trkpt lat="45.8617180" lon="9.1976980">
	<ele>1274.80</ele>
	<time>2025-02-15T10:41:07.000Z</time>
</trkpt>
<trkpt lat="45.8617220" lon="9.1977010">
	<ele>1275.00</ele>
	<time>2025-02-15T10:41:08.000Z</time>
</trkpt>
<trkpt lat="45.8617250" lon="9.1977010">
	<ele>1275.20</ele>
	<time>2025-02-15T10:41:09.000Z</time>
</trkpt>
<trkpt lat="45.8617240" lon="9.1977020">
	<ele>1275.40</ele>
	<time>2025-02-15T10:41:10.000Z</time>
</trkpt>
<trkpt lat="45.8617200" lon="9.1977030">
	<ele>1275.60</ele>
	<time>2025-02-15T10:41:11.000Z</time>
</trkpt>
<trkpt lat="45.8617180" lon="9.1977060">
	<ele>1275.80</ele>
	<time>2025-02-15T10:41:12.000Z</time>
</trkpt>
<trkpt lat="45.8617120" lon="9.1977060">
	<ele>1276.00</ele>
	<time>2025-02-15T10:41:13.000Z</time>
</trkpt>
<trkpt lat="45.8617110" lon="9.1977100">
	<ele>1276.00</ele>
	<time>2025-02-15T10:41:14.000Z</time>
</trkpt>
<trkpt lat="45.8617100" lon="9.1977100">
	<ele>1276.00</ele>
	<time>2025-02-15T10:41:15.000Z</time>
</trkpt>
<trkpt lat="45.8617120" lon="9.1977120">
	<ele>1276.00</ele>
	<time>2025-02-15T10:41:16.000Z</time>
</trkpt>
<trkpt lat="45.8617130" lon="9.1977140">
	<ele>1276.20</ele>
	<time>2025-02-15T10:41:17.000Z</time>
</trkpt>
<trkpt lat="45.8617120" lon="9.1977140">
	<ele>1276.20</ele>
	<time>2025-02-15T10:41:18.000Z</time>
</trkpt>
<trkpt lat="45.8617180" lon="9.1977180">
	<ele>1276.20</ele>
	<time>2025-02-15T10:41:19.000Z</time>
</trkpt>
<trkpt lat="45.8617250" lon="9.1977200">
	<ele>1276.20</ele>
	<time>2025-02-15T10:41:20.000Z</time>
</trkpt>
<trkpt lat="45.8617280" lon="9.1977190">
	<ele>1276.40</ele>
	<time>2025-02-15T10:41:21.000Z</time>
</trkpt>
<trkpt lat="45.8617360" lon="9.1977280">
	<ele>1276.40</ele>
	<time>2025-02-15T10:41:22.000Z</time>
</trkpt>
<trkpt lat="45.8617460" lon="9.1977360">
	<ele>1276.40</ele>
	<time>2025-02-15T10:41:23.000Z</time>
</trkpt>
<trkpt lat="45.8617560" lon="9.1977440">
	<ele>1276.40</ele>
	<time>2025-02-15T10:41:24.000Z</time>
</trkpt>
<trkpt lat="45.8617660" lon="9.1977420">
	<ele>1276.60</ele>
	<time>2025-02-15T10:41:25.000Z</time>
</trkpt>
<trkpt lat="45.8617700" lon="9.1977440">
	<ele>1276.80</ele>
	<time>2025-02-15T10:41:26.000Z</time>
</trkpt>
<trkpt lat="45.8617730" lon="9.1977480">
	<ele>1277.00</ele>
	<time>2025-02-15T10:41:27.000Z</time>
</trkpt>
<trkpt lat="45.8617760" lon="9.1977510">
	<ele>1277.00</ele>
	<time>2025-02-15T10:41:28.000Z</time>
</trkpt>
<trkpt lat="45.8617870" lon="9.1977510">
	<ele>1277.20</ele>
	<time>2025-02-15T10:41:29.000Z</time>
</trkpt>
<trkpt lat="45.8617960" lon="9.1977520">
	<ele>1277.40</ele>
	<time>2025-02-15T10:41:30.000Z</time>
</trkpt>
<trkpt lat="45.8617960" lon="9.1977520">
	<ele>1277.60</ele>
	<time>2025-02-15T10:41:31.000Z</time>
</trkpt>
<trkpt lat="45.8617950" lon="9.1977520">
	<ele>1277.80</ele>
	<time>2025-02-15T10:41:32.000Z</time>
</trkpt>
<trkpt lat="45.8618000" lon="9.1977530">
	<ele>1278.00</ele>
	<time>2025-02-15T10:41:33.000Z</time>
</trkpt>
<trkpt lat="45.8618020" lon="9.1977540">
	<ele>1278.00</ele>
	<time>2025-02-15T10:41:34.000Z</time>
</trkpt>
<trkpt lat="45.8618040" lon="9.1977560">
	<ele>1278.00</ele>
	<time>2025-02-15T10:41:35.000Z</time>
</trkpt>
<trkpt lat="45.8618050" lon="9.1977560">
	<ele>1278.00</ele>
	<time>2025-02-15T10:41:36.000Z</time>
</trkpt>
<trkpt lat="45.8618070" lon="9.1977560">
	<ele>1278.00</ele>
	<time>2025-02-15T10:41:37.000Z</time>
</trkpt>
<trkpt lat="45.8618080" lon="9.1977560">
	<ele>1278.00</ele>
	<time>2025-02-15T10:41:38.000Z</time>
</trkpt>
<trkpt lat="45.8618090" lon="9.1977590">
	<ele>1278.00</ele>
	<time>2025-02-15T10:41:39.000Z</time>
</trkpt>
<trkpt lat="45.8618110" lon="9.1977620">
	<ele>1278.00</ele>
	<time>2025-02-15T10:41:40.000Z</time>
</trkpt>
<trkpt lat="45.8618120" lon="9.1977620">
	<ele>1278.00</ele>
	<time>2025-02-15T10:41:41.000Z</time>
</trkpt>
<trkpt lat="45.8618140" lon="9.1977630">
	<ele>1278.00</ele>
	<time>2025-02-15T10:41:42.000Z</time>
</trkpt>
<trkpt lat="45.8618160" lon="9.1977670">
	<ele>1278.20</ele>
	<time>2025-02-15T10:41:43.000Z</time>
</trkpt>
<trkpt lat="45.8618170" lon="9.1977710">
	<ele>1278.20</ele>
	<time>2025-02-15T10:41:44.000Z</time>
</trkpt>
<trkpt lat="45.8618190" lon="9.1977760">
	<ele>1278.20</ele>
	<time>2025-02-15T10:41:45.000Z</time>
</trkpt>
<trkpt lat="45.8618200" lon="9.1977770">
	<ele>1278.40</ele>
	<time>2025-02-15T10:41:46.000Z</time>
</trkpt>
<trkpt lat="45.8618210" lon="9.1977770">
	<ele>1278.40</ele>
	<time>2025-02-15T10:41:47.000Z</time>
</trkpt>
<trkpt lat="45.8618200" lon="9.1977750">
	<ele>1278.40</ele>
	<time>2025-02-15T10:41:48.000Z</time>
</trkpt>
<trkpt lat="45.8618200" lon="9.1977750">
	<ele>1278.40</ele>
	<time>2025-02-15T10:41:49.000Z</time>
</trkpt>
<trkpt lat="45.8618200" lon="9.1977750">
	<ele>1278.20</ele>
	<time>2025-02-15T10:41:50.000Z</time>
</trkpt>
<trkpt lat="45.8618200" lon="9.1977750">
	<ele>1278.20</ele>
	<time>2025-02-15T10:41:51.000Z</time>
</trkpt>
<trkpt lat="45.8618200" lon="9.1977750">
	<ele>1278.20</ele>
	<time>2025-02-15T10:41:52.000Z</time>
</trkpt>
<trkpt lat="45.8618200" lon="9.1977750">
	<ele>1278.20</ele>
	<time>2025-02-15T10:41:53.000Z</time>
</trkpt>
<trkpt lat="45.8618200" lon="9.1977750">
	<ele>1278.20</ele>
	<time>2025-02-15T10:41:54.000Z</time>
</trkpt>
<trkpt lat="45.8618240" lon="9.1977770">
	<ele>1278.20</ele>
	<time>2025-02-15T10:41:55.000Z</time>
</trkpt>
<trkpt lat="45.8618360" lon="9.1977740">
	<ele>1278.20</ele>
	<time>2025-02-15T10:41:56.000Z</time>
</trkpt>
<trkpt lat="45.8618430" lon="9.1977750">
	<ele>1278.20</ele>
	<time>2025-02-15T10:41:57.000Z</time>
</trkpt>
<trkpt lat="45.8618480" lon="9.1977780">
	<ele>1278.20</ele>
	<time>2025-02-15T10:41:58.000Z</time>
</trkpt>
<trkpt lat="45.8618510" lon="9.1977780">
	<ele>1278.20</ele>
	<time>2025-02-15T10:41:59.000Z</time>
</trkpt>
<trkpt lat="45.8618560" lon="9.1977780">
	<ele>1278.00</ele>
	<time>2025-02-15T10:42:00.000Z</time>
</trkpt>
<trkpt lat="45.8618620" lon="9.1977770">
	<ele>1278.20</ele>
	<time>2025-02-15T10:42:01.000Z</time>
</trkpt>
<trkpt lat="45.8618710" lon="9.1977760">
	<ele>1278.20</ele>
	<time>2025-02-15T10:42:02.000Z</time>
</trkpt>
<trkpt lat="45.8618790" lon="9.1977670">
	<ele>1278.00</ele>
	<time>2025-02-15T10:42:03.000Z</time>
</trkpt>
<trkpt lat="45.8618930" lon="9.1977630">
	<ele>1278.00</ele>
	<time>2025-02-15T10:42:04.000Z</time>
</trkpt>
<trkpt lat="45.8619030" lon="9.1977590">
	<ele>1278.20</ele>
	<time>2025-02-15T10:42:05.000Z</time>
</trkpt>
<trkpt lat="45.8619100" lon="9.1977510">
	<ele>1278.20</ele>
	<time>2025-02-15T10:42:06.000Z</time>
</trkpt>
<trkpt lat="45.8619150" lon="9.1977480">
	<ele>1278.20</ele>
	<time>2025-02-15T10:42:07.000Z</time>
</trkpt>
<trkpt lat="45.8619280" lon="9.1977440">
	<ele>1277.80</ele>
	<time>2025-02-15T10:42:08.000Z</time>
</trkpt>
<trkpt lat="45.8619430" lon="9.1977400">
	<ele>1277.60</ele>
	<time>2025-02-15T10:42:09.000Z</time>
</trkpt>
<trkpt lat="45.8619480" lon="9.1977390">
	<ele>1277.60</ele>
	<time>2025-02-15T10:42:10.000Z</time>
</trkpt>
<trkpt lat="45.8619510" lon="9.1977390">
	<ele>1277.60</ele>
	<time>2025-02-15T10:42:11.000Z</time>
</trkpt>
<trkpt lat="45.8619530" lon="9.1977320">
	<ele>1277.60</ele>
	<time>2025-02-15T10:42:12.000Z</time>
</trkpt>
<trkpt lat="45.8619550" lon="9.1977300">
	<ele>1277.60</ele>
	<time>2025-02-15T10:42:13.000Z</time>
</trkpt>
<trkpt lat="45.8619650" lon="9.1977340">
	<ele>1277.80</ele>
	<time>2025-02-15T10:42:14.000Z</time>
</trkpt>
<trkpt lat="45.8619710" lon="9.1977360">
	<ele>1278.00</ele>
	<time>2025-02-15T10:42:15.000Z</time>
</trkpt>
<trkpt lat="45.8619840" lon="9.1977520">
	<ele>1278.20</ele>
	<time>2025-02-15T10:42:16.000Z</time>
</trkpt>
<trkpt lat="45.8620000" lon="9.1977600">
	<ele>1278.20</ele>
	<time>2025-02-15T10:42:17.000Z</time>
</trkpt>
<trkpt lat="45.8620090" lon="9.1977520">
	<ele>1278.40</ele>
	<time>2025-02-15T10:42:18.000Z</time>
</trkpt>
<trkpt lat="45.8620140" lon="9.1977500">
	<ele>1278.40</ele>
	<time>2025-02-15T10:42:19.000Z</time>
</trkpt>
<trkpt lat="45.8620180" lon="9.1977520">
	<ele>1278.40</ele>
	<time>2025-02-15T10:42:20.000Z</time>
</trkpt>
<trkpt lat="45.8620200" lon="9.1977520">
	<ele>1278.20</ele>
	<time>2025-02-15T10:42:21.000Z</time>
</trkpt>
<trkpt lat="45.8620220" lon="9.1977520">
	<ele>1278.20</ele>
	<time>2025-02-15T10:42:22.000Z</time>
</trkpt>
<trkpt lat="45.8620280" lon="9.1977540">
	<ele>1278.00</ele>
	<time>2025-02-15T10:42:23.000Z</time>
</trkpt>
<trkpt lat="45.8620320" lon="9.1977550">
	<ele>1277.80</ele>
	<time>2025-02-15T10:42:24.000Z</time>
</trkpt>
<trkpt lat="45.8620330" lon="9.1977560">
	<ele>1278.00</ele>
	<time>2025-02-15T10:42:25.000Z</time>
</trkpt>
<trkpt lat="45.8620340" lon="9.1977590">
	<ele>1278.00</ele>
	<time>2025-02-15T10:42:26.000Z</time>
</trkpt>
<trkpt lat="45.8620350" lon="9.1977600">
	<ele>1278.20</ele>
	<time>2025-02-15T10:42:27.000Z</time>
</trkpt>
<trkpt lat="45.8620320" lon="9.1977510">
	<ele>1278.20</ele>
	<time>2025-02-15T10:42:28.000Z</time>
</trkpt>
<trkpt lat="45.8620280" lon="9.1977520">
	<ele>1278.20</ele>
	<time>2025-02-15T10:42:29.000Z</time>
</trkpt>
<trkpt lat="45.8620280" lon="9.1977520">
	<ele>1278.40</ele>
	<time>2025-02-15T10:42:30.000Z</time>
</trkpt>
<trkpt lat="45.8620310" lon="9.1977510">
	<ele>1278.40</ele>
	<time>2025-02-15T10:42:31.000Z</time>
</trkpt>
<trkpt lat="45.8620300" lon="9.1977460">
	<ele>1278.60</ele>
	<time>2025-02-15T10:42:32.000Z</time>
</trkpt>
<trkpt lat="45.8620400" lon="9.1977400">
	<ele>1278.60</ele>
	<time>2025-02-15T10:42:33.000Z</time>
</trkpt>
<trkpt lat="45.8620470" lon="9.1977390">
	<ele>1278.60</ele>
	<time>2025-02-15T10:42:34.000Z</time>
</trkpt>
<trkpt lat="45.8620530" lon="9.1977370">
	<ele>1278.60</ele>
	<time>2025-02-15T10:42:35.000Z</time>
</trkpt>
<trkpt lat="45.8620570" lon="9.1977420">
	<ele>1278.60</ele>
	<time>2025-02-15T10:42:36.000Z</time>
</trkpt>
<trkpt lat="45.8620600" lon="9.1977570">
	<ele>1278.60</ele>
	<time>2025-02-15T10:42:37.000Z</time>
</trkpt>
<trkpt lat="45.8620510" lon="9.1977520">
	<ele>1278.60</ele>
	<time>2025-02-15T10:42:38.000Z</time>
</trkpt>
<trkpt lat="45.8620460" lon="9.1977590">
	<ele>1278.60</ele>
	<time>2025-02-15T10:42:39.000Z</time>
</trkpt>
<trkpt lat="45.8620400" lon="9.1977660">
	<ele>1278.80</ele>
	<time>2025-02-15T10:42:40.000Z</time>
</trkpt>
<trkpt lat="45.8620180" lon="9.1976860">
	<ele>1278.40</ele>
	<time>2025-02-15T11:34:52.000Z</time>
</trkpt>
<trkpt lat="45.8620550" lon="9.1977230">
	<ele>1278.40</ele>
	<time>2025-02-15T11:34:53.000Z</time>
</trkpt>
<trkpt lat="45.8620620" lon="9.1977640">
	<ele>1278.40</ele>
	<time>2025-02-15T11:34:54.000Z</time>
</trkpt>
<trkpt lat="45.8619990" lon="9.1978930">
	<ele>1278.40</ele>
	<time>2025-02-15T11:34:55.000Z</time>
</trkpt>
<trkpt lat="45.8619730" lon="9.1978260">
	<ele>1278.40</ele>
	<time>2025-02-15T11:34:56.000Z</time>
</trkpt>
<trkpt lat="45.8619720" lon="9.1978200">
	<ele>1278.40</ele>
	<time>2025-02-15T11:34:57.000Z</time>
</trkpt>
<trkpt lat="45.8619780" lon="9.1978070">
	<ele>1278.40</ele>
	<time>2025-02-15T11:34:58.000Z</time>
</trkpt>
<trkpt lat="45.8619750" lon="9.1978340">
	<ele>1278.40</ele>
	<time>2025-02-15T11:34:59.000Z</time>
</trkpt>
<trkpt lat="45.8619600" lon="9.1978430">
	<ele>1278.40</ele>
	<time>2025-02-15T11:35:00.000Z</time>
</trkpt>
<trkpt lat="45.8619480" lon="9.1978490">
	<ele>1278.40</ele>
	<time>2025-02-15T11:35:01.000Z</time>
</trkpt>
<trkpt lat="45.8619460" lon="9.1978460">
	<ele>1278.40</ele>
	<time>2025-02-15T11:35:02.000Z</time>
</trkpt>
<trkpt lat="45.8619440" lon="9.1978550">
	<ele>1282.80</ele>
	<time>2025-02-15T11:35:03.000Z</time>
</trkpt>
<trkpt lat="45.8619420" lon="9.1978490">
	<ele>1285.40</ele>
	<time>2025-02-15T11:35:04.000Z</time>
</trkpt>
<trkpt lat="45.8619330" lon="9.1978440">
	<ele>1286.60</ele>
	<time>2025-02-15T11:35:05.000Z</time>
</trkpt>
<trkpt lat="45.8619240" lon="9.1978380">
	<ele>1287.40</ele>
	<time>2025-02-15T11:35:06.000Z</time>
</trkpt>
<trkpt lat="45.8619150" lon="9.1978310">
	<ele>1287.80</ele>
	<time>2025-02-15T11:35:07.000Z</time>
</trkpt>
<trkpt lat="45.8619060" lon="9.1978250">
	<ele>1288.00</ele>
	<time>2025-02-15T11:35:08.000Z</time>
</trkpt>
<trkpt lat="45.8618990" lon="9.1978200">
	<ele>1288.00</ele>
	<time>2025-02-15T11:35:09.000Z</time>
</trkpt>
<trkpt lat="45.8618930" lon="9.1978200">
	<ele>1288.00</ele>
	<time>2025-02-15T11:35:10.000Z</time>
</trkpt>
<trkpt lat="45.8618890" lon="9.1978100">
	<ele>1288.40</ele>
	<time>2025-02-15T11:35:11.000Z</time>
</trkpt>
<trkpt lat="45.8618810" lon="9.1977990">
	<ele>1288.40</ele>
	<time>2025-02-15T11:35:12.000Z</time>
</trkpt>
<trkpt lat="45.8618810" lon="9.1977990">
	<ele>1288.20</ele>
	<time>2025-02-15T11:35:13.000Z</time>
</trkpt>
<trkpt lat="45.8618740" lon="9.1977890">
	<ele>1288.00</ele>
	<time>2025-02-15T11:35:14.000Z</time>
</trkpt>
<trkpt lat="45.8618640" lon="9.1977820">
	<ele>1288.20</ele>
	<time>2025-02-15T11:35:15.000Z</time>
</trkpt>
<trkpt lat="45.8618590" lon="9.1977790">
	<ele>1288.00</ele>
	<time>2025-02-15T11:35:16.000Z</time>
</trkpt>
<trkpt lat="45.8618520" lon="9.1977670">
	<ele>1287.80</ele>
	<time>2025-02-15T11:35:17.000Z</time>
</trkpt>
<trkpt lat="45.8618470" lon="9.1977510">
	<ele>1287.80</ele>
	<time>2025-02-15T11:35:18.000Z</time>
</trkpt>
<trkpt lat="45.8618470" lon="9.1977570">
	<ele>1287.40</ele>
	<time>2025-02-15T11:35:19.000Z</time>
</trkpt>
<trkpt lat="45.8618590" lon="9.1977720">
	<ele>1287.40</ele>
	<time>2025-02-15T11:35:20.000Z</time>
</trkpt>
<trkpt lat="45.8618730" lon="9.1977960">
	<ele>1287.00</ele>
	<time>2025-02-15T11:35:21.000Z</time>
</trkpt>
<trkpt lat="45.8618810" lon="9.1978140">
	<ele>1286.80</ele>
	<time>2025-02-15T11:35:22.000Z</time>
</trkpt>
<trkpt lat="45.8618820" lon="9.1978270">
	<ele>1286.60</ele>
	<time>2025-02-15T11:35:23.000Z</time>
</trkpt>
<trkpt lat="45.8618790" lon="9.1978230">
	<ele>1286.60</ele>
	<time>2025-02-15T11:35:24.000Z</time>
</trkpt>
<trkpt lat="45.8618720" lon="9.1978110">
	<ele>1286.60</ele>
	<time>2025-02-15T11:35:25.000Z</time>
</trkpt>
<trkpt lat="45.8618610" lon="9.1977970">
	<ele>1286.60</ele>
	<time>2025-02-15T11:35:26.000Z</time>
</trkpt>
<trkpt lat="45.8618520" lon="9.1977850">
	<ele>1286.20</ele>
	<time>2025-02-15T11:35:27.000Z</time>
</trkpt>
<trkpt lat="45.8618450" lon="9.1977710">
	<ele>1286.00</ele>
	<time>2025-02-15T11:35:28.000Z</time>
</trkpt>
<trkpt lat="45.8618370" lon="9.1977620">
	<ele>1285.80</ele>
	<time>2025-02-15T11:35:29.000Z</time>
</trkpt>
<trkpt lat="45.8618260" lon="9.1977590">
	<ele>1285.60</ele>
	<time>2025-02-15T11:35:30.000Z</time>
</trkpt>
<trkpt lat="45.8618150" lon="9.1977530">
	<ele>1285.40</ele>
	<time>2025-02-15T11:35:31.000Z</time>
</trkpt>
<trkpt lat="45.8618030" lon="9.1977470">
	<ele>1285.40</ele>
	<time>2025-02-15T11:35:32.000Z</time>
</trkpt>
<trkpt lat="45.8617940" lon="9.1977400">
	<ele>1285.20</ele>
	<time>2025-02-15T11:35:33.000Z</time>
</trkpt>
<trkpt lat="45.8617850" lon="9.1977330">
	<ele>1285.00</ele>
	<time>2025-02-15T11:35:34.000Z</time>
</trkpt>
<trkpt lat="45.8617760" lon="9.1977270">
	<ele>1284.80</ele>
	<time>2025-02-15T11:35:35.000Z</time>
</trkpt>
<trkpt lat="45.8617680" lon="9.1977290">
	<ele>1284.40</ele>
	<time>2025-02-15T11:35:36.000Z</time>
</trkpt>
<trkpt lat="45.8617640" lon="9.1977270">
	<ele>1284.40</ele>
	<time>2025-02-15T11:35:37.000Z</time>
</trkpt>
<trkpt lat="45.8617580" lon="9.1977260">
	<ele>1284.20</ele>
	<time>2025-02-15T11:35:38.000Z</time>
</trkpt>
<trkpt lat="45.8617490" lon="9.1977130">
	<ele>1284.20</ele>
	<time>2025-02-15T11:35:39.000Z</time>
</trkpt>
<trkpt lat="45.8617390" lon="9.1977110">
	<ele>1284.00</ele>
	<time>2025-02-15T11:35:40.000Z</time>
</trkpt>
<trkpt lat="45.8617290" lon="9.1977130">
	<ele>1283.80</ele>
	<time>2025-02-15T11:35:41.000Z</time>
</trkpt>
<trkpt lat="45.8617200" lon="9.1977130">
	<ele>1283.80</ele>
	<time>2025-02-15T11:35:42.000Z</time>
</trkpt>
<trkpt lat="45.8617110" lon="9.1977130">
	<ele>1283.60</ele>
	<time>2025-02-15T11:35:43.000Z</time>
</trkpt>
<trkpt lat="45.8617090" lon="9.1977120">
	<ele>1283.60</ele>
	<time>2025-02-15T11:35:44.000Z</time>
</trkpt>
<trkpt lat="45.8617110" lon="9.1977040">
	<ele>1283.60</ele>
	<time>2025-02-15T11:35:45.000Z</time>
</trkpt>
<trkpt lat="45.8617060" lon="9.1976850">
	<ele>1283.60</ele>
	<time>2025-02-15T11:35:46.000Z</time>
</trkpt>
<trkpt lat="45.8617030" lon="9.1976680">
	<ele>1283.60</ele>
	<time>2025-02-15T11:35:47.000Z</time>
</trkpt>
<trkpt lat="45.8617000" lon="9.1976600">
	<ele>1283.40</ele>
	<time>2025-02-15T11:35:48.000Z</time>
</trkpt>
<trkpt lat="45.8617010" lon="9.1976600">
	<ele>1283.40</ele>
	<time>2025-02-15T11:35:49.000Z</time>
</trkpt>
<trkpt lat="45.8617000" lon="9.1976620">
	<ele>1283.40</ele>
	<time>2025-02-15T11:35:50.000Z</time>
</trkpt>
<trkpt lat="45.8616950" lon="9.1976550">
	<ele>1283.40</ele>
	<time>2025-02-15T11:35:51.000Z</time>
</trkpt>
<trkpt lat="45.8616870" lon="9.1976530">
	<ele>1283.40</ele>
	<time>2025-02-15T11:35:52.000Z</time>
</trkpt>
<trkpt lat="45.8616790" lon="9.1976540">
	<ele>1283.20</ele>
	<time>2025-02-15T11:35:53.000Z</time>
</trkpt>
<trkpt lat="45.8616670" lon="9.1976570">
	<ele>1283.20</ele>
	<time>2025-02-15T11:35:54.000Z</time>
</trkpt>
<trkpt lat="45.8616570" lon="9.1976650">
	<ele>1283.20</ele>
	<time>2025-02-15T11:35:55.000Z</time>
</trkpt>
<trkpt lat="45.8616480" lon="9.1976690">
	<ele>1283.00</ele>
	<time>2025-02-15T11:35:56.000Z</time>
</trkpt>
<trkpt lat="45.8616410" lon="9.1976700">
	<ele>1283.00</ele>
	<time>2025-02-15T11:35:57.000Z</time>
</trkpt>
<trkpt lat="45.8616390" lon="9.1976710">
	<ele>1282.80</ele>
	<time>2025-02-15T11:35:58.000Z</time>
</trkpt>
<trkpt lat="45.8616330" lon="9.1976700">
	<ele>1282.80</ele>
	<time>2025-02-15T11:35:59.000Z</time>
</trkpt>
<trkpt lat="45.8616220" lon="9.1976670">
	<ele>1282.60</ele>
	<time>2025-02-15T11:36:00.000Z</time>
</trkpt>
<trkpt lat="45.8616150" lon="9.1976570">
	<ele>1282.80</ele>
	<time>2025-02-15T11:36:01.000Z</time>
</trkpt>
<trkpt lat="45.8616110" lon="9.1976510">
	<ele>1282.80</ele>
	<time>2025-02-15T11:36:02.000Z</time>
</trkpt>
<trkpt lat="45.8616060" lon="9.1976560">
	<ele>1282.60</ele>
	<time>2025-02-15T11:36:03.000Z</time>
</trkpt>
<trkpt lat="45.8615990" lon="9.1976590">
	<ele>1282.60</ele>
	<time>2025-02-15T11:36:04.000Z</time>
</trkpt>
<trkpt lat="45.8615890" lon="9.1976500">
	<ele>1282.60</ele>
	<time>2025-02-15T11:36:05.000Z</time>
</trkpt>
<trkpt lat="45.8615850" lon="9.1976440">
	<ele>1282.40</ele>
	<time>2025-02-15T11:36:06.000Z</time>
</trkpt>
<trkpt lat="45.8615750" lon="9.1976360">
	<ele>1282.40</ele>
	<time>2025-02-15T11:36:07.000Z</time>
</trkpt>
<trkpt lat="45.8615690" lon="9.1976290">
	<ele>1282.20</ele>
	<time>2025-02-15T11:36:08.000Z</time>
</trkpt>
<trkpt lat="45.8615600" lon="9.1976330">
	<ele>1282.00</ele>
	<time>2025-02-15T11:36:09.000Z</time>
</trkpt>
<trkpt lat="45.8615490" lon="9.1976300">
	<ele>1282.00</ele>
	<time>2025-02-15T11:36:10.000Z</time>
</trkpt>
<trkpt lat="45.8615390" lon="9.1976270">
	<ele>1282.00</ele>
	<time>2025-02-15T11:36:11.000Z</time>
</trkpt>
<trkpt lat="45.8615290" lon="9.1976240">
	<ele>1281.80</ele>
	<time>2025-02-15T11:36:12.000Z</time>
</trkpt>
<trkpt lat="45.8615250" lon="9.1976230">
	<ele>1281.60</ele>
	<time>2025-02-15T11:36:13.000Z</time>
</trkpt>
<trkpt lat="45.8615130" lon="9.1976170">
	<ele>1281.20</ele>
	<time>2025-02-15T11:36:14.000Z</time>
</trkpt>
<trkpt lat="45.8615060" lon="9.1976040">
	<ele>1281.00</ele>
	<time>2025-02-15T11:36:15.000Z</time>
</trkpt>
<trkpt lat="45.8614960" lon="9.1975990">
	<ele>1280.80</ele>
	<time>2025-02-15T11:36:16.000Z</time>
</trkpt>
<trkpt lat="45.8614850" lon="9.1975970">
	<ele>1280.60</ele>
	<time>2025-02-15T11:36:17.000Z</time>
</trkpt>
<trkpt lat="45.8614740" lon="9.1975950">
	<ele>1280.60</ele>
	<time>2025-02-15T11:36:18.000Z</time>
</trkpt>
<trkpt lat="45.8614670" lon="9.1975860">
	<ele>1280.60</ele>
	<time>2025-02-15T11:36:19.000Z</time>
</trkpt>
<trkpt lat="45.8614590" lon="9.1975790">
	<ele>1280.60</ele>
	<time>2025-02-15T11:36:20.000Z</time>
</trkpt>
<trkpt lat="45.8614530" lon="9.1975680">
	<ele>1280.40</ele>
	<time>2025-02-15T11:36:21.000Z</time>
</trkpt>
<trkpt lat="45.8614440" lon="9.1975630">
	<ele>1280.40</ele>
	<time>2025-02-15T11:36:22.000Z</time>
</trkpt>
<trkpt lat="45.8614360" lon="9.1975550">
	<ele>1280.20</ele>
	<time>2025-02-15T11:36:23.000Z</time>
</trkpt>
<trkpt lat="45.8614280" lon="9.1975480">
	<ele>1280.00</ele>
	<time>2025-02-15T11:36:24.000Z</time>
</trkpt>
<trkpt lat="45.8614260" lon="9.1975450">
	<ele>1280.00</ele>
	<time>2025-02-15T11:36:25.000Z</time>
</trkpt>
<trkpt lat="45.8614230" lon="9.1975450">
	<ele>1280.00</ele>
	<time>2025-02-15T11:36:26.000Z</time>
</trkpt>
<trkpt lat="45.8614190" lon="9.1975460">
	<ele>1279.80</ele>
	<time>2025-02-15T11:36:27.000Z</time>
</trkpt>
<trkpt lat="45.8614140" lon="9.1975470">
	<ele>1279.60</ele>
	<time>2025-02-15T11:36:28.000Z</time>
</trkpt>
<trkpt lat="45.8614080" lon="9.1975430">
	<ele>1279.40</ele>
	<time>2025-02-15T11:36:29.000Z</time>
</trkpt>
<trkpt lat="45.8614010" lon="9.1975380">
	<ele>1279.40</ele>
	<time>2025-02-15T11:36:30.000Z</time>
</trkpt>
<trkpt lat="45.8613940" lon="9.1975300">
	<ele>1279.20</ele>
	<time>2025-02-15T11:36:31.000Z</time>
</trkpt>
<trkpt lat="45.8613790" lon="9.1975140">
	<ele>1279.20</ele>
	<time>2025-02-15T11:36:32.000Z</time>
</trkpt>
<trkpt lat="45.8613670" lon="9.1975050">
	<ele>1279.00</ele>
	<time>2025-02-15T11:36:33.000Z</time>
</trkpt>
<trkpt lat="45.8613580" lon="9.1975040">
	<ele>1279.20</ele>
	<time>2025-02-15T11:36:34.000Z</time>
</trkpt>
<trkpt lat="45.8613510" lon="9.1975090">
	<ele>1279.20</ele>
	<time>2025-02-15T11:36:35.000Z</time>
</trkpt>
<trkpt lat="45.8613450" lon="9.1975150">
	<ele>1279.00</ele>
	<time>2025-02-15T11:36:36.000Z</time>
</trkpt>
<trkpt lat="45.8613350" lon="9.1975230">
	<ele>1279.00</ele>
	<time>2025-02-15T11:36:37.000Z</time>
</trkpt>
<trkpt lat="45.8613270" lon="9.1975310">
	<ele>1279.00</ele>
	<time>2025-02-15T11:36:38.000Z</time>
</trkpt>
<trkpt lat="45.8613170" lon="9.1975360">
	<ele>1279.00</ele>
	<time>2025-02-15T11:36:39.000Z</time>
</trkpt>
<trkpt lat="45.8613070" lon="9.1975410">
	<ele>1279.00</ele>
	<time>2025-02-15T11:36:40.000Z</time>
</trkpt>
<trkpt lat="45.8613010" lon="9.1975470">
	<ele>1278.80</ele>
	<time>2025-02-15T11:36:41.000Z</time>
</trkpt>
<trkpt lat="45.8612900" lon="9.1975510">
	<ele>1278.40</ele>
	<time>2025-02-15T11:36:42.000Z</time>
</trkpt>
<trkpt lat="45.8612720" lon="9.1975520">
	<ele>1278.20</ele>
	<time>2025-02-15T11:36:43.000Z</time>
</trkpt>
<trkpt lat="45.8612580" lon="9.1975580">
	<ele>1278.40</ele>
	<time>2025-02-15T11:36:44.000Z</time>
</trkpt>
<trkpt lat="45.8612440" lon="9.1975640">
	<ele>1278.20</ele>
	<time>2025-02-15T11:36:45.000Z</time>
</trkpt>
<trkpt lat="45.8612340" lon="9.1975760">
	<ele>1278.00</ele>
	<time>2025-02-15T11:36:46.000Z</time>
</trkpt>
<trkpt lat="45.8612260" lon="9.1975980">
	<ele>1278.20</ele>
	<time>2025-02-15T11:36:47.000Z</time>
</trkpt>
<trkpt lat="45.8612180" lon="9.1976020">
	<ele>1278.40</ele>
	<time>2025-02-15T11:36:48.000Z</time>
</trkpt>
<trkpt lat="45.8612080" lon="9.1976050">
	<ele>1278.40</ele>
	<time>2025-02-15T11:36:49.000Z</time>
</trkpt>
<trkpt lat="45.8611990" lon="9.1976040">
	<ele>1278.40</ele>
	<time>2025-02-15T11:36:50.000Z</time>
</trkpt>
<trkpt lat="45.8611890" lon="9.1976040">
	<ele>1278.40</ele>
	<time>2025-02-15T11:36:51.000Z</time>
</trkpt>
<trkpt lat="45.8611790" lon="9.1976050">
	<ele>1278.40</ele>
	<time>2025-02-15T11:36:52.000Z</time>
</trkpt>
<trkpt lat="45.8611720" lon="9.1976070">
	<ele>1278.40</ele>
	<time>2025-02-15T11:36:53.000Z</time>
</trkpt>
<trkpt lat="45.8611660" lon="9.1976070">
	<ele>1278.20</ele>
	<time>2025-02-15T11:36:54.000Z</time>
</trkpt>
<trkpt lat="45.8611510" lon="9.1976070">
	<ele>1278.20</ele>
	<time>2025-02-15T11:36:55.000Z</time>
</trkpt>
<trkpt lat="45.8611350" lon="9.1976070">
	<ele>1278.40</ele>
	<time>2025-02-15T11:36:56.000Z</time>
</trkpt>
<trkpt lat="45.8611230" lon="9.1976000">
	<ele>1278.20</ele>
	<time>2025-02-15T11:36:57.000Z</time>
</trkpt>
<trkpt lat="45.8611140" lon="9.1975880">
	<ele>1278.20</ele>
	<time>2025-02-15T11:36:58.000Z</time>
</trkpt>
<trkpt lat="45.8611010" lon="9.1975820">
	<ele>1277.80</ele>
	<time>2025-02-15T11:36:59.000Z</time>
</trkpt>
<trkpt lat="45.8610960" lon="9.1975850">
	<ele>1277.80</ele>
	<time>2025-02-15T11:37:00.000Z</time>
</trkpt>
<trkpt lat="45.8610860" lon="9.1975910">
	<ele>1277.80</ele>
	<time>2025-02-15T11:37:01.000Z</time>
</trkpt>
<trkpt lat="45.8610680" lon="9.1975870">
	<ele>1277.60</ele>
	<time>2025-02-15T11:37:02.000Z</time>
</trkpt>
<trkpt lat="45.8610540" lon="9.1975880">
	<ele>1277.60</ele>
	<time>2025-02-15T11:37:03.000Z</time>
</trkpt>
<trkpt lat="45.8610480" lon="9.1975780">
	<ele>1277.80</ele>
	<time>2025-02-15T11:37:04.000Z</time>
</trkpt>
<trkpt lat="45.8610470" lon="9.1975710">
	<ele>1277.80</ele>
	<time>2025-02-15T11:37:05.000Z</time>
</trkpt>
<trkpt lat="45.8610440" lon="9.1975770">
	<ele>1277.80</ele>
	<time>2025-02-15T11:37:06.000Z</time>
</trkpt>
<trkpt lat="45.8610350" lon="9.1975780">
	<ele>1277.80</ele>
	<time>2025-02-15T11:37:07.000Z</time>
</trkpt>
<trkpt lat="45.8610250" lon="9.1975830">
	<ele>1278.20</ele>
	<time>2025-02-15T11:37:08.000Z</time>
</trkpt>
<trkpt lat="45.8610160" lon="9.1975880">
	<ele>1278.00</ele>
	<time>2025-02-15T11:37:09.000Z</time>
</trkpt>
<trkpt lat="45.8610090" lon="9.1975990">
	<ele>1278.00</ele>
	<time>2025-02-15T11:37:10.000Z</time>
</trkpt>
<trkpt lat="45.8610040" lon="9.1976130">
	<ele>1278.00</ele>
	<time>2025-02-15T11:37:11.000Z</time>
</trkpt>
<trkpt lat="45.8609950" lon="9.1976270">
	<ele>1277.80</ele>
	<time>2025-02-15T11:37:12.000Z</time>
</trkpt>
<trkpt lat="45.8609880" lon="9.1976380">
	<ele>1277.60</ele>
	<time>2025-02-15T11:37:13.000Z</time>
</trkpt>
<trkpt lat="45.8609830" lon="9.1976490">
	<ele>1277.40</ele>
	<time>2025-02-15T11:37:14.000Z</time>
</trkpt>
<trkpt lat="45.8609720" lon="9.1976580">
	<ele>1277.20</ele>
	<time>2025-02-15T11:37:15.000Z</time>
</trkpt>
<trkpt lat="45.8609680" lon="9.1976700">
	<ele>1277.20</ele>
	<time>2025-02-15T11:37:16.000Z</time>
</trkpt>
<trkpt lat="45.8609600" lon="9.1976840">
	<ele>1277.00</ele>
	<time>2025-02-15T11:37:17.000Z</time>
</trkpt>
<trkpt lat="45.8609510" lon="9.1976920">
	<ele>1277.00</ele>
	<time>2025-02-15T11:37:18.000Z</time>
</trkpt>
<trkpt lat="45.8609390" lon="9.1977050">
	<ele>1277.00</ele>
	<time>2025-02-15T11:37:19.000Z</time>
</trkpt>
<trkpt lat="45.8609300" lon="9.1977160">
	<ele>1276.60</ele>
	<time>2025-02-15T11:37:20.000Z</time>
</trkpt>
<trkpt lat="45.8609250" lon="9.1977280">
	<ele>1276.40</ele>
	<time>2025-02-15T11:37:21.000Z</time>
</trkpt>
<trkpt lat="45.8609170" lon="9.1977310">
	<ele>1276.20</ele>
	<time>2025-02-15T11:37:22.000Z</time>
</trkpt>
<trkpt lat="45.8609070" lon="9.1977270">
	<ele>1275.80</ele>
	<time>2025-02-15T11:37:23.000Z</time>
</trkpt>
<trkpt lat="45.8609020" lon="9.1977200">
	<ele>1275.80</ele>
	<time>2025-02-15T11:37:24.000Z</time>
</trkpt>
<trkpt lat="45.8608950" lon="9.1977210">
	<ele>1275.60</ele>
	<time>2025-02-15T11:37:25.000Z</time>
</trkpt>
<trkpt lat="45.8608840" lon="9.1977170">
	<ele>1275.60</ele>
	<time>2025-02-15T11:37:26.000Z</time>
</trkpt>
<trkpt lat="45.8608760" lon="9.1977260">
	<ele>1275.40</ele>
	<time>2025-02-15T11:37:27.000Z</time>
</trkpt>
<trkpt lat="45.8608720" lon="9.1977320">
	<ele>1275.20</ele>
	<time>2025-02-15T11:37:28.000Z</time>
</trkpt>
<trkpt lat="45.8608630" lon="9.1977370">
	<ele>1274.60</ele>
	<time>2025-02-15T11:37:29.000Z</time>
</trkpt>
<trkpt lat="45.8608470" lon="9.1977440">
	<ele>1274.20</ele>
	<time>2025-02-15T11:37:30.000Z</time>
</trkpt>
<trkpt lat="45.8608380" lon="9.1977610">
	<ele>1274.00</ele>
	<time>2025-02-15T11:37:31.000Z</time>
</trkpt>
<trkpt lat="45.8608350" lon="9.1977700">
	<ele>1273.80</ele>
	<time>2025-02-15T11:37:32.000Z</time>
</trkpt>
<trkpt lat="45.8608310" lon="9.1977800">
	<ele>1273.80</ele>
	<time>2025-02-15T11:37:33.000Z</time>
</trkpt>
<trkpt lat="45.8608240" lon="9.1977890">
	<ele>1273.60</ele>
	<time>2025-02-15T11:37:34.000Z</time>
</trkpt>
<trkpt lat="45.8608230" lon="9.1977970">
	<ele>1273.60</ele>
	<time>2025-02-15T11:37:35.000Z</time>
</trkpt>
<trkpt lat="45.8608160" lon="9.1978040">
	<ele>1273.40</ele>
	<time>2025-02-15T11:37:36.000Z</time>
</trkpt>
<trkpt lat="45.8608090" lon="9.1978100">
	<ele>1273.20</ele>
	<time>2025-02-15T11:37:37.000Z</time>
</trkpt>
<trkpt lat="45.8608040" lon="9.1978130">
	<ele>1273.20</ele>
	<time>2025-02-15T11:37:38.000Z</time>
</trkpt>
<trkpt lat="45.8607990" lon="9.1978180">
	<ele>1273.00</ele>
	<time>2025-02-15T11:37:39.000Z</time>
</trkpt>
<trkpt lat="45.8607930" lon="9.1978260">
	<ele>1272.80</ele>
	<time>2025-02-15T11:37:40.000Z</time>
</trkpt>
<trkpt lat="45.8607870" lon="9.1978360">
	<ele>1272.80</ele>
	<time>2025-02-15T11:37:41.000Z</time>
</trkpt>
<trkpt lat="45.8607800" lon="9.1978450">
	<ele>1272.60</ele>
	<time>2025-02-15T11:37:42.000Z</time>
</trkpt>
<trkpt lat="45.8607730" lon="9.1978560">
	<ele>1272.20</ele>
	<time>2025-02-15T11:37:43.000Z</time>
</trkpt>
<trkpt lat="45.8607690" lon="9.1978660">
	<ele>1272.00</ele>
	<time>2025-02-15T11:37:44.000Z</time>
</trkpt>
<trkpt lat="45.8607620" lon="9.1978740">
	<ele>1271.80</ele>
	<time>2025-02-15T11:37:45.000Z</time>
</trkpt>
<trkpt lat="45.8607560" lon="9.1978810">
	<ele>1271.80</ele>
	<time>2025-02-15T11:37:46.000Z</time>
</trkpt>
<trkpt lat="45.8607500" lon="9.1978920">
	<ele>1271.80</ele>
	<time>2025-02-15T11:37:47.000Z</time>
</trkpt>
<trkpt lat="45.8607440" lon="9.1978990">
	<ele>1271.60</ele>
	<time>2025-02-15T11:37:48.000Z</time>
</trkpt>
<trkpt lat="45.8607390" lon="9.1979050">
	<ele>1271.40</ele>
	<time>2025-02-15T11:37:49.000Z</time>
</trkpt>
<trkpt lat="45.8607350" lon="9.1979110">
	<ele>1271.00</ele>
	<time>2025-02-15T11:37:50.000Z</time>
</trkpt>
<trkpt lat="45.8607330" lon="9.1979160">
	<ele>1270.80</ele>
	<time>2025-02-15T11:37:51.000Z</time>
</trkpt>
<trkpt lat="45.8607290" lon="9.1979180">
	<ele>1270.40</ele>
	<time>2025-02-15T11:37:52.000Z</time>
</trkpt>
<trkpt lat="45.8607210" lon="9.1979150">
	<ele>1270.00</ele>
	<time>2025-02-15T11:37:53.000Z</time>
</trkpt>
<trkpt lat="45.8607130" lon="9.1979160">
	<ele>1270.00</ele>
	<time>2025-02-15T11:37:54.000Z</time>
</trkpt>
<trkpt lat="45.8607090" lon="9.1979250">
	<ele>1270.20</ele>
	<time>2025-02-15T11:37:55.000Z</time>
</trkpt>
<trkpt lat="45.8607040" lon="9.1979350">
	<ele>1270.00</ele>
	<time>2025-02-15T11:37:56.000Z</time>
</trkpt>
<trkpt lat="45.8607000" lon="9.1979420">
	<ele>1270.00</ele>
	<time>2025-02-15T11:37:57.000Z</time>
</trkpt>
<trkpt lat="45.8606940" lon="9.1979510">
	<ele>1270.00</ele>
	<time>2025-02-15T11:37:58.000Z</time>
</trkpt>
<trkpt lat="45.8606890" lon="9.1979580">
	<ele>1270.00</ele>
	<time>2025-02-15T11:37:59.000Z</time>
</trkpt>
<trkpt lat="45.8606840" lon="9.1979670">
	<ele>1269.80</ele>
	<time>2025-02-15T11:38:00.000Z</time>
</trkpt>
<trkpt lat="45.8606770" lon="9.1979780">
	<ele>1269.80</ele>
	<time>2025-02-15T11:38:01.000Z</time>
</trkpt>
<trkpt lat="45.8606700" lon="9.1979890">
	<ele>1269.80</ele>
	<time>2025-02-15T11:38:02.000Z</time>
</trkpt>
<trkpt lat="45.8606600" lon="9.1979980">
	<ele>1269.80</ele>
	<time>2025-02-15T11:38:03.000Z</time>
</trkpt>
<trkpt lat="45.8606520" lon="9.1980040">
	<ele>1269.80</ele>
	<time>2025-02-15T11:38:04.000Z</time>
</trkpt>
<trkpt lat="45.8606420" lon="9.1980070">
	<ele>1269.40</ele>
	<time>2025-02-15T11:38:05.000Z</time>
</trkpt>
<trkpt lat="45.8606330" lon="9.1980070">
	<ele>1269.20</ele>
	<time>2025-02-15T11:38:06.000Z</time>
</trkpt>
<trkpt lat="45.8606240" lon="9.1980080">
	<ele>1269.00</ele>
	<time>2025-02-15T11:38:07.000Z</time>
</trkpt>
<trkpt lat="45.8606160" lon="9.1980110">
	<ele>1269.00</ele>
	<time>2025-02-15T11:38:08.000Z</time>
</trkpt>
<trkpt lat="45.8606100" lon="9.1980180">
	<ele>1269.00</ele>
	<time>2025-02-15T11:38:09.000Z</time>
</trkpt>
<trkpt lat="45.8606040" lon="9.1980240">
	<ele>1268.60</ele>
	<time>2025-02-15T11:38:10.000Z</time>
</trkpt>
<trkpt lat="45.8605990" lon="9.1980280">
	<ele>1268.40</ele>
	<time>2025-02-15T11:38:11.000Z</time>
</trkpt>
<trkpt lat="45.8605960" lon="9.1980340">
	<ele>1268.40</ele>
	<time>2025-02-15T11:38:12.000Z</time>
</trkpt>
<trkpt lat="45.8605900" lon="9.1980450">
	<ele>1268.40</ele>
	<time>2025-02-15T11:38:13.000Z</time>
</trkpt>
<trkpt lat="45.8605830" lon="9.1980530">
	<ele>1268.40</ele>
	<time>2025-02-15T11:38:14.000Z</time>
</trkpt>
<trkpt lat="45.8605720" lon="9.1980620">
	<ele>1268.40</ele>
	<time>2025-02-15T11:38:15.000Z</time>
</trkpt>
<trkpt lat="45.8605670" lon="9.1980740">
	<ele>1268.40</ele>
	<time>2025-02-15T11:38:16.000Z</time>
</trkpt>
<trkpt lat="45.8605620" lon="9.1980820">
	<ele>1268.40</ele>
	<time>2025-02-15T11:38:17.000Z</time>
</trkpt>
<trkpt lat="45.8605510" lon="9.1980880">
	<ele>1268.40</ele>
	<time>2025-02-15T11:38:18.000Z</time>
</trkpt>
<trkpt lat="45.8605410" lon="9.1980900">
	<ele>1268.20</ele>
	<time>2025-02-15T11:38:19.000Z</time>
</trkpt>
<trkpt lat="45.8605320" lon="9.1980970">
	<ele>1268.00</ele>
	<time>2025-02-15T11:38:20.000Z</time>
</trkpt>
<trkpt lat="45.8605240" lon="9.1981050">
	<ele>1268.00</ele>
	<time>2025-02-15T11:38:21.000Z</time>
</trkpt>
<trkpt lat="45.8605090" lon="9.1981090">
	<ele>1268.00</ele>
	<time>2025-02-15T11:38:22.000Z</time>
</trkpt>
<trkpt lat="45.8604930" lon="9.1981170">
	<ele>1268.00</ele>
	<time>2025-02-15T11:38:23.000Z</time>
</trkpt>
<trkpt lat="45.8604820" lon="9.1981250">
	<ele>1268.00</ele>
	<time>2025-02-15T11:38:24.000Z</time>
</trkpt>
<trkpt lat="45.8604710" lon="9.1981380">
	<ele>1268.00</ele>
	<time>2025-02-15T11:38:25.000Z</time>
</trkpt>
<trkpt lat="45.8604640" lon="9.1981530">
	<ele>1267.80</ele>
	<time>2025-02-15T11:38:26.000Z</time>
</trkpt>
<trkpt lat="45.8604550" lon="9.1981550">
	<ele>1267.40</ele>
	<time>2025-02-15T11:38:27.000Z</time>
</trkpt>
<trkpt lat="45.8604470" lon="9.1981700">
	<ele>1267.00</ele>
	<time>2025-02-15T11:38:28.000Z</time>
</trkpt>
<trkpt lat="45.8604420" lon="9.1981810">
	<ele>1267.00</ele>
	<time>2025-02-15T11:38:29.000Z</time>
</trkpt>
<trkpt lat="45.8604360" lon="9.1981930">
	<ele>1267.00</ele>
	<time>2025-02-15T11:38:30.000Z</time>
</trkpt>
<trkpt lat="45.8604230" lon="9.1982010">
	<ele>1267.00</ele>
	<time>2025-02-15T11:38:31.000Z</time>
</trkpt>
<trkpt lat="45.8604100" lon="9.1982080">
	<ele>1266.80</ele>
	<time>2025-02-15T11:38:32.000Z</time>
</trkpt>
<trkpt lat="45.8603990" lon="9.1982130">
	<ele>1266.80</ele>
	<time>2025-02-15T11:38:33.000Z</time>
</trkpt>
<trkpt lat="45.8603880" lon="9.1982160">
	<ele>1266.80</ele>
	<time>2025-02-15T11:38:34.000Z</time>
</trkpt>
<trkpt lat="45.8603780" lon="9.1982180">
	<ele>1266.80</ele>
	<time>2025-02-15T11:38:35.000Z</time>
</trkpt>
<trkpt lat="45.8603690" lon="9.1982230">
	<ele>1266.80</ele>
	<time>2025-02-15T11:38:36.000Z</time>
</trkpt>
<trkpt lat="45.8603590" lon="9.1982290">
	<ele>1267.00</ele>
	<time>2025-02-15T11:38:37.000Z</time>
</trkpt>
<trkpt lat="45.8603490" lon="9.1982360">
	<ele>1267.00</ele>
	<time>2025-02-15T11:38:38.000Z</time>
</trkpt>
<trkpt lat="45.8603410" lon="9.1982470">
	<ele>1267.20</ele>
	<time>2025-02-15T11:38:39.000Z</time>
</trkpt>
<trkpt lat="45.8603330" lon="9.1982640">
	<ele>1267.40</ele>
	<time>2025-02-15T11:38:40.000Z</time>
</trkpt>
<trkpt lat="45.8603220" lon="9.1982680">
	<ele>1267.60</ele>
	<time>2025-02-15T11:38:41.000Z</time>
</trkpt>
<trkpt lat="45.8603160" lon="9.1982780">
	<ele>1267.80</ele>
	<time>2025-02-15T11:38:42.000Z</time>
</trkpt>
<trkpt lat="45.8603120" lon="9.1982880">
	<ele>1267.80</ele>
	<time>2025-02-15T11:38:43.000Z</time>
</trkpt>
<trkpt lat="45.8603040" lon="9.1982940">
	<ele>1267.60</ele>
	<time>2025-02-15T11:38:44.000Z</time>
</trkpt>
<trkpt lat="45.8602960" lon="9.1982990">
	<ele>1267.40</ele>
	<time>2025-02-15T11:38:45.000Z</time>
</trkpt>
<trkpt lat="45.8602910" lon="9.1983110">
	<ele>1267.40</ele>
	<time>2025-02-15T11:38:46.000Z</time>
</trkpt>
<trkpt lat="45.8602780" lon="9.1983130">
	<ele>1267.40</ele>
	<time>2025-02-15T11:38:47.000Z</time>
</trkpt>
<trkpt lat="45.8602680" lon="9.1983130">
	<ele>1267.20</ele>
	<time>2025-02-15T11:38:48.000Z</time>
</trkpt>
<trkpt lat="45.8602580" lon="9.1983000">
	<ele>1267.00</ele>
	<time>2025-02-15T11:38:49.000Z</time>
</trkpt>
<trkpt lat="45.8602460" lon="9.1982960">
	<ele>1267.00</ele>
	<time>2025-02-15T11:38:50.000Z</time>
</trkpt>
<trkpt lat="45.8602330" lon="9.1982900">
	<ele>1267.00</ele>
	<time>2025-02-15T11:38:51.000Z</time>
</trkpt>
<trkpt lat="45.8602240" lon="9.1982850">
	<ele>1267.20</ele>
	<time>2025-02-15T11:38:52.000Z</time>
</trkpt>
<trkpt lat="45.8602170" lon="9.1982780">
	<ele>1267.40</ele>
	<time>2025-02-15T11:38:53.000Z</time>
</trkpt>
<trkpt lat="45.8602110" lon="9.1982660">
	<ele>1267.40</ele>
	<time>2025-02-15T11:38:54.000Z</time>
</trkpt>
<trkpt lat="45.8602040" lon="9.1982630">
	<ele>1267.40</ele>
	<time>2025-02-15T11:38:55.000Z</time>
</trkpt>
<trkpt lat="45.8601980" lon="9.1982610">
	<ele>1267.40</ele>
	<time>2025-02-15T11:38:56.000Z</time>
</trkpt>
<trkpt lat="45.8601890" lon="9.1982560">
	<ele>1267.40</ele>
	<time>2025-02-15T11:38:57.000Z</time>
</trkpt>
<trkpt lat="45.8601790" lon="9.1982510">
	<ele>1267.40</ele>
	<time>2025-02-15T11:38:58.000Z</time>
</trkpt>
<trkpt lat="45.8601690" lon="9.1982440">
	<ele>1267.20</ele>
	<time>2025-02-15T11:38:59.000Z</time>
</trkpt>
<trkpt lat="45.8601560" lon="9.1982330">
	<ele>1266.80</ele>
	<time>2025-02-15T11:39:00.000Z</time>
</trkpt>
<trkpt lat="45.8601460" lon="9.1982260">
	<ele>1266.40</ele>
	<time>2025-02-15T11:39:01.000Z</time>
</trkpt>
<trkpt lat="45.8601410" lon="9.1982110">
	<ele>1266.20</ele>
	<time>2025-02-15T11:39:02.000Z</time>
</trkpt>
<trkpt lat="45.8601340" lon="9.1981950">
	<ele>1266.20</ele>
	<time>2025-02-15T11:39:03.000Z</time>
</trkpt>
<trkpt lat="45.8601270" lon="9.1981830">
	<ele>1266.20</ele>
	<time>2025-02-15T11:39:04.000Z</time>
</trkpt>
<trkpt lat="45.8601210" lon="9.1981720">
	<ele>1266.20</ele>
	<time>2025-02-15T11:39:05.000Z</time>
</trkpt>
<trkpt lat="45.8601120" lon="9.1981590">
	<ele>1266.20</ele>
	<time>2025-02-15T11:39:06.000Z</time>
</trkpt>
<trkpt lat="45.8601060" lon="9.1981520">
	<ele>1266.20</ele>
	<time>2025-02-15T11:39:07.000Z</time>
</trkpt>
<trkpt lat="45.8601040" lon="9.1981570">
	<ele>1266.20</ele>
	<time>2025-02-15T11:39:08.000Z</time>
</trkpt>
<trkpt lat="45.8600980" lon="9.1981550">
	<ele>1266.20</ele>
	<time>2025-02-15T11:39:09.000Z</time>
</trkpt>
<trkpt lat="45.8600910" lon="9.1981570">
	<ele>1266.60</ele>
	<time>2025-02-15T11:39:10.000Z</time>
</trkpt>
<trkpt lat="45.8600850" lon="9.1981500">
	<ele>1266.40</ele>
	<time>2025-02-15T11:39:11.000Z</time>
</trkpt>
<trkpt lat="45.8600740" lon="9.1981420">
	<ele>1266.40</ele>
	<time>2025-02-15T11:39:12.000Z</time>
</trkpt>
<trkpt lat="45.8600670" lon="9.1981390">
	<ele>1266.40</ele>
	<time>2025-02-15T11:39:13.000Z</time>
</trkpt>
<trkpt lat="45.8600580" lon="9.1981430">
	<ele>1266.60</ele>
	<time>2025-02-15T11:39:14.000Z</time>
</trkpt>
<trkpt lat="45.8600520" lon="9.1981520">
	<ele>1266.60</ele>
	<time>2025-02-15T11:39:15.000Z</time>
</trkpt>
<trkpt lat="45.8600450" lon="9.1981530">
	<ele>1266.60</ele>
	<time>2025-02-15T11:39:16.000Z</time>
</trkpt>
<trkpt lat="45.8600370" lon="9.1981520">
	<ele>1266.60</ele>
	<time>2025-02-15T11:39:17.000Z</time>
</trkpt>
<trkpt lat="45.8600310" lon="9.1981520">
	<ele>1266.60</ele>
	<time>2025-02-15T11:39:18.000Z</time>
</trkpt>
<trkpt lat="45.8600250" lon="9.1981450">
	<ele>1266.60</ele>
	<time>2025-02-15T11:39:19.000Z</time>
</trkpt>
<trkpt lat="45.8600190" lon="9.1981410">
	<ele>1266.40</ele>
	<time>2025-02-15T11:39:20.000Z</time>
</trkpt>
<trkpt lat="45.8600130" lon="9.1981400">
	<ele>1266.20</ele>
	<time>2025-02-15T11:39:21.000Z</time>
</trkpt>
<trkpt lat="45.8600050" lon="9.1981390">
	<ele>1266.20</ele>
	<time>2025-02-15T11:39:22.000Z</time>
</trkpt>
<trkpt lat="45.8599960" lon="9.1981410">
	<ele>1265.80</ele>
	<time>2025-02-15T11:39:23.000Z</time>
</trkpt>
<trkpt lat="45.8599870" lon="9.1981430">
	<ele>1266.00</ele>
	<time>2025-02-15T11:39:24.000Z</time>
</trkpt>
<trkpt lat="45.8599790" lon="9.1981460">
	<ele>1266.00</ele>
	<time>2025-02-15T11:39:25.000Z</time>
</trkpt>
<trkpt lat="45.8599690" lon="9.1981520">
	<ele>1266.00</ele>
	<time>2025-02-15T11:39:26.000Z</time>
</trkpt>
<trkpt lat="45.8599600" lon="9.1981510">
	<ele>1266.20</ele>
	<time>2025-02-15T11:39:27.000Z</time>
</trkpt>
<trkpt lat="45.8599490" lon="9.1981480">
	<ele>1266.40</ele>
	<time>2025-02-15T11:39:28.000Z</time>
</trkpt>
<trkpt lat="45.8599370" lon="9.1981460">
	<ele>1266.40</ele>
	<time>2025-02-15T11:39:29.000Z</time>
</trkpt>
<trkpt lat="45.8599240" lon="9.1981410">
	<ele>1266.20</ele>
	<time>2025-02-15T11:39:30.000Z</time>
</trkpt>
<trkpt lat="45.8599100" lon="9.1981330">
	<ele>1266.20</ele>
	<time>2025-02-15T11:39:31.000Z</time>
</trkpt>
<trkpt lat="45.8599010" lon="9.1981220">
	<ele>1266.20</ele>
	<time>2025-02-15T11:39:32.000Z</time>
</trkpt>
<trkpt lat="45.8598930" lon="9.1981140">
	<ele>1266.40</ele>
	<time>2025-02-15T11:39:33.000Z</time>
</trkpt>
<trkpt lat="45.8598860" lon="9.1981080">
	<ele>1266.20</ele>
	<time>2025-02-15T11:39:34.000Z</time>
</trkpt>
<trkpt lat="45.8598810" lon="9.1981080">
	<ele>1266.20</ele>
	<time>2025-02-15T11:39:35.000Z</time>
</trkpt>
<trkpt lat="45.8598760" lon="9.1981000">
	<ele>1265.80</ele>
	<time>2025-02-15T11:39:36.000Z</time>
</trkpt>
<trkpt lat="45.8598670" lon="9.1980910">
	<ele>1265.80</ele>
	<time>2025-02-15T11:39:37.000Z</time>
</trkpt>
<trkpt lat="45.8598520" lon="9.1980830">
	<ele>1265.60</ele>
	<time>2025-02-15T11:39:38.000Z</time>
</trkpt>
<trkpt lat="45.8598280" lon="9.1980640">
	<ele>1265.40</ele>
	<time>2025-02-15T11:39:39.000Z</time>
</trkpt>
<trkpt lat="45.8598180" lon="9.1980540">
	<ele>1265.40</ele>
	<time>2025-02-15T11:39:40.000Z</time>
</trkpt>
<trkpt lat="45.8598120" lon="9.1980500">
	<ele>1265.40</ele>
	<time>2025-02-15T11:39:41.000Z</time>
</trkpt>
<trkpt lat="45.8598060" lon="9.1980480">
	<ele>1265.40</ele>
	<time>2025-02-15T11:39:42.000Z</time>
</trkpt>
<trkpt lat="45.8597950" lon="9.1980400">
	<ele>1265.40</ele>
	<time>2025-02-15T11:39:43.000Z</time>
</trkpt>
<trkpt lat="45.8597850" lon="9.1980390">
	<ele>1265.40</ele>
	<time>2025-02-15T11:39:44.000Z</time>
</trkpt>
<trkpt lat="45.8597730" lon="9.1980420">
	<ele>1265.40</ele>
	<time>2025-02-15T11:39:45.000Z</time>
</trkpt>
<trkpt lat="45.8597590" lon="9.1980430">
	<ele>1265.40</ele>
	<time>2025-02-15T11:39:46.000Z</time>
</trkpt>
<trkpt lat="45.8597460" lon="9.1980370">
	<ele>1265.40</ele>
	<time>2025-02-15T11:39:47.000Z</time>
</trkpt>
<trkpt lat="45.8597310" lon="9.1980370">
	<ele>1265.20</ele>
	<time>2025-02-15T11:39:48.000Z</time>
</trkpt>
<trkpt lat="45.8597240" lon="9.1980390">
	<ele>1265.20</ele>
	<time>2025-02-15T11:39:49.000Z</time>
</trkpt>
<trkpt lat="45.8597170" lon="9.1980280">
	<ele>1265.20</ele>
	<time>2025-02-15T11:39:50.000Z</time>
</trkpt>
<trkpt lat="45.8597090" lon="9.1980240">
	<ele>1265.20</ele>
	<time>2025-02-15T11:39:51.000Z</time>
</trkpt>
<trkpt lat="45.8596950" lon="9.1980200">
	<ele>1265.00</ele>
	<time>2025-02-15T11:39:52.000Z</time>
</trkpt>
<trkpt lat="45.8596850" lon="9.1980190">
	<ele>1265.00</ele>
	<time>2025-02-15T11:39:53.000Z</time>
</trkpt>
<trkpt lat="45.8596730" lon="9.1980100">
	<ele>1265.00</ele>
	<time>2025-02-15T11:39:54.000Z</time>
</trkpt>
<trkpt lat="45.8596620" lon="9.1979910">
	<ele>1265.00</ele>
	<time>2025-02-15T11:39:55.000Z</time>
</trkpt>
<trkpt lat="45.8596550" lon="9.1979790">
	<ele>1265.00</ele>
	<time>2025-02-15T11:39:56.000Z</time>
</trkpt>
<trkpt lat="45.8596510" lon="9.1979740">
	<ele>1265.20</ele>
	<time>2025-02-15T11:39:57.000Z</time>
</trkpt>
<trkpt lat="45.8596430" lon="9.1979730">
	<ele>1265.20</ele>
	<time>2025-02-15T11:39:58.000Z</time>
</trkpt>
<trkpt lat="45.8596290" lon="9.1979730">
	<ele>1265.20</ele>
	<time>2025-02-15T11:39:59.000Z</time>
</trkpt>
<trkpt lat="45.8596170" lon="9.1979760">
	<ele>1265.20</ele>
	<time>2025-02-15T11:40:00.000Z</time>
</trkpt>
<trkpt lat="45.8596050" lon="9.1979760">
	<ele>1265.20</ele>
	<time>2025-02-15T11:40:01.000Z</time>
</trkpt>
<trkpt lat="45.8595970" lon="9.1979760">
	<ele>1265.20</ele>
	<time>2025-02-15T11:40:02.000Z</time>
</trkpt>
<trkpt lat="45.8595850" lon="9.1979710">
	<ele>1265.20</ele>
	<time>2025-02-15T11:40:03.000Z</time>
</trkpt>
<trkpt lat="45.8595750" lon="9.1979610">
	<ele>1265.20</ele>
	<time>2025-02-15T11:40:04.000Z</time>
</trkpt>
<trkpt lat="45.8595650" lon="9.1979510">
	<ele>1265.00</ele>
	<time>2025-02-15T11:40:05.000Z</time>
</trkpt>
<trkpt lat="45.8595560" lon="9.1979370">
	<ele>1264.80</ele>
	<time>2025-02-15T11:40:06.000Z</time>
</trkpt>
<trkpt lat="45.8595440" lon="9.1979230">
	<ele>1264.80</ele>
	<time>2025-02-15T11:40:07.000Z</time>
</trkpt>
<trkpt lat="45.8595340" lon="9.1979080">
	<ele>1264.80</ele>
	<time>2025-02-15T11:40:08.000Z</time>
</trkpt>
<trkpt lat="45.8595210" lon="9.1978970">
	<ele>1264.80</ele>
	<time>2025-02-15T11:40:09.000Z</time>
</trkpt>
<trkpt lat="45.8595080" lon="9.1978900">
	<ele>1264.80</ele>
	<time>2025-02-15T11:40:10.000Z</time>
</trkpt>
<trkpt lat="45.8594930" lon="9.1978920">
	<ele>1264.80</ele>
	<time>2025-02-15T11:40:11.000Z</time>
</trkpt>
<trkpt lat="45.8594810" lon="9.1978950">
	<ele>1264.80</ele>
	<time>2025-02-15T11:40:12.000Z</time>
</trkpt>
<trkpt lat="45.8594670" lon="9.1978950">
	<ele>1264.80</ele>
	<time>2025-02-15T11:40:13.000Z</time>
</trkpt>
<trkpt lat="45.8594580" lon="9.1978870">
	<ele>1264.80</ele>
	<time>2025-02-15T11:40:14.000Z</time>
</trkpt>
<trkpt lat="45.8594470" lon="9.1978840">
	<ele>1264.80</ele>
	<time>2025-02-15T11:40:15.000Z</time>
</trkpt>
<trkpt lat="45.8594340" lon="9.1978830">
	<ele>1264.60</ele>
	<time>2025-02-15T11:40:16.000Z</time>
</trkpt>
<trkpt lat="45.8594250" lon="9.1978930">
	<ele>1264.40</ele>
	<time>2025-02-15T11:40:17.000Z</time>
</trkpt>
<trkpt lat="45.8594110" lon="9.1979020">
	<ele>1264.40</ele>
	<time>2025-02-15T11:40:18.000Z</time>
</trkpt>
<trkpt lat="45.8593960" lon="9.1979080">
	<ele>1264.40</ele>
	<time>2025-02-15T11:40:19.000Z</time>
</trkpt>
<trkpt lat="45.8593820" lon="9.1979090">
	<ele>1264.40</ele>
	<time>2025-02-15T11:40:20.000Z</time>
</trkpt>
<trkpt lat="45.8593730" lon="9.1979160">
	<ele>1264.20</ele>
	<time>2025-02-15T11:40:21.000Z</time>
</trkpt>
<trkpt lat="45.8593610" lon="9.1979240">
	<ele>1264.20</ele>
	<time>2025-02-15T11:40:22.000Z</time>
</trkpt>
<trkpt lat="45.8593530" lon="9.1979300">
	<ele>1264.00</ele>
	<time>2025-02-15T11:40:23.000Z</time>
</trkpt>
<trkpt lat="45.8593460" lon="9.1979230">
	<ele>1263.80</ele>
	<time>2025-02-15T11:40:24.000Z</time>
</trkpt>
<trkpt lat="45.8593370" lon="9.1979230">
	<ele>1263.60</ele>
	<time>2025-02-15T11:40:25.000Z</time>
</trkpt>
<trkpt lat="45.8593250" lon="9.1979260">
	<ele>1263.60</ele>
	<time>2025-02-15T11:40:26.000Z</time>
</trkpt>
<trkpt lat="45.8593130" lon="9.1979300">
	<ele>1263.40</ele>
	<time>2025-02-15T11:40:27.000Z</time>
</trkpt>
<trkpt lat="45.8593040" lon="9.1979320">
	<ele>1263.40</ele>
	<time>2025-02-15T11:40:28.000Z</time>
</trkpt>
<trkpt lat="45.8592940" lon="9.1979260">
	<ele>1263.20</ele>
	<time>2025-02-15T11:40:29.000Z</time>
</trkpt>
<trkpt lat="45.8592830" lon="9.1979220">
	<ele>1263.20</ele>
	<time>2025-02-15T11:40:30.000Z</time>
</trkpt>
<trkpt lat="45.8592790" lon="9.1979210">
	<ele>1263.00</ele>
	<time>2025-02-15T11:40:31.000Z</time>
</trkpt>
<trkpt lat="45.8592740" lon="9.1979240">
	<ele>1262.80</ele>
	<time>2025-02-15T11:40:32.000Z</time>
</trkpt>
<trkpt lat="45.8592670" lon="9.1979270">
	<ele>1262.60</ele>
	<time>2025-02-15T11:40:33.000Z</time>
</trkpt>
<trkpt lat="45.8592590" lon="9.1979310">
	<ele>1262.60</ele>
	<time>2025-02-15T11:40:34.000Z</time>
</trkpt>
<trkpt lat="45.8592460" lon="9.1979330">
	<ele>1262.60</ele>
	<time>2025-02-15T11:40:35.000Z</time>
</trkpt>
<trkpt lat="45.8592330" lon="9.1979350">
	<ele>1262.40</ele>
	<time>2025-02-15T11:40:36.000Z</time>
</trkpt>
<trkpt lat="45.8592190" lon="9.1979370">
	<ele>1262.40</ele>
	<time>2025-02-15T11:40:37.000Z</time>
</trkpt>
<trkpt lat="45.8592040" lon="9.1979420">
	<ele>1262.40</ele>
	<time>2025-02-15T11:40:38.000Z</time>
</trkpt>
<trkpt lat="45.8591920" lon="9.1979470">
	<ele>1262.40</ele>
	<time>2025-02-15T11:40:39.000Z</time>
</trkpt>
<trkpt lat="45.8591780" lon="9.1979540">
	<ele>1262.20</ele>
	<time>2025-02-15T11:40:40.000Z</time>
</trkpt>
<trkpt lat="45.8591640" lon="9.1979620">
	<ele>1261.80</ele>
	<time>2025-02-15T11:40:41.000Z</time>
</trkpt>
<trkpt lat="45.8591590" lon="9.1979730">
	<ele>1261.80</ele>
	<time>2025-02-15T11:40:42.000Z</time>
</trkpt>
<trkpt lat="45.8591530" lon="9.1979840">
	<ele>1261.60</ele>
	<time>2025-02-15T11:40:43.000Z</time>
</trkpt>
<trkpt lat="45.8591410" lon="9.1979940">
	<ele>1261.60</ele>
	<time>2025-02-15T11:40:44.000Z</time>
</trkpt>
<trkpt lat="45.8591320" lon="9.1979990">
	<ele>1261.40</ele>
	<time>2025-02-15T11:40:45.000Z</time>
</trkpt>
<trkpt lat="45.8591210" lon="9.1980020">
	<ele>1261.40</ele>
	<time>2025-02-15T11:40:46.000Z</time>
</trkpt>
<trkpt lat="45.8591130" lon="9.1980030">
	<ele>1261.40</ele>
	<time>2025-02-15T11:40:47.000Z</time>
</trkpt>
<trkpt lat="45.8591050" lon="9.1980070">
	<ele>1261.40</ele>
	<time>2025-02-15T11:40:48.000Z</time>
</trkpt>
<trkpt lat="45.8590960" lon="9.1980160">
	<ele>1261.20</ele>
	<time>2025-02-15T11:40:49.000Z</time>
</trkpt>
<trkpt lat="45.8590840" lon="9.1980260">
	<ele>1261.20</ele>
	<time>2025-02-15T11:40:50.000Z</time>
</trkpt>
<trkpt lat="45.8590740" lon="9.1980350">
	<ele>1261.20</ele>
	<time>2025-02-15T11:40:51.000Z</time>
</trkpt>
<trkpt lat="45.8590710" lon="9.1980430">
	<ele>1261.00</ele>
	<time>2025-02-15T11:40:52.000Z</time>
</trkpt>
<trkpt lat="45.8590640" lon="9.1980530">
	<ele>1261.00</ele>
	<time>2025-02-15T11:40:53.000Z</time>
</trkpt>
<trkpt lat="45.8590610" lon="9.1980610">
	<ele>1260.80</ele>
	<time>2025-02-15T11:40:54.000Z</time>
</trkpt>
<trkpt lat="45.8590540" lon="9.1980690">
	<ele>1260.60</ele>
	<time>2025-02-15T11:40:55.000Z</time>
</trkpt>
<trkpt lat="45.8590490" lon="9.1980800">
	<ele>1260.60</ele>
	<time>2025-02-15T11:40:56.000Z</time>
</trkpt>
<trkpt lat="45.8590420" lon="9.1980840">
	<ele>1260.20</ele>
	<time>2025-02-15T11:40:57.000Z</time>
</trkpt>
<trkpt lat="45.8590310" lon="9.1980890">
	<ele>1260.20</ele>
	<time>2025-02-15T11:40:58.000Z</time>
</trkpt>
<trkpt lat="45.8590220" lon="9.1980950">
	<ele>1260.00</ele>
	<time>2025-02-15T11:40:59.000Z</time>
</trkpt>
<trkpt lat="45.8590120" lon="9.1981050">
	<ele>1260.20</ele>
	<time>2025-02-15T11:41:00.000Z</time>
</trkpt>
<trkpt lat="45.8590040" lon="9.1981090">
	<ele>1260.00</ele>
	<time>2025-02-15T11:41:01.000Z</time>
</trkpt>
<trkpt lat="45.8589950" lon="9.1981080">
	<ele>1260.20</ele>
	<time>2025-02-15T11:41:02.000Z</time>
</trkpt>
<trkpt lat="45.8589840" lon="9.1981030">
	<ele>1260.20</ele>
	<time>2025-02-15T11:41:03.000Z</time>
</trkpt>
<trkpt lat="45.8589750" lon="9.1981050">
	<ele>1260.20</ele>
	<time>2025-02-15T11:41:04.000Z</time>
</trkpt>
<trkpt lat="45.8589600" lon="9.1981120">
	<ele>1260.00</ele>
	<time>2025-02-15T11:41:05.000Z</time>
</trkpt>
<trkpt lat="45.8589480" lon="9.1981190">
	<ele>1259.40</ele>
	<time>2025-02-15T11:41:06.000Z</time>
</trkpt>
<trkpt lat="45.8589370" lon="9.1981240">
	<ele>1259.00</ele>
	<time>2025-02-15T11:41:07.000Z</time>
</trkpt>
<trkpt lat="45.8589270" lon="9.1981320">
	<ele>1258.80</ele>
	<time>2025-02-15T11:41:08.000Z</time>
</trkpt>
<trkpt lat="45.8589160" lon="9.1981400">
	<ele>1258.40</ele>
	<time>2025-02-15T11:41:09.000Z</time>
</trkpt>
<trkpt lat="45.8589070" lon="9.1981540">
	<ele>1258.40</ele>
	<time>2025-02-15T11:41:10.000Z</time>
</trkpt>
<trkpt lat="45.8588980" lon="9.1981680">
	<ele>1258.20</ele>
	<time>2025-02-15T11:41:11.000Z</time>
</trkpt>
<trkpt lat="45.8588910" lon="9.1981770">
	<ele>1258.20</ele>
	<time>2025-02-15T11:41:12.000Z</time>
</trkpt>
<trkpt lat="45.8588810" lon="9.1981850">
	<ele>1258.20</ele>
	<time>2025-02-15T11:41:13.000Z</time>
</trkpt>
<trkpt lat="45.8588690" lon="9.1981990">
	<ele>1258.20</ele>
	<time>2025-02-15T11:41:14.000Z</time>
</trkpt>
<trkpt lat="45.8588530" lon="9.1982000">
	<ele>1258.20</ele>
	<time>2025-02-15T11:41:15.000Z</time>
</trkpt>
<trkpt lat="45.8588420" lon="9.1981920">
	<ele>1258.00</ele>
	<time>2025-02-15T11:41:16.000Z</time>
</trkpt>
<trkpt lat="45.8588310" lon="9.1981880">
	<ele>1258.00</ele>
	<time>2025-02-15T11:41:17.000Z</time>
</trkpt>
<trkpt lat="45.8588150" lon="9.1981890">
	<ele>1258.00</ele>
	<time>2025-02-15T11:41:18.000Z</time>
</trkpt>
<trkpt lat="45.8588000" lon="9.1981970">
	<ele>1258.00</ele>
	<time>2025-02-15T11:41:19.000Z</time>
</trkpt>
<trkpt lat="45.8587780" lon="9.1982080">
	<ele>1257.80</ele>
	<time>2025-02-15T11:41:20.000Z</time>
</trkpt>
<trkpt lat="45.8587610" lon="9.1982160">
	<ele>1257.60</ele>
	<time>2025-02-15T11:41:21.000Z</time>
</trkpt>
<trkpt lat="45.8587490" lon="9.1982240">
	<ele>1257.40</ele>
	<time>2025-02-15T11:41:22.000Z</time>
</trkpt>
<trkpt lat="45.8587400" lon="9.1982290">
	<ele>1257.40</ele>
	<time>2025-02-15T11:41:23.000Z</time>
</trkpt>
<trkpt lat="45.8587320" lon="9.1982290">
	<ele>1257.40</ele>
	<time>2025-02-15T11:41:24.000Z</time>
</trkpt>
<trkpt lat="45.8587260" lon="9.1982280">
	<ele>1257.40</ele>
	<time>2025-02-15T11:41:25.000Z</time>
</trkpt>
<trkpt lat="45.8587160" lon="9.1982140">
	<ele>1257.40</ele>
	<time>2025-02-15T11:41:26.000Z</time>
</trkpt>
<trkpt lat="45.8587070" lon="9.1982160">
	<ele>1257.40</ele>
	<time>2025-02-15T11:41:27.000Z</time>
</trkpt>
<trkpt lat="45.8586990" lon="9.1982180">
	<ele>1257.40</ele>
	<time>2025-02-15T11:41:28.000Z</time>
</trkpt>
<trkpt lat="45.8586920" lon="9.1982260">
	<ele>1257.20</ele>
	<time>2025-02-15T11:41:29.000Z</time>
</trkpt>
<trkpt lat="45.8586840" lon="9.1982350">
	<ele>1257.00</ele>
	<time>2025-02-15T11:41:30.000Z</time>
</trkpt>
<trkpt lat="45.8586750" lon="9.1982430">
	<ele>1257.00</ele>
	<time>2025-02-15T11:41:31.000Z</time>
</trkpt>
<trkpt lat="45.8586630" lon="9.1982480">
	<ele>1257.00</ele>
	<time>2025-02-15T11:41:32.000Z</time>
</trkpt>
<trkpt lat="45.8586510" lon="9.1982480">
	<ele>1257.00</ele>
	<time>2025-02-15T11:41:33.000Z</time>
</trkpt>
<trkpt lat="45.8586430" lon="9.1982510">
	<ele>1257.00</ele>
	<time>2025-02-15T11:41:34.000Z</time>
</trkpt>
<trkpt lat="45.8586340" lon="9.1982550">
	<ele>1256.80</ele>
	<time>2025-02-15T11:41:35.000Z</time>
</trkpt>
<trkpt lat="45.8586260" lon="9.1982560">
	<ele>1256.60</ele>
	<time>2025-02-15T11:41:36.000Z</time>
</trkpt>
<trkpt lat="45.8586190" lon="9.1982590">
	<ele>1256.20</ele>
	<time>2025-02-15T11:41:37.000Z</time>
</trkpt>
<trkpt lat="45.8586100" lon="9.1982610">
	<ele>1256.00</ele>
	<time>2025-02-15T11:41:38.000Z</time>
</trkpt>
<trkpt lat="45.8586020" lon="9.1982640">
	<ele>1255.80</ele>
	<time>2025-02-15T11:41:39.000Z</time>
</trkpt>
<trkpt lat="45.8585930" lon="9.1982690">
	<ele>1255.60</ele>
	<time>2025-02-15T11:41:40.000Z</time>
</trkpt>
<trkpt lat="45.8585870" lon="9.1982700">
	<ele>1255.40</ele>
	<time>2025-02-15T11:41:41.000Z</time>
</trkpt>
<trkpt lat="45.8585840" lon="9.1982720">
	<ele>1255.40</ele>
	<time>2025-02-15T11:41:42.000Z</time>
</trkpt>
<trkpt lat="45.8585800" lon="9.1982770">
	<ele>1255.40</ele>
	<time>2025-02-15T11:41:43.000Z</time>
</trkpt>
<trkpt lat="45.8585710" lon="9.1982800">
	<ele>1255.20</ele>
	<time>2025-02-15T11:41:44.000Z</time>
</trkpt>
<trkpt lat="45.8585630" lon="9.1982800">
	<ele>1255.20</ele>
	<time>2025-02-15T11:41:45.000Z</time>
</trkpt>
<trkpt lat="45.8585560" lon="9.1982810">
	<ele>1255.00</ele>
	<time>2025-02-15T11:41:46.000Z</time>
</trkpt>
<trkpt lat="45.8585460" lon="9.1982850">
	<ele>1254.80</ele>
	<time>2025-02-15T11:41:47.000Z</time>
</trkpt>
<trkpt lat="45.8585360" lon="9.1982830">
	<ele>1254.60</ele>
	<time>2025-02-15T11:41:48.000Z</time>
</trkpt>
<trkpt lat="45.8585270" lon="9.1982860">
	<ele>1254.40</ele>
	<time>2025-02-15T11:41:49.000Z</time>
</trkpt>
<trkpt lat="45.8585180" lon="9.1982940">
	<ele>1254.20</ele>
	<time>2025-02-15T11:41:50.000Z</time>
</trkpt>
<trkpt lat="45.8585100" lon="9.1983010">
	<ele>1254.20</ele>
	<time>2025-02-15T11:41:51.000Z</time>
</trkpt>
<trkpt lat="45.8585010" lon="9.1983020">
	<ele>1254.00</ele>
	<time>2025-02-15T11:41:52.000Z</time>
</trkpt>
<trkpt lat="45.8584910" lon="9.1983050">
	<ele>1254.00</ele>
	<time>2025-02-15T11:41:53.000Z</time>
</trkpt>
<trkpt lat="45.8584810" lon="9.1983090">
	<ele>1253.80</ele>
	<time>2025-02-15T11:41:54.000Z</time>
</trkpt>
<trkpt lat="45.8584720" lon="9.1983150">
	<ele>1253.40</ele>
	<time>2025-02-15T11:41:55.000Z</time>
</trkpt>
<trkpt lat="45.8584600" lon="9.1983180">
	<ele>1253.20</ele>
	<time>2025-02-15T11:41:56.000Z</time>
</trkpt>
<trkpt lat="45.8584480" lon="9.1983210">
	<ele>1253.00</ele>
	<time>2025-02-15T11:41:57.000Z</time>
</trkpt>
<trkpt lat="45.8584370" lon="9.1983190">
	<ele>1252.80</ele>
	<time>2025-02-15T11:41:58.000Z</time>
</trkpt>
<trkpt lat="45.8584270" lon="9.1983240">
	<ele>1252.60</ele>
	<time>2025-02-15T11:41:59.000Z</time>
</trkpt>
<trkpt lat="45.8584160" lon="9.1983260">
	<ele>1252.60</ele>
	<time>2025-02-15T11:42:00.000Z</time>
</trkpt>
<trkpt lat="45.8584060" lon="9.1983290">
	<ele>1252.60</ele>
	<time>2025-02-15T11:42:01.000Z</time>
</trkpt>
<trkpt lat="45.8583960" lon="9.1983370">
	<ele>1252.40</ele>
	<time>2025-02-15T11:42:02.000Z</time>
</trkpt>
<trkpt lat="45.8583930" lon="9.1983480">
	<ele>1252.40</ele>
	<time>2025-02-15T11:42:03.000Z</time>
</trkpt>
<trkpt lat="45.8583870" lon="9.1983540">
	<ele>1252.20</ele>
	<time>2025-02-15T11:42:04.000Z</time>
</trkpt>
<trkpt lat="45.8583760" lon="9.1983550">
	<ele>1252.00</ele>
	<time>2025-02-15T11:42:05.000Z</time>
</trkpt>
<trkpt lat="45.8583620" lon="9.1983620">
	<ele>1251.80</ele>
	<time>2025-02-15T11:42:06.000Z</time>
</trkpt>
<trkpt lat="45.8583430" lon="9.1983610">
	<ele>1251.60</ele>
	<time>2025-02-15T11:42:07.000Z</time>
</trkpt>
<trkpt lat="45.8583290" lon="9.1983660">
	<ele>1251.40</ele>
	<time>2025-02-15T11:42:08.000Z</time>
</trkpt>
<trkpt lat="45.8583190" lon="9.1983750">
	<ele>1251.20</ele>
	<time>2025-02-15T11:42:09.000Z</time>
</trkpt>
<trkpt lat="45.8583180" lon="9.1983760">
	<ele>1251.20</ele>
	<time>2025-02-15T11:42:10.000Z</time>
</trkpt>
<trkpt lat="45.8583070" lon="9.1983770">
	<ele>1251.00</ele>
	<time>2025-02-15T11:42:11.000Z</time>
</trkpt>
<trkpt lat="45.8582980" lon="9.1983800">
	<ele>1251.00</ele>
	<time>2025-02-15T11:42:12.000Z</time>
</trkpt>
<trkpt lat="45.8582910" lon="9.1983810">
	<ele>1250.80</ele>
	<time>2025-02-15T11:42:13.000Z</time>
</trkpt>
<trkpt lat="45.8582850" lon="9.1983810">
	<ele>1250.80</ele>
	<time>2025-02-15T11:42:14.000Z</time>
</trkpt>
<trkpt lat="45.8582730" lon="9.1983830">
	<ele>1250.40</ele>
	<time>2025-02-15T11:42:15.000Z</time>
</trkpt>
<trkpt lat="45.8582630" lon="9.1983830">
	<ele>1250.20</ele>
	<time>2025-02-15T11:42:16.000Z</time>
</trkpt>
<trkpt lat="45.8582580" lon="9.1983900">
	<ele>1250.00</ele>
	<time>2025-02-15T11:42:17.000Z</time>
</trkpt>
<trkpt lat="45.8582530" lon="9.1983970">
	<ele>1250.00</ele>
	<time>2025-02-15T11:42:18.000Z</time>
</trkpt>
<trkpt lat="45.8582510" lon="9.1984050">
	<ele>1250.00</ele>
	<time>2025-02-15T11:42:19.000Z</time>
</trkpt>
<trkpt lat="45.8582450" lon="9.1984120">
	<ele>1249.80</ele>
	<time>2025-02-15T11:42:20.000Z</time>
</trkpt>
<trkpt lat="45.8582380" lon="9.1984190">
	<ele>1249.60</ele>
	<time>2025-02-15T11:42:21.000Z</time>
</trkpt>
<trkpt lat="45.8582320" lon="9.1984240">
	<ele>1249.40</ele>
	<time>2025-02-15T11:42:22.000Z</time>
</trkpt>
<trkpt lat="45.8582230" lon="9.1984260">
	<ele>1249.00</ele>
	<time>2025-02-15T11:42:23.000Z</time>
</trkpt>
<trkpt lat="45.8582110" lon="9.1984260">
	<ele>1248.80</ele>
	<time>2025-02-15T11:42:24.000Z</time>
</trkpt>
<trkpt lat="45.8581990" lon="9.1984280">
	<ele>1248.60</ele>
	<time>2025-02-15T11:42:25.000Z</time>
</trkpt>
<trkpt lat="45.8581900" lon="9.1984300">
	<ele>1248.40</ele>
	<time>2025-02-15T11:42:26.000Z</time>
</trkpt>
<trkpt lat="45.8581770" lon="9.1984280">
	<ele>1248.20</ele>
	<time>2025-02-15T11:42:27.000Z</time>
</trkpt>
<trkpt lat="45.8581650" lon="9.1984250">
	<ele>1248.20</ele>
	<time>2025-02-15T11:42:28.000Z</time>
</trkpt>
<trkpt lat="45.8581540" lon="9.1984280">
	<ele>1248.00</ele>
	<time>2025-02-15T11:42:29.000Z</time>
</trkpt>
<trkpt lat="45.8581450" lon="9.1984270">
	<ele>1248.00</ele>
	<time>2025-02-15T11:42:30.000Z</time>
</trkpt>
<trkpt lat="45.8581390" lon="9.1984240">
	<ele>1248.00</ele>
	<time>2025-02-15T11:42:31.000Z</time>
</trkpt>
<trkpt lat="45.8581300" lon="9.1984180">
	<ele>1247.80</ele>
	<time>2025-02-15T11:42:32.000Z</time>
</trkpt>
<trkpt lat="45.8581210" lon="9.1984100">
	<ele>1247.60</ele>
	<time>2025-02-15T11:42:33.000Z</time>
</trkpt>
<trkpt lat="45.8581110" lon="9.1984060">
	<ele>1247.20</ele>
	<time>2025-02-15T11:42:34.000Z</time>
</trkpt>
<trkpt lat="45.8581040" lon="9.1984040">
	<ele>1246.60</ele>
	<time>2025-02-15T11:42:35.000Z</time>
</trkpt>
<trkpt lat="45.8580930" lon="9.1984010">
	<ele>1246.40</ele>
	<time>2025-02-15T11:42:36.000Z</time>
</trkpt>
<trkpt lat="45.8580830" lon="9.1984020">
	<ele>1246.20</ele>
	<time>2025-02-15T11:42:37.000Z</time>
</trkpt>
<trkpt lat="45.8580770" lon="9.1984040">
	<ele>1246.00</ele>
	<time>2025-02-15T11:42:38.000Z</time>
</trkpt>
<trkpt lat="45.8580660" lon="9.1984050">
	<ele>1245.60</ele>
	<time>2025-02-15T11:42:39.000Z</time>
</trkpt>
<trkpt lat="45.8580530" lon="9.1984060">
	<ele>1245.40</ele>
	<time>2025-02-15T11:42:40.000Z</time>
</trkpt>
<trkpt lat="45.8580440" lon="9.1984080">
	<ele>1245.20</ele>
	<time>2025-02-15T11:42:41.000Z</time>
</trkpt>
<trkpt lat="45.8580400" lon="9.1984100">
	<ele>1245.20</ele>
	<time>2025-02-15T11:42:42.000Z</time>
</trkpt>
<trkpt lat="45.8580340" lon="9.1984050">
	<ele>1245.00</ele>
	<time>2025-02-15T11:42:43.000Z</time>
</trkpt>
<trkpt lat="45.8580210" lon="9.1984020">
	<ele>1245.00</ele>
	<time>2025-02-15T11:42:44.000Z</time>
</trkpt>
<trkpt lat="45.8580120" lon="9.1984030">
	<ele>1245.00</ele>
	<time>2025-02-15T11:42:45.000Z</time>
</trkpt>
<trkpt lat="45.8580020" lon="9.1984060">
	<ele>1245.00</ele>
	<time>2025-02-15T11:42:46.000Z</time>
</trkpt>
<trkpt lat="45.8579910" lon="9.1984080">
	<ele>1245.00</ele>
	<time>2025-02-15T11:42:47.000Z</time>
</trkpt>
<trkpt lat="45.8579830" lon="9.1984110">
	<ele>1244.60</ele>
	<time>2025-02-15T11:42:48.000Z</time>
</trkpt>
<trkpt lat="45.8579760" lon="9.1984100">
	<ele>1244.20</ele>
	<time>2025-02-15T11:42:49.000Z</time>
</trkpt>
<trkpt lat="45.8579700" lon="9.1984090">
	<ele>1244.00</ele>
	<time>2025-02-15T11:42:50.000Z</time>
</trkpt>
<trkpt lat="45.8579640" lon="9.1984150">
	<ele>1243.80</ele>
	<time>2025-02-15T11:42:51.000Z</time>
</trkpt>
<trkpt lat="45.8579530" lon="9.1984200">
	<ele>1243.60</ele>
	<time>2025-02-15T11:42:52.000Z</time>
</trkpt>
<trkpt lat="45.8579390" lon="9.1984180">
	<ele>1243.40</ele>
	<time>2025-02-15T11:42:53.000Z</time>
</trkpt>
<trkpt lat="45.8579290" lon="9.1984180">
	<ele>1243.20</ele>
	<time>2025-02-15T11:42:54.000Z</time>
</trkpt>
<trkpt lat="45.8579200" lon="9.1984180">
	<ele>1243.20</ele>
	<time>2025-02-15T11:42:55.000Z</time>
</trkpt>
<trkpt lat="45.8579080" lon="9.1984200">
	<ele>1243.00</ele>
	<time>2025-02-15T11:42:56.000Z</time>
</trkpt>
<trkpt lat="45.8579050" lon="9.1984210">
	<ele>1242.80</ele>
	<time>2025-02-15T11:42:57.000Z</time>
</trkpt>
<trkpt lat="45.8578930" lon="9.1984200">
	<ele>1242.40</ele>
	<time>2025-02-15T11:42:58.000Z</time>
</trkpt>
<trkpt lat="45.8578820" lon="9.1984190">
	<ele>1242.00</ele>
	<time>2025-02-15T11:42:59.000Z</time>
</trkpt>
<trkpt lat="45.8578720" lon="9.1984180">
	<ele>1241.60</ele>
	<time>2025-02-15T11:43:00.000Z</time>
</trkpt>
<trkpt lat="45.8578620" lon="9.1984170">
	<ele>1241.20</ele>
	<time>2025-02-15T11:43:01.000Z</time>
</trkpt>
<trkpt lat="45.8578550" lon="9.1984120">
	<ele>1241.20</ele>
	<time>2025-02-15T11:43:02.000Z</time>
</trkpt>
<trkpt lat="45.8578400" lon="9.1984000">
	<ele>1241.00</ele>
	<time>2025-02-15T11:43:03.000Z</time>
</trkpt>
<trkpt lat="45.8578240" lon="9.1983920">
	<ele>1241.00</ele>
	<time>2025-02-15T11:43:04.000Z</time>
</trkpt>
<trkpt lat="45.8578080" lon="9.1983870">
	<ele>1241.00</ele>
	<time>2025-02-15T11:43:05.000Z</time>
</trkpt>
<trkpt lat="45.8577910" lon="9.1983910">
	<ele>1240.80</ele>
	<time>2025-02-15T11:43:06.000Z</time>
</trkpt>
<trkpt lat="45.8577780" lon="9.1983900">
	<ele>1240.80</ele>
	<time>2025-02-15T11:43:07.000Z</time>
</trkpt>
<trkpt lat="45.8577640" lon="9.1983960">
	<ele>1240.80</ele>
	<time>2025-02-15T11:43:08.000Z</time>
</trkpt>
<trkpt lat="45.8577540" lon="9.1984030">
	<ele>1240.80</ele>
	<time>2025-02-15T11:43:09.000Z</time>
</trkpt>
<trkpt lat="45.8577420" lon="9.1984090">
	<ele>1240.80</ele>
	<time>2025-02-15T11:43:10.000Z</time>
</trkpt>
<trkpt lat="45.8577310" lon="9.1984110">
	<ele>1240.60</ele>
	<time>2025-02-15T11:43:11.000Z</time>
</trkpt>
<trkpt lat="45.8577180" lon="9.1984110">
	<ele>1240.60</ele>
	<time>2025-02-15T11:43:12.000Z</time>
</trkpt>
<trkpt lat="45.8577050" lon="9.1984080">
	<ele>1240.40</ele>
	<time>2025-02-15T11:43:13.000Z</time>
</trkpt>
<trkpt lat="45.8576960" lon="9.1984090">
	<ele>1240.40</ele>
	<time>2025-02-15T11:43:14.000Z</time>
</trkpt>
<trkpt lat="45.8576820" lon="9.1984120">
	<ele>1240.20</ele>
	<time>2025-02-15T11:43:15.000Z</time>
</trkpt>
<trkpt lat="45.8576700" lon="9.1984140">
	<ele>1240.00</ele>
	<time>2025-02-15T11:43:16.000Z</time>
</trkpt>
<trkpt lat="45.8576600" lon="9.1984120">
	<ele>1240.00</ele>
	<time>2025-02-15T11:43:17.000Z</time>
</trkpt>
<trkpt lat="45.8576510" lon="9.1984170">
	<ele>1239.80</ele>
	<time>2025-02-15T11:43:18.000Z</time>
</trkpt>
<trkpt lat="45.8576450" lon="9.1984140">
	<ele>1239.80</ele>
	<time>2025-02-15T11:43:19.000Z</time>
</trkpt>
<trkpt lat="45.8576360" lon="9.1984160">
	<ele>1239.80</ele>
	<time>2025-02-15T11:43:20.000Z</time>
</trkpt>
<trkpt lat="45.8576270" lon="9.1984130">
	<ele>1239.60</ele>
	<time>2025-02-15T11:43:21.000Z</time>
</trkpt>
<trkpt lat="45.8576200" lon="9.1984100">
	<ele>1239.40</ele>
	<time>2025-02-15T11:43:22.000Z</time>
</trkpt>
<trkpt lat="45.8576110" lon="9.1984110">
	<ele>1239.20</ele>
	<time>2025-02-15T11:43:23.000Z</time>
</trkpt>
<trkpt lat="45.8575990" lon="9.1984120">
	<ele>1239.00</ele>
	<time>2025-02-15T11:43:24.000Z</time>
</trkpt>
<trkpt lat="45.8575910" lon="9.1984100">
	<ele>1238.80</ele>
	<time>2025-02-15T11:43:25.000Z</time>
</trkpt>
<trkpt lat="45.8575830" lon="9.1984080">
	<ele>1238.60</ele>
	<time>2025-02-15T11:43:26.000Z</time>
</trkpt>
<trkpt lat="45.8575780" lon="9.1984090">
	<ele>1238.60</ele>
	<time>2025-02-15T11:43:27.000Z</time>
</trkpt>
<trkpt lat="45.8575740" lon="9.1984140">
	<ele>1238.40</ele>
	<time>2025-02-15T11:43:28.000Z</time>
</trkpt>
<trkpt lat="45.8575650" lon="9.1984120">
	<ele>1238.40</ele>
	<time>2025-02-15T11:43:29.000Z</time>
</trkpt>
<trkpt lat="45.8575600" lon="9.1984090">
	<ele>1238.20</ele>
	<time>2025-02-15T11:43:30.000Z</time>
</trkpt>
<trkpt lat="45.8575540" lon="9.1984070">
	<ele>1238.00</ele>
	<time>2025-02-15T11:43:31.000Z</time>
</trkpt>
<trkpt lat="45.8575440" lon="9.1984070">
	<ele>1237.60</ele>
	<time>2025-02-15T11:43:32.000Z</time>
</trkpt>
<trkpt lat="45.8575310" lon="9.1984070">
	<ele>1237.40</ele>
	<time>2025-02-15T11:43:33.000Z</time>
</trkpt>
<trkpt lat="45.8575200" lon="9.1984060">
	<ele>1237.20</ele>
	<time>2025-02-15T11:43:34.000Z</time>
</trkpt>
<trkpt lat="45.8575110" lon="9.1984030">
	<ele>1237.00</ele>
	<time>2025-02-15T11:43:35.000Z</time>
</trkpt>
<trkpt lat="45.8575030" lon="9.1984000">
	<ele>1236.40</ele>
	<time>2025-02-15T11:43:36.000Z</time>
</trkpt>
<trkpt lat="45.8574950" lon="9.1984020">
	<ele>1236.20</ele>
	<time>2025-02-15T11:43:37.000Z</time>
</trkpt>
<trkpt lat="45.8574860" lon="9.1984000">
	<ele>1236.00</ele>
	<time>2025-02-15T11:43:38.000Z</time>
</trkpt>
<trkpt lat="45.8574790" lon="9.1983990">
	<ele>1236.00</ele>
	<time>2025-02-15T11:43:39.000Z</time>
</trkpt>
<trkpt lat="45.8574710" lon="9.1983950">
	<ele>1236.00</ele>
	<time>2025-02-15T11:43:40.000Z</time>
</trkpt>
<trkpt lat="45.8574590" lon="9.1983920">
	<ele>1236.00</ele>
	<time>2025-02-15T11:43:41.000Z</time>
</trkpt>
<trkpt lat="45.8574530" lon="9.1983930">
	<ele>1236.00</ele>
	<time>2025-02-15T11:43:42.000Z</time>
</trkpt>
<trkpt lat="45.8574440" lon="9.1983930">
	<ele>1236.00</ele>
	<time>2025-02-15T11:43:43.000Z</time>
</trkpt>
<trkpt lat="45.8574350" lon="9.1983900">
	<ele>1236.00</ele>
	<time>2025-02-15T11:43:44.000Z</time>
</trkpt>
<trkpt lat="45.8574320" lon="9.1983880">
	<ele>1236.00</ele>
	<time>2025-02-15T11:43:45.000Z</time>
</trkpt>
<trkpt lat="45.8574250" lon="9.1983810">
	<ele>1235.60</ele>
	<time>2025-02-15T11:43:46.000Z</time>
</trkpt>
<trkpt lat="45.8574140" lon="9.1983700">
	<ele>1235.20</ele>
	<time>2025-02-15T11:43:47.000Z</time>
</trkpt>
<trkpt lat="45.8574020" lon="9.1983580">
	<ele>1235.00</ele>
	<time>2025-02-15T11:43:48.000Z</time>
</trkpt>
<trkpt lat="45.8573880" lon="9.1983490">
	<ele>1235.00</ele>
	<time>2025-02-15T11:43:49.000Z</time>
</trkpt>
<trkpt lat="45.8573590" lon="9.1983300">
	<ele>1234.80</ele>
	<time>2025-02-15T11:43:50.000Z</time>
</trkpt>
<trkpt lat="45.8573410" lon="9.1983250">
	<ele>1234.80</ele>
	<time>2025-02-15T11:43:51.000Z</time>
</trkpt>
<trkpt lat="45.8573350" lon="9.1983020">
	<ele>1234.40</ele>
	<time>2025-02-15T11:43:52.000Z</time>
</trkpt>
<trkpt lat="45.8573260" lon="9.1982890">
	<ele>1234.20</ele>
	<time>2025-02-15T11:43:53.000Z</time>
</trkpt>
<trkpt lat="45.8573210" lon="9.1982880">
	<ele>1234.00</ele>
	<time>2025-02-15T11:43:54.000Z</time>
</trkpt>
<trkpt lat="45.8573110" lon="9.1982870">
	<ele>1234.00</ele>
	<time>2025-02-15T11:43:55.000Z</time>
</trkpt>
<trkpt lat="45.8573020" lon="9.1982870">
	<ele>1233.80</ele>
	<time>2025-02-15T11:43:56.000Z</time>
</trkpt>
<trkpt lat="45.8572980" lon="9.1982850">
	<ele>1233.60</ele>
	<time>2025-02-15T11:43:57.000Z</time>
</trkpt>
<trkpt lat="45.8572940" lon="9.1982850">
	<ele>1233.60</ele>
	<time>2025-02-15T11:43:58.000Z</time>
</trkpt>
<trkpt lat="45.8572850" lon="9.1982870">
	<ele>1233.60</ele>
	<time>2025-02-15T11:43:59.000Z</time>
</trkpt>
<trkpt lat="45.8572740" lon="9.1982900">
	<ele>1233.40</ele>
	<time>2025-02-15T11:44:00.000Z</time>
</trkpt>
<trkpt lat="45.8572690" lon="9.1982900">
	<ele>1233.40</ele>
	<time>2025-02-15T11:44:01.000Z</time>
</trkpt>
<trkpt lat="45.8572660" lon="9.1982930">
	<ele>1233.20</ele>
	<time>2025-02-15T11:44:02.000Z</time>
</trkpt>
<trkpt lat="45.8572610" lon="9.1982920">
	<ele>1233.20</ele>
	<time>2025-02-15T11:44:03.000Z</time>
</trkpt>
<trkpt lat="45.8572450" lon="9.1982870">
	<ele>1233.00</ele>
	<time>2025-02-15T11:44:04.000Z</time>
</trkpt>
<trkpt lat="45.8572250" lon="9.1982880">
	<ele>1233.00</ele>
	<time>2025-02-15T11:44:05.000Z</time>
</trkpt>
<trkpt lat="45.8572150" lon="9.1982990">
	<ele>1232.80</ele>
	<time>2025-02-15T11:44:06.000Z</time>
</trkpt>
<trkpt lat="45.8572040" lon="9.1983000">
	<ele>1232.60</ele>
	<time>2025-02-15T11:44:07.000Z</time>
</trkpt>
<trkpt lat="45.8571990" lon="9.1983030">
	<ele>1232.40</ele>
	<time>2025-02-15T11:44:08.000Z</time>
</trkpt>
<trkpt lat="45.8571920" lon="9.1983090">
	<ele>1232.20</ele>
	<time>2025-02-15T11:44:09.000Z</time>
</trkpt>
<trkpt lat="45.8571880" lon="9.1983110">
	<ele>1232.00</ele>
	<time>2025-02-15T11:44:10.000Z</time>
</trkpt>
<trkpt lat="45.8571790" lon="9.1983080">
	<ele>1231.80</ele>
	<time>2025-02-15T11:44:11.000Z</time>
</trkpt>
<trkpt lat="45.8571720" lon="9.1983070">
	<ele>1231.80</ele>
	<time>2025-02-15T11:44:12.000Z</time>
</trkpt>
<trkpt lat="45.8571630" lon="9.1983060">
	<ele>1231.60</ele>
	<time>2025-02-15T11:44:13.000Z</time>
</trkpt>
<trkpt lat="45.8571550" lon="9.1983030">
	<ele>1231.40</ele>
	<time>2025-02-15T11:44:14.000Z</time>
</trkpt>
<trkpt lat="45.8571490" lon="9.1982940">
	<ele>1231.40</ele>
	<time>2025-02-15T11:44:15.000Z</time>
</trkpt>
<trkpt lat="45.8571440" lon="9.1982920">
	<ele>1231.20</ele>
	<time>2025-02-15T11:44:16.000Z</time>
</trkpt>
<trkpt lat="45.8571410" lon="9.1982910">
	<ele>1231.20</ele>
	<time>2025-02-15T11:44:17.000Z</time>
</trkpt>
<trkpt lat="45.8571390" lon="9.1982890">
	<ele>1231.20</ele>
	<time>2025-02-15T11:44:18.000Z</time>
</trkpt>
<trkpt lat="45.8571370" lon="9.1982860">
	<ele>1231.00</ele>
	<time>2025-02-15T11:44:19.000Z</time>
</trkpt>
<trkpt lat="45.8571350" lon="9.1982820">
	<ele>1231.00</ele>
	<time>2025-02-15T11:44:20.000Z</time>
</trkpt>
<trkpt lat="45.8571330" lon="9.1982780">
	<ele>1231.00</ele>
	<time>2025-02-15T11:44:21.000Z</time>
</trkpt>
<trkpt lat="45.8571330" lon="9.1982790">
	<ele>1230.80</ele>
	<time>2025-02-15T11:44:22.000Z</time>
</trkpt>
<trkpt lat="45.8571330" lon="9.1982790">
	<ele>1230.80</ele>
	<time>2025-02-15T11:44:23.000Z</time>
</trkpt>
<trkpt lat="45.8571330" lon="9.1982800">
	<ele>1230.60</ele>
	<time>2025-02-15T11:44:24.000Z</time>
</trkpt>
<trkpt lat="45.8571330" lon="9.1982800">
	<ele>1230.60</ele>
	<time>2025-02-15T11:44:25.000Z</time>
</trkpt>
<trkpt lat="45.8571350" lon="9.1982800">
	<ele>1230.60</ele>
	<time>2025-02-15T11:44:26.000Z</time>
</trkpt>
<trkpt lat="45.8571360" lon="9.1982800">
	<ele>1230.60</ele>
	<time>2025-02-15T11:44:27.000Z</time>
</trkpt>
<trkpt lat="45.8571360" lon="9.1982800">
	<ele>1230.60</ele>
	<time>2025-02-15T11:44:28.000Z</time>
</trkpt>
<trkpt lat="45.8571360" lon="9.1982800">
	<ele>1230.60</ele>
	<time>2025-02-15T11:44:29.000Z</time>
</trkpt>
<trkpt lat="45.8571360" lon="9.1982800">
	<ele>1230.60</ele>
	<time>2025-02-15T11:44:30.000Z</time>
</trkpt>
<trkpt lat="45.8571360" lon="9.1982800">
	<ele>1230.60</ele>
	<time>2025-02-15T11:44:31.000Z</time>
</trkpt>
<trkpt lat="45.8571360" lon="9.1982800">
	<ele>1230.60</ele>
	<time>2025-02-15T11:44:32.000Z</time>
</trkpt>
<trkpt lat="45.8571360" lon="9.1982800">
	<ele>1230.80</ele>
	<time>2025-02-15T11:44:33.000Z</time>
</trkpt>
<trkpt lat="45.8571360" lon="9.1982800">
	<ele>1230.80</ele>
	<time>2025-02-15T11:44:34.000Z</time>
</trkpt>
<trkpt lat="45.8571360" lon="9.1982800">
	<ele>1230.60</ele>
	<time>2025-02-15T11:44:35.000Z</time>
</trkpt>
<trkpt lat="45.8571360" lon="9.1982800">
	<ele>1230.60</ele>
	<time>2025-02-15T11:44:36.000Z</time>
</trkpt>
<trkpt lat="45.8571360" lon="9.1982800">
	<ele>1230.60</ele>
	<time>2025-02-15T11:44:37.000Z</time>
</trkpt>
<trkpt lat="45.8571360" lon="9.1982800">
	<ele>1230.60</ele>
	<time>2025-02-15T11:44:38.000Z</time>
</trkpt>
<trkpt lat="45.8571360" lon="9.1982800">
	<ele>1230.60</ele>
	<time>2025-02-15T11:44:39.000Z</time>
</trkpt>
<trkpt lat="45.8571360" lon="9.1982800">
	<ele>1230.60</ele>
	<time>2025-02-15T11:44:40.000Z</time>
</trkpt>
<trkpt lat="45.8571360" lon="9.1982800">
	<ele>1230.60</ele>
	<time>2025-02-15T11:44:41.000Z</time>
</trkpt>
<trkpt lat="45.8571360" lon="9.1982800">
	<ele>1230.60</ele>
	<time>2025-02-15T11:44:42.000Z</time>
</trkpt>
<trkpt lat="45.8571360" lon="9.1982790">
	<ele>1230.60</ele>
	<time>2025-02-15T11:44:43.000Z</time>
</trkpt>
<trkpt lat="45.8571360" lon="9.1982790">
	<ele>1230.60</ele>
	<time>2025-02-15T11:44:44.000Z</time>
</trkpt>
<trkpt lat="45.8571360" lon="9.1982790">
	<ele>1230.60</ele>
	<time>2025-02-15T11:44:45.000Z</time>
</trkpt>
<trkpt lat="45.8571360" lon="9.1982780">
	<ele>1230.60</ele>
	<time>2025-02-15T11:44:46.000Z</time>
</trkpt>
<trkpt lat="45.8571360" lon="9.1982770">
	<ele>1230.60</ele>
	<time>2025-02-15T11:44:47.000Z</time>
</trkpt>
<trkpt lat="45.8571350" lon="9.1982760">
	<ele>1230.60</ele>
	<time>2025-02-15T11:44:48.000Z</time>
</trkpt>
<trkpt lat="45.8571350" lon="9.1982760">
	<ele>1230.60</ele>
	<time>2025-02-15T11:44:49.000Z</time>
</trkpt>
<trkpt lat="45.8571340" lon="9.1982760">
	<ele>1230.60</ele>
	<time>2025-02-15T11:44:50.000Z</time>
</trkpt>
<trkpt lat="45.8571340" lon="9.1982750">
	<ele>1230.60</ele>
	<time>2025-02-15T11:44:51.000Z</time>
</trkpt>
<trkpt lat="45.8571340" lon="9.1982750">
	<ele>1230.40</ele>
	<time>2025-02-15T11:44:52.000Z</time>
</trkpt>
<trkpt lat="45.8571340" lon="9.1982750">
	<ele>1230.40</ele>
	<time>2025-02-15T11:44:53.000Z</time>
</trkpt>
<trkpt lat="45.8571340" lon="9.1982750">
	<ele>1230.40</ele>
	<time>2025-02-15T11:44:54.000Z</time>
</trkpt>
<trkpt lat="45.8571340" lon="9.1982750">
	<ele>1230.00</ele>
	<time>2025-02-15T11:44:55.000Z</time>
</trkpt>
<trkpt lat="45.8571340" lon="9.1982740">
	<ele>1229.80</ele>
	<time>2025-02-15T11:44:56.000Z</time>
</trkpt>
<trkpt lat="45.8571280" lon="9.1982690">
	<ele>1229.60</ele>
	<time>2025-02-15T11:44:57.000Z</time>
</trkpt>
<trkpt lat="45.8571150" lon="9.1982520">
	<ele>1229.60</ele>
	<time>2025-02-15T11:44:58.000Z</time>
</trkpt>
<trkpt lat="45.8571080" lon="9.1982340">
	<ele>1229.40</ele>
	<time>2025-02-15T11:44:59.000Z</time>
</trkpt>
<trkpt lat="45.8571010" lon="9.1982140">
	<ele>1229.40</ele>
	<time>2025-02-15T11:45:00.000Z</time>
</trkpt>
<trkpt lat="45.8570930" lon="9.1981960">
	<ele>1229.40</ele>
	<time>2025-02-15T11:45:01.000Z</time>
</trkpt>
<trkpt lat="45.8570800" lon="9.1981790">
	<ele>1229.40</ele>
	<time>2025-02-15T11:45:02.000Z</time>
</trkpt>
<trkpt lat="45.8570670" lon="9.1981640">
	<ele>1229.40</ele>
	<time>2025-02-15T11:45:03.000Z</time>
</trkpt>
<trkpt lat="45.8570610" lon="9.1981420">
	<ele>1229.20</ele>
	<time>2025-02-15T11:45:04.000Z</time>
</trkpt>
<trkpt lat="45.8570520" lon="9.1981190">
	<ele>1229.20</ele>
	<time>2025-02-15T11:45:05.000Z</time>
</trkpt>
<trkpt lat="45.8570460" lon="9.1981060">
	<ele>1229.20</ele>
	<time>2025-02-15T11:45:06.000Z</time>
</trkpt>
<trkpt lat="45.8570450" lon="9.1981040">
	<ele>1229.00</ele>
	<time>2025-02-15T11:45:07.000Z</time>
</trkpt>
<trkpt lat="45.8570450" lon="9.1981040">
	<ele>1229.00</ele>
	<time>2025-02-15T11:45:08.000Z</time>
</trkpt>
<trkpt lat="45.8570450" lon="9.1980900">
	<ele>1228.80</ele>
	<time>2025-02-15T11:45:09.000Z</time>
</trkpt>
<trkpt lat="45.8570370" lon="9.1980790">
	<ele>1228.80</ele>
	<time>2025-02-15T11:45:10.000Z</time>
</trkpt>
<trkpt lat="45.8570220" lon="9.1980730">
	<ele>1228.80</ele>
	<time>2025-02-15T11:45:11.000Z</time>
</trkpt>
<trkpt lat="45.8570180" lon="9.1980720">
	<ele>1228.80</ele>
	<time>2025-02-15T11:45:12.000Z</time>
</trkpt>
<trkpt lat="45.8570190" lon="9.1980670">
	<ele>1228.80</ele>
	<time>2025-02-15T11:45:13.000Z</time>
</trkpt>
<trkpt lat="45.8570170" lon="9.1980620">
	<ele>1228.80</ele>
	<time>2025-02-15T11:45:14.000Z</time>
</trkpt>
<trkpt lat="45.8570100" lon="9.1980530">
	<ele>1228.80</ele>
	<time>2025-02-15T11:45:15.000Z</time>
</trkpt>
<trkpt lat="45.8570030" lon="9.1980460">
	<ele>1228.60</ele>
	<time>2025-02-15T11:45:16.000Z</time>
</trkpt>
<trkpt lat="45.8569890" lon="9.1980350">
	<ele>1228.60</ele>
	<time>2025-02-15T11:45:17.000Z</time>
</trkpt>
<trkpt lat="45.8569800" lon="9.1980190">
	<ele>1228.60</ele>
	<time>2025-02-15T11:45:18.000Z</time>
</trkpt>
<trkpt lat="45.8569700" lon="9.1980010">
	<ele>1228.40</ele>
	<time>2025-02-15T11:45:19.000Z</time>
</trkpt>
<trkpt lat="45.8569570" lon="9.1979790">
	<ele>1228.40</ele>
	<time>2025-02-15T11:45:20.000Z</time>
</trkpt>
<trkpt lat="45.8569460" lon="9.1979640">
	<ele>1228.40</ele>
	<time>2025-02-15T11:45:21.000Z</time>
</trkpt>
<trkpt lat="45.8569410" lon="9.1979470">
	<ele>1228.20</ele>
	<time>2025-02-15T11:45:22.000Z</time>
</trkpt>
<trkpt lat="45.8569280" lon="9.1979320">
	<ele>1228.20</ele>
	<time>2025-02-15T11:45:23.000Z</time>
</trkpt>
<trkpt lat="45.8569200" lon="9.1979120">
	<ele>1228.20</ele>
	<time>2025-02-15T11:45:24.000Z</time>
</trkpt>
<trkpt lat="45.8569150" lon="9.1978950">
	<ele>1228.00</ele>
	<time>2025-02-15T11:45:25.000Z</time>
</trkpt>
<trkpt lat="45.8569160" lon="9.1978790">
	<ele>1228.00</ele>
	<time>2025-02-15T11:45:26.000Z</time>
</trkpt>
<trkpt lat="45.8569140" lon="9.1978570">
	<ele>1227.80</ele>
	<time>2025-02-15T11:45:27.000Z</time>
</trkpt>
<trkpt lat="45.8569090" lon="9.1978410">
	<ele>1227.60</ele>
	<time>2025-02-15T11:45:28.000Z</time>
</trkpt>
<trkpt lat="45.8569020" lon="9.1978250">
	<ele>1227.60</ele>
	<time>2025-02-15T11:45:29.000Z</time>
</trkpt>
<trkpt lat="45.8568950" lon="9.1978100">
	<ele>1227.60</ele>
	<time>2025-02-15T11:45:30.000Z</time>
</trkpt>
<trkpt lat="45.8568890" lon="9.1977970">
	<ele>1227.40</ele>
	<time>2025-02-15T11:45:31.000Z</time>
</trkpt>
<trkpt lat="45.8568940" lon="9.1977920">
	<ele>1227.40</ele>
	<time>2025-02-15T11:45:32.000Z</time>
</trkpt>
<trkpt lat="45.8568870" lon="9.1977900">
	<ele>1227.20</ele>
	<time>2025-02-15T11:45:33.000Z</time>
</trkpt>
<trkpt lat="45.8568820" lon="9.1977830">
	<ele>1227.20</ele>
	<time>2025-02-15T11:45:34.000Z</time>
</trkpt>
<trkpt lat="45.8568770" lon="9.1977770">
	<ele>1227.00</ele>
	<time>2025-02-15T11:45:35.000Z</time>
</trkpt>
<trkpt lat="45.8568710" lon="9.1977690">
	<ele>1227.00</ele>
	<time>2025-02-15T11:45:36.000Z</time>
</trkpt>
<trkpt lat="45.8568630" lon="9.1977540">
	<ele>1226.80</ele>
	<time>2025-02-15T11:45:37.000Z</time>
</trkpt>
<trkpt lat="45.8568540" lon="9.1977430">
	<ele>1226.60</ele>
	<time>2025-02-15T11:45:38.000Z</time>
</trkpt>
<trkpt lat="45.8568460" lon="9.1977280">
	<ele>1226.60</ele>
	<time>2025-02-15T11:45:39.000Z</time>
</trkpt>
<trkpt lat="45.8568420" lon="9.1977120">
	<ele>1226.60</ele>
	<time>2025-02-15T11:45:40.000Z</time>
</trkpt>
<trkpt lat="45.8568370" lon="9.1976960">
	<ele>1226.40</ele>
	<time>2025-02-15T11:45:41.000Z</time>
</trkpt>
<trkpt lat="45.8568300" lon="9.1976860">
	<ele>1226.40</ele>
	<time>2025-02-15T11:45:42.000Z</time>
</trkpt>
<trkpt lat="45.8568210" lon="9.1976710">
	<ele>1226.40</ele>
	<time>2025-02-15T11:45:43.000Z</time>
</trkpt>
<trkpt lat="45.8568110" lon="9.1976590">
	<ele>1226.20</ele>
	<time>2025-02-15T11:45:44.000Z</time>
</trkpt>
<trkpt lat="45.8568040" lon="9.1976490">
	<ele>1226.00</ele>
	<time>2025-02-15T11:45:45.000Z</time>
</trkpt>
<trkpt lat="45.8568010" lon="9.1976370">
	<ele>1226.00</ele>
	<time>2025-02-15T11:45:46.000Z</time>
</trkpt>
<trkpt lat="45.8567940" lon="9.1976220">
	<ele>1225.80</ele>
	<time>2025-02-15T11:45:47.000Z</time>
</trkpt>
<trkpt lat="45.8567820" lon="9.1976010">
	<ele>1225.80</ele>
	<time>2025-02-15T11:45:48.000Z</time>
</trkpt>
<trkpt lat="45.8567750" lon="9.1975850">
	<ele>1225.60</ele>
	<time>2025-02-15T11:45:49.000Z</time>
</trkpt>
<trkpt lat="45.8567730" lon="9.1975800">
	<ele>1225.60</ele>
	<time>2025-02-15T11:45:50.000Z</time>
</trkpt>
<trkpt lat="45.8567710" lon="9.1975770">
	<ele>1225.60</ele>
	<time>2025-02-15T11:45:51.000Z</time>
</trkpt>
<trkpt lat="45.8567700" lon="9.1975760">
	<ele>1225.60</ele>
	<time>2025-02-15T11:45:52.000Z</time>
</trkpt>
<trkpt lat="45.8567680" lon="9.1975740">
	<ele>1225.60</ele>
	<time>2025-02-15T11:45:53.000Z</time>
</trkpt>
<trkpt lat="45.8567660" lon="9.1975720">
	<ele>1225.60</ele>
	<time>2025-02-15T11:45:54.000Z</time>
</trkpt>
<trkpt lat="45.8567660" lon="9.1975710">
	<ele>1225.60</ele>
	<time>2025-02-15T11:45:55.000Z</time>
</trkpt>
<trkpt lat="45.8567660" lon="9.1975710">
	<ele>1225.60</ele>
	<time>2025-02-15T11:45:56.000Z</time>
</trkpt>
<trkpt lat="45.8567650" lon="9.1975720">
	<ele>1225.60</ele>
	<time>2025-02-15T11:45:57.000Z</time>
</trkpt>
<trkpt lat="45.8567640" lon="9.1975730">
	<ele>1225.80</ele>
	<time>2025-02-15T11:45:58.000Z</time>
</trkpt>
<trkpt lat="45.8567660" lon="9.1975720">
	<ele>1225.80</ele>
	<time>2025-02-15T11:45:59.000Z</time>
</trkpt>
<trkpt lat="45.8567650" lon="9.1975690">
	<ele>1225.80</ele>
	<time>2025-02-15T11:46:00.000Z</time>
</trkpt>
<trkpt lat="45.8567620" lon="9.1975610">
	<ele>1225.60</ele>
	<time>2025-02-15T11:46:01.000Z</time>
</trkpt>
<trkpt lat="45.8567580" lon="9.1975500">
	<ele>1225.60</ele>
	<time>2025-02-15T11:46:02.000Z</time>
</trkpt>
<trkpt lat="45.8567560" lon="9.1975410">
	<ele>1225.60</ele>
	<time>2025-02-15T11:46:03.000Z</time>
</trkpt>
<trkpt lat="45.8567550" lon="9.1975400">
	<ele>1225.40</ele>
	<time>2025-02-15T11:46:04.000Z</time>
</trkpt>
<trkpt lat="45.8567540" lon="9.1975400">
	<ele>1225.40</ele>
	<time>2025-02-15T11:46:05.000Z</time>
</trkpt>
<trkpt lat="45.8567530" lon="9.1975390">
	<ele>1225.20</ele>
	<time>2025-02-15T11:46:06.000Z</time>
</trkpt>
<trkpt lat="45.8567520" lon="9.1975370">
	<ele>1225.20</ele>
	<time>2025-02-15T11:46:07.000Z</time>
</trkpt>
<trkpt lat="45.8567530" lon="9.1975370">
	<ele>1225.20</ele>
	<time>2025-02-15T11:46:08.000Z</time>
</trkpt>
<trkpt lat="45.8567520" lon="9.1975360">
	<ele>1225.20</ele>
	<time>2025-02-15T11:46:09.000Z</time>
</trkpt>
<trkpt lat="45.8567520" lon="9.1975330">
	<ele>1225.20</ele>
	<time>2025-02-15T11:46:10.000Z</time>
</trkpt>
<trkpt lat="45.8567500" lon="9.1975300">
	<ele>1225.20</ele>
	<time>2025-02-15T11:46:11.000Z</time>
</trkpt>
<trkpt lat="45.8567460" lon="9.1975250">
	<ele>1225.40</ele>
	<time>2025-02-15T11:46:12.000Z</time>
</trkpt>
<trkpt lat="45.8567450" lon="9.1975200">
	<ele>1225.40</ele>
	<time>2025-02-15T11:46:13.000Z</time>
</trkpt>
<trkpt lat="45.8567440" lon="9.1975180">
	<ele>1225.40</ele>
	<time>2025-02-15T11:46:14.000Z</time>
</trkpt>
<trkpt lat="45.8567450" lon="9.1975170">
	<ele>1225.40</ele>
	<time>2025-02-15T11:46:15.000Z</time>
</trkpt>
<trkpt lat="45.8567450" lon="9.1975170">
	<ele>1225.60</ele>
	<time>2025-02-15T11:46:16.000Z</time>
</trkpt>
<trkpt lat="45.8567450" lon="9.1975170">
	<ele>1225.60</ele>
	<time>2025-02-15T11:46:17.000Z</time>
</trkpt>
<trkpt lat="45.8567450" lon="9.1975170">
	<ele>1225.60</ele>
	<time>2025-02-15T11:46:18.000Z</time>
</trkpt>
<trkpt lat="45.8567450" lon="9.1975170">
	<ele>1225.60</ele>
	<time>2025-02-15T11:46:19.000Z</time>
</trkpt>
<trkpt lat="45.8567450" lon="9.1975170">
	<ele>1225.60</ele>
	<time>2025-02-15T11:46:20.000Z</time>
</trkpt>
<trkpt lat="45.8567450" lon="9.1975170">
	<ele>1225.60</ele>
	<time>2025-02-15T11:46:21.000Z</time>
</trkpt>
<trkpt lat="45.8567450" lon="9.1975170">
	<ele>1225.60</ele>
	<time>2025-02-15T11:46:22.000Z</time>
</trkpt>
<trkpt lat="45.8567450" lon="9.1975170">
	<ele>1225.60</ele>
	<time>2025-02-15T11:46:23.000Z</time>
</trkpt>
<trkpt lat="45.8567450" lon="9.1975170">
	<ele>1225.60</ele>
	<time>2025-02-15T11:46:24.000Z</time>
</trkpt>
<trkpt lat="45.8567450" lon="9.1975170">
	<ele>1225.80</ele>
	<time>2025-02-15T11:46:25.000Z</time>
</trkpt>
<trkpt lat="45.8567450" lon="9.1975170">
	<ele>1225.80</ele>
	<time>2025-02-15T11:46:26.000Z</time>
</trkpt>
<trkpt lat="45.8567450" lon="9.1975180">
	<ele>1225.80</ele>
	<time>2025-02-15T11:46:27.000Z</time>
</trkpt>
<trkpt lat="45.8567450" lon="9.1975180">
	<ele>1225.60</ele>
	<time>2025-02-15T11:46:28.000Z</time>
</trkpt>
<trkpt lat="45.8567450" lon="9.1975180">
	<ele>1225.60</ele>
	<time>2025-02-15T11:46:29.000Z</time>
</trkpt>
<trkpt lat="45.8567440" lon="9.1975180">
	<ele>1225.40</ele>
	<time>2025-02-15T11:46:30.000Z</time>
</trkpt>
<trkpt lat="45.8567430" lon="9.1975180">
	<ele>1225.40</ele>
	<time>2025-02-15T11:46:31.000Z</time>
</trkpt>
<trkpt lat="45.8567430" lon="9.1975180">
	<ele>1225.40</ele>
	<time>2025-02-15T11:46:32.000Z</time>
</trkpt>
<trkpt lat="45.8567420" lon="9.1975180">
	<ele>1225.40</ele>
	<time>2025-02-15T11:46:33.000Z</time>
</trkpt>
<trkpt lat="45.8567410" lon="9.1975180">
	<ele>1225.60</ele>
	<time>2025-02-15T11:46:34.000Z</time>
</trkpt>
<trkpt lat="45.8567410" lon="9.1975180">
	<ele>1225.60</ele>
	<time>2025-02-15T11:46:35.000Z</time>
</trkpt>
<trkpt lat="45.8567410" lon="9.1975180">
	<ele>1225.40</ele>
	<time>2025-02-15T11:46:36.000Z</time>
</trkpt>
<trkpt lat="45.8567410" lon="9.1975180">
	<ele>1225.40</ele>
	<time>2025-02-15T11:46:37.000Z</time>
</trkpt>
<trkpt lat="45.8567410" lon="9.1975180">
	<ele>1225.20</ele>
	<time>2025-02-15T11:46:38.000Z</time>
</trkpt>
<trkpt lat="45.8567400" lon="9.1975180">
	<ele>1224.80</ele>
	<time>2025-02-15T11:46:39.000Z</time>
</trkpt>
<trkpt lat="45.8567400" lon="9.1975180">
	<ele>1224.60</ele>
	<time>2025-02-15T11:46:40.000Z</time>
</trkpt>
<trkpt lat="45.8567380" lon="9.1975180">
	<ele>1224.40</ele>
	<time>2025-02-15T11:46:41.000Z</time>
</trkpt>
<trkpt lat="45.8567370" lon="9.1975180">
	<ele>1224.40</ele>
	<time>2025-02-15T11:46:42.000Z</time>
</trkpt>
<trkpt lat="45.8567370" lon="9.1975180">
	<ele>1224.20</ele>
	<time>2025-02-15T11:46:43.000Z</time>
</trkpt>
<trkpt lat="45.8567370" lon="9.1975190">
	<ele>1224.20</ele>
	<time>2025-02-15T11:46:44.000Z</time>
</trkpt>
<trkpt lat="45.8567360" lon="9.1975190">
	<ele>1224.00</ele>
	<time>2025-02-15T11:46:45.000Z</time>
</trkpt>
<trkpt lat="45.8567320" lon="9.1975190">
	<ele>1224.00</ele>
	<time>2025-02-15T11:46:46.000Z</time>
</trkpt>
<trkpt lat="45.8567300" lon="9.1975190">
	<ele>1224.00</ele>
	<time>2025-02-15T11:46:47.000Z</time>
</trkpt>
<trkpt lat="45.8567280" lon="9.1975190">
	<ele>1224.00</ele>
	<time>2025-02-15T11:46:48.000Z</time>
</trkpt>
<trkpt lat="45.8567260" lon="9.1975190">
	<ele>1224.00</ele>
	<time>2025-02-15T11:46:49.000Z</time>
</trkpt>
<trkpt lat="45.8567250" lon="9.1975190">
	<ele>1224.20</ele>
	<time>2025-02-15T11:46:50.000Z</time>
</trkpt>
<trkpt lat="45.8567240" lon="9.1975220">
	<ele>1224.20</ele>
	<time>2025-02-15T11:46:51.000Z</time>
</trkpt>
<trkpt lat="45.8567240" lon="9.1975260">
	<ele>1224.20</ele>
	<time>2025-02-15T11:46:52.000Z</time>
</trkpt>
<trkpt lat="45.8567230" lon="9.1975310">
	<ele>1224.40</ele>
	<time>2025-02-15T11:46:53.000Z</time>
</trkpt>
<trkpt lat="45.8567230" lon="9.1975330">
	<ele>1224.40</ele>
	<time>2025-02-15T11:46:54.000Z</time>
</trkpt>
<trkpt lat="45.8567230" lon="9.1975340">
	<ele>1224.40</ele>
	<time>2025-02-15T11:46:55.000Z</time>
</trkpt>
<trkpt lat="45.8567230" lon="9.1975340">
	<ele>1224.40</ele>
	<time>2025-02-15T11:46:56.000Z</time>
</trkpt>
<trkpt lat="45.8567230" lon="9.1975340">
	<ele>1224.40</ele>
	<time>2025-02-15T11:46:57.000Z</time>
</trkpt>
<trkpt lat="45.8567230" lon="9.1975340">
	<ele>1224.40</ele>
	<time>2025-02-15T11:46:58.000Z</time>
</trkpt>
<trkpt lat="45.8567220" lon="9.1975340">
	<ele>1224.40</ele>
	<time>2025-02-15T11:46:59.000Z</time>
</trkpt>
<trkpt lat="45.8567220" lon="9.1975340">
	<ele>1224.40</ele>
	<time>2025-02-15T11:47:00.000Z</time>
</trkpt>
<trkpt lat="45.8567220" lon="9.1975340">
	<ele>1224.40</ele>
	<time>2025-02-15T11:47:01.000Z</time>
</trkpt>
<trkpt lat="45.8567220" lon="9.1975340">
	<ele>1224.40</ele>
	<time>2025-02-15T11:47:02.000Z</time>
</trkpt>
<trkpt lat="45.8567220" lon="9.1975340">
	<ele>1224.40</ele>
	<time>2025-02-15T11:47:03.000Z</time>
</trkpt>
<trkpt lat="45.8567220" lon="9.1975340">
	<ele>1224.40</ele>
	<time>2025-02-15T11:47:04.000Z</time>
</trkpt>
<trkpt lat="45.8567220" lon="9.1975340">
	<ele>1224.40</ele>
	<time>2025-02-15T11:47:05.000Z</time>
</trkpt>
<trkpt lat="45.8567210" lon="9.1975350">
	<ele>1224.20</ele>
	<time>2025-02-15T11:47:06.000Z</time>
</trkpt>
<trkpt lat="45.8567210" lon="9.1975350">
	<ele>1224.20</ele>
	<time>2025-02-15T11:47:07.000Z</time>
</trkpt>
<trkpt lat="45.8567210" lon="9.1975350">
	<ele>1224.20</ele>
	<time>2025-02-15T11:47:08.000Z</time>
</trkpt>
<trkpt lat="45.8567210" lon="9.1975350">
	<ele>1224.20</ele>
	<time>2025-02-15T11:47:09.000Z</time>
</trkpt>
<trkpt lat="45.8567200" lon="9.1975340">
	<ele>1224.20</ele>
	<time>2025-02-15T11:47:10.000Z</time>
</trkpt>
<trkpt lat="45.8567190" lon="9.1975340">
	<ele>1224.20</ele>
	<time>2025-02-15T11:47:11.000Z</time>
</trkpt>
<trkpt lat="45.8567190" lon="9.1975340">
	<ele>1224.20</ele>
	<time>2025-02-15T11:47:12.000Z</time>
</trkpt>
<trkpt lat="45.8567190" lon="9.1975340">
	<ele>1224.20</ele>
	<time>2025-02-15T11:47:13.000Z</time>
</trkpt>
<trkpt lat="45.8567190" lon="9.1975340">
	<ele>1224.40</ele>
	<time>2025-02-15T11:47:14.000Z</time>
</trkpt>
<trkpt lat="45.8567190" lon="9.1975340">
	<ele>1224.40</ele>
	<time>2025-02-15T11:47:15.000Z</time>
</trkpt>
<trkpt lat="45.8567190" lon="9.1975340">
	<ele>1224.40</ele>
	<time>2025-02-15T11:47:16.000Z</time>
</trkpt>
<trkpt lat="45.8567190" lon="9.1975330">
	<ele>1224.40</ele>
	<time>2025-02-15T11:47:17.000Z</time>
</trkpt>
<trkpt lat="45.8567190" lon="9.1975330">
	<ele>1224.40</ele>
	<time>2025-02-15T11:47:18.000Z</time>
</trkpt>
<trkpt lat="45.8567190" lon="9.1975330">
	<ele>1224.40</ele>
	<time>2025-02-15T11:47:19.000Z</time>
</trkpt>
<trkpt lat="45.8567180" lon="9.1975330">
	<ele>1224.40</ele>
	<time>2025-02-15T11:47:20.000Z</time>
</trkpt>
<trkpt lat="45.8567170" lon="9.1975320">
	<ele>1224.20</ele>
	<time>2025-02-15T11:47:21.000Z</time>
</trkpt>
<trkpt lat="45.8567170" lon="9.1975320">
	<ele>1224.20</ele>
	<time>2025-02-15T11:47:22.000Z</time>
</trkpt>
<trkpt lat="45.8567170" lon="9.1975290">
	<ele>1224.20</ele>
	<time>2025-02-15T11:47:23.000Z</time>
</trkpt>
<trkpt lat="45.8567170" lon="9.1975260">
	<ele>1224.00</ele>
	<time>2025-02-15T11:47:24.000Z</time>
</trkpt>
<trkpt lat="45.8567170" lon="9.1975230">
	<ele>1223.80</ele>
	<time>2025-02-15T11:47:25.000Z</time>
</trkpt>
<trkpt lat="45.8567170" lon="9.1975210">
	<ele>1223.80</ele>
	<time>2025-02-15T11:47:26.000Z</time>
</trkpt>
<trkpt lat="45.8567170" lon="9.1975190">
	<ele>1223.80</ele>
	<time>2025-02-15T11:47:27.000Z</time>
</trkpt>
<trkpt lat="45.8567170" lon="9.1975190">
	<ele>1223.60</ele>
	<time>2025-02-15T11:47:28.000Z</time>
</trkpt>
<trkpt lat="45.8567170" lon="9.1975190">
	<ele>1223.60</ele>
	<time>2025-02-15T11:47:29.000Z</time>
</trkpt>
<trkpt lat="45.8567170" lon="9.1975190">
	<ele>1223.60</ele>
	<time>2025-02-15T11:47:30.000Z</time>
</trkpt>
<trkpt lat="45.8567160" lon="9.1975190">
	<ele>1223.60</ele>
	<time>2025-02-15T11:47:31.000Z</time>
</trkpt>
<trkpt lat="45.8567160" lon="9.1975190">
	<ele>1223.40</ele>
	<time>2025-02-15T11:47:32.000Z</time>
</trkpt>
<trkpt lat="45.8567170" lon="9.1975190">
	<ele>1223.40</ele>
	<time>2025-02-15T11:47:33.000Z</time>
</trkpt>
<trkpt lat="45.8567170" lon="9.1975190">
	<ele>1223.00</ele>
	<time>2025-02-15T11:47:34.000Z</time>
</trkpt>
<trkpt lat="45.8567170" lon="9.1975190">
	<ele>1222.80</ele>
	<time>2025-02-15T11:47:35.000Z</time>
</trkpt>
<trkpt lat="45.8567170" lon="9.1975190">
	<ele>1222.60</ele>
	<time>2025-02-15T11:47:36.000Z</time>
</trkpt>
<trkpt lat="45.8567180" lon="9.1975190">
	<ele>1222.40</ele>
	<time>2025-02-15T11:47:37.000Z</time>
</trkpt>
<trkpt lat="45.8567180" lon="9.1975190">
	<ele>1222.20</ele>
	<time>2025-02-15T11:47:38.000Z</time>
</trkpt>
<trkpt lat="45.8567190" lon="9.1975190">
	<ele>1222.20</ele>
	<time>2025-02-15T11:47:39.000Z</time>
</trkpt>
<trkpt lat="45.8567190" lon="9.1975190">
	<ele>1222.20</ele>
	<time>2025-02-15T11:47:40.000Z</time>
</trkpt>
<trkpt lat="45.8567190" lon="9.1975190">
	<ele>1222.20</ele>
	<time>2025-02-15T11:47:41.000Z</time>
</trkpt>
<trkpt lat="45.8567190" lon="9.1975190">
	<ele>1222.00</ele>
	<time>2025-02-15T11:47:42.000Z</time>
</trkpt>
<trkpt lat="45.8567190" lon="9.1975250">
	<ele>1221.80</ele>
	<time>2025-02-15T11:47:43.000Z</time>
</trkpt>
<trkpt lat="45.8567180" lon="9.1975300">
	<ele>1221.40</ele>
	<time>2025-02-15T11:47:44.000Z</time>
</trkpt>
<trkpt lat="45.8567180" lon="9.1975360">
	<ele>1221.00</ele>
	<time>2025-02-15T11:47:45.000Z</time>
</trkpt>
<trkpt lat="45.8567170" lon="9.1975440">
	<ele>1220.80</ele>
	<time>2025-02-15T11:47:46.000Z</time>
</trkpt>
<trkpt lat="45.8567150" lon="9.1975550">
	<ele>1220.60</ele>
	<time>2025-02-15T11:47:47.000Z</time>
</trkpt>
<trkpt lat="45.8567160" lon="9.1975760">
	<ele>1220.20</ele>
	<time>2025-02-15T11:47:48.000Z</time>
</trkpt>
<trkpt lat="45.8567120" lon="9.1975960">
	<ele>1220.00</ele>
	<time>2025-02-15T11:47:49.000Z</time>
</trkpt>
<trkpt lat="45.8567050" lon="9.1976190">
	<ele>1219.80</ele>
	<time>2025-02-15T11:47:50.000Z</time>
</trkpt>
<trkpt lat="45.8566990" lon="9.1976400">
	<ele>1219.60</ele>
	<time>2025-02-15T11:47:51.000Z</time>
</trkpt>
<trkpt lat="45.8566950" lon="9.1976610">
	<ele>1219.60</ele>
	<time>2025-02-15T11:47:52.000Z</time>
</trkpt>
<trkpt lat="45.8566960" lon="9.1976840">
	<ele>1219.40</ele>
	<time>2025-02-15T11:47:53.000Z</time>
</trkpt>
<trkpt lat="45.8566980" lon="9.1977060">
	<ele>1219.20</ele>
	<time>2025-02-15T11:47:54.000Z</time>
</trkpt>
<trkpt lat="45.8566980" lon="9.1977270">
	<ele>1219.00</ele>
	<time>2025-02-15T11:47:55.000Z</time>
</trkpt>
<trkpt lat="45.8566970" lon="9.1977420">
	<ele>1218.60</ele>
	<time>2025-02-15T11:47:56.000Z</time>
</trkpt>
<trkpt lat="45.8567000" lon="9.1977510">
	<ele>1218.40</ele>
	<time>2025-02-15T11:47:57.000Z</time>
</trkpt>
<trkpt lat="45.8567080" lon="9.1977620">
	<ele>1218.20</ele>
	<time>2025-02-15T11:47:58.000Z</time>
</trkpt>
<trkpt lat="45.8567080" lon="9.1977740">
	<ele>1218.20</ele>
	<time>2025-02-15T11:47:59.000Z</time>
</trkpt>
<trkpt lat="45.8567060" lon="9.1977830">
	<ele>1218.00</ele>
	<time>2025-02-15T11:48:00.000Z</time>
</trkpt>
<trkpt lat="45.8567070" lon="9.1977920">
	<ele>1218.00</ele>
	<time>2025-02-15T11:48:01.000Z</time>
</trkpt>
<trkpt lat="45.8567140" lon="9.1978020">
	<ele>1218.00</ele>
	<time>2025-02-15T11:48:02.000Z</time>
</trkpt>
<trkpt lat="45.8567200" lon="9.1978120">
	<ele>1218.00</ele>
	<time>2025-02-15T11:48:03.000Z</time>
</trkpt>
<trkpt lat="45.8567230" lon="9.1978250">
	<ele>1217.80</ele>
	<time>2025-02-15T11:48:04.000Z</time>
</trkpt>
<trkpt lat="45.8567300" lon="9.1978350">
	<ele>1217.40</ele>
	<time>2025-02-15T11:48:05.000Z</time>
</trkpt>
<trkpt lat="45.8567380" lon="9.1978470">
	<ele>1217.20</ele>
	<time>2025-02-15T11:48:06.000Z</time>
</trkpt>
<trkpt lat="45.8567380" lon="9.1978600">
	<ele>1217.00</ele>
	<time>2025-02-15T11:48:07.000Z</time>
</trkpt>
<trkpt lat="45.8567380" lon="9.1978660">
	<ele>1217.00</ele>
	<time>2025-02-15T11:48:08.000Z</time>
</trkpt>
<trkpt lat="45.8567230" lon="9.1978690">
	<ele>1216.80</ele>
	<time>2025-02-15T11:48:09.000Z</time>
</trkpt>
<trkpt lat="45.8567250" lon="9.1978710">
	<ele>1216.80</ele>
	<time>2025-02-15T11:48:10.000Z</time>
</trkpt>
<trkpt lat="45.8567240" lon="9.1978740">
	<ele>1216.60</ele>
	<time>2025-02-15T11:48:11.000Z</time>
</trkpt>
<trkpt lat="45.8567320" lon="9.1978900">
	<ele>1216.40</ele>
	<time>2025-02-15T11:48:12.000Z</time>
</trkpt>
<trkpt lat="45.8567330" lon="9.1979100">
	<ele>1216.40</ele>
	<time>2025-02-15T11:48:13.000Z</time>
</trkpt>
<trkpt lat="45.8567300" lon="9.1979120">
	<ele>1216.40</ele>
	<time>2025-02-15T11:48:14.000Z</time>
</trkpt>
<trkpt lat="45.8567240" lon="9.1979260">
	<ele>1216.40</ele>
	<time>2025-02-15T11:48:15.000Z</time>
</trkpt>
<trkpt lat="45.8567180" lon="9.1979530">
	<ele>1216.40</ele>
	<time>2025-02-15T11:48:16.000Z</time>
</trkpt>
<trkpt lat="45.8567250" lon="9.1979680">
	<ele>1216.20</ele>
	<time>2025-02-15T11:48:17.000Z</time>
</trkpt>
<trkpt lat="45.8567260" lon="9.1979750">
	<ele>1215.80</ele>
	<time>2025-02-15T11:48:18.000Z</time>
</trkpt>
<trkpt lat="45.8567260" lon="9.1979720">
	<ele>1215.40</ele>
	<time>2025-02-15T11:48:19.000Z</time>
</trkpt>
<trkpt lat="45.8567240" lon="9.1979680">
	<ele>1214.80</ele>
	<time>2025-02-15T11:48:20.000Z</time>
</trkpt>
<trkpt lat="45.8567150" lon="9.1979700">
	<ele>1214.60</ele>
	<time>2025-02-15T11:48:21.000Z</time>
</trkpt>
<trkpt lat="45.8566960" lon="9.1979680">
	<ele>1214.20</ele>
	<time>2025-02-15T11:48:22.000Z</time>
</trkpt>
<trkpt lat="45.8566910" lon="9.1979650">
	<ele>1214.00</ele>
	<time>2025-02-15T11:48:23.000Z</time>
</trkpt>
<trkpt lat="45.8567000" lon="9.1979690">
	<ele>1213.80</ele>
	<time>2025-02-15T11:48:24.000Z</time>
</trkpt>
<trkpt lat="45.8567000" lon="9.1979660">
	<ele>1213.80</ele>
	<time>2025-02-15T11:48:25.000Z</time>
</trkpt>
<trkpt lat="45.8566940" lon="9.1979490">
	<ele>1213.60</ele>
	<time>2025-02-15T11:48:26.000Z</time>
</trkpt>
<trkpt lat="45.8566870" lon="9.1979320">
	<ele>1213.60</ele>
	<time>2025-02-15T11:48:27.000Z</time>
</trkpt>
<trkpt lat="45.8566870" lon="9.1979280">
	<ele>1213.20</ele>
	<time>2025-02-15T11:48:28.000Z</time>
</trkpt>
<trkpt lat="45.8566850" lon="9.1979230">
	<ele>1213.00</ele>
	<time>2025-02-15T11:48:29.000Z</time>
</trkpt>
<trkpt lat="45.8566890" lon="9.1979250">
	<ele>1212.80</ele>
	<time>2025-02-15T11:48:30.000Z</time>
</trkpt>
<trkpt lat="45.8566860" lon="9.1979210">
	<ele>1212.60</ele>
	<time>2025-02-15T11:48:31.000Z</time>
</trkpt>
<trkpt lat="45.8566760" lon="9.1979160">
	<ele>1212.60</ele>
	<time>2025-02-15T11:48:32.000Z</time>
</trkpt>
<trkpt lat="45.8566770" lon="9.1979180">
	<ele>1212.20</ele>
	<time>2025-02-15T11:48:33.000Z</time>
</trkpt>
<trkpt lat="45.8566710" lon="9.1979170">
	<ele>1212.00</ele>
	<time>2025-02-15T11:48:34.000Z</time>
</trkpt>
<trkpt lat="45.8566670" lon="9.1979170">
	<ele>1211.80</ele>
	<time>2025-02-15T11:48:35.000Z</time>
</trkpt>
<trkpt lat="45.8566630" lon="9.1979160">
	<ele>1211.60</ele>
	<time>2025-02-15T11:48:36.000Z</time>
</trkpt>
<trkpt lat="45.8566600" lon="9.1979090">
	<ele>1211.40</ele>
	<time>2025-02-15T11:48:37.000Z</time>
</trkpt>
<trkpt lat="45.8566540" lon="9.1978990">
	<ele>1211.20</ele>
	<time>2025-02-15T11:48:38.000Z</time>
</trkpt>
<trkpt lat="45.8566460" lon="9.1978900">
	<ele>1211.20</ele>
	<time>2025-02-15T11:48:39.000Z</time>
</trkpt>
<trkpt lat="45.8566410" lon="9.1978860">
	<ele>1210.80</ele>
	<time>2025-02-15T11:48:40.000Z</time>
</trkpt>
<trkpt lat="45.8566390" lon="9.1978830">
	<ele>1210.60</ele>
	<time>2025-02-15T11:48:41.000Z</time>
</trkpt>
<trkpt lat="45.8566400" lon="9.1978840">
	<ele>1210.60</ele>
	<time>2025-02-15T11:48:42.000Z</time>
</trkpt>
<trkpt lat="45.8566380" lon="9.1978850">
	<ele>1210.60</ele>
	<time>2025-02-15T11:48:43.000Z</time>
</trkpt>
<trkpt lat="45.8566340" lon="9.1978740">
	<ele>1210.40</ele>
	<time>2025-02-15T11:48:44.000Z</time>
</trkpt>
<trkpt lat="45.8566250" lon="9.1978650">
	<ele>1210.20</ele>
	<time>2025-02-15T11:48:45.000Z</time>
</trkpt>
<trkpt lat="45.8566190" lon="9.1978570">
	<ele>1210.00</ele>
	<time>2025-02-15T11:48:46.000Z</time>
</trkpt>
<trkpt lat="45.8566080" lon="9.1978610">
	<ele>1209.80</ele>
	<time>2025-02-15T11:48:47.000Z</time>
</trkpt>
<trkpt lat="45.8565970" lon="9.1978550">
	<ele>1209.80</ele>
	<time>2025-02-15T11:48:48.000Z</time>
</trkpt>
<trkpt lat="45.8565840" lon="9.1978510">
	<ele>1209.60</ele>
	<time>2025-02-15T11:48:49.000Z</time>
</trkpt>
<trkpt lat="45.8565770" lon="9.1978440">
	<ele>1209.60</ele>
	<time>2025-02-15T11:48:50.000Z</time>
</trkpt>
<trkpt lat="45.8565740" lon="9.1978430">
	<ele>1209.60</ele>
	<time>2025-02-15T11:48:51.000Z</time>
</trkpt>
<trkpt lat="45.8565680" lon="9.1978440">
	<ele>1209.40</ele>
	<time>2025-02-15T11:48:52.000Z</time>
</trkpt>
<trkpt lat="45.8565620" lon="9.1978410">
	<ele>1209.40</ele>
	<time>2025-02-15T11:48:53.000Z</time>
</trkpt>
<trkpt lat="45.8565570" lon="9.1978330">
	<ele>1209.00</ele>
	<time>2025-02-15T11:48:54.000Z</time>
</trkpt>
<trkpt lat="45.8565570" lon="9.1978290">
	<ele>1209.00</ele>
	<time>2025-02-15T11:48:55.000Z</time>
</trkpt>
<trkpt lat="45.8565580" lon="9.1978250">
	<ele>1208.80</ele>
	<time>2025-02-15T11:48:56.000Z</time>
</trkpt>
<trkpt lat="45.8565590" lon="9.1978240">
	<ele>1208.60</ele>
	<time>2025-02-15T11:48:57.000Z</time>
</trkpt>
<trkpt lat="45.8565600" lon="9.1978200">
	<ele>1208.60</ele>
	<time>2025-02-15T11:48:58.000Z</time>
</trkpt>
<trkpt lat="45.8565640" lon="9.1978170">
	<ele>1208.60</ele>
	<time>2025-02-15T11:48:59.000Z</time>
</trkpt>
<trkpt lat="45.8565650" lon="9.1978150">
	<ele>1208.60</ele>
	<time>2025-02-15T11:49:00.000Z</time>
</trkpt>
<trkpt lat="45.8565680" lon="9.1978130">
	<ele>1208.60</ele>
	<time>2025-02-15T11:49:01.000Z</time>
</trkpt>
<trkpt lat="45.8565710" lon="9.1978130">
	<ele>1208.60</ele>
	<time>2025-02-15T11:49:02.000Z</time>
</trkpt>
<trkpt lat="45.8565710" lon="9.1978140">
	<ele>1208.60</ele>
	<time>2025-02-15T11:49:03.000Z</time>
</trkpt>
<trkpt lat="45.8565710" lon="9.1978140">
	<ele>1208.60</ele>
	<time>2025-02-15T11:49:04.000Z</time>
</trkpt>
<trkpt lat="45.8565710" lon="9.1978140">
	<ele>1208.60</ele>
	<time>2025-02-15T11:49:05.000Z</time>
</trkpt>
<trkpt lat="45.8565710" lon="9.1978140">
	<ele>1208.60</ele>
	<time>2025-02-15T11:49:06.000Z</time>
</trkpt>
<trkpt lat="45.8565710" lon="9.1978140">
	<ele>1208.60</ele>
	<time>2025-02-15T11:49:07.000Z</time>
</trkpt>
<trkpt lat="45.8565710" lon="9.1978140">
	<ele>1208.40</ele>
	<time>2025-02-15T11:49:08.000Z</time>
</trkpt>
<trkpt lat="45.8565710" lon="9.1978140">
	<ele>1208.40</ele>
	<time>2025-02-15T11:49:09.000Z</time>
</trkpt>
<trkpt lat="45.8565710" lon="9.1978140">
	<ele>1208.40</ele>
	<time>2025-02-15T11:49:10.000Z</time>
</trkpt>
<trkpt lat="45.8565710" lon="9.1978140">
	<ele>1208.20</ele>
	<time>2025-02-15T11:49:11.000Z</time>
</trkpt>
<trkpt lat="45.8565690" lon="9.1978140">
	<ele>1208.20</ele>
	<time>2025-02-15T11:49:12.000Z</time>
</trkpt>
<trkpt lat="45.8565680" lon="9.1978140">
	<ele>1208.20</ele>
	<time>2025-02-15T11:49:13.000Z</time>
</trkpt>
<trkpt lat="45.8565680" lon="9.1978140">
	<ele>1208.20</ele>
	<time>2025-02-15T11:49:14.000Z</time>
</trkpt>
<trkpt lat="45.8565650" lon="9.1978140">
	<ele>1208.20</ele>
	<time>2025-02-15T11:49:15.000Z</time>
</trkpt>
<trkpt lat="45.8565640" lon="9.1978140">
	<ele>1208.20</ele>
	<time>2025-02-15T11:49:16.000Z</time>
</trkpt>
<trkpt lat="45.8565630" lon="9.1978140">
	<ele>1208.00</ele>
	<time>2025-02-15T11:49:17.000Z</time>
</trkpt>
<trkpt lat="45.8565610" lon="9.1978140">
	<ele>1207.80</ele>
	<time>2025-02-15T11:49:18.000Z</time>
</trkpt>
<trkpt lat="45.8565590" lon="9.1978130">
	<ele>1207.60</ele>
	<time>2025-02-15T11:49:19.000Z</time>
</trkpt>
<trkpt lat="45.8565520" lon="9.1978030">
	<ele>1207.40</ele>
	<time>2025-02-15T11:49:20.000Z</time>
</trkpt>
<trkpt lat="45.8565400" lon="9.1977910">
	<ele>1207.00</ele>
	<time>2025-02-15T11:49:21.000Z</time>
</trkpt>
<trkpt lat="45.8565350" lon="9.1977730">
	<ele>1207.00</ele>
	<time>2025-02-15T11:49:22.000Z</time>
</trkpt>
<trkpt lat="45.8565230" lon="9.1977550">
	<ele>1206.80</ele>
	<time>2025-02-15T11:49:23.000Z</time>
</trkpt>
<trkpt lat="45.8565050" lon="9.1977350">
	<ele>1206.80</ele>
	<time>2025-02-15T11:49:24.000Z</time>
</trkpt>
<trkpt lat="45.8564900" lon="9.1977220">
	<ele>1206.80</ele>
	<time>2025-02-15T11:49:25.000Z</time>
</trkpt>
<trkpt lat="45.8564740" lon="9.1977030">
	<ele>1206.60</ele>
	<time>2025-02-15T11:49:26.000Z</time>
</trkpt>
<trkpt lat="45.8564650" lon="9.1976860">
	<ele>1206.40</ele>
	<time>2025-02-15T11:49:27.000Z</time>
</trkpt>
<trkpt lat="45.8564570" lon="9.1976740">
	<ele>1206.40</ele>
	<time>2025-02-15T11:49:28.000Z</time>
</trkpt>
<trkpt lat="45.8564450" lon="9.1976620">
	<ele>1205.80</ele>
	<time>2025-02-15T11:49:29.000Z</time>
</trkpt>
<trkpt lat="45.8564410" lon="9.1976630">
	<ele>1205.60</ele>
	<time>2025-02-15T11:49:30.000Z</time>
</trkpt>
<trkpt lat="45.8564410" lon="9.1976620">
	<ele>1205.40</ele>
	<time>2025-02-15T11:49:31.000Z</time>
</trkpt>
<trkpt lat="45.8564480" lon="9.1976510">
	<ele>1205.20</ele>
	<time>2025-02-15T11:49:32.000Z</time>
</trkpt>
<trkpt lat="45.8564480" lon="9.1976410">
	<ele>1205.00</ele>
	<time>2025-02-15T11:49:33.000Z</time>
</trkpt>
<trkpt lat="45.8564350" lon="9.1976390">
	<ele>1205.00</ele>
	<time>2025-02-15T11:49:34.000Z</time>
</trkpt>
<trkpt lat="45.8564230" lon="9.1976320">
	<ele>1205.00</ele>
	<time>2025-02-15T11:49:35.000Z</time>
</trkpt>
<trkpt lat="45.8564030" lon="9.1976190">
	<ele>1204.60</ele>
	<time>2025-02-15T11:49:36.000Z</time>
</trkpt>
<trkpt lat="45.8563860" lon="9.1976100">
	<ele>1204.40</ele>
	<time>2025-02-15T11:49:37.000Z</time>
</trkpt>
<trkpt lat="45.8563840" lon="9.1976000">
	<ele>1204.20</ele>
	<time>2025-02-15T11:49:38.000Z</time>
</trkpt>
<trkpt lat="45.8563880" lon="9.1975970">
	<ele>1204.00</ele>
	<time>2025-02-15T11:49:39.000Z</time>
</trkpt>
<trkpt lat="45.8563870" lon="9.1975930">
	<ele>1203.80</ele>
	<time>2025-02-15T11:49:40.000Z</time>
</trkpt>
<trkpt lat="45.8563720" lon="9.1975920">
	<ele>1203.40</ele>
	<time>2025-02-15T11:49:41.000Z</time>
</trkpt>
<trkpt lat="45.8563540" lon="9.1975940">
	<ele>1203.40</ele>
	<time>2025-02-15T11:49:42.000Z</time>
</trkpt>
<trkpt lat="45.8563500" lon="9.1975920">
	<ele>1203.20</ele>
	<time>2025-02-15T11:49:43.000Z</time>
</trkpt>
<trkpt lat="45.8563450" lon="9.1975900">
	<ele>1203.20</ele>
	<time>2025-02-15T11:49:44.000Z</time>
</trkpt>
<trkpt lat="45.8563470" lon="9.1975770">
	<ele>1203.00</ele>
	<time>2025-02-15T11:49:45.000Z</time>
</trkpt>
<trkpt lat="45.8563330" lon="9.1975610">
	<ele>1203.00</ele>
	<time>2025-02-15T11:49:46.000Z</time>
</trkpt>
<trkpt lat="45.8563330" lon="9.1975590">
	<ele>1202.80</ele>
	<time>2025-02-15T11:49:47.000Z</time>
</trkpt>
<trkpt lat="45.8563350" lon="9.1975510">
	<ele>1202.60</ele>
	<time>2025-02-15T11:49:48.000Z</time>
</trkpt>
<trkpt lat="45.8563320" lon="9.1975460">
	<ele>1202.40</ele>
	<time>2025-02-15T11:49:49.000Z</time>
</trkpt>
<trkpt lat="45.8563250" lon="9.1975400">
	<ele>1202.20</ele>
	<time>2025-02-15T11:49:50.000Z</time>
</trkpt>
<trkpt lat="45.8563100" lon="9.1975330">
	<ele>1202.20</ele>
	<time>2025-02-15T11:49:51.000Z</time>
</trkpt>
<trkpt lat="45.8562930" lon="9.1975290">
	<ele>1202.20</ele>
	<time>2025-02-15T11:49:52.000Z</time>
</trkpt>
<trkpt lat="45.8562820" lon="9.1975230">
	<ele>1202.00</ele>
	<time>2025-02-15T11:49:53.000Z</time>
</trkpt>
<trkpt lat="45.8562770" lon="9.1975230">
	<ele>1202.00</ele>
	<time>2025-02-15T11:49:54.000Z</time>
</trkpt>
<trkpt lat="45.8562660" lon="9.1975210">
	<ele>1201.60</ele>
	<time>2025-02-15T11:49:55.000Z</time>
</trkpt>
<trkpt lat="45.8562510" lon="9.1975210">
	<ele>1201.40</ele>
	<time>2025-02-15T11:49:56.000Z</time>
</trkpt>
<trkpt lat="45.8562350" lon="9.1975150">
	<ele>1201.20</ele>
	<time>2025-02-15T11:49:57.000Z</time>
</trkpt>
<trkpt lat="45.8562190" lon="9.1975140">
	<ele>1200.60</ele>
	<time>2025-02-15T11:49:58.000Z</time>
</trkpt>
<trkpt lat="45.8561990" lon="9.1975120">
	<ele>1200.40</ele>
	<time>2025-02-15T11:49:59.000Z</time>
</trkpt>
<trkpt lat="45.8561810" lon="9.1975090">
	<ele>1200.00</ele>
	<time>2025-02-15T11:50:00.000Z</time>
</trkpt>
<trkpt lat="45.8561650" lon="9.1975110">
	<ele>1199.80</ele>
	<time>2025-02-15T11:50:01.000Z</time>
</trkpt>
<trkpt lat="45.8561580" lon="9.1975130">
	<ele>1199.40</ele>
	<time>2025-02-15T11:50:02.000Z</time>
</trkpt>
<trkpt lat="45.8561450" lon="9.1975120">
	<ele>1199.40</ele>
	<time>2025-02-15T11:50:03.000Z</time>
</trkpt>
<trkpt lat="45.8561340" lon="9.1975120">
	<ele>1198.80</ele>
	<time>2025-02-15T11:50:04.000Z</time>
</trkpt>
<trkpt lat="45.8561160" lon="9.1975100">
	<ele>1198.40</ele>
	<time>2025-02-15T11:50:05.000Z</time>
</trkpt>
<trkpt lat="45.8560920" lon="9.1975150">
	<ele>1198.40</ele>
	<time>2025-02-15T11:50:06.000Z</time>
</trkpt>
<trkpt lat="45.8560770" lon="9.1975170">
	<ele>1198.20</ele>
	<time>2025-02-15T11:50:07.000Z</time>
</trkpt>
<trkpt lat="45.8560700" lon="9.1975100">
	<ele>1198.00</ele>
	<time>2025-02-15T11:50:08.000Z</time>
</trkpt>
<trkpt lat="45.8560620" lon="9.1975050">
	<ele>1198.00</ele>
	<time>2025-02-15T11:50:09.000Z</time>
</trkpt>
<trkpt lat="45.8560500" lon="9.1974970">
	<ele>1197.80</ele>
	<time>2025-02-15T11:50:10.000Z</time>
</trkpt>
<trkpt lat="45.8560420" lon="9.1974900">
	<ele>1197.80</ele>
	<time>2025-02-15T11:50:11.000Z</time>
</trkpt>
<trkpt lat="45.8560460" lon="9.1974790">
	<ele>1197.60</ele>
	<time>2025-02-15T11:50:12.000Z</time>
</trkpt>
<trkpt lat="45.8560550" lon="9.1974630">
	<ele>1197.60</ele>
	<time>2025-02-15T11:50:13.000Z</time>
</trkpt>
<trkpt lat="45.8560630" lon="9.1974470">
	<ele>1197.60</ele>
	<time>2025-02-15T11:50:14.000Z</time>
</trkpt>
<trkpt lat="45.8560710" lon="9.1974340">
	<ele>1197.60</ele>
	<time>2025-02-15T11:50:15.000Z</time>
</trkpt>
<trkpt lat="45.8560630" lon="9.1974340">
	<ele>1197.20</ele>
	<time>2025-02-15T11:50:16.000Z</time>
</trkpt>
<trkpt lat="45.8560470" lon="9.1974310">
	<ele>1197.20</ele>
	<time>2025-02-15T11:50:17.000Z</time>
</trkpt>
<trkpt lat="45.8560390" lon="9.1974220">
	<ele>1197.20</ele>
	<time>2025-02-15T11:50:18.000Z</time>
</trkpt>
<trkpt lat="45.8560290" lon="9.1974040">
	<ele>1197.20</ele>
	<time>2025-02-15T11:50:19.000Z</time>
</trkpt>
<trkpt lat="45.8560200" lon="9.1973920">
	<ele>1197.00</ele>
	<time>2025-02-15T11:50:20.000Z</time>
</trkpt>
<trkpt lat="45.8560060" lon="9.1973950">
	<ele>1196.80</ele>
	<time>2025-02-15T11:50:21.000Z</time>
</trkpt>
<trkpt lat="45.8559890" lon="9.1973920">
	<ele>1196.60</ele>
	<time>2025-02-15T11:50:22.000Z</time>
</trkpt>
<trkpt lat="45.8559800" lon="9.1973780">
	<ele>1196.20</ele>
	<time>2025-02-15T11:50:23.000Z</time>
</trkpt>
<trkpt lat="45.8559770" lon="9.1973670">
	<ele>1195.80</ele>
	<time>2025-02-15T11:50:24.000Z</time>
</trkpt>
<trkpt lat="45.8559640" lon="9.1973590">
	<ele>1195.60</ele>
	<time>2025-02-15T11:50:25.000Z</time>
</trkpt>
<trkpt lat="45.8559460" lon="9.1973530">
	<ele>1195.40</ele>
	<time>2025-02-15T11:50:26.000Z</time>
</trkpt>
<trkpt lat="45.8559450" lon="9.1973480">
	<ele>1195.20</ele>
	<time>2025-02-15T11:50:27.000Z</time>
</trkpt>
<trkpt lat="45.8559370" lon="9.1973430">
	<ele>1195.00</ele>
	<time>2025-02-15T11:50:28.000Z</time>
</trkpt>
<trkpt lat="45.8559280" lon="9.1973390">
	<ele>1195.00</ele>
	<time>2025-02-15T11:50:29.000Z</time>
</trkpt>
<trkpt lat="45.8559250" lon="9.1973340">
	<ele>1195.00</ele>
	<time>2025-02-15T11:50:30.000Z</time>
</trkpt>
<trkpt lat="45.8559190" lon="9.1973260">
	<ele>1194.80</ele>
	<time>2025-02-15T11:50:31.000Z</time>
</trkpt>
<trkpt lat="45.8559170" lon="9.1973200">
	<ele>1194.80</ele>
	<time>2025-02-15T11:50:32.000Z</time>
</trkpt>
<trkpt lat="45.8559030" lon="9.1973130">
	<ele>1194.80</ele>
	<time>2025-02-15T11:50:33.000Z</time>
</trkpt>
<trkpt lat="45.8558910" lon="9.1973110">
	<ele>1194.60</ele>
	<time>2025-02-15T11:50:34.000Z</time>
</trkpt>
<trkpt lat="45.8558820" lon="9.1973060">
	<ele>1194.40</ele>
	<time>2025-02-15T11:50:35.000Z</time>
</trkpt>
<trkpt lat="45.8558830" lon="9.1972980">
	<ele>1194.20</ele>
	<time>2025-02-15T11:50:36.000Z</time>
</trkpt>
<trkpt lat="45.8558810" lon="9.1972950">
	<ele>1194.20</ele>
	<time>2025-02-15T11:50:37.000Z</time>
</trkpt>
<trkpt lat="45.8558970" lon="9.1972780">
	<ele>1194.40</ele>
	<time>2025-02-15T11:50:38.000Z</time>
</trkpt>
<trkpt lat="45.8559140" lon="9.1972530">
	<ele>1194.40</ele>
	<time>2025-02-15T11:50:39.000Z</time>
</trkpt>
<trkpt lat="45.8559170" lon="9.1972240">
	<ele>1194.40</ele>
	<time>2025-02-15T11:50:40.000Z</time>
</trkpt>
<trkpt lat="45.8559180" lon="9.1972200">
	<ele>1194.40</ele>
	<time>2025-02-15T11:50:41.000Z</time>
</trkpt>
<trkpt lat="45.8559220" lon="9.1972200">
	<ele>1194.20</ele>
	<time>2025-02-15T11:50:42.000Z</time>
</trkpt>
<trkpt lat="45.8559250" lon="9.1972190">
	<ele>1194.00</ele>
	<time>2025-02-15T11:50:43.000Z</time>
</trkpt>
<trkpt lat="45.8559260" lon="9.1972130">
	<ele>1194.00</ele>
	<time>2025-02-15T11:50:44.000Z</time>
</trkpt>
<trkpt lat="45.8559260" lon="9.1972100">
	<ele>1194.00</ele>
	<time>2025-02-15T11:50:45.000Z</time>
</trkpt>
<trkpt lat="45.8559270" lon="9.1972100">
	<ele>1194.00</ele>
	<time>2025-02-15T11:50:46.000Z</time>
</trkpt>
<trkpt lat="45.8559210" lon="9.1972110">
	<ele>1193.80</ele>
	<time>2025-02-15T11:50:47.000Z</time>
</trkpt>
<trkpt lat="45.8559120" lon="9.1972030">
	<ele>1194.00</ele>
	<time>2025-02-15T11:50:48.000Z</time>
</trkpt>
<trkpt lat="45.8558980" lon="9.1971910">
	<ele>1194.00</ele>
	<time>2025-02-15T11:50:49.000Z</time>
</trkpt>
<trkpt lat="45.8558810" lon="9.1971840">
	<ele>1194.00</ele>
	<time>2025-02-15T11:50:50.000Z</time>
</trkpt>
<trkpt lat="45.8558640" lon="9.1971740">
	<ele>1194.00</ele>
	<time>2025-02-15T11:50:51.000Z</time>
</trkpt>
<trkpt lat="45.8558490" lon="9.1971580">
	<ele>1194.20</ele>
	<time>2025-02-15T11:50:52.000Z</time>
</trkpt>
<trkpt lat="45.8558380" lon="9.1971450">
	<ele>1194.40</ele>
	<time>2025-02-15T11:50:53.000Z</time>
</trkpt>
<trkpt lat="45.8558300" lon="9.1971350">
	<ele>1194.40</ele>
	<time>2025-02-15T11:50:54.000Z</time>
</trkpt>
<trkpt lat="45.8558190" lon="9.1971210">
	<ele>1194.40</ele>
	<time>2025-02-15T11:50:55.000Z</time>
</trkpt>
<trkpt lat="45.8557980" lon="9.1971050">
	<ele>1194.40</ele>
	<time>2025-02-15T11:50:56.000Z</time>
</trkpt>
<trkpt lat="45.8557750" lon="9.1970960">
	<ele>1194.40</ele>
	<time>2025-02-15T11:50:57.000Z</time>
</trkpt>
<trkpt lat="45.8557630" lon="9.1970760">
	<ele>1194.40</ele>
	<time>2025-02-15T11:50:58.000Z</time>
</trkpt>
<trkpt lat="45.8557510" lon="9.1970550">
	<ele>1194.60</ele>
	<time>2025-02-15T11:50:59.000Z</time>
</trkpt>
<trkpt lat="45.8557520" lon="9.1970320">
	<ele>1194.40</ele>
	<time>2025-02-15T11:51:00.000Z</time>
</trkpt>
<trkpt lat="45.8557600" lon="9.1970220">
	<ele>1194.40</ele>
	<time>2025-02-15T11:51:01.000Z</time>
</trkpt>
<trkpt lat="45.8557520" lon="9.1970190">
	<ele>1194.20</ele>
	<time>2025-02-15T11:51:02.000Z</time>
</trkpt>
<trkpt lat="45.8557510" lon="9.1970150">
	<ele>1194.20</ele>
	<time>2025-02-15T11:51:03.000Z</time>
</trkpt>
<trkpt lat="45.8557520" lon="9.1970140">
	<ele>1194.20</ele>
	<time>2025-02-15T11:51:04.000Z</time>
</trkpt>
<trkpt lat="45.8557610" lon="9.1970140">
	<ele>1194.00</ele>
	<time>2025-02-15T11:51:05.000Z</time>
</trkpt>
<trkpt lat="45.8557590" lon="9.1970080">
	<ele>1194.00</ele>
	<time>2025-02-15T11:51:06.000Z</time>
</trkpt>
<trkpt lat="45.8557390" lon="9.1970020">
	<ele>1193.80</ele>
	<time>2025-02-15T11:51:07.000Z</time>
</trkpt>
<trkpt lat="45.8557260" lon="9.1969950">
	<ele>1193.80</ele>
	<time>2025-02-15T11:51:08.000Z</time>
</trkpt>
<trkpt lat="45.8557140" lon="9.1969890">
	<ele>1193.80</ele>
	<time>2025-02-15T11:51:09.000Z</time>
</trkpt>
<trkpt lat="45.8556930" lon="9.1969750">
	<ele>1193.60</ele>
	<time>2025-02-15T11:51:10.000Z</time>
</trkpt>
<trkpt lat="45.8556770" lon="9.1969640">
	<ele>1193.40</ele>
	<time>2025-02-15T11:51:11.000Z</time>
</trkpt>
<trkpt lat="45.8556710" lon="9.1969480">
	<ele>1193.20</ele>
	<time>2025-02-15T11:51:12.000Z</time>
</trkpt>
<trkpt lat="45.8556740" lon="9.1969370">
	<ele>1193.20</ele>
	<time>2025-02-15T11:51:13.000Z</time>
</trkpt>
<trkpt lat="45.8556600" lon="9.1969260">
	<ele>1193.00</ele>
	<time>2025-02-15T11:51:14.000Z</time>
</trkpt>
<trkpt lat="45.8556500" lon="9.1969210">
	<ele>1192.80</ele>
	<time>2025-02-15T11:51:15.000Z</time>
</trkpt>
<trkpt lat="45.8556220" lon="9.1969150">
	<ele>1192.60</ele>
	<time>2025-02-15T11:51:16.000Z</time>
</trkpt>
<trkpt lat="45.8556090" lon="9.1968980">
	<ele>1192.60</ele>
	<time>2025-02-15T11:51:17.000Z</time>
</trkpt>
<trkpt lat="45.8556010" lon="9.1968800">
	<ele>1192.40</ele>
	<time>2025-02-15T11:51:18.000Z</time>
</trkpt>
<trkpt lat="45.8555850" lon="9.1968650">
	<ele>1192.40</ele>
	<time>2025-02-15T11:51:19.000Z</time>
</trkpt>
<trkpt lat="45.8555780" lon="9.1968400">
	<ele>1192.40</ele>
	<time>2025-02-15T11:51:20.000Z</time>
</trkpt>
<trkpt lat="45.8555910" lon="9.1968260">
	<ele>1192.20</ele>
	<time>2025-02-15T11:51:21.000Z</time>
</trkpt>
<trkpt lat="45.8555980" lon="9.1968010">
	<ele>1192.00</ele>
	<time>2025-02-15T11:51:22.000Z</time>
</trkpt>
<trkpt lat="45.8555890" lon="9.1967890">
	<ele>1192.00</ele>
	<time>2025-02-15T11:51:23.000Z</time>
</trkpt>
<trkpt lat="45.8555890" lon="9.1967790">
	<ele>1192.00</ele>
	<time>2025-02-15T11:51:24.000Z</time>
</trkpt>
<trkpt lat="45.8555810" lon="9.1967730">
	<ele>1191.40</ele>
	<time>2025-02-15T11:51:25.000Z</time>
</trkpt>
<trkpt lat="45.8555740" lon="9.1967710">
	<ele>1191.00</ele>
	<time>2025-02-15T11:51:26.000Z</time>
</trkpt>
<trkpt lat="45.8555700" lon="9.1967600">
	<ele>1191.00</ele>
	<time>2025-02-15T11:51:27.000Z</time>
</trkpt>
<trkpt lat="45.8555680" lon="9.1967510">
	<ele>1190.80</ele>
	<time>2025-02-15T11:51:28.000Z</time>
</trkpt>
<trkpt lat="45.8555650" lon="9.1967360">
	<ele>1190.80</ele>
	<time>2025-02-15T11:51:29.000Z</time>
</trkpt>
<trkpt lat="45.8555590" lon="9.1967240">
	<ele>1190.60</ele>
	<time>2025-02-15T11:51:30.000Z</time>
</trkpt>
<trkpt lat="45.8555530" lon="9.1967100">
	<ele>1190.60</ele>
	<time>2025-02-15T11:51:31.000Z</time>
</trkpt>
<trkpt lat="45.8555680" lon="9.1966900">
	<ele>1190.60</ele>
	<time>2025-02-15T11:51:32.000Z</time>
</trkpt>
<trkpt lat="45.8555810" lon="9.1966750">
	<ele>1190.60</ele>
	<time>2025-02-15T11:51:33.000Z</time>
</trkpt>
<trkpt lat="45.8555990" lon="9.1966490">
	<ele>1190.40</ele>
	<time>2025-02-15T11:51:34.000Z</time>
</trkpt>
<trkpt lat="45.8556110" lon="9.1966240">
	<ele>1190.00</ele>
	<time>2025-02-15T11:51:35.000Z</time>
</trkpt>
<trkpt lat="45.8556010" lon="9.1966180">
	<ele>1189.80</ele>
	<time>2025-02-15T11:51:36.000Z</time>
</trkpt>
<trkpt lat="45.8555930" lon="9.1966060">
	<ele>1189.60</ele>
	<time>2025-02-15T11:51:37.000Z</time>
</trkpt>
<trkpt lat="45.8555780" lon="9.1965990">
	<ele>1189.60</ele>
	<time>2025-02-15T11:51:38.000Z</time>
</trkpt>
<trkpt lat="45.8555590" lon="9.1965880">
	<ele>1189.40</ele>
	<time>2025-02-15T11:51:39.000Z</time>
</trkpt>
<trkpt lat="45.8555460" lon="9.1965840">
	<ele>1189.20</ele>
	<time>2025-02-15T11:51:40.000Z</time>
</trkpt>
<trkpt lat="45.8555440" lon="9.1965890">
	<ele>1189.00</ele>
	<time>2025-02-15T11:51:41.000Z</time>
</trkpt>
<trkpt lat="45.8555360" lon="9.1965830">
	<ele>1188.80</ele>
	<time>2025-02-15T11:51:42.000Z</time>
</trkpt>
<trkpt lat="45.8555250" lon="9.1965760">
	<ele>1188.80</ele>
	<time>2025-02-15T11:51:43.000Z</time>
</trkpt>
<trkpt lat="45.8555230" lon="9.1965770">
	<ele>1188.60</ele>
	<time>2025-02-15T11:51:44.000Z</time>
</trkpt>
<trkpt lat="45.8555170" lon="9.1965790">
	<ele>1188.40</ele>
	<time>2025-02-15T11:51:45.000Z</time>
</trkpt>
<trkpt lat="45.8555130" lon="9.1965790">
	<ele>1188.40</ele>
	<time>2025-02-15T11:51:46.000Z</time>
</trkpt>
<trkpt lat="45.8555090" lon="9.1965810">
	<ele>1188.40</ele>
	<time>2025-02-15T11:51:47.000Z</time>
</trkpt>
<trkpt lat="45.8555090" lon="9.1965800">
	<ele>1188.40</ele>
	<time>2025-02-15T11:51:48.000Z</time>
</trkpt>
<trkpt lat="45.8555140" lon="9.1965810">
	<ele>1188.40</ele>
	<time>2025-02-15T11:51:49.000Z</time>
</trkpt>
<trkpt lat="45.8555110" lon="9.1965740">
	<ele>1188.40</ele>
	<time>2025-02-15T11:51:50.000Z</time>
</trkpt>
<trkpt lat="45.8555000" lon="9.1965710">
	<ele>1188.40</ele>
	<time>2025-02-15T11:51:51.000Z</time>
</trkpt>
<trkpt lat="45.8554970" lon="9.1965690">
	<ele>1188.60</ele>
	<time>2025-02-15T11:51:52.000Z</time>
</trkpt>
<trkpt lat="45.8554940" lon="9.1965680">
	<ele>1188.60</ele>
	<time>2025-02-15T11:51:53.000Z</time>
</trkpt>
<trkpt lat="45.8555000" lon="9.1965660">
	<ele>1188.60</ele>
	<time>2025-02-15T11:51:54.000Z</time>
</trkpt>
<trkpt lat="45.8554980" lon="9.1965600">
	<ele>1188.60</ele>
	<time>2025-02-15T11:51:55.000Z</time>
</trkpt>
<trkpt lat="45.8554960" lon="9.1965520">
	<ele>1188.60</ele>
	<time>2025-02-15T11:51:56.000Z</time>
</trkpt>
<trkpt lat="45.8554910" lon="9.1965470">
	<ele>1188.60</ele>
	<time>2025-02-15T11:51:57.000Z</time>
</trkpt>
<trkpt lat="45.8554840" lon="9.1965450">
	<ele>1188.60</ele>
	<time>2025-02-15T11:51:58.000Z</time>
</trkpt>
<trkpt lat="45.8554800" lon="9.1965450">
	<ele>1188.20</ele>
	<time>2025-02-15T11:51:59.000Z</time>
</trkpt>
<trkpt lat="45.8554800" lon="9.1965420">
	<ele>1188.00</ele>
	<time>2025-02-15T11:52:00.000Z</time>
</trkpt>
<trkpt lat="45.8554780" lon="9.1965370">
	<ele>1187.80</ele>
	<time>2025-02-15T11:52:01.000Z</time>
</trkpt>
<trkpt lat="45.8554780" lon="9.1965320">
	<ele>1187.80</ele>
	<time>2025-02-15T11:52:02.000Z</time>
</trkpt>
<trkpt lat="45.8554760" lon="9.1965280">
	<ele>1187.60</ele>
	<time>2025-02-15T11:52:03.000Z</time>
</trkpt>
<trkpt lat="45.8554710" lon="9.1965220">
	<ele>1187.40</ele>
	<time>2025-02-15T11:52:04.000Z</time>
</trkpt>
<trkpt lat="45.8554630" lon="9.1965150">
	<ele>1187.20</ele>
	<time>2025-02-15T11:52:05.000Z</time>
</trkpt>
<trkpt lat="45.8554590" lon="9.1965140">
	<ele>1187.00</ele>
	<time>2025-02-15T11:52:06.000Z</time>
</trkpt>
<trkpt lat="45.8554580" lon="9.1965120">
	<ele>1186.60</ele>
	<time>2025-02-15T11:52:07.000Z</time>
</trkpt>
<trkpt lat="45.8554470" lon="9.1965090">
	<ele>1186.20</ele>
	<time>2025-02-15T11:52:08.000Z</time>
</trkpt>
<trkpt lat="45.8554390" lon="9.1965050">
	<ele>1186.00</ele>
	<time>2025-02-15T11:52:09.000Z</time>
</trkpt>
<trkpt lat="45.8554340" lon="9.1964920">
	<ele>1185.80</ele>
	<time>2025-02-15T11:52:10.000Z</time>
</trkpt>
<trkpt lat="45.8554280" lon="9.1964760">
	<ele>1185.40</ele>
	<time>2025-02-15T11:52:11.000Z</time>
</trkpt>
<trkpt lat="45.8554190" lon="9.1964720">
	<ele>1185.20</ele>
	<time>2025-02-15T11:52:12.000Z</time>
</trkpt>
<trkpt lat="45.8554020" lon="9.1964680">
	<ele>1185.20</ele>
	<time>2025-02-15T11:52:13.000Z</time>
</trkpt>
<trkpt lat="45.8554000" lon="9.1964600">
	<ele>1185.00</ele>
	<time>2025-02-15T11:52:14.000Z</time>
</trkpt>
<trkpt lat="45.8553890" lon="9.1964530">
	<ele>1184.80</ele>
	<time>2025-02-15T11:52:15.000Z</time>
</trkpt>
<trkpt lat="45.8553750" lon="9.1964440">
	<ele>1184.60</ele>
	<time>2025-02-15T11:52:16.000Z</time>
</trkpt>
<trkpt lat="45.8553710" lon="9.1964360">
	<ele>1184.20</ele>
	<time>2025-02-15T11:52:17.000Z</time>
</trkpt>
<trkpt lat="45.8553580" lon="9.1964340">
	<ele>1184.00</ele>
	<time>2025-02-15T11:52:18.000Z</time>
</trkpt>
<trkpt lat="45.8553500" lon="9.1964280">
	<ele>1184.00</ele>
	<time>2025-02-15T11:52:19.000Z</time>
</trkpt>
<trkpt lat="45.8553470" lon="9.1964220">
	<ele>1183.80</ele>
	<time>2025-02-15T11:52:20.000Z</time>
</trkpt>
<trkpt lat="45.8553420" lon="9.1964160">
	<ele>1183.40</ele>
	<time>2025-02-15T11:52:21.000Z</time>
</trkpt>
<trkpt lat="45.8553350" lon="9.1964090">
	<ele>1183.20</ele>
	<time>2025-02-15T11:52:22.000Z</time>
</trkpt>
<trkpt lat="45.8553320" lon="9.1964050">
	<ele>1183.00</ele>
	<time>2025-02-15T11:52:23.000Z</time>
</trkpt>
<trkpt lat="45.8553370" lon="9.1964000">
	<ele>1182.80</ele>
	<time>2025-02-15T11:52:24.000Z</time>
</trkpt>
<trkpt lat="45.8553400" lon="9.1963900">
	<ele>1182.60</ele>
	<time>2025-02-15T11:52:25.000Z</time>
</trkpt>
<trkpt lat="45.8553400" lon="9.1963850">
	<ele>1182.60</ele>
	<time>2025-02-15T11:52:26.000Z</time>
</trkpt>
<trkpt lat="45.8553310" lon="9.1963740">
	<ele>1182.60</ele>
	<time>2025-02-15T11:52:27.000Z</time>
</trkpt>
<trkpt lat="45.8553260" lon="9.1963660">
	<ele>1182.00</ele>
	<time>2025-02-15T11:52:28.000Z</time>
</trkpt>
<trkpt lat="45.8553270" lon="9.1963600">
	<ele>1181.60</ele>
	<time>2025-02-15T11:52:29.000Z</time>
</trkpt>
<trkpt lat="45.8553310" lon="9.1963480">
	<ele>1181.20</ele>
	<time>2025-02-15T11:52:30.000Z</time>
</trkpt>
<trkpt lat="45.8553300" lon="9.1963390">
	<ele>1181.00</ele>
	<time>2025-02-15T11:52:31.000Z</time>
</trkpt>
<trkpt lat="45.8553260" lon="9.1963280">
	<ele>1180.80</ele>
	<time>2025-02-15T11:52:32.000Z</time>
</trkpt>
<trkpt lat="45.8553220" lon="9.1963200">
	<ele>1180.60</ele>
	<time>2025-02-15T11:52:33.000Z</time>
</trkpt>
<trkpt lat="45.8553130" lon="9.1963140">
	<ele>1180.60</ele>
	<time>2025-02-15T11:52:34.000Z</time>
</trkpt>
<trkpt lat="45.8552950" lon="9.1963170">
	<ele>1180.40</ele>
	<time>2025-02-15T11:52:35.000Z</time>
</trkpt>
<trkpt lat="45.8552810" lon="9.1963120">
	<ele>1180.00</ele>
	<time>2025-02-15T11:52:36.000Z</time>
</trkpt>
<trkpt lat="45.8552800" lon="9.1963060">
	<ele>1180.00</ele>
	<time>2025-02-15T11:52:37.000Z</time>
</trkpt>
<trkpt lat="45.8552820" lon="9.1963000">
	<ele>1179.80</ele>
	<time>2025-02-15T11:52:38.000Z</time>
</trkpt>
<trkpt lat="45.8552800" lon="9.1962850">
	<ele>1179.60</ele>
	<time>2025-02-15T11:52:39.000Z</time>
</trkpt>
<trkpt lat="45.8552810" lon="9.1962730">
	<ele>1179.60</ele>
	<time>2025-02-15T11:52:40.000Z</time>
</trkpt>
<trkpt lat="45.8552820" lon="9.1962650">
	<ele>1179.40</ele>
	<time>2025-02-15T11:52:41.000Z</time>
</trkpt>
<trkpt lat="45.8552860" lon="9.1962550">
	<ele>1179.20</ele>
	<time>2025-02-15T11:52:42.000Z</time>
</trkpt>
<trkpt lat="45.8552810" lon="9.1962440">
	<ele>1179.00</ele>
	<time>2025-02-15T11:52:43.000Z</time>
</trkpt>
<trkpt lat="45.8552700" lon="9.1962340">
	<ele>1179.00</ele>
	<time>2025-02-15T11:52:44.000Z</time>
</trkpt>
<trkpt lat="45.8552610" lon="9.1962230">
	<ele>1178.80</ele>
	<time>2025-02-15T11:52:45.000Z</time>
</trkpt>
<trkpt lat="45.8552560" lon="9.1962180">
	<ele>1178.40</ele>
	<time>2025-02-15T11:52:46.000Z</time>
</trkpt>
<trkpt lat="45.8552540" lon="9.1962150">
	<ele>1178.20</ele>
	<time>2025-02-15T11:52:47.000Z</time>
</trkpt>
<trkpt lat="45.8552540" lon="9.1962120">
	<ele>1178.00</ele>
	<time>2025-02-15T11:52:48.000Z</time>
</trkpt>
<trkpt lat="45.8552510" lon="9.1962110">
	<ele>1177.80</ele>
	<time>2025-02-15T11:52:49.000Z</time>
</trkpt>
<trkpt lat="45.8552440" lon="9.1962060">
	<ele>1177.60</ele>
	<time>2025-02-15T11:52:50.000Z</time>
</trkpt>
<trkpt lat="45.8552410" lon="9.1962010">
	<ele>1177.20</ele>
	<time>2025-02-15T11:52:51.000Z</time>
</trkpt>
<trkpt lat="45.8552240" lon="9.1961990">
	<ele>1177.00</ele>
	<time>2025-02-15T11:52:52.000Z</time>
</trkpt>
<trkpt lat="45.8552140" lon="9.1961950">
	<ele>1176.80</ele>
	<time>2025-02-15T11:52:53.000Z</time>
</trkpt>
<trkpt lat="45.8552050" lon="9.1961840">
	<ele>1176.60</ele>
	<time>2025-02-15T11:52:54.000Z</time>
</trkpt>
<trkpt lat="45.8551970" lon="9.1961750">
	<ele>1176.40</ele>
	<time>2025-02-15T11:52:55.000Z</time>
</trkpt>
<trkpt lat="45.8551850" lon="9.1961680">
	<ele>1176.20</ele>
	<time>2025-02-15T11:52:56.000Z</time>
</trkpt>
<trkpt lat="45.8551770" lon="9.1961640">
	<ele>1176.00</ele>
	<time>2025-02-15T11:52:57.000Z</time>
</trkpt>
<trkpt lat="45.8551650" lon="9.1961560">
	<ele>1175.40</ele>
	<time>2025-02-15T11:52:58.000Z</time>
</trkpt>
<trkpt lat="45.8551610" lon="9.1961410">
	<ele>1175.00</ele>
	<time>2025-02-15T11:52:59.000Z</time>
</trkpt>
<trkpt lat="45.8551540" lon="9.1961300">
	<ele>1174.80</ele>
	<time>2025-02-15T11:53:00.000Z</time>
</trkpt>
<trkpt lat="45.8551450" lon="9.1961210">
	<ele>1174.60</ele>
	<time>2025-02-15T11:53:01.000Z</time>
</trkpt>
<trkpt lat="45.8551280" lon="9.1961140">
	<ele>1174.20</ele>
	<time>2025-02-15T11:53:02.000Z</time>
</trkpt>
<trkpt lat="45.8551060" lon="9.1961070">
	<ele>1174.20</ele>
	<time>2025-02-15T11:53:03.000Z</time>
</trkpt>
<trkpt lat="45.8550910" lon="9.1961070">
	<ele>1174.00</ele>
	<time>2025-02-15T11:53:04.000Z</time>
</trkpt>
<trkpt lat="45.8550930" lon="9.1960930">
	<ele>1173.60</ele>
	<time>2025-02-15T11:53:05.000Z</time>
</trkpt>
<trkpt lat="45.8550820" lon="9.1960880">
	<ele>1173.40</ele>
	<time>2025-02-15T11:53:06.000Z</time>
</trkpt>
<trkpt lat="45.8550700" lon="9.1960810">
	<ele>1173.40</ele>
	<time>2025-02-15T11:53:07.000Z</time>
</trkpt>
<trkpt lat="45.8550760" lon="9.1960760">
	<ele>1173.20</ele>
	<time>2025-02-15T11:53:08.000Z</time>
</trkpt>
<trkpt lat="45.8550770" lon="9.1960710">
	<ele>1173.20</ele>
	<time>2025-02-15T11:53:09.000Z</time>
</trkpt>
<trkpt lat="45.8550690" lon="9.1960610">
	<ele>1173.00</ele>
	<time>2025-02-15T11:53:10.000Z</time>
</trkpt>
<trkpt lat="45.8550570" lon="9.1960530">
	<ele>1172.80</ele>
	<time>2025-02-15T11:53:11.000Z</time>
</trkpt>
<trkpt lat="45.8550470" lon="9.1960430">
	<ele>1172.60</ele>
	<time>2025-02-15T11:53:12.000Z</time>
</trkpt>
<trkpt lat="45.8550460" lon="9.1960320">
	<ele>1172.60</ele>
	<time>2025-02-15T11:53:13.000Z</time>
</trkpt>
<trkpt lat="45.8550440" lon="9.1960260">
	<ele>1172.20</ele>
	<time>2025-02-15T11:53:14.000Z</time>
</trkpt>
<trkpt lat="45.8550380" lon="9.1960190">
	<ele>1172.00</ele>
	<time>2025-02-15T11:53:15.000Z</time>
</trkpt>
<trkpt lat="45.8550270" lon="9.1960080">
	<ele>1172.00</ele>
	<time>2025-02-15T11:53:16.000Z</time>
</trkpt>
<trkpt lat="45.8550310" lon="9.1959920">
	<ele>1171.80</ele>
	<time>2025-02-15T11:53:17.000Z</time>
</trkpt>
<trkpt lat="45.8550260" lon="9.1959870">
	<ele>1171.60</ele>
	<time>2025-02-15T11:53:18.000Z</time>
</trkpt>
<trkpt lat="45.8550190" lon="9.1959770">
	<ele>1171.20</ele>
	<time>2025-02-15T11:53:19.000Z</time>
</trkpt>
<trkpt lat="45.8550180" lon="9.1959720">
	<ele>1170.60</ele>
	<time>2025-02-15T11:53:20.000Z</time>
</trkpt>
<trkpt lat="45.8550310" lon="9.1959750">
	<ele>1170.40</ele>
	<time>2025-02-15T11:53:21.000Z</time>
</trkpt>
<trkpt lat="45.8550350" lon="9.1959710">
	<ele>1170.20</ele>
	<time>2025-02-15T11:53:22.000Z</time>
</trkpt>
<trkpt lat="45.8550360" lon="9.1959680">
	<ele>1170.20</ele>
	<time>2025-02-15T11:53:23.000Z</time>
</trkpt>
<trkpt lat="45.8550390" lon="9.1959600">
	<ele>1170.00</ele>
	<time>2025-02-15T11:53:24.000Z</time>
</trkpt>
<trkpt lat="45.8550240" lon="9.1959670">
	<ele>1169.80</ele>
	<time>2025-02-15T11:53:25.000Z</time>
</trkpt>
<trkpt lat="45.8550090" lon="9.1959740">
	<ele>1169.60</ele>
	<time>2025-02-15T11:53:26.000Z</time>
</trkpt>
<trkpt lat="45.8550030" lon="9.1959740">
	<ele>1169.60</ele>
	<time>2025-02-15T11:53:27.000Z</time>
</trkpt>
<trkpt lat="45.8549890" lon="9.1959780">
	<ele>1169.40</ele>
	<time>2025-02-15T11:53:28.000Z</time>
</trkpt>
<trkpt lat="45.8549860" lon="9.1959780">
	<ele>1169.00</ele>
	<time>2025-02-15T11:53:29.000Z</time>
</trkpt>
<trkpt lat="45.8549890" lon="9.1959790">
	<ele>1168.80</ele>
	<time>2025-02-15T11:53:30.000Z</time>
</trkpt>
<trkpt lat="45.8549790" lon="9.1959720">
	<ele>1168.60</ele>
	<time>2025-02-15T11:53:31.000Z</time>
</trkpt>
<trkpt lat="45.8549720" lon="9.1959690">
	<ele>1168.60</ele>
	<time>2025-02-15T11:53:32.000Z</time>
</trkpt>
<trkpt lat="45.8549690" lon="9.1959690">
	<ele>1168.40</ele>
	<time>2025-02-15T11:53:33.000Z</time>
</trkpt>
<trkpt lat="45.8549640" lon="9.1959730">
	<ele>1168.20</ele>
	<time>2025-02-15T11:53:34.000Z</time>
</trkpt>
<trkpt lat="45.8549620" lon="9.1959740">
	<ele>1168.20</ele>
	<time>2025-02-15T11:53:35.000Z</time>
</trkpt>
<trkpt lat="45.8549650" lon="9.1959760">
	<ele>1167.80</ele>
	<time>2025-02-15T11:53:36.000Z</time>
</trkpt>
<trkpt lat="45.8549680" lon="9.1959770">
	<ele>1167.40</ele>
	<time>2025-02-15T11:53:37.000Z</time>
</trkpt>
<trkpt lat="45.8549680" lon="9.1959770">
	<ele>1167.40</ele>
	<time>2025-02-15T11:53:38.000Z</time>
</trkpt>
<trkpt lat="45.8549650" lon="9.1959780">
	<ele>1167.40</ele>
	<time>2025-02-15T11:53:39.000Z</time>
</trkpt>
<trkpt lat="45.8549570" lon="9.1959790">
	<ele>1167.20</ele>
	<time>2025-02-15T11:53:40.000Z</time>
</trkpt>
<trkpt lat="45.8549490" lon="9.1959810">
	<ele>1167.20</ele>
	<time>2025-02-15T11:53:41.000Z</time>
</trkpt>
<trkpt lat="45.8549490" lon="9.1959880">
	<ele>1167.00</ele>
	<time>2025-02-15T11:53:42.000Z</time>
</trkpt>
<trkpt lat="45.8549460" lon="9.1959920">
	<ele>1166.80</ele>
	<time>2025-02-15T11:53:43.000Z</time>
</trkpt>
<trkpt lat="45.8549430" lon="9.1959980">
	<ele>1166.80</ele>
	<time>2025-02-15T11:53:44.000Z</time>
</trkpt>
<trkpt lat="45.8549430" lon="9.1960050">
	<ele>1166.20</ele>
	<time>2025-02-15T11:53:45.000Z</time>
</trkpt>
<trkpt lat="45.8549410" lon="9.1960110">
	<ele>1165.80</ele>
	<time>2025-02-15T11:53:46.000Z</time>
</trkpt>
<trkpt lat="45.8549340" lon="9.1960150">
	<ele>1165.40</ele>
	<time>2025-02-15T11:53:47.000Z</time>
</trkpt>
<trkpt lat="45.8549340" lon="9.1960170">
	<ele>1165.20</ele>
	<time>2025-02-15T11:53:48.000Z</time>
</trkpt>
<trkpt lat="45.8549350" lon="9.1960200">
	<ele>1165.00</ele>
	<time>2025-02-15T11:53:49.000Z</time>
</trkpt>
<trkpt lat="45.8549390" lon="9.1960220">
	<ele>1164.80</ele>
	<time>2025-02-15T11:53:50.000Z</time>
</trkpt>
<trkpt lat="45.8549420" lon="9.1960260">
	<ele>1164.40</ele>
	<time>2025-02-15T11:53:51.000Z</time>
</trkpt>
<trkpt lat="45.8549410" lon="9.1960360">
	<ele>1164.40</ele>
	<time>2025-02-15T11:53:52.000Z</time>
</trkpt>
<trkpt lat="45.8549370" lon="9.1960440">
	<ele>1164.20</ele>
	<time>2025-02-15T11:53:53.000Z</time>
</trkpt>
<trkpt lat="45.8549430" lon="9.1960540">
	<ele>1164.20</ele>
	<time>2025-02-15T11:53:54.000Z</time>
</trkpt>
<trkpt lat="45.8549530" lon="9.1960680">
	<ele>1164.00</ele>
	<time>2025-02-15T11:53:55.000Z</time>
</trkpt>
<trkpt lat="45.8549580" lon="9.1960810">
	<ele>1163.80</ele>
	<time>2025-02-15T11:53:56.000Z</time>
</trkpt>
<trkpt lat="45.8549520" lon="9.1960910">
	<ele>1163.40</ele>
	<time>2025-02-15T11:53:57.000Z</time>
</trkpt>
<trkpt lat="45.8549550" lon="9.1961100">
	<ele>1163.20</ele>
	<time>2025-02-15T11:53:58.000Z</time>
</trkpt>
<trkpt lat="45.8549630" lon="9.1961170">
	<ele>1163.00</ele>
	<time>2025-02-15T11:53:59.000Z</time>
</trkpt>
<trkpt lat="45.8549710" lon="9.1961280">
	<ele>1162.80</ele>
	<time>2025-02-15T11:54:00.000Z</time>
</trkpt>
<trkpt lat="45.8549550" lon="9.1961310">
	<ele>1162.80</ele>
	<time>2025-02-15T11:54:01.000Z</time>
</trkpt>
<trkpt lat="45.8549510" lon="9.1961340">
	<ele>1162.40</ele>
	<time>2025-02-15T11:54:02.000Z</time>
</trkpt>
<trkpt lat="45.8549470" lon="9.1961480">
	<ele>1162.00</ele>
	<time>2025-02-15T11:54:03.000Z</time>
</trkpt>
<trkpt lat="45.8549320" lon="9.1961540">
	<ele>1162.00</ele>
	<time>2025-02-15T11:54:04.000Z</time>
</trkpt>
<trkpt lat="45.8549220" lon="9.1961610">
	<ele>1161.80</ele>
	<time>2025-02-15T11:54:05.000Z</time>
</trkpt>
<trkpt lat="45.8549130" lon="9.1961710">
	<ele>1161.80</ele>
	<time>2025-02-15T11:54:06.000Z</time>
</trkpt>
<trkpt lat="45.8549070" lon="9.1961870">
	<ele>1161.40</ele>
	<time>2025-02-15T11:54:07.000Z</time>
</trkpt>
<trkpt lat="45.8549140" lon="9.1961970">
	<ele>1161.00</ele>
	<time>2025-02-15T11:54:08.000Z</time>
</trkpt>
<trkpt lat="45.8549160" lon="9.1962030">
	<ele>1160.60</ele>
	<time>2025-02-15T11:54:09.000Z</time>
</trkpt>
<trkpt lat="45.8549180" lon="9.1962100">
	<ele>1160.60</ele>
	<time>2025-02-15T11:54:10.000Z</time>
</trkpt>
<trkpt lat="45.8549190" lon="9.1962170">
	<ele>1160.60</ele>
	<time>2025-02-15T11:54:11.000Z</time>
</trkpt>
<trkpt lat="45.8549150" lon="9.1962260">
	<ele>1160.60</ele>
	<time>2025-02-15T11:54:12.000Z</time>
</trkpt>
<trkpt lat="45.8549110" lon="9.1962310">
	<ele>1160.60</ele>
	<time>2025-02-15T11:54:13.000Z</time>
</trkpt>
<trkpt lat="45.8549090" lon="9.1962380">
	<ele>1160.40</ele>
	<time>2025-02-15T11:54:14.000Z</time>
</trkpt>
<trkpt lat="45.8549120" lon="9.1962430">
	<ele>1160.20</ele>
	<time>2025-02-15T11:54:15.000Z</time>
</trkpt>
<trkpt lat="45.8549140" lon="9.1962510">
	<ele>1160.00</ele>
	<time>2025-02-15T11:54:16.000Z</time>
</trkpt>
<trkpt lat="45.8549130" lon="9.1962590">
	<ele>1159.80</ele>
	<time>2025-02-15T11:54:17.000Z</time>
</trkpt>
<trkpt lat="45.8549140" lon="9.1962640">
	<ele>1159.80</ele>
	<time>2025-02-15T11:54:18.000Z</time>
</trkpt>
<trkpt lat="45.8549160" lon="9.1962730">
	<ele>1159.60</ele>
	<time>2025-02-15T11:54:19.000Z</time>
</trkpt>
<trkpt lat="45.8549180" lon="9.1962830">
	<ele>1159.40</ele>
	<time>2025-02-15T11:54:20.000Z</time>
</trkpt>
<trkpt lat="45.8549250" lon="9.1962860">
	<ele>1159.40</ele>
	<time>2025-02-15T11:54:21.000Z</time>
</trkpt>
<trkpt lat="45.8549330" lon="9.1962890">
	<ele>1159.00</ele>
	<time>2025-02-15T11:54:22.000Z</time>
</trkpt>
<trkpt lat="45.8549410" lon="9.1962970">
	<ele>1158.80</ele>
	<time>2025-02-15T11:54:23.000Z</time>
</trkpt>
<trkpt lat="45.8549400" lon="9.1963180">
	<ele>1158.60</ele>
	<time>2025-02-15T11:54:24.000Z</time>
</trkpt>
<trkpt lat="45.8549360" lon="9.1963340">
	<ele>1158.40</ele>
	<time>2025-02-15T11:54:25.000Z</time>
</trkpt>
<trkpt lat="45.8549370" lon="9.1963430">
	<ele>1158.20</ele>
	<time>2025-02-15T11:54:26.000Z</time>
</trkpt>
<trkpt lat="45.8549380" lon="9.1963530">
	<ele>1157.80</ele>
	<time>2025-02-15T11:54:27.000Z</time>
</trkpt>
<trkpt lat="45.8549390" lon="9.1963660">
	<ele>1157.60</ele>
	<time>2025-02-15T11:54:28.000Z</time>
</trkpt>
<trkpt lat="45.8549460" lon="9.1963830">
	<ele>1157.40</ele>
	<time>2025-02-15T11:54:29.000Z</time>
</trkpt>
<trkpt lat="45.8549470" lon="9.1964030">
	<ele>1157.20</ele>
	<time>2025-02-15T11:54:30.000Z</time>
</trkpt>
<trkpt lat="45.8549460" lon="9.1964180">
	<ele>1157.20</ele>
	<time>2025-02-15T11:54:31.000Z</time>
</trkpt>
<trkpt lat="45.8549460" lon="9.1964260">
	<ele>1157.00</ele>
	<time>2025-02-15T11:54:32.000Z</time>
</trkpt>
<trkpt lat="45.8549500" lon="9.1964310">
	<ele>1157.00</ele>
	<time>2025-02-15T11:54:33.000Z</time>
</trkpt>
<trkpt lat="45.8549430" lon="9.1964420">
	<ele>1156.80</ele>
	<time>2025-02-15T11:54:34.000Z</time>
</trkpt>
<trkpt lat="45.8549490" lon="9.1964500">
	<ele>1156.40</ele>
	<time>2025-02-15T11:54:35.000Z</time>
</trkpt>
<trkpt lat="45.8549530" lon="9.1964520">
	<ele>1156.00</ele>
	<time>2025-02-15T11:54:36.000Z</time>
</trkpt>
<trkpt lat="45.8549470" lon="9.1964660">
	<ele>1156.00</ele>
	<time>2025-02-15T11:54:37.000Z</time>
</trkpt>
<trkpt lat="45.8549440" lon="9.1964790">
	<ele>1155.80</ele>
	<time>2025-02-15T11:54:38.000Z</time>
</trkpt>
<trkpt lat="45.8549420" lon="9.1964860">
	<ele>1155.80</ele>
	<time>2025-02-15T11:54:39.000Z</time>
</trkpt>
<trkpt lat="45.8549310" lon="9.1965010">
	<ele>1155.80</ele>
	<time>2025-02-15T11:54:40.000Z</time>
</trkpt>
<trkpt lat="45.8549340" lon="9.1965130">
	<ele>1155.80</ele>
	<time>2025-02-15T11:54:41.000Z</time>
</trkpt>
<trkpt lat="45.8549240" lon="9.1965340">
	<ele>1155.80</ele>
	<time>2025-02-15T11:54:42.000Z</time>
</trkpt>
<trkpt lat="45.8549190" lon="9.1965590">
	<ele>1155.80</ele>
	<time>2025-02-15T11:54:43.000Z</time>
</trkpt>
<trkpt lat="45.8549140" lon="9.1965800">
	<ele>1155.40</ele>
	<time>2025-02-15T11:54:44.000Z</time>
</trkpt>
<trkpt lat="45.8549190" lon="9.1965990">
	<ele>1155.20</ele>
	<time>2025-02-15T11:54:45.000Z</time>
</trkpt>
<trkpt lat="45.8549240" lon="9.1966150">
	<ele>1155.20</ele>
	<time>2025-02-15T11:54:46.000Z</time>
</trkpt>
<trkpt lat="45.8549290" lon="9.1966240">
	<ele>1155.20</ele>
	<time>2025-02-15T11:54:47.000Z</time>
</trkpt>
<trkpt lat="45.8549480" lon="9.1966340">
	<ele>1155.20</ele>
	<time>2025-02-15T11:54:48.000Z</time>
</trkpt>
<trkpt lat="45.8549560" lon="9.1966410">
	<ele>1154.40</ele>
	<time>2025-02-15T11:54:49.000Z</time>
</trkpt>
<trkpt lat="45.8549510" lon="9.1966510">
	<ele>1153.80</ele>
	<time>2025-02-15T11:54:50.000Z</time>
</trkpt>
<trkpt lat="45.8549420" lon="9.1966580">
	<ele>1153.40</ele>
	<time>2025-02-15T11:54:51.000Z</time>
</trkpt>
<trkpt lat="45.8549390" lon="9.1966600">
	<ele>1153.20</ele>
	<time>2025-02-15T11:54:52.000Z</time>
</trkpt>
<trkpt lat="45.8549450" lon="9.1966620">
	<ele>1153.00</ele>
	<time>2025-02-15T11:54:53.000Z</time>
</trkpt>
<trkpt lat="45.8549460" lon="9.1966690">
	<ele>1152.60</ele>
	<time>2025-02-15T11:54:54.000Z</time>
</trkpt>
<trkpt lat="45.8549430" lon="9.1966750">
	<ele>1152.40</ele>
	<time>2025-02-15T11:54:55.000Z</time>
</trkpt>
<trkpt lat="45.8549380" lon="9.1966830">
	<ele>1152.20</ele>
	<time>2025-02-15T11:54:56.000Z</time>
</trkpt>
<trkpt lat="45.8549360" lon="9.1966890">
	<ele>1152.20</ele>
	<time>2025-02-15T11:54:57.000Z</time>
</trkpt>
<trkpt lat="45.8549430" lon="9.1966920">
	<ele>1152.20</ele>
	<time>2025-02-15T11:54:58.000Z</time>
</trkpt>
<trkpt lat="45.8549550" lon="9.1966920">
	<ele>1152.20</ele>
	<time>2025-02-15T11:54:59.000Z</time>
</trkpt>
<trkpt lat="45.8549660" lon="9.1966920">
	<ele>1152.00</ele>
	<time>2025-02-15T11:55:00.000Z</time>
</trkpt>
<trkpt lat="45.8549700" lon="9.1966850">
	<ele>1151.20</ele>
	<time>2025-02-15T11:55:01.000Z</time>
</trkpt>
<trkpt lat="45.8549720" lon="9.1966790">
	<ele>1150.80</ele>
	<time>2025-02-15T11:55:02.000Z</time>
</trkpt>
<trkpt lat="45.8549730" lon="9.1966720">
	<ele>1150.60</ele>
	<time>2025-02-15T11:55:03.000Z</time>
</trkpt>
<trkpt lat="45.8549700" lon="9.1966610">
	<ele>1150.60</ele>
	<time>2025-02-15T11:55:04.000Z</time>
</trkpt>
<trkpt lat="45.8549690" lon="9.1966460">
	<ele>1150.60</ele>
	<time>2025-02-15T11:55:05.000Z</time>
</trkpt>
<trkpt lat="45.8549590" lon="9.1966340">
	<ele>1150.60</ele>
	<time>2025-02-15T11:55:06.000Z</time>
</trkpt>
<trkpt lat="45.8549480" lon="9.1966220">
	<ele>1150.40</ele>
	<time>2025-02-15T11:55:07.000Z</time>
</trkpt>
<trkpt lat="45.8549410" lon="9.1966120">
	<ele>1150.20</ele>
	<time>2025-02-15T11:55:08.000Z</time>
</trkpt>
<trkpt lat="45.8549300" lon="9.1966020">
	<ele>1150.20</ele>
	<time>2025-02-15T11:55:09.000Z</time>
</trkpt>
<trkpt lat="45.8549150" lon="9.1965990">
	<ele>1150.20</ele>
	<time>2025-02-15T11:55:10.000Z</time>
</trkpt>
<trkpt lat="45.8549110" lon="9.1965960">
	<ele>1150.00</ele>
	<time>2025-02-15T11:55:11.000Z</time>
</trkpt>
<trkpt lat="45.8548980" lon="9.1966010">
	<ele>1150.00</ele>
	<time>2025-02-15T11:55:12.000Z</time>
</trkpt>
<trkpt lat="45.8548830" lon="9.1965990">
	<ele>1149.80</ele>
	<time>2025-02-15T11:55:13.000Z</time>
</trkpt>
<trkpt lat="45.8548760" lon="9.1965950">
	<ele>1149.60</ele>
	<time>2025-02-15T11:55:14.000Z</time>
</trkpt>
<trkpt lat="45.8548720" lon="9.1965890">
	<ele>1149.20</ele>
	<time>2025-02-15T11:55:15.000Z</time>
</trkpt>
<trkpt lat="45.8548870" lon="9.1965810">
	<ele>1149.00</ele>
	<time>2025-02-15T11:55:16.000Z</time>
</trkpt>
<trkpt lat="45.8548960" lon="9.1965750">
	<ele>1148.80</ele>
	<time>2025-02-15T11:55:17.000Z</time>
</trkpt>
<trkpt lat="45.8548930" lon="9.1965690">
	<ele>1148.60</ele>
	<time>2025-02-15T11:55:18.000Z</time>
</trkpt>
<trkpt lat="45.8548920" lon="9.1965650">
	<ele>1148.40</ele>
	<time>2025-02-15T11:55:19.000Z</time>
</trkpt>
<trkpt lat="45.8548890" lon="9.1965650">
	<ele>1147.80</ele>
	<time>2025-02-15T11:55:20.000Z</time>
</trkpt>
<trkpt lat="45.8548730" lon="9.1965610">
	<ele>1147.60</ele>
	<time>2025-02-15T11:55:21.000Z</time>
</trkpt>
<trkpt lat="45.8548690" lon="9.1965610">
	<ele>1147.40</ele>
	<time>2025-02-15T11:55:22.000Z</time>
</trkpt>
<trkpt lat="45.8548670" lon="9.1965620">
	<ele>1147.20</ele>
	<time>2025-02-15T11:55:23.000Z</time>
</trkpt>
<trkpt lat="45.8548690" lon="9.1965530">
	<ele>1147.00</ele>
	<time>2025-02-15T11:55:24.000Z</time>
</trkpt>
<trkpt lat="45.8548700" lon="9.1965490">
	<ele>1147.00</ele>
	<time>2025-02-15T11:55:25.000Z</time>
</trkpt>
<trkpt lat="45.8548670" lon="9.1965480">
	<ele>1146.80</ele>
	<time>2025-02-15T11:55:26.000Z</time>
</trkpt>
<trkpt lat="45.8548610" lon="9.1965430">
	<ele>1146.40</ele>
	<time>2025-02-15T11:55:27.000Z</time>
</trkpt>
<trkpt lat="45.8548610" lon="9.1965310">
	<ele>1146.00</ele>
	<time>2025-02-15T11:55:28.000Z</time>
</trkpt>
<trkpt lat="45.8548580" lon="9.1965260">
	<ele>1145.60</ele>
	<time>2025-02-15T11:55:29.000Z</time>
</trkpt>
<trkpt lat="45.8548560" lon="9.1965260">
	<ele>1145.60</ele>
	<time>2025-02-15T11:55:30.000Z</time>
</trkpt>
<trkpt lat="45.8548490" lon="9.1965090">
	<ele>1145.40</ele>
	<time>2025-02-15T11:55:31.000Z</time>
</trkpt>
<trkpt lat="45.8548360" lon="9.1964940">
	<ele>1145.40</ele>
	<time>2025-02-15T11:55:32.000Z</time>
</trkpt>
<trkpt lat="45.8548420" lon="9.1964800">
	<ele>1145.20</ele>
	<time>2025-02-15T11:55:33.000Z</time>
</trkpt>
<trkpt lat="45.8548420" lon="9.1964720">
	<ele>1145.00</ele>
	<time>2025-02-15T11:55:34.000Z</time>
</trkpt>
<trkpt lat="45.8548420" lon="9.1964640">
	<ele>1145.00</ele>
	<time>2025-02-15T11:55:35.000Z</time>
</trkpt>
<trkpt lat="45.8548280" lon="9.1964560">
	<ele>1145.00</ele>
	<time>2025-02-15T11:55:36.000Z</time>
</trkpt>
<trkpt lat="45.8548140" lon="9.1964490">
	<ele>1145.00</ele>
	<time>2025-02-15T11:55:37.000Z</time>
</trkpt>
<trkpt lat="45.8548010" lon="9.1964470">
	<ele>1144.80</ele>
	<time>2025-02-15T11:55:38.000Z</time>
</trkpt>
<trkpt lat="45.8547960" lon="9.1964410">
	<ele>1144.40</ele>
	<time>2025-02-15T11:55:39.000Z</time>
</trkpt>
<trkpt lat="45.8547690" lon="9.1964320">
	<ele>1144.20</ele>
	<time>2025-02-15T11:55:40.000Z</time>
</trkpt>
<trkpt lat="45.8547540" lon="9.1964220">
	<ele>1144.00</ele>
	<time>2025-02-15T11:55:41.000Z</time>
</trkpt>
<trkpt lat="45.8547450" lon="9.1964130">
	<ele>1144.00</ele>
	<time>2025-02-15T11:55:42.000Z</time>
</trkpt>
<trkpt lat="45.8547380" lon="9.1964070">
	<ele>1143.60</ele>
	<time>2025-02-15T11:55:43.000Z</time>
</trkpt>
<trkpt lat="45.8547400" lon="9.1964030">
	<ele>1143.40</ele>
	<time>2025-02-15T11:55:44.000Z</time>
</trkpt>
<trkpt lat="45.8547450" lon="9.1964020">
	<ele>1143.20</ele>
	<time>2025-02-15T11:55:45.000Z</time>
</trkpt>
<trkpt lat="45.8547430" lon="9.1963970">
	<ele>1143.20</ele>
	<time>2025-02-15T11:55:46.000Z</time>
</trkpt>
<trkpt lat="45.8547420" lon="9.1963940">
	<ele>1143.00</ele>
	<time>2025-02-15T11:55:47.000Z</time>
</trkpt>
<trkpt lat="45.8547520" lon="9.1963750">
	<ele>1142.80</ele>
	<time>2025-02-15T11:55:48.000Z</time>
</trkpt>
<trkpt lat="45.8547570" lon="9.1963540">
	<ele>1142.40</ele>
	<time>2025-02-15T11:55:49.000Z</time>
</trkpt>
<trkpt lat="45.8547560" lon="9.1963430">
	<ele>1142.40</ele>
	<time>2025-02-15T11:55:50.000Z</time>
</trkpt>
<trkpt lat="45.8547420" lon="9.1963360">
	<ele>1142.00</ele>
	<time>2025-02-15T11:55:51.000Z</time>
</trkpt>
<trkpt lat="45.8547250" lon="9.1963330">
	<ele>1141.80</ele>
	<time>2025-02-15T11:55:52.000Z</time>
</trkpt>
<trkpt lat="45.8547070" lon="9.1963350">
	<ele>1141.80</ele>
	<time>2025-02-15T11:55:53.000Z</time>
</trkpt>
<trkpt lat="45.8547020" lon="9.1963310">
	<ele>1141.60</ele>
	<time>2025-02-15T11:55:54.000Z</time>
</trkpt>
<trkpt lat="45.8546970" lon="9.1963180">
	<ele>1141.60</ele>
	<time>2025-02-15T11:55:55.000Z</time>
</trkpt>
<trkpt lat="45.8546910" lon="9.1963080">
	<ele>1141.60</ele>
	<time>2025-02-15T11:55:56.000Z</time>
</trkpt>
<trkpt lat="45.8546910" lon="9.1962970">
	<ele>1141.60</ele>
	<time>2025-02-15T11:55:57.000Z</time>
</trkpt>
<trkpt lat="45.8546890" lon="9.1962870">
	<ele>1141.60</ele>
	<time>2025-02-15T11:55:58.000Z</time>
</trkpt>
<trkpt lat="45.8546870" lon="9.1962750">
	<ele>1141.60</ele>
	<time>2025-02-15T11:55:59.000Z</time>
</trkpt>
<trkpt lat="45.8546900" lon="9.1962630">
	<ele>1141.60</ele>
	<time>2025-02-15T11:56:00.000Z</time>
</trkpt>
<trkpt lat="45.8546860" lon="9.1962540">
	<ele>1141.60</ele>
	<time>2025-02-15T11:56:01.000Z</time>
</trkpt>
<trkpt lat="45.8546800" lon="9.1962470">
	<ele>1141.60</ele>
	<time>2025-02-15T11:56:02.000Z</time>
</trkpt>
<trkpt lat="45.8546780" lon="9.1962420">
	<ele>1141.80</ele>
	<time>2025-02-15T11:56:03.000Z</time>
</trkpt>
<trkpt lat="45.8546780" lon="9.1962300">
	<ele>1141.80</ele>
	<time>2025-02-15T11:56:04.000Z</time>
</trkpt>
<trkpt lat="45.8546790" lon="9.1962250">
	<ele>1141.80</ele>
	<time>2025-02-15T11:56:05.000Z</time>
</trkpt>
<trkpt lat="45.8546790" lon="9.1962200">
	<ele>1141.80</ele>
	<time>2025-02-15T11:56:06.000Z</time>
</trkpt>
<trkpt lat="45.8546790" lon="9.1962140">
	<ele>1141.80</ele>
	<time>2025-02-15T11:56:07.000Z</time>
</trkpt>
<trkpt lat="45.8546820" lon="9.1962020">
	<ele>1142.00</ele>
	<time>2025-02-15T11:56:08.000Z</time>
</trkpt>
<trkpt lat="45.8546820" lon="9.1961950">
	<ele>1141.80</ele>
	<time>2025-02-15T11:56:09.000Z</time>
</trkpt>
<trkpt lat="45.8546740" lon="9.1961880">
	<ele>1141.80</ele>
	<time>2025-02-15T11:56:10.000Z</time>
</trkpt>
<trkpt lat="45.8546710" lon="9.1961840">
	<ele>1141.80</ele>
	<time>2025-02-15T11:56:11.000Z</time>
</trkpt>
<trkpt lat="45.8546770" lon="9.1961780">
	<ele>1142.00</ele>
	<time>2025-02-15T11:56:12.000Z</time>
</trkpt>
<trkpt lat="45.8546780" lon="9.1961770">
	<ele>1142.00</ele>
	<time>2025-02-15T11:56:13.000Z</time>
</trkpt>
<trkpt lat="45.8546790" lon="9.1961770">
	<ele>1142.00</ele>
	<time>2025-02-15T11:56:14.000Z</time>
</trkpt>
<trkpt lat="45.8546790" lon="9.1961760">
	<ele>1141.80</ele>
	<time>2025-02-15T11:56:15.000Z</time>
</trkpt>
<trkpt lat="45.8546770" lon="9.1961740">
	<ele>1142.00</ele>
	<time>2025-02-15T11:56:16.000Z</time>
</trkpt>
<trkpt lat="45.8546830" lon="9.1961620">
	<ele>1141.80</ele>
	<time>2025-02-15T11:56:17.000Z</time>
</trkpt>
<trkpt lat="45.8546800" lon="9.1961560">
	<ele>1141.80</ele>
	<time>2025-02-15T11:56:18.000Z</time>
</trkpt>
<trkpt lat="45.8546700" lon="9.1961490">
	<ele>1141.80</ele>
	<time>2025-02-15T11:56:19.000Z</time>
</trkpt>
<trkpt lat="45.8546780" lon="9.1961470">
	<ele>1141.60</ele>
	<time>2025-02-15T11:56:20.000Z</time>
</trkpt>
<trkpt lat="45.8546780" lon="9.1961470">
	<ele>1141.40</ele>
	<time>2025-02-15T11:56:21.000Z</time>
</trkpt>
<trkpt lat="45.8546780" lon="9.1961470">
	<ele>1141.20</ele>
	<time>2025-02-15T11:56:22.000Z</time>
</trkpt>
<trkpt lat="45.8546780" lon="9.1961470">
	<ele>1141.20</ele>
	<time>2025-02-15T11:56:23.000Z</time>
</trkpt>
<trkpt lat="45.8546780" lon="9.1961470">
	<ele>1141.00</ele>
	<time>2025-02-15T11:56:24.000Z</time>
</trkpt>
<trkpt lat="45.8546780" lon="9.1961470">
	<ele>1140.80</ele>
	<time>2025-02-15T11:56:25.000Z</time>
</trkpt>
<trkpt lat="45.8546780" lon="9.1961470">
	<ele>1140.80</ele>
	<time>2025-02-15T11:56:26.000Z</time>
</trkpt>
<trkpt lat="45.8546780" lon="9.1961470">
	<ele>1140.60</ele>
	<time>2025-02-15T11:56:27.000Z</time>
</trkpt>
<trkpt lat="45.8546750" lon="9.1961440">
	<ele>1140.60</ele>
	<time>2025-02-15T11:56:28.000Z</time>
</trkpt>
<trkpt lat="45.8546580" lon="9.1961370">
	<ele>1140.60</ele>
	<time>2025-02-15T11:56:29.000Z</time>
</trkpt>
<trkpt lat="45.8546390" lon="9.1961220">
	<ele>1140.20</ele>
	<time>2025-02-15T11:56:30.000Z</time>
</trkpt>
<trkpt lat="45.8546260" lon="9.1961120">
	<ele>1140.00</ele>
	<time>2025-02-15T11:56:31.000Z</time>
</trkpt>
<trkpt lat="45.8546100" lon="9.1961010">
	<ele>1139.80</ele>
	<time>2025-02-15T11:56:32.000Z</time>
</trkpt>
<trkpt lat="45.8545960" lon="9.1960890">
	<ele>1139.60</ele>
	<time>2025-02-15T11:56:33.000Z</time>
</trkpt>
<trkpt lat="45.8545840" lon="9.1960780">
	<ele>1139.60</ele>
	<time>2025-02-15T11:56:34.000Z</time>
</trkpt>
<trkpt lat="45.8545720" lon="9.1960750">
	<ele>1139.60</ele>
	<time>2025-02-15T11:56:35.000Z</time>
</trkpt>
<trkpt lat="45.8545580" lon="9.1960680">
	<ele>1139.40</ele>
	<time>2025-02-15T11:56:36.000Z</time>
</trkpt>
<trkpt lat="45.8545500" lon="9.1960600">
	<ele>1139.40</ele>
	<time>2025-02-15T11:56:37.000Z</time>
</trkpt>
<trkpt lat="45.8545480" lon="9.1960590">
	<ele>1139.40</ele>
	<time>2025-02-15T11:56:38.000Z</time>
</trkpt>
<trkpt lat="45.8545470" lon="9.1960560">
	<ele>1139.40</ele>
	<time>2025-02-15T11:56:39.000Z</time>
</trkpt>
<trkpt lat="45.8545430" lon="9.1960430">
	<ele>1139.40</ele>
	<time>2025-02-15T11:56:40.000Z</time>
</trkpt>
<trkpt lat="45.8545320" lon="9.1960310">
	<ele>1139.20</ele>
	<time>2025-02-15T11:56:41.000Z</time>
</trkpt>
<trkpt lat="45.8545280" lon="9.1960150">
	<ele>1139.20</ele>
	<time>2025-02-15T11:56:42.000Z</time>
</trkpt>
<trkpt lat="45.8545230" lon="9.1959930">
	<ele>1139.00</ele>
	<time>2025-02-15T11:56:43.000Z</time>
</trkpt>
<trkpt lat="45.8545240" lon="9.1959730">
	<ele>1138.80</ele>
	<time>2025-02-15T11:56:44.000Z</time>
</trkpt>
<trkpt lat="45.8545190" lon="9.1959590">
	<ele>1138.80</ele>
	<time>2025-02-15T11:56:45.000Z</time>
</trkpt>
<trkpt lat="45.8545270" lon="9.1959490">
	<ele>1138.80</ele>
	<time>2025-02-15T11:56:46.000Z</time>
</trkpt>
<trkpt lat="45.8545210" lon="9.1959380">
	<ele>1138.60</ele>
	<time>2025-02-15T11:56:47.000Z</time>
</trkpt>
<trkpt lat="45.8545060" lon="9.1959280">
	<ele>1138.60</ele>
	<time>2025-02-15T11:56:48.000Z</time>
</trkpt>
<trkpt lat="45.8545010" lon="9.1959170">
	<ele>1138.40</ele>
	<time>2025-02-15T11:56:49.000Z</time>
</trkpt>
<trkpt lat="45.8544980" lon="9.1959040">
	<ele>1138.40</ele>
	<time>2025-02-15T11:56:50.000Z</time>
</trkpt>
<trkpt lat="45.8544920" lon="9.1958960">
	<ele>1138.40</ele>
	<time>2025-02-15T11:56:51.000Z</time>
</trkpt>
<trkpt lat="45.8544810" lon="9.1958850">
	<ele>1138.20</ele>
	<time>2025-02-15T11:56:52.000Z</time>
</trkpt>
<trkpt lat="45.8544640" lon="9.1958810">
	<ele>1137.80</ele>
	<time>2025-02-15T11:56:53.000Z</time>
</trkpt>
<trkpt lat="45.8544410" lon="9.1958720">
	<ele>1137.40</ele>
	<time>2025-02-15T11:56:54.000Z</time>
</trkpt>
<trkpt lat="45.8544280" lon="9.1958610">
	<ele>1137.40</ele>
	<time>2025-02-15T11:56:55.000Z</time>
</trkpt>
<trkpt lat="45.8544260" lon="9.1958460">
	<ele>1137.20</ele>
	<time>2025-02-15T11:56:56.000Z</time>
</trkpt>
<trkpt lat="45.8544280" lon="9.1958340">
	<ele>1137.00</ele>
	<time>2025-02-15T11:56:57.000Z</time>
</trkpt>
<trkpt lat="45.8544230" lon="9.1958160">
	<ele>1137.00</ele>
	<time>2025-02-15T11:56:58.000Z</time>
</trkpt>
<trkpt lat="45.8544200" lon="9.1957870">
	<ele>1137.00</ele>
	<time>2025-02-15T11:56:59.000Z</time>
</trkpt>
<trkpt lat="45.8544180" lon="9.1957630">
	<ele>1136.80</ele>
	<time>2025-02-15T11:57:00.000Z</time>
</trkpt>
<trkpt lat="45.8543930" lon="9.1957430">
	<ele>1136.80</ele>
	<time>2025-02-15T11:57:01.000Z</time>
</trkpt>
<trkpt lat="45.8543510" lon="9.1957190">
	<ele>1136.80</ele>
	<time>2025-02-15T11:57:02.000Z</time>
</trkpt>
<trkpt lat="45.8543390" lon="9.1957120">
	<ele>1137.00</ele>
	<time>2025-02-15T11:57:03.000Z</time>
</trkpt>
<trkpt lat="45.8543360" lon="9.1957140">
	<ele>1137.00</ele>
	<time>2025-02-15T11:57:04.000Z</time>
</trkpt>
<trkpt lat="45.8543270" lon="9.1957170">
	<ele>1137.00</ele>
	<time>2025-02-15T11:57:05.000Z</time>
</trkpt>
<trkpt lat="45.8543280" lon="9.1957130">
	<ele>1137.00</ele>
	<time>2025-02-15T11:57:06.000Z</time>
</trkpt>
<trkpt lat="45.8543230" lon="9.1957100">
	<ele>1136.20</ele>
	<time>2025-02-15T11:57:07.000Z</time>
</trkpt>
<trkpt lat="45.8543190" lon="9.1957090">
	<ele>1135.80</ele>
	<time>2025-02-15T11:57:08.000Z</time>
</trkpt>
<trkpt lat="45.8543150" lon="9.1957070">
	<ele>1135.40</ele>
	<time>2025-02-15T11:57:09.000Z</time>
</trkpt>
<trkpt lat="45.8543370" lon="9.1957140">
	<ele>1135.20</ele>
	<time>2025-02-15T11:57:10.000Z</time>
</trkpt>
<trkpt lat="45.8543360" lon="9.1957130">
	<ele>1135.00</ele>
	<time>2025-02-15T11:57:11.000Z</time>
</trkpt>
<trkpt lat="45.8543420" lon="9.1957060">
	<ele>1134.80</ele>
	<time>2025-02-15T11:57:12.000Z</time>
</trkpt>
<trkpt lat="45.8543390" lon="9.1956980">
	<ele>1134.60</ele>
	<time>2025-02-15T11:57:13.000Z</time>
</trkpt>
<trkpt lat="45.8543310" lon="9.1956970">
	<ele>1134.40</ele>
	<time>2025-02-15T11:57:14.000Z</time>
</trkpt>
<trkpt lat="45.8543210" lon="9.1956900">
	<ele>1134.20</ele>
	<time>2025-02-15T11:57:15.000Z</time>
</trkpt>
<trkpt lat="45.8543090" lon="9.1956860">
	<ele>1134.20</ele>
	<time>2025-02-15T11:57:16.000Z</time>
</trkpt>
<trkpt lat="45.8543270" lon="9.1956840">
	<ele>1133.60</ele>
	<time>2025-02-15T11:57:17.000Z</time>
</trkpt>
<trkpt lat="45.8543200" lon="9.1956860">
	<ele>1133.20</ele>
	<time>2025-02-15T11:57:18.000Z</time>
</trkpt>
<trkpt lat="45.8543180" lon="9.1956870">
	<ele>1133.00</ele>
	<time>2025-02-15T11:57:19.000Z</time>
</trkpt>
<trkpt lat="45.8543130" lon="9.1956780">
	<ele>1132.40</ele>
	<time>2025-02-15T11:57:20.000Z</time>
</trkpt>
<trkpt lat="45.8543130" lon="9.1956680">
	<ele>1132.20</ele>
	<time>2025-02-15T11:57:21.000Z</time>
</trkpt>
<trkpt lat="45.8543160" lon="9.1956540">
	<ele>1132.00</ele>
	<time>2025-02-15T11:57:22.000Z</time>
</trkpt>
<trkpt lat="45.8543180" lon="9.1956390">
	<ele>1131.80</ele>
	<time>2025-02-15T11:57:23.000Z</time>
</trkpt>
<trkpt lat="45.8543140" lon="9.1956210">
	<ele>1131.80</ele>
	<time>2025-02-15T11:57:24.000Z</time>
</trkpt>
<trkpt lat="45.8543130" lon="9.1956100">
	<ele>1131.60</ele>
	<time>2025-02-15T11:57:25.000Z</time>
</trkpt>
<trkpt lat="45.8543180" lon="9.1955900">
	<ele>1131.40</ele>
	<time>2025-02-15T11:57:26.000Z</time>
</trkpt>
<trkpt lat="45.8543120" lon="9.1955720">
	<ele>1131.20</ele>
	<time>2025-02-15T11:57:27.000Z</time>
</trkpt>
<trkpt lat="45.8543010" lon="9.1955550">
	<ele>1131.00</ele>
	<time>2025-02-15T11:57:28.000Z</time>
</trkpt>
<trkpt lat="45.8542900" lon="9.1955450">
	<ele>1130.80</ele>
	<time>2025-02-15T11:57:29.000Z</time>
</trkpt>
<trkpt lat="45.8542800" lon="9.1955430">
	<ele>1130.60</ele>
	<time>2025-02-15T11:57:30.000Z</time>
</trkpt>
<trkpt lat="45.8542700" lon="9.1955370">
	<ele>1130.40</ele>
	<time>2025-02-15T11:57:31.000Z</time>
</trkpt>
<trkpt lat="45.8542590" lon="9.1955330">
	<ele>1130.20</ele>
	<time>2025-02-15T11:57:32.000Z</time>
</trkpt>
<trkpt lat="45.8542460" lon="9.1955320">
	<ele>1130.00</ele>
	<time>2025-02-15T11:57:33.000Z</time>
</trkpt>
<trkpt lat="45.8542240" lon="9.1955290">
	<ele>1130.00</ele>
	<time>2025-02-15T11:57:34.000Z</time>
</trkpt>
<trkpt lat="45.8542090" lon="9.1955250">
	<ele>1129.80</ele>
	<time>2025-02-15T11:57:35.000Z</time>
</trkpt>
<trkpt lat="45.8541970" lon="9.1955200">
	<ele>1129.60</ele>
	<time>2025-02-15T11:57:36.000Z</time>
</trkpt>
<trkpt lat="45.8542000" lon="9.1955160">
	<ele>1129.20</ele>
	<time>2025-02-15T11:57:37.000Z</time>
</trkpt>
<trkpt lat="45.8542060" lon="9.1955090">
	<ele>1128.80</ele>
	<time>2025-02-15T11:57:38.000Z</time>
</trkpt>
<trkpt lat="45.8542130" lon="9.1955080">
	<ele>1128.60</ele>
	<time>2025-02-15T11:57:39.000Z</time>
</trkpt>
<trkpt lat="45.8542070" lon="9.1955100">
	<ele>1128.60</ele>
	<time>2025-02-15T11:57:40.000Z</time>
</trkpt>
<trkpt lat="45.8542020" lon="9.1955050">
	<ele>1128.20</ele>
	<time>2025-02-15T11:57:41.000Z</time>
</trkpt>
<trkpt lat="45.8541990" lon="9.1955060">
	<ele>1128.00</ele>
	<time>2025-02-15T11:57:42.000Z</time>
</trkpt>
<trkpt lat="45.8541990" lon="9.1954960">
	<ele>1128.00</ele>
	<time>2025-02-15T11:57:43.000Z</time>
</trkpt>
<trkpt lat="45.8542020" lon="9.1954810">
	<ele>1127.80</ele>
	<time>2025-02-15T11:57:44.000Z</time>
</trkpt>
<trkpt lat="45.8542060" lon="9.1954680">
	<ele>1127.60</ele>
	<time>2025-02-15T11:57:45.000Z</time>
</trkpt>
<trkpt lat="45.8542000" lon="9.1954590">
	<ele>1127.60</ele>
	<time>2025-02-15T11:57:46.000Z</time>
</trkpt>
<trkpt lat="45.8541860" lon="9.1954550">
	<ele>1127.40</ele>
	<time>2025-02-15T11:57:47.000Z</time>
</trkpt>
<trkpt lat="45.8541830" lon="9.1954510">
	<ele>1127.20</ele>
	<time>2025-02-15T11:57:48.000Z</time>
</trkpt>
<trkpt lat="45.8541770" lon="9.1954500">
	<ele>1126.80</ele>
	<time>2025-02-15T11:57:49.000Z</time>
</trkpt>
<trkpt lat="45.8541730" lon="9.1954470">
	<ele>1126.80</ele>
	<time>2025-02-15T11:57:50.000Z</time>
</trkpt>
<trkpt lat="45.8541750" lon="9.1954370">
	<ele>1126.60</ele>
	<time>2025-02-15T11:57:51.000Z</time>
</trkpt>
<trkpt lat="45.8541780" lon="9.1954270">
	<ele>1126.40</ele>
	<time>2025-02-15T11:57:52.000Z</time>
</trkpt>
<trkpt lat="45.8541810" lon="9.1954210">
	<ele>1126.00</ele>
	<time>2025-02-15T11:57:53.000Z</time>
</trkpt>
<trkpt lat="45.8541790" lon="9.1954200">
	<ele>1125.80</ele>
	<time>2025-02-15T11:57:54.000Z</time>
</trkpt>
<trkpt lat="45.8541690" lon="9.1954200">
	<ele>1125.60</ele>
	<time>2025-02-15T11:57:55.000Z</time>
</trkpt>
<trkpt lat="45.8541630" lon="9.1954090">
	<ele>1125.40</ele>
	<time>2025-02-15T11:57:56.000Z</time>
</trkpt>
<trkpt lat="45.8541530" lon="9.1953960">
	<ele>1125.40</ele>
	<time>2025-02-15T11:57:57.000Z</time>
</trkpt>
<trkpt lat="45.8541470" lon="9.1953890">
	<ele>1125.20</ele>
	<time>2025-02-15T11:57:58.000Z</time>
</trkpt>
<trkpt lat="45.8541450" lon="9.1953800">
	<ele>1125.00</ele>
	<time>2025-02-15T11:57:59.000Z</time>
</trkpt>
<trkpt lat="45.8541490" lon="9.1953710">
	<ele>1125.00</ele>
	<time>2025-02-15T11:58:00.000Z</time>
</trkpt>
<trkpt lat="45.8541440" lon="9.1953650">
	<ele>1125.00</ele>
	<time>2025-02-15T11:58:01.000Z</time>
</trkpt>
<trkpt lat="45.8541410" lon="9.1953610">
	<ele>1124.80</ele>
	<time>2025-02-15T11:58:02.000Z</time>
</trkpt>
<trkpt lat="45.8541390" lon="9.1953580">
	<ele>1124.60</ele>
	<time>2025-02-15T11:58:03.000Z</time>
</trkpt>
<trkpt lat="45.8541350" lon="9.1953490">
	<ele>1124.40</ele>
	<time>2025-02-15T11:58:04.000Z</time>
</trkpt>
<trkpt lat="45.8541240" lon="9.1953450">
	<ele>1124.20</ele>
	<time>2025-02-15T11:58:05.000Z</time>
</trkpt>
<trkpt lat="45.8541100" lon="9.1953400">
	<ele>1124.00</ele>
	<time>2025-02-15T11:58:06.000Z</time>
</trkpt>
<trkpt lat="45.8540990" lon="9.1953390">
	<ele>1123.80</ele>
	<time>2025-02-15T11:58:07.000Z</time>
</trkpt>
<trkpt lat="45.8540970" lon="9.1953400">
	<ele>1123.80</ele>
	<time>2025-02-15T11:58:08.000Z</time>
</trkpt>
<trkpt lat="45.8540960" lon="9.1953410">
	<ele>1123.60</ele>
	<time>2025-02-15T11:58:09.000Z</time>
</trkpt>
<trkpt lat="45.8540950" lon="9.1953410">
	<ele>1123.00</ele>
	<time>2025-02-15T11:58:10.000Z</time>
</trkpt>
<trkpt lat="45.8540930" lon="9.1953380">
	<ele>1122.80</ele>
	<time>2025-02-15T11:58:11.000Z</time>
</trkpt>
<trkpt lat="45.8540760" lon="9.1953480">
	<ele>1122.40</ele>
	<time>2025-02-15T11:58:12.000Z</time>
</trkpt>
<trkpt lat="45.8540650" lon="9.1953530">
	<ele>1122.40</ele>
	<time>2025-02-15T11:58:13.000Z</time>
</trkpt>
<trkpt lat="45.8540670" lon="9.1953500">
	<ele>1122.20</ele>
	<time>2025-02-15T11:58:14.000Z</time>
</trkpt>
<trkpt lat="45.8540660" lon="9.1953660">
	<ele>1122.20</ele>
	<time>2025-02-15T11:58:15.000Z</time>
</trkpt>
<trkpt lat="45.8540600" lon="9.1953740">
	<ele>1121.80</ele>
	<time>2025-02-15T11:58:16.000Z</time>
</trkpt>
<trkpt lat="45.8540620" lon="9.1953790">
	<ele>1121.60</ele>
	<time>2025-02-15T11:58:17.000Z</time>
</trkpt>
<trkpt lat="45.8540610" lon="9.1953790">
	<ele>1121.40</ele>
	<time>2025-02-15T11:58:18.000Z</time>
</trkpt>
<trkpt lat="45.8540610" lon="9.1953760">
	<ele>1121.40</ele>
	<time>2025-02-15T11:58:19.000Z</time>
</trkpt>
<trkpt lat="45.8540570" lon="9.1953740">
	<ele>1121.20</ele>
	<time>2025-02-15T11:58:20.000Z</time>
</trkpt>
<trkpt lat="45.8540520" lon="9.1953720">
	<ele>1121.20</ele>
	<time>2025-02-15T11:58:21.000Z</time>
</trkpt>
<trkpt lat="45.8540480" lon="9.1953700">
	<ele>1121.20</ele>
	<time>2025-02-15T11:58:22.000Z</time>
</trkpt>
<trkpt lat="45.8540450" lon="9.1953670">
	<ele>1121.20</ele>
	<time>2025-02-15T11:58:23.000Z</time>
</trkpt>
<trkpt lat="45.8540440" lon="9.1953640">
	<ele>1121.20</ele>
	<time>2025-02-15T11:58:24.000Z</time>
</trkpt>
<trkpt lat="45.8540460" lon="9.1953620">
	<ele>1121.20</ele>
	<time>2025-02-15T11:58:25.000Z</time>
</trkpt>
<trkpt lat="45.8540450" lon="9.1953630">
	<ele>1121.20</ele>
	<time>2025-02-15T11:58:26.000Z</time>
</trkpt>
<trkpt lat="45.8540490" lon="9.1953630">
	<ele>1121.20</ele>
	<time>2025-02-15T11:58:27.000Z</time>
</trkpt>
<trkpt lat="45.8540470" lon="9.1953610">
	<ele>1121.20</ele>
	<time>2025-02-15T11:58:28.000Z</time>
</trkpt>
<trkpt lat="45.8540340" lon="9.1953630">
	<ele>1121.00</ele>
	<time>2025-02-15T11:58:29.000Z</time>
</trkpt>
<trkpt lat="45.8540220" lon="9.1953560">
	<ele>1121.00</ele>
	<time>2025-02-15T11:58:30.000Z</time>
</trkpt>
<trkpt lat="45.8540150" lon="9.1953570">
	<ele>1121.00</ele>
	<time>2025-02-15T11:58:31.000Z</time>
</trkpt>
<trkpt lat="45.8540060" lon="9.1953590">
	<ele>1121.00</ele>
	<time>2025-02-15T11:58:32.000Z</time>
</trkpt>
<trkpt lat="45.8539990" lon="9.1953650">
	<ele>1121.00</ele>
	<time>2025-02-15T11:58:33.000Z</time>
</trkpt>
<trkpt lat="45.8540100" lon="9.1953700">
	<ele>1121.00</ele>
	<time>2025-02-15T11:58:34.000Z</time>
</trkpt>
<trkpt lat="45.8540110" lon="9.1953740">
	<ele>1121.00</ele>
	<time>2025-02-15T11:58:35.000Z</time>
</trkpt>
<trkpt lat="45.8540040" lon="9.1953750">
	<ele>1121.00</ele>
	<time>2025-02-15T11:58:36.000Z</time>
</trkpt>
<trkpt lat="45.8539990" lon="9.1953670">
	<ele>1121.00</ele>
	<time>2025-02-15T11:58:37.000Z</time>
</trkpt>
<trkpt lat="45.8539940" lon="9.1953650">
	<ele>1121.00</ele>
	<time>2025-02-15T11:58:38.000Z</time>
</trkpt>
<trkpt lat="45.8539900" lon="9.1953670">
	<ele>1121.00</ele>
	<time>2025-02-15T11:58:39.000Z</time>
</trkpt>
<trkpt lat="45.8539910" lon="9.1953630">
	<ele>1121.20</ele>
	<time>2025-02-15T11:58:40.000Z</time>
</trkpt>
<trkpt lat="45.8539870" lon="9.1953680">
	<ele>1121.20</ele>
	<time>2025-02-15T11:58:41.000Z</time>
</trkpt>
<trkpt lat="45.8539850" lon="9.1953660">
	<ele>1121.40</ele>
	<time>2025-02-15T11:58:42.000Z</time>
</trkpt>
<trkpt lat="45.8539880" lon="9.1953620">
	<ele>1121.40</ele>
	<time>2025-02-15T11:58:43.000Z</time>
</trkpt>
<trkpt lat="45.8539780" lon="9.1953640">
	<ele>1121.40</ele>
	<time>2025-02-15T11:58:44.000Z</time>
</trkpt>
<trkpt lat="45.8539710" lon="9.1953670">
	<ele>1121.60</ele>
	<time>2025-02-15T11:58:45.000Z</time>
</trkpt>
<trkpt lat="45.8539620" lon="9.1953710">
	<ele>1121.60</ele>
	<time>2025-02-15T11:58:46.000Z</time>
</trkpt>
<trkpt lat="45.8539750" lon="9.1953690">
	<ele>1121.60</ele>
	<time>2025-02-15T11:58:47.000Z</time>
</trkpt>
<trkpt lat="45.8539760" lon="9.1953660">
	<ele>1121.60</ele>
	<time>2025-02-15T11:58:48.000Z</time>
</trkpt>
<trkpt lat="45.8539780" lon="9.1953650">
	<ele>1121.60</ele>
	<time>2025-02-15T11:58:49.000Z</time>
</trkpt>
<trkpt lat="45.8539570" lon="9.1953490">
	<ele>1121.60</ele>
	<time>2025-02-15T11:58:50.000Z</time>
</trkpt>
<trkpt lat="45.8539510" lon="9.1953310">
	<ele>1121.60</ele>
	<time>2025-02-15T11:58:51.000Z</time>
</trkpt>
<trkpt lat="45.8539500" lon="9.1953180">
	<ele>1121.60</ele>
	<time>2025-02-15T11:58:52.000Z</time>
</trkpt>
<trkpt lat="45.8539560" lon="9.1953130">
	<ele>1121.60</ele>
	<time>2025-02-15T11:58:53.000Z</time>
</trkpt>
<trkpt lat="45.8539520" lon="9.1953070">
	<ele>1121.60</ele>
	<time>2025-02-15T11:58:54.000Z</time>
</trkpt>
<trkpt lat="45.8539460" lon="9.1953060">
	<ele>1121.60</ele>
	<time>2025-02-15T11:58:55.000Z</time>
</trkpt>
<trkpt lat="45.8539430" lon="9.1953050">
	<ele>1121.60</ele>
	<time>2025-02-15T11:58:56.000Z</time>
</trkpt>
<trkpt lat="45.8539420" lon="9.1953090">
	<ele>1121.60</ele>
	<time>2025-02-15T11:58:57.000Z</time>
</trkpt>
<trkpt lat="45.8539410" lon="9.1953090">
	<ele>1121.60</ele>
	<time>2025-02-15T11:58:58.000Z</time>
</trkpt>
<trkpt lat="45.8539410" lon="9.1953050">
	<ele>1121.60</ele>
	<time>2025-02-15T11:58:59.000Z</time>
</trkpt>
<trkpt lat="45.8539440" lon="9.1953100">
	<ele>1121.60</ele>
	<time>2025-02-15T11:59:00.000Z</time>
</trkpt>
<trkpt lat="45.8539460" lon="9.1953120">
	<ele>1121.60</ele>
	<time>2025-02-15T11:59:01.000Z</time>
</trkpt>
<trkpt lat="45.8539430" lon="9.1953130">
	<ele>1121.60</ele>
	<time>2025-02-15T11:59:02.000Z</time>
</trkpt>
<trkpt lat="45.8539370" lon="9.1953110">
	<ele>1121.60</ele>
	<time>2025-02-15T11:59:03.000Z</time>
</trkpt>
<trkpt lat="45.8539360" lon="9.1953100">
	<ele>1121.40</ele>
	<time>2025-02-15T11:59:04.000Z</time>
</trkpt>
<trkpt lat="45.8539360" lon="9.1953060">
	<ele>1121.40</ele>
	<time>2025-02-15T11:59:05.000Z</time>
</trkpt>
<trkpt lat="45.8539350" lon="9.1953060">
	<ele>1121.20</ele>
	<time>2025-02-15T11:59:06.000Z</time>
</trkpt>
<trkpt lat="45.8539310" lon="9.1953100">
	<ele>1121.20</ele>
	<time>2025-02-15T11:59:07.000Z</time>
</trkpt>
<trkpt lat="45.8539250" lon="9.1953150">
	<ele>1121.20</ele>
	<time>2025-02-15T11:59:08.000Z</time>
</trkpt>
<trkpt lat="45.8539180" lon="9.1953300">
	<ele>1121.20</ele>
	<time>2025-02-15T11:59:09.000Z</time>
</trkpt>
<trkpt lat="45.8539160" lon="9.1953320">
	<ele>1121.20</ele>
	<time>2025-02-15T11:59:10.000Z</time>
</trkpt>
<trkpt lat="45.8539160" lon="9.1953400">
	<ele>1121.20</ele>
	<time>2025-02-15T11:59:11.000Z</time>
</trkpt>
<trkpt lat="45.8539130" lon="9.1953420">
	<ele>1121.00</ele>
	<time>2025-02-15T11:59:12.000Z</time>
</trkpt>
<trkpt lat="45.8539130" lon="9.1953450">
	<ele>1120.60</ele>
	<time>2025-02-15T11:59:13.000Z</time>
</trkpt>
<trkpt lat="45.8539160" lon="9.1953500">
	<ele>1120.40</ele>
	<time>2025-02-15T11:59:14.000Z</time>
</trkpt>
<trkpt lat="45.8539180" lon="9.1953530">
	<ele>1120.00</ele>
	<time>2025-02-15T11:59:15.000Z</time>
</trkpt>
<trkpt lat="45.8539190" lon="9.1953560">
	<ele>1119.60</ele>
	<time>2025-02-15T11:59:16.000Z</time>
</trkpt>
<trkpt lat="45.8539290" lon="9.1953600">
	<ele>1119.40</ele>
	<time>2025-02-15T11:59:17.000Z</time>
</trkpt>
<trkpt lat="45.8539360" lon="9.1953670">
	<ele>1119.20</ele>
	<time>2025-02-15T11:59:18.000Z</time>
</trkpt>
<trkpt lat="45.8539400" lon="9.1953770">
	<ele>1119.00</ele>
	<time>2025-02-15T11:59:19.000Z</time>
</trkpt>
<trkpt lat="45.8539400" lon="9.1953870">
	<ele>1118.60</ele>
	<time>2025-02-15T11:59:20.000Z</time>
</trkpt>
<trkpt lat="45.8539430" lon="9.1953920">
	<ele>1118.40</ele>
	<time>2025-02-15T11:59:21.000Z</time>
</trkpt>
<trkpt lat="45.8539470" lon="9.1953960">
	<ele>1118.40</ele>
	<time>2025-02-15T11:59:22.000Z</time>
</trkpt>
<trkpt lat="45.8539480" lon="9.1954080">
	<ele>1118.20</ele>
	<time>2025-02-15T11:59:23.000Z</time>
</trkpt>
<trkpt lat="45.8539460" lon="9.1954250">
	<ele>1118.00</ele>
	<time>2025-02-15T11:59:24.000Z</time>
</trkpt>
<trkpt lat="45.8539440" lon="9.1954400">
	<ele>1117.80</ele>
	<time>2025-02-15T11:59:25.000Z</time>
</trkpt>
<trkpt lat="45.8539430" lon="9.1954580">
	<ele>1117.60</ele>
	<time>2025-02-15T11:59:26.000Z</time>
</trkpt>
<trkpt lat="45.8539510" lon="9.1954700">
	<ele>1117.60</ele>
	<time>2025-02-15T11:59:27.000Z</time>
</trkpt>
<trkpt lat="45.8539660" lon="9.1954880">
	<ele>1117.40</ele>
	<time>2025-02-15T11:59:28.000Z</time>
</trkpt>
<trkpt lat="45.8539760" lon="9.1955050">
	<ele>1117.20</ele>
	<time>2025-02-15T11:59:29.000Z</time>
</trkpt>
<trkpt lat="45.8539780" lon="9.1955220">
	<ele>1117.00</ele>
	<time>2025-02-15T11:59:30.000Z</time>
</trkpt>
<trkpt lat="45.8539810" lon="9.1955240">
	<ele>1116.80</ele>
	<time>2025-02-15T11:59:31.000Z</time>
</trkpt>
<trkpt lat="45.8539840" lon="9.1955260">
	<ele>1116.80</ele>
	<time>2025-02-15T11:59:32.000Z</time>
</trkpt>
<trkpt lat="45.8539860" lon="9.1955260">
	<ele>1116.80</ele>
	<time>2025-02-15T11:59:33.000Z</time>
</trkpt>
<trkpt lat="45.8540100" lon="9.1955160">
	<ele>1116.60</ele>
	<time>2025-02-15T11:59:34.000Z</time>
</trkpt>
<trkpt lat="45.8540250" lon="9.1955160">
	<ele>1116.60</ele>
	<time>2025-02-15T11:59:35.000Z</time>
</trkpt>
<trkpt lat="45.8540350" lon="9.1955280">
	<ele>1116.40</ele>
	<time>2025-02-15T11:59:36.000Z</time>
</trkpt>
<trkpt lat="45.8540340" lon="9.1955460">
	<ele>1116.40</ele>
	<time>2025-02-15T11:59:37.000Z</time>
</trkpt>
<trkpt lat="45.8540310" lon="9.1955680">
	<ele>1116.20</ele>
	<time>2025-02-15T11:59:38.000Z</time>
</trkpt>
<trkpt lat="45.8540470" lon="9.1955900">
	<ele>1115.80</ele>
	<time>2025-02-15T11:59:39.000Z</time>
</trkpt>
<trkpt lat="45.8540430" lon="9.1956120">
	<ele>1115.60</ele>
	<time>2025-02-15T11:59:40.000Z</time>
</trkpt>
<trkpt lat="45.8540380" lon="9.1956350">
	<ele>1115.40</ele>
	<time>2025-02-15T11:59:41.000Z</time>
</trkpt>
<trkpt lat="45.8540250" lon="9.1956480">
	<ele>1115.20</ele>
	<time>2025-02-15T11:59:42.000Z</time>
</trkpt>
<trkpt lat="45.8540300" lon="9.1956600">
	<ele>1115.00</ele>
	<time>2025-02-15T11:59:43.000Z</time>
</trkpt>
<trkpt lat="45.8540340" lon="9.1956650">
	<ele>1114.80</ele>
	<time>2025-02-15T11:59:44.000Z</time>
</trkpt>
<trkpt lat="45.8540320" lon="9.1956660">
	<ele>1114.60</ele>
	<time>2025-02-15T11:59:45.000Z</time>
</trkpt>
<trkpt lat="45.8540270" lon="9.1956690">
	<ele>1114.60</ele>
	<time>2025-02-15T11:59:46.000Z</time>
</trkpt>
<trkpt lat="45.8540450" lon="9.1956750">
	<ele>1114.60</ele>
	<time>2025-02-15T11:59:47.000Z</time>
</trkpt>
<trkpt lat="45.8540530" lon="9.1956740">
	<ele>1114.60</ele>
	<time>2025-02-15T11:59:48.000Z</time>
</trkpt>
<trkpt lat="45.8540580" lon="9.1956740">
	<ele>1114.60</ele>
	<time>2025-02-15T11:59:49.000Z</time>
</trkpt>
<trkpt lat="45.8540640" lon="9.1956640">
	<ele>1114.80</ele>
	<time>2025-02-15T11:59:50.000Z</time>
</trkpt>
<trkpt lat="45.8540580" lon="9.1956560">
	<ele>1114.80</ele>
	<time>2025-02-15T11:59:51.000Z</time>
</trkpt>
<trkpt lat="45.8540600" lon="9.1956620">
	<ele>1115.00</ele>
	<time>2025-02-15T11:59:52.000Z</time>
</trkpt>
<trkpt lat="45.8540550" lon="9.1956720">
	<ele>1114.80</ele>
	<time>2025-02-15T11:59:53.000Z</time>
</trkpt>
<trkpt lat="45.8540520" lon="9.1956830">
	<ele>1114.80</ele>
	<time>2025-02-15T11:59:54.000Z</time>
</trkpt>
<trkpt lat="45.8540480" lon="9.1956920">
	<ele>1114.60</ele>
	<time>2025-02-15T11:59:55.000Z</time>
</trkpt>
<trkpt lat="45.8540480" lon="9.1957100">
	<ele>1114.60</ele>
	<time>2025-02-15T11:59:56.000Z</time>
</trkpt>
<trkpt lat="45.8540410" lon="9.1957190">
	<ele>1114.20</ele>
	<time>2025-02-15T11:59:57.000Z</time>
</trkpt>
<trkpt lat="45.8540330" lon="9.1957250">
	<ele>1114.00</ele>
	<time>2025-02-15T11:59:58.000Z</time>
</trkpt>
<trkpt lat="45.8540380" lon="9.1957360">
	<ele>1114.00</ele>
	<time>2025-02-15T11:59:59.000Z</time>
</trkpt>
<trkpt lat="45.8540420" lon="9.1957460">
	<ele>1113.80</ele>
	<time>2025-02-15T12:00:00.000Z</time>
</trkpt>
<trkpt lat="45.8540490" lon="9.1957540">
	<ele>1113.60</ele>
	<time>2025-02-15T12:00:01.000Z</time>
</trkpt>
<trkpt lat="45.8540580" lon="9.1957630">
	<ele>1113.60</ele>
	<time>2025-02-15T12:00:02.000Z</time>
</trkpt>
<trkpt lat="45.8540590" lon="9.1957720">
	<ele>1113.40</ele>
	<time>2025-02-15T12:00:03.000Z</time>
</trkpt>
<trkpt lat="45.8540560" lon="9.1957780">
	<ele>1113.40</ele>
	<time>2025-02-15T12:00:04.000Z</time>
</trkpt>
<trkpt lat="45.8540560" lon="9.1957810">
	<ele>1113.20</ele>
	<time>2025-02-15T12:00:05.000Z</time>
</trkpt>
<trkpt lat="45.8540590" lon="9.1957830">
	<ele>1113.00</ele>
	<time>2025-02-15T12:00:06.000Z</time>
</trkpt>
<trkpt lat="45.8540630" lon="9.1957830">
	<ele>1112.80</ele>
	<time>2025-02-15T12:00:07.000Z</time>
</trkpt>
<trkpt lat="45.8540660" lon="9.1957900">
	<ele>1112.80</ele>
	<time>2025-02-15T12:00:08.000Z</time>
</trkpt>
<trkpt lat="45.8540610" lon="9.1958000">
	<ele>1112.60</ele>
	<time>2025-02-15T12:00:09.000Z</time>
</trkpt>
<trkpt lat="45.8540620" lon="9.1958120">
	<ele>1112.60</ele>
	<time>2025-02-15T12:00:10.000Z</time>
</trkpt>
<trkpt lat="45.8540680" lon="9.1958240">
	<ele>1112.60</ele>
	<time>2025-02-15T12:00:11.000Z</time>
</trkpt>
<trkpt lat="45.8540670" lon="9.1958380">
	<ele>1112.40</ele>
	<time>2025-02-15T12:00:12.000Z</time>
</trkpt>
<trkpt lat="45.8540680" lon="9.1958470">
	<ele>1112.20</ele>
	<time>2025-02-15T12:00:13.000Z</time>
</trkpt>
<trkpt lat="45.8540700" lon="9.1958610">
	<ele>1112.00</ele>
	<time>2025-02-15T12:00:14.000Z</time>
</trkpt>
<trkpt lat="45.8540700" lon="9.1958780">
	<ele>1111.80</ele>
	<time>2025-02-15T12:00:15.000Z</time>
</trkpt>
<trkpt lat="45.8540630" lon="9.1958960">
	<ele>1111.80</ele>
	<time>2025-02-15T12:00:16.000Z</time>
</trkpt>
<trkpt lat="45.8540590" lon="9.1958990">
	<ele>1111.80</ele>
	<time>2025-02-15T12:00:17.000Z</time>
</trkpt>
<trkpt lat="45.8540620" lon="9.1959210">
	<ele>1111.80</ele>
	<time>2025-02-15T12:00:18.000Z</time>
</trkpt>
<trkpt lat="45.8540610" lon="9.1959230">
	<ele>1112.00</ele>
	<time>2025-02-15T12:00:19.000Z</time>
</trkpt>
<trkpt lat="45.8540600" lon="9.1959260">
	<ele>1112.00</ele>
	<time>2025-02-15T12:00:20.000Z</time>
</trkpt>
<trkpt lat="45.8540730" lon="9.1959520">
	<ele>1112.00</ele>
	<time>2025-02-15T12:00:21.000Z</time>
</trkpt>
<trkpt lat="45.8540780" lon="9.1959680">
	<ele>1112.00</ele>
	<time>2025-02-15T12:00:22.000Z</time>
</trkpt>
<trkpt lat="45.8540920" lon="9.1959830">
	<ele>1112.00</ele>
	<time>2025-02-15T12:00:23.000Z</time>
</trkpt>
<trkpt lat="45.8541090" lon="9.1959950">
	<ele>1111.80</ele>
	<time>2025-02-15T12:00:24.000Z</time>
</trkpt>
<trkpt lat="45.8541160" lon="9.1960120">
	<ele>1111.80</ele>
	<time>2025-02-15T12:00:25.000Z</time>
</trkpt>
<trkpt lat="45.8541310" lon="9.1960290">
	<ele>1111.80</ele>
	<time>2025-02-15T12:00:26.000Z</time>
</trkpt>
<trkpt lat="45.8541460" lon="9.1960490">
	<ele>1111.40</ele>
	<time>2025-02-15T12:00:27.000Z</time>
</trkpt>
<trkpt lat="45.8541420" lon="9.1960680">
	<ele>1111.00</ele>
	<time>2025-02-15T12:00:28.000Z</time>
</trkpt>
<trkpt lat="45.8541580" lon="9.1960860">
	<ele>1110.80</ele>
	<time>2025-02-15T12:00:29.000Z</time>
</trkpt>
<trkpt lat="45.8541620" lon="9.1960930">
	<ele>1110.80</ele>
	<time>2025-02-15T12:00:30.000Z</time>
</trkpt>
<trkpt lat="45.8541640" lon="9.1960990">
	<ele>1110.60</ele>
	<time>2025-02-15T12:00:31.000Z</time>
</trkpt>
<trkpt lat="45.8541830" lon="9.1961040">
	<ele>1110.40</ele>
	<time>2025-02-15T12:00:32.000Z</time>
</trkpt>
<trkpt lat="45.8542040" lon="9.1961040">
	<ele>1110.40</ele>
	<time>2025-02-15T12:00:33.000Z</time>
</trkpt>
<trkpt lat="45.8542140" lon="9.1961130">
	<ele>1110.20</ele>
	<time>2025-02-15T12:00:34.000Z</time>
</trkpt>
<trkpt lat="45.8542260" lon="9.1961150">
	<ele>1109.80</ele>
	<time>2025-02-15T12:00:35.000Z</time>
</trkpt>
<trkpt lat="45.8542430" lon="9.1961250">
	<ele>1109.60</ele>
	<time>2025-02-15T12:00:36.000Z</time>
</trkpt>
<trkpt lat="45.8542540" lon="9.1961480">
	<ele>1109.60</ele>
	<time>2025-02-15T12:00:37.000Z</time>
</trkpt>
<trkpt lat="45.8542690" lon="9.1961640">
	<ele>1109.40</ele>
	<time>2025-02-15T12:00:38.000Z</time>
</trkpt>
<trkpt lat="45.8542720" lon="9.1961700">
	<ele>1109.40</ele>
	<time>2025-02-15T12:00:39.000Z</time>
</trkpt>
<trkpt lat="45.8542740" lon="9.1961720">
	<ele>1109.40</ele>
	<time>2025-02-15T12:00:40.000Z</time>
</trkpt>
<trkpt lat="45.8542740" lon="9.1961740">
	<ele>1109.40</ele>
	<time>2025-02-15T12:00:41.000Z</time>
</trkpt>
<trkpt lat="45.8542860" lon="9.1961780">
	<ele>1109.40</ele>
	<time>2025-02-15T12:00:42.000Z</time>
</trkpt>
<trkpt lat="45.8542870" lon="9.1961830">
	<ele>1109.40</ele>
	<time>2025-02-15T12:00:43.000Z</time>
</trkpt>
<trkpt lat="45.8543030" lon="9.1961850">
	<ele>1109.40</ele>
	<time>2025-02-15T12:00:44.000Z</time>
</trkpt>
<trkpt lat="45.8543030" lon="9.1961940">
	<ele>1109.20</ele>
	<time>2025-02-15T12:00:45.000Z</time>
</trkpt>
<trkpt lat="45.8543040" lon="9.1962110">
	<ele>1109.20</ele>
	<time>2025-02-15T12:00:46.000Z</time>
</trkpt>
<trkpt lat="45.8543030" lon="9.1962230">
	<ele>1109.20</ele>
	<time>2025-02-15T12:00:47.000Z</time>
</trkpt>
<trkpt lat="45.8543020" lon="9.1962330">
	<ele>1109.00</ele>
	<time>2025-02-15T12:00:48.000Z</time>
</trkpt>
<trkpt lat="45.8543050" lon="9.1962400">
	<ele>1109.00</ele>
	<time>2025-02-15T12:00:49.000Z</time>
</trkpt>
<trkpt lat="45.8543010" lon="9.1962370">
	<ele>1109.00</ele>
	<time>2025-02-15T12:00:50.000Z</time>
</trkpt>
<trkpt lat="45.8542990" lon="9.1962400">
	<ele>1109.00</ele>
	<time>2025-02-15T12:00:51.000Z</time>
</trkpt>
<trkpt lat="45.8542970" lon="9.1962400">
	<ele>1108.80</ele>
	<time>2025-02-15T12:00:52.000Z</time>
</trkpt>
<trkpt lat="45.8542960" lon="9.1962430">
	<ele>1108.80</ele>
	<time>2025-02-15T12:00:53.000Z</time>
</trkpt>
<trkpt lat="45.8542930" lon="9.1962440">
	<ele>1108.60</ele>
	<time>2025-02-15T12:00:54.000Z</time>
</trkpt>
<trkpt lat="45.8542900" lon="9.1962440">
	<ele>1108.60</ele>
	<time>2025-02-15T12:00:55.000Z</time>
</trkpt>
<trkpt lat="45.8542880" lon="9.1962430">
	<ele>1108.60</ele>
	<time>2025-02-15T12:00:56.000Z</time>
</trkpt>
<trkpt lat="45.8542810" lon="9.1962390">
	<ele>1108.60</ele>
	<time>2025-02-15T12:00:57.000Z</time>
</trkpt>
<trkpt lat="45.8542860" lon="9.1962320">
	<ele>1108.40</ele>
	<time>2025-02-15T12:00:58.000Z</time>
</trkpt>
<trkpt lat="45.8542840" lon="9.1962290">
	<ele>1108.00</ele>
	<time>2025-02-15T12:00:59.000Z</time>
</trkpt>
<trkpt lat="45.8542830" lon="9.1962280">
	<ele>1107.60</ele>
	<time>2025-02-15T12:01:00.000Z</time>
</trkpt>
<trkpt lat="45.8542860" lon="9.1962290">
	<ele>1107.40</ele>
	<time>2025-02-15T12:01:01.000Z</time>
</trkpt>
<trkpt lat="45.8542850" lon="9.1962300">
	<ele>1107.20</ele>
	<time>2025-02-15T12:01:02.000Z</time>
</trkpt>
<trkpt lat="45.8542820" lon="9.1962350">
	<ele>1107.00</ele>
	<time>2025-02-15T12:01:03.000Z</time>
</trkpt>
<trkpt lat="45.8542800" lon="9.1962380">
	<ele>1107.00</ele>
	<time>2025-02-15T12:01:04.000Z</time>
</trkpt>
<trkpt lat="45.8542820" lon="9.1962460">
	<ele>1107.00</ele>
	<time>2025-02-15T12:01:05.000Z</time>
</trkpt>
<trkpt lat="45.8542800" lon="9.1962510">
	<ele>1106.80</ele>
	<time>2025-02-15T12:01:06.000Z</time>
</trkpt>
<trkpt lat="45.8542750" lon="9.1962500">
	<ele>1106.60</ele>
	<time>2025-02-15T12:01:07.000Z</time>
</trkpt>
<trkpt lat="45.8542790" lon="9.1962560">
	<ele>1106.40</ele>
	<time>2025-02-15T12:01:08.000Z</time>
</trkpt>
<trkpt lat="45.8542800" lon="9.1962630">
	<ele>1106.20</ele>
	<time>2025-02-15T12:01:09.000Z</time>
</trkpt>
<trkpt lat="45.8542760" lon="9.1962730">
	<ele>1106.20</ele>
	<time>2025-02-15T12:01:10.000Z</time>
</trkpt>
<trkpt lat="45.8542710" lon="9.1962780">
	<ele>1106.00</ele>
	<time>2025-02-15T12:01:11.000Z</time>
</trkpt>
<trkpt lat="45.8542600" lon="9.1962750">
	<ele>1105.80</ele>
	<time>2025-02-15T12:01:12.000Z</time>
</trkpt>
<trkpt lat="45.8542490" lon="9.1962680">
	<ele>1105.60</ele>
	<time>2025-02-15T12:01:13.000Z</time>
</trkpt>
<trkpt lat="45.8542420" lon="9.1962650">
	<ele>1104.80</ele>
	<time>2025-02-15T12:01:14.000Z</time>
</trkpt>
<trkpt lat="45.8542270" lon="9.1962620">
	<ele>1104.80</ele>
	<time>2025-02-15T12:01:15.000Z</time>
</trkpt>
<trkpt lat="45.8542120" lon="9.1962590">
	<ele>1104.60</ele>
	<time>2025-02-15T12:01:16.000Z</time>
</trkpt>
<trkpt lat="45.8542050" lon="9.1962550">
	<ele>1104.40</ele>
	<time>2025-02-15T12:01:17.000Z</time>
</trkpt>
<trkpt lat="45.8541970" lon="9.1962510">
	<ele>1104.20</ele>
	<time>2025-02-15T12:01:18.000Z</time>
</trkpt>
<trkpt lat="45.8541870" lon="9.1962440">
	<ele>1104.20</ele>
	<time>2025-02-15T12:01:19.000Z</time>
</trkpt>
<trkpt lat="45.8541700" lon="9.1962370">
	<ele>1104.00</ele>
	<time>2025-02-15T12:01:20.000Z</time>
</trkpt>
<trkpt lat="45.8541640" lon="9.1962370">
	<ele>1104.00</ele>
	<time>2025-02-15T12:01:21.000Z</time>
</trkpt>
<trkpt lat="45.8541590" lon="9.1962320">
	<ele>1103.80</ele>
	<time>2025-02-15T12:01:22.000Z</time>
</trkpt>
<trkpt lat="45.8541570" lon="9.1962270">
	<ele>1103.60</ele>
	<time>2025-02-15T12:01:23.000Z</time>
</trkpt>
<trkpt lat="45.8541590" lon="9.1962180">
	<ele>1103.40</ele>
	<time>2025-02-15T12:01:24.000Z</time>
</trkpt>
<trkpt lat="45.8541550" lon="9.1962100">
	<ele>1103.20</ele>
	<time>2025-02-15T12:01:25.000Z</time>
</trkpt>
<trkpt lat="45.8541480" lon="9.1962020">
	<ele>1102.80</ele>
	<time>2025-02-15T12:01:26.000Z</time>
</trkpt>
<trkpt lat="45.8541350" lon="9.1961960">
	<ele>1102.60</ele>
	<time>2025-02-15T12:01:27.000Z</time>
</trkpt>
<trkpt lat="45.8541240" lon="9.1961960">
	<ele>1102.40</ele>
	<time>2025-02-15T12:01:28.000Z</time>
</trkpt>
<trkpt lat="45.8540980" lon="9.1961960">
	<ele>1102.20</ele>
	<time>2025-02-15T12:01:29.000Z</time>
</trkpt>
<trkpt lat="45.8540870" lon="9.1961910">
	<ele>1102.20</ele>
	<time>2025-02-15T12:01:30.000Z</time>
</trkpt>
<trkpt lat="45.8540810" lon="9.1961870">
	<ele>1102.20</ele>
	<time>2025-02-15T12:01:31.000Z</time>
</trkpt>
<trkpt lat="45.8540810" lon="9.1961760">
	<ele>1102.00</ele>
	<time>2025-02-15T12:01:32.000Z</time>
</trkpt>
<trkpt lat="45.8540750" lon="9.1961680">
	<ele>1102.00</ele>
	<time>2025-02-15T12:01:33.000Z</time>
</trkpt>
<trkpt lat="45.8540650" lon="9.1961600">
	<ele>1102.00</ele>
	<time>2025-02-15T12:01:34.000Z</time>
</trkpt>
<trkpt lat="45.8540590" lon="9.1961500">
	<ele>1101.80</ele>
	<time>2025-02-15T12:01:35.000Z</time>
</trkpt>
<trkpt lat="45.8540480" lon="9.1961370">
	<ele>1101.80</ele>
	<time>2025-02-15T12:01:36.000Z</time>
</trkpt>
<trkpt lat="45.8540450" lon="9.1961320">
	<ele>1101.80</ele>
	<time>2025-02-15T12:01:37.000Z</time>
</trkpt>
<trkpt lat="45.8540500" lon="9.1961270">
	<ele>1101.80</ele>
	<time>2025-02-15T12:01:38.000Z</time>
</trkpt>
<trkpt lat="45.8540500" lon="9.1961260">
	<ele>1101.80</ele>
	<time>2025-02-15T12:01:39.000Z</time>
</trkpt>
<trkpt lat="45.8540430" lon="9.1961260">
	<ele>1101.80</ele>
	<time>2025-02-15T12:01:40.000Z</time>
</trkpt>
<trkpt lat="45.8540310" lon="9.1961160">
	<ele>1101.80</ele>
	<time>2025-02-15T12:01:41.000Z</time>
</trkpt>
<trkpt lat="45.8540280" lon="9.1961110">
	<ele>1101.80</ele>
	<time>2025-02-15T12:01:42.000Z</time>
</trkpt>
<trkpt lat="45.8540180" lon="9.1961040">
	<ele>1101.80</ele>
	<time>2025-02-15T12:01:43.000Z</time>
</trkpt>
<trkpt lat="45.8539960" lon="9.1961000">
	<ele>1101.80</ele>
	<time>2025-02-15T12:01:44.000Z</time>
</trkpt>
<trkpt lat="45.8539950" lon="9.1960970">
	<ele>1101.60</ele>
	<time>2025-02-15T12:01:45.000Z</time>
</trkpt>
<trkpt lat="45.8539870" lon="9.1960910">
	<ele>1101.20</ele>
	<time>2025-02-15T12:01:46.000Z</time>
</trkpt>
<trkpt lat="45.8539890" lon="9.1960810">
	<ele>1101.00</ele>
	<time>2025-02-15T12:01:47.000Z</time>
</trkpt>
<trkpt lat="45.8539690" lon="9.1960680">
	<ele>1100.80</ele>
	<time>2025-02-15T12:01:48.000Z</time>
</trkpt>
<trkpt lat="45.8539660" lon="9.1960570">
	<ele>1100.80</ele>
	<time>2025-02-15T12:01:49.000Z</time>
</trkpt>
<trkpt lat="45.8539810" lon="9.1960520">
	<ele>1100.80</ele>
	<time>2025-02-15T12:01:50.000Z</time>
</trkpt>
<trkpt lat="45.8540020" lon="9.1960550">
	<ele>1100.80</ele>
	<time>2025-02-15T12:01:51.000Z</time>
</trkpt>
<trkpt lat="45.8540000" lon="9.1960530">
	<ele>1100.40</ele>
	<time>2025-02-15T12:01:52.000Z</time>
</trkpt>
<trkpt lat="45.8539860" lon="9.1960450">
	<ele>1100.40</ele>
	<time>2025-02-15T12:01:53.000Z</time>
</trkpt>
<trkpt lat="45.8539720" lon="9.1960300">
	<ele>1100.20</ele>
	<time>2025-02-15T12:01:54.000Z</time>
</trkpt>
<trkpt lat="45.8539450" lon="9.1960230">
	<ele>1099.80</ele>
	<time>2025-02-15T12:01:55.000Z</time>
</trkpt>
<trkpt lat="45.8539490" lon="9.1960240">
	<ele>1099.60</ele>
	<time>2025-02-15T12:01:56.000Z</time>
</trkpt>
<trkpt lat="45.8539590" lon="9.1960130">
	<ele>1099.40</ele>
	<time>2025-02-15T12:01:57.000Z</time>
</trkpt>
<trkpt lat="45.8539690" lon="9.1959970">
	<ele>1099.20</ele>
	<time>2025-02-15T12:01:58.000Z</time>
</trkpt>
<trkpt lat="45.8539710" lon="9.1959840">
	<ele>1099.00</ele>
	<time>2025-02-15T12:01:59.000Z</time>
</trkpt>
<trkpt lat="45.8539710" lon="9.1959740">
	<ele>1098.80</ele>
	<time>2025-02-15T12:02:00.000Z</time>
</trkpt>
<trkpt lat="45.8539690" lon="9.1959670">
	<ele>1098.60</ele>
	<time>2025-02-15T12:02:01.000Z</time>
</trkpt>
<trkpt lat="45.8539660" lon="9.1959590">
	<ele>1098.60</ele>
	<time>2025-02-15T12:02:02.000Z</time>
</trkpt>
<trkpt lat="45.8539660" lon="9.1959500">
	<ele>1098.40</ele>
	<time>2025-02-15T12:02:03.000Z</time>
</trkpt>
<trkpt lat="45.8539750" lon="9.1959420">
	<ele>1098.00</ele>
	<time>2025-02-15T12:02:04.000Z</time>
</trkpt>
<trkpt lat="45.8539810" lon="9.1959380">
	<ele>1098.00</ele>
	<time>2025-02-15T12:02:05.000Z</time>
</trkpt>
<trkpt lat="45.8539860" lon="9.1959360">
	<ele>1097.40</ele>
	<time>2025-02-15T12:02:06.000Z</time>
</trkpt>
<trkpt lat="45.8539830" lon="9.1959320">
	<ele>1097.00</ele>
	<time>2025-02-15T12:02:07.000Z</time>
</trkpt>
<trkpt lat="45.8539800" lon="9.1959260">
	<ele>1096.80</ele>
	<time>2025-02-15T12:02:08.000Z</time>
</trkpt>
<trkpt lat="45.8539870" lon="9.1959170">
	<ele>1096.60</ele>
	<time>2025-02-15T12:02:09.000Z</time>
</trkpt>
<trkpt lat="45.8539930" lon="9.1959040">
	<ele>1096.60</ele>
	<time>2025-02-15T12:02:10.000Z</time>
</trkpt>
<trkpt lat="45.8539870" lon="9.1958880">
	<ele>1096.40</ele>
	<time>2025-02-15T12:02:11.000Z</time>
</trkpt>
<trkpt lat="45.8539770" lon="9.1958780">
	<ele>1096.40</ele>
	<time>2025-02-15T12:02:12.000Z</time>
</trkpt>
<trkpt lat="45.8539640" lon="9.1958700">
	<ele>1096.20</ele>
	<time>2025-02-15T12:02:13.000Z</time>
</trkpt>
<trkpt lat="45.8539410" lon="9.1958700">
	<ele>1096.20</ele>
	<time>2025-02-15T12:02:14.000Z</time>
</trkpt>
<trkpt lat="45.8539280" lon="9.1958700">
	<ele>1096.00</ele>
	<time>2025-02-15T12:02:15.000Z</time>
</trkpt>
<trkpt lat="45.8539210" lon="9.1958710">
	<ele>1095.80</ele>
	<time>2025-02-15T12:02:16.000Z</time>
</trkpt>
<trkpt lat="45.8539080" lon="9.1958700">
	<ele>1095.20</ele>
	<time>2025-02-15T12:02:17.000Z</time>
</trkpt>
<trkpt lat="45.8539010" lon="9.1958730">
	<ele>1094.80</ele>
	<time>2025-02-15T12:02:18.000Z</time>
</trkpt>
<trkpt lat="45.8538960" lon="9.1958710">
	<ele>1094.40</ele>
	<time>2025-02-15T12:02:19.000Z</time>
</trkpt>
<trkpt lat="45.8538890" lon="9.1958640">
	<ele>1094.20</ele>
	<time>2025-02-15T12:02:20.000Z</time>
</trkpt>
<trkpt lat="45.8538750" lon="9.1958620">
	<ele>1094.00</ele>
	<time>2025-02-15T12:02:21.000Z</time>
</trkpt>
<trkpt lat="45.8538650" lon="9.1958580">
	<ele>1094.00</ele>
	<time>2025-02-15T12:02:22.000Z</time>
</trkpt>
<trkpt lat="45.8538610" lon="9.1958540">
	<ele>1094.00</ele>
	<time>2025-02-15T12:02:23.000Z</time>
</trkpt>
<trkpt lat="45.8538620" lon="9.1958470">
	<ele>1093.80</ele>
	<time>2025-02-15T12:02:24.000Z</time>
</trkpt>
<trkpt lat="45.8538620" lon="9.1958410">
	<ele>1093.80</ele>
	<time>2025-02-15T12:02:25.000Z</time>
</trkpt>
<trkpt lat="45.8538600" lon="9.1958380">
	<ele>1093.20</ele>
	<time>2025-02-15T12:02:26.000Z</time>
</trkpt>
<trkpt lat="45.8538620" lon="9.1958360">
	<ele>1093.00</ele>
	<time>2025-02-15T12:02:27.000Z</time>
</trkpt>
<trkpt lat="45.8538610" lon="9.1958310">
	<ele>1092.60</ele>
	<time>2025-02-15T12:02:28.000Z</time>
</trkpt>
<trkpt lat="45.8538510" lon="9.1958220">
	<ele>1092.40</ele>
	<time>2025-02-15T12:02:29.000Z</time>
</trkpt>
<trkpt lat="45.8538430" lon="9.1958150">
	<ele>1092.40</ele>
	<time>2025-02-15T12:02:30.000Z</time>
</trkpt>
<trkpt lat="45.8538410" lon="9.1958010">
	<ele>1092.40</ele>
	<time>2025-02-15T12:02:31.000Z</time>
</trkpt>
<trkpt lat="45.8538370" lon="9.1957880">
	<ele>1092.20</ele>
	<time>2025-02-15T12:02:32.000Z</time>
</trkpt>
<trkpt lat="45.8538330" lon="9.1957850">
	<ele>1092.00</ele>
	<time>2025-02-15T12:02:33.000Z</time>
</trkpt>
<trkpt lat="45.8538330" lon="9.1957840">
	<ele>1091.80</ele>
	<time>2025-02-15T12:02:34.000Z</time>
</trkpt>
<trkpt lat="45.8538430" lon="9.1957750">
	<ele>1091.60</ele>
	<time>2025-02-15T12:02:35.000Z</time>
</trkpt>
<trkpt lat="45.8538620" lon="9.1957680">
	<ele>1091.40</ele>
	<time>2025-02-15T12:02:36.000Z</time>
</trkpt>
<trkpt lat="45.8538730" lon="9.1957480">
	<ele>1091.20</ele>
	<time>2025-02-15T12:02:37.000Z</time>
</trkpt>
<trkpt lat="45.8538780" lon="9.1957290">
	<ele>1090.80</ele>
	<time>2025-02-15T12:02:38.000Z</time>
</trkpt>
<trkpt lat="45.8538690" lon="9.1957240">
	<ele>1090.60</ele>
	<time>2025-02-15T12:02:39.000Z</time>
</trkpt>
<trkpt lat="45.8538650" lon="9.1957230">
	<ele>1090.40</ele>
	<time>2025-02-15T12:02:40.000Z</time>
</trkpt>
<trkpt lat="45.8538460" lon="9.1957200">
	<ele>1090.40</ele>
	<time>2025-02-15T12:02:41.000Z</time>
</trkpt>
<trkpt lat="45.8538270" lon="9.1957170">
	<ele>1090.20</ele>
	<time>2025-02-15T12:02:42.000Z</time>
</trkpt>
<trkpt lat="45.8538140" lon="9.1957110">
	<ele>1090.20</ele>
	<time>2025-02-15T12:02:43.000Z</time>
</trkpt>
<trkpt lat="45.8537980" lon="9.1957040">
	<ele>1090.00</ele>
	<time>2025-02-15T12:02:44.000Z</time>
</trkpt>
<trkpt lat="45.8537970" lon="9.1957000">
	<ele>1089.60</ele>
	<time>2025-02-15T12:02:45.000Z</time>
</trkpt>
<trkpt lat="45.8537860" lon="9.1956950">
	<ele>1089.40</ele>
	<time>2025-02-15T12:02:46.000Z</time>
</trkpt>
<trkpt lat="45.8537770" lon="9.1956940">
	<ele>1089.40</ele>
	<time>2025-02-15T12:02:47.000Z</time>
</trkpt>
<trkpt lat="45.8537630" lon="9.1956970">
	<ele>1089.20</ele>
	<time>2025-02-15T12:02:48.000Z</time>
</trkpt>
<trkpt lat="45.8537470" lon="9.1956990">
	<ele>1089.20</ele>
	<time>2025-02-15T12:02:49.000Z</time>
</trkpt>
<trkpt lat="45.8537250" lon="9.1956960">
	<ele>1088.60</ele>
	<time>2025-02-15T12:02:50.000Z</time>
</trkpt>
<trkpt lat="45.8537180" lon="9.1956930">
	<ele>1088.40</ele>
	<time>2025-02-15T12:02:51.000Z</time>
</trkpt>
<trkpt lat="45.8537140" lon="9.1956910">
	<ele>1088.20</ele>
	<time>2025-02-15T12:02:52.000Z</time>
</trkpt>
<trkpt lat="45.8537070" lon="9.1956920">
	<ele>1088.20</ele>
	<time>2025-02-15T12:02:53.000Z</time>
</trkpt>
<trkpt lat="45.8536980" lon="9.1956950">
	<ele>1088.00</ele>
	<time>2025-02-15T12:02:54.000Z</time>
</trkpt>
<trkpt lat="45.8536900" lon="9.1956980">
	<ele>1087.60</ele>
	<time>2025-02-15T12:02:55.000Z</time>
</trkpt>
<trkpt lat="45.8536840" lon="9.1956940">
	<ele>1087.20</ele>
	<time>2025-02-15T12:02:56.000Z</time>
</trkpt>
<trkpt lat="45.8536820" lon="9.1956930">
	<ele>1087.00</ele>
	<time>2025-02-15T12:02:57.000Z</time>
</trkpt>
<trkpt lat="45.8536740" lon="9.1956940">
	<ele>1086.60</ele>
	<time>2025-02-15T12:02:58.000Z</time>
</trkpt>
<trkpt lat="45.8536750" lon="9.1956960">
	<ele>1086.40</ele>
	<time>2025-02-15T12:02:59.000Z</time>
</trkpt>
<trkpt lat="45.8536680" lon="9.1956990">
	<ele>1086.40</ele>
	<time>2025-02-15T12:03:00.000Z</time>
</trkpt>
<trkpt lat="45.8536550" lon="9.1957040">
	<ele>1086.20</ele>
	<time>2025-02-15T12:03:01.000Z</time>
</trkpt>
<trkpt lat="45.8536520" lon="9.1957080">
	<ele>1086.00</ele>
	<time>2025-02-15T12:03:02.000Z</time>
</trkpt>
<trkpt lat="45.8536540" lon="9.1957150">
	<ele>1086.00</ele>
	<time>2025-02-15T12:03:03.000Z</time>
</trkpt>
<trkpt lat="45.8536560" lon="9.1957170">
	<ele>1086.00</ele>
	<time>2025-02-15T12:03:04.000Z</time>
</trkpt>
<trkpt lat="45.8536590" lon="9.1957230">
	<ele>1085.80</ele>
	<time>2025-02-15T12:03:05.000Z</time>
</trkpt>
<trkpt lat="45.8536590" lon="9.1957240">
	<ele>1085.60</ele>
	<time>2025-02-15T12:03:06.000Z</time>
</trkpt>
<trkpt lat="45.8536550" lon="9.1957270">
	<ele>1085.40</ele>
	<time>2025-02-15T12:03:07.000Z</time>
</trkpt>
<trkpt lat="45.8536530" lon="9.1957290">
	<ele>1085.20</ele>
	<time>2025-02-15T12:03:08.000Z</time>
</trkpt>
<trkpt lat="45.8536630" lon="9.1957360">
	<ele>1085.20</ele>
	<time>2025-02-15T12:03:09.000Z</time>
</trkpt>
<trkpt lat="45.8536660" lon="9.1957440">
	<ele>1084.40</ele>
	<time>2025-02-15T12:03:10.000Z</time>
</trkpt>
<trkpt lat="45.8536720" lon="9.1957530">
	<ele>1084.20</ele>
	<time>2025-02-15T12:03:11.000Z</time>
</trkpt>
<trkpt lat="45.8536880" lon="9.1957610">
	<ele>1084.00</ele>
	<time>2025-02-15T12:03:12.000Z</time>
</trkpt>
<trkpt lat="45.8536920" lon="9.1957640">
	<ele>1083.80</ele>
	<time>2025-02-15T12:03:13.000Z</time>
</trkpt>
<trkpt lat="45.8536990" lon="9.1957650">
	<ele>1083.80</ele>
	<time>2025-02-15T12:03:14.000Z</time>
</trkpt>
<trkpt lat="45.8537030" lon="9.1957690">
	<ele>1083.80</ele>
	<time>2025-02-15T12:03:15.000Z</time>
</trkpt>
<trkpt lat="45.8537000" lon="9.1957770">
	<ele>1083.80</ele>
	<time>2025-02-15T12:03:16.000Z</time>
</trkpt>
<trkpt lat="45.8536970" lon="9.1957840">
	<ele>1083.40</ele>
	<time>2025-02-15T12:03:17.000Z</time>
</trkpt>
<trkpt lat="45.8536950" lon="9.1957870">
	<ele>1083.20</ele>
	<time>2025-02-15T12:03:18.000Z</time>
</trkpt>
<trkpt lat="45.8537040" lon="9.1957920">
	<ele>1083.00</ele>
	<time>2025-02-15T12:03:19.000Z</time>
</trkpt>
<trkpt lat="45.8537110" lon="9.1957940">
	<ele>1082.60</ele>
	<time>2025-02-15T12:03:20.000Z</time>
</trkpt>
<trkpt lat="45.8537160" lon="9.1957940">
	<ele>1082.60</ele>
	<time>2025-02-15T12:03:21.000Z</time>
</trkpt>
<trkpt lat="45.8537170" lon="9.1957970">
	<ele>1082.40</ele>
	<time>2025-02-15T12:03:22.000Z</time>
</trkpt>
<trkpt lat="45.8537080" lon="9.1957960">
	<ele>1082.40</ele>
	<time>2025-02-15T12:03:23.000Z</time>
</trkpt>
<trkpt lat="45.8537010" lon="9.1957920">
	<ele>1081.80</ele>
	<time>2025-02-15T12:03:24.000Z</time>
</trkpt>
<trkpt lat="45.8536860" lon="9.1957870">
	<ele>1081.60</ele>
	<time>2025-02-15T12:03:25.000Z</time>
</trkpt>
<trkpt lat="45.8536780" lon="9.1957820">
	<ele>1081.40</ele>
	<time>2025-02-15T12:03:26.000Z</time>
</trkpt>
<trkpt lat="45.8536650" lon="9.1957780">
	<ele>1081.40</ele>
	<time>2025-02-15T12:03:27.000Z</time>
</trkpt>
<trkpt lat="45.8536490" lon="9.1957750">
	<ele>1081.20</ele>
	<time>2025-02-15T12:03:28.000Z</time>
</trkpt>
<trkpt lat="45.8536520" lon="9.1957730">
	<ele>1081.20</ele>
	<time>2025-02-15T12:03:29.000Z</time>
</trkpt>
<trkpt lat="45.8536410" lon="9.1957660">
	<ele>1081.20</ele>
	<time>2025-02-15T12:03:30.000Z</time>
</trkpt>
<trkpt lat="45.8536270" lon="9.1957640">
	<ele>1081.00</ele>
	<time>2025-02-15T12:03:31.000Z</time>
</trkpt>
<trkpt lat="45.8536240" lon="9.1957670">
	<ele>1081.00</ele>
	<time>2025-02-15T12:03:32.000Z</time>
</trkpt>
<trkpt lat="45.8536240" lon="9.1957730">
	<ele>1080.60</ele>
	<time>2025-02-15T12:03:33.000Z</time>
</trkpt>
<trkpt lat="45.8536130" lon="9.1957840">
	<ele>1080.20</ele>
	<time>2025-02-15T12:03:34.000Z</time>
</trkpt>
<trkpt lat="45.8535990" lon="9.1957910">
	<ele>1079.80</ele>
	<time>2025-02-15T12:03:35.000Z</time>
</trkpt>
<trkpt lat="45.8535980" lon="9.1957980">
	<ele>1079.40</ele>
	<time>2025-02-15T12:03:36.000Z</time>
</trkpt>
<trkpt lat="45.8535960" lon="9.1957990">
	<ele>1079.20</ele>
	<time>2025-02-15T12:03:37.000Z</time>
</trkpt>
<trkpt lat="45.8535860" lon="9.1958000">
	<ele>1079.00</ele>
	<time>2025-02-15T12:03:38.000Z</time>
</trkpt>
<trkpt lat="45.8535800" lon="9.1958010">
	<ele>1079.00</ele>
	<time>2025-02-15T12:03:39.000Z</time>
</trkpt>
<trkpt lat="45.8535720" lon="9.1957980">
	<ele>1079.20</ele>
	<time>2025-02-15T12:03:40.000Z</time>
</trkpt>
<trkpt lat="45.8535700" lon="9.1957980">
	<ele>1079.00</ele>
	<time>2025-02-15T12:03:41.000Z</time>
</trkpt>
<trkpt lat="45.8535640" lon="9.1957970">
	<ele>1078.60</ele>
	<time>2025-02-15T12:03:42.000Z</time>
</trkpt>
<trkpt lat="45.8535590" lon="9.1958000">
	<ele>1078.60</ele>
	<time>2025-02-15T12:03:43.000Z</time>
</trkpt>
<trkpt lat="45.8535560" lon="9.1958040">
	<ele>1078.20</ele>
	<time>2025-02-15T12:03:44.000Z</time>
</trkpt>
<trkpt lat="45.8535520" lon="9.1958100">
	<ele>1078.00</ele>
	<time>2025-02-15T12:03:45.000Z</time>
</trkpt>
<trkpt lat="45.8535400" lon="9.1958180">
	<ele>1077.80</ele>
	<time>2025-02-15T12:03:46.000Z</time>
</trkpt>
<trkpt lat="45.8535420" lon="9.1958280">
	<ele>1077.40</ele>
	<time>2025-02-15T12:03:47.000Z</time>
</trkpt>
<trkpt lat="45.8535430" lon="9.1958390">
	<ele>1077.00</ele>
	<time>2025-02-15T12:03:48.000Z</time>
</trkpt>
<trkpt lat="45.8535540" lon="9.1958540">
	<ele>1076.80</ele>
	<time>2025-02-15T12:03:49.000Z</time>
</trkpt>
<trkpt lat="45.8535610" lon="9.1958610">
	<ele>1076.40</ele>
	<time>2025-02-15T12:03:50.000Z</time>
</trkpt>
<trkpt lat="45.8535720" lon="9.1958720">
	<ele>1076.20</ele>
	<time>2025-02-15T12:03:51.000Z</time>
</trkpt>
<trkpt lat="45.8535760" lon="9.1958870">
	<ele>1076.20</ele>
	<time>2025-02-15T12:03:52.000Z</time>
</trkpt>
<trkpt lat="45.8535790" lon="9.1958930">
	<ele>1076.20</ele>
	<time>2025-02-15T12:03:53.000Z</time>
</trkpt>
<trkpt lat="45.8535860" lon="9.1959040">
	<ele>1076.00</ele>
	<time>2025-02-15T12:03:54.000Z</time>
</trkpt>
<trkpt lat="45.8535990" lon="9.1959120">
	<ele>1075.60</ele>
	<time>2025-02-15T12:03:55.000Z</time>
</trkpt>
<trkpt lat="45.8536010" lon="9.1959130">
	<ele>1075.40</ele>
	<time>2025-02-15T12:03:56.000Z</time>
</trkpt>
<trkpt lat="45.8535990" lon="9.1959150">
	<ele>1075.40</ele>
	<time>2025-02-15T12:03:57.000Z</time>
</trkpt>
<trkpt lat="45.8536030" lon="9.1959210">
	<ele>1075.20</ele>
	<time>2025-02-15T12:03:58.000Z</time>
</trkpt>
<trkpt lat="45.8535990" lon="9.1959330">
	<ele>1074.80</ele>
	<time>2025-02-15T12:03:59.000Z</time>
</trkpt>
<trkpt lat="45.8535970" lon="9.1959480">
	<ele>1074.80</ele>
	<time>2025-02-15T12:04:00.000Z</time>
</trkpt>
<trkpt lat="45.8536000" lon="9.1959590">
	<ele>1074.60</ele>
	<time>2025-02-15T12:04:01.000Z</time>
</trkpt>
<trkpt lat="45.8536040" lon="9.1959630">
	<ele>1074.60</ele>
	<time>2025-02-15T12:04:02.000Z</time>
</trkpt>
<trkpt lat="45.8536030" lon="9.1959660">
	<ele>1074.40</ele>
	<time>2025-02-15T12:04:03.000Z</time>
</trkpt>
<trkpt lat="45.8536130" lon="9.1959640">
	<ele>1074.20</ele>
	<time>2025-02-15T12:04:04.000Z</time>
</trkpt>
<trkpt lat="45.8536180" lon="9.1959650">
	<ele>1074.00</ele>
	<time>2025-02-15T12:04:05.000Z</time>
</trkpt>
<trkpt lat="45.8536220" lon="9.1959690">
	<ele>1073.60</ele>
	<time>2025-02-15T12:04:06.000Z</time>
</trkpt>
<trkpt lat="45.8536270" lon="9.1959750">
	<ele>1073.40</ele>
	<time>2025-02-15T12:04:07.000Z</time>
</trkpt>
<trkpt lat="45.8536310" lon="9.1959780">
	<ele>1073.40</ele>
	<time>2025-02-15T12:04:08.000Z</time>
</trkpt>
<trkpt lat="45.8536290" lon="9.1959820">
	<ele>1073.40</ele>
	<time>2025-02-15T12:04:09.000Z</time>
</trkpt>
<trkpt lat="45.8536280" lon="9.1959860">
	<ele>1073.20</ele>
	<time>2025-02-15T12:04:10.000Z</time>
</trkpt>
<trkpt lat="45.8536250" lon="9.1959920">
	<ele>1073.00</ele>
	<time>2025-02-15T12:04:11.000Z</time>
</trkpt>
<trkpt lat="45.8536270" lon="9.1959990">
	<ele>1072.80</ele>
	<time>2025-02-15T12:04:12.000Z</time>
</trkpt>
<trkpt lat="45.8536260" lon="9.1960000">
	<ele>1072.40</ele>
	<time>2025-02-15T12:04:13.000Z</time>
</trkpt>
<trkpt lat="45.8536340" lon="9.1960040">
	<ele>1072.00</ele>
	<time>2025-02-15T12:04:14.000Z</time>
</trkpt>
<trkpt lat="45.8536360" lon="9.1960060">
	<ele>1071.80</ele>
	<time>2025-02-15T12:04:15.000Z</time>
</trkpt>
<trkpt lat="45.8536260" lon="9.1960110">
	<ele>1071.80</ele>
	<time>2025-02-15T12:04:16.000Z</time>
</trkpt>
<trkpt lat="45.8536290" lon="9.1960150">
	<ele>1071.60</ele>
	<time>2025-02-15T12:04:17.000Z</time>
</trkpt>
<trkpt lat="45.8536160" lon="9.1960150">
	<ele>1071.40</ele>
	<time>2025-02-15T12:04:18.000Z</time>
</trkpt>
<trkpt lat="45.8536070" lon="9.1960180">
	<ele>1071.20</ele>
	<time>2025-02-15T12:04:19.000Z</time>
</trkpt>
<trkpt lat="45.8536040" lon="9.1960190">
	<ele>1070.60</ele>
	<time>2025-02-15T12:04:20.000Z</time>
</trkpt>
<trkpt lat="45.8536110" lon="9.1960230">
	<ele>1070.20</ele>
	<time>2025-02-15T12:04:21.000Z</time>
</trkpt>
<trkpt lat="45.8536090" lon="9.1960280">
	<ele>1070.00</ele>
	<time>2025-02-15T12:04:22.000Z</time>
</trkpt>
<trkpt lat="45.8536010" lon="9.1960330">
	<ele>1069.80</ele>
	<time>2025-02-15T12:04:23.000Z</time>
</trkpt>
<trkpt lat="45.8535900" lon="9.1960360">
	<ele>1069.60</ele>
	<time>2025-02-15T12:04:24.000Z</time>
</trkpt>
<trkpt lat="45.8535790" lon="9.1960330">
	<ele>1069.40</ele>
	<time>2025-02-15T12:04:25.000Z</time>
</trkpt>
<trkpt lat="45.8535620" lon="9.1960290">
	<ele>1069.20</ele>
	<time>2025-02-15T12:04:26.000Z</time>
</trkpt>
<trkpt lat="45.8535530" lon="9.1960260">
	<ele>1069.00</ele>
	<time>2025-02-15T12:04:27.000Z</time>
</trkpt>
<trkpt lat="45.8535400" lon="9.1960260">
	<ele>1068.60</ele>
	<time>2025-02-15T12:04:28.000Z</time>
</trkpt>
<trkpt lat="45.8535300" lon="9.1960270">
	<ele>1068.60</ele>
	<time>2025-02-15T12:04:29.000Z</time>
</trkpt>
<trkpt lat="45.8535260" lon="9.1960250">
	<ele>1068.40</ele>
	<time>2025-02-15T12:04:30.000Z</time>
</trkpt>
<trkpt lat="45.8535300" lon="9.1960230">
	<ele>1068.40</ele>
	<time>2025-02-15T12:04:31.000Z</time>
</trkpt>
<trkpt lat="45.8535290" lon="9.1960240">
	<ele>1068.40</ele>
	<time>2025-02-15T12:04:32.000Z</time>
</trkpt>
<trkpt lat="45.8535260" lon="9.1960200">
	<ele>1068.20</ele>
	<time>2025-02-15T12:04:33.000Z</time>
</trkpt>
<trkpt lat="45.8535240" lon="9.1960150">
	<ele>1068.00</ele>
	<time>2025-02-15T12:04:34.000Z</time>
</trkpt>
<trkpt lat="45.8535200" lon="9.1960200">
	<ele>1067.40</ele>
	<time>2025-02-15T12:04:35.000Z</time>
</trkpt>
<trkpt lat="45.8535170" lon="9.1960230">
	<ele>1067.20</ele>
	<time>2025-02-15T12:04:36.000Z</time>
</trkpt>
<trkpt lat="45.8535170" lon="9.1960210">
	<ele>1067.20</ele>
	<time>2025-02-15T12:04:37.000Z</time>
</trkpt>
<trkpt lat="45.8535220" lon="9.1960200">
	<ele>1066.80</ele>
	<time>2025-02-15T12:04:38.000Z</time>
</trkpt>
<trkpt lat="45.8535200" lon="9.1960180">
	<ele>1066.80</ele>
	<time>2025-02-15T12:04:39.000Z</time>
</trkpt>
<trkpt lat="45.8535170" lon="9.1960260">
	<ele>1066.60</ele>
	<time>2025-02-15T12:04:40.000Z</time>
</trkpt>
<trkpt lat="45.8535070" lon="9.1960280">
	<ele>1066.40</ele>
	<time>2025-02-15T12:04:41.000Z</time>
</trkpt>
<trkpt lat="45.8534980" lon="9.1960310">
	<ele>1066.00</ele>
	<time>2025-02-15T12:04:42.000Z</time>
</trkpt>
<trkpt lat="45.8534770" lon="9.1960350">
	<ele>1066.00</ele>
	<time>2025-02-15T12:04:43.000Z</time>
</trkpt>
<trkpt lat="45.8534660" lon="9.1960310">
	<ele>1065.80</ele>
	<time>2025-02-15T12:04:44.000Z</time>
</trkpt>
<trkpt lat="45.8534600" lon="9.1960290">
	<ele>1065.80</ele>
	<time>2025-02-15T12:04:45.000Z</time>
</trkpt>
<trkpt lat="45.8534530" lon="9.1960250">
	<ele>1065.60</ele>
	<time>2025-02-15T12:04:46.000Z</time>
</trkpt>
<trkpt lat="45.8534440" lon="9.1960200">
	<ele>1065.60</ele>
	<time>2025-02-15T12:04:47.000Z</time>
</trkpt>
<trkpt lat="45.8534250" lon="9.1960190">
	<ele>1065.40</ele>
	<time>2025-02-15T12:04:48.000Z</time>
</trkpt>
<trkpt lat="45.8534120" lon="9.1960160">
	<ele>1065.20</ele>
	<time>2025-02-15T12:04:49.000Z</time>
</trkpt>
<trkpt lat="45.8534030" lon="9.1960090">
	<ele>1065.00</ele>
	<time>2025-02-15T12:04:50.000Z</time>
</trkpt>
<trkpt lat="45.8533960" lon="9.1960020">
	<ele>1064.80</ele>
	<time>2025-02-15T12:04:51.000Z</time>
</trkpt>
<trkpt lat="45.8533880" lon="9.1960000">
	<ele>1064.60</ele>
	<time>2025-02-15T12:04:52.000Z</time>
</trkpt>
<trkpt lat="45.8533760" lon="9.1960050">
	<ele>1064.40</ele>
	<time>2025-02-15T12:04:53.000Z</time>
</trkpt>
<trkpt lat="45.8533750" lon="9.1960140">
	<ele>1064.20</ele>
	<time>2025-02-15T12:04:54.000Z</time>
</trkpt>
<trkpt lat="45.8533700" lon="9.1960130">
	<ele>1064.00</ele>
	<time>2025-02-15T12:04:55.000Z</time>
</trkpt>
<trkpt lat="45.8533730" lon="9.1960150">
	<ele>1063.60</ele>
	<time>2025-02-15T12:04:56.000Z</time>
</trkpt>
<trkpt lat="45.8533800" lon="9.1960260">
	<ele>1063.40</ele>
	<time>2025-02-15T12:04:57.000Z</time>
</trkpt>
<trkpt lat="45.8533950" lon="9.1960360">
	<ele>1063.20</ele>
	<time>2025-02-15T12:04:58.000Z</time>
</trkpt>
<trkpt lat="45.8534050" lon="9.1960440">
	<ele>1063.20</ele>
	<time>2025-02-15T12:04:59.000Z</time>
</trkpt>
<trkpt lat="45.8534220" lon="9.1960540">
	<ele>1062.80</ele>
	<time>2025-02-15T12:05:00.000Z</time>
</trkpt>
<trkpt lat="45.8534320" lon="9.1960680">
	<ele>1062.80</ele>
	<time>2025-02-15T12:05:01.000Z</time>
</trkpt>
<trkpt lat="45.8534340" lon="9.1960770">
	<ele>1062.60</ele>
	<time>2025-02-15T12:05:02.000Z</time>
</trkpt>
<trkpt lat="45.8534430" lon="9.1960870">
	<ele>1062.40</ele>
	<time>2025-02-15T12:05:03.000Z</time>
</trkpt>
<trkpt lat="45.8534430" lon="9.1960970">
	<ele>1062.00</ele>
	<time>2025-02-15T12:05:04.000Z</time>
</trkpt>
<trkpt lat="45.8534460" lon="9.1961090">
	<ele>1061.80</ele>
	<time>2025-02-15T12:05:05.000Z</time>
</trkpt>
<trkpt lat="45.8534620" lon="9.1961200">
	<ele>1061.40</ele>
	<time>2025-02-15T12:05:06.000Z</time>
</trkpt>
<trkpt lat="45.8534750" lon="9.1961300">
	<ele>1061.20</ele>
	<time>2025-02-15T12:05:07.000Z</time>
</trkpt>
<trkpt lat="45.8534810" lon="9.1961330">
	<ele>1061.20</ele>
	<time>2025-02-15T12:05:08.000Z</time>
</trkpt>
<trkpt lat="45.8534870" lon="9.1961330">
	<ele>1061.20</ele>
	<time>2025-02-15T12:05:09.000Z</time>
</trkpt>
<trkpt lat="45.8534740" lon="9.1961280">
	<ele>1061.20</ele>
	<time>2025-02-15T12:05:10.000Z</time>
</trkpt>
<trkpt lat="45.8534620" lon="9.1961180">
	<ele>1061.00</ele>
	<time>2025-02-15T12:05:11.000Z</time>
</trkpt>
<trkpt lat="45.8534640" lon="9.1961260">
	<ele>1060.60</ele>
	<time>2025-02-15T12:05:12.000Z</time>
</trkpt>
<trkpt lat="45.8534720" lon="9.1961310">
	<ele>1060.40</ele>
	<time>2025-02-15T12:05:13.000Z</time>
</trkpt>
<trkpt lat="45.8534840" lon="9.1961360">
	<ele>1059.80</ele>
	<time>2025-02-15T12:05:14.000Z</time>
</trkpt>
<trkpt lat="45.8534840" lon="9.1961440">
	<ele>1059.60</ele>
	<time>2025-02-15T12:05:15.000Z</time>
</trkpt>
<trkpt lat="45.8534670" lon="9.1961430">
	<ele>1059.40</ele>
	<time>2025-02-15T12:05:16.000Z</time>
</trkpt>
<trkpt lat="45.8534570" lon="9.1961410">
	<ele>1059.20</ele>
	<time>2025-02-15T12:05:17.000Z</time>
</trkpt>
<trkpt lat="45.8534540" lon="9.1961460">
	<ele>1059.20</ele>
	<time>2025-02-15T12:05:18.000Z</time>
</trkpt>
<trkpt lat="45.8534580" lon="9.1961570">
	<ele>1059.00</ele>
	<time>2025-02-15T12:05:19.000Z</time>
</trkpt>
<trkpt lat="45.8534680" lon="9.1961710">
	<ele>1059.00</ele>
	<time>2025-02-15T12:05:20.000Z</time>
</trkpt>
<trkpt lat="45.8534720" lon="9.1961750">
	<ele>1059.00</ele>
	<time>2025-02-15T12:05:21.000Z</time>
</trkpt>
<trkpt lat="45.8534670" lon="9.1961860">
	<ele>1058.60</ele>
	<time>2025-02-15T12:05:22.000Z</time>
</trkpt>
<trkpt lat="45.8534670" lon="9.1961900">
	<ele>1058.40</ele>
	<time>2025-02-15T12:05:23.000Z</time>
</trkpt>
<trkpt lat="45.8534680" lon="9.1961920">
	<ele>1058.20</ele>
	<time>2025-02-15T12:05:24.000Z</time>
</trkpt>
<trkpt lat="45.8534680" lon="9.1961940">
	<ele>1058.40</ele>
	<time>2025-02-15T12:05:25.000Z</time>
</trkpt>
<trkpt lat="45.8534670" lon="9.1961930">
	<ele>1058.20</ele>
	<time>2025-02-15T12:05:26.000Z</time>
</trkpt>
<trkpt lat="45.8534670" lon="9.1961920">
	<ele>1057.80</ele>
	<time>2025-02-15T12:05:27.000Z</time>
</trkpt>
<trkpt lat="45.8534660" lon="9.1961960">
	<ele>1057.60</ele>
	<time>2025-02-15T12:05:28.000Z</time>
</trkpt>
<trkpt lat="45.8534610" lon="9.1961970">
	<ele>1057.40</ele>
	<time>2025-02-15T12:05:29.000Z</time>
</trkpt>
<trkpt lat="45.8534650" lon="9.1962020">
	<ele>1057.40</ele>
	<time>2025-02-15T12:05:30.000Z</time>
</trkpt>
<trkpt lat="45.8534600" lon="9.1962050">
	<ele>1057.40</ele>
	<time>2025-02-15T12:05:31.000Z</time>
</trkpt>
<trkpt lat="45.8534640" lon="9.1962030">
	<ele>1057.40</ele>
	<time>2025-02-15T12:05:32.000Z</time>
</trkpt>
<trkpt lat="45.8534640" lon="9.1962030">
	<ele>1057.20</ele>
	<time>2025-02-15T12:05:33.000Z</time>
</trkpt>
<trkpt lat="45.8534640" lon="9.1962030">
	<ele>1057.40</ele>
	<time>2025-02-15T12:05:34.000Z</time>
</trkpt>
<trkpt lat="45.8534640" lon="9.1962030">
	<ele>1057.20</ele>
	<time>2025-02-15T12:05:35.000Z</time>
</trkpt>
<trkpt lat="45.8534640" lon="9.1962030">
	<ele>1057.20</ele>
	<time>2025-02-15T12:05:36.000Z</time>
</trkpt>
<trkpt lat="45.8534640" lon="9.1962030">
	<ele>1057.20</ele>
	<time>2025-02-15T12:05:37.000Z</time>
</trkpt>
<trkpt lat="45.8534640" lon="9.1962030">
	<ele>1057.20</ele>
	<time>2025-02-15T12:05:38.000Z</time>
</trkpt>
<trkpt lat="45.8534640" lon="9.1962030">
	<ele>1057.40</ele>
	<time>2025-02-15T12:05:39.000Z</time>
</trkpt>
<trkpt lat="45.8534610" lon="9.1962050">
	<ele>1057.40</ele>
	<time>2025-02-15T12:05:40.000Z</time>
</trkpt>
<trkpt lat="45.8534570" lon="9.1962030">
	<ele>1057.40</ele>
	<time>2025-02-15T12:05:41.000Z</time>
</trkpt>
<trkpt lat="45.8534540" lon="9.1962040">
	<ele>1057.40</ele>
	<time>2025-02-15T12:05:42.000Z</time>
</trkpt>
<trkpt lat="45.8534570" lon="9.1962150">
	<ele>1057.40</ele>
	<time>2025-02-15T12:05:43.000Z</time>
</trkpt>
<trkpt lat="45.8534570" lon="9.1962220">
	<ele>1057.20</ele>
	<time>2025-02-15T12:05:44.000Z</time>
</trkpt>
<trkpt lat="45.8534540" lon="9.1962280">
	<ele>1057.20</ele>
	<time>2025-02-15T12:05:45.000Z</time>
</trkpt>
<trkpt lat="45.8534430" lon="9.1962280">
	<ele>1057.20</ele>
	<time>2025-02-15T12:05:46.000Z</time>
</trkpt>
<trkpt lat="45.8534420" lon="9.1962320">
	<ele>1057.20</ele>
	<time>2025-02-15T12:05:47.000Z</time>
</trkpt>
<trkpt lat="45.8534410" lon="9.1962340">
	<ele>1057.00</ele>
	<time>2025-02-15T12:05:48.000Z</time>
</trkpt>
<trkpt lat="45.8534330" lon="9.1962370">
	<ele>1057.20</ele>
	<time>2025-02-15T12:05:49.000Z</time>
</trkpt>
<trkpt lat="45.8534120" lon="9.1962390">
	<ele>1057.20</ele>
	<time>2025-02-15T12:05:50.000Z</time>
</trkpt>
<trkpt lat="45.8533910" lon="9.1962390">
	<ele>1057.40</ele>
	<time>2025-02-15T12:05:51.000Z</time>
</trkpt>
<trkpt lat="45.8533670" lon="9.1962460">
	<ele>1057.40</ele>
	<time>2025-02-15T12:05:52.000Z</time>
</trkpt>
<trkpt lat="45.8533590" lon="9.1962500">
	<ele>1057.60</ele>
	<time>2025-02-15T12:05:53.000Z</time>
</trkpt>
<trkpt lat="45.8533550" lon="9.1962510">
	<ele>1057.60</ele>
	<time>2025-02-15T12:05:54.000Z</time>
</trkpt>
<trkpt lat="45.8533510" lon="9.1962530">
	<ele>1057.60</ele>
	<time>2025-02-15T12:05:55.000Z</time>
</trkpt>
<trkpt lat="45.8533460" lon="9.1962520">
	<ele>1057.60</ele>
	<time>2025-02-15T12:05:56.000Z</time>
</trkpt>
<trkpt lat="45.8533470" lon="9.1962530">
	<ele>1057.60</ele>
	<time>2025-02-15T12:05:57.000Z</time>
</trkpt>
<trkpt lat="45.8533480" lon="9.1962520">
	<ele>1057.60</ele>
	<time>2025-02-15T12:05:58.000Z</time>
</trkpt>
<trkpt lat="45.8533450" lon="9.1962560">
	<ele>1057.60</ele>
	<time>2025-02-15T12:05:59.000Z</time>
</trkpt>
<trkpt lat="45.8533460" lon="9.1962600">
	<ele>1057.60</ele>
	<time>2025-02-15T12:06:00.000Z</time>
</trkpt>
<trkpt lat="45.8533470" lon="9.1962630">
	<ele>1057.60</ele>
	<time>2025-02-15T12:06:01.000Z</time>
</trkpt>
<trkpt lat="45.8533500" lon="9.1962690">
	<ele>1057.60</ele>
	<time>2025-02-15T12:06:02.000Z</time>
</trkpt>
<trkpt lat="45.8533640" lon="9.1962700">
	<ele>1057.60</ele>
	<time>2025-02-15T12:06:03.000Z</time>
</trkpt>
<trkpt lat="45.8533650" lon="9.1962710">
	<ele>1057.40</ele>
	<time>2025-02-15T12:06:04.000Z</time>
</trkpt>
<trkpt lat="45.8533710" lon="9.1962700">
	<ele>1057.40</ele>
	<time>2025-02-15T12:06:05.000Z</time>
</trkpt>
<trkpt lat="45.8533730" lon="9.1962710">
	<ele>1057.40</ele>
	<time>2025-02-15T12:06:06.000Z</time>
</trkpt>
<trkpt lat="45.8533840" lon="9.1962700">
	<ele>1057.20</ele>
	<time>2025-02-15T12:06:07.000Z</time>
</trkpt>
<trkpt lat="45.8533780" lon="9.1962710">
	<ele>1057.20</ele>
	<time>2025-02-15T12:06:08.000Z</time>
</trkpt>
<trkpt lat="45.8533840" lon="9.1962680">
	<ele>1057.20</ele>
	<time>2025-02-15T12:06:09.000Z</time>
</trkpt>
<trkpt lat="45.8533960" lon="9.1962640">
	<ele>1057.20</ele>
	<time>2025-02-15T12:06:10.000Z</time>
</trkpt>
<trkpt lat="45.8534110" lon="9.1962600">
	<ele>1057.20</ele>
	<time>2025-02-15T12:06:11.000Z</time>
</trkpt>
<trkpt lat="45.8534110" lon="9.1962560">
	<ele>1057.00</ele>
	<time>2025-02-15T12:06:12.000Z</time>
</trkpt>
<trkpt lat="45.8534090" lon="9.1962520">
	<ele>1057.00</ele>
	<time>2025-02-15T12:06:13.000Z</time>
</trkpt>
<trkpt lat="45.8534060" lon="9.1962520">
	<ele>1057.20</ele>
	<time>2025-02-15T12:06:14.000Z</time>
</trkpt>
<trkpt lat="45.8534050" lon="9.1962520">
	<ele>1057.20</ele>
	<time>2025-02-15T12:06:15.000Z</time>
</trkpt>
<trkpt lat="45.8533900" lon="9.1962490">
	<ele>1057.20</ele>
	<time>2025-02-15T12:06:16.000Z</time>
</trkpt>
<trkpt lat="45.8533720" lon="9.1962450">
	<ele>1057.20</ele>
	<time>2025-02-15T12:06:17.000Z</time>
</trkpt>
<trkpt lat="45.8533610" lon="9.1962470">
	<ele>1057.40</ele>
	<time>2025-02-15T12:06:18.000Z</time>
</trkpt>
<trkpt lat="45.8533490" lon="9.1962520">
	<ele>1057.40</ele>
	<time>2025-02-15T12:06:19.000Z</time>
</trkpt>
<trkpt lat="45.8533380" lon="9.1962500">
	<ele>1057.40</ele>
	<time>2025-02-15T12:06:20.000Z</time>
</trkpt>
<trkpt lat="45.8533280" lon="9.1962440">
	<ele>1057.40</ele>
	<time>2025-02-15T12:06:21.000Z</time>
</trkpt>
<trkpt lat="45.8533280" lon="9.1962420">
	<ele>1057.40</ele>
	<time>2025-02-15T12:06:22.000Z</time>
</trkpt>
<trkpt lat="45.8533280" lon="9.1962420">
	<ele>1057.40</ele>
	<time>2025-02-15T12:06:23.000Z</time>
</trkpt>
<trkpt lat="45.8533220" lon="9.1962450">
	<ele>1057.40</ele>
	<time>2025-02-15T12:06:24.000Z</time>
</trkpt>
<trkpt lat="45.8533160" lon="9.1962490">
	<ele>1057.20</ele>
	<time>2025-02-15T12:06:25.000Z</time>
</trkpt>
<trkpt lat="45.8533080" lon="9.1962530">
	<ele>1057.20</ele>
	<time>2025-02-15T12:06:26.000Z</time>
</trkpt>
<trkpt lat="45.8533120" lon="9.1962590">
	<ele>1057.20</ele>
	<time>2025-02-15T12:06:27.000Z</time>
</trkpt>
<trkpt lat="45.8533070" lon="9.1962610">
	<ele>1057.00</ele>
	<time>2025-02-15T12:06:28.000Z</time>
</trkpt>
<trkpt lat="45.8533060" lon="9.1962670">
	<ele>1057.00</ele>
	<time>2025-02-15T12:06:29.000Z</time>
</trkpt>
<trkpt lat="45.8533090" lon="9.1962940">
	<ele>1057.00</ele>
	<time>2025-02-15T12:06:30.000Z</time>
</trkpt>
<trkpt lat="45.8533120" lon="9.1963330">
	<ele>1057.00</ele>
	<time>2025-02-15T12:06:31.000Z</time>
</trkpt>
<trkpt lat="45.8533080" lon="9.1963450">
	<ele>1057.00</ele>
	<time>2025-02-15T12:06:32.000Z</time>
</trkpt>
<trkpt lat="45.8533110" lon="9.1963780">
	<ele>1057.00</ele>
	<time>2025-02-15T12:06:33.000Z</time>
</trkpt>
<trkpt lat="45.8533140" lon="9.1963880">
	<ele>1057.00</ele>
	<time>2025-02-15T12:06:34.000Z</time>
</trkpt>
<trkpt lat="45.8533060" lon="9.1963820">
	<ele>1057.20</ele>
	<time>2025-02-15T12:06:35.000Z</time>
</trkpt>
<trkpt lat="45.8532980" lon="9.1963690">
	<ele>1057.20</ele>
	<time>2025-02-15T12:06:36.000Z</time>
</trkpt>
<trkpt lat="45.8532920" lon="9.1963570">
	<ele>1057.20</ele>
	<time>2025-02-15T12:06:37.000Z</time>
</trkpt>
<trkpt lat="45.8532900" lon="9.1963530">
	<ele>1057.40</ele>
	<time>2025-02-15T12:06:38.000Z</time>
</trkpt>
<trkpt lat="45.8532860" lon="9.1963540">
	<ele>1057.40</ele>
	<time>2025-02-15T12:06:39.000Z</time>
</trkpt>
<trkpt lat="45.8532880" lon="9.1963550">
	<ele>1057.40</ele>
	<time>2025-02-15T12:06:40.000Z</time>
</trkpt>
<trkpt lat="45.8532900" lon="9.1963570">
	<ele>1057.40</ele>
	<time>2025-02-15T12:06:41.000Z</time>
</trkpt>
<trkpt lat="45.8532830" lon="9.1963590">
	<ele>1057.40</ele>
	<time>2025-02-15T12:06:42.000Z</time>
</trkpt>
<trkpt lat="45.8532450" lon="9.1963680">
	<ele>1057.40</ele>
	<time>2025-02-15T12:06:43.000Z</time>
</trkpt>
<trkpt lat="45.8531870" lon="9.1963770">
	<ele>1057.20</ele>
	<time>2025-02-15T12:06:44.000Z</time>
</trkpt>
<trkpt lat="45.8531610" lon="9.1963810">
	<ele>1057.20</ele>
	<time>2025-02-15T12:06:45.000Z</time>
</trkpt>
<trkpt lat="45.8531070" lon="9.1963850">
	<ele>1057.20</ele>
	<time>2025-02-15T12:06:46.000Z</time>
</trkpt>
<trkpt lat="45.8530810" lon="9.1963890">
	<ele>1057.20</ele>
	<time>2025-02-15T12:06:47.000Z</time>
</trkpt>
<trkpt lat="45.8530680" lon="9.1963980">
	<ele>1057.00</ele>
	<time>2025-02-15T12:06:48.000Z</time>
</trkpt>
<trkpt lat="45.8530730" lon="9.1964010">
	<ele>1057.00</ele>
	<time>2025-02-15T12:06:49.000Z</time>
</trkpt>
<trkpt lat="45.8530840" lon="9.1963980">
	<ele>1057.00</ele>
	<time>2025-02-15T12:06:50.000Z</time>
</trkpt>
<trkpt lat="45.8530950" lon="9.1963960">
	<ele>1057.00</ele>
	<time>2025-02-15T12:06:51.000Z</time>
</trkpt>
<trkpt lat="45.8531050" lon="9.1963940">
	<ele>1057.00</ele>
	<time>2025-02-15T12:06:52.000Z</time>
</trkpt>
<trkpt lat="45.8531020" lon="9.1963960">
	<ele>1057.00</ele>
	<time>2025-02-15T12:06:53.000Z</time>
</trkpt>
<trkpt lat="45.8531020" lon="9.1963970">
	<ele>1057.00</ele>
	<time>2025-02-15T12:06:54.000Z</time>
</trkpt>
<trkpt lat="45.8531020" lon="9.1963960">
	<ele>1057.00</ele>
	<time>2025-02-15T12:06:55.000Z</time>
</trkpt>
<trkpt lat="45.8531040" lon="9.1963950">
	<ele>1057.00</ele>
	<time>2025-02-15T12:06:56.000Z</time>
</trkpt>
<trkpt lat="45.8531140" lon="9.1963940">
	<ele>1057.00</ele>
	<time>2025-02-15T12:06:57.000Z</time>
</trkpt>
<trkpt lat="45.8531180" lon="9.1963940">
	<ele>1057.00</ele>
	<time>2025-02-15T12:06:58.000Z</time>
</trkpt>
<trkpt lat="45.8531170" lon="9.1963960">
	<ele>1057.00</ele>
	<time>2025-02-15T12:06:59.000Z</time>
</trkpt>
<trkpt lat="45.8531210" lon="9.1963990">
	<ele>1057.00</ele>
	<time>2025-02-15T12:07:00.000Z</time>
</trkpt>
<trkpt lat="45.8531200" lon="9.1963990">
	<ele>1057.00</ele>
	<time>2025-02-15T12:07:01.000Z</time>
</trkpt>
<trkpt lat="45.8531180" lon="9.1963960">
	<ele>1057.00</ele>
	<time>2025-02-15T12:07:02.000Z</time>
</trkpt>
<trkpt lat="45.8531150" lon="9.1963940">
	<ele>1057.00</ele>
	<time>2025-02-15T12:07:03.000Z</time>
</trkpt>
<trkpt lat="45.8531110" lon="9.1963950">
	<ele>1057.00</ele>
	<time>2025-02-15T12:07:04.000Z</time>
</trkpt>
<trkpt lat="45.8531110" lon="9.1963930">
	<ele>1057.00</ele>
	<time>2025-02-15T12:07:05.000Z</time>
</trkpt>
<trkpt lat="45.8531110" lon="9.1963930">
	<ele>1057.00</ele>
	<time>2025-02-15T12:07:06.000Z</time>
</trkpt>
<trkpt lat="45.8531090" lon="9.1963930">
	<ele>1057.00</ele>
	<time>2025-02-15T12:07:07.000Z</time>
</trkpt>
<trkpt lat="45.8531090" lon="9.1963900">
	<ele>1057.00</ele>
	<time>2025-02-15T12:07:08.000Z</time>
</trkpt>
<trkpt lat="45.8531080" lon="9.1963880">
	<ele>1057.00</ele>
	<time>2025-02-15T12:07:09.000Z</time>
</trkpt>
<trkpt lat="45.8531060" lon="9.1963870">
	<ele>1057.00</ele>
	<time>2025-02-15T12:07:10.000Z</time>
</trkpt>
<trkpt lat="45.8531040" lon="9.1963880">
	<ele>1057.00</ele>
	<time>2025-02-15T12:07:11.000Z</time>
</trkpt>
<trkpt lat="45.8531020" lon="9.1963890">
	<ele>1057.00</ele>
	<time>2025-02-15T12:07:12.000Z</time>
</trkpt>
<trkpt lat="45.8531010" lon="9.1963900">
	<ele>1057.00</ele>
	<time>2025-02-15T12:07:13.000Z</time>
</trkpt>
<trkpt lat="45.8530990" lon="9.1963830">
	<ele>1057.00</ele>
	<time>2025-02-15T12:07:14.000Z</time>
</trkpt>
<trkpt lat="45.8530990" lon="9.1963790">
	<ele>1057.00</ele>
	<time>2025-02-15T12:07:15.000Z</time>
</trkpt>
<trkpt lat="45.8530980" lon="9.1963750">
	<ele>1057.00</ele>
	<time>2025-02-15T12:07:16.000Z</time>
</trkpt>
<trkpt lat="45.8530950" lon="9.1963740">
	<ele>1057.00</ele>
	<time>2025-02-15T12:07:17.000Z</time>
</trkpt>
<trkpt lat="45.8530970" lon="9.1963690">
	<ele>1057.00</ele>
	<time>2025-02-15T12:07:18.000Z</time>
</trkpt>
<trkpt lat="45.8531010" lon="9.1963650">
	<ele>1057.00</ele>
	<time>2025-02-15T12:07:19.000Z</time>
</trkpt>
<trkpt lat="45.8530970" lon="9.1963610">
	<ele>1057.00</ele>
	<time>2025-02-15T12:07:20.000Z</time>
</trkpt>
<trkpt lat="45.8530920" lon="9.1963560">
	<ele>1057.00</ele>
	<time>2025-02-15T12:07:21.000Z</time>
</trkpt>
<trkpt lat="45.8530870" lon="9.1963510">
	<ele>1057.00</ele>
	<time>2025-02-15T12:07:22.000Z</time>
</trkpt>
<trkpt lat="45.8530850" lon="9.1963480">
	<ele>1057.00</ele>
	<time>2025-02-15T12:07:23.000Z</time>
</trkpt>
<trkpt lat="45.8530810" lon="9.1963450">
	<ele>1057.00</ele>
	<time>2025-02-15T12:07:24.000Z</time>
</trkpt>
<trkpt lat="45.8530970" lon="9.1963440">
	<ele>1057.00</ele>
	<time>2025-02-15T12:07:25.000Z</time>
</trkpt>
<trkpt lat="45.8531080" lon="9.1963410">
	<ele>1057.00</ele>
	<time>2025-02-15T12:07:26.000Z</time>
</trkpt>
<trkpt lat="45.8531060" lon="9.1963430">
	<ele>1057.00</ele>
	<time>2025-02-15T12:07:27.000Z</time>
</trkpt>
<trkpt lat="45.8531050" lon="9.1963460">
	<ele>1057.00</ele>
	<time>2025-02-15T12:07:28.000Z</time>
</trkpt>
<trkpt lat="45.8531130" lon="9.1963340">
	<ele>1057.00</ele>
	<time>2025-02-15T12:07:29.000Z</time>
</trkpt>
<trkpt lat="45.8531140" lon="9.1963370">
	<ele>1057.00</ele>
	<time>2025-02-15T12:07:30.000Z</time>
</trkpt>
<trkpt lat="45.8531160" lon="9.1963400">
	<ele>1057.00</ele>
	<time>2025-02-15T12:07:31.000Z</time>
</trkpt>
<trkpt lat="45.8531180" lon="9.1963420">
	<ele>1057.00</ele>
	<time>2025-02-15T12:07:32.000Z</time>
</trkpt>
<trkpt lat="45.8531260" lon="9.1963360">
	<ele>1057.00</ele>
	<time>2025-02-15T12:07:33.000Z</time>
</trkpt>
<trkpt lat="45.8531340" lon="9.1963330">
	<ele>1057.00</ele>
	<time>2025-02-15T12:07:34.000Z</time>
</trkpt>
<trkpt lat="45.8531440" lon="9.1963400">
	<ele>1057.00</ele>
	<time>2025-02-15T12:07:35.000Z</time>
</trkpt>
<trkpt lat="45.8531470" lon="9.1963420">
	<ele>1057.00</ele>
	<time>2025-02-15T12:07:36.000Z</time>
</trkpt>
<trkpt lat="45.8531480" lon="9.1963440">
	<ele>1057.00</ele>
	<time>2025-02-15T12:07:37.000Z</time>
</trkpt>
<trkpt lat="45.8531540" lon="9.1963490">
	<ele>1057.00</ele>
	<time>2025-02-15T12:07:38.000Z</time>
</trkpt>
<trkpt lat="45.8531540" lon="9.1963530">
	<ele>1057.00</ele>
	<time>2025-02-15T12:07:39.000Z</time>
</trkpt>
<trkpt lat="45.8531650" lon="9.1963590">
	<ele>1057.00</ele>
	<time>2025-02-15T12:07:40.000Z</time>
</trkpt>
<trkpt lat="45.8531830" lon="9.1963610">
	<ele>1057.00</ele>
	<time>2025-02-15T12:07:41.000Z</time>
</trkpt>
<trkpt lat="45.8531890" lon="9.1963620">
	<ele>1057.00</ele>
	<time>2025-02-15T12:07:42.000Z</time>
</trkpt>
<trkpt lat="45.8531970" lon="9.1963700">
	<ele>1057.00</ele>
	<time>2025-02-15T12:07:43.000Z</time>
</trkpt>
<trkpt lat="45.8531970" lon="9.1963740">
	<ele>1057.00</ele>
	<time>2025-02-15T12:07:44.000Z</time>
</trkpt>
<trkpt lat="45.8532030" lon="9.1963880">
	<ele>1057.00</ele>
	<time>2025-02-15T12:07:45.000Z</time>
</trkpt>
<trkpt lat="45.8532040" lon="9.1963940">
	<ele>1057.00</ele>
	<time>2025-02-15T12:07:46.000Z</time>
</trkpt>
<trkpt lat="45.8532040" lon="9.1964000">
	<ele>1057.00</ele>
	<time>2025-02-15T12:07:47.000Z</time>
</trkpt>
<trkpt lat="45.8532050" lon="9.1964000">
	<ele>1057.00</ele>
	<time>2025-02-15T12:07:48.000Z</time>
</trkpt>
<trkpt lat="45.8532050" lon="9.1964020">
	<ele>1048.20</ele>
	<time>2025-02-15T12:07:49.000Z</time>
</trkpt>
<trkpt lat="45.8532230" lon="9.1963980">
	<ele>1048.20</ele>
	<time>2025-02-15T12:07:50.000Z</time>
</trkpt>
<trkpt lat="45.8532500" lon="9.1963910">
	<ele>1048.20</ele>
	<time>2025-02-15T12:07:51.000Z</time>
</trkpt>
<trkpt lat="45.8532710" lon="9.1963940">
	<ele>1048.20</ele>
	<time>2025-02-15T12:07:52.000Z</time>
</trkpt>
<trkpt lat="45.8532730" lon="9.1963960">
	<ele>1048.20</ele>
	<time>2025-02-15T12:07:53.000Z</time>
</trkpt>
<trkpt lat="45.8532720" lon="9.1964070">
	<ele>1048.20</ele>
	<time>2025-02-15T12:07:54.000Z</time>
</trkpt>
<trkpt lat="45.8532650" lon="9.1964200">
	<ele>1048.20</ele>
	<time>2025-02-15T12:07:55.000Z</time>
</trkpt>
<trkpt lat="45.8532640" lon="9.1964340">
	<ele>1048.00</ele>
	<time>2025-02-15T12:07:56.000Z</time>
</trkpt>
<trkpt lat="45.8532660" lon="9.1964390">
	<ele>1047.80</ele>
	<time>2025-02-15T12:07:57.000Z</time>
</trkpt>
<trkpt lat="45.8532660" lon="9.1964440">
	<ele>1047.60</ele>
	<time>2025-02-15T12:07:58.000Z</time>
</trkpt>
<trkpt lat="45.8532680" lon="9.1964540">
	<ele>1047.40</ele>
	<time>2025-02-15T12:07:59.000Z</time>
</trkpt>
<trkpt lat="45.8532710" lon="9.1964670">
	<ele>1047.40</ele>
	<time>2025-02-15T12:08:00.000Z</time>
</trkpt>
<trkpt lat="45.8532770" lon="9.1964780">
	<ele>1046.80</ele>
	<time>2025-02-15T12:08:01.000Z</time>
</trkpt>
<trkpt lat="45.8532820" lon="9.1964890">
	<ele>1046.60</ele>
	<time>2025-02-15T12:08:02.000Z</time>
</trkpt>
<trkpt lat="45.8532800" lon="9.1965070">
	<ele>1046.40</ele>
	<time>2025-02-15T12:08:03.000Z</time>
</trkpt>
<trkpt lat="45.8532840" lon="9.1965250">
	<ele>1046.40</ele>
	<time>2025-02-15T12:08:04.000Z</time>
</trkpt>
<trkpt lat="45.8532900" lon="9.1965360">
	<ele>1046.20</ele>
	<time>2025-02-15T12:08:05.000Z</time>
</trkpt>
<trkpt lat="45.8532950" lon="9.1965440">
	<ele>1046.00</ele>
	<time>2025-02-15T12:08:06.000Z</time>
</trkpt>
<trkpt lat="45.8533030" lon="9.1965490">
	<ele>1045.60</ele>
	<time>2025-02-15T12:08:07.000Z</time>
</trkpt>
<trkpt lat="45.8533070" lon="9.1965600">
	<ele>1045.60</ele>
	<time>2025-02-15T12:08:08.000Z</time>
</trkpt>
<trkpt lat="45.8533110" lon="9.1965750">
	<ele>1045.40</ele>
	<time>2025-02-15T12:08:09.000Z</time>
</trkpt>
<trkpt lat="45.8533120" lon="9.1965850">
	<ele>1045.40</ele>
	<time>2025-02-15T12:08:10.000Z</time>
</trkpt>
<trkpt lat="45.8533160" lon="9.1966040">
	<ele>1045.20</ele>
	<time>2025-02-15T12:08:11.000Z</time>
</trkpt>
<trkpt lat="45.8533250" lon="9.1966210">
	<ele>1045.00</ele>
	<time>2025-02-15T12:08:12.000Z</time>
</trkpt>
<trkpt lat="45.8533280" lon="9.1966270">
	<ele>1044.80</ele>
	<time>2025-02-15T12:08:13.000Z</time>
</trkpt>
<trkpt lat="45.8533380" lon="9.1966260">
	<ele>1044.60</ele>
	<time>2025-02-15T12:08:14.000Z</time>
</trkpt>
<trkpt lat="45.8533480" lon="9.1966150">
	<ele>1044.60</ele>
	<time>2025-02-15T12:08:15.000Z</time>
</trkpt>
<trkpt lat="45.8533600" lon="9.1966050">
	<ele>1044.40</ele>
	<time>2025-02-15T12:08:16.000Z</time>
</trkpt>
<trkpt lat="45.8533730" lon="9.1966050">
	<ele>1044.20</ele>
	<time>2025-02-15T12:08:17.000Z</time>
</trkpt>
<trkpt lat="45.8533780" lon="9.1966150">
	<ele>1044.00</ele>
	<time>2025-02-15T12:08:18.000Z</time>
</trkpt>
<trkpt lat="45.8533730" lon="9.1966280">
	<ele>1043.80</ele>
	<time>2025-02-15T12:08:19.000Z</time>
</trkpt>
<trkpt lat="45.8533570" lon="9.1966430">
	<ele>1043.60</ele>
	<time>2025-02-15T12:08:20.000Z</time>
</trkpt>
<trkpt lat="45.8533510" lon="9.1966610">
	<ele>1043.40</ele>
	<time>2025-02-15T12:08:21.000Z</time>
</trkpt>
<trkpt lat="45.8533480" lon="9.1966770">
	<ele>1043.20</ele>
	<time>2025-02-15T12:08:22.000Z</time>
</trkpt>
<trkpt lat="45.8533450" lon="9.1966850">
	<ele>1043.20</ele>
	<time>2025-02-15T12:08:23.000Z</time>
</trkpt>
<trkpt lat="45.8533600" lon="9.1966890">
	<ele>1043.00</ele>
	<time>2025-02-15T12:08:24.000Z</time>
</trkpt>
<trkpt lat="45.8533690" lon="9.1966970">
	<ele>1043.00</ele>
	<time>2025-02-15T12:08:25.000Z</time>
</trkpt>
<trkpt lat="45.8533750" lon="9.1967120">
	<ele>1042.60</ele>
	<time>2025-02-15T12:08:26.000Z</time>
</trkpt>
<trkpt lat="45.8533780" lon="9.1967340">
	<ele>1042.40</ele>
	<time>2025-02-15T12:08:27.000Z</time>
</trkpt>
<trkpt lat="45.8533770" lon="9.1967590">
	<ele>1042.20</ele>
	<time>2025-02-15T12:08:28.000Z</time>
</trkpt>
<trkpt lat="45.8533720" lon="9.1967730">
	<ele>1042.00</ele>
	<time>2025-02-15T12:08:29.000Z</time>
</trkpt>
<trkpt lat="45.8533710" lon="9.1967840">
	<ele>1041.80</ele>
	<time>2025-02-15T12:08:30.000Z</time>
</trkpt>
<trkpt lat="45.8533850" lon="9.1968070">
	<ele>1041.80</ele>
	<time>2025-02-15T12:08:31.000Z</time>
</trkpt>
<trkpt lat="45.8533900" lon="9.1968360">
	<ele>1041.60</ele>
	<time>2025-02-15T12:08:32.000Z</time>
</trkpt>
<trkpt lat="45.8533950" lon="9.1968530">
	<ele>1041.60</ele>
	<time>2025-02-15T12:08:33.000Z</time>
</trkpt>
<trkpt lat="45.8534030" lon="9.1968710">
	<ele>1041.40</ele>
	<time>2025-02-15T12:08:34.000Z</time>
</trkpt>
<trkpt lat="45.8534080" lon="9.1968850">
	<ele>1041.40</ele>
	<time>2025-02-15T12:08:35.000Z</time>
</trkpt>
<trkpt lat="45.8534180" lon="9.1968960">
	<ele>1041.00</ele>
	<time>2025-02-15T12:08:36.000Z</time>
</trkpt>
<trkpt lat="45.8534180" lon="9.1969020">
	<ele>1040.80</ele>
	<time>2025-02-15T12:08:37.000Z</time>
</trkpt>
<trkpt lat="45.8534290" lon="9.1969200">
	<ele>1040.80</ele>
	<time>2025-02-15T12:08:38.000Z</time>
</trkpt>
<trkpt lat="45.8534300" lon="9.1969520">
	<ele>1040.60</ele>
	<time>2025-02-15T12:08:39.000Z</time>
</trkpt>
<trkpt lat="45.8534330" lon="9.1969670">
	<ele>1040.60</ele>
	<time>2025-02-15T12:08:40.000Z</time>
</trkpt>
<trkpt lat="45.8534460" lon="9.1969720">
	<ele>1040.40</ele>
	<time>2025-02-15T12:08:41.000Z</time>
</trkpt>
<trkpt lat="45.8534560" lon="9.1969830">
	<ele>1040.20</ele>
	<time>2025-02-15T12:08:42.000Z</time>
</trkpt>
<trkpt lat="45.8534550" lon="9.1969880">
	<ele>1040.20</ele>
	<time>2025-02-15T12:08:43.000Z</time>
</trkpt>
<trkpt lat="45.8534490" lon="9.1969940">
	<ele>1040.20</ele>
	<time>2025-02-15T12:08:44.000Z</time>
</trkpt>
<trkpt lat="45.8534500" lon="9.1970050">
	<ele>1040.00</ele>
	<time>2025-02-15T12:08:45.000Z</time>
</trkpt>
<trkpt lat="45.8534540" lon="9.1970310">
	<ele>1040.20</ele>
	<time>2025-02-15T12:08:46.000Z</time>
</trkpt>
<trkpt lat="45.8534570" lon="9.1970350">
	<ele>1040.00</ele>
	<time>2025-02-15T12:08:47.000Z</time>
</trkpt>
<trkpt lat="45.8534750" lon="9.1970770">
	<ele>1040.00</ele>
	<time>2025-02-15T12:08:48.000Z</time>
</trkpt>
<trkpt lat="45.8534800" lon="9.1970830">
	<ele>1039.60</ele>
	<time>2025-02-15T12:08:49.000Z</time>
</trkpt>
<trkpt lat="45.8534820" lon="9.1971080">
	<ele>1039.20</ele>
	<time>2025-02-15T12:08:50.000Z</time>
</trkpt>
<trkpt lat="45.8534890" lon="9.1971350">
	<ele>1038.60</ele>
	<time>2025-02-15T12:08:51.000Z</time>
</trkpt>
<trkpt lat="45.8534880" lon="9.1971650">
	<ele>1038.40</ele>
	<time>2025-02-15T12:08:52.000Z</time>
</trkpt>
<trkpt lat="45.8534900" lon="9.1971820">
	<ele>1038.20</ele>
	<time>2025-02-15T12:08:53.000Z</time>
</trkpt>
<trkpt lat="45.8534960" lon="9.1971950">
	<ele>1038.20</ele>
	<time>2025-02-15T12:08:54.000Z</time>
</trkpt>
<trkpt lat="45.8535020" lon="9.1972090">
	<ele>1038.00</ele>
	<time>2025-02-15T12:08:55.000Z</time>
</trkpt>
<trkpt lat="45.8535080" lon="9.1972290">
	<ele>1038.00</ele>
	<time>2025-02-15T12:08:56.000Z</time>
</trkpt>
<trkpt lat="45.8535020" lon="9.1972410">
	<ele>1038.00</ele>
	<time>2025-02-15T12:08:57.000Z</time>
</trkpt>
<trkpt lat="45.8535020" lon="9.1972700">
	<ele>1038.00</ele>
	<time>2025-02-15T12:08:58.000Z</time>
</trkpt>
<trkpt lat="45.8535070" lon="9.1973020">
	<ele>1038.00</ele>
	<time>2025-02-15T12:08:59.000Z</time>
</trkpt>
<trkpt lat="45.8535100" lon="9.1973350">
	<ele>1037.60</ele>
	<time>2025-02-15T12:09:00.000Z</time>
</trkpt>
<trkpt lat="45.8535220" lon="9.1973520">
	<ele>1037.20</ele>
	<time>2025-02-15T12:09:01.000Z</time>
</trkpt>
<trkpt lat="45.8535390" lon="9.1973500">
	<ele>1037.00</ele>
	<time>2025-02-15T12:09:02.000Z</time>
</trkpt>
<trkpt lat="45.8535570" lon="9.1973230">
	<ele>1036.80</ele>
	<time>2025-02-15T12:09:03.000Z</time>
</trkpt>
<trkpt lat="45.8535650" lon="9.1972990">
	<ele>1036.60</ele>
	<time>2025-02-15T12:09:04.000Z</time>
</trkpt>
<trkpt lat="45.8535650" lon="9.1972910">
	<ele>1036.40</ele>
	<time>2025-02-15T12:09:05.000Z</time>
</trkpt>
<trkpt lat="45.8535620" lon="9.1972980">
	<ele>1036.40</ele>
	<time>2025-02-15T12:09:06.000Z</time>
</trkpt>
<trkpt lat="45.8535650" lon="9.1973060">
	<ele>1036.40</ele>
	<time>2025-02-15T12:09:07.000Z</time>
</trkpt>
<trkpt lat="45.8535660" lon="9.1973150">
	<ele>1036.40</ele>
	<time>2025-02-15T12:09:08.000Z</time>
</trkpt>
<trkpt lat="45.8535720" lon="9.1973270">
	<ele>1036.20</ele>
	<time>2025-02-15T12:09:09.000Z</time>
</trkpt>
<trkpt lat="45.8535710" lon="9.1973280">
	<ele>1036.20</ele>
	<time>2025-02-15T12:09:10.000Z</time>
</trkpt>
<trkpt lat="45.8535560" lon="9.1973300">
	<ele>1036.20</ele>
	<time>2025-02-15T12:09:11.000Z</time>
</trkpt>
<trkpt lat="45.8535550" lon="9.1973400">
	<ele>1036.00</ele>
	<time>2025-02-15T12:09:12.000Z</time>
</trkpt>
<trkpt lat="45.8535590" lon="9.1973480">
	<ele>1035.60</ele>
	<time>2025-02-15T12:09:13.000Z</time>
</trkpt>
<trkpt lat="45.8535570" lon="9.1973520">
	<ele>1035.60</ele>
	<time>2025-02-15T12:09:14.000Z</time>
</trkpt>
<trkpt lat="45.8535630" lon="9.1973560">
	<ele>1035.40</ele>
	<time>2025-02-15T12:09:15.000Z</time>
</trkpt>
<trkpt lat="45.8535650" lon="9.1973620">
	<ele>1035.40</ele>
	<time>2025-02-15T12:09:16.000Z</time>
</trkpt>
<trkpt lat="45.8535610" lon="9.1973600">
	<ele>1035.40</ele>
	<time>2025-02-15T12:09:17.000Z</time>
</trkpt>
<trkpt lat="45.8535560" lon="9.1973630">
	<ele>1035.00</ele>
	<time>2025-02-15T12:09:18.000Z</time>
</trkpt>
<trkpt lat="45.8535350" lon="9.1973710">
	<ele>1034.80</ele>
	<time>2025-02-15T12:09:19.000Z</time>
</trkpt>
<trkpt lat="45.8535300" lon="9.1973750">
	<ele>1034.60</ele>
	<time>2025-02-15T12:09:20.000Z</time>
</trkpt>
<trkpt lat="45.8535260" lon="9.1973790">
	<ele>1034.40</ele>
	<time>2025-02-15T12:09:21.000Z</time>
</trkpt>
<trkpt lat="45.8535230" lon="9.1973830">
	<ele>1034.20</ele>
	<time>2025-02-15T12:09:22.000Z</time>
</trkpt>
<trkpt lat="45.8535290" lon="9.1974040">
	<ele>1034.20</ele>
	<time>2025-02-15T12:09:23.000Z</time>
</trkpt>
<trkpt lat="45.8535300" lon="9.1974080">
	<ele>1034.00</ele>
	<time>2025-02-15T12:09:24.000Z</time>
</trkpt>
<trkpt lat="45.8535330" lon="9.1974100">
	<ele>1033.80</ele>
	<time>2025-02-15T12:09:25.000Z</time>
</trkpt>
<trkpt lat="45.8535330" lon="9.1974120">
	<ele>1033.80</ele>
	<time>2025-02-15T12:09:26.000Z</time>
</trkpt>
<trkpt lat="45.8535450" lon="9.1974180">
	<ele>1033.20</ele>
	<time>2025-02-15T12:09:27.000Z</time>
</trkpt>
<trkpt lat="45.8535570" lon="9.1974400">
	<ele>1033.00</ele>
	<time>2025-02-15T12:09:28.000Z</time>
</trkpt>
<trkpt lat="45.8535590" lon="9.1974720">
	<ele>1032.60</ele>
	<time>2025-02-15T12:09:29.000Z</time>
</trkpt>
<trkpt lat="45.8535600" lon="9.1974860">
	<ele>1032.20</ele>
	<time>2025-02-15T12:09:30.000Z</time>
</trkpt>
<trkpt lat="45.8535640" lon="9.1974990">
	<ele>1032.00</ele>
	<time>2025-02-15T12:09:31.000Z</time>
</trkpt>
<trkpt lat="45.8535690" lon="9.1975120">
	<ele>1031.80</ele>
	<time>2025-02-15T12:09:32.000Z</time>
</trkpt>
<trkpt lat="45.8535700" lon="9.1975190">
	<ele>1031.40</ele>
	<time>2025-02-15T12:09:33.000Z</time>
</trkpt>
<trkpt lat="45.8535710" lon="9.1975320">
	<ele>1031.20</ele>
	<time>2025-02-15T12:09:34.000Z</time>
</trkpt>
<trkpt lat="45.8535690" lon="9.1975440">
	<ele>1031.00</ele>
	<time>2025-02-15T12:09:35.000Z</time>
</trkpt>
<trkpt lat="45.8535700" lon="9.1975560">
	<ele>1030.60</ele>
	<time>2025-02-15T12:09:36.000Z</time>
</trkpt>
<trkpt lat="45.8535720" lon="9.1975720">
	<ele>1030.40</ele>
	<time>2025-02-15T12:09:37.000Z</time>
</trkpt>
<trkpt lat="45.8535740" lon="9.1975840">
	<ele>1030.20</ele>
	<time>2025-02-15T12:09:38.000Z</time>
</trkpt>
<trkpt lat="45.8535710" lon="9.1975940">
	<ele>1030.20</ele>
	<time>2025-02-15T12:09:39.000Z</time>
</trkpt>
<trkpt lat="45.8535690" lon="9.1976010">
	<ele>1030.00</ele>
	<time>2025-02-15T12:09:40.000Z</time>
</trkpt>
<trkpt lat="45.8535660" lon="9.1976040">
	<ele>1029.60</ele>
	<time>2025-02-15T12:09:41.000Z</time>
</trkpt>
<trkpt lat="45.8535690" lon="9.1976070">
	<ele>1029.60</ele>
	<time>2025-02-15T12:09:42.000Z</time>
</trkpt>
<trkpt lat="45.8535590" lon="9.1976160">
	<ele>1029.40</ele>
	<time>2025-02-15T12:09:43.000Z</time>
</trkpt>
<trkpt lat="45.8535640" lon="9.1976320">
	<ele>1029.20</ele>
	<time>2025-02-15T12:09:44.000Z</time>
</trkpt>
<trkpt lat="45.8535680" lon="9.1976440">
	<ele>1029.20</ele>
	<time>2025-02-15T12:09:45.000Z</time>
</trkpt>
<trkpt lat="45.8535750" lon="9.1976560">
	<ele>1029.00</ele>
	<time>2025-02-15T12:09:46.000Z</time>
</trkpt>
<trkpt lat="45.8535740" lon="9.1976690">
	<ele>1029.00</ele>
	<time>2025-02-15T12:09:47.000Z</time>
</trkpt>
<trkpt lat="45.8535760" lon="9.1976760">
	<ele>1028.80</ele>
	<time>2025-02-15T12:09:48.000Z</time>
</trkpt>
<trkpt lat="45.8535810" lon="9.1976830">
	<ele>1028.20</ele>
	<time>2025-02-15T12:09:49.000Z</time>
</trkpt>
<trkpt lat="45.8535880" lon="9.1976890">
	<ele>1028.00</ele>
	<time>2025-02-15T12:09:50.000Z</time>
</trkpt>
<trkpt lat="45.8535910" lon="9.1976920">
	<ele>1027.80</ele>
	<time>2025-02-15T12:09:51.000Z</time>
</trkpt>
<trkpt lat="45.8535910" lon="9.1977080">
	<ele>1027.60</ele>
	<time>2025-02-15T12:09:52.000Z</time>
</trkpt>
<trkpt lat="45.8535930" lon="9.1977130">
	<ele>1027.40</ele>
	<time>2025-02-15T12:09:53.000Z</time>
</trkpt>
<trkpt lat="45.8535910" lon="9.1977300">
	<ele>1027.20</ele>
	<time>2025-02-15T12:09:54.000Z</time>
</trkpt>
<trkpt lat="45.8535910" lon="9.1977380">
	<ele>1026.80</ele>
	<time>2025-02-15T12:09:55.000Z</time>
</trkpt>
<trkpt lat="45.8535920" lon="9.1977580">
	<ele>1026.60</ele>
	<time>2025-02-15T12:09:56.000Z</time>
</trkpt>
<trkpt lat="45.8535910" lon="9.1977730">
	<ele>1026.60</ele>
	<time>2025-02-15T12:09:57.000Z</time>
</trkpt>
<trkpt lat="45.8535900" lon="9.1977890">
	<ele>1026.40</ele>
	<time>2025-02-15T12:09:58.000Z</time>
</trkpt>
<trkpt lat="45.8535830" lon="9.1978040">
	<ele>1026.20</ele>
	<time>2025-02-15T12:09:59.000Z</time>
</trkpt>
<trkpt lat="45.8535760" lon="9.1978150">
	<ele>1026.00</ele>
	<time>2025-02-15T12:10:00.000Z</time>
</trkpt>
<trkpt lat="45.8535740" lon="9.1978240">
	<ele>1025.80</ele>
	<time>2025-02-15T12:10:01.000Z</time>
</trkpt>
<trkpt lat="45.8535780" lon="9.1978360">
	<ele>1025.60</ele>
	<time>2025-02-15T12:10:02.000Z</time>
</trkpt>
<trkpt lat="45.8535820" lon="9.1978490">
	<ele>1025.40</ele>
	<time>2025-02-15T12:10:03.000Z</time>
</trkpt>
<trkpt lat="45.8535880" lon="9.1978600">
	<ele>1025.40</ele>
	<time>2025-02-15T12:10:04.000Z</time>
</trkpt>
<trkpt lat="45.8535890" lon="9.1978630">
	<ele>1025.40</ele>
	<time>2025-02-15T12:10:05.000Z</time>
</trkpt>
<trkpt lat="45.8535810" lon="9.1978770">
	<ele>1025.20</ele>
	<time>2025-02-15T12:10:06.000Z</time>
</trkpt>
<trkpt lat="45.8535850" lon="9.1979020">
	<ele>1025.20</ele>
	<time>2025-02-15T12:10:07.000Z</time>
</trkpt>
<trkpt lat="45.8535830" lon="9.1979070">
	<ele>1025.00</ele>
	<time>2025-02-15T12:10:08.000Z</time>
</trkpt>
<trkpt lat="45.8535940" lon="9.1979330">
	<ele>1025.00</ele>
	<time>2025-02-15T12:10:09.000Z</time>
</trkpt>
<trkpt lat="45.8535910" lon="9.1979640">
	<ele>1024.40</ele>
	<time>2025-02-15T12:10:10.000Z</time>
</trkpt>
<trkpt lat="45.8535940" lon="9.1979700">
	<ele>1024.20</ele>
	<time>2025-02-15T12:10:11.000Z</time>
</trkpt>
<trkpt lat="45.8535960" lon="9.1979720">
	<ele>1023.80</ele>
	<time>2025-02-15T12:10:12.000Z</time>
</trkpt>
<trkpt lat="45.8535970" lon="9.1979730">
	<ele>1023.60</ele>
	<time>2025-02-15T12:10:13.000Z</time>
</trkpt>
<trkpt lat="45.8535830" lon="9.1979970">
	<ele>1023.60</ele>
	<time>2025-02-15T12:10:14.000Z</time>
</trkpt>
<trkpt lat="45.8535760" lon="9.1980210">
	<ele>1023.40</ele>
	<time>2025-02-15T12:10:15.000Z</time>
</trkpt>
<trkpt lat="45.8535830" lon="9.1980490">
	<ele>1023.00</ele>
	<time>2025-02-15T12:10:16.000Z</time>
</trkpt>
<trkpt lat="45.8535900" lon="9.1980870">
	<ele>1022.40</ele>
	<time>2025-02-15T12:10:17.000Z</time>
</trkpt>
<trkpt lat="45.8535840" lon="9.1981060">
	<ele>1022.20</ele>
	<time>2025-02-15T12:10:18.000Z</time>
</trkpt>
<trkpt lat="45.8535830" lon="9.1981270">
	<ele>1022.00</ele>
	<time>2025-02-15T12:10:19.000Z</time>
</trkpt>
<trkpt lat="45.8535760" lon="9.1981420">
	<ele>1021.80</ele>
	<time>2025-02-15T12:10:20.000Z</time>
</trkpt>
<trkpt lat="45.8535650" lon="9.1981500">
	<ele>1021.80</ele>
	<time>2025-02-15T12:10:21.000Z</time>
</trkpt>
<trkpt lat="45.8535570" lon="9.1981650">
	<ele>1021.80</ele>
	<time>2025-02-15T12:10:22.000Z</time>
</trkpt>
<trkpt lat="45.8535560" lon="9.1981760">
	<ele>1021.40</ele>
	<time>2025-02-15T12:10:23.000Z</time>
</trkpt>
<trkpt lat="45.8535560" lon="9.1981880">
	<ele>1021.20</ele>
	<time>2025-02-15T12:10:24.000Z</time>
</trkpt>
<trkpt lat="45.8535510" lon="9.1981930">
	<ele>1020.80</ele>
	<time>2025-02-15T12:10:25.000Z</time>
</trkpt>
<trkpt lat="45.8535510" lon="9.1981970">
	<ele>1020.60</ele>
	<time>2025-02-15T12:10:26.000Z</time>
</trkpt>
<trkpt lat="45.8535530" lon="9.1982040">
	<ele>1020.40</ele>
	<time>2025-02-15T12:10:27.000Z</time>
</trkpt>
<trkpt lat="45.8535570" lon="9.1982100">
	<ele>1020.20</ele>
	<time>2025-02-15T12:10:28.000Z</time>
</trkpt>
<trkpt lat="45.8535690" lon="9.1982250">
	<ele>1020.00</ele>
	<time>2025-02-15T12:10:29.000Z</time>
</trkpt>
<trkpt lat="45.8535720" lon="9.1982320">
	<ele>1019.80</ele>
	<time>2025-02-15T12:10:30.000Z</time>
</trkpt>
<trkpt lat="45.8535820" lon="9.1982390">
	<ele>1019.40</ele>
	<time>2025-02-15T12:10:31.000Z</time>
</trkpt>
<trkpt lat="45.8535830" lon="9.1982470">
	<ele>1019.20</ele>
	<time>2025-02-15T12:10:32.000Z</time>
</trkpt>
<trkpt lat="45.8535830" lon="9.1982570">
	<ele>1019.00</ele>
	<time>2025-02-15T12:10:33.000Z</time>
</trkpt>
<trkpt lat="45.8535740" lon="9.1982730">
	<ele>1018.80</ele>
	<time>2025-02-15T12:10:34.000Z</time>
</trkpt>
<trkpt lat="45.8535730" lon="9.1982730">
	<ele>1018.60</ele>
	<time>2025-02-15T12:10:35.000Z</time>
</trkpt>
<trkpt lat="45.8535750" lon="9.1982760">
	<ele>1018.60</ele>
	<time>2025-02-15T12:10:36.000Z</time>
</trkpt>
<trkpt lat="45.8535740" lon="9.1982920">
	<ele>1018.00</ele>
	<time>2025-02-15T12:10:37.000Z</time>
</trkpt>
<trkpt lat="45.8535770" lon="9.1983160">
	<ele>1017.60</ele>
	<time>2025-02-15T12:10:38.000Z</time>
</trkpt>
<trkpt lat="45.8535840" lon="9.1983450">
	<ele>1017.40</ele>
	<time>2025-02-15T12:10:39.000Z</time>
</trkpt>
<trkpt lat="45.8535860" lon="9.1983520">
	<ele>1017.40</ele>
	<time>2025-02-15T12:10:40.000Z</time>
</trkpt>
<trkpt lat="45.8535860" lon="9.1983550">
	<ele>1017.20</ele>
	<time>2025-02-15T12:10:41.000Z</time>
</trkpt>
<trkpt lat="45.8535880" lon="9.1983560">
	<ele>1017.20</ele>
	<time>2025-02-15T12:10:42.000Z</time>
</trkpt>
<trkpt lat="45.8535910" lon="9.1983650">
	<ele>1017.00</ele>
	<time>2025-02-15T12:10:43.000Z</time>
</trkpt>
<trkpt lat="45.8535960" lon="9.1983850">
	<ele>1016.60</ele>
	<time>2025-02-15T12:10:44.000Z</time>
</trkpt>
<trkpt lat="45.8535960" lon="9.1984020">
	<ele>1016.40</ele>
	<time>2025-02-15T12:10:45.000Z</time>
</trkpt>
<trkpt lat="45.8535910" lon="9.1984330">
	<ele>1016.20</ele>
	<time>2025-02-15T12:10:46.000Z</time>
</trkpt>
<trkpt lat="45.8535920" lon="9.1984420">
	<ele>1016.00</ele>
	<time>2025-02-15T12:10:47.000Z</time>
</trkpt>
<trkpt lat="45.8535910" lon="9.1984470">
	<ele>1016.00</ele>
	<time>2025-02-15T12:10:48.000Z</time>
</trkpt>
<trkpt lat="45.8535910" lon="9.1984500">
	<ele>1015.80</ele>
	<time>2025-02-15T12:10:49.000Z</time>
</trkpt>
<trkpt lat="45.8535940" lon="9.1984530">
	<ele>1015.60</ele>
	<time>2025-02-15T12:10:50.000Z</time>
</trkpt>
<trkpt lat="45.8536110" lon="9.1984610">
	<ele>1015.20</ele>
	<time>2025-02-15T12:10:51.000Z</time>
</trkpt>
<trkpt lat="45.8536130" lon="9.1984850">
	<ele>1015.00</ele>
	<time>2025-02-15T12:10:52.000Z</time>
</trkpt>
<trkpt lat="45.8536150" lon="9.1985130">
	<ele>1015.00</ele>
	<time>2025-02-15T12:10:53.000Z</time>
</trkpt>
<trkpt lat="45.8536120" lon="9.1985120">
	<ele>1014.60</ele>
	<time>2025-02-15T12:10:54.000Z</time>
</trkpt>
<trkpt lat="45.8536210" lon="9.1985180">
	<ele>1014.20</ele>
	<time>2025-02-15T12:10:55.000Z</time>
</trkpt>
<trkpt lat="45.8536250" lon="9.1985200">
	<ele>1014.00</ele>
	<time>2025-02-15T12:10:56.000Z</time>
</trkpt>
<trkpt lat="45.8536280" lon="9.1985200">
	<ele>1013.60</ele>
	<time>2025-02-15T12:10:57.000Z</time>
</trkpt>
<trkpt lat="45.8536240" lon="9.1985320">
	<ele>1013.40</ele>
	<time>2025-02-15T12:10:58.000Z</time>
</trkpt>
<trkpt lat="45.8536130" lon="9.1985390">
	<ele>1013.40</ele>
	<time>2025-02-15T12:10:59.000Z</time>
</trkpt>
<trkpt lat="45.8536030" lon="9.1985450">
	<ele>1013.20</ele>
	<time>2025-02-15T12:11:00.000Z</time>
</trkpt>
<trkpt lat="45.8535930" lon="9.1985520">
	<ele>1013.00</ele>
	<time>2025-02-15T12:11:01.000Z</time>
</trkpt>
<trkpt lat="45.8535940" lon="9.1985560">
	<ele>1012.60</ele>
	<time>2025-02-15T12:11:02.000Z</time>
</trkpt>
<trkpt lat="45.8536000" lon="9.1985620">
	<ele>1012.40</ele>
	<time>2025-02-15T12:11:03.000Z</time>
</trkpt>
<trkpt lat="45.8536070" lon="9.1985650">
	<ele>1012.20</ele>
	<time>2025-02-15T12:11:04.000Z</time>
</trkpt>
<trkpt lat="45.8536110" lon="9.1985720">
	<ele>1012.20</ele>
	<time>2025-02-15T12:11:05.000Z</time>
</trkpt>
<trkpt lat="45.8536120" lon="9.1985790">
	<ele>1012.00</ele>
	<time>2025-02-15T12:11:06.000Z</time>
</trkpt>
<trkpt lat="45.8536090" lon="9.1985870">
	<ele>1011.80</ele>
	<time>2025-02-15T12:11:07.000Z</time>
</trkpt>
<trkpt lat="45.8536080" lon="9.1985950">
	<ele>1011.60</ele>
	<time>2025-02-15T12:11:08.000Z</time>
</trkpt>
<trkpt lat="45.8536090" lon="9.1986010">
	<ele>1011.20</ele>
	<time>2025-02-15T12:11:09.000Z</time>
</trkpt>
<trkpt lat="45.8536070" lon="9.1986080">
	<ele>1011.00</ele>
	<time>2025-02-15T12:11:10.000Z</time>
</trkpt>
<trkpt lat="45.8536080" lon="9.1986140">
	<ele>1011.00</ele>
	<time>2025-02-15T12:11:11.000Z</time>
</trkpt>
<trkpt lat="45.8536090" lon="9.1986210">
	<ele>1010.80</ele>
	<time>2025-02-15T12:11:12.000Z</time>
</trkpt>
<trkpt lat="45.8536110" lon="9.1986290">
	<ele>1010.60</ele>
	<time>2025-02-15T12:11:13.000Z</time>
</trkpt>
<trkpt lat="45.8536100" lon="9.1986330">
	<ele>1010.40</ele>
	<time>2025-02-15T12:11:14.000Z</time>
</trkpt>
<trkpt lat="45.8536100" lon="9.1986390">
	<ele>1010.00</ele>
	<time>2025-02-15T12:11:15.000Z</time>
</trkpt>
<trkpt lat="45.8536100" lon="9.1986460">
	<ele>1009.60</ele>
	<time>2025-02-15T12:11:16.000Z</time>
</trkpt>
<trkpt lat="45.8536120" lon="9.1986540">
	<ele>1009.20</ele>
	<time>2025-02-15T12:11:17.000Z</time>
</trkpt>
<trkpt lat="45.8536200" lon="9.1986500">
	<ele>1009.00</ele>
	<time>2025-02-15T12:11:18.000Z</time>
</trkpt>
<trkpt lat="45.8536170" lon="9.1986540">
	<ele>1008.80</ele>
	<time>2025-02-15T12:11:19.000Z</time>
</trkpt>
<trkpt lat="45.8536180" lon="9.1986590">
	<ele>1008.60</ele>
	<time>2025-02-15T12:11:20.000Z</time>
</trkpt>
<trkpt lat="45.8536230" lon="9.1986660">
	<ele>1008.60</ele>
	<time>2025-02-15T12:11:21.000Z</time>
</trkpt>
<trkpt lat="45.8536260" lon="9.1986740">
	<ele>1008.40</ele>
	<time>2025-02-15T12:11:22.000Z</time>
</trkpt>
<trkpt lat="45.8536260" lon="9.1986820">
	<ele>1008.40</ele>
	<time>2025-02-15T12:11:23.000Z</time>
</trkpt>
<trkpt lat="45.8536260" lon="9.1986860">
	<ele>1008.40</ele>
	<time>2025-02-15T12:11:24.000Z</time>
</trkpt>
<trkpt lat="45.8536240" lon="9.1986930">
	<ele>1008.20</ele>
	<time>2025-02-15T12:11:25.000Z</time>
</trkpt>
<trkpt lat="45.8536190" lon="9.1987000">
	<ele>1008.00</ele>
	<time>2025-02-15T12:11:26.000Z</time>
</trkpt>
<trkpt lat="45.8536180" lon="9.1987070">
	<ele>1007.60</ele>
	<time>2025-02-15T12:11:27.000Z</time>
</trkpt>
<trkpt lat="45.8536200" lon="9.1987120">
	<ele>1007.60</ele>
	<time>2025-02-15T12:11:28.000Z</time>
</trkpt>
<trkpt lat="45.8536230" lon="9.1987140">
	<ele>1007.40</ele>
	<time>2025-02-15T12:11:29.000Z</time>
</trkpt>
<trkpt lat="45.8536250" lon="9.1987180">
	<ele>1007.20</ele>
	<time>2025-02-15T12:11:30.000Z</time>
</trkpt>
<trkpt lat="45.8536280" lon="9.1987280">
	<ele>1006.80</ele>
	<time>2025-02-15T12:11:31.000Z</time>
</trkpt>
<trkpt lat="45.8536290" lon="9.1987330">
	<ele>1006.60</ele>
	<time>2025-02-15T12:11:32.000Z</time>
</trkpt>
<trkpt lat="45.8536290" lon="9.1987390">
	<ele>1006.60</ele>
	<time>2025-02-15T12:11:33.000Z</time>
</trkpt>
<trkpt lat="45.8536380" lon="9.1987580">
	<ele>1006.20</ele>
	<time>2025-02-15T12:11:34.000Z</time>
</trkpt>
<trkpt lat="45.8536440" lon="9.1987510">
	<ele>1005.80</ele>
	<time>2025-02-15T12:11:35.000Z</time>
</trkpt>
<trkpt lat="45.8536430" lon="9.1987560">
	<ele>1005.60</ele>
	<time>2025-02-15T12:11:36.000Z</time>
</trkpt>
<trkpt lat="45.8536550" lon="9.1987310">
	<ele>1005.20</ele>
	<time>2025-02-15T12:11:37.000Z</time>
</trkpt>
<trkpt lat="45.8536580" lon="9.1987270">
	<ele>1004.80</ele>
	<time>2025-02-15T12:11:38.000Z</time>
</trkpt>
<trkpt lat="45.8536590" lon="9.1987440">
	<ele>1004.60</ele>
	<time>2025-02-15T12:11:39.000Z</time>
</trkpt>
<trkpt lat="45.8536730" lon="9.1987760">
	<ele>1004.60</ele>
	<time>2025-02-15T12:11:40.000Z</time>
</trkpt>
<trkpt lat="45.8536750" lon="9.1988010">
	<ele>1004.40</ele>
	<time>2025-02-15T12:11:41.000Z</time>
</trkpt>
<trkpt lat="45.8536790" lon="9.1988210">
	<ele>1004.20</ele>
	<time>2025-02-15T12:11:42.000Z</time>
</trkpt>
<trkpt lat="45.8536770" lon="9.1988360">
	<ele>1003.80</ele>
	<time>2025-02-15T12:11:43.000Z</time>
</trkpt>
<trkpt lat="45.8536850" lon="9.1988620">
	<ele>1003.60</ele>
	<time>2025-02-15T12:11:44.000Z</time>
</trkpt>
<trkpt lat="45.8536930" lon="9.1988780">
	<ele>1003.40</ele>
	<time>2025-02-15T12:11:45.000Z</time>
</trkpt>
<trkpt lat="45.8536930" lon="9.1988860">
	<ele>1003.20</ele>
	<time>2025-02-15T12:11:46.000Z</time>
</trkpt>
<trkpt lat="45.8537020" lon="9.1988880">
	<ele>1003.20</ele>
	<time>2025-02-15T12:11:47.000Z</time>
</trkpt>
<trkpt lat="45.8537030" lon="9.1988960">
	<ele>1003.00</ele>
	<time>2025-02-15T12:11:48.000Z</time>
</trkpt>
<trkpt lat="45.8537020" lon="9.1989130">
	<ele>1002.80</ele>
	<time>2025-02-15T12:11:49.000Z</time>
</trkpt>
<trkpt lat="45.8537020" lon="9.1989260">
	<ele>1002.60</ele>
	<time>2025-02-15T12:11:50.000Z</time>
</trkpt>
<trkpt lat="45.8537080" lon="9.1989270">
	<ele>1002.40</ele>
	<time>2025-02-15T12:11:51.000Z</time>
</trkpt>
<trkpt lat="45.8537070" lon="9.1989350">
	<ele>1002.20</ele>
	<time>2025-02-15T12:11:52.000Z</time>
</trkpt>
<trkpt lat="45.8537180" lon="9.1989460">
	<ele>1002.20</ele>
	<time>2025-02-15T12:11:53.000Z</time>
</trkpt>
<trkpt lat="45.8537250" lon="9.1989600">
	<ele>1002.00</ele>
	<time>2025-02-15T12:11:54.000Z</time>
</trkpt>
<trkpt lat="45.8537190" lon="9.1989730">
	<ele>1002.00</ele>
	<time>2025-02-15T12:11:55.000Z</time>
</trkpt>
<trkpt lat="45.8537200" lon="9.1989790">
	<ele>1001.60</ele>
	<time>2025-02-15T12:11:56.000Z</time>
</trkpt>
<trkpt lat="45.8537300" lon="9.1989740">
	<ele>1001.60</ele>
	<time>2025-02-15T12:11:57.000Z</time>
</trkpt>
<trkpt lat="45.8537320" lon="9.1989770">
	<ele>1001.40</ele>
	<time>2025-02-15T12:11:58.000Z</time>
</trkpt>
<trkpt lat="45.8537530" lon="9.1989910">
	<ele>1001.20</ele>
	<time>2025-02-15T12:11:59.000Z</time>
</trkpt>
<trkpt lat="45.8537730" lon="9.1990010">
	<ele>1001.20</ele>
	<time>2025-02-15T12:12:00.000Z</time>
</trkpt>
<trkpt lat="45.8537780" lon="9.1990060">
	<ele>1001.00</ele>
	<time>2025-02-15T12:12:01.000Z</time>
</trkpt>
<trkpt lat="45.8537750" lon="9.1990050">
	<ele>1000.60</ele>
	<time>2025-02-15T12:12:02.000Z</time>
</trkpt>
<trkpt lat="45.8537730" lon="9.1990120">
	<ele>1000.60</ele>
	<time>2025-02-15T12:12:03.000Z</time>
</trkpt>
<trkpt lat="45.8537720" lon="9.1990140">
	<ele>1000.40</ele>
	<time>2025-02-15T12:12:04.000Z</time>
</trkpt>
<trkpt lat="45.8537780" lon="9.1990240">
	<ele>1000.20</ele>
	<time>2025-02-15T12:12:05.000Z</time>
</trkpt>
<trkpt lat="45.8537820" lon="9.1990330">
	<ele>1000.00</ele>
	<time>2025-02-15T12:12:06.000Z</time>
</trkpt>
<trkpt lat="45.8537850" lon="9.1990490">
	<ele>999.80</ele>
	<time>2025-02-15T12:12:07.000Z</time>
</trkpt>
<trkpt lat="45.8537770" lon="9.1990600">
	<ele>999.80</ele>
	<time>2025-02-15T12:12:08.000Z</time>
</trkpt>
<trkpt lat="45.8537620" lon="9.1990680">
	<ele>999.60</ele>
	<time>2025-02-15T12:12:09.000Z</time>
</trkpt>
<trkpt lat="45.8537600" lon="9.1990720">
	<ele>999.60</ele>
	<time>2025-02-15T12:12:10.000Z</time>
</trkpt>
<trkpt lat="45.8537600" lon="9.1990750">
	<ele>999.20</ele>
	<time>2025-02-15T12:12:11.000Z</time>
</trkpt>
<trkpt lat="45.8537590" lon="9.1990800">
	<ele>998.80</ele>
	<time>2025-02-15T12:12:12.000Z</time>
</trkpt>
<trkpt lat="45.8537600" lon="9.1990830">
	<ele>998.60</ele>
	<time>2025-02-15T12:12:13.000Z</time>
</trkpt>
<trkpt lat="45.8537600" lon="9.1990840">
	<ele>998.40</ele>
	<time>2025-02-15T12:12:14.000Z</time>
</trkpt>
<trkpt lat="45.8537660" lon="9.1990990">
	<ele>998.20</ele>
	<time>2025-02-15T12:12:15.000Z</time>
</trkpt>
<trkpt lat="45.8537680" lon="9.1990990">
	<ele>998.00</ele>
	<time>2025-02-15T12:12:16.000Z</time>
</trkpt>
<trkpt lat="45.8537700" lon="9.1991150">
	<ele>997.80</ele>
	<time>2025-02-15T12:12:17.000Z</time>
</trkpt>
<trkpt lat="45.8537770" lon="9.1991450">
	<ele>997.80</ele>
	<time>2025-02-15T12:12:18.000Z</time>
</trkpt>
<trkpt lat="45.8537840" lon="9.1991720">
	<ele>997.80</ele>
	<time>2025-02-15T12:12:19.000Z</time>
</trkpt>
<trkpt lat="45.8537910" lon="9.1991970">
	<ele>997.80</ele>
	<time>2025-02-15T12:12:20.000Z</time>
</trkpt>
<trkpt lat="45.8538000" lon="9.1992220">
	<ele>997.80</ele>
	<time>2025-02-15T12:12:21.000Z</time>
</trkpt>
<trkpt lat="45.8538000" lon="9.1992310">
	<ele>997.40</ele>
	<time>2025-02-15T12:12:22.000Z</time>
</trkpt>
<trkpt lat="45.8538000" lon="9.1992380">
	<ele>997.60</ele>
	<time>2025-02-15T12:12:23.000Z</time>
</trkpt>
<trkpt lat="45.8537920" lon="9.1992180">
	<ele>997.60</ele>
	<time>2025-02-15T12:12:24.000Z</time>
</trkpt>
<trkpt lat="45.8538140" lon="9.1992080">
	<ele>997.40</ele>
	<time>2025-02-15T12:12:25.000Z</time>
</trkpt>
<trkpt lat="45.8538120" lon="9.1992090">
	<ele>997.20</ele>
	<time>2025-02-15T12:12:26.000Z</time>
</trkpt>
<trkpt lat="45.8538120" lon="9.1992070">
	<ele>996.80</ele>
	<time>2025-02-15T12:12:27.000Z</time>
</trkpt>
<trkpt lat="45.8538100" lon="9.1992080">
	<ele>996.80</ele>
	<time>2025-02-15T12:12:28.000Z</time>
</trkpt>
<trkpt lat="45.8538140" lon="9.1992310">
	<ele>996.60</ele>
	<time>2025-02-15T12:12:29.000Z</time>
</trkpt>
<trkpt lat="45.8538410" lon="9.1992520">
	<ele>996.40</ele>
	<time>2025-02-15T12:12:30.000Z</time>
</trkpt>
<trkpt lat="45.8538430" lon="9.1992570">
	<ele>996.20</ele>
	<time>2025-02-15T12:12:31.000Z</time>
</trkpt>
<trkpt lat="45.8538450" lon="9.1992630">
	<ele>995.80</ele>
	<time>2025-02-15T12:12:32.000Z</time>
</trkpt>
<trkpt lat="45.8538560" lon="9.1992810">
	<ele>995.80</ele>
	<time>2025-02-15T12:12:33.000Z</time>
</trkpt>
<trkpt lat="45.8538540" lon="9.1992940">
	<ele>995.60</ele>
	<time>2025-02-15T12:12:34.000Z</time>
</trkpt>
<trkpt lat="45.8538490" lon="9.1993080">
	<ele>995.60</ele>
	<time>2025-02-15T12:12:35.000Z</time>
</trkpt>
<trkpt lat="45.8538490" lon="9.1993180">
	<ele>995.40</ele>
	<time>2025-02-15T12:12:36.000Z</time>
</trkpt>
<trkpt lat="45.8538470" lon="9.1993150">
	<ele>995.20</ele>
	<time>2025-02-15T12:12:37.000Z</time>
</trkpt>
<trkpt lat="45.8538460" lon="9.1993160">
	<ele>995.00</ele>
	<time>2025-02-15T12:12:38.000Z</time>
</trkpt>
<trkpt lat="45.8538440" lon="9.1993100">
	<ele>995.00</ele>
	<time>2025-02-15T12:12:39.000Z</time>
</trkpt>
<trkpt lat="45.8538430" lon="9.1993100">
	<ele>994.80</ele>
	<time>2025-02-15T12:12:40.000Z</time>
</trkpt>
<trkpt lat="45.8538370" lon="9.1993160">
	<ele>994.80</ele>
	<time>2025-02-15T12:12:41.000Z</time>
</trkpt>
<trkpt lat="45.8538380" lon="9.1993180">
	<ele>994.60</ele>
	<time>2025-02-15T12:12:42.000Z</time>
</trkpt>
<trkpt lat="45.8538390" lon="9.1993190">
	<ele>994.40</ele>
	<time>2025-02-15T12:12:43.000Z</time>
</trkpt>
<trkpt lat="45.8538400" lon="9.1993220">
	<ele>994.20</ele>
	<time>2025-02-15T12:12:44.000Z</time>
</trkpt>
<trkpt lat="45.8538440" lon="9.1993270">
	<ele>994.20</ele>
	<time>2025-02-15T12:12:45.000Z</time>
</trkpt>
<trkpt lat="45.8538480" lon="9.1993320">
	<ele>994.00</ele>
	<time>2025-02-15T12:12:46.000Z</time>
</trkpt>
<trkpt lat="45.8538530" lon="9.1993320">
	<ele>993.80</ele>
	<time>2025-02-15T12:12:47.000Z</time>
</trkpt>
<trkpt lat="45.8538580" lon="9.1993320">
	<ele>993.60</ele>
	<time>2025-02-15T12:12:48.000Z</time>
</trkpt>
<trkpt lat="45.8538620" lon="9.1993270">
	<ele>993.60</ele>
	<time>2025-02-15T12:12:49.000Z</time>
</trkpt>
<trkpt lat="45.8538610" lon="9.1993390">
	<ele>993.60</ele>
	<time>2025-02-15T12:12:50.000Z</time>
</trkpt>
<trkpt lat="45.8538600" lon="9.1993420">
	<ele>993.40</ele>
	<time>2025-02-15T12:12:51.000Z</time>
</trkpt>
<trkpt lat="45.8538600" lon="9.1993530">
	<ele>993.40</ele>
	<time>2025-02-15T12:12:52.000Z</time>
</trkpt>
<trkpt lat="45.8538630" lon="9.1993640">
	<ele>993.20</ele>
	<time>2025-02-15T12:12:53.000Z</time>
</trkpt>
<trkpt lat="45.8538580" lon="9.1993760">
	<ele>993.00</ele>
	<time>2025-02-15T12:12:54.000Z</time>
</trkpt>
<trkpt lat="45.8538550" lon="9.1993890">
	<ele>992.80</ele>
	<time>2025-02-15T12:12:55.000Z</time>
</trkpt>
<trkpt lat="45.8538570" lon="9.1993990">
	<ele>992.80</ele>
	<time>2025-02-15T12:12:56.000Z</time>
</trkpt>
<trkpt lat="45.8538620" lon="9.1994070">
	<ele>992.60</ele>
	<time>2025-02-15T12:12:57.000Z</time>
</trkpt>
<trkpt lat="45.8538660" lon="9.1994170">
	<ele>992.40</ele>
	<time>2025-02-15T12:12:58.000Z</time>
</trkpt>
<trkpt lat="45.8538700" lon="9.1994310">
	<ele>992.40</ele>
	<time>2025-02-15T12:12:59.000Z</time>
</trkpt>
<trkpt lat="45.8538770" lon="9.1994400">
	<ele>992.20</ele>
	<time>2025-02-15T12:13:00.000Z</time>
</trkpt>
<trkpt lat="45.8538860" lon="9.1994480">
	<ele>992.20</ele>
	<time>2025-02-15T12:13:01.000Z</time>
</trkpt>
<trkpt lat="45.8538890" lon="9.1994520">
	<ele>992.20</ele>
	<time>2025-02-15T12:13:02.000Z</time>
</trkpt>
<trkpt lat="45.8539060" lon="9.1994500">
	<ele>992.20</ele>
	<time>2025-02-15T12:13:03.000Z</time>
</trkpt>
<trkpt lat="45.8539180" lon="9.1994490">
	<ele>992.20</ele>
	<time>2025-02-15T12:13:04.000Z</time>
</trkpt>
<trkpt lat="45.8539320" lon="9.1994550">
	<ele>992.00</ele>
	<time>2025-02-15T12:13:05.000Z</time>
</trkpt>
<trkpt lat="45.8539440" lon="9.1994680">
	<ele>992.00</ele>
	<time>2025-02-15T12:13:06.000Z</time>
</trkpt>
<trkpt lat="45.8539560" lon="9.1994860">
	<ele>992.00</ele>
	<time>2025-02-15T12:13:07.000Z</time>
</trkpt>
<trkpt lat="45.8539650" lon="9.1995100">
	<ele>992.00</ele>
	<time>2025-02-15T12:13:08.000Z</time>
</trkpt>
<trkpt lat="45.8539790" lon="9.1995260">
	<ele>992.00</ele>
	<time>2025-02-15T12:13:09.000Z</time>
</trkpt>
<trkpt lat="45.8539920" lon="9.1995270">
	<ele>992.20</ele>
	<time>2025-02-15T12:13:10.000Z</time>
</trkpt>
<trkpt lat="45.8539970" lon="9.1995190">
	<ele>992.20</ele>
	<time>2025-02-15T12:13:11.000Z</time>
</trkpt>
<trkpt lat="45.8540010" lon="9.1995190">
	<ele>992.20</ele>
	<time>2025-02-15T12:13:12.000Z</time>
</trkpt>
<trkpt lat="45.8540150" lon="9.1995150">
	<ele>992.20</ele>
	<time>2025-02-15T12:13:13.000Z</time>
</trkpt>
<trkpt lat="45.8540200" lon="9.1995120">
	<ele>992.20</ele>
	<time>2025-02-15T12:13:14.000Z</time>
</trkpt>
<trkpt lat="45.8540230" lon="9.1995110">
	<ele>992.20</ele>
	<time>2025-02-15T12:13:15.000Z</time>
</trkpt>
<trkpt lat="45.8540200" lon="9.1995130">
	<ele>992.20</ele>
	<time>2025-02-15T12:13:16.000Z</time>
</trkpt>
<trkpt lat="45.8540090" lon="9.1995090">
	<ele>992.40</ele>
	<time>2025-02-15T12:13:17.000Z</time>
</trkpt>
<trkpt lat="45.8540040" lon="9.1995040">
	<ele>992.60</ele>
	<time>2025-02-15T12:13:18.000Z</time>
</trkpt>
<trkpt lat="45.8540170" lon="9.1995030">
	<ele>992.60</ele>
	<time>2025-02-15T12:13:19.000Z</time>
</trkpt>
<trkpt lat="45.8540270" lon="9.1995120">
	<ele>992.60</ele>
	<time>2025-02-15T12:13:20.000Z</time>
</trkpt>
<trkpt lat="45.8540330" lon="9.1995130">
	<ele>992.60</ele>
	<time>2025-02-15T12:13:21.000Z</time>
</trkpt>
<trkpt lat="45.8540330" lon="9.1995100">
	<ele>992.60</ele>
	<time>2025-02-15T12:13:22.000Z</time>
</trkpt>
<trkpt lat="45.8540420" lon="9.1995090">
	<ele>992.60</ele>
	<time>2025-02-15T12:13:23.000Z</time>
</trkpt>
<trkpt lat="45.8540560" lon="9.1995080">
	<ele>992.60</ele>
	<time>2025-02-15T12:13:24.000Z</time>
</trkpt>
<trkpt lat="45.8540670" lon="9.1995160">
	<ele>992.60</ele>
	<time>2025-02-15T12:13:25.000Z</time>
</trkpt>
<trkpt lat="45.8540710" lon="9.1995270">
	<ele>992.40</ele>
	<time>2025-02-15T12:13:26.000Z</time>
</trkpt>
<trkpt lat="45.8540730" lon="9.1995340">
	<ele>992.40</ele>
	<time>2025-02-15T12:13:27.000Z</time>
</trkpt>
<trkpt lat="45.8540680" lon="9.1995290">
	<ele>992.20</ele>
	<time>2025-02-15T12:13:28.000Z</time>
</trkpt>
<trkpt lat="45.8540680" lon="9.1995250">
	<ele>992.20</ele>
	<time>2025-02-15T12:13:29.000Z</time>
</trkpt>
<trkpt lat="45.8540660" lon="9.1995280">
	<ele>992.20</ele>
	<time>2025-02-15T12:13:30.000Z</time>
</trkpt>
<trkpt lat="45.8540640" lon="9.1995260">
	<ele>992.00</ele>
	<time>2025-02-15T12:13:31.000Z</time>
</trkpt>
<trkpt lat="45.8540590" lon="9.1995330">
	<ele>991.80</ele>
	<time>2025-02-15T12:13:32.000Z</time>
</trkpt>
<trkpt lat="45.8540590" lon="9.1995500">
	<ele>991.60</ele>
	<time>2025-02-15T12:13:33.000Z</time>
</trkpt>
<trkpt lat="45.8540600" lon="9.1995620">
	<ele>991.40</ele>
	<time>2025-02-15T12:13:34.000Z</time>
</trkpt>
<trkpt lat="45.8540550" lon="9.1995770">
	<ele>991.20</ele>
	<time>2025-02-15T12:13:35.000Z</time>
</trkpt>
<trkpt lat="45.8540620" lon="9.1996000">
	<ele>991.00</ele>
	<time>2025-02-15T12:13:36.000Z</time>
</trkpt>
<trkpt lat="45.8540640" lon="9.1996170">
	<ele>990.80</ele>
	<time>2025-02-15T12:13:37.000Z</time>
</trkpt>
<trkpt lat="45.8540630" lon="9.1996310">
	<ele>990.80</ele>
	<time>2025-02-15T12:13:38.000Z</time>
</trkpt>
<trkpt lat="45.8540700" lon="9.1996460">
	<ele>990.60</ele>
	<time>2025-02-15T12:13:39.000Z</time>
</trkpt>
<trkpt lat="45.8540800" lon="9.1996630">
	<ele>990.60</ele>
	<time>2025-02-15T12:13:40.000Z</time>
</trkpt>
<trkpt lat="45.8540880" lon="9.1996830">
	<ele>990.60</ele>
	<time>2025-02-15T12:13:41.000Z</time>
</trkpt>
<trkpt lat="45.8540950" lon="9.1997100">
	<ele>990.60</ele>
	<time>2025-02-15T12:13:42.000Z</time>
</trkpt>
<trkpt lat="45.8540940" lon="9.1997260">
	<ele>990.60</ele>
	<time>2025-02-15T12:13:43.000Z</time>
</trkpt>
<trkpt lat="45.8541030" lon="9.1997570">
	<ele>990.60</ele>
	<time>2025-02-15T12:13:44.000Z</time>
</trkpt>
<trkpt lat="45.8541060" lon="9.1997790">
	<ele>990.60</ele>
	<time>2025-02-15T12:13:45.000Z</time>
</trkpt>
<trkpt lat="45.8541130" lon="9.1997970">
	<ele>990.40</ele>
	<time>2025-02-15T12:13:46.000Z</time>
</trkpt>
<trkpt lat="45.8541150" lon="9.1998200">
	<ele>990.20</ele>
	<time>2025-02-15T12:13:47.000Z</time>
</trkpt>
<trkpt lat="45.8541180" lon="9.1998360">
	<ele>990.20</ele>
	<time>2025-02-15T12:13:48.000Z</time>
</trkpt>
<trkpt lat="45.8541140" lon="9.1998440">
	<ele>990.20</ele>
	<time>2025-02-15T12:13:49.000Z</time>
</trkpt>
<trkpt lat="45.8541140" lon="9.1998590">
	<ele>990.00</ele>
	<time>2025-02-15T12:13:50.000Z</time>
</trkpt>
<trkpt lat="45.8541230" lon="9.1998710">
	<ele>990.00</ele>
	<time>2025-02-15T12:13:51.000Z</time>
</trkpt>
<trkpt lat="45.8541290" lon="9.1998810">
	<ele>990.00</ele>
	<time>2025-02-15T12:13:52.000Z</time>
</trkpt>
<trkpt lat="45.8541500" lon="9.1999110">
	<ele>989.80</ele>
	<time>2025-02-15T12:13:53.000Z</time>
</trkpt>
<trkpt lat="45.8541670" lon="9.1999210">
	<ele>989.60</ele>
	<time>2025-02-15T12:13:54.000Z</time>
</trkpt>
<trkpt lat="45.8541730" lon="9.1999270">
	<ele>989.60</ele>
	<time>2025-02-15T12:13:55.000Z</time>
</trkpt>
<trkpt lat="45.8541700" lon="9.1999200">
	<ele>989.60</ele>
	<time>2025-02-15T12:13:56.000Z</time>
</trkpt>
<trkpt lat="45.8541730" lon="9.1999260">
	<ele>989.40</ele>
	<time>2025-02-15T12:13:57.000Z</time>
</trkpt>
<trkpt lat="45.8541790" lon="9.1999430">
	<ele>989.40</ele>
	<time>2025-02-15T12:13:58.000Z</time>
</trkpt>
<trkpt lat="45.8541870" lon="9.1999590">
	<ele>989.40</ele>
	<time>2025-02-15T12:13:59.000Z</time>
</trkpt>
<trkpt lat="45.8541970" lon="9.1999600">
	<ele>989.40</ele>
	<time>2025-02-15T12:14:00.000Z</time>
</trkpt>
<trkpt lat="45.8542020" lon="9.1999640">
	<ele>989.40</ele>
	<time>2025-02-15T12:14:01.000Z</time>
</trkpt>
<trkpt lat="45.8542070" lon="9.1999870">
	<ele>989.40</ele>
	<time>2025-02-15T12:14:02.000Z</time>
</trkpt>
<trkpt lat="45.8542060" lon="9.1999870">
	<ele>989.00</ele>
	<time>2025-02-15T12:14:03.000Z</time>
</trkpt>
<trkpt lat="45.8542080" lon="9.1999910">
	<ele>988.80</ele>
	<time>2025-02-15T12:14:04.000Z</time>
</trkpt>
<trkpt lat="45.8542100" lon="9.1999930">
	<ele>988.60</ele>
	<time>2025-02-15T12:14:05.000Z</time>
</trkpt>
<trkpt lat="45.8542060" lon="9.1999940">
	<ele>988.40</ele>
	<time>2025-02-15T12:14:06.000Z</time>
</trkpt>
<trkpt lat="45.8542050" lon="9.1999960">
	<ele>988.40</ele>
	<time>2025-02-15T12:14:07.000Z</time>
</trkpt>
<trkpt lat="45.8542040" lon="9.2000020">
	<ele>988.20</ele>
	<time>2025-02-15T12:14:08.000Z</time>
</trkpt>
<trkpt lat="45.8542040" lon="9.2000070">
	<ele>988.00</ele>
	<time>2025-02-15T12:14:09.000Z</time>
</trkpt>
<trkpt lat="45.8542110" lon="9.2000120">
	<ele>988.00</ele>
	<time>2025-02-15T12:14:10.000Z</time>
</trkpt>
<trkpt lat="45.8542110" lon="9.2000170">
	<ele>987.80</ele>
	<time>2025-02-15T12:14:11.000Z</time>
</trkpt>
<trkpt lat="45.8542150" lon="9.2000280">
	<ele>987.60</ele>
	<time>2025-02-15T12:14:12.000Z</time>
</trkpt>
<trkpt lat="45.8542150" lon="9.2000280">
	<ele>987.20</ele>
	<time>2025-02-15T12:14:13.000Z</time>
</trkpt>
<trkpt lat="45.8542170" lon="9.2000340">
	<ele>987.00</ele>
	<time>2025-02-15T12:14:14.000Z</time>
</trkpt>
<trkpt lat="45.8542190" lon="9.2000400">
	<ele>986.80</ele>
	<time>2025-02-15T12:14:15.000Z</time>
</trkpt>
<trkpt lat="45.8542180" lon="9.2000480">
	<ele>986.80</ele>
	<time>2025-02-15T12:14:16.000Z</time>
</trkpt>
<trkpt lat="45.8542170" lon="9.2000570">
	<ele>986.80</ele>
	<time>2025-02-15T12:14:17.000Z</time>
</trkpt>
<trkpt lat="45.8542120" lon="9.2000650">
	<ele>986.60</ele>
	<time>2025-02-15T12:14:18.000Z</time>
</trkpt>
<trkpt lat="45.8542040" lon="9.2000750">
	<ele>986.40</ele>
	<time>2025-02-15T12:14:19.000Z</time>
</trkpt>
<trkpt lat="45.8541980" lon="9.2000870">
	<ele>986.20</ele>
	<time>2025-02-15T12:14:20.000Z</time>
</trkpt>
<trkpt lat="45.8541910" lon="9.2000940">
	<ele>986.20</ele>
	<time>2025-02-15T12:14:21.000Z</time>
</trkpt>
<trkpt lat="45.8541900" lon="9.2001080">
	<ele>986.20</ele>
	<time>2025-02-15T12:14:22.000Z</time>
</trkpt>
<trkpt lat="45.8541870" lon="9.2001240">
	<ele>986.00</ele>
	<time>2025-02-15T12:14:23.000Z</time>
</trkpt>
<trkpt lat="45.8541850" lon="9.2001420">
	<ele>985.80</ele>
	<time>2025-02-15T12:14:24.000Z</time>
</trkpt>
<trkpt lat="45.8541850" lon="9.2001610">
	<ele>985.60</ele>
	<time>2025-02-15T12:14:25.000Z</time>
</trkpt>
<trkpt lat="45.8541850" lon="9.2001670">
	<ele>985.80</ele>
	<time>2025-02-15T12:14:26.000Z</time>
</trkpt>
<trkpt lat="45.8541760" lon="9.2001730">
	<ele>985.60</ele>
	<time>2025-02-15T12:14:27.000Z</time>
</trkpt>
<trkpt lat="45.8541740" lon="9.2001780">
	<ele>985.60</ele>
	<time>2025-02-15T12:14:28.000Z</time>
</trkpt>
<trkpt lat="45.8541740" lon="9.2001850">
	<ele>985.60</ele>
	<time>2025-02-15T12:14:29.000Z</time>
</trkpt>
<trkpt lat="45.8541780" lon="9.2001930">
	<ele>985.60</ele>
	<time>2025-02-15T12:14:30.000Z</time>
</trkpt>
<trkpt lat="45.8541790" lon="9.2001970">
	<ele>985.60</ele>
	<time>2025-02-15T12:14:31.000Z</time>
</trkpt>
<trkpt lat="45.8541780" lon="9.2002100">
	<ele>985.40</ele>
	<time>2025-02-15T12:14:32.000Z</time>
</trkpt>
<trkpt lat="45.8541760" lon="9.2002270">
	<ele>985.20</ele>
	<time>2025-02-15T12:14:33.000Z</time>
</trkpt>
<trkpt lat="45.8541710" lon="9.2002420">
	<ele>984.80</ele>
	<time>2025-02-15T12:14:34.000Z</time>
</trkpt>
<trkpt lat="45.8541650" lon="9.2002510">
	<ele>984.60</ele>
	<time>2025-02-15T12:14:35.000Z</time>
</trkpt>
<trkpt lat="45.8541550" lon="9.2002550">
	<ele>984.60</ele>
	<time>2025-02-15T12:14:36.000Z</time>
</trkpt>
<trkpt lat="45.8541430" lon="9.2002560">
	<ele>984.60</ele>
	<time>2025-02-15T12:14:37.000Z</time>
</trkpt>
<trkpt lat="45.8541260" lon="9.2002610">
	<ele>984.60</ele>
	<time>2025-02-15T12:14:38.000Z</time>
</trkpt>
<trkpt lat="45.8541090" lon="9.2002600">
	<ele>984.80</ele>
	<time>2025-02-15T12:14:39.000Z</time>
</trkpt>
<trkpt lat="45.8541050" lon="9.2002740">
	<ele>984.80</ele>
	<time>2025-02-15T12:14:40.000Z</time>
</trkpt>
<trkpt lat="45.8540980" lon="9.2002820">
	<ele>984.80</ele>
	<time>2025-02-15T12:14:41.000Z</time>
</trkpt>
<trkpt lat="45.8540930" lon="9.2002900">
	<ele>984.80</ele>
	<time>2025-02-15T12:14:42.000Z</time>
</trkpt>
<trkpt lat="45.8540900" lon="9.2002950">
	<ele>984.80</ele>
	<time>2025-02-15T12:14:43.000Z</time>
</trkpt>
<trkpt lat="45.8540910" lon="9.2003040">
	<ele>984.80</ele>
	<time>2025-02-15T12:14:44.000Z</time>
</trkpt>
<trkpt lat="45.8540820" lon="9.2003050">
	<ele>984.80</ele>
	<time>2025-02-15T12:14:45.000Z</time>
</trkpt>
<trkpt lat="45.8540730" lon="9.2003080">
	<ele>984.80</ele>
	<time>2025-02-15T12:14:46.000Z</time>
</trkpt>
<trkpt lat="45.8540690" lon="9.2003110">
	<ele>984.80</ele>
	<time>2025-02-15T12:14:47.000Z</time>
</trkpt>
<trkpt lat="45.8540660" lon="9.2003150">
	<ele>984.80</ele>
	<time>2025-02-15T12:14:48.000Z</time>
</trkpt>
<trkpt lat="45.8540660" lon="9.2003290">
	<ele>985.00</ele>
	<time>2025-02-15T12:14:49.000Z</time>
</trkpt>
<trkpt lat="45.8540670" lon="9.2003460">
	<ele>985.00</ele>
	<time>2025-02-15T12:14:50.000Z</time>
</trkpt>
<trkpt lat="45.8540630" lon="9.2003620">
	<ele>985.00</ele>
	<time>2025-02-15T12:14:51.000Z</time>
</trkpt>
<trkpt lat="45.8540590" lon="9.2003710">
	<ele>985.00</ele>
	<time>2025-02-15T12:14:52.000Z</time>
</trkpt>
<trkpt lat="45.8540530" lon="9.2003730">
	<ele>985.00</ele>
	<time>2025-02-15T12:14:53.000Z</time>
</trkpt>
<trkpt lat="45.8540490" lon="9.2003870">
	<ele>985.00</ele>
	<time>2025-02-15T12:14:54.000Z</time>
</trkpt>
<trkpt lat="45.8540530" lon="9.2004110">
	<ele>985.00</ele>
	<time>2025-02-15T12:14:55.000Z</time>
</trkpt>
<trkpt lat="45.8540560" lon="9.2004380">
	<ele>984.80</ele>
	<time>2025-02-15T12:14:56.000Z</time>
</trkpt>
<trkpt lat="45.8540530" lon="9.2004540">
	<ele>984.80</ele>
	<time>2025-02-15T12:14:57.000Z</time>
</trkpt>
<trkpt lat="45.8540440" lon="9.2004630">
	<ele>984.60</ele>
	<time>2025-02-15T12:14:58.000Z</time>
</trkpt>
<trkpt lat="45.8540380" lon="9.2004760">
	<ele>984.60</ele>
	<time>2025-02-15T12:14:59.000Z</time>
</trkpt>
<trkpt lat="45.8540360" lon="9.2004920">
	<ele>984.60</ele>
	<time>2025-02-15T12:15:00.000Z</time>
</trkpt>
<trkpt lat="45.8540310" lon="9.2005050">
	<ele>984.80</ele>
	<time>2025-02-15T12:15:01.000Z</time>
</trkpt>
<trkpt lat="45.8540220" lon="9.2005170">
	<ele>984.80</ele>
	<time>2025-02-15T12:15:02.000Z</time>
</trkpt>
<trkpt lat="45.8540110" lon="9.2005270">
	<ele>984.80</ele>
	<time>2025-02-15T12:15:03.000Z</time>
</trkpt>
<trkpt lat="45.8539990" lon="9.2005350">
	<ele>984.80</ele>
	<time>2025-02-15T12:15:04.000Z</time>
</trkpt>
<trkpt lat="45.8539870" lon="9.2005370">
	<ele>984.80</ele>
	<time>2025-02-15T12:15:05.000Z</time>
</trkpt>
<trkpt lat="45.8539830" lon="9.2005390">
	<ele>984.80</ele>
	<time>2025-02-15T12:15:06.000Z</time>
</trkpt>
<trkpt lat="45.8539760" lon="9.2005410">
	<ele>984.80</ele>
	<time>2025-02-15T12:15:07.000Z</time>
</trkpt>
<trkpt lat="45.8539640" lon="9.2005400">
	<ele>984.60</ele>
	<time>2025-02-15T12:15:08.000Z</time>
</trkpt>
<trkpt lat="45.8539550" lon="9.2005460">
	<ele>984.60</ele>
	<time>2025-02-15T12:15:09.000Z</time>
</trkpt>
<trkpt lat="45.8539510" lon="9.2005490">
	<ele>984.60</ele>
	<time>2025-02-15T12:15:10.000Z</time>
</trkpt>
<trkpt lat="45.8539540" lon="9.2005680">
	<ele>984.40</ele>
	<time>2025-02-15T12:15:11.000Z</time>
</trkpt>
<trkpt lat="45.8539520" lon="9.2005710">
	<ele>984.40</ele>
	<time>2025-02-15T12:15:12.000Z</time>
</trkpt>
<trkpt lat="45.8539500" lon="9.2005810">
	<ele>984.20</ele>
	<time>2025-02-15T12:15:13.000Z</time>
</trkpt>
<trkpt lat="45.8539460" lon="9.2005950">
	<ele>984.00</ele>
	<time>2025-02-15T12:15:14.000Z</time>
</trkpt>
<trkpt lat="45.8539380" lon="9.2006120">
	<ele>983.80</ele>
	<time>2025-02-15T12:15:15.000Z</time>
</trkpt>
<trkpt lat="45.8539300" lon="9.2006210">
	<ele>983.60</ele>
	<time>2025-02-15T12:15:16.000Z</time>
</trkpt>
<trkpt lat="45.8539150" lon="9.2006140">
	<ele>983.60</ele>
	<time>2025-02-15T12:15:17.000Z</time>
</trkpt>
<trkpt lat="45.8539040" lon="9.2006080">
	<ele>983.40</ele>
	<time>2025-02-15T12:15:18.000Z</time>
</trkpt>
<trkpt lat="45.8539000" lon="9.2006140">
	<ele>983.20</ele>
	<time>2025-02-15T12:15:19.000Z</time>
</trkpt>
<trkpt lat="45.8538970" lon="9.2006300">
	<ele>983.00</ele>
	<time>2025-02-15T12:15:20.000Z</time>
</trkpt>
<trkpt lat="45.8538990" lon="9.2006540">
	<ele>982.60</ele>
	<time>2025-02-15T12:15:21.000Z</time>
</trkpt>
<trkpt lat="45.8538950" lon="9.2006720">
	<ele>981.80</ele>
	<time>2025-02-15T12:15:22.000Z</time>
</trkpt>
<trkpt lat="45.8538950" lon="9.2006820">
	<ele>981.60</ele>
	<time>2025-02-15T12:15:23.000Z</time>
</trkpt>
<trkpt lat="45.8538960" lon="9.2006990">
	<ele>981.20</ele>
	<time>2025-02-15T12:15:24.000Z</time>
</trkpt>
<trkpt lat="45.8538930" lon="9.2007080">
	<ele>981.00</ele>
	<time>2025-02-15T12:15:25.000Z</time>
</trkpt>
<trkpt lat="45.8538880" lon="9.2007110">
	<ele>980.80</ele>
	<time>2025-02-15T12:15:26.000Z</time>
</trkpt>
<trkpt lat="45.8538800" lon="9.2007040">
	<ele>980.80</ele>
	<time>2025-02-15T12:15:27.000Z</time>
</trkpt>
<trkpt lat="45.8538710" lon="9.2007010">
	<ele>980.80</ele>
	<time>2025-02-15T12:15:28.000Z</time>
</trkpt>
<trkpt lat="45.8538660" lon="9.2007040">
	<ele>980.60</ele>
	<time>2025-02-15T12:15:29.000Z</time>
</trkpt>
<trkpt lat="45.8538640" lon="9.2007060">
	<ele>980.40</ele>
	<time>2025-02-15T12:15:30.000Z</time>
</trkpt>
<trkpt lat="45.8538620" lon="9.2007110">
	<ele>980.40</ele>
	<time>2025-02-15T12:15:31.000Z</time>
</trkpt>
<trkpt lat="45.8538610" lon="9.2007140">
	<ele>980.20</ele>
	<time>2025-02-15T12:15:32.000Z</time>
</trkpt>
<trkpt lat="45.8538590" lon="9.2007320">
	<ele>979.80</ele>
	<time>2025-02-15T12:15:33.000Z</time>
</trkpt>
<trkpt lat="45.8538630" lon="9.2007580">
	<ele>979.40</ele>
	<time>2025-02-15T12:15:34.000Z</time>
</trkpt>
<trkpt lat="45.8538620" lon="9.2007620">
	<ele>979.20</ele>
	<time>2025-02-15T12:15:35.000Z</time>
</trkpt>
<trkpt lat="45.8538620" lon="9.2007650">
	<ele>979.00</ele>
	<time>2025-02-15T12:15:36.000Z</time>
</trkpt>
<trkpt lat="45.8538520" lon="9.2007620">
	<ele>978.80</ele>
	<time>2025-02-15T12:15:37.000Z</time>
</trkpt>
<trkpt lat="45.8538460" lon="9.2007680">
	<ele>978.60</ele>
	<time>2025-02-15T12:15:38.000Z</time>
</trkpt>
<trkpt lat="45.8538370" lon="9.2007790">
	<ele>978.40</ele>
	<time>2025-02-15T12:15:39.000Z</time>
</trkpt>
<trkpt lat="45.8538310" lon="9.2007890">
	<ele>978.20</ele>
	<time>2025-02-15T12:15:40.000Z</time>
</trkpt>
<trkpt lat="45.8538230" lon="9.2007920">
	<ele>978.00</ele>
	<time>2025-02-15T12:15:41.000Z</time>
</trkpt>
<trkpt lat="45.8538160" lon="9.2007930">
	<ele>977.80</ele>
	<time>2025-02-15T12:15:42.000Z</time>
</trkpt>
<trkpt lat="45.8538110" lon="9.2008020">
	<ele>977.60</ele>
	<time>2025-02-15T12:15:43.000Z</time>
</trkpt>
<trkpt lat="45.8538090" lon="9.2008080">
	<ele>977.40</ele>
	<time>2025-02-15T12:15:44.000Z</time>
</trkpt>
<trkpt lat="45.8538090" lon="9.2008120">
	<ele>977.20</ele>
	<time>2025-02-15T12:15:45.000Z</time>
</trkpt>
<trkpt lat="45.8538100" lon="9.2008140">
	<ele>977.00</ele>
	<time>2025-02-15T12:15:46.000Z</time>
</trkpt>
<trkpt lat="45.8538110" lon="9.2008320">
	<ele>977.00</ele>
	<time>2025-02-15T12:15:47.000Z</time>
</trkpt>
<trkpt lat="45.8538120" lon="9.2008410">
	<ele>977.00</ele>
	<time>2025-02-15T12:15:48.000Z</time>
</trkpt>
<trkpt lat="45.8538150" lon="9.2008410">
	<ele>977.00</ele>
	<time>2025-02-15T12:15:49.000Z</time>
</trkpt>
<trkpt lat="45.8538150" lon="9.2008520">
	<ele>977.20</ele>
	<time>2025-02-15T12:15:50.000Z</time>
</trkpt>
<trkpt lat="45.8538160" lon="9.2008650">
	<ele>977.20</ele>
	<time>2025-02-15T12:15:51.000Z</time>
</trkpt>
<trkpt lat="45.8538140" lon="9.2008800">
	<ele>977.20</ele>
	<time>2025-02-15T12:15:52.000Z</time>
</trkpt>
<trkpt lat="45.8538140" lon="9.2008930">
	<ele>977.20</ele>
	<time>2025-02-15T12:15:53.000Z</time>
</trkpt>
<trkpt lat="45.8538150" lon="9.2008960">
	<ele>977.20</ele>
	<time>2025-02-15T12:15:54.000Z</time>
</trkpt>
<trkpt lat="45.8538160" lon="9.2008960">
	<ele>977.20</ele>
	<time>2025-02-15T12:15:55.000Z</time>
</trkpt>
<trkpt lat="45.8538140" lon="9.2008940">
	<ele>977.00</ele>
	<time>2025-02-15T12:15:56.000Z</time>
</trkpt>
<trkpt lat="45.8538070" lon="9.2008880">
	<ele>977.00</ele>
	<time>2025-02-15T12:15:57.000Z</time>
</trkpt>
<trkpt lat="45.8537980" lon="9.2008860">
	<ele>977.00</ele>
	<time>2025-02-15T12:15:58.000Z</time>
</trkpt>
<trkpt lat="45.8537960" lon="9.2008840">
	<ele>977.00</ele>
	<time>2025-02-15T12:15:59.000Z</time>
</trkpt>
<trkpt lat="45.8537950" lon="9.2008810">
	<ele>977.00</ele>
	<time>2025-02-15T12:16:00.000Z</time>
</trkpt>
<trkpt lat="45.8538000" lon="9.2008860">
	<ele>977.00</ele>
	<time>2025-02-15T12:16:01.000Z</time>
</trkpt>
<trkpt lat="45.8538070" lon="9.2008970">
	<ele>976.80</ele>
	<time>2025-02-15T12:16:02.000Z</time>
</trkpt>
<trkpt lat="45.8538080" lon="9.2008930">
	<ele>977.00</ele>
	<time>2025-02-15T12:16:03.000Z</time>
</trkpt>
<trkpt lat="45.8538100" lon="9.2008910">
	<ele>977.00</ele>
	<time>2025-02-15T12:16:04.000Z</time>
</trkpt>
<trkpt lat="45.8538130" lon="9.2008920">
	<ele>977.00</ele>
	<time>2025-02-15T12:16:05.000Z</time>
</trkpt>
<trkpt lat="45.8538150" lon="9.2008920">
	<ele>977.00</ele>
	<time>2025-02-15T12:16:06.000Z</time>
</trkpt>
<trkpt lat="45.8538140" lon="9.2008890">
	<ele>977.00</ele>
	<time>2025-02-15T12:16:07.000Z</time>
</trkpt>
<trkpt lat="45.8538110" lon="9.2008910">
	<ele>977.00</ele>
	<time>2025-02-15T12:16:08.000Z</time>
</trkpt>
<trkpt lat="45.8538080" lon="9.2008870">
	<ele>977.00</ele>
	<time>2025-02-15T12:16:09.000Z</time>
</trkpt>
<trkpt lat="45.8537990" lon="9.2008920">
	<ele>977.00</ele>
	<time>2025-02-15T12:16:10.000Z</time>
</trkpt>
<trkpt lat="45.8537960" lon="9.2008920">
	<ele>977.00</ele>
	<time>2025-02-15T12:16:11.000Z</time>
</trkpt>
<trkpt lat="45.8537950" lon="9.2008930">
	<ele>976.80</ele>
	<time>2025-02-15T12:16:12.000Z</time>
</trkpt>
<trkpt lat="45.8538050" lon="9.2009010">
	<ele>976.80</ele>
	<time>2025-02-15T12:16:13.000Z</time>
</trkpt>
<trkpt lat="45.8538100" lon="9.2009050">
	<ele>976.60</ele>
	<time>2025-02-15T12:16:14.000Z</time>
</trkpt>
<trkpt lat="45.8538130" lon="9.2009070">
	<ele>976.60</ele>
	<time>2025-02-15T12:16:15.000Z</time>
</trkpt>
<trkpt lat="45.8538140" lon="9.2009060">
	<ele>976.60</ele>
	<time>2025-02-15T12:16:16.000Z</time>
</trkpt>
<trkpt lat="45.8538150" lon="9.2009070">
	<ele>976.40</ele>
	<time>2025-02-15T12:16:17.000Z</time>
</trkpt>
<trkpt lat="45.8538150" lon="9.2009100">
	<ele>976.40</ele>
	<time>2025-02-15T12:16:18.000Z</time>
</trkpt>
<trkpt lat="45.8538130" lon="9.2009110">
	<ele>976.40</ele>
	<time>2025-02-15T12:16:19.000Z</time>
</trkpt>
<trkpt lat="45.8538130" lon="9.2009130">
	<ele>976.40</ele>
	<time>2025-02-15T12:16:20.000Z</time>
</trkpt>
<trkpt lat="45.8538140" lon="9.2009130">
	<ele>976.40</ele>
	<time>2025-02-15T12:16:21.000Z</time>
</trkpt>
<trkpt lat="45.8538140" lon="9.2009130">
	<ele>976.40</ele>
	<time>2025-02-15T12:16:22.000Z</time>
</trkpt>
<trkpt lat="45.8538140" lon="9.2009130">
	<ele>976.40</ele>
	<time>2025-02-15T12:16:23.000Z</time>
</trkpt>
<trkpt lat="45.8538140" lon="9.2009130">
	<ele>976.40</ele>
	<time>2025-02-15T12:16:24.000Z</time>
</trkpt>
<trkpt lat="45.8538140" lon="9.2009130">
	<ele>976.40</ele>
	<time>2025-02-15T12:16:25.000Z</time>
</trkpt>
<trkpt lat="45.8538140" lon="9.2009130">
	<ele>976.40</ele>
	<time>2025-02-15T12:16:26.000Z</time>
</trkpt>
<trkpt lat="45.8538140" lon="9.2009130">
	<ele>976.20</ele>
	<time>2025-02-15T12:16:27.000Z</time>
</trkpt>
<trkpt lat="45.8538140" lon="9.2009130">
	<ele>976.20</ele>
	<time>2025-02-15T12:16:28.000Z</time>
</trkpt>
<trkpt lat="45.8538140" lon="9.2009130">
	<ele>976.20</ele>
	<time>2025-02-15T12:16:29.000Z</time>
</trkpt>
<trkpt lat="45.8538140" lon="9.2009130">
	<ele>976.00</ele>
	<time>2025-02-15T12:16:30.000Z</time>
</trkpt>
<trkpt lat="45.8538140" lon="9.2009130">
	<ele>976.00</ele>
	<time>2025-02-15T12:16:31.000Z</time>
</trkpt>
<trkpt lat="45.8538140" lon="9.2009130">
	<ele>975.80</ele>
	<time>2025-02-15T12:16:32.000Z</time>
</trkpt>
<trkpt lat="45.8538140" lon="9.2009130">
	<ele>975.60</ele>
	<time>2025-02-15T12:16:33.000Z</time>
</trkpt>
<trkpt lat="45.8538140" lon="9.2009130">
	<ele>975.60</ele>
	<time>2025-02-15T12:16:34.000Z</time>
</trkpt>
<trkpt lat="45.8538140" lon="9.2009130">
	<ele>975.40</ele>
	<time>2025-02-15T12:16:35.000Z</time>
</trkpt>
<trkpt lat="45.8538140" lon="9.2009130">
	<ele>975.20</ele>
	<time>2025-02-15T12:16:36.000Z</time>
</trkpt>
<trkpt lat="45.8538130" lon="9.2009130">
	<ele>974.80</ele>
	<time>2025-02-15T12:16:37.000Z</time>
</trkpt>
<trkpt lat="45.8538130" lon="9.2009130">
	<ele>974.60</ele>
	<time>2025-02-15T12:16:38.000Z</time>
</trkpt>
<trkpt lat="45.8538130" lon="9.2009130">
	<ele>974.40</ele>
	<time>2025-02-15T12:16:39.000Z</time>
</trkpt>
<trkpt lat="45.8538130" lon="9.2009280">
	<ele>974.40</ele>
	<time>2025-02-15T12:16:40.000Z</time>
</trkpt>
<trkpt lat="45.8538130" lon="9.2009310">
	<ele>974.20</ele>
	<time>2025-02-15T12:16:41.000Z</time>
</trkpt>
<trkpt lat="45.8538130" lon="9.2009370">
	<ele>974.00</ele>
	<time>2025-02-15T12:16:42.000Z</time>
</trkpt>
<trkpt lat="45.8538130" lon="9.2009410">
	<ele>973.80</ele>
	<time>2025-02-15T12:16:43.000Z</time>
</trkpt>
<trkpt lat="45.8538130" lon="9.2009480">
	<ele>973.40</ele>
	<time>2025-02-15T12:16:44.000Z</time>
</trkpt>
<trkpt lat="45.8538130" lon="9.2009530">
	<ele>973.40</ele>
	<time>2025-02-15T12:16:45.000Z</time>
</trkpt>
<trkpt lat="45.8538120" lon="9.2009540">
	<ele>973.00</ele>
	<time>2025-02-15T12:16:46.000Z</time>
</trkpt>
<trkpt lat="45.8538120" lon="9.2009630">
	<ele>972.40</ele>
	<time>2025-02-15T12:16:47.000Z</time>
</trkpt>
<trkpt lat="45.8538100" lon="9.2009760">
	<ele>971.80</ele>
	<time>2025-02-15T12:16:48.000Z</time>
</trkpt>
<trkpt lat="45.8538100" lon="9.2009920">
	<ele>971.60</ele>
	<time>2025-02-15T12:16:49.000Z</time>
</trkpt>
<trkpt lat="45.8538080" lon="9.2010070">
	<ele>971.40</ele>
	<time>2025-02-15T12:16:50.000Z</time>
</trkpt>
<trkpt lat="45.8538040" lon="9.2010220">
	<ele>971.20</ele>
	<time>2025-02-15T12:16:51.000Z</time>
</trkpt>
<trkpt lat="45.8537940" lon="9.2010480">
	<ele>971.00</ele>
	<time>2025-02-15T12:16:52.000Z</time>
</trkpt>
<trkpt lat="45.8537830" lon="9.2010600">
	<ele>971.00</ele>
	<time>2025-02-15T12:16:53.000Z</time>
</trkpt>
<trkpt lat="45.8537680" lon="9.2010740">
	<ele>970.60</ele>
	<time>2025-02-15T12:16:54.000Z</time>
</trkpt>
<trkpt lat="45.8537590" lon="9.2010910">
	<ele>970.60</ele>
	<time>2025-02-15T12:16:55.000Z</time>
</trkpt>
<trkpt lat="45.8537460" lon="9.2011070">
	<ele>970.40</ele>
	<time>2025-02-15T12:16:56.000Z</time>
</trkpt>
<trkpt lat="45.8537400" lon="9.2011240">
	<ele>970.20</ele>
	<time>2025-02-15T12:16:57.000Z</time>
</trkpt>
<trkpt lat="45.8537270" lon="9.2011400">
	<ele>970.20</ele>
	<time>2025-02-15T12:16:58.000Z</time>
</trkpt>
<trkpt lat="45.8537200" lon="9.2011530">
	<ele>969.80</ele>
	<time>2025-02-15T12:16:59.000Z</time>
</trkpt>
<trkpt lat="45.8537150" lon="9.2011680">
	<ele>969.60</ele>
	<time>2025-02-15T12:17:00.000Z</time>
</trkpt>
<trkpt lat="45.8537130" lon="9.2011680">
	<ele>969.40</ele>
	<time>2025-02-15T12:17:01.000Z</time>
</trkpt>
<trkpt lat="45.8537110" lon="9.2011680">
	<ele>969.20</ele>
	<time>2025-02-15T12:17:02.000Z</time>
</trkpt>
<trkpt lat="45.8537060" lon="9.2011670">
	<ele>969.20</ele>
	<time>2025-02-15T12:17:03.000Z</time>
</trkpt>
<trkpt lat="45.8537090" lon="9.2011820">
	<ele>969.20</ele>
	<time>2025-02-15T12:17:04.000Z</time>
</trkpt>
<trkpt lat="45.8536980" lon="9.2011810">
	<ele>969.00</ele>
	<time>2025-02-15T12:17:05.000Z</time>
</trkpt>
<trkpt lat="45.8536820" lon="9.2011780">
	<ele>968.80</ele>
	<time>2025-02-15T12:17:06.000Z</time>
</trkpt>
<trkpt lat="45.8536780" lon="9.2011840">
	<ele>968.60</ele>
	<time>2025-02-15T12:17:07.000Z</time>
</trkpt>
<trkpt lat="45.8536630" lon="9.2011790">
	<ele>968.40</ele>
	<time>2025-02-15T12:17:08.000Z</time>
</trkpt>
<trkpt lat="45.8536600" lon="9.2011790">
	<ele>968.20</ele>
	<time>2025-02-15T12:17:09.000Z</time>
</trkpt>
<trkpt lat="45.8536510" lon="9.2011880">
	<ele>968.00</ele>
	<time>2025-02-15T12:17:10.000Z</time>
</trkpt>
<trkpt lat="45.8536480" lon="9.2011880">
	<ele>967.80</ele>
	<time>2025-02-15T12:17:11.000Z</time>
</trkpt>
<trkpt lat="45.8536360" lon="9.2011930">
	<ele>967.40</ele>
	<time>2025-02-15T12:17:12.000Z</time>
</trkpt>
<trkpt lat="45.8536180" lon="9.2011900">
	<ele>966.80</ele>
	<time>2025-02-15T12:17:13.000Z</time>
</trkpt>
<trkpt lat="45.8536090" lon="9.2011880">
	<ele>966.60</ele>
	<time>2025-02-15T12:17:14.000Z</time>
</trkpt>
<trkpt lat="45.8536020" lon="9.2011920">
	<ele>966.20</ele>
	<time>2025-02-15T12:17:15.000Z</time>
</trkpt>
<trkpt lat="45.8535950" lon="9.2011950">
	<ele>966.20</ele>
	<time>2025-02-15T12:17:16.000Z</time>
</trkpt>
<trkpt lat="45.8535870" lon="9.2011980">
	<ele>965.80</ele>
	<time>2025-02-15T12:17:17.000Z</time>
</trkpt>
<trkpt lat="45.8535800" lon="9.2012020">
	<ele>965.60</ele>
	<time>2025-02-15T12:17:18.000Z</time>
</trkpt>
<trkpt lat="45.8535810" lon="9.2012060">
	<ele>965.40</ele>
	<time>2025-02-15T12:17:19.000Z</time>
</trkpt>
<trkpt lat="45.8535850" lon="9.2012170">
	<ele>965.20</ele>
	<time>2025-02-15T12:17:20.000Z</time>
</trkpt>
<trkpt lat="45.8535880" lon="9.2012350">
	<ele>965.20</ele>
	<time>2025-02-15T12:17:21.000Z</time>
</trkpt>
<trkpt lat="45.8535850" lon="9.2012380">
	<ele>965.00</ele>
	<time>2025-02-15T12:17:22.000Z</time>
</trkpt>
<trkpt lat="45.8535810" lon="9.2012430">
	<ele>964.80</ele>
	<time>2025-02-15T12:17:23.000Z</time>
</trkpt>
<trkpt lat="45.8535840" lon="9.2012540">
	<ele>964.40</ele>
	<time>2025-02-15T12:17:24.000Z</time>
</trkpt>
<trkpt lat="45.8535820" lon="9.2012620">
	<ele>964.00</ele>
	<time>2025-02-15T12:17:25.000Z</time>
</trkpt>
<trkpt lat="45.8535810" lon="9.2012760">
	<ele>963.80</ele>
	<time>2025-02-15T12:17:26.000Z</time>
</trkpt>
<trkpt lat="45.8535780" lon="9.2012850">
	<ele>963.80</ele>
	<time>2025-02-15T12:17:27.000Z</time>
</trkpt>
<trkpt lat="45.8535740" lon="9.2012890">
	<ele>963.60</ele>
	<time>2025-02-15T12:17:28.000Z</time>
</trkpt>
<trkpt lat="45.8535660" lon="9.2012910">
	<ele>963.60</ele>
	<time>2025-02-15T12:17:29.000Z</time>
</trkpt>
<trkpt lat="45.8535600" lon="9.2012950">
	<ele>963.40</ele>
	<time>2025-02-15T12:17:30.000Z</time>
</trkpt>
<trkpt lat="45.8535610" lon="9.2012960">
	<ele>963.40</ele>
	<time>2025-02-15T12:17:31.000Z</time>
</trkpt>
<trkpt lat="45.8535600" lon="9.2012960">
	<ele>963.20</ele>
	<time>2025-02-15T12:17:32.000Z</time>
</trkpt>
<trkpt lat="45.8535450" lon="9.2012750">
	<ele>963.00</ele>
	<time>2025-02-15T12:17:33.000Z</time>
</trkpt>
<trkpt lat="45.8535220" lon="9.2012700">
	<ele>962.80</ele>
	<time>2025-02-15T12:17:34.000Z</time>
</trkpt>
<trkpt lat="45.8535210" lon="9.2012690">
	<ele>962.40</ele>
	<time>2025-02-15T12:17:35.000Z</time>
</trkpt>
<trkpt lat="45.8535110" lon="9.2012720">
	<ele>962.20</ele>
	<time>2025-02-15T12:17:36.000Z</time>
</trkpt>
<trkpt lat="45.8534900" lon="9.2012600">
	<ele>962.00</ele>
	<time>2025-02-15T12:17:37.000Z</time>
</trkpt>
<trkpt lat="45.8534700" lon="9.2012490">
	<ele>961.80</ele>
	<time>2025-02-15T12:17:38.000Z</time>
</trkpt>
<trkpt lat="45.8534560" lon="9.2012510">
	<ele>961.40</ele>
	<time>2025-02-15T12:17:39.000Z</time>
</trkpt>
<trkpt lat="45.8534440" lon="9.2012490">
	<ele>961.40</ele>
	<time>2025-02-15T12:17:40.000Z</time>
</trkpt>
<trkpt lat="45.8534350" lon="9.2012570">
	<ele>961.20</ele>
	<time>2025-02-15T12:17:41.000Z</time>
</trkpt>
<trkpt lat="45.8534290" lon="9.2012680">
	<ele>961.00</ele>
	<time>2025-02-15T12:17:42.000Z</time>
</trkpt>
<trkpt lat="45.8534220" lon="9.2012720">
	<ele>960.80</ele>
	<time>2025-02-15T12:17:43.000Z</time>
</trkpt>
<trkpt lat="45.8534260" lon="9.2012790">
	<ele>960.60</ele>
	<time>2025-02-15T12:17:44.000Z</time>
</trkpt>
<trkpt lat="45.8534270" lon="9.2012880">
	<ele>960.60</ele>
	<time>2025-02-15T12:17:45.000Z</time>
</trkpt>
<trkpt lat="45.8534260" lon="9.2013030">
	<ele>960.40</ele>
	<time>2025-02-15T12:17:46.000Z</time>
</trkpt>
<trkpt lat="45.8534220" lon="9.2013030">
	<ele>960.20</ele>
	<time>2025-02-15T12:17:47.000Z</time>
</trkpt>
<trkpt lat="45.8534220" lon="9.2013180">
	<ele>959.80</ele>
	<time>2025-02-15T12:17:48.000Z</time>
</trkpt>
<trkpt lat="45.8534120" lon="9.2013220">
	<ele>959.60</ele>
	<time>2025-02-15T12:17:49.000Z</time>
</trkpt>
<trkpt lat="45.8534000" lon="9.2013240">
	<ele>959.60</ele>
	<time>2025-02-15T12:17:50.000Z</time>
</trkpt>
<trkpt lat="45.8533960" lon="9.2013360">
	<ele>959.20</ele>
	<time>2025-02-15T12:17:51.000Z</time>
</trkpt>
<trkpt lat="45.8533990" lon="9.2013670">
	<ele>959.00</ele>
	<time>2025-02-15T12:17:52.000Z</time>
</trkpt>
<trkpt lat="45.8533900" lon="9.2014070">
	<ele>959.00</ele>
	<time>2025-02-15T12:17:53.000Z</time>
</trkpt>
<trkpt lat="45.8533850" lon="9.2014380">
	<ele>959.00</ele>
	<time>2025-02-15T12:17:54.000Z</time>
</trkpt>
<trkpt lat="45.8533840" lon="9.2014580">
	<ele>959.00</ele>
	<time>2025-02-15T12:17:55.000Z</time>
</trkpt>
<trkpt lat="45.8533820" lon="9.2014640">
	<ele>959.00</ele>
	<time>2025-02-15T12:17:56.000Z</time>
</trkpt>
<trkpt lat="45.8533660" lon="9.2014700">
	<ele>959.00</ele>
	<time>2025-02-15T12:17:57.000Z</time>
</trkpt>
<trkpt lat="45.8533630" lon="9.2014750">
	<ele>959.00</ele>
	<time>2025-02-15T12:17:58.000Z</time>
</trkpt>
<trkpt lat="45.8533400" lon="9.2014670">
	<ele>958.80</ele>
	<time>2025-02-15T12:17:59.000Z</time>
</trkpt>
<trkpt lat="45.8533370" lon="9.2014690">
	<ele>958.60</ele>
	<time>2025-02-15T12:18:00.000Z</time>
</trkpt>
<trkpt lat="45.8533520" lon="9.2014750">
	<ele>958.60</ele>
	<time>2025-02-15T12:18:01.000Z</time>
</trkpt>
<trkpt lat="45.8533610" lon="9.2014820">
	<ele>958.40</ele>
	<time>2025-02-15T12:18:02.000Z</time>
</trkpt>
<trkpt lat="45.8533620" lon="9.2014930">
	<ele>958.00</ele>
	<time>2025-02-15T12:18:03.000Z</time>
</trkpt>
<trkpt lat="45.8533550" lon="9.2014960">
	<ele>957.80</ele>
	<time>2025-02-15T12:18:04.000Z</time>
</trkpt>
<trkpt lat="45.8533440" lon="9.2015060">
	<ele>957.60</ele>
	<time>2025-02-15T12:18:05.000Z</time>
</trkpt>
<trkpt lat="45.8533410" lon="9.2015250">
	<ele>957.20</ele>
	<time>2025-02-15T12:18:06.000Z</time>
</trkpt>
<trkpt lat="45.8533290" lon="9.2015290">
	<ele>957.00</ele>
	<time>2025-02-15T12:18:07.000Z</time>
</trkpt>
<trkpt lat="45.8533270" lon="9.2015370">
	<ele>956.80</ele>
	<time>2025-02-15T12:18:08.000Z</time>
</trkpt>
<trkpt lat="45.8533280" lon="9.2015520">
	<ele>956.60</ele>
	<time>2025-02-15T12:18:09.000Z</time>
</trkpt>
<trkpt lat="45.8533210" lon="9.2015500">
	<ele>956.40</ele>
	<time>2025-02-15T12:18:10.000Z</time>
</trkpt>
<trkpt lat="45.8533140" lon="9.2015500">
	<ele>956.00</ele>
	<time>2025-02-15T12:18:11.000Z</time>
</trkpt>
<trkpt lat="45.8533090" lon="9.2015480">
	<ele>955.80</ele>
	<time>2025-02-15T12:18:12.000Z</time>
</trkpt>
<trkpt lat="45.8533110" lon="9.2015590">
	<ele>955.60</ele>
	<time>2025-02-15T12:18:13.000Z</time>
</trkpt>
<trkpt lat="45.8533150" lon="9.2015790">
	<ele>955.20</ele>
	<time>2025-02-15T12:18:14.000Z</time>
</trkpt>
<trkpt lat="45.8533110" lon="9.2015930">
	<ele>955.00</ele>
	<time>2025-02-15T12:18:15.000Z</time>
</trkpt>
<trkpt lat="45.8533070" lon="9.2016030">
	<ele>954.80</ele>
	<time>2025-02-15T12:18:16.000Z</time>
</trkpt>
<trkpt lat="45.8533060" lon="9.2016110">
	<ele>954.80</ele>
	<time>2025-02-15T12:18:17.000Z</time>
</trkpt>
<trkpt lat="45.8532990" lon="9.2016210">
	<ele>954.60</ele>
	<time>2025-02-15T12:18:18.000Z</time>
</trkpt>
<trkpt lat="45.8532910" lon="9.2016280">
	<ele>954.40</ele>
	<time>2025-02-15T12:18:19.000Z</time>
</trkpt>
<trkpt lat="45.8532850" lon="9.2016370">
	<ele>954.40</ele>
	<time>2025-02-15T12:18:20.000Z</time>
</trkpt>
<trkpt lat="45.8532770" lon="9.2016450">
	<ele>954.20</ele>
	<time>2025-02-15T12:18:21.000Z</time>
</trkpt>
<trkpt lat="45.8532720" lon="9.2016590">
	<ele>954.20</ele>
	<time>2025-02-15T12:18:22.000Z</time>
</trkpt>
<trkpt lat="45.8532610" lon="9.2016700">
	<ele>954.00</ele>
	<time>2025-02-15T12:18:23.000Z</time>
</trkpt>
<trkpt lat="45.8532550" lon="9.2016840">
	<ele>953.80</ele>
	<time>2025-02-15T12:18:24.000Z</time>
</trkpt>
<trkpt lat="45.8532500" lon="9.2016890">
	<ele>953.60</ele>
	<time>2025-02-15T12:18:25.000Z</time>
</trkpt>
<trkpt lat="45.8532460" lon="9.2016980">
	<ele>953.40</ele>
	<time>2025-02-15T12:18:26.000Z</time>
</trkpt>
<trkpt lat="45.8532480" lon="9.2017090">
	<ele>953.20</ele>
	<time>2025-02-15T12:18:27.000Z</time>
</trkpt>
<trkpt lat="45.8532440" lon="9.2017180">
	<ele>953.20</ele>
	<time>2025-02-15T12:18:28.000Z</time>
</trkpt>
<trkpt lat="45.8532370" lon="9.2017300">
	<ele>953.00</ele>
	<time>2025-02-15T12:18:29.000Z</time>
</trkpt>
<trkpt lat="45.8532380" lon="9.2017380">
	<ele>952.80</ele>
	<time>2025-02-15T12:18:30.000Z</time>
</trkpt>
<trkpt lat="45.8532340" lon="9.2017480">
	<ele>952.80</ele>
	<time>2025-02-15T12:18:31.000Z</time>
</trkpt>
<trkpt lat="45.8532290" lon="9.2017620">
	<ele>952.60</ele>
	<time>2025-02-15T12:18:32.000Z</time>
</trkpt>
<trkpt lat="45.8532210" lon="9.2017820">
	<ele>952.60</ele>
	<time>2025-02-15T12:18:33.000Z</time>
</trkpt>
<trkpt lat="45.8532130" lon="9.2018010">
	<ele>952.40</ele>
	<time>2025-02-15T12:18:34.000Z</time>
</trkpt>
<trkpt lat="45.8532090" lon="9.2018180">
	<ele>952.20</ele>
	<time>2025-02-15T12:18:35.000Z</time>
</trkpt>
<trkpt lat="45.8532080" lon="9.2018350">
	<ele>952.00</ele>
	<time>2025-02-15T12:18:36.000Z</time>
</trkpt>
<trkpt lat="45.8532050" lon="9.2018520">
	<ele>951.80</ele>
	<time>2025-02-15T12:18:37.000Z</time>
</trkpt>
<trkpt lat="45.8532030" lon="9.2018650">
	<ele>951.40</ele>
	<time>2025-02-15T12:18:38.000Z</time>
</trkpt>
<trkpt lat="45.8532000" lon="9.2018710">
	<ele>951.20</ele>
	<time>2025-02-15T12:18:39.000Z</time>
</trkpt>
<trkpt lat="45.8531980" lon="9.2018780">
	<ele>951.00</ele>
	<time>2025-02-15T12:18:40.000Z</time>
</trkpt>
<trkpt lat="45.8531980" lon="9.2018950">
	<ele>951.00</ele>
	<time>2025-02-15T12:18:41.000Z</time>
</trkpt>
<trkpt lat="45.8531990" lon="9.2019000">
	<ele>950.80</ele>
	<time>2025-02-15T12:18:42.000Z</time>
</trkpt>
<trkpt lat="45.8531960" lon="9.2019040">
	<ele>950.80</ele>
	<time>2025-02-15T12:18:43.000Z</time>
</trkpt>
<trkpt lat="45.8531870" lon="9.2019040">
	<ele>950.80</ele>
	<time>2025-02-15T12:18:44.000Z</time>
</trkpt>
<trkpt lat="45.8531800" lon="9.2019020">
	<ele>950.60</ele>
	<time>2025-02-15T12:18:45.000Z</time>
</trkpt>
<trkpt lat="45.8531770" lon="9.2019190">
	<ele>950.40</ele>
	<time>2025-02-15T12:18:46.000Z</time>
</trkpt>
<trkpt lat="45.8531730" lon="9.2019340">
	<ele>950.20</ele>
	<time>2025-02-15T12:18:47.000Z</time>
</trkpt>
<trkpt lat="45.8531680" lon="9.2019580">
	<ele>949.80</ele>
	<time>2025-02-15T12:18:48.000Z</time>
</trkpt>
<trkpt lat="45.8531680" lon="9.2019770">
	<ele>949.60</ele>
	<time>2025-02-15T12:18:49.000Z</time>
</trkpt>
<trkpt lat="45.8531680" lon="9.2019850">
	<ele>949.60</ele>
	<time>2025-02-15T12:18:50.000Z</time>
</trkpt>
<trkpt lat="45.8531650" lon="9.2019950">
	<ele>949.40</ele>
	<time>2025-02-15T12:18:51.000Z</time>
</trkpt>
<trkpt lat="45.8531650" lon="9.2020030">
	<ele>949.40</ele>
	<time>2025-02-15T12:18:52.000Z</time>
</trkpt>
<trkpt lat="45.8531640" lon="9.2020130">
	<ele>949.00</ele>
	<time>2025-02-15T12:18:53.000Z</time>
</trkpt>
<trkpt lat="45.8531570" lon="9.2020200">
	<ele>949.20</ele>
	<time>2025-02-15T12:18:54.000Z</time>
</trkpt>
<trkpt lat="45.8531500" lon="9.2020300">
	<ele>949.20</ele>
	<time>2025-02-15T12:18:55.000Z</time>
</trkpt>
<trkpt lat="45.8531400" lon="9.2020400">
	<ele>949.00</ele>
	<time>2025-02-15T12:18:56.000Z</time>
</trkpt>
<trkpt lat="45.8531300" lon="9.2020460">
	<ele>948.80</ele>
	<time>2025-02-15T12:18:57.000Z</time>
</trkpt>
<trkpt lat="45.8531230" lon="9.2020550">
	<ele>948.80</ele>
	<time>2025-02-15T12:18:58.000Z</time>
</trkpt>
<trkpt lat="45.8531180" lon="9.2020710">
	<ele>948.40</ele>
	<time>2025-02-15T12:18:59.000Z</time>
</trkpt>
<trkpt lat="45.8531180" lon="9.2020900">
	<ele>948.20</ele>
	<time>2025-02-15T12:19:00.000Z</time>
</trkpt>
<trkpt lat="45.8531210" lon="9.2021100">
	<ele>948.20</ele>
	<time>2025-02-15T12:19:01.000Z</time>
</trkpt>
<trkpt lat="45.8531240" lon="9.2021290">
	<ele>948.00</ele>
	<time>2025-02-15T12:19:02.000Z</time>
</trkpt>
<trkpt lat="45.8531220" lon="9.2021410">
	<ele>947.80</ele>
	<time>2025-02-15T12:19:03.000Z</time>
</trkpt>
<trkpt lat="45.8531150" lon="9.2021570">
	<ele>947.60</ele>
	<time>2025-02-15T12:19:04.000Z</time>
</trkpt>
<trkpt lat="45.8531110" lon="9.2021670">
	<ele>947.60</ele>
	<time>2025-02-15T12:19:05.000Z</time>
</trkpt>
<trkpt lat="45.8531090" lon="9.2021790">
	<ele>947.20</ele>
	<time>2025-02-15T12:19:06.000Z</time>
</trkpt>
<trkpt lat="45.8531030" lon="9.2021900">
	<ele>947.20</ele>
	<time>2025-02-15T12:19:07.000Z</time>
</trkpt>
<trkpt lat="45.8530950" lon="9.2022000">
	<ele>947.00</ele>
	<time>2025-02-15T12:19:08.000Z</time>
</trkpt>
<trkpt lat="45.8530860" lon="9.2022130">
	<ele>946.80</ele>
	<time>2025-02-15T12:19:09.000Z</time>
</trkpt>
<trkpt lat="45.8530820" lon="9.2022330">
	<ele>946.80</ele>
	<time>2025-02-15T12:19:10.000Z</time>
</trkpt>
<trkpt lat="45.8530840" lon="9.2022490">
	<ele>946.60</ele>
	<time>2025-02-15T12:19:11.000Z</time>
</trkpt>
<trkpt lat="45.8530820" lon="9.2022620">
	<ele>946.40</ele>
	<time>2025-02-15T12:19:12.000Z</time>
</trkpt>
<trkpt lat="45.8530810" lon="9.2022730">
	<ele>946.20</ele>
	<time>2025-02-15T12:19:13.000Z</time>
</trkpt>
<trkpt lat="45.8530790" lon="9.2022900">
	<ele>946.20</ele>
	<time>2025-02-15T12:19:14.000Z</time>
</trkpt>
<trkpt lat="45.8530760" lon="9.2023020">
	<ele>946.00</ele>
	<time>2025-02-15T12:19:15.000Z</time>
</trkpt>
<trkpt lat="45.8530730" lon="9.2023210">
	<ele>945.60</ele>
	<time>2025-02-15T12:19:16.000Z</time>
</trkpt>
<trkpt lat="45.8530700" lon="9.2023370">
	<ele>945.40</ele>
	<time>2025-02-15T12:19:17.000Z</time>
</trkpt>
<trkpt lat="45.8530680" lon="9.2023540">
	<ele>945.20</ele>
	<time>2025-02-15T12:19:18.000Z</time>
</trkpt>
<trkpt lat="45.8530670" lon="9.2023690">
	<ele>945.00</ele>
	<time>2025-02-15T12:19:19.000Z</time>
</trkpt>
<trkpt lat="45.8530660" lon="9.2023940">
	<ele>944.80</ele>
	<time>2025-02-15T12:19:20.000Z</time>
</trkpt>
<trkpt lat="45.8530650" lon="9.2024120">
	<ele>944.60</ele>
	<time>2025-02-15T12:19:21.000Z</time>
</trkpt>
<trkpt lat="45.8530610" lon="9.2024260">
	<ele>944.60</ele>
	<time>2025-02-15T12:19:22.000Z</time>
</trkpt>
<trkpt lat="45.8530590" lon="9.2024330">
	<ele>944.60</ele>
	<time>2025-02-15T12:19:23.000Z</time>
</trkpt>
<trkpt lat="45.8530520" lon="9.2024460">
	<ele>944.40</ele>
	<time>2025-02-15T12:19:24.000Z</time>
</trkpt>
<trkpt lat="45.8530430" lon="9.2024540">
	<ele>944.40</ele>
	<time>2025-02-15T12:19:25.000Z</time>
</trkpt>
<trkpt lat="45.8530340" lon="9.2024630">
	<ele>944.20</ele>
	<time>2025-02-15T12:19:26.000Z</time>
</trkpt>
<trkpt lat="45.8530210" lon="9.2024700">
	<ele>944.00</ele>
	<time>2025-02-15T12:19:27.000Z</time>
</trkpt>
<trkpt lat="45.8530130" lon="9.2024770">
	<ele>944.00</ele>
	<time>2025-02-15T12:19:28.000Z</time>
</trkpt>
<trkpt lat="45.8530120" lon="9.2024880">
	<ele>943.80</ele>
	<time>2025-02-15T12:19:29.000Z</time>
</trkpt>
<trkpt lat="45.8530210" lon="9.2025100">
	<ele>943.60</ele>
	<time>2025-02-15T12:19:30.000Z</time>
</trkpt>
<trkpt lat="45.8530210" lon="9.2025310">
	<ele>943.80</ele>
	<time>2025-02-15T12:19:31.000Z</time>
</trkpt>
<trkpt lat="45.8530210" lon="9.2025540">
	<ele>943.80</ele>
	<time>2025-02-15T12:19:32.000Z</time>
</trkpt>
<trkpt lat="45.8530200" lon="9.2025790">
	<ele>943.60</ele>
	<time>2025-02-15T12:19:33.000Z</time>
</trkpt>
<trkpt lat="45.8530180" lon="9.2026020">
	<ele>943.60</ele>
	<time>2025-02-15T12:19:34.000Z</time>
</trkpt>
<trkpt lat="45.8530170" lon="9.2026240">
	<ele>943.60</ele>
	<time>2025-02-15T12:19:35.000Z</time>
</trkpt>
<trkpt lat="45.8530040" lon="9.2026340">
	<ele>943.60</ele>
	<time>2025-02-15T12:19:36.000Z</time>
</trkpt>
<trkpt lat="45.8529890" lon="9.2026390">
	<ele>943.40</ele>
	<time>2025-02-15T12:19:37.000Z</time>
</trkpt>
<trkpt lat="45.8529890" lon="9.2026500">
	<ele>943.20</ele>
	<time>2025-02-15T12:19:38.000Z</time>
</trkpt>
<trkpt lat="45.8529810" lon="9.2026460">
	<ele>943.20</ele>
	<time>2025-02-15T12:19:39.000Z</time>
</trkpt>
<trkpt lat="45.8529670" lon="9.2026400">
	<ele>943.00</ele>
	<time>2025-02-15T12:19:40.000Z</time>
</trkpt>
<trkpt lat="45.8529480" lon="9.2026430">
	<ele>942.80</ele>
	<time>2025-02-15T12:19:41.000Z</time>
</trkpt>
<trkpt lat="45.8529430" lon="9.2026640">
	<ele>942.40</ele>
	<time>2025-02-15T12:19:42.000Z</time>
</trkpt>
<trkpt lat="45.8529360" lon="9.2026760">
	<ele>942.40</ele>
	<time>2025-02-15T12:19:43.000Z</time>
</trkpt>
<trkpt lat="45.8529300" lon="9.2026800">
	<ele>942.20</ele>
	<time>2025-02-15T12:19:44.000Z</time>
</trkpt>
<trkpt lat="45.8529280" lon="9.2026940">
	<ele>942.20</ele>
	<time>2025-02-15T12:19:45.000Z</time>
</trkpt>
<trkpt lat="45.8529240" lon="9.2027060">
	<ele>942.00</ele>
	<time>2025-02-15T12:19:46.000Z</time>
</trkpt>
<trkpt lat="45.8529220" lon="9.2027150">
	<ele>942.00</ele>
	<time>2025-02-15T12:19:47.000Z</time>
</trkpt>
<trkpt lat="45.8529160" lon="9.2027290">
	<ele>941.80</ele>
	<time>2025-02-15T12:19:48.000Z</time>
</trkpt>
<trkpt lat="45.8529150" lon="9.2027470">
	<ele>941.40</ele>
	<time>2025-02-15T12:19:49.000Z</time>
</trkpt>
<trkpt lat="45.8529110" lon="9.2027590">
	<ele>941.40</ele>
	<time>2025-02-15T12:19:50.000Z</time>
</trkpt>
<trkpt lat="45.8529110" lon="9.2027710">
	<ele>941.20</ele>
	<time>2025-02-15T12:19:51.000Z</time>
</trkpt>
<trkpt lat="45.8529080" lon="9.2027780">
	<ele>941.00</ele>
	<time>2025-02-15T12:19:52.000Z</time>
</trkpt>
<trkpt lat="45.8529050" lon="9.2027900">
	<ele>941.00</ele>
	<time>2025-02-15T12:19:53.000Z</time>
</trkpt>
<trkpt lat="45.8529000" lon="9.2028000">
	<ele>941.00</ele>
	<time>2025-02-15T12:19:54.000Z</time>
</trkpt>
<trkpt lat="45.8528850" lon="9.2028090">
	<ele>941.00</ele>
	<time>2025-02-15T12:19:55.000Z</time>
</trkpt>
<trkpt lat="45.8528760" lon="9.2028200">
	<ele>940.60</ele>
	<time>2025-02-15T12:19:56.000Z</time>
</trkpt>
<trkpt lat="45.8528690" lon="9.2028340">
	<ele>940.40</ele>
	<time>2025-02-15T12:19:57.000Z</time>
</trkpt>
<trkpt lat="45.8528600" lon="9.2028410">
	<ele>940.20</ele>
	<time>2025-02-15T12:19:58.000Z</time>
</trkpt>
<trkpt lat="45.8528540" lon="9.2028470">
	<ele>940.00</ele>
	<time>2025-02-15T12:19:59.000Z</time>
</trkpt>
<trkpt lat="45.8528450" lon="9.2028520">
	<ele>939.80</ele>
	<time>2025-02-15T12:20:00.000Z</time>
</trkpt>
<trkpt lat="45.8528420" lon="9.2028590">
	<ele>939.60</ele>
	<time>2025-02-15T12:20:01.000Z</time>
</trkpt>
<trkpt lat="45.8528430" lon="9.2028670">
	<ele>939.60</ele>
	<time>2025-02-15T12:20:02.000Z</time>
</trkpt>
<trkpt lat="45.8528470" lon="9.2028870">
	<ele>939.20</ele>
	<time>2025-02-15T12:20:03.000Z</time>
</trkpt>
<trkpt lat="45.8528430" lon="9.2029020">
	<ele>939.00</ele>
	<time>2025-02-15T12:20:04.000Z</time>
</trkpt>
<trkpt lat="45.8528380" lon="9.2029070">
	<ele>938.80</ele>
	<time>2025-02-15T12:20:05.000Z</time>
</trkpt>
<trkpt lat="45.8528250" lon="9.2029050">
	<ele>938.80</ele>
	<time>2025-02-15T12:20:06.000Z</time>
</trkpt>
<trkpt lat="45.8528140" lon="9.2029010">
	<ele>938.60</ele>
	<time>2025-02-15T12:20:07.000Z</time>
</trkpt>
<trkpt lat="45.8528090" lon="9.2029020">
	<ele>938.40</ele>
	<time>2025-02-15T12:20:08.000Z</time>
</trkpt>
<trkpt lat="45.8527870" lon="9.2029030">
	<ele>938.20</ele>
	<time>2025-02-15T12:20:09.000Z</time>
</trkpt>
<trkpt lat="45.8527600" lon="9.2029080">
	<ele>938.00</ele>
	<time>2025-02-15T12:20:10.000Z</time>
</trkpt>
<trkpt lat="45.8527510" lon="9.2029180">
	<ele>937.80</ele>
	<time>2025-02-15T12:20:11.000Z</time>
</trkpt>
<trkpt lat="45.8527540" lon="9.2029440">
	<ele>937.40</ele>
	<time>2025-02-15T12:20:12.000Z</time>
</trkpt>
<trkpt lat="45.8527450" lon="9.2029580">
	<ele>937.20</ele>
	<time>2025-02-15T12:20:13.000Z</time>
</trkpt>
<trkpt lat="45.8527430" lon="9.2029640">
	<ele>937.00</ele>
	<time>2025-02-15T12:20:14.000Z</time>
</trkpt>
<trkpt lat="45.8527410" lon="9.2029860">
	<ele>937.00</ele>
	<time>2025-02-15T12:20:15.000Z</time>
</trkpt>
<trkpt lat="45.8527330" lon="9.2029940">
	<ele>936.80</ele>
	<time>2025-02-15T12:20:16.000Z</time>
</trkpt>
<trkpt lat="45.8527300" lon="9.2030060">
	<ele>936.60</ele>
	<time>2025-02-15T12:20:17.000Z</time>
</trkpt>
<trkpt lat="45.8527270" lon="9.2030180">
	<ele>936.40</ele>
	<time>2025-02-15T12:20:18.000Z</time>
</trkpt>
<trkpt lat="45.8527190" lon="9.2030300">
	<ele>936.20</ele>
	<time>2025-02-15T12:20:19.000Z</time>
</trkpt>
<trkpt lat="45.8527090" lon="9.2030410">
	<ele>936.00</ele>
	<time>2025-02-15T12:20:20.000Z</time>
</trkpt>
<trkpt lat="45.8527040" lon="9.2030570">
	<ele>935.80</ele>
	<time>2025-02-15T12:20:21.000Z</time>
</trkpt>
<trkpt lat="45.8526980" lon="9.2030710">
	<ele>935.60</ele>
	<time>2025-02-15T12:20:22.000Z</time>
</trkpt>
<trkpt lat="45.8526890" lon="9.2030790">
	<ele>935.40</ele>
	<time>2025-02-15T12:20:23.000Z</time>
</trkpt>
<trkpt lat="45.8526740" lon="9.2030920">
	<ele>935.20</ele>
	<time>2025-02-15T12:20:24.000Z</time>
</trkpt>
<trkpt lat="45.8526660" lon="9.2031010">
	<ele>935.20</ele>
	<time>2025-02-15T12:20:25.000Z</time>
</trkpt>
<trkpt lat="45.8526650" lon="9.2031180">
	<ele>935.00</ele>
	<time>2025-02-15T12:20:26.000Z</time>
</trkpt>
<trkpt lat="45.8526620" lon="9.2031270">
	<ele>935.00</ele>
	<time>2025-02-15T12:20:27.000Z</time>
</trkpt>
<trkpt lat="45.8526570" lon="9.2031370">
	<ele>935.00</ele>
	<time>2025-02-15T12:20:28.000Z</time>
</trkpt>
<trkpt lat="45.8526590" lon="9.2031480">
	<ele>934.80</ele>
	<time>2025-02-15T12:20:29.000Z</time>
</trkpt>
<trkpt lat="45.8526520" lon="9.2031600">
	<ele>934.80</ele>
	<time>2025-02-15T12:20:30.000Z</time>
</trkpt>
<trkpt lat="45.8526450" lon="9.2031740">
	<ele>934.80</ele>
	<time>2025-02-15T12:20:31.000Z</time>
</trkpt>
<trkpt lat="45.8526340" lon="9.2032070">
	<ele>934.60</ele>
	<time>2025-02-15T12:20:32.000Z</time>
</trkpt>
<trkpt lat="45.8526190" lon="9.2032280">
	<ele>934.40</ele>
	<time>2025-02-15T12:20:33.000Z</time>
</trkpt>
<trkpt lat="45.8526150" lon="9.2032340">
	<ele>934.20</ele>
	<time>2025-02-15T12:20:34.000Z</time>
</trkpt>
<trkpt lat="45.8526110" lon="9.2032330">
	<ele>934.00</ele>
	<time>2025-02-15T12:20:35.000Z</time>
</trkpt>
<trkpt lat="45.8526080" lon="9.2032280">
	<ele>933.60</ele>
	<time>2025-02-15T12:20:36.000Z</time>
</trkpt>
<trkpt lat="45.8526030" lon="9.2032270">
	<ele>933.40</ele>
	<time>2025-02-15T12:20:37.000Z</time>
</trkpt>
<trkpt lat="45.8525990" lon="9.2032210">
	<ele>933.00</ele>
	<time>2025-02-15T12:20:38.000Z</time>
</trkpt>
<trkpt lat="45.8525900" lon="9.2032160">
	<ele>932.80</ele>
	<time>2025-02-15T12:20:39.000Z</time>
</trkpt>
<trkpt lat="45.8525780" lon="9.2032200">
	<ele>932.60</ele>
	<time>2025-02-15T12:20:40.000Z</time>
</trkpt>
<trkpt lat="45.8525730" lon="9.2032190">
	<ele>932.40</ele>
	<time>2025-02-15T12:20:41.000Z</time>
</trkpt>
<trkpt lat="45.8525700" lon="9.2032160">
	<ele>932.40</ele>
	<time>2025-02-15T12:20:42.000Z</time>
</trkpt>
<trkpt lat="45.8525690" lon="9.2032150">
	<ele>932.00</ele>
	<time>2025-02-15T12:20:43.000Z</time>
</trkpt>
<trkpt lat="45.8525670" lon="9.2032140">
	<ele>931.40</ele>
	<time>2025-02-15T12:20:44.000Z</time>
</trkpt>
<trkpt lat="45.8525650" lon="9.2032150">
	<ele>931.00</ele>
	<time>2025-02-15T12:20:45.000Z</time>
</trkpt>
<trkpt lat="45.8525650" lon="9.2032240">
	<ele>930.60</ele>
	<time>2025-02-15T12:20:46.000Z</time>
</trkpt>
<trkpt lat="45.8525620" lon="9.2032380">
	<ele>930.40</ele>
	<time>2025-02-15T12:20:47.000Z</time>
</trkpt>
<trkpt lat="45.8525640" lon="9.2032510">
	<ele>930.20</ele>
	<time>2025-02-15T12:20:48.000Z</time>
</trkpt>
<trkpt lat="45.8525670" lon="9.2032630">
	<ele>930.20</ele>
	<time>2025-02-15T12:20:49.000Z</time>
</trkpt>
<trkpt lat="45.8525690" lon="9.2032720">
	<ele>930.20</ele>
	<time>2025-02-15T12:20:50.000Z</time>
</trkpt>
<trkpt lat="45.8525690" lon="9.2032790">
	<ele>930.20</ele>
	<time>2025-02-15T12:20:51.000Z</time>
</trkpt>
<trkpt lat="45.8525700" lon="9.2032810">
	<ele>930.00</ele>
	<time>2025-02-15T12:20:52.000Z</time>
</trkpt>
<trkpt lat="45.8525700" lon="9.2032850">
	<ele>930.00</ele>
	<time>2025-02-15T12:20:53.000Z</time>
</trkpt>
<trkpt lat="45.8525690" lon="9.2032900">
	<ele>929.40</ele>
	<time>2025-02-15T12:20:54.000Z</time>
</trkpt>
<trkpt lat="45.8525670" lon="9.2032990">
	<ele>929.20</ele>
	<time>2025-02-15T12:20:55.000Z</time>
</trkpt>
<trkpt lat="45.8525620" lon="9.2033040">
	<ele>929.00</ele>
	<time>2025-02-15T12:20:56.000Z</time>
</trkpt>
<trkpt lat="45.8525640" lon="9.2033160">
	<ele>928.80</ele>
	<time>2025-02-15T12:20:57.000Z</time>
</trkpt>
<trkpt lat="45.8525620" lon="9.2033310">
	<ele>928.60</ele>
	<time>2025-02-15T12:20:58.000Z</time>
</trkpt>
<trkpt lat="45.8525580" lon="9.2033560">
	<ele>928.40</ele>
	<time>2025-02-15T12:20:59.000Z</time>
</trkpt>
<trkpt lat="45.8525550" lon="9.2033740">
	<ele>928.20</ele>
	<time>2025-02-15T12:21:00.000Z</time>
</trkpt>
<trkpt lat="45.8525540" lon="9.2033840">
	<ele>928.00</ele>
	<time>2025-02-15T12:21:01.000Z</time>
</trkpt>
<trkpt lat="45.8525570" lon="9.2033970">
	<ele>927.60</ele>
	<time>2025-02-15T12:21:02.000Z</time>
</trkpt>
<trkpt lat="45.8525610" lon="9.2034100">
	<ele>927.40</ele>
	<time>2025-02-15T12:21:03.000Z</time>
</trkpt>
<trkpt lat="45.8525630" lon="9.2034250">
	<ele>927.40</ele>
	<time>2025-02-15T12:21:04.000Z</time>
</trkpt>
<trkpt lat="45.8525580" lon="9.2034390">
	<ele>926.80</ele>
	<time>2025-02-15T12:21:05.000Z</time>
</trkpt>
<trkpt lat="45.8525510" lon="9.2034470">
	<ele>926.60</ele>
	<time>2025-02-15T12:21:06.000Z</time>
</trkpt>
<trkpt lat="45.8525530" lon="9.2034570">
	<ele>926.40</ele>
	<time>2025-02-15T12:21:07.000Z</time>
</trkpt>
<trkpt lat="45.8525560" lon="9.2034630">
	<ele>926.20</ele>
	<time>2025-02-15T12:21:08.000Z</time>
</trkpt>
<trkpt lat="45.8525560" lon="9.2034710">
	<ele>926.00</ele>
	<time>2025-02-15T12:21:09.000Z</time>
</trkpt>
<trkpt lat="45.8525550" lon="9.2034780">
	<ele>926.00</ele>
	<time>2025-02-15T12:21:10.000Z</time>
</trkpt>
<trkpt lat="45.8525530" lon="9.2034870">
	<ele>925.60</ele>
	<time>2025-02-15T12:21:11.000Z</time>
</trkpt>
<trkpt lat="45.8525550" lon="9.2034940">
	<ele>925.60</ele>
	<time>2025-02-15T12:21:12.000Z</time>
</trkpt>
<trkpt lat="45.8525530" lon="9.2035110">
	<ele>925.40</ele>
	<time>2025-02-15T12:21:13.000Z</time>
</trkpt>
<trkpt lat="45.8525530" lon="9.2035270">
	<ele>925.20</ele>
	<time>2025-02-15T12:21:14.000Z</time>
</trkpt>
<trkpt lat="45.8525510" lon="9.2035410">
	<ele>925.00</ele>
	<time>2025-02-15T12:21:15.000Z</time>
</trkpt>
<trkpt lat="45.8525440" lon="9.2035480">
	<ele>924.80</ele>
	<time>2025-02-15T12:21:16.000Z</time>
</trkpt>
<trkpt lat="45.8525400" lon="9.2035540">
	<ele>924.60</ele>
	<time>2025-02-15T12:21:17.000Z</time>
</trkpt>
<trkpt lat="45.8525390" lon="9.2035610">
	<ele>924.40</ele>
	<time>2025-02-15T12:21:18.000Z</time>
</trkpt>
<trkpt lat="45.8525420" lon="9.2035660">
	<ele>924.00</ele>
	<time>2025-02-15T12:21:19.000Z</time>
</trkpt>
<trkpt lat="45.8525330" lon="9.2035690">
	<ele>923.80</ele>
	<time>2025-02-15T12:21:20.000Z</time>
</trkpt>
<trkpt lat="45.8525220" lon="9.2035680">
	<ele>923.60</ele>
	<time>2025-02-15T12:21:21.000Z</time>
</trkpt>
<trkpt lat="45.8525140" lon="9.2035720">
	<ele>923.40</ele>
	<time>2025-02-15T12:21:22.000Z</time>
</trkpt>
<trkpt lat="45.8525020" lon="9.2035820">
	<ele>923.20</ele>
	<time>2025-02-15T12:21:23.000Z</time>
</trkpt>
<trkpt lat="45.8524950" lon="9.2035920">
	<ele>923.00</ele>
	<time>2025-02-15T12:21:24.000Z</time>
</trkpt>
<trkpt lat="45.8524980" lon="9.2036120">
	<ele>922.80</ele>
	<time>2025-02-15T12:21:25.000Z</time>
</trkpt>
<trkpt lat="45.8525010" lon="9.2036230">
	<ele>922.80</ele>
	<time>2025-02-15T12:21:26.000Z</time>
</trkpt>
<trkpt lat="45.8525030" lon="9.2036290">
	<ele>922.60</ele>
	<time>2025-02-15T12:21:27.000Z</time>
</trkpt>
<trkpt lat="45.8525050" lon="9.2036460">
	<ele>922.60</ele>
	<time>2025-02-15T12:21:28.000Z</time>
</trkpt>
<trkpt lat="45.8525050" lon="9.2036520">
	<ele>922.20</ele>
	<time>2025-02-15T12:21:29.000Z</time>
</trkpt>
<trkpt lat="45.8525140" lon="9.2036610">
	<ele>921.60</ele>
	<time>2025-02-15T12:21:30.000Z</time>
</trkpt>
<trkpt lat="45.8525110" lon="9.2036650">
	<ele>921.40</ele>
	<time>2025-02-15T12:21:31.000Z</time>
</trkpt>
<trkpt lat="45.8525100" lon="9.2036840">
	<ele>921.00</ele>
	<time>2025-02-15T12:21:32.000Z</time>
</trkpt>
<trkpt lat="45.8525130" lon="9.2036960">
	<ele>920.80</ele>
	<time>2025-02-15T12:21:33.000Z</time>
</trkpt>
<trkpt lat="45.8525130" lon="9.2037070">
	<ele>920.80</ele>
	<time>2025-02-15T12:21:34.000Z</time>
</trkpt>
<trkpt lat="45.8525100" lon="9.2037210">
	<ele>920.80</ele>
	<time>2025-02-15T12:21:35.000Z</time>
</trkpt>
<trkpt lat="45.8525110" lon="9.2037340">
	<ele>920.60</ele>
	<time>2025-02-15T12:21:36.000Z</time>
</trkpt>
<trkpt lat="45.8525070" lon="9.2037440">
	<ele>920.40</ele>
	<time>2025-02-15T12:21:37.000Z</time>
</trkpt>
<trkpt lat="45.8525050" lon="9.2037550">
	<ele>920.40</ele>
	<time>2025-02-15T12:21:38.000Z</time>
</trkpt>
<trkpt lat="45.8525030" lon="9.2037650">
	<ele>920.20</ele>
	<time>2025-02-15T12:21:39.000Z</time>
</trkpt>
<trkpt lat="45.8525000" lon="9.2037620">
	<ele>920.00</ele>
	<time>2025-02-15T12:21:40.000Z</time>
</trkpt>
<trkpt lat="45.8524980" lon="9.2037690">
	<ele>920.00</ele>
	<time>2025-02-15T12:21:41.000Z</time>
</trkpt>
<trkpt lat="45.8524950" lon="9.2037730">
	<ele>919.80</ele>
	<time>2025-02-15T12:21:42.000Z</time>
</trkpt>
<trkpt lat="45.8524910" lon="9.2037810">
	<ele>919.40</ele>
	<time>2025-02-15T12:21:43.000Z</time>
</trkpt>
<trkpt lat="45.8524880" lon="9.2037900">
	<ele>919.20</ele>
	<time>2025-02-15T12:21:44.000Z</time>
</trkpt>
<trkpt lat="45.8524840" lon="9.2038020">
	<ele>918.60</ele>
	<time>2025-02-15T12:21:45.000Z</time>
</trkpt>
<trkpt lat="45.8524860" lon="9.2038190">
	<ele>918.40</ele>
	<time>2025-02-15T12:21:46.000Z</time>
</trkpt>
<trkpt lat="45.8524900" lon="9.2038330">
	<ele>918.40</ele>
	<time>2025-02-15T12:21:47.000Z</time>
</trkpt>
<trkpt lat="45.8524970" lon="9.2038440">
	<ele>918.40</ele>
	<time>2025-02-15T12:21:48.000Z</time>
</trkpt>
<trkpt lat="45.8524990" lon="9.2038530">
	<ele>918.20</ele>
	<time>2025-02-15T12:21:49.000Z</time>
</trkpt>
<trkpt lat="45.8524980" lon="9.2038650">
	<ele>918.00</ele>
	<time>2025-02-15T12:21:50.000Z</time>
</trkpt>
<trkpt lat="45.8524920" lon="9.2038720">
	<ele>917.80</ele>
	<time>2025-02-15T12:21:51.000Z</time>
</trkpt>
<trkpt lat="45.8524700" lon="9.2038780">
	<ele>917.60</ele>
	<time>2025-02-15T12:21:52.000Z</time>
</trkpt>
<trkpt lat="45.8524590" lon="9.2038900">
	<ele>917.40</ele>
	<time>2025-02-15T12:21:53.000Z</time>
</trkpt>
<trkpt lat="45.8524640" lon="9.2039190">
	<ele>917.20</ele>
	<time>2025-02-15T12:21:54.000Z</time>
</trkpt>
<trkpt lat="45.8524620" lon="9.2039380">
	<ele>917.00</ele>
	<time>2025-02-15T12:21:55.000Z</time>
</trkpt>
<trkpt lat="45.8524660" lon="9.2039620">
	<ele>917.00</ele>
	<time>2025-02-15T12:21:56.000Z</time>
</trkpt>
<trkpt lat="45.8524660" lon="9.2039680">
	<ele>917.00</ele>
	<time>2025-02-15T12:21:57.000Z</time>
</trkpt>
<trkpt lat="45.8524700" lon="9.2039800">
	<ele>916.80</ele>
	<time>2025-02-15T12:21:58.000Z</time>
</trkpt>
<trkpt lat="45.8524710" lon="9.2039860">
	<ele>916.80</ele>
	<time>2025-02-15T12:21:59.000Z</time>
</trkpt>
<trkpt lat="45.8524700" lon="9.2039890">
	<ele>916.60</ele>
	<time>2025-02-15T12:22:00.000Z</time>
</trkpt>
<trkpt lat="45.8524680" lon="9.2039890">
	<ele>916.40</ele>
	<time>2025-02-15T12:22:01.000Z</time>
</trkpt>
<trkpt lat="45.8524740" lon="9.2040000">
	<ele>916.40</ele>
	<time>2025-02-15T12:22:02.000Z</time>
</trkpt>
<trkpt lat="45.8524720" lon="9.2040140">
	<ele>916.00</ele>
	<time>2025-02-15T12:22:03.000Z</time>
</trkpt>
<trkpt lat="45.8524710" lon="9.2040250">
	<ele>915.80</ele>
	<time>2025-02-15T12:22:04.000Z</time>
</trkpt>
<trkpt lat="45.8524690" lon="9.2040340">
	<ele>915.60</ele>
	<time>2025-02-15T12:22:05.000Z</time>
</trkpt>
<trkpt lat="45.8524650" lon="9.2040400">
	<ele>915.40</ele>
	<time>2025-02-15T12:22:06.000Z</time>
</trkpt>
<trkpt lat="45.8524610" lon="9.2040420">
	<ele>915.40</ele>
	<time>2025-02-15T12:22:07.000Z</time>
</trkpt>
<trkpt lat="45.8524620" lon="9.2040500">
	<ele>914.80</ele>
	<time>2025-02-15T12:22:08.000Z</time>
</trkpt>
<trkpt lat="45.8524600" lon="9.2040530">
	<ele>914.60</ele>
	<time>2025-02-15T12:22:09.000Z</time>
</trkpt>
<trkpt lat="45.8524460" lon="9.2040490">
	<ele>914.60</ele>
	<time>2025-02-15T12:22:10.000Z</time>
</trkpt>
<trkpt lat="45.8524380" lon="9.2040570">
	<ele>914.20</ele>
	<time>2025-02-15T12:22:11.000Z</time>
</trkpt>
<trkpt lat="45.8524310" lon="9.2040570">
	<ele>914.20</ele>
	<time>2025-02-15T12:22:12.000Z</time>
</trkpt>
<trkpt lat="45.8524310" lon="9.2040550">
	<ele>914.00</ele>
	<time>2025-02-15T12:22:13.000Z</time>
</trkpt>
<trkpt lat="45.8524290" lon="9.2040480">
	<ele>913.80</ele>
	<time>2025-02-15T12:22:14.000Z</time>
</trkpt>
<trkpt lat="45.8524220" lon="9.2040500">
	<ele>913.40</ele>
	<time>2025-02-15T12:22:15.000Z</time>
</trkpt>
<trkpt lat="45.8524200" lon="9.2040530">
	<ele>913.40</ele>
	<time>2025-02-15T12:22:16.000Z</time>
</trkpt>
<trkpt lat="45.8524200" lon="9.2040530">
	<ele>913.20</ele>
	<time>2025-02-15T12:22:17.000Z</time>
</trkpt>
<trkpt lat="45.8524180" lon="9.2040550">
	<ele>913.20</ele>
	<time>2025-02-15T12:22:18.000Z</time>
</trkpt>
<trkpt lat="45.8524150" lon="9.2040670">
	<ele>912.80</ele>
	<time>2025-02-15T12:22:19.000Z</time>
</trkpt>
<trkpt lat="45.8524140" lon="9.2040700">
	<ele>912.20</ele>
	<time>2025-02-15T12:22:20.000Z</time>
</trkpt>
<trkpt lat="45.8524090" lon="9.2040760">
	<ele>912.00</ele>
	<time>2025-02-15T12:22:21.000Z</time>
</trkpt>
<trkpt lat="45.8524060" lon="9.2040790">
	<ele>911.80</ele>
	<time>2025-02-15T12:22:22.000Z</time>
</trkpt>
<trkpt lat="45.8524030" lon="9.2040790">
	<ele>911.60</ele>
	<time>2025-02-15T12:22:23.000Z</time>
</trkpt>
<trkpt lat="45.8524010" lon="9.2040780">
	<ele>911.40</ele>
	<time>2025-02-15T12:22:24.000Z</time>
</trkpt>
<trkpt lat="45.8523970" lon="9.2040760">
	<ele>911.20</ele>
	<time>2025-02-15T12:22:25.000Z</time>
</trkpt>
<trkpt lat="45.8523930" lon="9.2040770">
	<ele>911.00</ele>
	<time>2025-02-15T12:22:26.000Z</time>
</trkpt>
<trkpt lat="45.8523900" lon="9.2040820">
	<ele>910.60</ele>
	<time>2025-02-15T12:22:27.000Z</time>
</trkpt>
<trkpt lat="45.8523870" lon="9.2040910">
	<ele>910.20</ele>
	<time>2025-02-15T12:22:28.000Z</time>
</trkpt>
<trkpt lat="45.8523920" lon="9.2041060">
	<ele>910.00</ele>
	<time>2025-02-15T12:22:29.000Z</time>
</trkpt>
<trkpt lat="45.8523940" lon="9.2041120">
	<ele>909.80</ele>
	<time>2025-02-15T12:22:30.000Z</time>
</trkpt>
<trkpt lat="45.8524050" lon="9.2041300">
	<ele>909.60</ele>
	<time>2025-02-15T12:22:31.000Z</time>
</trkpt>
<trkpt lat="45.8524130" lon="9.2041400">
	<ele>909.40</ele>
	<time>2025-02-15T12:22:32.000Z</time>
</trkpt>
<trkpt lat="45.8524160" lon="9.2041480">
	<ele>909.40</ele>
	<time>2025-02-15T12:22:33.000Z</time>
</trkpt>
<trkpt lat="45.8524160" lon="9.2041530">
	<ele>909.20</ele>
	<time>2025-02-15T12:22:34.000Z</time>
</trkpt>
<trkpt lat="45.8524070" lon="9.2041620">
	<ele>909.00</ele>
	<time>2025-02-15T12:22:35.000Z</time>
</trkpt>
<trkpt lat="45.8524060" lon="9.2041820">
	<ele>909.00</ele>
	<time>2025-02-15T12:22:36.000Z</time>
</trkpt>
<trkpt lat="45.8524070" lon="9.2041870">
	<ele>908.60</ele>
	<time>2025-02-15T12:22:37.000Z</time>
</trkpt>
<trkpt lat="45.8524070" lon="9.2041920">
	<ele>908.40</ele>
	<time>2025-02-15T12:22:38.000Z</time>
</trkpt>
<trkpt lat="45.8523910" lon="9.2041990">
	<ele>908.40</ele>
	<time>2025-02-15T12:22:39.000Z</time>
</trkpt>
<trkpt lat="45.8523820" lon="9.2042080">
	<ele>908.20</ele>
	<time>2025-02-15T12:22:40.000Z</time>
</trkpt>
<trkpt lat="45.8523740" lon="9.2042170">
	<ele>908.20</ele>
	<time>2025-02-15T12:22:41.000Z</time>
</trkpt>
<trkpt lat="45.8523700" lon="9.2042310">
	<ele>908.00</ele>
	<time>2025-02-15T12:22:42.000Z</time>
</trkpt>
<trkpt lat="45.8523580" lon="9.2042340">
	<ele>908.00</ele>
	<time>2025-02-15T12:22:43.000Z</time>
</trkpt>
<trkpt lat="45.8523580" lon="9.2042380">
	<ele>907.80</ele>
	<time>2025-02-15T12:22:44.000Z</time>
</trkpt>
<trkpt lat="45.8523580" lon="9.2042400">
	<ele>907.60</ele>
	<time>2025-02-15T12:22:45.000Z</time>
</trkpt>
<trkpt lat="45.8523610" lon="9.2042430">
	<ele>907.20</ele>
	<time>2025-02-15T12:22:46.000Z</time>
</trkpt>
<trkpt lat="45.8523650" lon="9.2042430">
	<ele>906.40</ele>
	<time>2025-02-15T12:22:47.000Z</time>
</trkpt>
<trkpt lat="45.8523660" lon="9.2042460">
	<ele>906.00</ele>
	<time>2025-02-15T12:22:48.000Z</time>
</trkpt>
<trkpt lat="45.8523670" lon="9.2042500">
	<ele>905.40</ele>
	<time>2025-02-15T12:22:49.000Z</time>
</trkpt>
<trkpt lat="45.8523700" lon="9.2042510">
	<ele>905.60</ele>
	<time>2025-02-15T12:22:50.000Z</time>
</trkpt>
<trkpt lat="45.8523730" lon="9.2042530">
	<ele>905.60</ele>
	<time>2025-02-15T12:22:51.000Z</time>
</trkpt>
<trkpt lat="45.8523760" lon="9.2042560">
	<ele>905.40</ele>
	<time>2025-02-15T12:22:52.000Z</time>
</trkpt>
<trkpt lat="45.8523830" lon="9.2042440">
	<ele>905.20</ele>
	<time>2025-02-15T12:22:53.000Z</time>
</trkpt>
<trkpt lat="45.8523910" lon="9.2042340">
	<ele>905.00</ele>
	<time>2025-02-15T12:22:54.000Z</time>
</trkpt>
<trkpt lat="45.8523810" lon="9.2042290">
	<ele>905.00</ele>
	<time>2025-02-15T12:22:55.000Z</time>
</trkpt>
<trkpt lat="45.8523810" lon="9.2042310">
	<ele>904.80</ele>
	<time>2025-02-15T12:22:56.000Z</time>
</trkpt>
<trkpt lat="45.8523800" lon="9.2042310">
	<ele>904.80</ele>
	<time>2025-02-15T12:22:57.000Z</time>
</trkpt>
<trkpt lat="45.8523660" lon="9.2042260">
	<ele>904.60</ele>
	<time>2025-02-15T12:22:58.000Z</time>
</trkpt>
<trkpt lat="45.8523640" lon="9.2042280">
	<ele>904.40</ele>
	<time>2025-02-15T12:22:59.000Z</time>
</trkpt>
<trkpt lat="45.8523540" lon="9.2042230">
	<ele>904.20</ele>
	<time>2025-02-15T12:23:00.000Z</time>
</trkpt>
<trkpt lat="45.8523450" lon="9.2042150">
	<ele>903.80</ele>
	<time>2025-02-15T12:23:01.000Z</time>
</trkpt>
<trkpt lat="45.8523340" lon="9.2042080">
	<ele>903.60</ele>
	<time>2025-02-15T12:23:02.000Z</time>
</trkpt>
<trkpt lat="45.8523290" lon="9.2042100">
	<ele>903.60</ele>
	<time>2025-02-15T12:23:03.000Z</time>
</trkpt>
<trkpt lat="45.8523200" lon="9.2042090">
	<ele>903.20</ele>
	<time>2025-02-15T12:23:04.000Z</time>
</trkpt>
<trkpt lat="45.8523120" lon="9.2042080">
	<ele>903.00</ele>
	<time>2025-02-15T12:23:05.000Z</time>
</trkpt>
<trkpt lat="45.8523020" lon="9.2042040">
	<ele>903.00</ele>
	<time>2025-02-15T12:23:06.000Z</time>
</trkpt>
<trkpt lat="45.8522910" lon="9.2042020">
	<ele>902.80</ele>
	<time>2025-02-15T12:23:07.000Z</time>
</trkpt>
<trkpt lat="45.8522830" lon="9.2042010">
	<ele>902.80</ele>
	<time>2025-02-15T12:23:08.000Z</time>
</trkpt>
<trkpt lat="45.8522790" lon="9.2042010">
	<ele>902.60</ele>
	<time>2025-02-15T12:23:09.000Z</time>
</trkpt>
<trkpt lat="45.8522720" lon="9.2042030">
	<ele>902.40</ele>
	<time>2025-02-15T12:23:10.000Z</time>
</trkpt>
<trkpt lat="45.8522640" lon="9.2042050">
	<ele>902.00</ele>
	<time>2025-02-15T12:23:11.000Z</time>
</trkpt>
<trkpt lat="45.8522600" lon="9.2042040">
	<ele>901.60</ele>
	<time>2025-02-15T12:23:12.000Z</time>
</trkpt>
<trkpt lat="45.8522590" lon="9.2042060">
	<ele>901.40</ele>
	<time>2025-02-15T12:23:13.000Z</time>
</trkpt>
<trkpt lat="45.8522570" lon="9.2042070">
	<ele>901.20</ele>
	<time>2025-02-15T12:23:14.000Z</time>
</trkpt>
<trkpt lat="45.8522570" lon="9.2042080">
	<ele>901.00</ele>
	<time>2025-02-15T12:23:15.000Z</time>
</trkpt>
<trkpt lat="45.8522570" lon="9.2042100">
	<ele>900.80</ele>
	<time>2025-02-15T12:23:16.000Z</time>
</trkpt>
<trkpt lat="45.8522550" lon="9.2042160">
	<ele>900.40</ele>
	<time>2025-02-15T12:23:17.000Z</time>
</trkpt>
<trkpt lat="45.8522540" lon="9.2042110">
	<ele>900.40</ele>
	<time>2025-02-15T12:23:18.000Z</time>
</trkpt>
<trkpt lat="45.8522510" lon="9.2042110">
	<ele>900.20</ele>
	<time>2025-02-15T12:23:19.000Z</time>
</trkpt>
<trkpt lat="45.8522490" lon="9.2042140">
	<ele>900.00</ele>
	<time>2025-02-15T12:23:20.000Z</time>
</trkpt>
<trkpt lat="45.8522430" lon="9.2042150">
	<ele>899.80</ele>
	<time>2025-02-15T12:23:21.000Z</time>
</trkpt>
<trkpt lat="45.8522360" lon="9.2042150">
	<ele>899.80</ele>
	<time>2025-02-15T12:23:22.000Z</time>
</trkpt>
<trkpt lat="45.8522310" lon="9.2042190">
	<ele>899.60</ele>
	<time>2025-02-15T12:23:23.000Z</time>
</trkpt>
<trkpt lat="45.8522250" lon="9.2042220">
	<ele>899.60</ele>
	<time>2025-02-15T12:23:24.000Z</time>
</trkpt>
<trkpt lat="45.8522240" lon="9.2042250">
	<ele>899.40</ele>
	<time>2025-02-15T12:23:25.000Z</time>
</trkpt>
<trkpt lat="45.8522240" lon="9.2042270">
	<ele>899.00</ele>
	<time>2025-02-15T12:23:26.000Z</time>
</trkpt>
<trkpt lat="45.8522240" lon="9.2042310">
	<ele>898.80</ele>
	<time>2025-02-15T12:23:27.000Z</time>
</trkpt>
<trkpt lat="45.8522250" lon="9.2042350">
	<ele>898.40</ele>
	<time>2025-02-15T12:23:28.000Z</time>
</trkpt>
<trkpt lat="45.8522280" lon="9.2042400">
	<ele>898.20</ele>
	<time>2025-02-15T12:23:29.000Z</time>
</trkpt>
<trkpt lat="45.8522220" lon="9.2042460">
	<ele>898.00</ele>
	<time>2025-02-15T12:23:30.000Z</time>
</trkpt>
<trkpt lat="45.8522120" lon="9.2042550">
	<ele>897.80</ele>
	<time>2025-02-15T12:23:31.000Z</time>
</trkpt>
<trkpt lat="45.8522070" lon="9.2042590">
	<ele>897.60</ele>
	<time>2025-02-15T12:23:32.000Z</time>
</trkpt>
<trkpt lat="45.8522050" lon="9.2042670">
	<ele>897.20</ele>
	<time>2025-02-15T12:23:33.000Z</time>
</trkpt>
<trkpt lat="45.8522030" lon="9.2042690">
	<ele>897.00</ele>
	<time>2025-02-15T12:23:34.000Z</time>
</trkpt>
<trkpt lat="45.8521930" lon="9.2042730">
	<ele>896.80</ele>
	<time>2025-02-15T12:23:35.000Z</time>
</trkpt>
<trkpt lat="45.8521900" lon="9.2042860">
	<ele>896.60</ele>
	<time>2025-02-15T12:23:36.000Z</time>
</trkpt>
<trkpt lat="45.8521910" lon="9.2042930">
	<ele>896.20</ele>
	<time>2025-02-15T12:23:37.000Z</time>
</trkpt>
<trkpt lat="45.8521920" lon="9.2042950">
	<ele>895.80</ele>
	<time>2025-02-15T12:23:38.000Z</time>
</trkpt>
<trkpt lat="45.8521910" lon="9.2043000">
	<ele>895.60</ele>
	<time>2025-02-15T12:23:39.000Z</time>
</trkpt>
<trkpt lat="45.8521900" lon="9.2043010">
	<ele>895.40</ele>
	<time>2025-02-15T12:23:40.000Z</time>
</trkpt>
<trkpt lat="45.8521880" lon="9.2043080">
	<ele>895.20</ele>
	<time>2025-02-15T12:23:41.000Z</time>
</trkpt>
<trkpt lat="45.8521910" lon="9.2043100">
	<ele>895.20</ele>
	<time>2025-02-15T12:23:42.000Z</time>
</trkpt>
<trkpt lat="45.8521930" lon="9.2043090">
	<ele>895.00</ele>
	<time>2025-02-15T12:23:43.000Z</time>
</trkpt>
<trkpt lat="45.8521930" lon="9.2043110">
	<ele>895.00</ele>
	<time>2025-02-15T12:23:44.000Z</time>
</trkpt>
<trkpt lat="45.8521860" lon="9.2043110">
	<ele>895.00</ele>
	<time>2025-02-15T12:23:45.000Z</time>
</trkpt>
<trkpt lat="45.8521800" lon="9.2043130">
	<ele>895.00</ele>
	<time>2025-02-15T12:23:46.000Z</time>
</trkpt>
<trkpt lat="45.8521720" lon="9.2043150">
	<ele>894.60</ele>
	<time>2025-02-15T12:23:47.000Z</time>
</trkpt>
<trkpt lat="45.8521630" lon="9.2043170">
	<ele>894.40</ele>
	<time>2025-02-15T12:23:48.000Z</time>
</trkpt>
<trkpt lat="45.8521590" lon="9.2043160">
	<ele>894.20</ele>
	<time>2025-02-15T12:23:49.000Z</time>
</trkpt>
<trkpt lat="45.8521470" lon="9.2043160">
	<ele>894.00</ele>
	<time>2025-02-15T12:23:50.000Z</time>
</trkpt>
<trkpt lat="45.8521420" lon="9.2043120">
	<ele>894.00</ele>
	<time>2025-02-15T12:23:51.000Z</time>
</trkpt>
<trkpt lat="45.8521370" lon="9.2043090">
	<ele>893.80</ele>
	<time>2025-02-15T12:23:52.000Z</time>
</trkpt>
<trkpt lat="45.8521310" lon="9.2043140">
	<ele>893.40</ele>
	<time>2025-02-15T12:23:53.000Z</time>
</trkpt>
<trkpt lat="45.8521220" lon="9.2043180">
	<ele>893.20</ele>
	<time>2025-02-15T12:23:54.000Z</time>
</trkpt>
<trkpt lat="45.8521210" lon="9.2043260">
	<ele>893.00</ele>
	<time>2025-02-15T12:23:55.000Z</time>
</trkpt>
<trkpt lat="45.8521180" lon="9.2043390">
	<ele>892.80</ele>
	<time>2025-02-15T12:23:56.000Z</time>
</trkpt>
<trkpt lat="45.8521130" lon="9.2043510">
	<ele>892.60</ele>
	<time>2025-02-15T12:23:57.000Z</time>
</trkpt>
<trkpt lat="45.8521090" lon="9.2043640">
	<ele>892.20</ele>
	<time>2025-02-15T12:23:58.000Z</time>
</trkpt>
<trkpt lat="45.8521050" lon="9.2043780">
	<ele>891.80</ele>
	<time>2025-02-15T12:23:59.000Z</time>
</trkpt>
<trkpt lat="45.8521000" lon="9.2043900">
	<ele>891.40</ele>
	<time>2025-02-15T12:24:00.000Z</time>
</trkpt>
<trkpt lat="45.8520990" lon="9.2043980">
	<ele>891.00</ele>
	<time>2025-02-15T12:24:01.000Z</time>
</trkpt>
<trkpt lat="45.8520970" lon="9.2044020">
	<ele>890.80</ele>
	<time>2025-02-15T12:24:02.000Z</time>
</trkpt>
<trkpt lat="45.8520970" lon="9.2044040">
	<ele>890.60</ele>
	<time>2025-02-15T12:24:03.000Z</time>
</trkpt>
<trkpt lat="45.8520910" lon="9.2044020">
	<ele>890.40</ele>
	<time>2025-02-15T12:24:04.000Z</time>
</trkpt>
<trkpt lat="45.8520740" lon="9.2043910">
	<ele>890.20</ele>
	<time>2025-02-15T12:24:05.000Z</time>
</trkpt>
<trkpt lat="45.8520540" lon="9.2043830">
	<ele>890.00</ele>
	<time>2025-02-15T12:24:06.000Z</time>
</trkpt>
<trkpt lat="45.8520390" lon="9.2043900">
	<ele>889.80</ele>
	<time>2025-02-15T12:24:07.000Z</time>
</trkpt>
<trkpt lat="45.8520330" lon="9.2044060">
	<ele>889.60</ele>
	<time>2025-02-15T12:24:08.000Z</time>
</trkpt>
<trkpt lat="45.8520310" lon="9.2044150">
	<ele>889.60</ele>
	<time>2025-02-15T12:24:09.000Z</time>
</trkpt>
<trkpt lat="45.8520350" lon="9.2044390">
	<ele>889.20</ele>
	<time>2025-02-15T12:24:10.000Z</time>
</trkpt>
<trkpt lat="45.8520320" lon="9.2044520">
	<ele>889.00</ele>
	<time>2025-02-15T12:24:11.000Z</time>
</trkpt>
<trkpt lat="45.8520270" lon="9.2044550">
	<ele>888.80</ele>
	<time>2025-02-15T12:24:12.000Z</time>
</trkpt>
<trkpt lat="45.8520280" lon="9.2044680">
	<ele>888.80</ele>
	<time>2025-02-15T12:24:13.000Z</time>
</trkpt>
<trkpt lat="45.8520370" lon="9.2044870">
	<ele>888.40</ele>
	<time>2025-02-15T12:24:14.000Z</time>
</trkpt>
<trkpt lat="45.8520450" lon="9.2045160">
	<ele>888.20</ele>
	<time>2025-02-15T12:24:15.000Z</time>
</trkpt>
<trkpt lat="45.8520430" lon="9.2045230">
	<ele>888.00</ele>
	<time>2025-02-15T12:24:16.000Z</time>
</trkpt>
<trkpt lat="45.8520410" lon="9.2045430">
	<ele>887.80</ele>
	<time>2025-02-15T12:24:17.000Z</time>
</trkpt>
<trkpt lat="45.8520420" lon="9.2045600">
	<ele>887.60</ele>
	<time>2025-02-15T12:24:18.000Z</time>
</trkpt>
<trkpt lat="45.8520400" lon="9.2045700">
	<ele>887.40</ele>
	<time>2025-02-15T12:24:19.000Z</time>
</trkpt>
<trkpt lat="45.8520380" lon="9.2045720">
	<ele>887.20</ele>
	<time>2025-02-15T12:24:20.000Z</time>
</trkpt>
<trkpt lat="45.8520360" lon="9.2045840">
	<ele>887.20</ele>
	<time>2025-02-15T12:24:21.000Z</time>
</trkpt>
<trkpt lat="45.8520360" lon="9.2045950">
	<ele>887.00</ele>
	<time>2025-02-15T12:24:22.000Z</time>
</trkpt>
<trkpt lat="45.8520410" lon="9.2046120">
	<ele>886.80</ele>
	<time>2025-02-15T12:24:23.000Z</time>
</trkpt>
<trkpt lat="45.8520320" lon="9.2046110">
	<ele>886.60</ele>
	<time>2025-02-15T12:24:24.000Z</time>
</trkpt>
<trkpt lat="45.8520220" lon="9.2046160">
	<ele>886.60</ele>
	<time>2025-02-15T12:24:25.000Z</time>
</trkpt>
<trkpt lat="45.8520150" lon="9.2046200">
	<ele>886.40</ele>
	<time>2025-02-15T12:24:26.000Z</time>
</trkpt>
<trkpt lat="45.8520020" lon="9.2046290">
	<ele>886.20</ele>
	<time>2025-02-15T12:24:27.000Z</time>
</trkpt>
<trkpt lat="45.8520000" lon="9.2046340">
	<ele>886.00</ele>
	<time>2025-02-15T12:24:28.000Z</time>
</trkpt>
<trkpt lat="45.8520040" lon="9.2046400">
	<ele>886.00</ele>
	<time>2025-02-15T12:24:29.000Z</time>
</trkpt>
<trkpt lat="45.8520060" lon="9.2046450">
	<ele>886.00</ele>
	<time>2025-02-15T12:24:30.000Z</time>
</trkpt>
<trkpt lat="45.8520010" lon="9.2046550">
	<ele>885.80</ele>
	<time>2025-02-15T12:24:31.000Z</time>
</trkpt>
<trkpt lat="45.8519970" lon="9.2046520">
	<ele>885.80</ele>
	<time>2025-02-15T12:24:32.000Z</time>
</trkpt>
<trkpt lat="45.8519930" lon="9.2046530">
	<ele>885.60</ele>
	<time>2025-02-15T12:24:33.000Z</time>
</trkpt>
<trkpt lat="45.8519920" lon="9.2046580">
	<ele>885.40</ele>
	<time>2025-02-15T12:24:34.000Z</time>
</trkpt>
<trkpt lat="45.8519850" lon="9.2046600">
	<ele>885.20</ele>
	<time>2025-02-15T12:24:35.000Z</time>
</trkpt>
<trkpt lat="45.8519760" lon="9.2046600">
	<ele>885.20</ele>
	<time>2025-02-15T12:24:36.000Z</time>
</trkpt>
<trkpt lat="45.8519740" lon="9.2046680">
	<ele>885.00</ele>
	<time>2025-02-15T12:24:37.000Z</time>
</trkpt>
<trkpt lat="45.8519630" lon="9.2046660">
	<ele>884.80</ele>
	<time>2025-02-15T12:24:38.000Z</time>
</trkpt>
<trkpt lat="45.8519530" lon="9.2046640">
	<ele>884.80</ele>
	<time>2025-02-15T12:24:39.000Z</time>
</trkpt>
<trkpt lat="45.8519530" lon="9.2046690">
	<ele>884.60</ele>
	<time>2025-02-15T12:24:40.000Z</time>
</trkpt>
<trkpt lat="45.8519590" lon="9.2046800">
	<ele>884.60</ele>
	<time>2025-02-15T12:24:41.000Z</time>
</trkpt>
<trkpt lat="45.8519650" lon="9.2046950">
	<ele>884.40</ele>
	<time>2025-02-15T12:24:42.000Z</time>
</trkpt>
<trkpt lat="45.8519600" lon="9.2047020">
	<ele>884.20</ele>
	<time>2025-02-15T12:24:43.000Z</time>
</trkpt>
<trkpt lat="45.8519410" lon="9.2047080">
	<ele>883.80</ele>
	<time>2025-02-15T12:24:44.000Z</time>
</trkpt>
<trkpt lat="45.8519330" lon="9.2047250">
	<ele>883.60</ele>
	<time>2025-02-15T12:24:45.000Z</time>
</trkpt>
<trkpt lat="45.8519260" lon="9.2047380">
	<ele>883.40</ele>
	<time>2025-02-15T12:24:46.000Z</time>
</trkpt>
<trkpt lat="45.8519260" lon="9.2047430">
	<ele>883.20</ele>
	<time>2025-02-15T12:24:47.000Z</time>
</trkpt>
<trkpt lat="45.8519200" lon="9.2047550">
	<ele>883.00</ele>
	<time>2025-02-15T12:24:48.000Z</time>
</trkpt>
<trkpt lat="45.8519210" lon="9.2047680">
	<ele>882.80</ele>
	<time>2025-02-15T12:24:49.000Z</time>
</trkpt>
<trkpt lat="45.8519210" lon="9.2047760">
	<ele>882.60</ele>
	<time>2025-02-15T12:24:50.000Z</time>
</trkpt>
<trkpt lat="45.8519230" lon="9.2047880">
	<ele>882.60</ele>
	<time>2025-02-15T12:24:51.000Z</time>
</trkpt>
<trkpt lat="45.8519250" lon="9.2047970">
	<ele>882.40</ele>
	<time>2025-02-15T12:24:52.000Z</time>
</trkpt>
<trkpt lat="45.8519270" lon="9.2048040">
	<ele>882.40</ele>
	<time>2025-02-15T12:24:53.000Z</time>
</trkpt>
<trkpt lat="45.8519300" lon="9.2048050">
	<ele>882.40</ele>
	<time>2025-02-15T12:24:54.000Z</time>
</trkpt>
<trkpt lat="45.8519260" lon="9.2048080">
	<ele>882.20</ele>
	<time>2025-02-15T12:24:55.000Z</time>
</trkpt>
<trkpt lat="45.8519270" lon="9.2048070">
	<ele>882.00</ele>
	<time>2025-02-15T12:24:56.000Z</time>
</trkpt>
<trkpt lat="45.8519310" lon="9.2048030">
	<ele>881.80</ele>
	<time>2025-02-15T12:24:57.000Z</time>
</trkpt>
<trkpt lat="45.8519330" lon="9.2048010">
	<ele>881.60</ele>
	<time>2025-02-15T12:24:58.000Z</time>
</trkpt>
<trkpt lat="45.8519360" lon="9.2048020">
	<ele>881.40</ele>
	<time>2025-02-15T12:24:59.000Z</time>
</trkpt>
<trkpt lat="45.8519390" lon="9.2048140">
	<ele>881.00</ele>
	<time>2025-02-15T12:25:00.000Z</time>
</trkpt>
<trkpt lat="45.8519400" lon="9.2048240">
	<ele>880.80</ele>
	<time>2025-02-15T12:25:01.000Z</time>
</trkpt>
<trkpt lat="45.8519370" lon="9.2048350">
	<ele>880.40</ele>
	<time>2025-02-15T12:25:02.000Z</time>
</trkpt>
<trkpt lat="45.8519320" lon="9.2048510">
	<ele>880.40</ele>
	<time>2025-02-15T12:25:03.000Z</time>
</trkpt>
<trkpt lat="45.8519310" lon="9.2048570">
	<ele>880.40</ele>
	<time>2025-02-15T12:25:04.000Z</time>
</trkpt>
<trkpt lat="45.8519310" lon="9.2048640">
	<ele>880.40</ele>
	<time>2025-02-15T12:25:05.000Z</time>
</trkpt>
<trkpt lat="45.8519400" lon="9.2048670">
	<ele>880.00</ele>
	<time>2025-02-15T12:25:06.000Z</time>
</trkpt>
<trkpt lat="45.8519430" lon="9.2048650">
	<ele>879.60</ele>
	<time>2025-02-15T12:25:07.000Z</time>
</trkpt>
<trkpt lat="45.8519490" lon="9.2048740">
	<ele>879.20</ele>
	<time>2025-02-15T12:25:08.000Z</time>
</trkpt>
<trkpt lat="45.8519460" lon="9.2048870">
	<ele>879.00</ele>
	<time>2025-02-15T12:25:09.000Z</time>
</trkpt>
<trkpt lat="45.8519380" lon="9.2048980">
	<ele>878.80</ele>
	<time>2025-02-15T12:25:10.000Z</time>
</trkpt>
<trkpt lat="45.8519370" lon="9.2049110">
	<ele>878.60</ele>
	<time>2025-02-15T12:25:11.000Z</time>
</trkpt>
<trkpt lat="45.8519310" lon="9.2049240">
	<ele>878.40</ele>
	<time>2025-02-15T12:25:12.000Z</time>
</trkpt>
<trkpt lat="45.8519270" lon="9.2049330">
	<ele>878.20</ele>
	<time>2025-02-15T12:25:13.000Z</time>
</trkpt>
<trkpt lat="45.8519230" lon="9.2049430">
	<ele>878.00</ele>
	<time>2025-02-15T12:25:14.000Z</time>
</trkpt>
<trkpt lat="45.8519130" lon="9.2049380">
	<ele>877.40</ele>
	<time>2025-02-15T12:25:15.000Z</time>
</trkpt>
<trkpt lat="45.8519000" lon="9.2049390">
	<ele>877.20</ele>
	<time>2025-02-15T12:25:16.000Z</time>
</trkpt>
<trkpt lat="45.8518910" lon="9.2049480">
	<ele>877.20</ele>
	<time>2025-02-15T12:25:17.000Z</time>
</trkpt>
<trkpt lat="45.8518820" lon="9.2049500">
	<ele>877.00</ele>
	<time>2025-02-15T12:25:18.000Z</time>
</trkpt>
<trkpt lat="45.8518780" lon="9.2049580">
	<ele>876.80</ele>
	<time>2025-02-15T12:25:19.000Z</time>
</trkpt>
<trkpt lat="45.8518750" lon="9.2049600">
	<ele>876.80</ele>
	<time>2025-02-15T12:25:20.000Z</time>
</trkpt>
<trkpt lat="45.8518720" lon="9.2049620">
	<ele>876.60</ele>
	<time>2025-02-15T12:25:21.000Z</time>
</trkpt>
<trkpt lat="45.8518670" lon="9.2049620">
	<ele>876.40</ele>
	<time>2025-02-15T12:25:22.000Z</time>
</trkpt>
<trkpt lat="45.8518580" lon="9.2049610">
	<ele>876.20</ele>
	<time>2025-02-15T12:25:23.000Z</time>
</trkpt>
<trkpt lat="45.8518500" lon="9.2049540">
	<ele>876.00</ele>
	<time>2025-02-15T12:25:24.000Z</time>
</trkpt>
<trkpt lat="45.8518430" lon="9.2049620">
	<ele>875.80</ele>
	<time>2025-02-15T12:25:25.000Z</time>
</trkpt>
<trkpt lat="45.8518390" lon="9.2049700">
	<ele>875.80</ele>
	<time>2025-02-15T12:25:26.000Z</time>
</trkpt>
<trkpt lat="45.8518390" lon="9.2049790">
	<ele>875.80</ele>
	<time>2025-02-15T12:25:27.000Z</time>
</trkpt>
<trkpt lat="45.8518420" lon="9.2049920">
	<ele>875.80</ele>
	<time>2025-02-15T12:25:28.000Z</time>
</trkpt>
<trkpt lat="45.8518380" lon="9.2050010">
	<ele>875.40</ele>
	<time>2025-02-15T12:25:29.000Z</time>
</trkpt>
<trkpt lat="45.8518360" lon="9.2050020">
	<ele>875.20</ele>
	<time>2025-02-15T12:25:30.000Z</time>
</trkpt>
<trkpt lat="45.8518340" lon="9.2050110">
	<ele>874.80</ele>
	<time>2025-02-15T12:25:31.000Z</time>
</trkpt>
<trkpt lat="45.8518300" lon="9.2050240">
	<ele>874.60</ele>
	<time>2025-02-15T12:25:32.000Z</time>
</trkpt>
<trkpt lat="45.8518180" lon="9.2050300">
	<ele>874.60</ele>
	<time>2025-02-15T12:25:33.000Z</time>
</trkpt>
<trkpt lat="45.8518130" lon="9.2050390">
	<ele>874.40</ele>
	<time>2025-02-15T12:25:34.000Z</time>
</trkpt>
<trkpt lat="45.8518050" lon="9.2050540">
	<ele>874.40</ele>
	<time>2025-02-15T12:25:35.000Z</time>
</trkpt>
<trkpt lat="45.8518000" lon="9.2050640">
	<ele>874.20</ele>
	<time>2025-02-15T12:25:36.000Z</time>
</trkpt>
<trkpt lat="45.8517950" lon="9.2050760">
	<ele>874.00</ele>
	<time>2025-02-15T12:25:37.000Z</time>
</trkpt>
<trkpt lat="45.8517960" lon="9.2050840">
	<ele>873.80</ele>
	<time>2025-02-15T12:25:38.000Z</time>
</trkpt>
<trkpt lat="45.8517950" lon="9.2050990">
	<ele>873.40</ele>
	<time>2025-02-15T12:25:39.000Z</time>
</trkpt>
<trkpt lat="45.8517970" lon="9.2051120">
	<ele>873.20</ele>
	<time>2025-02-15T12:25:40.000Z</time>
</trkpt>
<trkpt lat="45.8517910" lon="9.2051170">
	<ele>873.00</ele>
	<time>2025-02-15T12:25:41.000Z</time>
</trkpt>
<trkpt lat="45.8517900" lon="9.2051250">
	<ele>873.00</ele>
	<time>2025-02-15T12:25:42.000Z</time>
</trkpt>
<trkpt lat="45.8517730" lon="9.2051250">
	<ele>872.80</ele>
	<time>2025-02-15T12:25:43.000Z</time>
</trkpt>
<trkpt lat="45.8517540" lon="9.2051330">
	<ele>872.60</ele>
	<time>2025-02-15T12:25:44.000Z</time>
</trkpt>
<trkpt lat="45.8517430" lon="9.2051370">
	<ele>872.60</ele>
	<time>2025-02-15T12:25:45.000Z</time>
</trkpt>
<trkpt lat="45.8517350" lon="9.2051310">
	<ele>872.00</ele>
	<time>2025-02-15T12:25:46.000Z</time>
</trkpt>
<trkpt lat="45.8517300" lon="9.2051270">
	<ele>871.60</ele>
	<time>2025-02-15T12:25:47.000Z</time>
</trkpt>
<trkpt lat="45.8517260" lon="9.2051310">
	<ele>871.40</ele>
	<time>2025-02-15T12:25:48.000Z</time>
</trkpt>
<trkpt lat="45.8517290" lon="9.2051360">
	<ele>871.40</ele>
	<time>2025-02-15T12:25:49.000Z</time>
</trkpt>
<trkpt lat="45.8517300" lon="9.2051390">
	<ele>871.20</ele>
	<time>2025-02-15T12:25:50.000Z</time>
</trkpt>
<trkpt lat="45.8517340" lon="9.2051570">
	<ele>870.80</ele>
	<time>2025-02-15T12:25:51.000Z</time>
</trkpt>
<trkpt lat="45.8517440" lon="9.2051690">
	<ele>870.40</ele>
	<time>2025-02-15T12:25:52.000Z</time>
</trkpt>
<trkpt lat="45.8517500" lon="9.2051770">
	<ele>870.00</ele>
	<time>2025-02-15T12:25:53.000Z</time>
</trkpt>
<trkpt lat="45.8517550" lon="9.2051860">
	<ele>869.80</ele>
	<time>2025-02-15T12:25:54.000Z</time>
</trkpt>
<trkpt lat="45.8517570" lon="9.2051920">
	<ele>869.40</ele>
	<time>2025-02-15T12:25:55.000Z</time>
</trkpt>
<trkpt lat="45.8517580" lon="9.2051960">
	<ele>869.20</ele>
	<time>2025-02-15T12:25:56.000Z</time>
</trkpt>
<trkpt lat="45.8517590" lon="9.2051960">
	<ele>869.00</ele>
	<time>2025-02-15T12:25:57.000Z</time>
</trkpt>
<trkpt lat="45.8517680" lon="9.2052050">
	<ele>869.00</ele>
	<time>2025-02-15T12:25:58.000Z</time>
</trkpt>
<trkpt lat="45.8517690" lon="9.2052070">
	<ele>869.00</ele>
	<time>2025-02-15T12:25:59.000Z</time>
</trkpt>
<trkpt lat="45.8517710" lon="9.2052090">
	<ele>869.00</ele>
	<time>2025-02-15T12:26:00.000Z</time>
</trkpt>
<trkpt lat="45.8517720" lon="9.2052080">
	<ele>868.80</ele>
	<time>2025-02-15T12:26:01.000Z</time>
</trkpt>
<trkpt lat="45.8517720" lon="9.2052100">
	<ele>868.80</ele>
	<time>2025-02-15T12:26:02.000Z</time>
</trkpt>
<trkpt lat="45.8517710" lon="9.2052140">
	<ele>868.60</ele>
	<time>2025-02-15T12:26:03.000Z</time>
</trkpt>
<trkpt lat="45.8517710" lon="9.2052240">
	<ele>868.40</ele>
	<time>2025-02-15T12:26:04.000Z</time>
</trkpt>
<trkpt lat="45.8517700" lon="9.2052270">
	<ele>868.00</ele>
	<time>2025-02-15T12:26:05.000Z</time>
</trkpt>
<trkpt lat="45.8517670" lon="9.2052300">
	<ele>868.00</ele>
	<time>2025-02-15T12:26:06.000Z</time>
</trkpt>
<trkpt lat="45.8517650" lon="9.2052370">
	<ele>867.60</ele>
	<time>2025-02-15T12:26:07.000Z</time>
</trkpt>
<trkpt lat="45.8517740" lon="9.2052400">
	<ele>867.60</ele>
	<time>2025-02-15T12:26:08.000Z</time>
</trkpt>
<trkpt lat="45.8517730" lon="9.2052470">
	<ele>867.40</ele>
	<time>2025-02-15T12:26:09.000Z</time>
</trkpt>
<trkpt lat="45.8517740" lon="9.2052610">
	<ele>867.20</ele>
	<time>2025-02-15T12:26:10.000Z</time>
</trkpt>
<trkpt lat="45.8517840" lon="9.2052780">
	<ele>867.20</ele>
	<time>2025-02-15T12:26:11.000Z</time>
</trkpt>
<trkpt lat="45.8517850" lon="9.2052800">
	<ele>867.00</ele>
	<time>2025-02-15T12:26:12.000Z</time>
</trkpt>
<trkpt lat="45.8517850" lon="9.2052840">
	<ele>866.60</ele>
	<time>2025-02-15T12:26:13.000Z</time>
</trkpt>
<trkpt lat="45.8517950" lon="9.2052940">
	<ele>866.40</ele>
	<time>2025-02-15T12:26:14.000Z</time>
</trkpt>
<trkpt lat="45.8518090" lon="9.2053020">
	<ele>866.20</ele>
	<time>2025-02-15T12:26:15.000Z</time>
</trkpt>
<trkpt lat="45.8518090" lon="9.2052990">
	<ele>866.00</ele>
	<time>2025-02-15T12:26:16.000Z</time>
</trkpt>
<trkpt lat="45.8518070" lon="9.2053020">
	<ele>865.80</ele>
	<time>2025-02-15T12:26:17.000Z</time>
</trkpt>
<trkpt lat="45.8518040" lon="9.2053020">
	<ele>865.60</ele>
	<time>2025-02-15T12:26:18.000Z</time>
</trkpt>
<trkpt lat="45.8518060" lon="9.2053130">
	<ele>865.40</ele>
	<time>2025-02-15T12:26:19.000Z</time>
</trkpt>
<trkpt lat="45.8518110" lon="9.2053310">
	<ele>865.40</ele>
	<time>2025-02-15T12:26:20.000Z</time>
</trkpt>
<trkpt lat="45.8518210" lon="9.2053460">
	<ele>865.40</ele>
	<time>2025-02-15T12:26:21.000Z</time>
</trkpt>
<trkpt lat="45.8518250" lon="9.2053480">
	<ele>865.40</ele>
	<time>2025-02-15T12:26:22.000Z</time>
</trkpt>
<trkpt lat="45.8518440" lon="9.2053480">
	<ele>865.40</ele>
	<time>2025-02-15T12:26:23.000Z</time>
</trkpt>
<trkpt lat="45.8518570" lon="9.2053570">
	<ele>865.40</ele>
	<time>2025-02-15T12:26:24.000Z</time>
</trkpt>
<trkpt lat="45.8518540" lon="9.2053650">
	<ele>864.80</ele>
	<time>2025-02-15T12:26:25.000Z</time>
</trkpt>
<trkpt lat="45.8518590" lon="9.2053750">
	<ele>864.40</ele>
	<time>2025-02-15T12:26:26.000Z</time>
</trkpt>
<trkpt lat="45.8518650" lon="9.2053790">
	<ele>864.20</ele>
	<time>2025-02-15T12:26:27.000Z</time>
</trkpt>
<trkpt lat="45.8518630" lon="9.2053820">
	<ele>864.20</ele>
	<time>2025-02-15T12:26:28.000Z</time>
</trkpt>
<trkpt lat="45.8518690" lon="9.2053870">
	<ele>864.00</ele>
	<time>2025-02-15T12:26:29.000Z</time>
</trkpt>
<trkpt lat="45.8518680" lon="9.2053910">
	<ele>863.80</ele>
	<time>2025-02-15T12:26:30.000Z</time>
</trkpt>
<trkpt lat="45.8518730" lon="9.2053980">
	<ele>863.60</ele>
	<time>2025-02-15T12:26:31.000Z</time>
</trkpt>
<trkpt lat="45.8518800" lon="9.2054040">
	<ele>863.40</ele>
	<time>2025-02-15T12:26:32.000Z</time>
</trkpt>
<trkpt lat="45.8518800" lon="9.2054050">
	<ele>863.20</ele>
	<time>2025-02-15T12:26:33.000Z</time>
</trkpt>
<trkpt lat="45.8518890" lon="9.2054080">
	<ele>863.20</ele>
	<time>2025-02-15T12:26:34.000Z</time>
</trkpt>
<trkpt lat="45.8519060" lon="9.2054120">
	<ele>863.20</ele>
	<time>2025-02-15T12:26:35.000Z</time>
</trkpt>
<trkpt lat="45.8519280" lon="9.2054230">
	<ele>863.00</ele>
	<time>2025-02-15T12:26:36.000Z</time>
</trkpt>
<trkpt lat="45.8519490" lon="9.2054310">
	<ele>863.00</ele>
	<time>2025-02-15T12:26:37.000Z</time>
</trkpt>
<trkpt lat="45.8519680" lon="9.2054370">
	<ele>862.60</ele>
	<time>2025-02-15T12:26:38.000Z</time>
</trkpt>
<trkpt lat="45.8519720" lon="9.2054390">
	<ele>862.40</ele>
	<time>2025-02-15T12:26:39.000Z</time>
</trkpt>
<trkpt lat="45.8519710" lon="9.2054420">
	<ele>862.20</ele>
	<time>2025-02-15T12:26:40.000Z</time>
</trkpt>
<trkpt lat="45.8519730" lon="9.2054410">
	<ele>862.20</ele>
	<time>2025-02-15T12:26:41.000Z</time>
</trkpt>
<trkpt lat="45.8519770" lon="9.2054440">
	<ele>862.00</ele>
	<time>2025-02-15T12:26:42.000Z</time>
</trkpt>
<trkpt lat="45.8519770" lon="9.2054430">
	<ele>862.00</ele>
	<time>2025-02-15T12:26:43.000Z</time>
</trkpt>
<trkpt lat="45.8519800" lon="9.2054420">
	<ele>862.00</ele>
	<time>2025-02-15T12:26:44.000Z</time>
</trkpt>
<trkpt lat="45.8519780" lon="9.2054450">
	<ele>862.00</ele>
	<time>2025-02-15T12:26:45.000Z</time>
</trkpt>
<trkpt lat="45.8519750" lon="9.2054480">
	<ele>862.00</ele>
	<time>2025-02-15T12:26:46.000Z</time>
</trkpt>
<trkpt lat="45.8519810" lon="9.2054520">
	<ele>861.80</ele>
	<time>2025-02-15T12:26:47.000Z</time>
</trkpt>
<trkpt lat="45.8519920" lon="9.2054570">
	<ele>861.60</ele>
	<time>2025-02-15T12:26:48.000Z</time>
</trkpt>
<trkpt lat="45.8519950" lon="9.2054600">
	<ele>861.40</ele>
	<time>2025-02-15T12:26:49.000Z</time>
</trkpt>
<trkpt lat="45.8520130" lon="9.2054610">
	<ele>861.20</ele>
	<time>2025-02-15T12:26:50.000Z</time>
</trkpt>
<trkpt lat="45.8520390" lon="9.2054720">
	<ele>861.00</ele>
	<time>2025-02-15T12:26:51.000Z</time>
</trkpt>
<trkpt lat="45.8520580" lon="9.2054820">
	<ele>861.00</ele>
	<time>2025-02-15T12:26:52.000Z</time>
</trkpt>
<trkpt lat="45.8520780" lon="9.2054890">
	<ele>860.80</ele>
	<time>2025-02-15T12:26:53.000Z</time>
</trkpt>
<trkpt lat="45.8520900" lon="9.2055000">
	<ele>860.80</ele>
	<time>2025-02-15T12:26:54.000Z</time>
</trkpt>
<trkpt lat="45.8521000" lon="9.2055180">
	<ele>860.80</ele>
	<time>2025-02-15T12:26:55.000Z</time>
</trkpt>
<trkpt lat="45.8521050" lon="9.2055350">
	<ele>860.60</ele>
	<time>2025-02-15T12:26:56.000Z</time>
</trkpt>
<trkpt lat="45.8521190" lon="9.2055490">
	<ele>860.20</ele>
	<time>2025-02-15T12:26:57.000Z</time>
</trkpt>
<trkpt lat="45.8521380" lon="9.2055590">
	<ele>860.20</ele>
	<time>2025-02-15T12:26:58.000Z</time>
</trkpt>
<trkpt lat="45.8521620" lon="9.2055690">
	<ele>860.00</ele>
	<time>2025-02-15T12:26:59.000Z</time>
</trkpt>
<trkpt lat="45.8521740" lon="9.2055780">
	<ele>859.60</ele>
	<time>2025-02-15T12:27:00.000Z</time>
</trkpt>
<trkpt lat="45.8521950" lon="9.2055870">
	<ele>859.40</ele>
	<time>2025-02-15T12:27:01.000Z</time>
</trkpt>
<trkpt lat="45.8522230" lon="9.2056020">
	<ele>859.20</ele>
	<time>2025-02-15T12:27:02.000Z</time>
</trkpt>
<trkpt lat="45.8522490" lon="9.2056160">
	<ele>858.80</ele>
	<time>2025-02-15T12:27:03.000Z</time>
</trkpt>
<trkpt lat="45.8522670" lon="9.2056210">
	<ele>858.60</ele>
	<time>2025-02-15T12:27:04.000Z</time>
</trkpt>
<trkpt lat="45.8522680" lon="9.2056290">
	<ele>858.60</ele>
	<time>2025-02-15T12:27:05.000Z</time>
</trkpt>
<trkpt lat="45.8522700" lon="9.2056350">
	<ele>858.40</ele>
	<time>2025-02-15T12:27:06.000Z</time>
</trkpt>
<trkpt lat="45.8522680" lon="9.2056470">
	<ele>858.40</ele>
	<time>2025-02-15T12:27:07.000Z</time>
</trkpt>
<trkpt lat="45.8522640" lon="9.2056590">
	<ele>858.00</ele>
	<time>2025-02-15T12:27:08.000Z</time>
</trkpt>
<trkpt lat="45.8522440" lon="9.2056520">
	<ele>858.00</ele>
	<time>2025-02-15T12:27:09.000Z</time>
</trkpt>
<trkpt lat="45.8522410" lon="9.2056620">
	<ele>857.80</ele>
	<time>2025-02-15T12:27:10.000Z</time>
</trkpt>
<trkpt lat="45.8522410" lon="9.2056780">
	<ele>857.40</ele>
	<time>2025-02-15T12:27:11.000Z</time>
</trkpt>
<trkpt lat="45.8522490" lon="9.2056870">
	<ele>857.20</ele>
	<time>2025-02-15T12:27:12.000Z</time>
</trkpt>
<trkpt lat="45.8522550" lon="9.2056960">
	<ele>857.00</ele>
	<time>2025-02-15T12:27:13.000Z</time>
</trkpt>
<trkpt lat="45.8522620" lon="9.2057080">
	<ele>856.80</ele>
	<time>2025-02-15T12:27:14.000Z</time>
</trkpt>
<trkpt lat="45.8522610" lon="9.2057180">
	<ele>856.60</ele>
	<time>2025-02-15T12:27:15.000Z</time>
</trkpt>
<trkpt lat="45.8522720" lon="9.2057220">
	<ele>856.00</ele>
	<time>2025-02-15T12:27:16.000Z</time>
</trkpt>
<trkpt lat="45.8522700" lon="9.2057310">
	<ele>855.80</ele>
	<time>2025-02-15T12:27:17.000Z</time>
</trkpt>
<trkpt lat="45.8522700" lon="9.2057460">
	<ele>855.60</ele>
	<time>2025-02-15T12:27:18.000Z</time>
</trkpt>
<trkpt lat="45.8522740" lon="9.2057500">
	<ele>855.60</ele>
	<time>2025-02-15T12:27:19.000Z</time>
</trkpt>
<trkpt lat="45.8522900" lon="9.2057520">
	<ele>855.20</ele>
	<time>2025-02-15T12:27:20.000Z</time>
</trkpt>
<trkpt lat="45.8523010" lon="9.2057640">
	<ele>855.20</ele>
	<time>2025-02-15T12:27:21.000Z</time>
</trkpt>
<trkpt lat="45.8522990" lon="9.2057680">
	<ele>855.00</ele>
	<time>2025-02-15T12:27:22.000Z</time>
</trkpt>
<trkpt lat="45.8523070" lon="9.2057920">
	<ele>854.80</ele>
	<time>2025-02-15T12:27:23.000Z</time>
</trkpt>
<trkpt lat="45.8523010" lon="9.2058080">
	<ele>854.80</ele>
	<time>2025-02-15T12:27:24.000Z</time>
</trkpt>
<trkpt lat="45.8522980" lon="9.2058080">
	<ele>854.80</ele>
	<time>2025-02-15T12:27:25.000Z</time>
</trkpt>
<trkpt lat="45.8522860" lon="9.2058070">
	<ele>854.60</ele>
	<time>2025-02-15T12:27:26.000Z</time>
</trkpt>
<trkpt lat="45.8522800" lon="9.2058160">
	<ele>854.40</ele>
	<time>2025-02-15T12:27:27.000Z</time>
</trkpt>
<trkpt lat="45.8522790" lon="9.2058230">
	<ele>854.20</ele>
	<time>2025-02-15T12:27:28.000Z</time>
</trkpt>
<trkpt lat="45.8522830" lon="9.2058340">
	<ele>854.20</ele>
	<time>2025-02-15T12:27:29.000Z</time>
</trkpt>
<trkpt lat="45.8523030" lon="9.2058450">
	<ele>854.00</ele>
	<time>2025-02-15T12:27:30.000Z</time>
</trkpt>
<trkpt lat="45.8523030" lon="9.2058580">
	<ele>854.00</ele>
	<time>2025-02-15T12:27:31.000Z</time>
</trkpt>
<trkpt lat="45.8523050" lon="9.2058610">
	<ele>853.80</ele>
	<time>2025-02-15T12:27:32.000Z</time>
</trkpt>
<trkpt lat="45.8523070" lon="9.2058700">
	<ele>853.60</ele>
	<time>2025-02-15T12:27:33.000Z</time>
</trkpt>
<trkpt lat="45.8523090" lon="9.2058730">
	<ele>853.40</ele>
	<time>2025-02-15T12:27:34.000Z</time>
</trkpt>
<trkpt lat="45.8523130" lon="9.2058810">
	<ele>853.20</ele>
	<time>2025-02-15T12:27:35.000Z</time>
</trkpt>
<trkpt lat="45.8523170" lon="9.2058950">
	<ele>852.80</ele>
	<time>2025-02-15T12:27:36.000Z</time>
</trkpt>
<trkpt lat="45.8523150" lon="9.2059000">
	<ele>852.60</ele>
	<time>2025-02-15T12:27:37.000Z</time>
</trkpt>
<trkpt lat="45.8523220" lon="9.2059080">
	<ele>852.20</ele>
	<time>2025-02-15T12:27:38.000Z</time>
</trkpt>
<trkpt lat="45.8523310" lon="9.2059150">
	<ele>852.00</ele>
	<time>2025-02-15T12:27:39.000Z</time>
</trkpt>
<trkpt lat="45.8523340" lon="9.2059250">
	<ele>851.80</ele>
	<time>2025-02-15T12:27:40.000Z</time>
</trkpt>
<trkpt lat="45.8523320" lon="9.2059350">
	<ele>851.60</ele>
	<time>2025-02-15T12:27:41.000Z</time>
</trkpt>
<trkpt lat="45.8523370" lon="9.2059470">
	<ele>851.40</ele>
	<time>2025-02-15T12:27:42.000Z</time>
</trkpt>
<trkpt lat="45.8523340" lon="9.2059520">
	<ele>851.40</ele>
	<time>2025-02-15T12:27:43.000Z</time>
</trkpt>
<trkpt lat="45.8523390" lon="9.2059600">
	<ele>851.40</ele>
	<time>2025-02-15T12:27:44.000Z</time>
</trkpt>
<trkpt lat="45.8523400" lon="9.2059630">
	<ele>851.40</ele>
	<time>2025-02-15T12:27:45.000Z</time>
</trkpt>
<trkpt lat="45.8523390" lon="9.2059790">
	<ele>851.40</ele>
	<time>2025-02-15T12:27:46.000Z</time>
</trkpt>
<trkpt lat="45.8523370" lon="9.2059830">
	<ele>851.20</ele>
	<time>2025-02-15T12:27:47.000Z</time>
</trkpt>
<trkpt lat="45.8523460" lon="9.2060140">
	<ele>850.80</ele>
	<time>2025-02-15T12:27:48.000Z</time>
</trkpt>
<trkpt lat="45.8523540" lon="9.2060350">
	<ele>850.60</ele>
	<time>2025-02-15T12:27:49.000Z</time>
</trkpt>
<trkpt lat="45.8523590" lon="9.2060470">
	<ele>850.20</ele>
	<time>2025-02-15T12:27:50.000Z</time>
</trkpt>
<trkpt lat="45.8523550" lon="9.2060590">
	<ele>850.00</ele>
	<time>2025-02-15T12:27:51.000Z</time>
</trkpt>
<trkpt lat="45.8523530" lon="9.2060730">
	<ele>849.80</ele>
	<time>2025-02-15T12:27:52.000Z</time>
</trkpt>
<trkpt lat="45.8523510" lon="9.2060800">
	<ele>849.40</ele>
	<time>2025-02-15T12:27:53.000Z</time>
</trkpt>
<trkpt lat="45.8523510" lon="9.2060840">
	<ele>849.20</ele>
	<time>2025-02-15T12:27:54.000Z</time>
</trkpt>
<trkpt lat="45.8523540" lon="9.2060930">
	<ele>849.20</ele>
	<time>2025-02-15T12:27:55.000Z</time>
</trkpt>
<trkpt lat="45.8523640" lon="9.2061020">
	<ele>849.00</ele>
	<time>2025-02-15T12:27:56.000Z</time>
</trkpt>
<trkpt lat="45.8523770" lon="9.2060930">
	<ele>849.00</ele>
	<time>2025-02-15T12:27:57.000Z</time>
</trkpt>
<trkpt lat="45.8523920" lon="9.2060810">
	<ele>849.00</ele>
	<time>2025-02-15T12:27:58.000Z</time>
</trkpt>
<trkpt lat="45.8523930" lon="9.2060780">
	<ele>849.00</ele>
	<time>2025-02-15T12:27:59.000Z</time>
</trkpt>
<trkpt lat="45.8523940" lon="9.2060810">
	<ele>849.00</ele>
	<time>2025-02-15T12:28:00.000Z</time>
</trkpt>
<trkpt lat="45.8523950" lon="9.2060760">
	<ele>849.00</ele>
	<time>2025-02-15T12:28:01.000Z</time>
</trkpt>
<trkpt lat="45.8523990" lon="9.2061020">
	<ele>848.80</ele>
	<time>2025-02-15T12:28:02.000Z</time>
</trkpt>
<trkpt lat="45.8524040" lon="9.2061340">
	<ele>848.80</ele>
	<time>2025-02-15T12:28:03.000Z</time>
</trkpt>
<trkpt lat="45.8524100" lon="9.2061610">
	<ele>848.60</ele>
	<time>2025-02-15T12:28:04.000Z</time>
</trkpt>
<trkpt lat="45.8524170" lon="9.2061820">
	<ele>848.60</ele>
	<time>2025-02-15T12:28:05.000Z</time>
</trkpt>
<trkpt lat="45.8524100" lon="9.2061830">
	<ele>848.40</ele>
	<time>2025-02-15T12:28:06.000Z</time>
</trkpt>
<trkpt lat="45.8524100" lon="9.2061910">
	<ele>848.20</ele>
	<time>2025-02-15T12:28:07.000Z</time>
</trkpt>
<trkpt lat="45.8524130" lon="9.2062010">
	<ele>848.20</ele>
	<time>2025-02-15T12:28:08.000Z</time>
</trkpt>
<trkpt lat="45.8524130" lon="9.2062100">
	<ele>848.00</ele>
	<time>2025-02-15T12:28:09.000Z</time>
</trkpt>
<trkpt lat="45.8524150" lon="9.2062200">
	<ele>847.80</ele>
	<time>2025-02-15T12:28:10.000Z</time>
</trkpt>
<trkpt lat="45.8524140" lon="9.2062220">
	<ele>847.60</ele>
	<time>2025-02-15T12:28:11.000Z</time>
</trkpt>
<trkpt lat="45.8524140" lon="9.2062260">
	<ele>847.40</ele>
	<time>2025-02-15T12:28:12.000Z</time>
</trkpt>
<trkpt lat="45.8524230" lon="9.2062370">
	<ele>847.40</ele>
	<time>2025-02-15T12:28:13.000Z</time>
</trkpt>
<trkpt lat="45.8524220" lon="9.2062440">
	<ele>847.20</ele>
	<time>2025-02-15T12:28:14.000Z</time>
</trkpt>
<trkpt lat="45.8524220" lon="9.2062470">
	<ele>847.00</ele>
	<time>2025-02-15T12:28:15.000Z</time>
</trkpt>
<trkpt lat="45.8524160" lon="9.2062490">
	<ele>847.00</ele>
	<time>2025-02-15T12:28:16.000Z</time>
</trkpt>
<trkpt lat="45.8524150" lon="9.2062530">
	<ele>846.80</ele>
	<time>2025-02-15T12:28:17.000Z</time>
</trkpt>
<trkpt lat="45.8524230" lon="9.2062610">
	<ele>846.60</ele>
	<time>2025-02-15T12:28:18.000Z</time>
</trkpt>
<trkpt lat="45.8524350" lon="9.2062700">
	<ele>846.60</ele>
	<time>2025-02-15T12:28:19.000Z</time>
</trkpt>
<trkpt lat="45.8524470" lon="9.2062800">
	<ele>846.40</ele>
	<time>2025-02-15T12:28:20.000Z</time>
</trkpt>
<trkpt lat="45.8524580" lon="9.2062800">
	<ele>846.20</ele>
	<time>2025-02-15T12:28:21.000Z</time>
</trkpt>
<trkpt lat="45.8524620" lon="9.2062850">
	<ele>846.40</ele>
	<time>2025-02-15T12:28:22.000Z</time>
</trkpt>
<trkpt lat="45.8524730" lon="9.2063090">
	<ele>846.20</ele>
	<time>2025-02-15T12:28:23.000Z</time>
</trkpt>
<trkpt lat="45.8524890" lon="9.2063290">
	<ele>846.20</ele>
	<time>2025-02-15T12:28:24.000Z</time>
</trkpt>
<trkpt lat="45.8525000" lon="9.2063300">
	<ele>846.00</ele>
	<time>2025-02-15T12:28:25.000Z</time>
</trkpt>
<trkpt lat="45.8524990" lon="9.2063330">
	<ele>845.80</ele>
	<time>2025-02-15T12:28:26.000Z</time>
</trkpt>
<trkpt lat="45.8525010" lon="9.2063360">
	<ele>845.60</ele>
	<time>2025-02-15T12:28:27.000Z</time>
</trkpt>
<trkpt lat="45.8525070" lon="9.2063470">
	<ele>845.20</ele>
	<time>2025-02-15T12:28:28.000Z</time>
</trkpt>
<trkpt lat="45.8525100" lon="9.2063510">
	<ele>845.20</ele>
	<time>2025-02-15T12:28:29.000Z</time>
</trkpt>
<trkpt lat="45.8525100" lon="9.2063530">
	<ele>844.80</ele>
	<time>2025-02-15T12:28:30.000Z</time>
</trkpt>
<trkpt lat="45.8525220" lon="9.2063650">
	<ele>844.60</ele>
	<time>2025-02-15T12:28:31.000Z</time>
</trkpt>
<trkpt lat="45.8525300" lon="9.2063780">
	<ele>844.40</ele>
	<time>2025-02-15T12:28:32.000Z</time>
</trkpt>
<trkpt lat="45.8525320" lon="9.2063900">
	<ele>844.20</ele>
	<time>2025-02-15T12:28:33.000Z</time>
</trkpt>
<trkpt lat="45.8525350" lon="9.2064020">
	<ele>844.00</ele>
	<time>2025-02-15T12:28:34.000Z</time>
</trkpt>
<trkpt lat="45.8525380" lon="9.2064070">
	<ele>843.80</ele>
	<time>2025-02-15T12:28:35.000Z</time>
</trkpt>
<trkpt lat="45.8525360" lon="9.2064060">
	<ele>843.60</ele>
	<time>2025-02-15T12:28:36.000Z</time>
</trkpt>
<trkpt lat="45.8525300" lon="9.2064030">
	<ele>843.40</ele>
	<time>2025-02-15T12:28:37.000Z</time>
</trkpt>
<trkpt lat="45.8525250" lon="9.2063850">
	<ele>843.00</ele>
	<time>2025-02-15T12:28:38.000Z</time>
</trkpt>
<trkpt lat="45.8525170" lon="9.2063670">
	<ele>842.80</ele>
	<time>2025-02-15T12:28:39.000Z</time>
</trkpt>
<trkpt lat="45.8525070" lon="9.2063540">
	<ele>842.60</ele>
	<time>2025-02-15T12:28:40.000Z</time>
</trkpt>
<trkpt lat="45.8524980" lon="9.2063470">
	<ele>842.40</ele>
	<time>2025-02-15T12:28:41.000Z</time>
</trkpt>
<trkpt lat="45.8524940" lon="9.2063480">
	<ele>842.60</ele>
	<time>2025-02-15T12:28:42.000Z</time>
</trkpt>
<trkpt lat="45.8524840" lon="9.2063460">
	<ele>842.60</ele>
	<time>2025-02-15T12:28:43.000Z</time>
</trkpt>
<trkpt lat="45.8524730" lon="9.2063510">
	<ele>842.40</ele>
	<time>2025-02-15T12:28:44.000Z</time>
</trkpt>
<trkpt lat="45.8524680" lon="9.2063570">
	<ele>842.40</ele>
	<time>2025-02-15T12:28:45.000Z</time>
</trkpt>
<trkpt lat="45.8524620" lon="9.2063540">
	<ele>842.40</ele>
	<time>2025-02-15T12:28:46.000Z</time>
</trkpt>
<trkpt lat="45.8524550" lon="9.2063450">
	<ele>842.20</ele>
	<time>2025-02-15T12:28:47.000Z</time>
</trkpt>
<trkpt lat="45.8524520" lon="9.2063420">
	<ele>842.00</ele>
	<time>2025-02-15T12:28:48.000Z</time>
</trkpt>
<trkpt lat="45.8524480" lon="9.2063420">
	<ele>841.60</ele>
	<time>2025-02-15T12:28:49.000Z</time>
</trkpt>
<trkpt lat="45.8524420" lon="9.2063440">
	<ele>841.40</ele>
	<time>2025-02-15T12:28:50.000Z</time>
</trkpt>
<trkpt lat="45.8524380" lon="9.2063420">
	<ele>841.00</ele>
	<time>2025-02-15T12:28:51.000Z</time>
</trkpt>
<trkpt lat="45.8524270" lon="9.2063440">
	<ele>840.60</ele>
	<time>2025-02-15T12:28:52.000Z</time>
</trkpt>
<trkpt lat="45.8524230" lon="9.2063410">
	<ele>840.40</ele>
	<time>2025-02-15T12:28:53.000Z</time>
</trkpt>
<trkpt lat="45.8524130" lon="9.2063290">
	<ele>840.40</ele>
	<time>2025-02-15T12:28:54.000Z</time>
</trkpt>
<trkpt lat="45.8524070" lon="9.2063300">
	<ele>840.20</ele>
	<time>2025-02-15T12:28:55.000Z</time>
</trkpt>
<trkpt lat="45.8523980" lon="9.2063370">
	<ele>840.00</ele>
	<time>2025-02-15T12:28:56.000Z</time>
</trkpt>
<trkpt lat="45.8523860" lon="9.2063450">
	<ele>839.60</ele>
	<time>2025-02-15T12:28:57.000Z</time>
</trkpt>
<trkpt lat="45.8523750" lon="9.2063480">
	<ele>839.60</ele>
	<time>2025-02-15T12:28:58.000Z</time>
</trkpt>
<trkpt lat="45.8523710" lon="9.2063500">
	<ele>839.40</ele>
	<time>2025-02-15T12:28:59.000Z</time>
</trkpt>
<trkpt lat="45.8523780" lon="9.2063410">
	<ele>839.40</ele>
	<time>2025-02-15T12:29:00.000Z</time>
</trkpt>
<trkpt lat="45.8523740" lon="9.2063410">
	<ele>839.20</ele>
	<time>2025-02-15T12:29:01.000Z</time>
</trkpt>
<trkpt lat="45.8523700" lon="9.2063420">
	<ele>839.00</ele>
	<time>2025-02-15T12:29:02.000Z</time>
</trkpt>
<trkpt lat="45.8523630" lon="9.2063350">
	<ele>838.80</ele>
	<time>2025-02-15T12:29:03.000Z</time>
</trkpt>
<trkpt lat="45.8523670" lon="9.2063220">
	<ele>838.80</ele>
	<time>2025-02-15T12:29:04.000Z</time>
</trkpt>
<trkpt lat="45.8523650" lon="9.2063250">
	<ele>838.60</ele>
	<time>2025-02-15T12:29:05.000Z</time>
</trkpt>
<trkpt lat="45.8523560" lon="9.2063390">
	<ele>838.60</ele>
	<time>2025-02-15T12:29:06.000Z</time>
</trkpt>
<trkpt lat="45.8523450" lon="9.2063490">
	<ele>838.20</ele>
	<time>2025-02-15T12:29:07.000Z</time>
</trkpt>
<trkpt lat="45.8523290" lon="9.2063580">
	<ele>838.20</ele>
	<time>2025-02-15T12:29:08.000Z</time>
</trkpt>
<trkpt lat="45.8523160" lon="9.2063670">
	<ele>838.00</ele>
	<time>2025-02-15T12:29:09.000Z</time>
</trkpt>
<trkpt lat="45.8523040" lon="9.2063720">
	<ele>837.80</ele>
	<time>2025-02-15T12:29:10.000Z</time>
</trkpt>
<trkpt lat="45.8522900" lon="9.2063690">
	<ele>837.40</ele>
	<time>2025-02-15T12:29:11.000Z</time>
</trkpt>
<trkpt lat="45.8522840" lon="9.2063710">
	<ele>837.40</ele>
	<time>2025-02-15T12:29:12.000Z</time>
</trkpt>
<trkpt lat="45.8522800" lon="9.2063750">
	<ele>837.20</ele>
	<time>2025-02-15T12:29:13.000Z</time>
</trkpt>
<trkpt lat="45.8522790" lon="9.2063950">
	<ele>837.00</ele>
	<time>2025-02-15T12:29:14.000Z</time>
</trkpt>
<trkpt lat="45.8522760" lon="9.2064080">
	<ele>836.80</ele>
	<time>2025-02-15T12:29:15.000Z</time>
</trkpt>
<trkpt lat="45.8522630" lon="9.2064120">
	<ele>836.60</ele>
	<time>2025-02-15T12:29:16.000Z</time>
</trkpt>
<trkpt lat="45.8522530" lon="9.2064200">
	<ele>836.40</ele>
	<time>2025-02-15T12:29:17.000Z</time>
</trkpt>
<trkpt lat="45.8522490" lon="9.2064280">
	<ele>836.40</ele>
	<time>2025-02-15T12:29:18.000Z</time>
</trkpt>
<trkpt lat="45.8522470" lon="9.2064500">
	<ele>836.40</ele>
	<time>2025-02-15T12:29:19.000Z</time>
</trkpt>
<trkpt lat="45.8522430" lon="9.2064530">
	<ele>836.20</ele>
	<time>2025-02-15T12:29:20.000Z</time>
</trkpt>
<trkpt lat="45.8522380" lon="9.2064540">
	<ele>836.00</ele>
	<time>2025-02-15T12:29:21.000Z</time>
</trkpt>
<trkpt lat="45.8522450" lon="9.2064690">
	<ele>836.20</ele>
	<time>2025-02-15T12:29:22.000Z</time>
</trkpt>
<trkpt lat="45.8522510" lon="9.2064830">
	<ele>836.20</ele>
	<time>2025-02-15T12:29:23.000Z</time>
</trkpt>
<trkpt lat="45.8522700" lon="9.2064970">
	<ele>836.00</ele>
	<time>2025-02-15T12:29:24.000Z</time>
</trkpt>
<trkpt lat="45.8522850" lon="9.2065130">
	<ele>836.00</ele>
	<time>2025-02-15T12:29:25.000Z</time>
</trkpt>
<trkpt lat="45.8522980" lon="9.2065300">
	<ele>835.40</ele>
	<time>2025-02-15T12:29:26.000Z</time>
</trkpt>
<trkpt lat="45.8522990" lon="9.2065360">
	<ele>835.20</ele>
	<time>2025-02-15T12:29:27.000Z</time>
</trkpt>
<trkpt lat="45.8522990" lon="9.2065420">
	<ele>834.80</ele>
	<time>2025-02-15T12:29:28.000Z</time>
</trkpt>
<trkpt lat="45.8522960" lon="9.2065490">
	<ele>834.60</ele>
	<time>2025-02-15T12:29:29.000Z</time>
</trkpt>
<trkpt lat="45.8522920" lon="9.2065530">
	<ele>834.60</ele>
	<time>2025-02-15T12:29:30.000Z</time>
</trkpt>
<trkpt lat="45.8522930" lon="9.2065630">
	<ele>834.60</ele>
	<time>2025-02-15T12:29:31.000Z</time>
</trkpt>
<trkpt lat="45.8522890" lon="9.2065750">
	<ele>834.60</ele>
	<time>2025-02-15T12:29:32.000Z</time>
</trkpt>
<trkpt lat="45.8522890" lon="9.2065850">
	<ele>834.40</ele>
	<time>2025-02-15T12:29:33.000Z</time>
</trkpt>
<trkpt lat="45.8522910" lon="9.2065870">
	<ele>834.40</ele>
	<time>2025-02-15T12:29:34.000Z</time>
</trkpt>
<trkpt lat="45.8522920" lon="9.2065910">
	<ele>834.40</ele>
	<time>2025-02-15T12:29:35.000Z</time>
</trkpt>
<trkpt lat="45.8522910" lon="9.2065950">
	<ele>834.40</ele>
	<time>2025-02-15T12:29:36.000Z</time>
</trkpt>
<trkpt lat="45.8522930" lon="9.2065950">
	<ele>834.40</ele>
	<time>2025-02-15T12:29:37.000Z</time>
</trkpt>
<trkpt lat="45.8522910" lon="9.2065940">
	<ele>834.40</ele>
	<time>2025-02-15T12:29:38.000Z</time>
</trkpt>
<trkpt lat="45.8522910" lon="9.2065950">
	<ele>834.40</ele>
	<time>2025-02-15T12:29:39.000Z</time>
</trkpt>
<trkpt lat="45.8522970" lon="9.2066050">
	<ele>834.40</ele>
	<time>2025-02-15T12:29:40.000Z</time>
</trkpt>
<trkpt lat="45.8522990" lon="9.2066200">
	<ele>834.40</ele>
	<time>2025-02-15T12:29:41.000Z</time>
</trkpt>
<trkpt lat="45.8522970" lon="9.2066250">
	<ele>834.20</ele>
	<time>2025-02-15T12:29:42.000Z</time>
</trkpt>
<trkpt lat="45.8522960" lon="9.2066450">
	<ele>834.20</ele>
	<time>2025-02-15T12:29:43.000Z</time>
</trkpt>
<trkpt lat="45.8522970" lon="9.2066470">
	<ele>834.20</ele>
	<time>2025-02-15T12:29:44.000Z</time>
</trkpt>
<trkpt lat="45.8522930" lon="9.2066600">
	<ele>834.00</ele>
	<time>2025-02-15T12:29:45.000Z</time>
</trkpt>
<trkpt lat="45.8522940" lon="9.2066680">
	<ele>833.80</ele>
	<time>2025-02-15T12:29:46.000Z</time>
</trkpt>
<trkpt lat="45.8523030" lon="9.2066830">
	<ele>833.80</ele>
	<time>2025-02-15T12:29:47.000Z</time>
</trkpt>
<trkpt lat="45.8523220" lon="9.2066960">
	<ele>833.60</ele>
	<time>2025-02-15T12:29:48.000Z</time>
</trkpt>
<trkpt lat="45.8523410" lon="9.2067120">
	<ele>833.60</ele>
	<time>2025-02-15T12:29:49.000Z</time>
</trkpt>
<trkpt lat="45.8523440" lon="9.2067140">
	<ele>833.40</ele>
	<time>2025-02-15T12:29:50.000Z</time>
</trkpt>
<trkpt lat="45.8523460" lon="9.2067260">
	<ele>833.40</ele>
	<time>2025-02-15T12:29:51.000Z</time>
</trkpt>
<trkpt lat="45.8523480" lon="9.2067330">
	<ele>833.20</ele>
	<time>2025-02-15T12:29:52.000Z</time>
</trkpt>
<trkpt lat="45.8523480" lon="9.2067350">
	<ele>833.00</ele>
	<time>2025-02-15T12:29:53.000Z</time>
</trkpt>
<trkpt lat="45.8523460" lon="9.2067470">
	<ele>833.00</ele>
	<time>2025-02-15T12:29:54.000Z</time>
</trkpt>
<trkpt lat="45.8523450" lon="9.2067550">
	<ele>832.80</ele>
	<time>2025-02-15T12:29:55.000Z</time>
</trkpt>
<trkpt lat="45.8523420" lon="9.2067610">
	<ele>832.80</ele>
	<time>2025-02-15T12:29:56.000Z</time>
</trkpt>
<trkpt lat="45.8523430" lon="9.2067670">
	<ele>832.60</ele>
	<time>2025-02-15T12:29:57.000Z</time>
</trkpt>
<trkpt lat="45.8523440" lon="9.2067750">
	<ele>832.20</ele>
	<time>2025-02-15T12:29:58.000Z</time>
</trkpt>
<trkpt lat="45.8523410" lon="9.2067770">
	<ele>832.20</ele>
	<time>2025-02-15T12:29:59.000Z</time>
</trkpt>
<trkpt lat="45.8523440" lon="9.2067790">
	<ele>832.00</ele>
	<time>2025-02-15T12:30:00.000Z</time>
</trkpt>
<trkpt lat="45.8523450" lon="9.2067900">
	<ele>831.80</ele>
	<time>2025-02-15T12:30:01.000Z</time>
</trkpt>
<trkpt lat="45.8523480" lon="9.2067990">
	<ele>831.60</ele>
	<time>2025-02-15T12:30:02.000Z</time>
</trkpt>
<trkpt lat="45.8523500" lon="9.2068110">
	<ele>831.40</ele>
	<time>2025-02-15T12:30:03.000Z</time>
</trkpt>
<trkpt lat="45.8523600" lon="9.2068230">
	<ele>831.40</ele>
	<time>2025-02-15T12:30:04.000Z</time>
</trkpt>
<trkpt lat="45.8523590" lon="9.2068250">
	<ele>831.40</ele>
	<time>2025-02-15T12:30:05.000Z</time>
</trkpt>
<trkpt lat="45.8523600" lon="9.2068340">
	<ele>831.20</ele>
	<time>2025-02-15T12:30:06.000Z</time>
</trkpt>
<trkpt lat="45.8523630" lon="9.2068430">
	<ele>831.00</ele>
	<time>2025-02-15T12:30:07.000Z</time>
</trkpt>
<trkpt lat="45.8523660" lon="9.2068530">
	<ele>830.60</ele>
	<time>2025-02-15T12:30:08.000Z</time>
</trkpt>
<trkpt lat="45.8523710" lon="9.2068670">
	<ele>830.40</ele>
	<time>2025-02-15T12:30:09.000Z</time>
</trkpt>
<trkpt lat="45.8523690" lon="9.2068780">
	<ele>830.20</ele>
	<time>2025-02-15T12:30:10.000Z</time>
</trkpt>
<trkpt lat="45.8523690" lon="9.2068870">
	<ele>830.20</ele>
	<time>2025-02-15T12:30:11.000Z</time>
</trkpt>
<trkpt lat="45.8523630" lon="9.2068950">
	<ele>830.00</ele>
	<time>2025-02-15T12:30:12.000Z</time>
</trkpt>
<trkpt lat="45.8523580" lon="9.2068970">
	<ele>830.00</ele>
	<time>2025-02-15T12:30:13.000Z</time>
</trkpt>
<trkpt lat="45.8523600" lon="9.2069000">
	<ele>829.80</ele>
	<time>2025-02-15T12:30:14.000Z</time>
</trkpt>
<trkpt lat="45.8523590" lon="9.2069030">
	<ele>829.80</ele>
	<time>2025-02-15T12:30:15.000Z</time>
</trkpt>
<trkpt lat="45.8523590" lon="9.2069070">
	<ele>829.60</ele>
	<time>2025-02-15T12:30:16.000Z</time>
</trkpt>
<trkpt lat="45.8523570" lon="9.2069110">
	<ele>829.20</ele>
	<time>2025-02-15T12:30:17.000Z</time>
</trkpt>
<trkpt lat="45.8523580" lon="9.2069200">
	<ele>829.00</ele>
	<time>2025-02-15T12:30:18.000Z</time>
</trkpt>
<trkpt lat="45.8523590" lon="9.2069240">
	<ele>828.80</ele>
	<time>2025-02-15T12:30:19.000Z</time>
</trkpt>
<trkpt lat="45.8523590" lon="9.2069300">
	<ele>828.80</ele>
	<time>2025-02-15T12:30:20.000Z</time>
</trkpt>
<trkpt lat="45.8523640" lon="9.2069400">
	<ele>828.40</ele>
	<time>2025-02-15T12:30:21.000Z</time>
</trkpt>
<trkpt lat="45.8523720" lon="9.2069530">
	<ele>828.20</ele>
	<time>2025-02-15T12:30:22.000Z</time>
</trkpt>
<trkpt lat="45.8523790" lon="9.2069650">
	<ele>828.20</ele>
	<time>2025-02-15T12:30:23.000Z</time>
</trkpt>
<trkpt lat="45.8523810" lon="9.2069670">
	<ele>828.00</ele>
	<time>2025-02-15T12:30:24.000Z</time>
</trkpt>
<trkpt lat="45.8523760" lon="9.2069740">
	<ele>828.00</ele>
	<time>2025-02-15T12:30:25.000Z</time>
</trkpt>
<trkpt lat="45.8523770" lon="9.2069830">
	<ele>827.60</ele>
	<time>2025-02-15T12:30:26.000Z</time>
</trkpt>
<trkpt lat="45.8523780" lon="9.2069850">
	<ele>827.40</ele>
	<time>2025-02-15T12:30:27.000Z</time>
</trkpt>
<trkpt lat="45.8523760" lon="9.2069850">
	<ele>827.20</ele>
	<time>2025-02-15T12:30:28.000Z</time>
</trkpt>
<trkpt lat="45.8523750" lon="9.2069840">
	<ele>827.00</ele>
	<time>2025-02-15T12:30:29.000Z</time>
</trkpt>
<trkpt lat="45.8523700" lon="9.2069830">
	<ele>826.80</ele>
	<time>2025-02-15T12:30:30.000Z</time>
</trkpt>
<trkpt lat="45.8523670" lon="9.2069840">
	<ele>826.80</ele>
	<time>2025-02-15T12:30:31.000Z</time>
</trkpt>
<trkpt lat="45.8523670" lon="9.2069890">
	<ele>826.80</ele>
	<time>2025-02-15T12:30:32.000Z</time>
</trkpt>
<trkpt lat="45.8523640" lon="9.2069920">
	<ele>826.40</ele>
	<time>2025-02-15T12:30:33.000Z</time>
</trkpt>
<trkpt lat="45.8523600" lon="9.2070000">
	<ele>826.20</ele>
	<time>2025-02-15T12:30:34.000Z</time>
</trkpt>
<trkpt lat="45.8523540" lon="9.2070000">
	<ele>825.80</ele>
	<time>2025-02-15T12:30:35.000Z</time>
</trkpt>
<trkpt lat="45.8523590" lon="9.2070160">
	<ele>825.80</ele>
	<time>2025-02-15T12:30:36.000Z</time>
</trkpt>
<trkpt lat="45.8523690" lon="9.2070310">
	<ele>825.60</ele>
	<time>2025-02-15T12:30:37.000Z</time>
</trkpt>
<trkpt lat="45.8523680" lon="9.2070330">
	<ele>825.60</ele>
	<time>2025-02-15T12:30:38.000Z</time>
</trkpt>
<trkpt lat="45.8523690" lon="9.2070370">
	<ele>825.40</ele>
	<time>2025-02-15T12:30:39.000Z</time>
</trkpt>
<trkpt lat="45.8523690" lon="9.2070390">
	<ele>825.20</ele>
	<time>2025-02-15T12:30:40.000Z</time>
</trkpt>
<trkpt lat="45.8523710" lon="9.2070490">
	<ele>825.20</ele>
	<time>2025-02-15T12:30:41.000Z</time>
</trkpt>
<trkpt lat="45.8523700" lon="9.2070560">
	<ele>825.00</ele>
	<time>2025-02-15T12:30:42.000Z</time>
</trkpt>
<trkpt lat="45.8523750" lon="9.2070630">
	<ele>824.60</ele>
	<time>2025-02-15T12:30:43.000Z</time>
</trkpt>
<trkpt lat="45.8523770" lon="9.2070680">
	<ele>824.40</ele>
	<time>2025-02-15T12:30:44.000Z</time>
</trkpt>
<trkpt lat="45.8523800" lon="9.2070700">
	<ele>824.20</ele>
	<time>2025-02-15T12:30:45.000Z</time>
</trkpt>
<trkpt lat="45.8523840" lon="9.2070780">
	<ele>824.00</ele>
	<time>2025-02-15T12:30:46.000Z</time>
</trkpt>
<trkpt lat="45.8523870" lon="9.2070830">
	<ele>823.80</ele>
	<time>2025-02-15T12:30:47.000Z</time>
</trkpt>
<trkpt lat="45.8523910" lon="9.2070900">
	<ele>823.80</ele>
	<time>2025-02-15T12:30:48.000Z</time>
</trkpt>
<trkpt lat="45.8523950" lon="9.2070990">
	<ele>823.80</ele>
	<time>2025-02-15T12:30:49.000Z</time>
</trkpt>
<trkpt lat="45.8523940" lon="9.2071030">
	<ele>823.80</ele>
	<time>2025-02-15T12:30:50.000Z</time>
</trkpt>
<trkpt lat="45.8524020" lon="9.2071140">
	<ele>823.60</ele>
	<time>2025-02-15T12:30:51.000Z</time>
</trkpt>
<trkpt lat="45.8524060" lon="9.2071220">
	<ele>823.40</ele>
	<time>2025-02-15T12:30:52.000Z</time>
</trkpt>
<trkpt lat="45.8524090" lon="9.2071380">
	<ele>823.20</ele>
	<time>2025-02-15T12:30:53.000Z</time>
</trkpt>
<trkpt lat="45.8524080" lon="9.2071450">
	<ele>822.80</ele>
	<time>2025-02-15T12:30:54.000Z</time>
</trkpt>
<trkpt lat="45.8524060" lon="9.2071520">
	<ele>822.60</ele>
	<time>2025-02-15T12:30:55.000Z</time>
</trkpt>
<trkpt lat="45.8524040" lon="9.2071550">
	<ele>822.40</ele>
	<time>2025-02-15T12:30:56.000Z</time>
</trkpt>
<trkpt lat="45.8524020" lon="9.2071570">
	<ele>822.20</ele>
	<time>2025-02-15T12:30:57.000Z</time>
</trkpt>
<trkpt lat="45.8524070" lon="9.2071650">
	<ele>822.00</ele>
	<time>2025-02-15T12:30:58.000Z</time>
</trkpt>
<trkpt lat="45.8524070" lon="9.2071700">
	<ele>821.80</ele>
	<time>2025-02-15T12:30:59.000Z</time>
</trkpt>
<trkpt lat="45.8524080" lon="9.2071830">
	<ele>821.80</ele>
	<time>2025-02-15T12:31:00.000Z</time>
</trkpt>
<trkpt lat="45.8524070" lon="9.2071880">
	<ele>821.60</ele>
	<time>2025-02-15T12:31:01.000Z</time>
</trkpt>
<trkpt lat="45.8524110" lon="9.2072020">
	<ele>821.40</ele>
	<time>2025-02-15T12:31:02.000Z</time>
</trkpt>
<trkpt lat="45.8524180" lon="9.2072080">
	<ele>821.40</ele>
	<time>2025-02-15T12:31:03.000Z</time>
</trkpt>
<trkpt lat="45.8524220" lon="9.2072120">
	<ele>821.40</ele>
	<time>2025-02-15T12:31:04.000Z</time>
</trkpt>
<trkpt lat="45.8524330" lon="9.2072220">
	<ele>821.00</ele>
	<time>2025-02-15T12:31:05.000Z</time>
</trkpt>
<trkpt lat="45.8524360" lon="9.2072240">
	<ele>820.80</ele>
	<time>2025-02-15T12:31:06.000Z</time>
</trkpt>
<trkpt lat="45.8524410" lon="9.2072420">
	<ele>820.60</ele>
	<time>2025-02-15T12:31:07.000Z</time>
</trkpt>
<trkpt lat="45.8524360" lon="9.2072370">
	<ele>820.40</ele>
	<time>2025-02-15T12:31:08.000Z</time>
</trkpt>
<trkpt lat="45.8524270" lon="9.2072430">
	<ele>820.00</ele>
	<time>2025-02-15T12:31:09.000Z</time>
</trkpt>
<trkpt lat="45.8524290" lon="9.2072540">
	<ele>819.80</ele>
	<time>2025-02-15T12:31:10.000Z</time>
</trkpt>
<trkpt lat="45.8524390" lon="9.2072660">
	<ele>819.40</ele>
	<time>2025-02-15T12:31:11.000Z</time>
</trkpt>
<trkpt lat="45.8524490" lon="9.2072800">
	<ele>819.20</ele>
	<time>2025-02-15T12:31:12.000Z</time>
</trkpt>
<trkpt lat="45.8524490" lon="9.2072890">
	<ele>819.00</ele>
	<time>2025-02-15T12:31:13.000Z</time>
</trkpt>
<trkpt lat="45.8524480" lon="9.2072970">
	<ele>819.00</ele>
	<time>2025-02-15T12:31:14.000Z</time>
</trkpt>
<trkpt lat="45.8524500" lon="9.2073010">
	<ele>818.80</ele>
	<time>2025-02-15T12:31:15.000Z</time>
</trkpt>
<trkpt lat="45.8524660" lon="9.2073040">
	<ele>818.80</ele>
	<time>2025-02-15T12:31:16.000Z</time>
</trkpt>
<trkpt lat="45.8524670" lon="9.2073060">
	<ele>818.80</ele>
	<time>2025-02-15T12:31:17.000Z</time>
</trkpt>
<trkpt lat="45.8524790" lon="9.2073250">
	<ele>818.80</ele>
	<time>2025-02-15T12:31:18.000Z</time>
</trkpt>
<trkpt lat="45.8524930" lon="9.2073440">
	<ele>818.80</ele>
	<time>2025-02-15T12:31:19.000Z</time>
</trkpt>
<trkpt lat="45.8525000" lon="9.2073440">
	<ele>818.40</ele>
	<time>2025-02-15T12:31:20.000Z</time>
</trkpt>
<trkpt lat="45.8525090" lon="9.2073480">
	<ele>818.20</ele>
	<time>2025-02-15T12:31:21.000Z</time>
</trkpt>
<trkpt lat="45.8525070" lon="9.2073490">
	<ele>817.80</ele>
	<time>2025-02-15T12:31:22.000Z</time>
</trkpt>
<trkpt lat="45.8525040" lon="9.2073600">
	<ele>817.40</ele>
	<time>2025-02-15T12:31:23.000Z</time>
</trkpt>
<trkpt lat="45.8525110" lon="9.2073800">
	<ele>817.00</ele>
	<time>2025-02-15T12:31:24.000Z</time>
</trkpt>
<trkpt lat="45.8525110" lon="9.2073900">
	<ele>816.80</ele>
	<time>2025-02-15T12:31:25.000Z</time>
</trkpt>
<trkpt lat="45.8525120" lon="9.2073950">
	<ele>816.80</ele>
	<time>2025-02-15T12:31:26.000Z</time>
</trkpt>
<trkpt lat="45.8525260" lon="9.2073920">
	<ele>816.40</ele>
	<time>2025-02-15T12:31:27.000Z</time>
</trkpt>
<trkpt lat="45.8525340" lon="9.2073980">
	<ele>816.40</ele>
	<time>2025-02-15T12:31:28.000Z</time>
</trkpt>
<trkpt lat="45.8525330" lon="9.2074070">
	<ele>816.20</ele>
	<time>2025-02-15T12:31:29.000Z</time>
</trkpt>
<trkpt lat="45.8525300" lon="9.2074040">
	<ele>816.00</ele>
	<time>2025-02-15T12:31:30.000Z</time>
</trkpt>
<trkpt lat="45.8525290" lon="9.2074060">
	<ele>816.00</ele>
	<time>2025-02-15T12:31:31.000Z</time>
</trkpt>
<trkpt lat="45.8525410" lon="9.2074140">
	<ele>815.80</ele>
	<time>2025-02-15T12:31:32.000Z</time>
</trkpt>
<trkpt lat="45.8525500" lon="9.2074280">
	<ele>815.80</ele>
	<time>2025-02-15T12:31:33.000Z</time>
</trkpt>
<trkpt lat="45.8525550" lon="9.2074350">
	<ele>815.60</ele>
	<time>2025-02-15T12:31:34.000Z</time>
</trkpt>
<trkpt lat="45.8525560" lon="9.2074310">
	<ele>815.40</ele>
	<time>2025-02-15T12:31:35.000Z</time>
</trkpt>
<trkpt lat="45.8525560" lon="9.2074430">
	<ele>815.20</ele>
	<time>2025-02-15T12:31:36.000Z</time>
</trkpt>
<trkpt lat="45.8525560" lon="9.2074500">
	<ele>814.80</ele>
	<time>2025-02-15T12:31:37.000Z</time>
</trkpt>
<trkpt lat="45.8525560" lon="9.2074550">
	<ele>814.60</ele>
	<time>2025-02-15T12:31:38.000Z</time>
</trkpt>
<trkpt lat="45.8525610" lon="9.2074920">
	<ele>814.40</ele>
	<time>2025-02-15T12:31:39.000Z</time>
</trkpt>
<trkpt lat="45.8525630" lon="9.2074990">
	<ele>814.20</ele>
	<time>2025-02-15T12:31:40.000Z</time>
</trkpt>
<trkpt lat="45.8525780" lon="9.2074960">
	<ele>814.20</ele>
	<time>2025-02-15T12:31:41.000Z</time>
</trkpt>
<trkpt lat="45.8525870" lon="9.2075010">
	<ele>814.20</ele>
	<time>2025-02-15T12:31:42.000Z</time>
</trkpt>
<trkpt lat="45.8525780" lon="9.2075020">
	<ele>814.00</ele>
	<time>2025-02-15T12:31:43.000Z</time>
</trkpt>
<trkpt lat="45.8525650" lon="9.2075030">
	<ele>813.80</ele>
	<time>2025-02-15T12:31:44.000Z</time>
</trkpt>
<trkpt lat="45.8525630" lon="9.2075060">
	<ele>813.60</ele>
	<time>2025-02-15T12:31:45.000Z</time>
</trkpt>
<trkpt lat="45.8525640" lon="9.2075090">
	<ele>813.40</ele>
	<time>2025-02-15T12:31:46.000Z</time>
</trkpt>
<trkpt lat="45.8525640" lon="9.2075200">
	<ele>813.00</ele>
	<time>2025-02-15T12:31:47.000Z</time>
</trkpt>
<trkpt lat="45.8525640" lon="9.2075240">
	<ele>812.80</ele>
	<time>2025-02-15T12:31:48.000Z</time>
</trkpt>
<trkpt lat="45.8525730" lon="9.2075370">
	<ele>812.60</ele>
	<time>2025-02-15T12:31:49.000Z</time>
</trkpt>
<trkpt lat="45.8525760" lon="9.2075520">
	<ele>812.40</ele>
	<time>2025-02-15T12:31:50.000Z</time>
</trkpt>
<trkpt lat="45.8525810" lon="9.2075670">
	<ele>812.00</ele>
	<time>2025-02-15T12:31:51.000Z</time>
</trkpt>
<trkpt lat="45.8525930" lon="9.2075840">
	<ele>811.80</ele>
	<time>2025-02-15T12:31:52.000Z</time>
</trkpt>
<trkpt lat="45.8526130" lon="9.2076060">
	<ele>811.80</ele>
	<time>2025-02-15T12:31:53.000Z</time>
</trkpt>
<trkpt lat="45.8526200" lon="9.2076230">
	<ele>811.60</ele>
	<time>2025-02-15T12:31:54.000Z</time>
</trkpt>
<trkpt lat="45.8526240" lon="9.2076400">
	<ele>811.40</ele>
	<time>2025-02-15T12:31:55.000Z</time>
</trkpt>
<trkpt lat="45.8526190" lon="9.2076510">
	<ele>811.20</ele>
	<time>2025-02-15T12:31:56.000Z</time>
</trkpt>
<trkpt lat="45.8526160" lon="9.2076580">
	<ele>811.20</ele>
	<time>2025-02-15T12:31:57.000Z</time>
</trkpt>
<trkpt lat="45.8526120" lon="9.2076600">
	<ele>811.20</ele>
	<time>2025-02-15T12:31:58.000Z</time>
</trkpt>
<trkpt lat="45.8526010" lon="9.2076620">
	<ele>811.00</ele>
	<time>2025-02-15T12:31:59.000Z</time>
</trkpt>
<trkpt lat="45.8525870" lon="9.2076630">
	<ele>811.00</ele>
	<time>2025-02-15T12:32:00.000Z</time>
</trkpt>
<trkpt lat="45.8525800" lon="9.2076620">
	<ele>810.80</ele>
	<time>2025-02-15T12:32:01.000Z</time>
</trkpt>
<trkpt lat="45.8525840" lon="9.2076780">
	<ele>810.80</ele>
	<time>2025-02-15T12:32:02.000Z</time>
</trkpt>
<trkpt lat="45.8525890" lon="9.2076860">
	<ele>810.80</ele>
	<time>2025-02-15T12:32:03.000Z</time>
</trkpt>
<trkpt lat="45.8525930" lon="9.2076900">
	<ele>810.80</ele>
	<time>2025-02-15T12:32:04.000Z</time>
</trkpt>
<trkpt lat="45.8525900" lon="9.2076900">
	<ele>810.80</ele>
	<time>2025-02-15T12:32:05.000Z</time>
</trkpt>
<trkpt lat="45.8525900" lon="9.2076900">
	<ele>810.80</ele>
	<time>2025-02-15T12:32:06.000Z</time>
</trkpt>
<trkpt lat="45.8525940" lon="9.2077010">
	<ele>810.80</ele>
	<time>2025-02-15T12:32:07.000Z</time>
</trkpt>
<trkpt lat="45.8525930" lon="9.2077060">
	<ele>810.80</ele>
	<time>2025-02-15T12:32:08.000Z</time>
</trkpt>
<trkpt lat="45.8525970" lon="9.2077070">
	<ele>810.80</ele>
	<time>2025-02-15T12:32:09.000Z</time>
</trkpt>
<trkpt lat="45.8526080" lon="9.2077140">
	<ele>810.80</ele>
	<time>2025-02-15T12:32:10.000Z</time>
</trkpt>
<trkpt lat="45.8526240" lon="9.2077230">
	<ele>810.40</ele>
	<time>2025-02-15T12:32:11.000Z</time>
</trkpt>
<trkpt lat="45.8526230" lon="9.2077270">
	<ele>810.40</ele>
	<time>2025-02-15T12:32:12.000Z</time>
</trkpt>
<trkpt lat="45.8526270" lon="9.2077340">
	<ele>810.40</ele>
	<time>2025-02-15T12:32:13.000Z</time>
</trkpt>
<trkpt lat="45.8526270" lon="9.2077410">
	<ele>810.20</ele>
	<time>2025-02-15T12:32:14.000Z</time>
</trkpt>
<trkpt lat="45.8526240" lon="9.2077490">
	<ele>810.20</ele>
	<time>2025-02-15T12:32:15.000Z</time>
</trkpt>
<trkpt lat="45.8526220" lon="9.2077590">
	<ele>810.20</ele>
	<time>2025-02-15T12:32:16.000Z</time>
</trkpt>
<trkpt lat="45.8526220" lon="9.2077690">
	<ele>810.00</ele>
	<time>2025-02-15T12:32:17.000Z</time>
</trkpt>
<trkpt lat="45.8526210" lon="9.2077760">
	<ele>809.60</ele>
	<time>2025-02-15T12:32:18.000Z</time>
</trkpt>
<trkpt lat="45.8526210" lon="9.2077810">
	<ele>809.40</ele>
	<time>2025-02-15T12:32:19.000Z</time>
</trkpt>
<trkpt lat="45.8526220" lon="9.2077890">
	<ele>809.20</ele>
	<time>2025-02-15T12:32:20.000Z</time>
</trkpt>
<trkpt lat="45.8526260" lon="9.2077980">
	<ele>809.20</ele>
	<time>2025-02-15T12:32:21.000Z</time>
</trkpt>
<trkpt lat="45.8526280" lon="9.2078050">
	<ele>808.80</ele>
	<time>2025-02-15T12:32:22.000Z</time>
</trkpt>
<trkpt lat="45.8526350" lon="9.2078170">
	<ele>808.60</ele>
	<time>2025-02-15T12:32:23.000Z</time>
</trkpt>
<trkpt lat="45.8526480" lon="9.2078200">
	<ele>808.20</ele>
	<time>2025-02-15T12:32:24.000Z</time>
</trkpt>
<trkpt lat="45.8526550" lon="9.2078280">
	<ele>808.20</ele>
	<time>2025-02-15T12:32:25.000Z</time>
</trkpt>
<trkpt lat="45.8526590" lon="9.2078370">
	<ele>807.80</ele>
	<time>2025-02-15T12:32:26.000Z</time>
</trkpt>
<trkpt lat="45.8526570" lon="9.2078400">
	<ele>808.00</ele>
	<time>2025-02-15T12:32:27.000Z</time>
</trkpt>
<trkpt lat="45.8526480" lon="9.2078420">
	<ele>807.80</ele>
	<time>2025-02-15T12:32:28.000Z</time>
</trkpt>
<trkpt lat="45.8526430" lon="9.2078500">
	<ele>807.60</ele>
	<time>2025-02-15T12:32:29.000Z</time>
</trkpt>
<trkpt lat="45.8526400" lon="9.2078610">
	<ele>807.60</ele>
	<time>2025-02-15T12:32:30.000Z</time>
</trkpt>
<trkpt lat="45.8526390" lon="9.2078710">
	<ele>807.40</ele>
	<time>2025-02-15T12:32:31.000Z</time>
</trkpt>
<trkpt lat="45.8526390" lon="9.2078830">
	<ele>807.20</ele>
	<time>2025-02-15T12:32:32.000Z</time>
</trkpt>
<trkpt lat="45.8526400" lon="9.2078950">
	<ele>807.00</ele>
	<time>2025-02-15T12:32:33.000Z</time>
</trkpt>
<trkpt lat="45.8526410" lon="9.2079010">
	<ele>806.40</ele>
	<time>2025-02-15T12:32:34.000Z</time>
</trkpt>
<trkpt lat="45.8526430" lon="9.2079020">
	<ele>806.00</ele>
	<time>2025-02-15T12:32:35.000Z</time>
</trkpt>
<trkpt lat="45.8526480" lon="9.2079040">
	<ele>805.80</ele>
	<time>2025-02-15T12:32:36.000Z</time>
</trkpt>
<trkpt lat="45.8526500" lon="9.2079120">
	<ele>805.80</ele>
	<time>2025-02-15T12:32:37.000Z</time>
</trkpt>
<trkpt lat="45.8526490" lon="9.2079160">
	<ele>805.60</ele>
	<time>2025-02-15T12:32:38.000Z</time>
</trkpt>
<trkpt lat="45.8526410" lon="9.2079300">
	<ele>805.20</ele>
	<time>2025-02-15T12:32:39.000Z</time>
</trkpt>
<trkpt lat="45.8526420" lon="9.2079520">
	<ele>805.00</ele>
	<time>2025-02-15T12:32:40.000Z</time>
</trkpt>
<trkpt lat="45.8526490" lon="9.2079630">
	<ele>805.00</ele>
	<time>2025-02-15T12:32:41.000Z</time>
</trkpt>
<trkpt lat="45.8526540" lon="9.2079740">
	<ele>804.80</ele>
	<time>2025-02-15T12:32:42.000Z</time>
</trkpt>
<trkpt lat="45.8526620" lon="9.2079860">
	<ele>804.60</ele>
	<time>2025-02-15T12:32:43.000Z</time>
</trkpt>
<trkpt lat="45.8526690" lon="9.2079970">
	<ele>804.60</ele>
	<time>2025-02-15T12:32:44.000Z</time>
</trkpt>
<trkpt lat="45.8526680" lon="9.2080080">
	<ele>804.40</ele>
	<time>2025-02-15T12:32:45.000Z</time>
</trkpt>
<trkpt lat="45.8526650" lon="9.2080220">
	<ele>804.40</ele>
	<time>2025-02-15T12:32:46.000Z</time>
</trkpt>
<trkpt lat="45.8526660" lon="9.2080280">
	<ele>804.20</ele>
	<time>2025-02-15T12:32:47.000Z</time>
</trkpt>
<trkpt lat="45.8526680" lon="9.2080480">
	<ele>804.00</ele>
	<time>2025-02-15T12:32:48.000Z</time>
</trkpt>
<trkpt lat="45.8526710" lon="9.2080670">
	<ele>803.80</ele>
	<time>2025-02-15T12:32:49.000Z</time>
</trkpt>
<trkpt lat="45.8526790" lon="9.2080740">
	<ele>803.60</ele>
	<time>2025-02-15T12:32:50.000Z</time>
</trkpt>
<trkpt lat="45.8526870" lon="9.2080770">
	<ele>803.60</ele>
	<time>2025-02-15T12:32:51.000Z</time>
</trkpt>
<trkpt lat="45.8526900" lon="9.2080780">
	<ele>803.60</ele>
	<time>2025-02-15T12:32:52.000Z</time>
</trkpt>
<trkpt lat="45.8526900" lon="9.2080800">
	<ele>803.40</ele>
	<time>2025-02-15T12:32:53.000Z</time>
</trkpt>
<trkpt lat="45.8526910" lon="9.2080850">
	<ele>803.20</ele>
	<time>2025-02-15T12:32:54.000Z</time>
</trkpt>
<trkpt lat="45.8526970" lon="9.2080910">
	<ele>803.00</ele>
	<time>2025-02-15T12:32:55.000Z</time>
</trkpt>
<trkpt lat="45.8527070" lon="9.2081000">
	<ele>803.00</ele>
	<time>2025-02-15T12:32:56.000Z</time>
</trkpt>
<trkpt lat="45.8527160" lon="9.2081100">
	<ele>802.80</ele>
	<time>2025-02-15T12:32:57.000Z</time>
</trkpt>
<trkpt lat="45.8527180" lon="9.2081150">
	<ele>802.80</ele>
	<time>2025-02-15T12:32:58.000Z</time>
</trkpt>
<trkpt lat="45.8527240" lon="9.2081230">
	<ele>802.60</ele>
	<time>2025-02-15T12:32:59.000Z</time>
</trkpt>
<trkpt lat="45.8527250" lon="9.2081250">
	<ele>802.40</ele>
	<time>2025-02-15T12:33:00.000Z</time>
</trkpt>
<trkpt lat="45.8527210" lon="9.2081290">
	<ele>802.20</ele>
	<time>2025-02-15T12:33:01.000Z</time>
</trkpt>
<trkpt lat="45.8527180" lon="9.2081290">
	<ele>802.20</ele>
	<time>2025-02-15T12:33:02.000Z</time>
</trkpt>
<trkpt lat="45.8527370" lon="9.2081380">
	<ele>801.80</ele>
	<time>2025-02-15T12:33:03.000Z</time>
</trkpt>
<trkpt lat="45.8527500" lon="9.2081400">
	<ele>801.80</ele>
	<time>2025-02-15T12:33:04.000Z</time>
</trkpt>
<trkpt lat="45.8527490" lon="9.2081520">
	<ele>801.60</ele>
	<time>2025-02-15T12:33:05.000Z</time>
</trkpt>
<trkpt lat="45.8527510" lon="9.2081560">
	<ele>801.40</ele>
	<time>2025-02-15T12:33:06.000Z</time>
</trkpt>
<trkpt lat="45.8527550" lon="9.2081680">
	<ele>801.40</ele>
	<time>2025-02-15T12:33:07.000Z</time>
</trkpt>
<trkpt lat="45.8527590" lon="9.2081700">
	<ele>801.20</ele>
	<time>2025-02-15T12:33:08.000Z</time>
</trkpt>
<trkpt lat="45.8527600" lon="9.2081690">
	<ele>801.20</ele>
	<time>2025-02-15T12:33:09.000Z</time>
</trkpt>
<trkpt lat="45.8527640" lon="9.2081660">
	<ele>801.00</ele>
	<time>2025-02-15T12:33:10.000Z</time>
</trkpt>
<trkpt lat="45.8527720" lon="9.2081770">
	<ele>800.80</ele>
	<time>2025-02-15T12:33:11.000Z</time>
</trkpt>
<trkpt lat="45.8527780" lon="9.2081950">
	<ele>800.60</ele>
	<time>2025-02-15T12:33:12.000Z</time>
</trkpt>
<trkpt lat="45.8527800" lon="9.2082180">
	<ele>800.60</ele>
	<time>2025-02-15T12:33:13.000Z</time>
</trkpt>
<trkpt lat="45.8527900" lon="9.2082430">
	<ele>800.40</ele>
	<time>2025-02-15T12:33:14.000Z</time>
</trkpt>
<trkpt lat="45.8527880" lon="9.2082480">
	<ele>800.20</ele>
	<time>2025-02-15T12:33:15.000Z</time>
</trkpt>
<trkpt lat="45.8527950" lon="9.2082650">
	<ele>800.00</ele>
	<time>2025-02-15T12:33:16.000Z</time>
</trkpt>
<trkpt lat="45.8528060" lon="9.2082690">
	<ele>799.80</ele>
	<time>2025-02-15T12:33:17.000Z</time>
</trkpt>
<trkpt lat="45.8528080" lon="9.2082700">
	<ele>799.60</ele>
	<time>2025-02-15T12:33:18.000Z</time>
</trkpt>
<trkpt lat="45.8528160" lon="9.2082620">
	<ele>799.40</ele>
	<time>2025-02-15T12:33:19.000Z</time>
</trkpt>
<trkpt lat="45.8528160" lon="9.2082660">
	<ele>799.00</ele>
	<time>2025-02-15T12:33:20.000Z</time>
</trkpt>
<trkpt lat="45.8528220" lon="9.2082690">
	<ele>798.80</ele>
	<time>2025-02-15T12:33:21.000Z</time>
</trkpt>
<trkpt lat="45.8528240" lon="9.2082650">
	<ele>798.60</ele>
	<time>2025-02-15T12:33:22.000Z</time>
</trkpt>
<trkpt lat="45.8528240" lon="9.2082690">
	<ele>798.60</ele>
	<time>2025-02-15T12:33:23.000Z</time>
</trkpt>
<trkpt lat="45.8528240" lon="9.2082710">
	<ele>798.60</ele>
	<time>2025-02-15T12:33:24.000Z</time>
</trkpt>
<trkpt lat="45.8528260" lon="9.2082710">
	<ele>798.60</ele>
	<time>2025-02-15T12:33:25.000Z</time>
</trkpt>
<trkpt lat="45.8528270" lon="9.2082750">
	<ele>798.40</ele>
	<time>2025-02-15T12:33:26.000Z</time>
</trkpt>
<trkpt lat="45.8528270" lon="9.2082930">
	<ele>798.40</ele>
	<time>2025-02-15T12:33:27.000Z</time>
</trkpt>
<trkpt lat="45.8528420" lon="9.2083050">
	<ele>798.20</ele>
	<time>2025-02-15T12:33:28.000Z</time>
</trkpt>
<trkpt lat="45.8528470" lon="9.2083180">
	<ele>798.00</ele>
	<time>2025-02-15T12:33:29.000Z</time>
</trkpt>
<trkpt lat="45.8528450" lon="9.2083270">
	<ele>798.00</ele>
	<time>2025-02-15T12:33:30.000Z</time>
</trkpt>
<trkpt lat="45.8528480" lon="9.2083380">
	<ele>797.80</ele>
	<time>2025-02-15T12:33:31.000Z</time>
</trkpt>
<trkpt lat="45.8528560" lon="9.2083430">
	<ele>797.60</ele>
	<time>2025-02-15T12:33:32.000Z</time>
</trkpt>
<trkpt lat="45.8528760" lon="9.2083500">
	<ele>797.00</ele>
	<time>2025-02-15T12:33:33.000Z</time>
</trkpt>
<trkpt lat="45.8529010" lon="9.2083540">
	<ele>796.80</ele>
	<time>2025-02-15T12:33:34.000Z</time>
</trkpt>
<trkpt lat="45.8529050" lon="9.2083590">
	<ele>796.60</ele>
	<time>2025-02-15T12:33:35.000Z</time>
</trkpt>
<trkpt lat="45.8529100" lon="9.2083660">
	<ele>796.40</ele>
	<time>2025-02-15T12:33:36.000Z</time>
</trkpt>
<trkpt lat="45.8529110" lon="9.2083690">
	<ele>796.20</ele>
	<time>2025-02-15T12:33:37.000Z</time>
</trkpt>
<trkpt lat="45.8529090" lon="9.2083750">
	<ele>796.20</ele>
	<time>2025-02-15T12:33:38.000Z</time>
</trkpt>
<trkpt lat="45.8529070" lon="9.2083760">
	<ele>796.00</ele>
	<time>2025-02-15T12:33:39.000Z</time>
</trkpt>
<trkpt lat="45.8529070" lon="9.2083800">
	<ele>795.80</ele>
	<time>2025-02-15T12:33:40.000Z</time>
</trkpt>
<trkpt lat="45.8529110" lon="9.2083830">
	<ele>795.60</ele>
	<time>2025-02-15T12:33:41.000Z</time>
</trkpt>
<trkpt lat="45.8529130" lon="9.2083910">
	<ele>795.40</ele>
	<time>2025-02-15T12:33:42.000Z</time>
</trkpt>
<trkpt lat="45.8529140" lon="9.2084000">
	<ele>795.20</ele>
	<time>2025-02-15T12:33:43.000Z</time>
</trkpt>
<trkpt lat="45.8529220" lon="9.2083920">
	<ele>795.00</ele>
	<time>2025-02-15T12:33:44.000Z</time>
</trkpt>
<trkpt lat="45.8529160" lon="9.2084080">
	<ele>795.00</ele>
	<time>2025-02-15T12:33:45.000Z</time>
</trkpt>
<trkpt lat="45.8529150" lon="9.2084260">
	<ele>794.60</ele>
	<time>2025-02-15T12:33:46.000Z</time>
</trkpt>
<trkpt lat="45.8529220" lon="9.2084430">
	<ele>794.60</ele>
	<time>2025-02-15T12:33:47.000Z</time>
</trkpt>
<trkpt lat="45.8529220" lon="9.2084600">
	<ele>794.00</ele>
	<time>2025-02-15T12:33:48.000Z</time>
</trkpt>
<trkpt lat="45.8529190" lon="9.2084630">
	<ele>793.80</ele>
	<time>2025-02-15T12:33:49.000Z</time>
</trkpt>
<trkpt lat="45.8529230" lon="9.2084640">
	<ele>793.60</ele>
	<time>2025-02-15T12:33:50.000Z</time>
</trkpt>
<trkpt lat="45.8529230" lon="9.2084620">
	<ele>793.40</ele>
	<time>2025-02-15T12:33:51.000Z</time>
</trkpt>
<trkpt lat="45.8529350" lon="9.2084690">
	<ele>793.20</ele>
	<time>2025-02-15T12:33:52.000Z</time>
</trkpt>
<trkpt lat="45.8529360" lon="9.2084740">
	<ele>793.00</ele>
	<time>2025-02-15T12:33:53.000Z</time>
</trkpt>
<trkpt lat="45.8529460" lon="9.2084830">
	<ele>792.80</ele>
	<time>2025-02-15T12:33:54.000Z</time>
</trkpt>
<trkpt lat="45.8529560" lon="9.2084910">
	<ele>792.40</ele>
	<time>2025-02-15T12:33:55.000Z</time>
</trkpt>
<trkpt lat="45.8529490" lon="9.2084950">
	<ele>792.20</ele>
	<time>2025-02-15T12:33:56.000Z</time>
</trkpt>
<trkpt lat="45.8529490" lon="9.2084970">
	<ele>792.00</ele>
	<time>2025-02-15T12:33:57.000Z</time>
</trkpt>
<trkpt lat="45.8529480" lon="9.2084960">
	<ele>791.80</ele>
	<time>2025-02-15T12:33:58.000Z</time>
</trkpt>
<trkpt lat="45.8529470" lon="9.2085000">
	<ele>791.60</ele>
	<time>2025-02-15T12:33:59.000Z</time>
</trkpt>
<trkpt lat="45.8529360" lon="9.2085090">
	<ele>791.20</ele>
	<time>2025-02-15T12:34:00.000Z</time>
</trkpt>
<trkpt lat="45.8529370" lon="9.2085120">
	<ele>791.00</ele>
	<time>2025-02-15T12:34:01.000Z</time>
</trkpt>
<trkpt lat="45.8529340" lon="9.2085120">
	<ele>790.80</ele>
	<time>2025-02-15T12:34:02.000Z</time>
</trkpt>
<trkpt lat="45.8529250" lon="9.2085130">
	<ele>790.40</ele>
	<time>2025-02-15T12:34:03.000Z</time>
</trkpt>
<trkpt lat="45.8529210" lon="9.2085310">
	<ele>790.20</ele>
	<time>2025-02-15T12:34:04.000Z</time>
</trkpt>
<trkpt lat="45.8529270" lon="9.2085520">
	<ele>790.00</ele>
	<time>2025-02-15T12:34:05.000Z</time>
</trkpt>
<trkpt lat="45.8529400" lon="9.2085680">
	<ele>790.00</ele>
	<time>2025-02-15T12:34:06.000Z</time>
</trkpt>
<trkpt lat="45.8529490" lon="9.2085810">
	<ele>789.80</ele>
	<time>2025-02-15T12:34:07.000Z</time>
</trkpt>
<trkpt lat="45.8529560" lon="9.2085890">
	<ele>789.80</ele>
	<time>2025-02-15T12:34:08.000Z</time>
</trkpt>
<trkpt lat="45.8529590" lon="9.2085920">
	<ele>789.80</ele>
	<time>2025-02-15T12:34:09.000Z</time>
</trkpt>
<trkpt lat="45.8529560" lon="9.2085910">
	<ele>789.60</ele>
	<time>2025-02-15T12:34:10.000Z</time>
</trkpt>
<trkpt lat="45.8529640" lon="9.2085970">
	<ele>789.40</ele>
	<time>2025-02-15T12:34:11.000Z</time>
</trkpt>
<trkpt lat="45.8529610" lon="9.2085950">
	<ele>789.20</ele>
	<time>2025-02-15T12:34:12.000Z</time>
</trkpt>
<trkpt lat="45.8529640" lon="9.2085940">
	<ele>789.00</ele>
	<time>2025-02-15T12:34:13.000Z</time>
</trkpt>
<trkpt lat="45.8529630" lon="9.2085940">
	<ele>788.60</ele>
	<time>2025-02-15T12:34:14.000Z</time>
</trkpt>
<trkpt lat="45.8529550" lon="9.2085960">
	<ele>788.40</ele>
	<time>2025-02-15T12:34:15.000Z</time>
</trkpt>
<trkpt lat="45.8529410" lon="9.2085950">
	<ele>788.00</ele>
	<time>2025-02-15T12:34:16.000Z</time>
</trkpt>
<trkpt lat="45.8529250" lon="9.2085950">
	<ele>787.80</ele>
	<time>2025-02-15T12:34:17.000Z</time>
</trkpt>
<trkpt lat="45.8529110" lon="9.2085920">
	<ele>787.80</ele>
	<time>2025-02-15T12:34:18.000Z</time>
</trkpt>
<trkpt lat="45.8529020" lon="9.2085950">
	<ele>787.60</ele>
	<time>2025-02-15T12:34:19.000Z</time>
</trkpt>
<trkpt lat="45.8528970" lon="9.2085940">
	<ele>787.20</ele>
	<time>2025-02-15T12:34:20.000Z</time>
</trkpt>
<trkpt lat="45.8528980" lon="9.2085950">
	<ele>786.60</ele>
	<time>2025-02-15T12:34:21.000Z</time>
</trkpt>
<trkpt lat="45.8528980" lon="9.2085950">
	<ele>786.20</ele>
	<time>2025-02-15T12:34:22.000Z</time>
</trkpt>
<trkpt lat="45.8528980" lon="9.2085950">
	<ele>786.20</ele>
	<time>2025-02-15T12:34:23.000Z</time>
</trkpt>
<trkpt lat="45.8528980" lon="9.2085950">
	<ele>786.00</ele>
	<time>2025-02-15T12:34:24.000Z</time>
</trkpt>
<trkpt lat="45.8528980" lon="9.2085950">
	<ele>786.00</ele>
	<time>2025-02-15T12:34:25.000Z</time>
</trkpt>
<trkpt lat="45.8528980" lon="9.2085950">
	<ele>786.00</ele>
	<time>2025-02-15T12:34:26.000Z</time>
</trkpt>
<trkpt lat="45.8528980" lon="9.2085950">
	<ele>785.80</ele>
	<time>2025-02-15T12:34:27.000Z</time>
</trkpt>
<trkpt lat="45.8528980" lon="9.2085950">
	<ele>785.80</ele>
	<time>2025-02-15T12:34:28.000Z</time>
</trkpt>
<trkpt lat="45.8528980" lon="9.2085950">
	<ele>785.60</ele>
	<time>2025-02-15T12:34:29.000Z</time>
</trkpt>
<trkpt lat="45.8529030" lon="9.2086000">
	<ele>785.60</ele>
	<time>2025-02-15T12:34:30.000Z</time>
</trkpt>
<trkpt lat="45.8529180" lon="9.2086140">
	<ele>785.40</ele>
	<time>2025-02-15T12:34:31.000Z</time>
</trkpt>
<trkpt lat="45.8529330" lon="9.2086280">
	<ele>785.20</ele>
	<time>2025-02-15T12:34:32.000Z</time>
</trkpt>
<trkpt lat="45.8529490" lon="9.2086450">
	<ele>785.20</ele>
	<time>2025-02-15T12:34:33.000Z</time>
</trkpt>
<trkpt lat="45.8529500" lon="9.2086540">
	<ele>785.00</ele>
	<time>2025-02-15T12:34:34.000Z</time>
</trkpt>
<trkpt lat="45.8529460" lon="9.2086650">
	<ele>784.60</ele>
	<time>2025-02-15T12:34:35.000Z</time>
</trkpt>
<trkpt lat="45.8529440" lon="9.2086730">
	<ele>784.60</ele>
	<time>2025-02-15T12:34:36.000Z</time>
</trkpt>
<trkpt lat="45.8529470" lon="9.2086880">
	<ele>784.40</ele>
	<time>2025-02-15T12:34:37.000Z</time>
</trkpt>
<trkpt lat="45.8529490" lon="9.2087100">
	<ele>784.20</ele>
	<time>2025-02-15T12:34:38.000Z</time>
</trkpt>
<trkpt lat="45.8529680" lon="9.2087250">
	<ele>784.20</ele>
	<time>2025-02-15T12:34:39.000Z</time>
</trkpt>
<trkpt lat="45.8529680" lon="9.2087260">
	<ele>784.00</ele>
	<time>2025-02-15T12:34:40.000Z</time>
</trkpt>
<trkpt lat="45.8529660" lon="9.2087240">
	<ele>784.00</ele>
	<time>2025-02-15T12:34:41.000Z</time>
</trkpt>
<trkpt lat="45.8529600" lon="9.2087200">
	<ele>783.60</ele>
	<time>2025-02-15T12:34:42.000Z</time>
</trkpt>
<trkpt lat="45.8529570" lon="9.2087100">
	<ele>783.40</ele>
	<time>2025-02-15T12:34:43.000Z</time>
</trkpt>
<trkpt lat="45.8529610" lon="9.2087180">
	<ele>783.20</ele>
	<time>2025-02-15T12:34:44.000Z</time>
</trkpt>
<trkpt lat="45.8529730" lon="9.2087310">
	<ele>783.20</ele>
	<time>2025-02-15T12:34:45.000Z</time>
</trkpt>
<trkpt lat="45.8529850" lon="9.2087320">
	<ele>783.20</ele>
	<time>2025-02-15T12:34:46.000Z</time>
</trkpt>
<trkpt lat="45.8529760" lon="9.2087360">
	<ele>783.00</ele>
	<time>2025-02-15T12:34:47.000Z</time>
</trkpt>
<trkpt lat="45.8529580" lon="9.2087380">
	<ele>782.80</ele>
	<time>2025-02-15T12:34:48.000Z</time>
</trkpt>
<trkpt lat="45.8529580" lon="9.2087440">
	<ele>782.60</ele>
	<time>2025-02-15T12:34:49.000Z</time>
</trkpt>
<trkpt lat="45.8529670" lon="9.2087430">
	<ele>782.60</ele>
	<time>2025-02-15T12:34:50.000Z</time>
</trkpt>
<trkpt lat="45.8529800" lon="9.2087460">
	<ele>782.40</ele>
	<time>2025-02-15T12:34:51.000Z</time>
</trkpt>
<trkpt lat="45.8529980" lon="9.2087590">
	<ele>782.40</ele>
	<time>2025-02-15T12:34:52.000Z</time>
</trkpt>
<trkpt lat="45.8530160" lon="9.2087650">
	<ele>782.00</ele>
	<time>2025-02-15T12:34:53.000Z</time>
</trkpt>
<trkpt lat="45.8530270" lon="9.2087730">
	<ele>781.80</ele>
	<time>2025-02-15T12:34:54.000Z</time>
</trkpt>
<trkpt lat="45.8530290" lon="9.2087770">
	<ele>781.60</ele>
	<time>2025-02-15T12:34:55.000Z</time>
</trkpt>
<trkpt lat="45.8530320" lon="9.2087730">
	<ele>781.60</ele>
	<time>2025-02-15T12:34:56.000Z</time>
</trkpt>
<trkpt lat="45.8530330" lon="9.2087730">
	<ele>781.40</ele>
	<time>2025-02-15T12:34:57.000Z</time>
</trkpt>
<trkpt lat="45.8530380" lon="9.2087790">
	<ele>781.40</ele>
	<time>2025-02-15T12:34:58.000Z</time>
</trkpt>
<trkpt lat="45.8530430" lon="9.2087810">
	<ele>781.20</ele>
	<time>2025-02-15T12:34:59.000Z</time>
</trkpt>
<trkpt lat="45.8530490" lon="9.2087830">
	<ele>781.20</ele>
	<time>2025-02-15T12:35:00.000Z</time>
</trkpt>
<trkpt lat="45.8530530" lon="9.2087860">
	<ele>781.00</ele>
	<time>2025-02-15T12:35:01.000Z</time>
</trkpt>
<trkpt lat="45.8530550" lon="9.2087920">
	<ele>781.00</ele>
	<time>2025-02-15T12:35:02.000Z</time>
</trkpt>
<trkpt lat="45.8530630" lon="9.2088050">
	<ele>780.80</ele>
	<time>2025-02-15T12:35:03.000Z</time>
</trkpt>
<trkpt lat="45.8530650" lon="9.2088110">
	<ele>780.20</ele>
	<time>2025-02-15T12:35:04.000Z</time>
</trkpt>
<trkpt lat="45.8530670" lon="9.2088160">
	<ele>780.20</ele>
	<time>2025-02-15T12:35:05.000Z</time>
</trkpt>
<trkpt lat="45.8530640" lon="9.2088250">
	<ele>779.60</ele>
	<time>2025-02-15T12:35:06.000Z</time>
</trkpt>
<trkpt lat="45.8530630" lon="9.2088320">
	<ele>779.40</ele>
	<time>2025-02-15T12:35:07.000Z</time>
</trkpt>
<trkpt lat="45.8530590" lon="9.2088420">
	<ele>779.20</ele>
	<time>2025-02-15T12:35:08.000Z</time>
</trkpt>
<trkpt lat="45.8530560" lon="9.2088550">
	<ele>779.00</ele>
	<time>2025-02-15T12:35:09.000Z</time>
</trkpt>
<trkpt lat="45.8530450" lon="9.2088570">
	<ele>779.00</ele>
	<time>2025-02-15T12:35:10.000Z</time>
</trkpt>
<trkpt lat="45.8530380" lon="9.2088560">
	<ele>778.80</ele>
	<time>2025-02-15T12:35:11.000Z</time>
</trkpt>
<trkpt lat="45.8530340" lon="9.2088630">
	<ele>778.60</ele>
	<time>2025-02-15T12:35:12.000Z</time>
</trkpt>
<trkpt lat="45.8530340" lon="9.2088740">
	<ele>778.40</ele>
	<time>2025-02-15T12:35:13.000Z</time>
</trkpt>
<trkpt lat="45.8530360" lon="9.2088870">
	<ele>778.00</ele>
	<time>2025-02-15T12:35:14.000Z</time>
</trkpt>
<trkpt lat="45.8530360" lon="9.2088970">
	<ele>777.80</ele>
	<time>2025-02-15T12:35:15.000Z</time>
</trkpt>
<trkpt lat="45.8530300" lon="9.2088990">
	<ele>777.60</ele>
	<time>2025-02-15T12:35:16.000Z</time>
</trkpt>
<trkpt lat="45.8530250" lon="9.2089090">
	<ele>777.40</ele>
	<time>2025-02-15T12:35:17.000Z</time>
</trkpt>
<trkpt lat="45.8530110" lon="9.2089120">
	<ele>776.40</ele>
	<time>2025-02-15T12:35:18.000Z</time>
</trkpt>
<trkpt lat="45.8530070" lon="9.2089170">
	<ele>776.00</ele>
	<time>2025-02-15T12:35:19.000Z</time>
</trkpt>
<trkpt lat="45.8529990" lon="9.2089210">
	<ele>775.80</ele>
	<time>2025-02-15T12:35:20.000Z</time>
</trkpt>
<trkpt lat="45.8529920" lon="9.2089300">
	<ele>775.60</ele>
	<time>2025-02-15T12:35:21.000Z</time>
</trkpt>
<trkpt lat="45.8529900" lon="9.2089380">
	<ele>775.60</ele>
	<time>2025-02-15T12:35:22.000Z</time>
</trkpt>
<trkpt lat="45.8529970" lon="9.2089510">
	<ele>775.60</ele>
	<time>2025-02-15T12:35:23.000Z</time>
</trkpt>
<trkpt lat="45.8530080" lon="9.2089630">
	<ele>775.60</ele>
	<time>2025-02-15T12:35:24.000Z</time>
</trkpt>
<trkpt lat="45.8530070" lon="9.2089690">
	<ele>775.40</ele>
	<time>2025-02-15T12:35:25.000Z</time>
</trkpt>
<trkpt lat="45.8530060" lon="9.2089740">
	<ele>775.20</ele>
	<time>2025-02-15T12:35:26.000Z</time>
</trkpt>
<trkpt lat="45.8530020" lon="9.2089760">
	<ele>775.20</ele>
	<time>2025-02-15T12:35:27.000Z</time>
</trkpt>
<trkpt lat="45.8529940" lon="9.2089830">
	<ele>775.20</ele>
	<time>2025-02-15T12:35:28.000Z</time>
</trkpt>
<trkpt lat="45.8529820" lon="9.2089840">
	<ele>774.60</ele>
	<time>2025-02-15T12:35:29.000Z</time>
</trkpt>
<trkpt lat="45.8529730" lon="9.2089930">
	<ele>774.40</ele>
	<time>2025-02-15T12:35:30.000Z</time>
</trkpt>
<trkpt lat="45.8529750" lon="9.2090060">
	<ele>774.20</ele>
	<time>2025-02-15T12:35:31.000Z</time>
</trkpt>
<trkpt lat="45.8529760" lon="9.2090150">
	<ele>773.80</ele>
	<time>2025-02-15T12:35:32.000Z</time>
</trkpt>
<trkpt lat="45.8529770" lon="9.2090300">
	<ele>773.80</ele>
	<time>2025-02-15T12:35:33.000Z</time>
</trkpt>
<trkpt lat="45.8529740" lon="9.2090290">
	<ele>773.60</ele>
	<time>2025-02-15T12:35:34.000Z</time>
</trkpt>
<trkpt lat="45.8529670" lon="9.2090410">
	<ele>773.40</ele>
	<time>2025-02-15T12:35:35.000Z</time>
</trkpt>
<trkpt lat="45.8529620" lon="9.2090440">
	<ele>772.80</ele>
	<time>2025-02-15T12:35:36.000Z</time>
</trkpt>
<trkpt lat="45.8529620" lon="9.2090440">
	<ele>772.60</ele>
	<time>2025-02-15T12:35:37.000Z</time>
</trkpt>
<trkpt lat="45.8529590" lon="9.2090470">
	<ele>772.20</ele>
	<time>2025-02-15T12:35:38.000Z</time>
</trkpt>
<trkpt lat="45.8529630" lon="9.2090490">
	<ele>772.20</ele>
	<time>2025-02-15T12:35:39.000Z</time>
</trkpt>
<trkpt lat="45.8529600" lon="9.2090510">
	<ele>772.00</ele>
	<time>2025-02-15T12:35:40.000Z</time>
</trkpt>
<trkpt lat="45.8529630" lon="9.2090600">
	<ele>772.00</ele>
	<time>2025-02-15T12:35:41.000Z</time>
</trkpt>
<trkpt lat="45.8529610" lon="9.2090610">
	<ele>771.80</ele>
	<time>2025-02-15T12:35:42.000Z</time>
</trkpt>
<trkpt lat="45.8529390" lon="9.2090470">
	<ele>771.80</ele>
	<time>2025-02-15T12:35:43.000Z</time>
</trkpt>
<trkpt lat="45.8529300" lon="9.2090500">
	<ele>771.60</ele>
	<time>2025-02-15T12:35:44.000Z</time>
</trkpt>
<trkpt lat="45.8529330" lon="9.2090630">
	<ele>771.20</ele>
	<time>2025-02-15T12:35:45.000Z</time>
</trkpt>
<trkpt lat="45.8529340" lon="9.2090850">
	<ele>771.00</ele>
	<time>2025-02-15T12:35:46.000Z</time>
</trkpt>
<trkpt lat="45.8529350" lon="9.2090950">
	<ele>770.80</ele>
	<time>2025-02-15T12:35:47.000Z</time>
</trkpt>
<trkpt lat="45.8529370" lon="9.2091010">
	<ele>770.80</ele>
	<time>2025-02-15T12:35:48.000Z</time>
</trkpt>
<trkpt lat="45.8529400" lon="9.2091100">
	<ele>770.80</ele>
	<time>2025-02-15T12:35:49.000Z</time>
</trkpt>
<trkpt lat="45.8529390" lon="9.2091150">
	<ele>770.60</ele>
	<time>2025-02-15T12:35:50.000Z</time>
</trkpt>
<trkpt lat="45.8529410" lon="9.2091190">
	<ele>770.40</ele>
	<time>2025-02-15T12:35:51.000Z</time>
</trkpt>
<trkpt lat="45.8529390" lon="9.2091220">
	<ele>770.20</ele>
	<time>2025-02-15T12:35:52.000Z</time>
</trkpt>
<trkpt lat="45.8529410" lon="9.2091300">
	<ele>770.00</ele>
	<time>2025-02-15T12:35:53.000Z</time>
</trkpt>
<trkpt lat="45.8529410" lon="9.2091360">
	<ele>770.00</ele>
	<time>2025-02-15T12:35:54.000Z</time>
</trkpt>
<trkpt lat="45.8529480" lon="9.2091460">
	<ele>769.40</ele>
	<time>2025-02-15T12:35:55.000Z</time>
</trkpt>
<trkpt lat="45.8529470" lon="9.2091460">
	<ele>769.00</ele>
	<time>2025-02-15T12:35:56.000Z</time>
</trkpt>
<trkpt lat="45.8529410" lon="9.2091490">
	<ele>768.80</ele>
	<time>2025-02-15T12:35:57.000Z</time>
</trkpt>
<trkpt lat="45.8529300" lon="9.2091510">
	<ele>768.60</ele>
	<time>2025-02-15T12:35:58.000Z</time>
</trkpt>
<trkpt lat="45.8529210" lon="9.2091570">
	<ele>768.60</ele>
	<time>2025-02-15T12:35:59.000Z</time>
</trkpt>
<trkpt lat="45.8529230" lon="9.2091630">
	<ele>768.60</ele>
	<time>2025-02-15T12:36:00.000Z</time>
</trkpt>
<trkpt lat="45.8529180" lon="9.2091630">
	<ele>768.00</ele>
	<time>2025-02-15T12:36:01.000Z</time>
</trkpt>
<trkpt lat="45.8529170" lon="9.2091690">
	<ele>767.80</ele>
	<time>2025-02-15T12:36:02.000Z</time>
</trkpt>
<trkpt lat="45.8529150" lon="9.2091780">
	<ele>767.40</ele>
	<time>2025-02-15T12:36:03.000Z</time>
</trkpt>
<trkpt lat="45.8529170" lon="9.2091910">
	<ele>767.20</ele>
	<time>2025-02-15T12:36:04.000Z</time>
</trkpt>
<trkpt lat="45.8529190" lon="9.2091940">
	<ele>767.00</ele>
	<time>2025-02-15T12:36:05.000Z</time>
</trkpt>
<trkpt lat="45.8529210" lon="9.2091940">
	<ele>766.80</ele>
	<time>2025-02-15T12:36:06.000Z</time>
</trkpt>
<trkpt lat="45.8529200" lon="9.2091940">
	<ele>766.60</ele>
	<time>2025-02-15T12:36:07.000Z</time>
</trkpt>
<trkpt lat="45.8529100" lon="9.2091900">
	<ele>766.80</ele>
	<time>2025-02-15T12:36:08.000Z</time>
</trkpt>
<trkpt lat="45.8528990" lon="9.2091930">
	<ele>766.40</ele>
	<time>2025-02-15T12:36:09.000Z</time>
</trkpt>
<trkpt lat="45.8528980" lon="9.2092020">
	<ele>766.20</ele>
	<time>2025-02-15T12:36:10.000Z</time>
</trkpt>
<trkpt lat="45.8528950" lon="9.2092020">
	<ele>766.00</ele>
	<time>2025-02-15T12:36:11.000Z</time>
</trkpt>
<trkpt lat="45.8528920" lon="9.2092070">
	<ele>765.80</ele>
	<time>2025-02-15T12:36:12.000Z</time>
</trkpt>
<trkpt lat="45.8528990" lon="9.2092160">
	<ele>765.80</ele>
	<time>2025-02-15T12:36:13.000Z</time>
</trkpt>
<trkpt lat="45.8528980" lon="9.2092190">
	<ele>765.60</ele>
	<time>2025-02-15T12:36:14.000Z</time>
</trkpt>
<trkpt lat="45.8528990" lon="9.2092250">
	<ele>765.20</ele>
	<time>2025-02-15T12:36:15.000Z</time>
</trkpt>
<trkpt lat="45.8529060" lon="9.2092330">
	<ele>765.00</ele>
	<time>2025-02-15T12:36:16.000Z</time>
</trkpt>
<trkpt lat="45.8528950" lon="9.2092450">
	<ele>764.80</ele>
	<time>2025-02-15T12:36:17.000Z</time>
</trkpt>
<trkpt lat="45.8528890" lon="9.2092660">
	<ele>764.60</ele>
	<time>2025-02-15T12:36:18.000Z</time>
</trkpt>
<trkpt lat="45.8528760" lon="9.2092770">
	<ele>764.60</ele>
	<time>2025-02-15T12:36:19.000Z</time>
</trkpt>
<trkpt lat="45.8528560" lon="9.2092670">
	<ele>764.40</ele>
	<time>2025-02-15T12:36:20.000Z</time>
</trkpt>
<trkpt lat="45.8528420" lon="9.2092560">
	<ele>764.20</ele>
	<time>2025-02-15T12:36:21.000Z</time>
</trkpt>
<trkpt lat="45.8528340" lon="9.2092480">
	<ele>764.00</ele>
	<time>2025-02-15T12:36:22.000Z</time>
</trkpt>
<trkpt lat="45.8528310" lon="9.2092460">
	<ele>763.80</ele>
	<time>2025-02-15T12:36:23.000Z</time>
</trkpt>
<trkpt lat="45.8528220" lon="9.2092570">
	<ele>763.60</ele>
	<time>2025-02-15T12:36:24.000Z</time>
</trkpt>
<trkpt lat="45.8528220" lon="9.2092730">
	<ele>763.40</ele>
	<time>2025-02-15T12:36:25.000Z</time>
</trkpt>
<trkpt lat="45.8528220" lon="9.2093030">
	<ele>763.40</ele>
	<time>2025-02-15T12:36:26.000Z</time>
</trkpt>
<trkpt lat="45.8528180" lon="9.2093090">
	<ele>763.40</ele>
	<time>2025-02-15T12:36:27.000Z</time>
</trkpt>
<trkpt lat="45.8528210" lon="9.2093080">
	<ele>763.20</ele>
	<time>2025-02-15T12:36:28.000Z</time>
</trkpt>
<trkpt lat="45.8528220" lon="9.2093110">
	<ele>763.00</ele>
	<time>2025-02-15T12:36:29.000Z</time>
</trkpt>
<trkpt lat="45.8528200" lon="9.2093090">
	<ele>762.60</ele>
	<time>2025-02-15T12:36:30.000Z</time>
</trkpt>
<trkpt lat="45.8528020" lon="9.2093060">
	<ele>762.20</ele>
	<time>2025-02-15T12:36:31.000Z</time>
</trkpt>
<trkpt lat="45.8527890" lon="9.2092990">
	<ele>762.00</ele>
	<time>2025-02-15T12:36:32.000Z</time>
</trkpt>
<trkpt lat="45.8527850" lon="9.2093040">
	<ele>761.80</ele>
	<time>2025-02-15T12:36:33.000Z</time>
</trkpt>
<trkpt lat="45.8527810" lon="9.2093160">
	<ele>761.80</ele>
	<time>2025-02-15T12:36:34.000Z</time>
</trkpt>
<trkpt lat="45.8527790" lon="9.2093360">
	<ele>761.80</ele>
	<time>2025-02-15T12:36:35.000Z</time>
</trkpt>
<trkpt lat="45.8527740" lon="9.2093550">
	<ele>761.60</ele>
	<time>2025-02-15T12:36:36.000Z</time>
</trkpt>
<trkpt lat="45.8527700" lon="9.2093640">
	<ele>761.40</ele>
	<time>2025-02-15T12:36:37.000Z</time>
</trkpt>
<trkpt lat="45.8527640" lon="9.2093660">
	<ele>761.20</ele>
	<time>2025-02-15T12:36:38.000Z</time>
</trkpt>
<trkpt lat="45.8527560" lon="9.2093640">
	<ele>760.80</ele>
	<time>2025-02-15T12:36:39.000Z</time>
</trkpt>
<trkpt lat="45.8527440" lon="9.2093670">
	<ele>760.40</ele>
	<time>2025-02-15T12:36:40.000Z</time>
</trkpt>
<trkpt lat="45.8527370" lon="9.2093710">
	<ele>760.00</ele>
	<time>2025-02-15T12:36:41.000Z</time>
</trkpt>
<trkpt lat="45.8527320" lon="9.2093780">
	<ele>759.80</ele>
	<time>2025-02-15T12:36:42.000Z</time>
</trkpt>
<trkpt lat="45.8527270" lon="9.2093840">
	<ele>759.80</ele>
	<time>2025-02-15T12:36:43.000Z</time>
</trkpt>
<trkpt lat="45.8527230" lon="9.2093950">
	<ele>759.80</ele>
	<time>2025-02-15T12:36:44.000Z</time>
</trkpt>
<trkpt lat="45.8527180" lon="9.2094050">
	<ele>759.60</ele>
	<time>2025-02-15T12:36:45.000Z</time>
</trkpt>
<trkpt lat="45.8527150" lon="9.2094100">
	<ele>759.40</ele>
	<time>2025-02-15T12:36:46.000Z</time>
</trkpt>
<trkpt lat="45.8527200" lon="9.2094170">
	<ele>759.00</ele>
	<time>2025-02-15T12:36:47.000Z</time>
</trkpt>
<trkpt lat="45.8527270" lon="9.2094230">
	<ele>758.80</ele>
	<time>2025-02-15T12:36:48.000Z</time>
</trkpt>
<trkpt lat="45.8527280" lon="9.2094300">
	<ele>758.60</ele>
	<time>2025-02-15T12:36:49.000Z</time>
</trkpt>
<trkpt lat="45.8527260" lon="9.2094320">
	<ele>758.60</ele>
	<time>2025-02-15T12:36:50.000Z</time>
</trkpt>
<trkpt lat="45.8527230" lon="9.2094330">
	<ele>758.40</ele>
	<time>2025-02-15T12:36:51.000Z</time>
</trkpt>
<trkpt lat="45.8527220" lon="9.2094390">
	<ele>758.20</ele>
	<time>2025-02-15T12:36:52.000Z</time>
</trkpt>
<trkpt lat="45.8527190" lon="9.2094430">
	<ele>757.80</ele>
	<time>2025-02-15T12:36:53.000Z</time>
</trkpt>
<trkpt lat="45.8527140" lon="9.2094450">
	<ele>757.80</ele>
	<time>2025-02-15T12:36:54.000Z</time>
</trkpt>
<trkpt lat="45.8527140" lon="9.2094500">
	<ele>757.40</ele>
	<time>2025-02-15T12:36:55.000Z</time>
</trkpt>
<trkpt lat="45.8527100" lon="9.2094530">
	<ele>757.20</ele>
	<time>2025-02-15T12:36:56.000Z</time>
</trkpt>
<trkpt lat="45.8527070" lon="9.2094510">
	<ele>757.00</ele>
	<time>2025-02-15T12:36:57.000Z</time>
</trkpt>
<trkpt lat="45.8527040" lon="9.2094550">
	<ele>756.80</ele>
	<time>2025-02-15T12:36:58.000Z</time>
</trkpt>
<trkpt lat="45.8527020" lon="9.2094670">
	<ele>756.60</ele>
	<time>2025-02-15T12:36:59.000Z</time>
</trkpt>
<trkpt lat="45.8527050" lon="9.2094830">
	<ele>756.60</ele>
	<time>2025-02-15T12:37:00.000Z</time>
</trkpt>
<trkpt lat="45.8527020" lon="9.2094880">
	<ele>756.40</ele>
	<time>2025-02-15T12:37:01.000Z</time>
</trkpt>
<trkpt lat="45.8526970" lon="9.2094940">
	<ele>756.20</ele>
	<time>2025-02-15T12:37:02.000Z</time>
</trkpt>
<trkpt lat="45.8526940" lon="9.2094950">
	<ele>756.20</ele>
	<time>2025-02-15T12:37:03.000Z</time>
</trkpt>
<trkpt lat="45.8526870" lon="9.2094940">
	<ele>756.00</ele>
	<time>2025-02-15T12:37:04.000Z</time>
</trkpt>
<trkpt lat="45.8526770" lon="9.2094920">
	<ele>755.80</ele>
	<time>2025-02-15T12:37:05.000Z</time>
</trkpt>
<trkpt lat="45.8526610" lon="9.2094830">
	<ele>755.40</ele>
	<time>2025-02-15T12:37:06.000Z</time>
</trkpt>
<trkpt lat="45.8526470" lon="9.2094700">
	<ele>755.00</ele>
	<time>2025-02-15T12:37:07.000Z</time>
</trkpt>
<trkpt lat="45.8526400" lon="9.2094600">
	<ele>754.60</ele>
	<time>2025-02-15T12:37:08.000Z</time>
</trkpt>
<trkpt lat="45.8526350" lon="9.2094560">
	<ele>754.40</ele>
	<time>2025-02-15T12:37:09.000Z</time>
</trkpt>
<trkpt lat="45.8526290" lon="9.2094560">
	<ele>754.20</ele>
	<time>2025-02-15T12:37:10.000Z</time>
</trkpt>
<trkpt lat="45.8526240" lon="9.2094570">
	<ele>754.00</ele>
	<time>2025-02-15T12:37:11.000Z</time>
</trkpt>
<trkpt lat="45.8526220" lon="9.2094630">
	<ele>754.00</ele>
	<time>2025-02-15T12:37:12.000Z</time>
</trkpt>
<trkpt lat="45.8526160" lon="9.2094610">
	<ele>753.80</ele>
	<time>2025-02-15T12:37:13.000Z</time>
</trkpt>
<trkpt lat="45.8526110" lon="9.2094600">
	<ele>753.40</ele>
	<time>2025-02-15T12:37:14.000Z</time>
</trkpt>
<trkpt lat="45.8526050" lon="9.2094580">
	<ele>753.40</ele>
	<time>2025-02-15T12:37:15.000Z</time>
</trkpt>
<trkpt lat="45.8525970" lon="9.2094520">
	<ele>753.20</ele>
	<time>2025-02-15T12:37:16.000Z</time>
</trkpt>
<trkpt lat="45.8525880" lon="9.2094420">
	<ele>753.20</ele>
	<time>2025-02-15T12:37:17.000Z</time>
</trkpt>
<trkpt lat="45.8525840" lon="9.2094430">
	<ele>752.80</ele>
	<time>2025-02-15T12:37:18.000Z</time>
</trkpt>
<trkpt lat="45.8525830" lon="9.2094450">
	<ele>752.60</ele>
	<time>2025-02-15T12:37:19.000Z</time>
</trkpt>
<trkpt lat="45.8525770" lon="9.2094410">
	<ele>752.40</ele>
	<time>2025-02-15T12:37:20.000Z</time>
</trkpt>
<trkpt lat="45.8525700" lon="9.2094390">
	<ele>752.40</ele>
	<time>2025-02-15T12:37:21.000Z</time>
</trkpt>
<trkpt lat="45.8525670" lon="9.2094380">
	<ele>752.20</ele>
	<time>2025-02-15T12:37:22.000Z</time>
</trkpt>
<trkpt lat="45.8525650" lon="9.2094340">
	<ele>752.00</ele>
	<time>2025-02-15T12:37:23.000Z</time>
</trkpt>
<trkpt lat="45.8525590" lon="9.2094280">
	<ele>752.00</ele>
	<time>2025-02-15T12:37:24.000Z</time>
</trkpt>
<trkpt lat="45.8525550" lon="9.2094280">
	<ele>751.80</ele>
	<time>2025-02-15T12:37:25.000Z</time>
</trkpt>
<trkpt lat="45.8525520" lon="9.2094240">
	<ele>751.80</ele>
	<time>2025-02-15T12:37:26.000Z</time>
</trkpt>
<trkpt lat="45.8525480" lon="9.2094200">
	<ele>751.60</ele>
	<time>2025-02-15T12:37:27.000Z</time>
</trkpt>
<trkpt lat="45.8525430" lon="9.2094130">
	<ele>751.60</ele>
	<time>2025-02-15T12:37:28.000Z</time>
</trkpt>
<trkpt lat="45.8525340" lon="9.2094040">
	<ele>751.20</ele>
	<time>2025-02-15T12:37:29.000Z</time>
</trkpt>
<trkpt lat="45.8525310" lon="9.2093980">
	<ele>750.60</ele>
	<time>2025-02-15T12:37:30.000Z</time>
</trkpt>
<trkpt lat="45.8525260" lon="9.2093970">
	<ele>750.40</ele>
	<time>2025-02-15T12:37:31.000Z</time>
</trkpt>
<trkpt lat="45.8525210" lon="9.2094000">
	<ele>750.20</ele>
	<time>2025-02-15T12:37:32.000Z</time>
</trkpt>
<trkpt lat="45.8525230" lon="9.2094040">
	<ele>750.00</ele>
	<time>2025-02-15T12:37:33.000Z</time>
</trkpt>
<trkpt lat="45.8525230" lon="9.2094090">
	<ele>749.80</ele>
	<time>2025-02-15T12:37:34.000Z</time>
</trkpt>
<trkpt lat="45.8525160" lon="9.2094160">
	<ele>749.60</ele>
	<time>2025-02-15T12:37:35.000Z</time>
</trkpt>
<trkpt lat="45.8525110" lon="9.2094220">
	<ele>749.40</ele>
	<time>2025-02-15T12:37:36.000Z</time>
</trkpt>
<trkpt lat="45.8525040" lon="9.2094150">
	<ele>749.20</ele>
	<time>2025-02-15T12:37:37.000Z</time>
</trkpt>
<trkpt lat="45.8525010" lon="9.2094200">
	<ele>749.00</ele>
	<time>2025-02-15T12:37:38.000Z</time>
</trkpt>
<trkpt lat="45.8524990" lon="9.2094240">
	<ele>748.80</ele>
	<time>2025-02-15T12:37:39.000Z</time>
</trkpt>
<trkpt lat="45.8524950" lon="9.2094230">
	<ele>748.60</ele>
	<time>2025-02-15T12:37:40.000Z</time>
</trkpt>
<trkpt lat="45.8524900" lon="9.2094230">
	<ele>748.00</ele>
	<time>2025-02-15T12:37:41.000Z</time>
</trkpt>
<trkpt lat="45.8524860" lon="9.2094230">
	<ele>747.80</ele>
	<time>2025-02-15T12:37:42.000Z</time>
</trkpt>
<trkpt lat="45.8524770" lon="9.2094220">
	<ele>747.60</ele>
	<time>2025-02-15T12:37:43.000Z</time>
</trkpt>
<trkpt lat="45.8524660" lon="9.2094220">
	<ele>747.60</ele>
	<time>2025-02-15T12:37:44.000Z</time>
</trkpt>
<trkpt lat="45.8524580" lon="9.2094180">
	<ele>747.60</ele>
	<time>2025-02-15T12:37:45.000Z</time>
</trkpt>
<trkpt lat="45.8524470" lon="9.2094110">
	<ele>747.40</ele>
	<time>2025-02-15T12:37:46.000Z</time>
</trkpt>
<trkpt lat="45.8524420" lon="9.2094110">
	<ele>747.40</ele>
	<time>2025-02-15T12:37:47.000Z</time>
</trkpt>
<trkpt lat="45.8524400" lon="9.2094090">
	<ele>747.20</ele>
	<time>2025-02-15T12:37:48.000Z</time>
</trkpt>
<trkpt lat="45.8524430" lon="9.2094040">
	<ele>747.00</ele>
	<time>2025-02-15T12:37:49.000Z</time>
</trkpt>
<trkpt lat="45.8524350" lon="9.2093950">
	<ele>747.00</ele>
	<time>2025-02-15T12:37:50.000Z</time>
</trkpt>
<trkpt lat="45.8524190" lon="9.2093820">
	<ele>746.80</ele>
	<time>2025-02-15T12:37:51.000Z</time>
</trkpt>
<trkpt lat="45.8524000" lon="9.2093740">
	<ele>746.60</ele>
	<time>2025-02-15T12:37:52.000Z</time>
</trkpt>
<trkpt lat="45.8523890" lon="9.2093660">
	<ele>746.40</ele>
	<time>2025-02-15T12:37:53.000Z</time>
</trkpt>
<trkpt lat="45.8523780" lon="9.2093620">
	<ele>746.20</ele>
	<time>2025-02-15T12:37:54.000Z</time>
</trkpt>
<trkpt lat="45.8523710" lon="9.2093670">
	<ele>746.20</ele>
	<time>2025-02-15T12:37:55.000Z</time>
</trkpt>
<trkpt lat="45.8523720" lon="9.2093800">
	<ele>746.00</ele>
	<time>2025-02-15T12:37:56.000Z</time>
</trkpt>
<trkpt lat="45.8523630" lon="9.2093850">
	<ele>746.00</ele>
	<time>2025-02-15T12:37:57.000Z</time>
</trkpt>
<trkpt lat="45.8523540" lon="9.2093890">
	<ele>745.80</ele>
	<time>2025-02-15T12:37:58.000Z</time>
</trkpt>
<trkpt lat="45.8523470" lon="9.2093870">
	<ele>745.60</ele>
	<time>2025-02-15T12:37:59.000Z</time>
</trkpt>
<trkpt lat="45.8523450" lon="9.2093890">
	<ele>745.40</ele>
	<time>2025-02-15T12:38:00.000Z</time>
</trkpt>
<trkpt lat="45.8523410" lon="9.2093900">
	<ele>745.40</ele>
	<time>2025-02-15T12:38:01.000Z</time>
</trkpt>
<trkpt lat="45.8523360" lon="9.2093800">
	<ele>745.20</ele>
	<time>2025-02-15T12:38:02.000Z</time>
</trkpt>
<trkpt lat="45.8523360" lon="9.2093740">
	<ele>745.00</ele>
	<time>2025-02-15T12:38:03.000Z</time>
</trkpt>
<trkpt lat="45.8523390" lon="9.2093650">
	<ele>744.80</ele>
	<time>2025-02-15T12:38:04.000Z</time>
</trkpt>
<trkpt lat="45.8523360" lon="9.2093600">
	<ele>744.40</ele>
	<time>2025-02-15T12:38:05.000Z</time>
</trkpt>
<trkpt lat="45.8523330" lon="9.2093570">
	<ele>744.40</ele>
	<time>2025-02-15T12:38:06.000Z</time>
</trkpt>
<trkpt lat="45.8523300" lon="9.2093540">
	<ele>744.20</ele>
	<time>2025-02-15T12:38:07.000Z</time>
</trkpt>
<trkpt lat="45.8523230" lon="9.2093540">
	<ele>744.00</ele>
	<time>2025-02-15T12:38:08.000Z</time>
</trkpt>
<trkpt lat="45.8523170" lon="9.2093590">
	<ele>743.80</ele>
	<time>2025-02-15T12:38:09.000Z</time>
</trkpt>
<trkpt lat="45.8523070" lon="9.2093580">
	<ele>743.80</ele>
	<time>2025-02-15T12:38:10.000Z</time>
</trkpt>
<trkpt lat="45.8523030" lon="9.2093580">
	<ele>743.60</ele>
	<time>2025-02-15T12:38:11.000Z</time>
</trkpt>
<trkpt lat="45.8522950" lon="9.2093530">
	<ele>743.60</ele>
	<time>2025-02-15T12:38:12.000Z</time>
</trkpt>
<trkpt lat="45.8522890" lon="9.2093450">
	<ele>743.40</ele>
	<time>2025-02-15T12:38:13.000Z</time>
</trkpt>
<trkpt lat="45.8522840" lon="9.2093410">
	<ele>743.00</ele>
	<time>2025-02-15T12:38:14.000Z</time>
</trkpt>
<trkpt lat="45.8522790" lon="9.2093330">
	<ele>743.00</ele>
	<time>2025-02-15T12:38:15.000Z</time>
</trkpt>
<trkpt lat="45.8522730" lon="9.2093280">
	<ele>742.60</ele>
	<time>2025-02-15T12:38:16.000Z</time>
</trkpt>
<trkpt lat="45.8522680" lon="9.2093200">
	<ele>742.20</ele>
	<time>2025-02-15T12:38:17.000Z</time>
</trkpt>
<trkpt lat="45.8522610" lon="9.2093070">
	<ele>742.00</ele>
	<time>2025-02-15T12:38:18.000Z</time>
</trkpt>
<trkpt lat="45.8522540" lon="9.2092960">
	<ele>741.80</ele>
	<time>2025-02-15T12:38:19.000Z</time>
</trkpt>
<trkpt lat="45.8522510" lon="9.2092980">
	<ele>741.60</ele>
	<time>2025-02-15T12:38:20.000Z</time>
</trkpt>
<trkpt lat="45.8522500" lon="9.2092960">
	<ele>741.60</ele>
	<time>2025-02-15T12:38:21.000Z</time>
</trkpt>
<trkpt lat="45.8522490" lon="9.2092860">
	<ele>741.40</ele>
	<time>2025-02-15T12:38:22.000Z</time>
</trkpt>
<trkpt lat="45.8522440" lon="9.2092830">
	<ele>741.00</ele>
	<time>2025-02-15T12:38:23.000Z</time>
</trkpt>
<trkpt lat="45.8522430" lon="9.2092840">
	<ele>741.00</ele>
	<time>2025-02-15T12:38:24.000Z</time>
</trkpt>
<trkpt lat="45.8522400" lon="9.2092830">
	<ele>740.80</ele>
	<time>2025-02-15T12:38:25.000Z</time>
</trkpt>
<trkpt lat="45.8522390" lon="9.2092810">
	<ele>740.60</ele>
	<time>2025-02-15T12:38:26.000Z</time>
</trkpt>
<trkpt lat="45.8522340" lon="9.2092750">
	<ele>740.60</ele>
	<time>2025-02-15T12:38:27.000Z</time>
</trkpt>
<trkpt lat="45.8522300" lon="9.2092690">
	<ele>740.40</ele>
	<time>2025-02-15T12:38:28.000Z</time>
</trkpt>
<trkpt lat="45.8522230" lon="9.2092630">
	<ele>740.20</ele>
	<time>2025-02-15T12:38:29.000Z</time>
</trkpt>
<trkpt lat="45.8522140" lon="9.2092560">
	<ele>740.20</ele>
	<time>2025-02-15T12:38:30.000Z</time>
</trkpt>
<trkpt lat="45.8522060" lon="9.2092510">
	<ele>739.40</ele>
	<time>2025-02-15T12:38:31.000Z</time>
</trkpt>
<trkpt lat="45.8522030" lon="9.2092500">
	<ele>739.00</ele>
	<time>2025-02-15T12:38:32.000Z</time>
</trkpt>
<trkpt lat="45.8521960" lon="9.2092440">
	<ele>738.60</ele>
	<time>2025-02-15T12:38:33.000Z</time>
</trkpt>
<trkpt lat="45.8521830" lon="9.2092260">
	<ele>738.40</ele>
	<time>2025-02-15T12:38:34.000Z</time>
</trkpt>
<trkpt lat="45.8521730" lon="9.2092180">
	<ele>738.40</ele>
	<time>2025-02-15T12:38:35.000Z</time>
</trkpt>
<trkpt lat="45.8521660" lon="9.2092150">
	<ele>738.40</ele>
	<time>2025-02-15T12:38:36.000Z</time>
</trkpt>
<trkpt lat="45.8521570" lon="9.2092080">
	<ele>738.40</ele>
	<time>2025-02-15T12:38:37.000Z</time>
</trkpt>
<trkpt lat="45.8521460" lon="9.2091990">
	<ele>738.20</ele>
	<time>2025-02-15T12:38:38.000Z</time>
</trkpt>
<trkpt lat="45.8521420" lon="9.2091970">
	<ele>738.20</ele>
	<time>2025-02-15T12:38:39.000Z</time>
</trkpt>
<trkpt lat="45.8521440" lon="9.2091900">
	<ele>738.00</ele>
	<time>2025-02-15T12:38:40.000Z</time>
</trkpt>
<trkpt lat="45.8521490" lon="9.2091900">
	<ele>737.60</ele>
	<time>2025-02-15T12:38:41.000Z</time>
</trkpt>
<trkpt lat="45.8521460" lon="9.2091870">
	<ele>737.40</ele>
	<time>2025-02-15T12:38:42.000Z</time>
</trkpt>
<trkpt lat="45.8521350" lon="9.2091790">
	<ele>737.00</ele>
	<time>2025-02-15T12:38:43.000Z</time>
</trkpt>
<trkpt lat="45.8521300" lon="9.2091800">
	<ele>736.80</ele>
	<time>2025-02-15T12:38:44.000Z</time>
</trkpt>
<trkpt lat="45.8521210" lon="9.2091780">
	<ele>736.80</ele>
	<time>2025-02-15T12:38:45.000Z</time>
</trkpt>
<trkpt lat="45.8521140" lon="9.2091780">
	<ele>736.60</ele>
	<time>2025-02-15T12:38:46.000Z</time>
</trkpt>
<trkpt lat="45.8521100" lon="9.2091780">
	<ele>736.60</ele>
	<time>2025-02-15T12:38:47.000Z</time>
</trkpt>
<trkpt lat="45.8521060" lon="9.2091730">
	<ele>736.40</ele>
	<time>2025-02-15T12:38:48.000Z</time>
</trkpt>
<trkpt lat="45.8521050" lon="9.2091750">
	<ele>735.80</ele>
	<time>2025-02-15T12:38:49.000Z</time>
</trkpt>
<trkpt lat="45.8521020" lon="9.2091770">
	<ele>735.60</ele>
	<time>2025-02-15T12:38:50.000Z</time>
</trkpt>
<trkpt lat="45.8520980" lon="9.2091760">
	<ele>735.40</ele>
	<time>2025-02-15T12:38:51.000Z</time>
</trkpt>
<trkpt lat="45.8520850" lon="9.2091680">
	<ele>735.40</ele>
	<time>2025-02-15T12:38:52.000Z</time>
</trkpt>
<trkpt lat="45.8520710" lon="9.2091560">
	<ele>735.20</ele>
	<time>2025-02-15T12:38:53.000Z</time>
</trkpt>
<trkpt lat="45.8520660" lon="9.2091540">
	<ele>735.00</ele>
	<time>2025-02-15T12:38:54.000Z</time>
</trkpt>
<trkpt lat="45.8520620" lon="9.2091600">
	<ele>734.80</ele>
	<time>2025-02-15T12:38:55.000Z</time>
</trkpt>
<trkpt lat="45.8520610" lon="9.2091600">
	<ele>734.80</ele>
	<time>2025-02-15T12:38:56.000Z</time>
</trkpt>
<trkpt lat="45.8520580" lon="9.2091570">
	<ele>734.60</ele>
	<time>2025-02-15T12:38:57.000Z</time>
</trkpt>
<trkpt lat="45.8520530" lon="9.2091620">
	<ele>734.40</ele>
	<time>2025-02-15T12:38:58.000Z</time>
</trkpt>
<trkpt lat="45.8520460" lon="9.2091570">
	<ele>734.20</ele>
	<time>2025-02-15T12:38:59.000Z</time>
</trkpt>
<trkpt lat="45.8520300" lon="9.2091490">
	<ele>734.00</ele>
	<time>2025-02-15T12:39:00.000Z</time>
</trkpt>
<trkpt lat="45.8520010" lon="9.2091360">
	<ele>733.80</ele>
	<time>2025-02-15T12:39:01.000Z</time>
</trkpt>
<trkpt lat="45.8519760" lon="9.2091150">
	<ele>733.80</ele>
	<time>2025-02-15T12:39:02.000Z</time>
</trkpt>
<trkpt lat="45.8519540" lon="9.2091100">
	<ele>733.80</ele>
	<time>2025-02-15T12:39:03.000Z</time>
</trkpt>
<trkpt lat="45.8519480" lon="9.2091150">
	<ele>733.40</ele>
	<time>2025-02-15T12:39:04.000Z</time>
</trkpt>
<trkpt lat="45.8519520" lon="9.2091310">
	<ele>733.00</ele>
	<time>2025-02-15T12:39:05.000Z</time>
</trkpt>
<trkpt lat="45.8519400" lon="9.2091410">
	<ele>733.00</ele>
	<time>2025-02-15T12:39:06.000Z</time>
</trkpt>
<trkpt lat="45.8519370" lon="9.2091520">
	<ele>732.60</ele>
	<time>2025-02-15T12:39:07.000Z</time>
</trkpt>
<trkpt lat="45.8519360" lon="9.2091580">
	<ele>732.40</ele>
	<time>2025-02-15T12:39:08.000Z</time>
</trkpt>
<trkpt lat="45.8519340" lon="9.2091690">
	<ele>732.20</ele>
	<time>2025-02-15T12:39:09.000Z</time>
</trkpt>
<trkpt lat="45.8519270" lon="9.2091790">
	<ele>732.00</ele>
	<time>2025-02-15T12:39:10.000Z</time>
</trkpt>
<trkpt lat="45.8519310" lon="9.2091970">
	<ele>732.00</ele>
	<time>2025-02-15T12:39:11.000Z</time>
</trkpt>
<trkpt lat="45.8519360" lon="9.2092120">
	<ele>731.80</ele>
	<time>2025-02-15T12:39:12.000Z</time>
</trkpt>
<trkpt lat="45.8519350" lon="9.2092180">
	<ele>731.60</ele>
	<time>2025-02-15T12:39:13.000Z</time>
</trkpt>
<trkpt lat="45.8519350" lon="9.2092240">
	<ele>731.40</ele>
	<time>2025-02-15T12:39:14.000Z</time>
</trkpt>
<trkpt lat="45.8519310" lon="9.2092330">
	<ele>731.40</ele>
	<time>2025-02-15T12:39:15.000Z</time>
</trkpt>
<trkpt lat="45.8519310" lon="9.2092570">
	<ele>731.20</ele>
	<time>2025-02-15T12:39:16.000Z</time>
</trkpt>
<trkpt lat="45.8519340" lon="9.2092750">
	<ele>731.00</ele>
	<time>2025-02-15T12:39:17.000Z</time>
</trkpt>
<trkpt lat="45.8519390" lon="9.2092920">
	<ele>731.00</ele>
	<time>2025-02-15T12:39:18.000Z</time>
</trkpt>
<trkpt lat="45.8519380" lon="9.2093000">
	<ele>730.80</ele>
	<time>2025-02-15T12:39:19.000Z</time>
</trkpt>
<trkpt lat="45.8519410" lon="9.2093060">
	<ele>730.80</ele>
	<time>2025-02-15T12:39:20.000Z</time>
</trkpt>
<trkpt lat="45.8519440" lon="9.2093100">
	<ele>730.60</ele>
	<time>2025-02-15T12:39:21.000Z</time>
</trkpt>
<trkpt lat="45.8519410" lon="9.2093160">
	<ele>730.60</ele>
	<time>2025-02-15T12:39:22.000Z</time>
</trkpt>
<trkpt lat="45.8519420" lon="9.2093300">
	<ele>730.40</ele>
	<time>2025-02-15T12:39:23.000Z</time>
</trkpt>
<trkpt lat="45.8519460" lon="9.2093380">
	<ele>730.20</ele>
	<time>2025-02-15T12:39:24.000Z</time>
</trkpt>
<trkpt lat="45.8519500" lon="9.2093510">
	<ele>730.00</ele>
	<time>2025-02-15T12:39:25.000Z</time>
</trkpt>
<trkpt lat="45.8519530" lon="9.2093620">
	<ele>730.00</ele>
	<time>2025-02-15T12:39:26.000Z</time>
</trkpt>
<trkpt lat="45.8519540" lon="9.2093850">
	<ele>729.80</ele>
	<time>2025-02-15T12:39:27.000Z</time>
</trkpt>
<trkpt lat="45.8519550" lon="9.2094070">
	<ele>729.80</ele>
	<time>2025-02-15T12:39:28.000Z</time>
</trkpt>
<trkpt lat="45.8519530" lon="9.2094190">
	<ele>729.60</ele>
	<time>2025-02-15T12:39:29.000Z</time>
</trkpt>
<trkpt lat="45.8519520" lon="9.2094230">
	<ele>729.40</ele>
	<time>2025-02-15T12:39:30.000Z</time>
</trkpt>
<trkpt lat="45.8519510" lon="9.2094280">
	<ele>729.20</ele>
	<time>2025-02-15T12:39:31.000Z</time>
</trkpt>
<trkpt lat="45.8519520" lon="9.2094370">
	<ele>729.00</ele>
	<time>2025-02-15T12:39:32.000Z</time>
</trkpt>
<trkpt lat="45.8519630" lon="9.2094510">
	<ele>729.00</ele>
	<time>2025-02-15T12:39:33.000Z</time>
</trkpt>
<trkpt lat="45.8519700" lon="9.2094570">
	<ele>728.80</ele>
	<time>2025-02-15T12:39:34.000Z</time>
</trkpt>
<trkpt lat="45.8519780" lon="9.2094600">
	<ele>728.60</ele>
	<time>2025-02-15T12:39:35.000Z</time>
</trkpt>
<trkpt lat="45.8519840" lon="9.2094590">
	<ele>728.40</ele>
	<time>2025-02-15T12:39:36.000Z</time>
</trkpt>
<trkpt lat="45.8519850" lon="9.2094550">
	<ele>728.40</ele>
	<time>2025-02-15T12:39:37.000Z</time>
</trkpt>
<trkpt lat="45.8519770" lon="9.2094590">
	<ele>728.20</ele>
	<time>2025-02-15T12:39:38.000Z</time>
</trkpt>
<trkpt lat="45.8519820" lon="9.2094540">
	<ele>728.20</ele>
	<time>2025-02-15T12:39:39.000Z</time>
</trkpt>
<trkpt lat="45.8519830" lon="9.2094570">
	<ele>728.20</ele>
	<time>2025-02-15T12:39:40.000Z</time>
</trkpt>
<trkpt lat="45.8519790" lon="9.2094630">
	<ele>728.20</ele>
	<time>2025-02-15T12:39:41.000Z</time>
</trkpt>
<trkpt lat="45.8519800" lon="9.2094670">
	<ele>728.20</ele>
	<time>2025-02-15T12:39:42.000Z</time>
</trkpt>
<trkpt lat="45.8519800" lon="9.2094650">
	<ele>728.20</ele>
	<time>2025-02-15T12:39:43.000Z</time>
</trkpt>
<trkpt lat="45.8519830" lon="9.2094690">
	<ele>728.20</ele>
	<time>2025-02-15T12:39:44.000Z</time>
</trkpt>
<trkpt lat="45.8519850" lon="9.2094720">
	<ele>728.20</ele>
	<time>2025-02-15T12:39:45.000Z</time>
</trkpt>
<trkpt lat="45.8519900" lon="9.2094630">
	<ele>728.20</ele>
	<time>2025-02-15T12:39:46.000Z</time>
</trkpt>
<trkpt lat="45.8519930" lon="9.2094610">
	<ele>728.20</ele>
	<time>2025-02-15T12:39:47.000Z</time>
</trkpt>
<trkpt lat="45.8519960" lon="9.2094630">
	<ele>728.20</ele>
	<time>2025-02-15T12:39:48.000Z</time>
</trkpt>
<trkpt lat="45.8519940" lon="9.2094620">
	<ele>728.00</ele>
	<time>2025-02-15T12:39:49.000Z</time>
</trkpt>
<trkpt lat="45.8519950" lon="9.2094820">
	<ele>728.20</ele>
	<time>2025-02-15T12:39:50.000Z</time>
</trkpt>
<trkpt lat="45.8519900" lon="9.2094910">
	<ele>728.00</ele>
	<time>2025-02-15T12:39:51.000Z</time>
</trkpt>
<trkpt lat="45.8519850" lon="9.2094900">
	<ele>728.00</ele>
	<time>2025-02-15T12:39:52.000Z</time>
</trkpt>
<trkpt lat="45.8519830" lon="9.2094940">
	<ele>728.00</ele>
	<time>2025-02-15T12:39:53.000Z</time>
</trkpt>
<trkpt lat="45.8519740" lon="9.2094950">
	<ele>728.00</ele>
	<time>2025-02-15T12:39:54.000Z</time>
</trkpt>
<trkpt lat="45.8519670" lon="9.2094950">
	<ele>728.20</ele>
	<time>2025-02-15T12:39:55.000Z</time>
</trkpt>
<trkpt lat="45.8519610" lon="9.2094930">
	<ele>728.20</ele>
	<time>2025-02-15T12:39:56.000Z</time>
</trkpt>
<trkpt lat="45.8519590" lon="9.2094970">
	<ele>728.20</ele>
	<time>2025-02-15T12:39:57.000Z</time>
</trkpt>
<trkpt lat="45.8519580" lon="9.2094970">
	<ele>728.40</ele>
	<time>2025-02-15T12:39:58.000Z</time>
</trkpt>
<trkpt lat="45.8519580" lon="9.2094970">
	<ele>728.40</ele>
	<time>2025-02-15T12:39:59.000Z</time>
</trkpt>
<trkpt lat="45.8519580" lon="9.2094970">
	<ele>728.60</ele>
	<time>2025-02-15T12:40:00.000Z</time>
</trkpt>
<trkpt lat="45.8519580" lon="9.2094970">
	<ele>728.60</ele>
	<time>2025-02-15T12:40:01.000Z</time>
</trkpt>
<trkpt lat="45.8519580" lon="9.2094970">
	<ele>728.40</ele>
	<time>2025-02-15T12:40:02.000Z</time>
</trkpt>
<trkpt lat="45.8519580" lon="9.2094970">
	<ele>728.40</ele>
	<time>2025-02-15T12:40:03.000Z</time>
</trkpt>
<trkpt lat="45.8519580" lon="9.2094970">
	<ele>728.40</ele>
	<time>2025-02-15T12:40:04.000Z</time>
</trkpt>
<trkpt lat="45.8519580" lon="9.2094970">
	<ele>728.20</ele>
	<time>2025-02-15T12:40:05.000Z</time>
</trkpt>
<trkpt lat="45.8519580" lon="9.2094970">
	<ele>728.20</ele>
	<time>2025-02-15T12:40:06.000Z</time>
</trkpt>
<trkpt lat="45.8519580" lon="9.2094950">
	<ele>728.20</ele>
	<time>2025-02-15T12:40:07.000Z</time>
</trkpt>
<trkpt lat="45.8519580" lon="9.2094950">
	<ele>728.20</ele>
	<time>2025-02-15T12:40:08.000Z</time>
</trkpt>
<trkpt lat="45.8519590" lon="9.2094950">
	<ele>728.20</ele>
	<time>2025-02-15T12:40:09.000Z</time>
</trkpt>
<trkpt lat="45.8519590" lon="9.2094940">
	<ele>728.20</ele>
	<time>2025-02-15T12:40:10.000Z</time>
</trkpt>
<trkpt lat="45.8519590" lon="9.2094930">
	<ele>728.20</ele>
	<time>2025-02-15T12:40:11.000Z</time>
</trkpt>
<trkpt lat="45.8519590" lon="9.2094910">
	<ele>728.20</ele>
	<time>2025-02-15T12:40:12.000Z</time>
</trkpt>
<trkpt lat="45.8519590" lon="9.2094910">
	<ele>728.20</ele>
	<time>2025-02-15T12:40:13.000Z</time>
</trkpt>
<trkpt lat="45.8519590" lon="9.2094900">
	<ele>728.00</ele>
	<time>2025-02-15T12:40:14.000Z</time>
</trkpt>
<trkpt lat="45.8519590" lon="9.2094890">
	<ele>728.00</ele>
	<time>2025-02-15T12:40:15.000Z</time>
</trkpt>
<trkpt lat="45.8519590" lon="9.2094880">
	<ele>728.00</ele>
	<time>2025-02-15T12:40:16.000Z</time>
</trkpt>
<trkpt lat="45.8519590" lon="9.2094880">
	<ele>728.00</ele>
	<time>2025-02-15T12:40:17.000Z</time>
</trkpt>
<trkpt lat="45.8519590" lon="9.2094870">
	<ele>728.00</ele>
	<time>2025-02-15T12:40:18.000Z</time>
</trkpt>
<trkpt lat="45.8519590" lon="9.2094860">
	<ele>728.00</ele>
	<time>2025-02-15T12:40:19.000Z</time>
</trkpt>
<trkpt lat="45.8519590" lon="9.2094860">
	<ele>728.00</ele>
	<time>2025-02-15T12:40:20.000Z</time>
</trkpt>
<trkpt lat="45.8519580" lon="9.2094860">
	<ele>728.40</ele>
	<time>2025-02-15T12:40:21.000Z</time>
</trkpt>
<trkpt lat="45.8519570" lon="9.2094860">
	<ele>728.40</ele>
	<time>2025-02-15T12:40:22.000Z</time>
</trkpt>
<trkpt lat="45.8519570" lon="9.2094850">
	<ele>728.60</ele>
	<time>2025-02-15T12:40:23.000Z</time>
</trkpt>
<trkpt lat="45.8519560" lon="9.2094840">
	<ele>728.60</ele>
	<time>2025-02-15T12:40:24.000Z</time>
</trkpt>
<trkpt lat="45.8519530" lon="9.2094790">
	<ele>728.60</ele>
	<time>2025-02-15T12:40:25.000Z</time>
</trkpt>
<trkpt lat="45.8519480" lon="9.2094810">
	<ele>728.60</ele>
	<time>2025-02-15T12:40:26.000Z</time>
</trkpt>
<trkpt lat="45.8519420" lon="9.2094780">
	<ele>728.60</ele>
	<time>2025-02-15T12:40:27.000Z</time>
</trkpt>
<trkpt lat="45.8519400" lon="9.2094780">
	<ele>728.60</ele>
	<time>2025-02-15T12:40:28.000Z</time>
</trkpt>
<trkpt lat="45.8519340" lon="9.2094870">
	<ele>728.40</ele>
	<time>2025-02-15T12:40:29.000Z</time>
</trkpt>
<trkpt lat="45.8519300" lon="9.2094860">
	<ele>728.40</ele>
	<time>2025-02-15T12:40:30.000Z</time>
</trkpt>
<trkpt lat="45.8519280" lon="9.2094820">
	<ele>728.40</ele>
	<time>2025-02-15T12:40:31.000Z</time>
</trkpt>
<trkpt lat="45.8519260" lon="9.2094810">
	<ele>728.40</ele>
	<time>2025-02-15T12:40:32.000Z</time>
</trkpt>
<trkpt lat="45.8519260" lon="9.2094810">
	<ele>728.40</ele>
	<time>2025-02-15T12:40:33.000Z</time>
</trkpt>
<trkpt lat="45.8519260" lon="9.2094810">
	<ele>728.40</ele>
	<time>2025-02-15T12:40:34.000Z</time>
</trkpt>
<trkpt lat="45.8519260" lon="9.2094810">
	<ele>728.20</ele>
	<time>2025-02-15T12:40:35.000Z</time>
</trkpt>
<trkpt lat="45.8519260" lon="9.2094810">
	<ele>728.20</ele>
	<time>2025-02-15T12:40:36.000Z</time>
</trkpt>
<trkpt lat="45.8519270" lon="9.2094810">
	<ele>728.00</ele>
	<time>2025-02-15T12:40:37.000Z</time>
</trkpt>
<trkpt lat="45.8519260" lon="9.2094780">
	<ele>728.00</ele>
	<time>2025-02-15T12:40:38.000Z</time>
</trkpt>
<trkpt lat="45.8519250" lon="9.2094790">
	<ele>728.00</ele>
	<time>2025-02-15T12:40:39.000Z</time>
</trkpt>
<trkpt lat="45.8519270" lon="9.2094940">
	<ele>728.20</ele>
	<time>2025-02-15T12:40:40.000Z</time>
</trkpt>
<trkpt lat="45.8519270" lon="9.2094990">
	<ele>728.20</ele>
	<time>2025-02-15T12:40:41.000Z</time>
</trkpt>
<trkpt lat="45.8519360" lon="9.2095080">
	<ele>728.20</ele>
	<time>2025-02-15T12:40:42.000Z</time>
</trkpt>
<trkpt lat="45.8519410" lon="9.2095140">
	<ele>728.20</ele>
	<time>2025-02-15T12:40:43.000Z</time>
</trkpt>
<trkpt lat="45.8519450" lon="9.2095160">
	<ele>728.20</ele>
	<time>2025-02-15T12:40:44.000Z</time>
</trkpt>
<trkpt lat="45.8519460" lon="9.2095230">
	<ele>728.00</ele>
	<time>2025-02-15T12:40:45.000Z</time>
</trkpt>
<trkpt lat="45.8519470" lon="9.2095280">
	<ele>728.00</ele>
	<time>2025-02-15T12:40:46.000Z</time>
</trkpt>
<trkpt lat="45.8519490" lon="9.2095320">
	<ele>728.00</ele>
	<time>2025-02-15T12:40:47.000Z</time>
</trkpt>
<trkpt lat="45.8519500" lon="9.2095340">
	<ele>728.00</ele>
	<time>2025-02-15T12:40:48.000Z</time>
</trkpt>
<trkpt lat="45.8519490" lon="9.2095340">
	<ele>728.00</ele>
	<time>2025-02-15T12:40:49.000Z</time>
</trkpt>
<trkpt lat="45.8519520" lon="9.2095290">
	<ele>728.00</ele>
	<time>2025-02-15T12:40:50.000Z</time>
</trkpt>
<trkpt lat="45.8519560" lon="9.2095240">
	<ele>728.00</ele>
	<time>2025-02-15T12:40:51.000Z</time>
</trkpt>
<trkpt lat="45.8519580" lon="9.2095270">
	<ele>728.00</ele>
	<time>2025-02-15T12:40:52.000Z</time>
</trkpt>
<trkpt lat="45.8519570" lon="9.2095320">
	<ele>727.80</ele>
	<time>2025-02-15T12:40:53.000Z</time>
</trkpt>
<trkpt lat="45.8519580" lon="9.2095400">
	<ele>727.80</ele>
	<time>2025-02-15T12:40:54.000Z</time>
</trkpt>
<trkpt lat="45.8519520" lon="9.2095490">
	<ele>727.80</ele>
	<time>2025-02-15T12:40:55.000Z</time>
</trkpt>
<trkpt lat="45.8519500" lon="9.2095600">
	<ele>727.40</ele>
	<time>2025-02-15T12:40:56.000Z</time>
</trkpt>
<trkpt lat="45.8519480" lon="9.2095690">
	<ele>727.20</ele>
	<time>2025-02-15T12:40:57.000Z</time>
</trkpt>
<trkpt lat="45.8519450" lon="9.2095730">
	<ele>727.00</ele>
	<time>2025-02-15T12:40:58.000Z</time>
</trkpt>
<trkpt lat="45.8519420" lon="9.2095790">
	<ele>727.00</ele>
	<time>2025-02-15T12:40:59.000Z</time>
</trkpt>
<trkpt lat="45.8519400" lon="9.2095810">
	<ele>726.80</ele>
	<time>2025-02-15T12:41:00.000Z</time>
</trkpt>
<trkpt lat="45.8519410" lon="9.2095840">
	<ele>726.80</ele>
	<time>2025-02-15T12:41:01.000Z</time>
</trkpt>
<trkpt lat="45.8519430" lon="9.2096020">
	<ele>726.60</ele>
	<time>2025-02-15T12:41:02.000Z</time>
</trkpt>
<trkpt lat="45.8519490" lon="9.2096230">
	<ele>726.40</ele>
	<time>2025-02-15T12:41:03.000Z</time>
</trkpt>
<trkpt lat="45.8519580" lon="9.2096400">
	<ele>726.20</ele>
	<time>2025-02-15T12:41:04.000Z</time>
</trkpt>
<trkpt lat="45.8519720" lon="9.2096590">
	<ele>726.00</ele>
	<time>2025-02-15T12:41:05.000Z</time>
</trkpt>
<trkpt lat="45.8519830" lon="9.2096690">
	<ele>726.00</ele>
	<time>2025-02-15T12:41:06.000Z</time>
</trkpt>
<trkpt lat="45.8519910" lon="9.2096850">
	<ele>725.80</ele>
	<time>2025-02-15T12:41:07.000Z</time>
</trkpt>
<trkpt lat="45.8519960" lon="9.2096890">
	<ele>725.60</ele>
	<time>2025-02-15T12:41:08.000Z</time>
</trkpt>
<trkpt lat="45.8519970" lon="9.2096900">
	<ele>725.60</ele>
	<time>2025-02-15T12:41:09.000Z</time>
</trkpt>
<trkpt lat="45.8519980" lon="9.2096930">
	<ele>725.40</ele>
	<time>2025-02-15T12:41:10.000Z</time>
</trkpt>
<trkpt lat="45.8519950" lon="9.2097070">
	<ele>725.20</ele>
	<time>2025-02-15T12:41:11.000Z</time>
</trkpt>
<trkpt lat="45.8519930" lon="9.2097210">
	<ele>725.00</ele>
	<time>2025-02-15T12:41:12.000Z</time>
</trkpt>
<trkpt lat="45.8519920" lon="9.2097240">
	<ele>725.00</ele>
	<time>2025-02-15T12:41:13.000Z</time>
</trkpt>
<trkpt lat="45.8519890" lon="9.2097330">
	<ele>724.80</ele>
	<time>2025-02-15T12:41:14.000Z</time>
</trkpt>
<trkpt lat="45.8519880" lon="9.2097370">
	<ele>724.60</ele>
	<time>2025-02-15T12:41:15.000Z</time>
</trkpt>
<trkpt lat="45.8519890" lon="9.2097480">
	<ele>724.60</ele>
	<time>2025-02-15T12:41:16.000Z</time>
</trkpt>
<trkpt lat="45.8519900" lon="9.2097610">
	<ele>724.40</ele>
	<time>2025-02-15T12:41:17.000Z</time>
</trkpt>
<trkpt lat="45.8519900" lon="9.2097770">
	<ele>724.20</ele>
	<time>2025-02-15T12:41:18.000Z</time>
</trkpt>
<trkpt lat="45.8519890" lon="9.2097900">
	<ele>724.00</ele>
	<time>2025-02-15T12:41:19.000Z</time>
</trkpt>
<trkpt lat="45.8519880" lon="9.2097960">
	<ele>723.80</ele>
	<time>2025-02-15T12:41:20.000Z</time>
</trkpt>
<trkpt lat="45.8519900" lon="9.2098130">
	<ele>723.80</ele>
	<time>2025-02-15T12:41:21.000Z</time>
</trkpt>
<trkpt lat="45.8519930" lon="9.2098220">
	<ele>723.60</ele>
	<time>2025-02-15T12:41:22.000Z</time>
</trkpt>
<trkpt lat="45.8519980" lon="9.2098310">
	<ele>723.40</ele>
	<time>2025-02-15T12:41:23.000Z</time>
</trkpt>
<trkpt lat="45.8520030" lon="9.2098380">
	<ele>723.20</ele>
	<time>2025-02-15T12:41:24.000Z</time>
</trkpt>
<trkpt lat="45.8520040" lon="9.2098410">
	<ele>723.00</ele>
	<time>2025-02-15T12:41:25.000Z</time>
</trkpt>
<trkpt lat="45.8520040" lon="9.2098500">
	<ele>722.80</ele>
	<time>2025-02-15T12:41:26.000Z</time>
</trkpt>
<trkpt lat="45.8520050" lon="9.2098590">
	<ele>722.60</ele>
	<time>2025-02-15T12:41:27.000Z</time>
</trkpt>
<trkpt lat="45.8520060" lon="9.2098630">
	<ele>722.40</ele>
	<time>2025-02-15T12:41:28.000Z</time>
</trkpt>
<trkpt lat="45.8520080" lon="9.2098710">
	<ele>722.40</ele>
	<time>2025-02-15T12:41:29.000Z</time>
</trkpt>
<trkpt lat="45.8520070" lon="9.2098770">
	<ele>722.20</ele>
	<time>2025-02-15T12:41:30.000Z</time>
</trkpt>
<trkpt lat="45.8520060" lon="9.2098890">
	<ele>722.00</ele>
	<time>2025-02-15T12:41:31.000Z</time>
</trkpt>
<trkpt lat="45.8520070" lon="9.2098960">
	<ele>721.80</ele>
	<time>2025-02-15T12:41:32.000Z</time>
</trkpt>
<trkpt lat="45.8520060" lon="9.2099010">
	<ele>721.60</ele>
	<time>2025-02-15T12:41:33.000Z</time>
</trkpt>
<trkpt lat="45.8520080" lon="9.2099140">
	<ele>721.40</ele>
	<time>2025-02-15T12:41:34.000Z</time>
</trkpt>
<trkpt lat="45.8520100" lon="9.2099180">
	<ele>721.20</ele>
	<time>2025-02-15T12:41:35.000Z</time>
</trkpt>
<trkpt lat="45.8520050" lon="9.2099150">
	<ele>721.00</ele>
	<time>2025-02-15T12:41:36.000Z</time>
</trkpt>
<trkpt lat="45.8519960" lon="9.2099140">
	<ele>720.80</ele>
	<time>2025-02-15T12:41:37.000Z</time>
</trkpt>
<trkpt lat="45.8519910" lon="9.2099160">
	<ele>720.60</ele>
	<time>2025-02-15T12:41:38.000Z</time>
</trkpt>
<trkpt lat="45.8519760" lon="9.2099100">
	<ele>720.40</ele>
	<time>2025-02-15T12:41:39.000Z</time>
</trkpt>
<trkpt lat="45.8519640" lon="9.2099070">
	<ele>720.20</ele>
	<time>2025-02-15T12:41:40.000Z</time>
</trkpt>
<trkpt lat="45.8519520" lon="9.2099070">
	<ele>720.20</ele>
	<time>2025-02-15T12:41:41.000Z</time>
</trkpt>
<trkpt lat="45.8519400" lon="9.2099050">
	<ele>720.00</ele>
	<time>2025-02-15T12:41:42.000Z</time>
</trkpt>
<trkpt lat="45.8519300" lon="9.2099110">
	<ele>719.80</ele>
	<time>2025-02-15T12:41:43.000Z</time>
</trkpt>
<trkpt lat="45.8519160" lon="9.2099110">
	<ele>719.60</ele>
	<time>2025-02-15T12:41:44.000Z</time>
</trkpt>
<trkpt lat="45.8519060" lon="9.2099100">
	<ele>719.40</ele>
	<time>2025-02-15T12:41:45.000Z</time>
</trkpt>
<trkpt lat="45.8518950" lon="9.2099050">
	<ele>719.20</ele>
	<time>2025-02-15T12:41:46.000Z</time>
</trkpt>
<trkpt lat="45.8518910" lon="9.2099030">
	<ele>719.00</ele>
	<time>2025-02-15T12:41:47.000Z</time>
</trkpt>
<trkpt lat="45.8518880" lon="9.2099010">
	<ele>719.00</ele>
	<time>2025-02-15T12:41:48.000Z</time>
</trkpt>
<trkpt lat="45.8518840" lon="9.2098980">
	<ele>718.80</ele>
	<time>2025-02-15T12:41:49.000Z</time>
</trkpt>
<trkpt lat="45.8518820" lon="9.2098970">
	<ele>718.80</ele>
	<time>2025-02-15T12:41:50.000Z</time>
</trkpt>
<trkpt lat="45.8518790" lon="9.2098970">
	<ele>718.60</ele>
	<time>2025-02-15T12:41:51.000Z</time>
</trkpt>
<trkpt lat="45.8518780" lon="9.2098980">
	<ele>718.60</ele>
	<time>2025-02-15T12:41:52.000Z</time>
</trkpt>
<trkpt lat="45.8518780" lon="9.2098980">
	<ele>718.60</ele>
	<time>2025-02-15T12:41:53.000Z</time>
</trkpt>
<trkpt lat="45.8518790" lon="9.2098960">
	<ele>718.60</ele>
	<time>2025-02-15T12:41:54.000Z</time>
</trkpt>
<trkpt lat="45.8518870" lon="9.2098970">
	<ele>718.60</ele>
	<time>2025-02-15T12:41:55.000Z</time>
</trkpt>
<trkpt lat="45.8518910" lon="9.2098950">
	<ele>718.60</ele>
	<time>2025-02-15T12:41:56.000Z</time>
</trkpt>
<trkpt lat="45.8518910" lon="9.2098960">
	<ele>718.60</ele>
	<time>2025-02-15T12:41:57.000Z</time>
</trkpt>
<trkpt lat="45.8518890" lon="9.2098910">
	<ele>718.60</ele>
	<time>2025-02-15T12:41:58.000Z</time>
</trkpt>
<trkpt lat="45.8518880" lon="9.2098920">
	<ele>718.60</ele>
	<time>2025-02-15T12:41:59.000Z</time>
</trkpt>
<trkpt lat="45.8518880" lon="9.2098920">
	<ele>718.40</ele>
	<time>2025-02-15T12:42:00.000Z</time>
</trkpt>
<trkpt lat="45.8518880" lon="9.2098920">
	<ele>718.40</ele>
	<time>2025-02-15T12:42:01.000Z</time>
</trkpt>
<trkpt lat="45.8518880" lon="9.2098920">
	<ele>718.40</ele>
	<time>2025-02-15T12:42:02.000Z</time>
</trkpt>
<trkpt lat="45.8518880" lon="9.2098920">
	<ele>718.40</ele>
	<time>2025-02-15T12:42:03.000Z</time>
</trkpt>
<trkpt lat="45.8518880" lon="9.2098920">
	<ele>718.40</ele>
	<time>2025-02-15T12:42:04.000Z</time>
</trkpt>
<trkpt lat="45.8518880" lon="9.2098920">
	<ele>718.40</ele>
	<time>2025-02-15T12:42:05.000Z</time>
</trkpt>
<trkpt lat="45.8518880" lon="9.2098920">
	<ele>718.40</ele>
	<time>2025-02-15T12:42:06.000Z</time>
</trkpt>
<trkpt lat="45.8518880" lon="9.2098920">
	<ele>718.40</ele>
	<time>2025-02-15T12:42:07.000Z</time>
</trkpt>
<trkpt lat="45.8518880" lon="9.2098920">
	<ele>718.40</ele>
	<time>2025-02-15T12:42:08.000Z</time>
</trkpt>
<trkpt lat="45.8518880" lon="9.2098920">
	<ele>718.40</ele>
	<time>2025-02-15T12:42:09.000Z</time>
</trkpt>
<trkpt lat="45.8518880" lon="9.2098920">
	<ele>718.40</ele>
	<time>2025-02-15T12:42:10.000Z</time>
</trkpt>
<trkpt lat="45.8518880" lon="9.2098920">
	<ele>718.40</ele>
	<time>2025-02-15T12:42:11.000Z</time>
</trkpt>
<trkpt lat="45.8518910" lon="9.2098930">
	<ele>718.40</ele>
	<time>2025-02-15T12:42:12.000Z</time>
</trkpt>
<trkpt lat="45.8518950" lon="9.2098920">
	<ele>718.40</ele>
	<time>2025-02-15T12:42:13.000Z</time>
</trkpt>
<trkpt lat="45.8518970" lon="9.2098920">
	<ele>718.40</ele>
	<time>2025-02-15T12:42:14.000Z</time>
</trkpt>
<trkpt lat="45.8518920" lon="9.2098940">
	<ele>718.20</ele>
	<time>2025-02-15T12:42:15.000Z</time>
</trkpt>
<trkpt lat="45.8518910" lon="9.2098990">
	<ele>718.00</ele>
	<time>2025-02-15T12:42:16.000Z</time>
</trkpt>
<trkpt lat="45.8518920" lon="9.2099010">
	<ele>717.80</ele>
	<time>2025-02-15T12:42:17.000Z</time>
</trkpt>
<trkpt lat="45.8518920" lon="9.2099040">
	<ele>717.60</ele>
	<time>2025-02-15T12:42:18.000Z</time>
</trkpt>
<trkpt lat="45.8518860" lon="9.2099070">
	<ele>717.60</ele>
	<time>2025-02-15T12:42:19.000Z</time>
</trkpt>
<trkpt lat="45.8518820" lon="9.2099060">
	<ele>717.40</ele>
	<time>2025-02-15T12:42:20.000Z</time>
</trkpt>
<trkpt lat="45.8518770" lon="9.2099100">
	<ele>717.20</ele>
	<time>2025-02-15T12:42:21.000Z</time>
</trkpt>
<trkpt lat="45.8518720" lon="9.2099070">
	<ele>717.00</ele>
	<time>2025-02-15T12:42:22.000Z</time>
</trkpt>
<trkpt lat="45.8518710" lon="9.2099040">
	<ele>717.00</ele>
	<time>2025-02-15T12:42:23.000Z</time>
</trkpt>
<trkpt lat="45.8518680" lon="9.2099020">
	<ele>717.00</ele>
	<time>2025-02-15T12:42:24.000Z</time>
</trkpt>
<trkpt lat="45.8518670" lon="9.2099070">
	<ele>716.80</ele>
	<time>2025-02-15T12:42:25.000Z</time>
</trkpt>
<trkpt lat="45.8518580" lon="9.2099140">
	<ele>716.80</ele>
	<time>2025-02-15T12:42:26.000Z</time>
</trkpt>
<trkpt lat="45.8518520" lon="9.2099160">
	<ele>716.60</ele>
	<time>2025-02-15T12:42:27.000Z</time>
</trkpt>
<trkpt lat="45.8518430" lon="9.2099130">
	<ele>716.40</ele>
	<time>2025-02-15T12:42:28.000Z</time>
</trkpt>
<trkpt lat="45.8518380" lon="9.2099150">
	<ele>716.20</ele>
	<time>2025-02-15T12:42:29.000Z</time>
</trkpt>
<trkpt lat="45.8518330" lon="9.2099100">
	<ele>716.20</ele>
	<time>2025-02-15T12:42:30.000Z</time>
</trkpt>
<trkpt lat="45.8518270" lon="9.2098990">
	<ele>716.20</ele>
	<time>2025-02-15T12:42:31.000Z</time>
</trkpt>
<trkpt lat="45.8518170" lon="9.2098860">
	<ele>716.00</ele>
	<time>2025-02-15T12:42:32.000Z</time>
</trkpt>
<trkpt lat="45.8518080" lon="9.2098790">
	<ele>715.80</ele>
	<time>2025-02-15T12:42:33.000Z</time>
</trkpt>
<trkpt lat="45.8518030" lon="9.2098790">
	<ele>715.80</ele>
	<time>2025-02-15T12:42:34.000Z</time>
</trkpt>
<trkpt lat="45.8517970" lon="9.2098790">
	<ele>715.40</ele>
	<time>2025-02-15T12:42:35.000Z</time>
</trkpt>
<trkpt lat="45.8517900" lon="9.2098760">
	<ele>715.40</ele>
	<time>2025-02-15T12:42:36.000Z</time>
</trkpt>
<trkpt lat="45.8517830" lon="9.2098710">
	<ele>715.20</ele>
	<time>2025-02-15T12:42:37.000Z</time>
</trkpt>
<trkpt lat="45.8517770" lon="9.2098690">
	<ele>715.00</ele>
	<time>2025-02-15T12:42:38.000Z</time>
</trkpt>
<trkpt lat="45.8517690" lon="9.2098670">
	<ele>714.80</ele>
	<time>2025-02-15T12:42:39.000Z</time>
</trkpt>
<trkpt lat="45.8517630" lon="9.2098670">
	<ele>714.80</ele>
	<time>2025-02-15T12:42:40.000Z</time>
</trkpt>
<trkpt lat="45.8517580" lon="9.2098660">
	<ele>714.60</ele>
	<time>2025-02-15T12:42:41.000Z</time>
</trkpt>
<trkpt lat="45.8517480" lon="9.2098580">
	<ele>714.40</ele>
	<time>2025-02-15T12:42:42.000Z</time>
</trkpt>
<trkpt lat="45.8517460" lon="9.2098520">
	<ele>714.20</ele>
	<time>2025-02-15T12:42:43.000Z</time>
</trkpt>
<trkpt lat="45.8517410" lon="9.2098420">
	<ele>714.20</ele>
	<time>2025-02-15T12:42:44.000Z</time>
</trkpt>
<trkpt lat="45.8517350" lon="9.2098340">
	<ele>714.00</ele>
	<time>2025-02-15T12:42:45.000Z</time>
</trkpt>
<trkpt lat="45.8517240" lon="9.2098250">
	<ele>714.00</ele>
	<time>2025-02-15T12:42:46.000Z</time>
</trkpt>
<trkpt lat="45.8517170" lon="9.2098190">
	<ele>713.60</ele>
	<time>2025-02-15T12:42:47.000Z</time>
</trkpt>
<trkpt lat="45.8517130" lon="9.2098150">
	<ele>713.40</ele>
	<time>2025-02-15T12:42:48.000Z</time>
</trkpt>
<trkpt lat="45.8517120" lon="9.2098190">
	<ele>713.40</ele>
	<time>2025-02-15T12:42:49.000Z</time>
</trkpt>
<trkpt lat="45.8517050" lon="9.2098150">
	<ele>713.20</ele>
	<time>2025-02-15T12:42:50.000Z</time>
</trkpt>
<trkpt lat="45.8517010" lon="9.2098150">
	<ele>713.20</ele>
	<time>2025-02-15T12:42:51.000Z</time>
</trkpt>
<trkpt lat="45.8516990" lon="9.2098160">
	<ele>712.80</ele>
	<time>2025-02-15T12:42:52.000Z</time>
</trkpt>
<trkpt lat="45.8516920" lon="9.2098140">
	<ele>712.40</ele>
	<time>2025-02-15T12:42:53.000Z</time>
</trkpt>
<trkpt lat="45.8516870" lon="9.2098090">
	<ele>712.20</ele>
	<time>2025-02-15T12:42:54.000Z</time>
</trkpt>
<trkpt lat="45.8516820" lon="9.2098050">
	<ele>712.00</ele>
	<time>2025-02-15T12:42:55.000Z</time>
</trkpt>
<trkpt lat="45.8516760" lon="9.2098020">
	<ele>712.00</ele>
	<time>2025-02-15T12:42:56.000Z</time>
</trkpt>
<trkpt lat="45.8516710" lon="9.2097920">
	<ele>711.80</ele>
	<time>2025-02-15T12:42:57.000Z</time>
</trkpt>
<trkpt lat="45.8516630" lon="9.2097860">
	<ele>711.60</ele>
	<time>2025-02-15T12:42:58.000Z</time>
</trkpt>
<trkpt lat="45.8516560" lon="9.2097850">
	<ele>711.40</ele>
	<time>2025-02-15T12:42:59.000Z</time>
</trkpt>
<trkpt lat="45.8516530" lon="9.2097920">
	<ele>711.20</ele>
	<time>2025-02-15T12:43:00.000Z</time>
</trkpt>
<trkpt lat="45.8516510" lon="9.2098000">
	<ele>711.20</ele>
	<time>2025-02-15T12:43:01.000Z</time>
</trkpt>
<trkpt lat="45.8516480" lon="9.2098030">
	<ele>711.00</ele>
	<time>2025-02-15T12:43:02.000Z</time>
</trkpt>
<trkpt lat="45.8516460" lon="9.2098040">
	<ele>710.80</ele>
	<time>2025-02-15T12:43:03.000Z</time>
</trkpt>
<trkpt lat="45.8516400" lon="9.2098030">
	<ele>710.60</ele>
	<time>2025-02-15T12:43:04.000Z</time>
</trkpt>
<trkpt lat="45.8516290" lon="9.2097990">
	<ele>710.40</ele>
	<time>2025-02-15T12:43:05.000Z</time>
</trkpt>
<trkpt lat="45.8516220" lon="9.2097900">
	<ele>710.40</ele>
	<time>2025-02-15T12:43:06.000Z</time>
</trkpt>
<trkpt lat="45.8516130" lon="9.2097820">
	<ele>710.20</ele>
	<time>2025-02-15T12:43:07.000Z</time>
</trkpt>
<trkpt lat="45.8516070" lon="9.2097780">
	<ele>710.00</ele>
	<time>2025-02-15T12:43:08.000Z</time>
</trkpt>
<trkpt lat="45.8516010" lon="9.2097760">
	<ele>709.80</ele>
	<time>2025-02-15T12:43:09.000Z</time>
</trkpt>
<trkpt lat="45.8515970" lon="9.2097730">
	<ele>709.60</ele>
	<time>2025-02-15T12:43:10.000Z</time>
</trkpt>
<trkpt lat="45.8515910" lon="9.2097620">
	<ele>709.20</ele>
	<time>2025-02-15T12:43:11.000Z</time>
</trkpt>
<trkpt lat="45.8515800" lon="9.2097560">
	<ele>709.00</ele>
	<time>2025-02-15T12:43:12.000Z</time>
</trkpt>
<trkpt lat="45.8515740" lon="9.2097480">
	<ele>708.80</ele>
	<time>2025-02-15T12:43:13.000Z</time>
</trkpt>
<trkpt lat="45.8515670" lon="9.2097440">
	<ele>708.60</ele>
	<time>2025-02-15T12:43:14.000Z</time>
</trkpt>
<trkpt lat="45.8515610" lon="9.2097410">
	<ele>708.40</ele>
	<time>2025-02-15T12:43:15.000Z</time>
</trkpt>
<trkpt lat="45.8515570" lon="9.2097350">
	<ele>708.20</ele>
	<time>2025-02-15T12:43:16.000Z</time>
</trkpt>
<trkpt lat="45.8515490" lon="9.2097270">
	<ele>708.00</ele>
	<time>2025-02-15T12:43:17.000Z</time>
</trkpt>
<trkpt lat="45.8515440" lon="9.2097190">
	<ele>708.00</ele>
	<time>2025-02-15T12:43:18.000Z</time>
</trkpt>
<trkpt lat="45.8515410" lon="9.2097140">
	<ele>707.80</ele>
	<time>2025-02-15T12:43:19.000Z</time>
</trkpt>
<trkpt lat="45.8515370" lon="9.2097070">
	<ele>707.60</ele>
	<time>2025-02-15T12:43:20.000Z</time>
</trkpt>
<trkpt lat="45.8515330" lon="9.2096990">
	<ele>707.40</ele>
	<time>2025-02-15T12:43:21.000Z</time>
</trkpt>
<trkpt lat="45.8515270" lon="9.2096920">
	<ele>707.20</ele>
	<time>2025-02-15T12:43:22.000Z</time>
</trkpt>
<trkpt lat="45.8515220" lon="9.2096840">
	<ele>707.20</ele>
	<time>2025-02-15T12:43:23.000Z</time>
</trkpt>
<trkpt lat="45.8515170" lon="9.2096800">
	<ele>707.00</ele>
	<time>2025-02-15T12:43:24.000Z</time>
</trkpt>
<trkpt lat="45.8515110" lon="9.2096760">
	<ele>706.80</ele>
	<time>2025-02-15T12:43:25.000Z</time>
</trkpt>
<trkpt lat="45.8515070" lon="9.2096740">
	<ele>706.60</ele>
	<time>2025-02-15T12:43:26.000Z</time>
</trkpt>
<trkpt lat="45.8515050" lon="9.2096710">
	<ele>706.60</ele>
	<time>2025-02-15T12:43:27.000Z</time>
</trkpt>
<trkpt lat="45.8515000" lon="9.2096650">
	<ele>706.20</ele>
	<time>2025-02-15T12:43:28.000Z</time>
</trkpt>
<trkpt lat="45.8514910" lon="9.2096620">
	<ele>706.00</ele>
	<time>2025-02-15T12:43:29.000Z</time>
</trkpt>
<trkpt lat="45.8514810" lon="9.2096600">
	<ele>705.80</ele>
	<time>2025-02-15T12:43:30.000Z</time>
</trkpt>
<trkpt lat="45.8514710" lon="9.2096540">
	<ele>705.60</ele>
	<time>2025-02-15T12:43:31.000Z</time>
</trkpt>
<trkpt lat="45.8514640" lon="9.2096460">
	<ele>705.60</ele>
	<time>2025-02-15T12:43:32.000Z</time>
</trkpt>
<trkpt lat="45.8514580" lon="9.2096380">
	<ele>705.40</ele>
	<time>2025-02-15T12:43:33.000Z</time>
</trkpt>
<trkpt lat="45.8514530" lon="9.2096310">
	<ele>705.40</ele>
	<time>2025-02-15T12:43:34.000Z</time>
</trkpt>
<trkpt lat="45.8514450" lon="9.2096260">
	<ele>705.20</ele>
	<time>2025-02-15T12:43:35.000Z</time>
</trkpt>
<trkpt lat="45.8514380" lon="9.2096210">
	<ele>705.00</ele>
	<time>2025-02-15T12:43:36.000Z</time>
</trkpt>
<trkpt lat="45.8514340" lon="9.2096100">
	<ele>705.00</ele>
	<time>2025-02-15T12:43:37.000Z</time>
</trkpt>
<trkpt lat="45.8514310" lon="9.2095890">
	<ele>705.00</ele>
	<time>2025-02-15T12:43:38.000Z</time>
</trkpt>
<trkpt lat="45.8514230" lon="9.2095680">
	<ele>704.80</ele>
	<time>2025-02-15T12:43:39.000Z</time>
</trkpt>
<trkpt lat="45.8514120" lon="9.2095510">
	<ele>704.60</ele>
	<time>2025-02-15T12:43:40.000Z</time>
</trkpt>
<trkpt lat="45.8514050" lon="9.2095390">
	<ele>704.40</ele>
	<time>2025-02-15T12:43:41.000Z</time>
</trkpt>
<trkpt lat="45.8514060" lon="9.2095390">
	<ele>704.20</ele>
	<time>2025-02-15T12:43:42.000Z</time>
</trkpt>
<trkpt lat="45.8514000" lon="9.2095320">
	<ele>704.20</ele>
	<time>2025-02-15T12:43:43.000Z</time>
</trkpt>
<trkpt lat="45.8513940" lon="9.2095180">
	<ele>704.00</ele>
	<time>2025-02-15T12:43:44.000Z</time>
</trkpt>
<trkpt lat="45.8513890" lon="9.2094980">
	<ele>704.00</ele>
	<time>2025-02-15T12:43:45.000Z</time>
</trkpt>
<trkpt lat="45.8513810" lon="9.2094880">
	<ele>703.80</ele>
	<time>2025-02-15T12:43:46.000Z</time>
</trkpt>
<trkpt lat="45.8513730" lon="9.2094820">
	<ele>703.60</ele>
	<time>2025-02-15T12:43:47.000Z</time>
</trkpt>
<trkpt lat="45.8513720" lon="9.2094800">
	<ele>703.40</ele>
	<time>2025-02-15T12:43:48.000Z</time>
</trkpt>
<trkpt lat="45.8513700" lon="9.2094720">
	<ele>703.40</ele>
	<time>2025-02-15T12:43:49.000Z</time>
</trkpt>
<trkpt lat="45.8513710" lon="9.2094640">
	<ele>703.40</ele>
	<time>2025-02-15T12:43:50.000Z</time>
</trkpt>
<trkpt lat="45.8513740" lon="9.2094610">
	<ele>703.20</ele>
	<time>2025-02-15T12:43:51.000Z</time>
</trkpt>
<trkpt lat="45.8513670" lon="9.2094440">
	<ele>703.20</ele>
	<time>2025-02-15T12:43:52.000Z</time>
</trkpt>
<trkpt lat="45.8513590" lon="9.2094230">
	<ele>703.00</ele>
	<time>2025-02-15T12:43:53.000Z</time>
</trkpt>
<trkpt lat="45.8513550" lon="9.2094070">
	<ele>702.80</ele>
	<time>2025-02-15T12:43:54.000Z</time>
</trkpt>
<trkpt lat="45.8513500" lon="9.2093960">
	<ele>702.80</ele>
	<time>2025-02-15T12:43:55.000Z</time>
</trkpt>
<trkpt lat="45.8513420" lon="9.2093840">
	<ele>702.60</ele>
	<time>2025-02-15T12:43:56.000Z</time>
</trkpt>
<trkpt lat="45.8513350" lon="9.2093710">
	<ele>702.40</ele>
	<time>2025-02-15T12:43:57.000Z</time>
</trkpt>
<trkpt lat="45.8513300" lon="9.2093570">
	<ele>702.20</ele>
	<time>2025-02-15T12:43:58.000Z</time>
</trkpt>
<trkpt lat="45.8513230" lon="9.2093460">
	<ele>702.00</ele>
	<time>2025-02-15T12:43:59.000Z</time>
</trkpt>
<trkpt lat="45.8513170" lon="9.2093380">
	<ele>702.00</ele>
	<time>2025-02-15T12:44:00.000Z</time>
</trkpt>
<trkpt lat="45.8513090" lon="9.2093290">
	<ele>701.80</ele>
	<time>2025-02-15T12:44:01.000Z</time>
</trkpt>
<trkpt lat="45.8513020" lon="9.2093200">
	<ele>701.60</ele>
	<time>2025-02-15T12:44:02.000Z</time>
</trkpt>
<trkpt lat="45.8512970" lon="9.2093120">
	<ele>701.60</ele>
	<time>2025-02-15T12:44:03.000Z</time>
</trkpt>
<trkpt lat="45.8512910" lon="9.2093060">
	<ele>701.40</ele>
	<time>2025-02-15T12:44:04.000Z</time>
</trkpt>
<trkpt lat="45.8512860" lon="9.2093030">
	<ele>701.20</ele>
	<time>2025-02-15T12:44:05.000Z</time>
</trkpt>
<trkpt lat="45.8512750" lon="9.2092950">
	<ele>701.20</ele>
	<time>2025-02-15T12:44:06.000Z</time>
</trkpt>
<trkpt lat="45.8512650" lon="9.2092830">
	<ele>701.00</ele>
	<time>2025-02-15T12:44:07.000Z</time>
</trkpt>
<trkpt lat="45.8512590" lon="9.2092740">
	<ele>701.00</ele>
	<time>2025-02-15T12:44:08.000Z</time>
</trkpt>
<trkpt lat="45.8512540" lon="9.2092670">
	<ele>700.80</ele>
	<time>2025-02-15T12:44:09.000Z</time>
</trkpt>
<trkpt lat="45.8512460" lon="9.2092590">
	<ele>700.40</ele>
	<time>2025-02-15T12:44:10.000Z</time>
</trkpt>
<trkpt lat="45.8512400" lon="9.2092530">
	<ele>700.40</ele>
	<time>2025-02-15T12:44:11.000Z</time>
</trkpt>
<trkpt lat="45.8512350" lon="9.2092430">
	<ele>700.20</ele>
	<time>2025-02-15T12:44:12.000Z</time>
</trkpt>
<trkpt lat="45.8512300" lon="9.2092340">
	<ele>700.00</ele>
	<time>2025-02-15T12:44:13.000Z</time>
</trkpt>
<trkpt lat="45.8512250" lon="9.2092270">
	<ele>699.80</ele>
	<time>2025-02-15T12:44:14.000Z</time>
</trkpt>
<trkpt lat="45.8512200" lon="9.2092190">
	<ele>699.60</ele>
	<time>2025-02-15T12:44:15.000Z</time>
</trkpt>
<trkpt lat="45.8512130" lon="9.2092080">
	<ele>699.40</ele>
	<time>2025-02-15T12:44:16.000Z</time>
</trkpt>
<trkpt lat="45.8512070" lon="9.2091990">
	<ele>699.20</ele>
	<time>2025-02-15T12:44:17.000Z</time>
</trkpt>
<trkpt lat="45.8512030" lon="9.2091980">
	<ele>699.00</ele>
	<time>2025-02-15T12:44:18.000Z</time>
</trkpt>
<trkpt lat="45.8511990" lon="9.2091890">
	<ele>699.00</ele>
	<time>2025-02-15T12:44:19.000Z</time>
</trkpt>
<trkpt lat="45.8511970" lon="9.2091800">
	<ele>698.80</ele>
	<time>2025-02-15T12:44:20.000Z</time>
</trkpt>
<trkpt lat="45.8511930" lon="9.2091740">
	<ele>698.60</ele>
	<time>2025-02-15T12:44:21.000Z</time>
</trkpt>
<trkpt lat="45.8511880" lon="9.2091670">
	<ele>698.40</ele>
	<time>2025-02-15T12:44:22.000Z</time>
</trkpt>
<trkpt lat="45.8511810" lon="9.2091570">
	<ele>698.20</ele>
	<time>2025-02-15T12:44:23.000Z</time>
</trkpt>
<trkpt lat="45.8511720" lon="9.2091500">
	<ele>698.00</ele>
	<time>2025-02-15T12:44:24.000Z</time>
</trkpt>
<trkpt lat="45.8511650" lon="9.2091410">
	<ele>697.80</ele>
	<time>2025-02-15T12:44:25.000Z</time>
</trkpt>
<trkpt lat="45.8511570" lon="9.2091290">
	<ele>697.60</ele>
	<time>2025-02-15T12:44:26.000Z</time>
</trkpt>
<trkpt lat="45.8511450" lon="9.2091180">
	<ele>697.40</ele>
	<time>2025-02-15T12:44:27.000Z</time>
</trkpt>
<trkpt lat="45.8511380" lon="9.2091150">
	<ele>697.20</ele>
	<time>2025-02-15T12:44:28.000Z</time>
</trkpt>
<trkpt lat="45.8511280" lon="9.2091030">
	<ele>697.00</ele>
	<time>2025-02-15T12:44:29.000Z</time>
</trkpt>
<trkpt lat="45.8511190" lon="9.2090930">
	<ele>697.00</ele>
	<time>2025-02-15T12:44:30.000Z</time>
</trkpt>
<trkpt lat="45.8511100" lon="9.2090830">
	<ele>697.00</ele>
	<time>2025-02-15T12:44:31.000Z</time>
</trkpt>
<trkpt lat="45.8511050" lon="9.2090680">
	<ele>696.80</ele>
	<time>2025-02-15T12:44:32.000Z</time>
</trkpt>
<trkpt lat="45.8511010" lon="9.2090610">
	<ele>696.60</ele>
	<time>2025-02-15T12:44:33.000Z</time>
</trkpt>
<trkpt lat="45.8510970" lon="9.2090540">
	<ele>696.60</ele>
	<time>2025-02-15T12:44:34.000Z</time>
</trkpt>
<trkpt lat="45.8510970" lon="9.2090540">
	<ele>696.60</ele>
	<time>2025-02-15T12:44:35.000Z</time>
</trkpt>
<trkpt lat="45.8510940" lon="9.2090530">
	<ele>696.60</ele>
	<time>2025-02-15T12:44:36.000Z</time>
</trkpt>
<trkpt lat="45.8510900" lon="9.2090550">
	<ele>696.40</ele>
	<time>2025-02-15T12:44:37.000Z</time>
</trkpt>
<trkpt lat="45.8510870" lon="9.2090550">
	<ele>696.40</ele>
	<time>2025-02-15T12:44:38.000Z</time>
</trkpt>
<trkpt lat="45.8510840" lon="9.2090560">
	<ele>696.00</ele>
	<time>2025-02-15T12:44:39.000Z</time>
</trkpt>
<trkpt lat="45.8510800" lon="9.2090610">
	<ele>695.80</ele>
	<time>2025-02-15T12:44:40.000Z</time>
</trkpt>
<trkpt lat="45.8510740" lon="9.2090620">
	<ele>695.60</ele>
	<time>2025-02-15T12:44:41.000Z</time>
</trkpt>
<trkpt lat="45.8510700" lon="9.2090570">
	<ele>695.60</ele>
	<time>2025-02-15T12:44:42.000Z</time>
</trkpt>
<trkpt lat="45.8510600" lon="9.2090410">
	<ele>695.60</ele>
	<time>2025-02-15T12:44:43.000Z</time>
</trkpt>
<trkpt lat="45.8510510" lon="9.2090300">
	<ele>695.40</ele>
	<time>2025-02-15T12:44:44.000Z</time>
</trkpt>
<trkpt lat="45.8510420" lon="9.2090220">
	<ele>695.20</ele>
	<time>2025-02-15T12:44:45.000Z</time>
</trkpt>
<trkpt lat="45.8510380" lon="9.2090180">
	<ele>694.80</ele>
	<time>2025-02-15T12:44:46.000Z</time>
</trkpt>
<trkpt lat="45.8510370" lon="9.2090180">
	<ele>694.60</ele>
	<time>2025-02-15T12:44:47.000Z</time>
</trkpt>
<trkpt lat="45.8510350" lon="9.2090150">
	<ele>694.40</ele>
	<time>2025-02-15T12:44:48.000Z</time>
</trkpt>
<trkpt lat="45.8510280" lon="9.2090100">
	<ele>694.20</ele>
	<time>2025-02-15T12:44:49.000Z</time>
</trkpt>
<trkpt lat="45.8510210" lon="9.2090030">
	<ele>694.00</ele>
	<time>2025-02-15T12:44:50.000Z</time>
</trkpt>
<trkpt lat="45.8510130" lon="9.2090040">
	<ele>694.00</ele>
	<time>2025-02-15T12:44:51.000Z</time>
</trkpt>
<trkpt lat="45.8510070" lon="9.2090040">
	<ele>693.80</ele>
	<time>2025-02-15T12:44:52.000Z</time>
</trkpt>
<trkpt lat="45.8510010" lon="9.2090040">
	<ele>693.60</ele>
	<time>2025-02-15T12:44:53.000Z</time>
</trkpt>
<trkpt lat="45.8509990" lon="9.2090000">
	<ele>693.20</ele>
	<time>2025-02-15T12:44:54.000Z</time>
</trkpt>
<trkpt lat="45.8509920" lon="9.2089950">
	<ele>693.00</ele>
	<time>2025-02-15T12:44:55.000Z</time>
</trkpt>
<trkpt lat="45.8509840" lon="9.2089990">
	<ele>693.00</ele>
	<time>2025-02-15T12:44:56.000Z</time>
</trkpt>
<trkpt lat="45.8509780" lon="9.2089950">
	<ele>692.80</ele>
	<time>2025-02-15T12:44:57.000Z</time>
</trkpt>
<trkpt lat="45.8509740" lon="9.2089900">
	<ele>692.80</ele>
	<time>2025-02-15T12:44:58.000Z</time>
</trkpt>
<trkpt lat="45.8509670" lon="9.2089950">
	<ele>692.60</ele>
	<time>2025-02-15T12:44:59.000Z</time>
</trkpt>
<trkpt lat="45.8509590" lon="9.2090000">
	<ele>692.20</ele>
	<time>2025-02-15T12:45:00.000Z</time>
</trkpt>
<trkpt lat="45.8509490" lon="9.2090000">
	<ele>692.00</ele>
	<time>2025-02-15T12:45:01.000Z</time>
</trkpt>
<trkpt lat="45.8509370" lon="9.2090030">
	<ele>692.00</ele>
	<time>2025-02-15T12:45:02.000Z</time>
</trkpt>
<trkpt lat="45.8509310" lon="9.2090000">
	<ele>691.80</ele>
	<time>2025-02-15T12:45:03.000Z</time>
</trkpt>
<trkpt lat="45.8509220" lon="9.2090010">
	<ele>691.80</ele>
	<time>2025-02-15T12:45:04.000Z</time>
</trkpt>
<trkpt lat="45.8509110" lon="9.2090010">
	<ele>691.60</ele>
	<time>2025-02-15T12:45:05.000Z</time>
</trkpt>
<trkpt lat="45.8509030" lon="9.2089950">
	<ele>691.60</ele>
	<time>2025-02-15T12:45:06.000Z</time>
</trkpt>
<trkpt lat="45.8508990" lon="9.2089930">
	<ele>691.40</ele>
	<time>2025-02-15T12:45:07.000Z</time>
</trkpt>
<trkpt lat="45.8508910" lon="9.2089890">
	<ele>691.20</ele>
	<time>2025-02-15T12:45:08.000Z</time>
</trkpt>
<trkpt lat="45.8508810" lon="9.2089860">
	<ele>691.00</ele>
	<time>2025-02-15T12:45:09.000Z</time>
</trkpt>
<trkpt lat="45.8508720" lon="9.2089800">
	<ele>690.80</ele>
	<time>2025-02-15T12:45:10.000Z</time>
</trkpt>
<trkpt lat="45.8508660" lon="9.2089670">
	<ele>690.60</ele>
	<time>2025-02-15T12:45:11.000Z</time>
</trkpt>
<trkpt lat="45.8508640" lon="9.2089610">
	<ele>690.40</ele>
	<time>2025-02-15T12:45:12.000Z</time>
</trkpt>
<trkpt lat="45.8508570" lon="9.2089630">
	<ele>690.20</ele>
	<time>2025-02-15T12:45:13.000Z</time>
</trkpt>
<trkpt lat="45.8508520" lon="9.2089620">
	<ele>690.00</ele>
	<time>2025-02-15T12:45:14.000Z</time>
</trkpt>
<trkpt lat="45.8508470" lon="9.2089740">
	<ele>690.00</ele>
	<time>2025-02-15T12:45:15.000Z</time>
</trkpt>
<trkpt lat="45.8508430" lon="9.2089870">
	<ele>689.80</ele>
	<time>2025-02-15T12:45:16.000Z</time>
</trkpt>
<trkpt lat="45.8508370" lon="9.2089950">
	<ele>689.80</ele>
	<time>2025-02-15T12:45:17.000Z</time>
</trkpt>
<trkpt lat="45.8508320" lon="9.2090040">
	<ele>689.60</ele>
	<time>2025-02-15T12:45:18.000Z</time>
</trkpt>
<trkpt lat="45.8508240" lon="9.2090050">
	<ele>689.60</ele>
	<time>2025-02-15T12:45:19.000Z</time>
</trkpt>
<trkpt lat="45.8508210" lon="9.2090040">
	<ele>689.40</ele>
	<time>2025-02-15T12:45:20.000Z</time>
</trkpt>
<trkpt lat="45.8508150" lon="9.2090020">
	<ele>689.20</ele>
	<time>2025-02-15T12:45:21.000Z</time>
</trkpt>
<trkpt lat="45.8508140" lon="9.2089950">
	<ele>689.00</ele>
	<time>2025-02-15T12:45:22.000Z</time>
</trkpt>
<trkpt lat="45.8508100" lon="9.2089930">
	<ele>688.80</ele>
	<time>2025-02-15T12:45:23.000Z</time>
</trkpt>
<trkpt lat="45.8508040" lon="9.2089900">
	<ele>688.60</ele>
	<time>2025-02-15T12:45:24.000Z</time>
</trkpt>
<trkpt lat="45.8507990" lon="9.2089820">
	<ele>688.40</ele>
	<time>2025-02-15T12:45:25.000Z</time>
</trkpt>
<trkpt lat="45.8507990" lon="9.2089670">
	<ele>688.20</ele>
	<time>2025-02-15T12:45:26.000Z</time>
</trkpt>
<trkpt lat="45.8507980" lon="9.2089620">
	<ele>688.20</ele>
	<time>2025-02-15T12:45:27.000Z</time>
</trkpt>
<trkpt lat="45.8507900" lon="9.2089560">
	<ele>688.00</ele>
	<time>2025-02-15T12:45:28.000Z</time>
</trkpt>
<trkpt lat="45.8507780" lon="9.2089560">
	<ele>688.00</ele>
	<time>2025-02-15T12:45:29.000Z</time>
</trkpt>
<trkpt lat="45.8507700" lon="9.2089570">
	<ele>687.80</ele>
	<time>2025-02-15T12:45:30.000Z</time>
</trkpt>
<trkpt lat="45.8507610" lon="9.2089640">
	<ele>687.60</ele>
	<time>2025-02-15T12:45:31.000Z</time>
</trkpt>
<trkpt lat="45.8507520" lon="9.2089670">
	<ele>687.40</ele>
	<time>2025-02-15T12:45:32.000Z</time>
</trkpt>
<trkpt lat="45.8507400" lon="9.2089680">
	<ele>687.20</ele>
	<time>2025-02-15T12:45:33.000Z</time>
</trkpt>
<trkpt lat="45.8507300" lon="9.2089680">
	<ele>687.00</ele>
	<time>2025-02-15T12:45:34.000Z</time>
</trkpt>
<trkpt lat="45.8507260" lon="9.2089690">
	<ele>686.80</ele>
	<time>2025-02-15T12:45:35.000Z</time>
</trkpt>
<trkpt lat="45.8507280" lon="9.2089810">
	<ele>686.60</ele>
	<time>2025-02-15T12:45:36.000Z</time>
</trkpt>
<trkpt lat="45.8507300" lon="9.2089900">
	<ele>686.40</ele>
	<time>2025-02-15T12:45:37.000Z</time>
</trkpt>
<trkpt lat="45.8507320" lon="9.2090030">
	<ele>686.20</ele>
	<time>2025-02-15T12:45:38.000Z</time>
</trkpt>
<trkpt lat="45.8507340" lon="9.2090120">
	<ele>686.00</ele>
	<time>2025-02-15T12:45:39.000Z</time>
</trkpt>
<trkpt lat="45.8507350" lon="9.2090140">
	<ele>686.00</ele>
	<time>2025-02-15T12:45:40.000Z</time>
</trkpt>
<trkpt lat="45.8507340" lon="9.2090230">
	<ele>685.80</ele>
	<time>2025-02-15T12:45:41.000Z</time>
</trkpt>
<trkpt lat="45.8507290" lon="9.2090300">
	<ele>685.60</ele>
	<time>2025-02-15T12:45:42.000Z</time>
</trkpt>
<trkpt lat="45.8507230" lon="9.2090360">
	<ele>685.40</ele>
	<time>2025-02-15T12:45:43.000Z</time>
</trkpt>
<trkpt lat="45.8507230" lon="9.2090390">
	<ele>685.40</ele>
	<time>2025-02-15T12:45:44.000Z</time>
</trkpt>
<trkpt lat="45.8507210" lon="9.2090380">
	<ele>685.20</ele>
	<time>2025-02-15T12:45:45.000Z</time>
</trkpt>
<trkpt lat="45.8507080" lon="9.2090330">
	<ele>684.80</ele>
	<time>2025-02-15T12:45:46.000Z</time>
</trkpt>
<trkpt lat="45.8507020" lon="9.2090370">
	<ele>684.60</ele>
	<time>2025-02-15T12:45:47.000Z</time>
</trkpt>
<trkpt lat="45.8507020" lon="9.2090440">
	<ele>684.60</ele>
	<time>2025-02-15T12:45:48.000Z</time>
</trkpt>
<trkpt lat="45.8507030" lon="9.2090420">
	<ele>684.40</ele>
	<time>2025-02-15T12:45:49.000Z</time>
</trkpt>
<trkpt lat="45.8507050" lon="9.2090440">
	<ele>684.20</ele>
	<time>2025-02-15T12:45:50.000Z</time>
</trkpt>
<trkpt lat="45.8507100" lon="9.2090510">
	<ele>684.20</ele>
	<time>2025-02-15T12:45:51.000Z</time>
</trkpt>
<trkpt lat="45.8507140" lon="9.2090540">
	<ele>684.20</ele>
	<time>2025-02-15T12:45:52.000Z</time>
</trkpt>
<trkpt lat="45.8507110" lon="9.2090670">
	<ele>683.80</ele>
	<time>2025-02-15T12:45:53.000Z</time>
</trkpt>
<trkpt lat="45.8507130" lon="9.2090750">
	<ele>683.40</ele>
	<time>2025-02-15T12:45:54.000Z</time>
</trkpt>
<trkpt lat="45.8507150" lon="9.2090810">
	<ele>683.00</ele>
	<time>2025-02-15T12:45:55.000Z</time>
</trkpt>
<trkpt lat="45.8507110" lon="9.2090870">
	<ele>682.80</ele>
	<time>2025-02-15T12:45:56.000Z</time>
</trkpt>
<trkpt lat="45.8507050" lon="9.2090990">
	<ele>682.60</ele>
	<time>2025-02-15T12:45:57.000Z</time>
</trkpt>
<trkpt lat="45.8507070" lon="9.2091100">
	<ele>682.20</ele>
	<time>2025-02-15T12:45:58.000Z</time>
</trkpt>
<trkpt lat="45.8507090" lon="9.2091180">
	<ele>682.20</ele>
	<time>2025-02-15T12:45:59.000Z</time>
</trkpt>
<trkpt lat="45.8507070" lon="9.2091120">
	<ele>682.00</ele>
	<time>2025-02-15T12:46:00.000Z</time>
</trkpt>
<trkpt lat="45.8507000" lon="9.2091110">
	<ele>681.80</ele>
	<time>2025-02-15T12:46:01.000Z</time>
</trkpt>
<trkpt lat="45.8506970" lon="9.2091080">
	<ele>681.60</ele>
	<time>2025-02-15T12:46:02.000Z</time>
</trkpt>
<trkpt lat="45.8506910" lon="9.2091080">
	<ele>681.60</ele>
	<time>2025-02-15T12:46:03.000Z</time>
</trkpt>
<trkpt lat="45.8506870" lon="9.2091050">
	<ele>681.20</ele>
	<time>2025-02-15T12:46:04.000Z</time>
</trkpt>
<trkpt lat="45.8506780" lon="9.2091040">
	<ele>680.80</ele>
	<time>2025-02-15T12:46:05.000Z</time>
</trkpt>
<trkpt lat="45.8506680" lon="9.2091100">
	<ele>680.60</ele>
	<time>2025-02-15T12:46:06.000Z</time>
</trkpt>
<trkpt lat="45.8506580" lon="9.2091090">
	<ele>680.40</ele>
	<time>2025-02-15T12:46:07.000Z</time>
</trkpt>
<trkpt lat="45.8506460" lon="9.2091040">
	<ele>680.40</ele>
	<time>2025-02-15T12:46:08.000Z</time>
</trkpt>
<trkpt lat="45.8506350" lon="9.2090960">
	<ele>680.00</ele>
	<time>2025-02-15T12:46:09.000Z</time>
</trkpt>
<trkpt lat="45.8506320" lon="9.2090930">
	<ele>680.00</ele>
	<time>2025-02-15T12:46:10.000Z</time>
</trkpt>
<trkpt lat="45.8506280" lon="9.2090980">
	<ele>679.80</ele>
	<time>2025-02-15T12:46:11.000Z</time>
</trkpt>
<trkpt lat="45.8506240" lon="9.2091010">
	<ele>679.80</ele>
	<time>2025-02-15T12:46:12.000Z</time>
</trkpt>
<trkpt lat="45.8506230" lon="9.2091070">
	<ele>679.80</ele>
	<time>2025-02-15T12:46:13.000Z</time>
</trkpt>
<trkpt lat="45.8506220" lon="9.2091070">
	<ele>679.80</ele>
	<time>2025-02-15T12:46:14.000Z</time>
</trkpt>
<trkpt lat="45.8506140" lon="9.2091070">
	<ele>679.80</ele>
	<time>2025-02-15T12:46:15.000Z</time>
</trkpt>
<trkpt lat="45.8506030" lon="9.2091030">
	<ele>679.80</ele>
	<time>2025-02-15T12:46:16.000Z</time>
</trkpt>
<trkpt lat="45.8505910" lon="9.2090950">
	<ele>679.80</ele>
	<time>2025-02-15T12:46:17.000Z</time>
</trkpt>
<trkpt lat="45.8505800" lon="9.2090930">
	<ele>679.60</ele>
	<time>2025-02-15T12:46:18.000Z</time>
</trkpt>
<trkpt lat="45.8505700" lon="9.2090870">
	<ele>679.60</ele>
	<time>2025-02-15T12:46:19.000Z</time>
</trkpt>
<trkpt lat="45.8505590" lon="9.2090850">
	<ele>679.60</ele>
	<time>2025-02-15T12:46:20.000Z</time>
</trkpt>
<trkpt lat="45.8505520" lon="9.2090920">
	<ele>679.60</ele>
	<time>2025-02-15T12:46:21.000Z</time>
</trkpt>
<trkpt lat="45.8505450" lon="9.2090970">
	<ele>679.60</ele>
	<time>2025-02-15T12:46:22.000Z</time>
</trkpt>
<trkpt lat="45.8505370" lon="9.2091000">
	<ele>679.60</ele>
	<time>2025-02-15T12:46:23.000Z</time>
</trkpt>
<trkpt lat="45.8505250" lon="9.2090950">
	<ele>679.40</ele>
	<time>2025-02-15T12:46:24.000Z</time>
</trkpt>
<trkpt lat="45.8505220" lon="9.2090910">
	<ele>679.40</ele>
	<time>2025-02-15T12:46:25.000Z</time>
</trkpt>
<trkpt lat="45.8505240" lon="9.2090830">
	<ele>679.40</ele>
	<time>2025-02-15T12:46:26.000Z</time>
</trkpt>
<trkpt lat="45.8505260" lon="9.2090750">
	<ele>679.20</ele>
	<time>2025-02-15T12:46:27.000Z</time>
</trkpt>
<trkpt lat="45.8505240" lon="9.2090750">
	<ele>679.20</ele>
	<time>2025-02-15T12:46:28.000Z</time>
</trkpt>
<trkpt lat="45.8505240" lon="9.2090750">
	<ele>679.00</ele>
	<time>2025-02-15T12:46:29.000Z</time>
</trkpt>
<trkpt lat="45.8505260" lon="9.2090730">
	<ele>678.80</ele>
	<time>2025-02-15T12:46:30.000Z</time>
</trkpt>
<trkpt lat="45.8505240" lon="9.2090710">
	<ele>678.60</ele>
	<time>2025-02-15T12:46:31.000Z</time>
</trkpt>
<trkpt lat="45.8505240" lon="9.2090670">
	<ele>678.40</ele>
	<time>2025-02-15T12:46:32.000Z</time>
</trkpt>
<trkpt lat="45.8505220" lon="9.2090630">
	<ele>678.40</ele>
	<time>2025-02-15T12:46:33.000Z</time>
</trkpt>
<trkpt lat="45.8505110" lon="9.2090530">
	<ele>678.20</ele>
	<time>2025-02-15T12:46:34.000Z</time>
</trkpt>
<trkpt lat="45.8505030" lon="9.2090400">
	<ele>678.20</ele>
	<time>2025-02-15T12:46:35.000Z</time>
</trkpt>
<trkpt lat="45.8504980" lon="9.2090300">
	<ele>677.80</ele>
	<time>2025-02-15T12:46:36.000Z</time>
</trkpt>
<trkpt lat="45.8504970" lon="9.2090220">
	<ele>677.60</ele>
	<time>2025-02-15T12:46:37.000Z</time>
</trkpt>
<trkpt lat="45.8504920" lon="9.2090070">
	<ele>677.60</ele>
	<time>2025-02-15T12:46:38.000Z</time>
</trkpt>
<trkpt lat="45.8504880" lon="9.2090070">
	<ele>677.40</ele>
	<time>2025-02-15T12:46:39.000Z</time>
</trkpt>
<trkpt lat="45.8504850" lon="9.2090050">
	<ele>677.40</ele>
	<time>2025-02-15T12:46:40.000Z</time>
</trkpt>
<trkpt lat="45.8504840" lon="9.2089950">
	<ele>677.00</ele>
	<time>2025-02-15T12:46:41.000Z</time>
</trkpt>
<trkpt lat="45.8504800" lon="9.2089920">
	<ele>676.80</ele>
	<time>2025-02-15T12:46:42.000Z</time>
</trkpt>
<trkpt lat="45.8504750" lon="9.2089900">
	<ele>676.60</ele>
	<time>2025-02-15T12:46:43.000Z</time>
</trkpt>
<trkpt lat="45.8504720" lon="9.2089870">
	<ele>676.20</ele>
	<time>2025-02-15T12:46:44.000Z</time>
</trkpt>
<trkpt lat="45.8504680" lon="9.2089840">
	<ele>676.00</ele>
	<time>2025-02-15T12:46:45.000Z</time>
</trkpt>
<trkpt lat="45.8504670" lon="9.2089780">
	<ele>675.80</ele>
	<time>2025-02-15T12:46:46.000Z</time>
</trkpt>
<trkpt lat="45.8504620" lon="9.2089760">
	<ele>675.60</ele>
	<time>2025-02-15T12:46:47.000Z</time>
</trkpt>
<trkpt lat="45.8504600" lon="9.2089770">
	<ele>675.40</ele>
	<time>2025-02-15T12:46:48.000Z</time>
</trkpt>
<trkpt lat="45.8504580" lon="9.2089790">
	<ele>675.20</ele>
	<time>2025-02-15T12:46:49.000Z</time>
</trkpt>
<trkpt lat="45.8504530" lon="9.2089810">
	<ele>675.20</ele>
	<time>2025-02-15T12:46:50.000Z</time>
</trkpt>
<trkpt lat="45.8504520" lon="9.2089790">
	<ele>675.20</ele>
	<time>2025-02-15T12:46:51.000Z</time>
</trkpt>
<trkpt lat="45.8504500" lon="9.2089770">
	<ele>675.20</ele>
	<time>2025-02-15T12:46:52.000Z</time>
</trkpt>
<trkpt lat="45.8504460" lon="9.2089780">
	<ele>675.00</ele>
	<time>2025-02-15T12:46:53.000Z</time>
</trkpt>
<trkpt lat="45.8504450" lon="9.2089810">
	<ele>675.00</ele>
	<time>2025-02-15T12:46:54.000Z</time>
</trkpt>
<trkpt lat="45.8504440" lon="9.2089850">
	<ele>674.80</ele>
	<time>2025-02-15T12:46:55.000Z</time>
</trkpt>
<trkpt lat="45.8504410" lon="9.2089880">
	<ele>674.60</ele>
	<time>2025-02-15T12:46:56.000Z</time>
</trkpt>
<trkpt lat="45.8504390" lon="9.2089870">
	<ele>674.40</ele>
	<time>2025-02-15T12:46:57.000Z</time>
</trkpt>
<trkpt lat="45.8504280" lon="9.2089830">
	<ele>674.40</ele>
	<time>2025-02-15T12:46:58.000Z</time>
</trkpt>
<trkpt lat="45.8504250" lon="9.2089830">
	<ele>674.20</ele>
	<time>2025-02-15T12:46:59.000Z</time>
</trkpt>
<trkpt lat="45.8504230" lon="9.2089810">
	<ele>674.20</ele>
	<time>2025-02-15T12:47:00.000Z</time>
</trkpt>
<trkpt lat="45.8504180" lon="9.2089840">
	<ele>674.20</ele>
	<time>2025-02-15T12:47:01.000Z</time>
</trkpt>
<trkpt lat="45.8504120" lon="9.2089880">
	<ele>674.20</ele>
	<time>2025-02-15T12:47:02.000Z</time>
</trkpt>
<trkpt lat="45.8504020" lon="9.2089870">
	<ele>674.00</ele>
	<time>2025-02-15T12:47:03.000Z</time>
</trkpt>
<trkpt lat="45.8504010" lon="9.2089930">
	<ele>674.00</ele>
	<time>2025-02-15T12:47:04.000Z</time>
</trkpt>
<trkpt lat="45.8503990" lon="9.2089970">
	<ele>674.00</ele>
	<time>2025-02-15T12:47:05.000Z</time>
</trkpt>
<trkpt lat="45.8503990" lon="9.2089980">
	<ele>674.00</ele>
	<time>2025-02-15T12:47:06.000Z</time>
</trkpt>
<trkpt lat="45.8504010" lon="9.2089980">
	<ele>674.00</ele>
	<time>2025-02-15T12:47:07.000Z</time>
</trkpt>
<trkpt lat="45.8503970" lon="9.2089920">
	<ele>674.00</ele>
	<time>2025-02-15T12:47:08.000Z</time>
</trkpt>
<trkpt lat="45.8503880" lon="9.2089810">
	<ele>674.00</ele>
	<time>2025-02-15T12:47:09.000Z</time>
</trkpt>
<trkpt lat="45.8503850" lon="9.2089780">
	<ele>674.00</ele>
	<time>2025-02-15T12:47:10.000Z</time>
</trkpt>
<trkpt lat="45.8503820" lon="9.2089870">
	<ele>674.20</ele>
	<time>2025-02-15T12:47:11.000Z</time>
</trkpt>
<trkpt lat="45.8503790" lon="9.2089930">
	<ele>674.20</ele>
	<time>2025-02-15T12:47:12.000Z</time>
</trkpt>
<trkpt lat="45.8503800" lon="9.2089940">
	<ele>674.40</ele>
	<time>2025-02-15T12:47:13.000Z</time>
</trkpt>
<trkpt lat="45.8503810" lon="9.2089920">
	<ele>674.80</ele>
	<time>2025-02-15T12:47:14.000Z</time>
</trkpt>
<trkpt lat="45.8503800" lon="9.2089920">
	<ele>675.00</ele>
	<time>2025-02-15T12:47:15.000Z</time>
</trkpt>
<trkpt lat="45.8503840" lon="9.2089980">
	<ele>675.20</ele>
	<time>2025-02-15T12:47:16.000Z</time>
</trkpt>
<trkpt lat="45.8503850" lon="9.2090000">
	<ele>675.20</ele>
	<time>2025-02-15T12:47:17.000Z</time>
</trkpt>
<trkpt lat="45.8503820" lon="9.2090060">
	<ele>675.20</ele>
	<time>2025-02-15T12:47:18.000Z</time>
</trkpt>
<trkpt lat="45.8503780" lon="9.2090120">
	<ele>675.20</ele>
	<time>2025-02-15T12:47:19.000Z</time>
</trkpt>
<trkpt lat="45.8503650" lon="9.2090040">
	<ele>675.20</ele>
	<time>2025-02-15T12:47:20.000Z</time>
</trkpt>
<trkpt lat="45.8503660" lon="9.2090030">
	<ele>675.00</ele>
	<time>2025-02-15T12:47:21.000Z</time>
</trkpt>
<trkpt lat="45.8503660" lon="9.2090030">
	<ele>674.80</ele>
	<time>2025-02-15T12:47:22.000Z</time>
</trkpt>
<trkpt lat="45.8503640" lon="9.2090000">
	<ele>674.80</ele>
	<time>2025-02-15T12:47:23.000Z</time>
</trkpt>
<trkpt lat="45.8503570" lon="9.2089930">
	<ele>674.60</ele>
	<time>2025-02-15T12:47:24.000Z</time>
</trkpt>
<trkpt lat="45.8503620" lon="9.2089930">
	<ele>674.60</ele>
	<time>2025-02-15T12:47:25.000Z</time>
</trkpt>
<trkpt lat="45.8503640" lon="9.2089900">
	<ele>674.60</ele>
	<time>2025-02-15T12:47:26.000Z</time>
</trkpt>
<trkpt lat="45.8503640" lon="9.2089870">
	<ele>674.60</ele>
	<time>2025-02-15T12:47:27.000Z</time>
</trkpt>
<trkpt lat="45.8503640" lon="9.2089850">
	<ele>674.60</ele>
	<time>2025-02-15T12:47:28.000Z</time>
</trkpt>
<trkpt lat="45.8503640" lon="9.2089850">
	<ele>674.60</ele>
	<time>2025-02-15T12:47:29.000Z</time>
</trkpt>
<trkpt lat="45.8503640" lon="9.2089850">
	<ele>674.60</ele>
	<time>2025-02-15T12:47:30.000Z</time>
</trkpt>
<trkpt lat="45.8503640" lon="9.2089850">
	<ele>674.60</ele>
	<time>2025-02-15T12:47:31.000Z</time>
</trkpt>
<trkpt lat="45.8503640" lon="9.2089850">
	<ele>674.60</ele>
	<time>2025-02-15T12:47:32.000Z</time>
</trkpt>
<trkpt lat="45.8503640" lon="9.2089850">
	<ele>674.60</ele>
	<time>2025-02-15T12:47:33.000Z</time>
</trkpt>
<trkpt lat="45.8503640" lon="9.2089850">
	<ele>674.60</ele>
	<time>2025-02-15T12:47:34.000Z</time>
</trkpt>
<trkpt lat="45.8503640" lon="9.2089850">
	<ele>674.60</ele>
	<time>2025-02-15T12:47:35.000Z</time>
</trkpt>
<trkpt lat="45.8503640" lon="9.2089850">
	<ele>674.60</ele>
	<time>2025-02-15T12:47:36.000Z</time>
</trkpt>
<trkpt lat="45.8503640" lon="9.2089850">
	<ele>674.60</ele>
	<time>2025-02-15T12:47:37.000Z</time>
</trkpt>
<trkpt lat="45.8503640" lon="9.2089850">
	<ele>674.60</ele>
	<time>2025-02-15T12:47:38.000Z</time>
</trkpt>
<trkpt lat="45.8503640" lon="9.2089850">
	<ele>674.60</ele>
	<time>2025-02-15T12:47:39.000Z</time>
</trkpt>
<trkpt lat="45.8503640" lon="9.2089850">
	<ele>674.60</ele>
	<time>2025-02-15T12:47:40.000Z</time>
</trkpt>
<trkpt lat="45.8503640" lon="9.2089850">
	<ele>674.60</ele>
	<time>2025-02-15T12:47:41.000Z</time>
</trkpt>
<trkpt lat="45.8503640" lon="9.2089850">
	<ele>674.60</ele>
	<time>2025-02-15T12:47:42.000Z</time>
</trkpt>
<trkpt lat="45.8503640" lon="9.2089850">
	<ele>674.60</ele>
	<time>2025-02-15T12:47:43.000Z</time>
</trkpt>
<trkpt lat="45.8503640" lon="9.2089850">
	<ele>674.80</ele>
	<time>2025-02-15T12:47:44.000Z</time>
</trkpt>
<trkpt lat="45.8503630" lon="9.2089830">
	<ele>674.80</ele>
	<time>2025-02-15T12:47:45.000Z</time>
</trkpt>
<trkpt lat="45.8503620" lon="9.2089820">
	<ele>674.80</ele>
	<time>2025-02-15T12:47:46.000Z</time>
</trkpt>
<trkpt lat="45.8503620" lon="9.2089800">
	<ele>674.80</ele>
	<time>2025-02-15T12:47:47.000Z</time>
</trkpt>
<trkpt lat="45.8503600" lon="9.2089770">
	<ele>674.80</ele>
	<time>2025-02-15T12:47:48.000Z</time>
</trkpt>
<trkpt lat="45.8503600" lon="9.2089760">
	<ele>674.80</ele>
	<time>2025-02-15T12:47:49.000Z</time>
</trkpt>
<trkpt lat="45.8503580" lon="9.2089760">
	<ele>674.80</ele>
	<time>2025-02-15T12:47:50.000Z</time>
</trkpt>
<trkpt lat="45.8503580" lon="9.2089740">
	<ele>674.80</ele>
	<time>2025-02-15T12:47:51.000Z</time>
</trkpt>
<trkpt lat="45.8503580" lon="9.2089730">
	<ele>674.80</ele>
	<time>2025-02-15T12:47:52.000Z</time>
</trkpt>
<trkpt lat="45.8503570" lon="9.2089730">
	<ele>674.60</ele>
	<time>2025-02-15T12:47:53.000Z</time>
</trkpt>
<trkpt lat="45.8503570" lon="9.2089720">
	<ele>674.60</ele>
	<time>2025-02-15T12:47:54.000Z</time>
</trkpt>
<trkpt lat="45.8503560" lon="9.2089670">
	<ele>674.60</ele>
	<time>2025-02-15T12:47:55.000Z</time>
</trkpt>
<trkpt lat="45.8503550" lon="9.2089660">
	<ele>674.60</ele>
	<time>2025-02-15T12:47:56.000Z</time>
</trkpt>
<trkpt lat="45.8503450" lon="9.2089600">
	<ele>674.60</ele>
	<time>2025-02-15T12:47:57.000Z</time>
</trkpt>
<trkpt lat="45.8503430" lon="9.2089570">
	<ele>674.60</ele>
	<time>2025-02-15T12:47:58.000Z</time>
</trkpt>
<trkpt lat="45.8503410" lon="9.2089550">
	<ele>674.60</ele>
	<time>2025-02-15T12:47:59.000Z</time>
</trkpt>
<trkpt lat="45.8503380" lon="9.2089620">
	<ele>674.60</ele>
	<time>2025-02-15T12:48:00.000Z</time>
</trkpt>
<trkpt lat="45.8503360" lon="9.2089660">
	<ele>674.60</ele>
	<time>2025-02-15T12:48:01.000Z</time>
</trkpt>
<trkpt lat="45.8503330" lon="9.2089680">
	<ele>674.60</ele>
	<time>2025-02-15T12:48:02.000Z</time>
</trkpt>
<trkpt lat="45.8503290" lon="9.2089690">
	<ele>674.60</ele>
	<time>2025-02-15T12:48:03.000Z</time>
</trkpt>
<trkpt lat="45.8503250" lon="9.2089700">
	<ele>674.60</ele>
	<time>2025-02-15T12:48:04.000Z</time>
</trkpt>
<trkpt lat="45.8503260" lon="9.2089710">
	<ele>674.60</ele>
	<time>2025-02-15T12:48:05.000Z</time>
</trkpt>
<trkpt lat="45.8503310" lon="9.2089690">
	<ele>674.80</ele>
	<time>2025-02-15T12:48:06.000Z</time>
</trkpt>
<trkpt lat="45.8503350" lon="9.2089700">
	<ele>674.80</ele>
	<time>2025-02-15T12:48:07.000Z</time>
</trkpt>
<trkpt lat="45.8503380" lon="9.2089710">
	<ele>674.80</ele>
	<time>2025-02-15T12:48:08.000Z</time>
</trkpt>
<trkpt lat="45.8503400" lon="9.2089690">
	<ele>674.80</ele>
	<time>2025-02-15T12:48:09.000Z</time>
</trkpt>
<trkpt lat="45.8503430" lon="9.2089700">
	<ele>674.80</ele>
	<time>2025-02-15T12:48:10.000Z</time>
</trkpt>
<trkpt lat="45.8503430" lon="9.2089710">
	<ele>674.80</ele>
	<time>2025-02-15T12:48:11.000Z</time>
</trkpt>
<trkpt lat="45.8503440" lon="9.2089700">
	<ele>674.80</ele>
	<time>2025-02-15T12:48:12.000Z</time>
</trkpt>
<trkpt lat="45.8503430" lon="9.2089690">
	<ele>674.80</ele>
	<time>2025-02-15T12:48:13.000Z</time>
</trkpt>
<trkpt lat="45.8503450" lon="9.2089630">
	<ele>674.80</ele>
	<time>2025-02-15T12:48:14.000Z</time>
</trkpt>
<trkpt lat="45.8503500" lon="9.2089510">
	<ele>674.80</ele>
	<time>2025-02-15T12:48:15.000Z</time>
</trkpt>
<trkpt lat="45.8503510" lon="9.2089500">
	<ele>675.00</ele>
	<time>2025-02-15T12:48:16.000Z</time>
</trkpt>
<trkpt lat="45.8503510" lon="9.2089500">
	<ele>675.00</ele>
	<time>2025-02-15T12:48:17.000Z</time>
</trkpt>
<trkpt lat="45.8503510" lon="9.2089490">
	<ele>675.00</ele>
	<time>2025-02-15T12:48:18.000Z</time>
</trkpt>
<trkpt lat="45.8503510" lon="9.2089490">
	<ele>675.20</ele>
	<time>2025-02-15T12:48:19.000Z</time>
</trkpt>
<trkpt lat="45.8503510" lon="9.2089490">
	<ele>675.20</ele>
	<time>2025-02-15T12:48:20.000Z</time>
</trkpt>
<trkpt lat="45.8503510" lon="9.2089490">
	<ele>675.20</ele>
	<time>2025-02-15T12:48:21.000Z</time>
</trkpt>
<trkpt lat="45.8503510" lon="9.2089490">
	<ele>675.20</ele>
	<time>2025-02-15T12:48:22.000Z</time>
</trkpt>
<trkpt lat="45.8503510" lon="9.2089490">
	<ele>675.20</ele>
	<time>2025-02-15T12:48:23.000Z</time>
</trkpt>
<trkpt lat="45.8503510" lon="9.2089490">
	<ele>675.20</ele>
	<time>2025-02-15T12:48:24.000Z</time>
</trkpt>
<trkpt lat="45.8503510" lon="9.2089490">
	<ele>675.20</ele>
	<time>2025-02-15T12:48:25.000Z</time>
</trkpt>
<trkpt lat="45.8503510" lon="9.2089490">
	<ele>675.20</ele>
	<time>2025-02-15T12:48:26.000Z</time>
</trkpt>
<trkpt lat="45.8503510" lon="9.2089490">
	<ele>675.20</ele>
	<time>2025-02-15T12:48:27.000Z</time>
</trkpt>
<trkpt lat="45.8503510" lon="9.2089490">
	<ele>675.20</ele>
	<time>2025-02-15T12:48:28.000Z</time>
</trkpt>
<trkpt lat="45.8503510" lon="9.2089490">
	<ele>675.20</ele>
	<time>2025-02-15T12:48:29.000Z</time>
</trkpt>
<trkpt lat="45.8503510" lon="9.2089490">
	<ele>674.80</ele>
	<time>2025-02-15T12:48:30.000Z</time>
</trkpt>
<trkpt lat="45.8503510" lon="9.2089490">
	<ele>674.60</ele>
	<time>2025-02-15T12:48:31.000Z</time>
</trkpt>
<trkpt lat="45.8503500" lon="9.2089490">
	<ele>674.60</ele>
	<time>2025-02-15T12:48:32.000Z</time>
</trkpt>
<trkpt lat="45.8503500" lon="9.2089490">
	<ele>674.40</ele>
	<time>2025-02-15T12:48:33.000Z</time>
</trkpt>
<trkpt lat="45.8503500" lon="9.2089490">
	<ele>674.40</ele>
	<time>2025-02-15T12:48:34.000Z</time>
</trkpt>
<trkpt lat="45.8503500" lon="9.2089490">
	<ele>674.40</ele>
	<time>2025-02-15T12:48:35.000Z</time>
</trkpt>
<trkpt lat="45.8503500" lon="9.2089490">
	<ele>674.40</ele>
	<time>2025-02-15T12:48:36.000Z</time>
</trkpt>
<trkpt lat="45.8503500" lon="9.2089490">
	<ele>674.60</ele>
	<time>2025-02-15T12:48:37.000Z</time>
</trkpt>
<trkpt lat="45.8503500" lon="9.2089490">
	<ele>674.60</ele>
	<time>2025-02-15T12:48:38.000Z</time>
</trkpt>
<trkpt lat="45.8503500" lon="9.2089490">
	<ele>674.80</ele>
	<time>2025-02-15T12:48:39.000Z</time>
</trkpt>
<trkpt lat="45.8503500" lon="9.2089490">
	<ele>674.80</ele>
	<time>2025-02-15T12:48:40.000Z</time>
</trkpt>
<trkpt lat="45.8503500" lon="9.2089480">
	<ele>675.00</ele>
	<time>2025-02-15T12:48:41.000Z</time>
</trkpt>
<trkpt lat="45.8503510" lon="9.2089480">
	<ele>675.20</ele>
	<time>2025-02-15T12:48:42.000Z</time>
</trkpt>
<trkpt lat="45.8503510" lon="9.2089470">
	<ele>675.20</ele>
	<time>2025-02-15T12:48:43.000Z</time>
</trkpt>
<trkpt lat="45.8503510" lon="9.2089470">
	<ele>675.40</ele>
	<time>2025-02-15T12:48:44.000Z</time>
</trkpt>
<trkpt lat="45.8503510" lon="9.2089450">
	<ele>675.60</ele>
	<time>2025-02-15T12:48:45.000Z</time>
</trkpt>
<trkpt lat="45.8503510" lon="9.2089450">
	<ele>675.60</ele>
	<time>2025-02-15T12:48:46.000Z</time>
</trkpt>
<trkpt lat="45.8503520" lon="9.2089440">
	<ele>675.80</ele>
	<time>2025-02-15T12:48:47.000Z</time>
</trkpt>
<trkpt lat="45.8503530" lon="9.2089440">
	<ele>675.80</ele>
	<time>2025-02-15T12:48:48.000Z</time>
</trkpt>
<trkpt lat="45.8503530" lon="9.2089440">
	<ele>675.80</ele>
	<time>2025-02-15T12:48:49.000Z</time>
</trkpt>
<trkpt lat="45.8503540" lon="9.2089430">
	<ele>675.80</ele>
	<time>2025-02-15T12:48:50.000Z</time>
</trkpt>
<trkpt lat="45.8503540" lon="9.2089430">
	<ele>675.80</ele>
	<time>2025-02-15T12:48:51.000Z</time>
</trkpt>
<trkpt lat="45.8503550" lon="9.2089430">
	<ele>675.60</ele>
	<time>2025-02-15T12:48:52.000Z</time>
</trkpt>
<trkpt lat="45.8503560" lon="9.2089430">
	<ele>675.60</ele>
	<time>2025-02-15T12:48:53.000Z</time>
</trkpt>
<trkpt lat="45.8503590" lon="9.2089420">
	<ele>675.60</ele>
	<time>2025-02-15T12:48:54.000Z</time>
</trkpt>
<trkpt lat="45.8503650" lon="9.2089420">
	<ele>675.40</ele>
	<time>2025-02-15T12:48:55.000Z</time>
</trkpt>
<trkpt lat="45.8503690" lon="9.2089420">
	<ele>675.20</ele>
	<time>2025-02-15T12:48:56.000Z</time>
</trkpt>
<trkpt lat="45.8503730" lon="9.2089420">
	<ele>675.20</ele>
	<time>2025-02-15T12:48:57.000Z</time>
</trkpt>
<trkpt lat="45.8503740" lon="9.2089420">
	<ele>675.20</ele>
	<time>2025-02-15T12:48:58.000Z</time>
</trkpt>
<trkpt lat="45.8503740" lon="9.2089400">
	<ele>675.20</ele>
	<time>2025-02-15T12:48:59.000Z</time>
</trkpt>
<trkpt lat="45.8503740" lon="9.2089390">
	<ele>675.00</ele>
	<time>2025-02-15T12:49:00.000Z</time>
</trkpt>
<trkpt lat="45.8503740" lon="9.2089370">
	<ele>674.80</ele>
	<time>2025-02-15T12:49:01.000Z</time>
</trkpt>
<trkpt lat="45.8503740" lon="9.2089350">
	<ele>674.80</ele>
	<time>2025-02-15T12:49:02.000Z</time>
</trkpt>
<trkpt lat="45.8503740" lon="9.2089340">
	<ele>674.60</ele>
	<time>2025-02-15T12:49:03.000Z</time>
</trkpt>
<trkpt lat="45.8503740" lon="9.2089330">
	<ele>674.40</ele>
	<time>2025-02-15T12:49:04.000Z</time>
</trkpt>
<trkpt lat="45.8503740" lon="9.2089310">
	<ele>674.40</ele>
	<time>2025-02-15T12:49:05.000Z</time>
</trkpt>
<trkpt lat="45.8503710" lon="9.2089180">
	<ele>674.20</ele>
	<time>2025-02-15T12:49:06.000Z</time>
</trkpt>
<trkpt lat="45.8503640" lon="9.2089000">
	<ele>674.00</ele>
	<time>2025-02-15T12:49:07.000Z</time>
</trkpt>
<trkpt lat="45.8503560" lon="9.2088800">
	<ele>674.00</ele>
	<time>2025-02-15T12:49:08.000Z</time>
</trkpt>
<trkpt lat="45.8503470" lon="9.2088580">
	<ele>673.80</ele>
	<time>2025-02-15T12:49:09.000Z</time>
</trkpt>
<trkpt lat="45.8503370" lon="9.2088360">
	<ele>673.60</ele>
	<time>2025-02-15T12:49:10.000Z</time>
</trkpt>
<trkpt lat="45.8503280" lon="9.2088160">
	<ele>673.60</ele>
	<time>2025-02-15T12:49:11.000Z</time>
</trkpt>
<trkpt lat="45.8503160" lon="9.2087930">
	<ele>673.40</ele>
	<time>2025-02-15T12:49:12.000Z</time>
</trkpt>
<trkpt lat="45.8503110" lon="9.2087820">
	<ele>673.20</ele>
	<time>2025-02-15T12:49:13.000Z</time>
</trkpt>
<trkpt lat="45.8503060" lon="9.2087650">
	<ele>673.00</ele>
	<time>2025-02-15T12:49:14.000Z</time>
</trkpt>
<trkpt lat="45.8502990" lon="9.2087480">
	<ele>673.00</ele>
	<time>2025-02-15T12:49:15.000Z</time>
</trkpt>
<trkpt lat="45.8502930" lon="9.2087440">
	<ele>672.80</ele>
	<time>2025-02-15T12:49:16.000Z</time>
</trkpt>
<trkpt lat="45.8502860" lon="9.2087380">
	<ele>672.80</ele>
	<time>2025-02-15T12:49:17.000Z</time>
</trkpt>
<trkpt lat="45.8502760" lon="9.2087340">
	<ele>672.60</ele>
	<time>2025-02-15T12:49:18.000Z</time>
</trkpt>
<trkpt lat="45.8502680" lon="9.2087340">
	<ele>672.40</ele>
	<time>2025-02-15T12:49:19.000Z</time>
</trkpt>
<trkpt lat="45.8502660" lon="9.2087270">
	<ele>672.20</ele>
	<time>2025-02-15T12:49:20.000Z</time>
</trkpt>
<trkpt lat="45.8502640" lon="9.2087170">
	<ele>672.00</ele>
	<time>2025-02-15T12:49:21.000Z</time>
</trkpt>
<trkpt lat="45.8502570" lon="9.2087090">
	<ele>672.00</ele>
	<time>2025-02-15T12:49:22.000Z</time>
</trkpt>
<trkpt lat="45.8502500" lon="9.2087070">
	<ele>671.80</ele>
	<time>2025-02-15T12:49:23.000Z</time>
</trkpt>
<trkpt lat="45.8502440" lon="9.2086990">
	<ele>671.80</ele>
	<time>2025-02-15T12:49:24.000Z</time>
</trkpt>
<trkpt lat="45.8502340" lon="9.2086920">
	<ele>671.60</ele>
	<time>2025-02-15T12:49:25.000Z</time>
</trkpt>
<trkpt lat="45.8502290" lon="9.2086850">
	<ele>671.60</ele>
	<time>2025-02-15T12:49:26.000Z</time>
</trkpt>
<trkpt lat="45.8502180" lon="9.2086770">
	<ele>671.40</ele>
	<time>2025-02-15T12:49:27.000Z</time>
</trkpt>
<trkpt lat="45.8502080" lon="9.2086720">
	<ele>671.40</ele>
	<time>2025-02-15T12:49:28.000Z</time>
</trkpt>
<trkpt lat="45.8502010" lon="9.2086690">
	<ele>671.20</ele>
	<time>2025-02-15T12:49:29.000Z</time>
</trkpt>
<trkpt lat="45.8501940" lon="9.2086650">
	<ele>671.00</ele>
	<time>2025-02-15T12:49:30.000Z</time>
</trkpt>
<trkpt lat="45.8501870" lon="9.2086620">
	<ele>671.00</ele>
	<time>2025-02-15T12:49:31.000Z</time>
</trkpt>
<trkpt lat="45.8501790" lon="9.2086590">
	<ele>670.80</ele>
	<time>2025-02-15T12:49:32.000Z</time>
</trkpt>
<trkpt lat="45.8501730" lon="9.2086610">
	<ele>670.60</ele>
	<time>2025-02-15T12:49:33.000Z</time>
</trkpt>
<trkpt lat="45.8501650" lon="9.2086590">
	<ele>670.60</ele>
	<time>2025-02-15T12:49:34.000Z</time>
</trkpt>
<trkpt lat="45.8501570" lon="9.2086540">
	<ele>670.60</ele>
	<time>2025-02-15T12:49:35.000Z</time>
</trkpt>
<trkpt lat="45.8501500" lon="9.2086530">
	<ele>670.40</ele>
	<time>2025-02-15T12:49:36.000Z</time>
</trkpt>
<trkpt lat="45.8501420" lon="9.2086540">
	<ele>670.00</ele>
	<time>2025-02-15T12:49:37.000Z</time>
</trkpt>
<trkpt lat="45.8501350" lon="9.2086550">
	<ele>669.80</ele>
	<time>2025-02-15T12:49:38.000Z</time>
</trkpt>
<trkpt lat="45.8501250" lon="9.2086570">
	<ele>669.80</ele>
	<time>2025-02-15T12:49:39.000Z</time>
</trkpt>
<trkpt lat="45.8501170" lon="9.2086580">
	<ele>669.60</ele>
	<time>2025-02-15T12:49:40.000Z</time>
</trkpt>
<trkpt lat="45.8501130" lon="9.2086600">
	<ele>669.40</ele>
	<time>2025-02-15T12:49:41.000Z</time>
</trkpt>
<trkpt lat="45.8501060" lon="9.2086600">
	<ele>669.40</ele>
	<time>2025-02-15T12:49:42.000Z</time>
</trkpt>
<trkpt lat="45.8500970" lon="9.2086560">
	<ele>669.20</ele>
	<time>2025-02-15T12:49:43.000Z</time>
</trkpt>
<trkpt lat="45.8500870" lon="9.2086500">
	<ele>669.00</ele>
	<time>2025-02-15T12:49:44.000Z</time>
</trkpt>
<trkpt lat="45.8500770" lon="9.2086420">
	<ele>668.80</ele>
	<time>2025-02-15T12:49:45.000Z</time>
</trkpt>
<trkpt lat="45.8500680" lon="9.2086360">
	<ele>668.80</ele>
	<time>2025-02-15T12:49:46.000Z</time>
</trkpt>
<trkpt lat="45.8500510" lon="9.2086310">
	<ele>668.60</ele>
	<time>2025-02-15T12:49:47.000Z</time>
</trkpt>
<trkpt lat="45.8500390" lon="9.2086320">
	<ele>668.40</ele>
	<time>2025-02-15T12:49:48.000Z</time>
</trkpt>
<trkpt lat="45.8500310" lon="9.2086400">
	<ele>668.20</ele>
	<time>2025-02-15T12:49:49.000Z</time>
</trkpt>
<trkpt lat="45.8500220" lon="9.2086460">
	<ele>668.00</ele>
	<time>2025-02-15T12:49:50.000Z</time>
</trkpt>
<trkpt lat="45.8500170" lon="9.2086500">
	<ele>668.00</ele>
	<time>2025-02-15T12:49:51.000Z</time>
</trkpt>
<trkpt lat="45.8500080" lon="9.2086560">
	<ele>667.80</ele>
	<time>2025-02-15T12:49:52.000Z</time>
</trkpt>
<trkpt lat="45.8500000" lon="9.2086590">
	<ele>667.60</ele>
	<time>2025-02-15T12:49:53.000Z</time>
</trkpt>
<trkpt lat="45.8499920" lon="9.2086630">
	<ele>667.40</ele>
	<time>2025-02-15T12:49:54.000Z</time>
</trkpt>
<trkpt lat="45.8499830" lon="9.2086640">
	<ele>667.20</ele>
	<time>2025-02-15T12:49:55.000Z</time>
</trkpt>
<trkpt lat="45.8499790" lon="9.2086680">
	<ele>667.20</ele>
	<time>2025-02-15T12:49:56.000Z</time>
</trkpt>
<trkpt lat="45.8499680" lon="9.2086670">
	<ele>667.00</ele>
	<time>2025-02-15T12:49:57.000Z</time>
</trkpt>
<trkpt lat="45.8499580" lon="9.2086670">
	<ele>666.80</ele>
	<time>2025-02-15T12:49:58.000Z</time>
</trkpt>
<trkpt lat="45.8499460" lon="9.2086690">
	<ele>666.80</ele>
	<time>2025-02-15T12:49:59.000Z</time>
</trkpt>
<trkpt lat="45.8499380" lon="9.2086770">
	<ele>666.80</ele>
	<time>2025-02-15T12:50:00.000Z</time>
</trkpt>
<trkpt lat="45.8499280" lon="9.2086830">
	<ele>666.60</ele>
	<time>2025-02-15T12:50:01.000Z</time>
</trkpt>
<trkpt lat="45.8499170" lon="9.2086810">
	<ele>666.40</ele>
	<time>2025-02-15T12:50:02.000Z</time>
</trkpt>
<trkpt lat="45.8499070" lon="9.2086780">
	<ele>666.20</ele>
	<time>2025-02-15T12:50:03.000Z</time>
</trkpt>
<trkpt lat="45.8499010" lon="9.2086710">
	<ele>666.20</ele>
	<time>2025-02-15T12:50:04.000Z</time>
</trkpt>
<trkpt lat="45.8498940" lon="9.2086680">
	<ele>666.00</ele>
	<time>2025-02-15T12:50:05.000Z</time>
</trkpt>
<trkpt lat="45.8498920" lon="9.2086670">
	<ele>665.80</ele>
	<time>2025-02-15T12:50:06.000Z</time>
</trkpt>
<trkpt lat="45.8498880" lon="9.2086650">
	<ele>665.80</ele>
	<time>2025-02-15T12:50:07.000Z</time>
</trkpt>
<trkpt lat="45.8498810" lon="9.2086650">
	<ele>665.80</ele>
	<time>2025-02-15T12:50:08.000Z</time>
</trkpt>
<trkpt lat="45.8498680" lon="9.2086600">
	<ele>665.60</ele>
	<time>2025-02-15T12:50:09.000Z</time>
</trkpt>
<trkpt lat="45.8498610" lon="9.2086620">
	<ele>665.40</ele>
	<time>2025-02-15T12:50:10.000Z</time>
</trkpt>
<trkpt lat="45.8498540" lon="9.2086660">
	<ele>665.00</ele>
	<time>2025-02-15T12:50:11.000Z</time>
</trkpt>
<trkpt lat="45.8498470" lon="9.2086730">
	<ele>664.80</ele>
	<time>2025-02-15T12:50:12.000Z</time>
</trkpt>
<trkpt lat="45.8498380" lon="9.2086760">
	<ele>664.40</ele>
	<time>2025-02-15T12:50:13.000Z</time>
</trkpt>
<trkpt lat="45.8498300" lon="9.2086780">
	<ele>664.20</ele>
	<time>2025-02-15T12:50:14.000Z</time>
</trkpt>
<trkpt lat="45.8498220" lon="9.2086770">
	<ele>664.20</ele>
	<time>2025-02-15T12:50:15.000Z</time>
</trkpt>
<trkpt lat="45.8498140" lon="9.2086710">
	<ele>664.00</ele>
	<time>2025-02-15T12:50:16.000Z</time>
</trkpt>
<trkpt lat="45.8498020" lon="9.2086650">
	<ele>664.00</ele>
	<time>2025-02-15T12:50:17.000Z</time>
</trkpt>
<trkpt lat="45.8498000" lon="9.2086700">
	<ele>663.80</ele>
	<time>2025-02-15T12:50:18.000Z</time>
</trkpt>
<trkpt lat="45.8497910" lon="9.2086650">
	<ele>663.80</ele>
	<time>2025-02-15T12:50:19.000Z</time>
</trkpt>
<trkpt lat="45.8497830" lon="9.2086630">
	<ele>663.60</ele>
	<time>2025-02-15T12:50:20.000Z</time>
</trkpt>
<trkpt lat="45.8497790" lon="9.2086660">
	<ele>663.40</ele>
	<time>2025-02-15T12:50:21.000Z</time>
</trkpt>
<trkpt lat="45.8497750" lon="9.2086720">
	<ele>663.20</ele>
	<time>2025-02-15T12:50:22.000Z</time>
</trkpt>
<trkpt lat="45.8497700" lon="9.2086760">
	<ele>663.20</ele>
	<time>2025-02-15T12:50:23.000Z</time>
</trkpt>
<trkpt lat="45.8497640" lon="9.2086800">
	<ele>663.00</ele>
	<time>2025-02-15T12:50:24.000Z</time>
</trkpt>
<trkpt lat="45.8497560" lon="9.2086810">
	<ele>663.00</ele>
	<time>2025-02-15T12:50:25.000Z</time>
</trkpt>
<trkpt lat="45.8497490" lon="9.2086840">
	<ele>663.00</ele>
	<time>2025-02-15T12:50:26.000Z</time>
</trkpt>
<trkpt lat="45.8497440" lon="9.2086910">
	<ele>662.80</ele>
	<time>2025-02-15T12:50:27.000Z</time>
</trkpt>
<trkpt lat="45.8497370" lon="9.2086970">
	<ele>662.60</ele>
	<time>2025-02-15T12:50:28.000Z</time>
</trkpt>
<trkpt lat="45.8497280" lon="9.2086960">
	<ele>662.40</ele>
	<time>2025-02-15T12:50:29.000Z</time>
</trkpt>
<trkpt lat="45.8497170" lon="9.2086910">
	<ele>662.40</ele>
	<time>2025-02-15T12:50:30.000Z</time>
</trkpt>
<trkpt lat="45.8497110" lon="9.2086900">
	<ele>662.20</ele>
	<time>2025-02-15T12:50:31.000Z</time>
</trkpt>
<trkpt lat="45.8497010" lon="9.2086920">
	<ele>662.00</ele>
	<time>2025-02-15T12:50:32.000Z</time>
</trkpt>
<trkpt lat="45.8496990" lon="9.2086910">
	<ele>662.00</ele>
	<time>2025-02-15T12:50:33.000Z</time>
</trkpt>
<trkpt lat="45.8496880" lon="9.2086880">
	<ele>662.00</ele>
	<time>2025-02-15T12:50:34.000Z</time>
</trkpt>
<trkpt lat="45.8496780" lon="9.2086850">
	<ele>662.00</ele>
	<time>2025-02-15T12:50:35.000Z</time>
</trkpt>
<trkpt lat="45.8496680" lon="9.2086890">
	<ele>661.80</ele>
	<time>2025-02-15T12:50:36.000Z</time>
</trkpt>
<trkpt lat="45.8496560" lon="9.2086890">
	<ele>661.80</ele>
	<time>2025-02-15T12:50:37.000Z</time>
</trkpt>
<trkpt lat="45.8496490" lon="9.2086910">
	<ele>661.60</ele>
	<time>2025-02-15T12:50:38.000Z</time>
</trkpt>
<trkpt lat="45.8496430" lon="9.2086940">
	<ele>661.40</ele>
	<time>2025-02-15T12:50:39.000Z</time>
</trkpt>
<trkpt lat="45.8496350" lon="9.2086950">
	<ele>661.20</ele>
	<time>2025-02-15T12:50:40.000Z</time>
</trkpt>
<trkpt lat="45.8496190" lon="9.2086940">
	<ele>661.00</ele>
	<time>2025-02-15T12:50:41.000Z</time>
</trkpt>
<trkpt lat="45.8496070" lon="9.2086890">
	<ele>661.00</ele>
	<time>2025-02-15T12:50:42.000Z</time>
</trkpt>
<trkpt lat="45.8495920" lon="9.2086810">
	<ele>661.00</ele>
	<time>2025-02-15T12:50:43.000Z</time>
</trkpt>
<trkpt lat="45.8495830" lon="9.2086690">
	<ele>660.80</ele>
	<time>2025-02-15T12:50:44.000Z</time>
</trkpt>
<trkpt lat="45.8495760" lon="9.2086630">
	<ele>660.80</ele>
	<time>2025-02-15T12:50:45.000Z</time>
</trkpt>
<trkpt lat="45.8495750" lon="9.2086580">
	<ele>660.80</ele>
	<time>2025-02-15T12:50:46.000Z</time>
</trkpt>
<trkpt lat="45.8495730" lon="9.2086560">
	<ele>660.80</ele>
	<time>2025-02-15T12:50:47.000Z</time>
</trkpt>
<trkpt lat="45.8495720" lon="9.2086560">
	<ele>660.80</ele>
	<time>2025-02-15T12:50:48.000Z</time>
</trkpt>
<trkpt lat="45.8495780" lon="9.2086720">
	<ele>660.80</ele>
	<time>2025-02-15T12:50:49.000Z</time>
</trkpt>
<trkpt lat="45.8495740" lon="9.2086760">
	<ele>660.80</ele>
	<time>2025-02-15T12:50:50.000Z</time>
</trkpt>
<trkpt lat="45.8495680" lon="9.2086800">
	<ele>660.80</ele>
	<time>2025-02-15T12:50:51.000Z</time>
</trkpt>
<trkpt lat="45.8495610" lon="9.2086780">
	<ele>660.60</ele>
	<time>2025-02-15T12:50:52.000Z</time>
</trkpt>
<trkpt lat="45.8495520" lon="9.2086690">
	<ele>660.60</ele>
	<time>2025-02-15T12:50:53.000Z</time>
</trkpt>
<trkpt lat="45.8495430" lon="9.2086620">
	<ele>660.60</ele>
	<time>2025-02-15T12:50:54.000Z</time>
</trkpt>
<trkpt lat="45.8495360" lon="9.2086620">
	<ele>660.40</ele>
	<time>2025-02-15T12:50:55.000Z</time>
</trkpt>
<trkpt lat="45.8495290" lon="9.2086620">
	<ele>660.20</ele>
	<time>2025-02-15T12:50:56.000Z</time>
</trkpt>
<trkpt lat="45.8495250" lon="9.2086660">
	<ele>660.00</ele>
	<time>2025-02-15T12:50:57.000Z</time>
</trkpt>
<trkpt lat="45.8495160" lon="9.2086610">
	<ele>660.00</ele>
	<time>2025-02-15T12:50:58.000Z</time>
</trkpt>
<trkpt lat="45.8495080" lon="9.2086570">
	<ele>660.00</ele>
	<time>2025-02-15T12:50:59.000Z</time>
</trkpt>
<trkpt lat="45.8495010" lon="9.2086550">
	<ele>659.80</ele>
	<time>2025-02-15T12:51:00.000Z</time>
</trkpt>
<trkpt lat="45.8494930" lon="9.2086560">
	<ele>659.60</ele>
	<time>2025-02-15T12:51:01.000Z</time>
</trkpt>
<trkpt lat="45.8494840" lon="9.2086530">
	<ele>659.60</ele>
	<time>2025-02-15T12:51:02.000Z</time>
</trkpt>
<trkpt lat="45.8494720" lon="9.2086510">
	<ele>659.60</ele>
	<time>2025-02-15T12:51:03.000Z</time>
</trkpt>
<trkpt lat="45.8494650" lon="9.2086480">
	<ele>659.20</ele>
	<time>2025-02-15T12:51:04.000Z</time>
</trkpt>
<trkpt lat="45.8494600" lon="9.2086440">
	<ele>659.00</ele>
	<time>2025-02-15T12:51:05.000Z</time>
</trkpt>
<trkpt lat="45.8494550" lon="9.2086380">
	<ele>658.80</ele>
	<time>2025-02-15T12:51:06.000Z</time>
</trkpt>
<trkpt lat="45.8494460" lon="9.2086320">
	<ele>658.60</ele>
	<time>2025-02-15T12:51:07.000Z</time>
</trkpt>
<trkpt lat="45.8494370" lon="9.2086290">
	<ele>658.60</ele>
	<time>2025-02-15T12:51:08.000Z</time>
</trkpt>
<trkpt lat="45.8494250" lon="9.2086280">
	<ele>658.20</ele>
	<time>2025-02-15T12:51:09.000Z</time>
</trkpt>
<trkpt lat="45.8494140" lon="9.2086290">
	<ele>658.20</ele>
	<time>2025-02-15T12:51:10.000Z</time>
</trkpt>
<trkpt lat="45.8494070" lon="9.2086260">
	<ele>658.00</ele>
	<time>2025-02-15T12:51:11.000Z</time>
</trkpt>
<trkpt lat="45.8494000" lon="9.2086250">
	<ele>657.80</ele>
	<time>2025-02-15T12:51:12.000Z</time>
</trkpt>
<trkpt lat="45.8493960" lon="9.2086280">
	<ele>657.60</ele>
	<time>2025-02-15T12:51:13.000Z</time>
</trkpt>
<trkpt lat="45.8493850" lon="9.2086180">
	<ele>657.40</ele>
	<time>2025-02-15T12:51:14.000Z</time>
</trkpt>
<trkpt lat="45.8493800" lon="9.2086110">
	<ele>657.40</ele>
	<time>2025-02-15T12:51:15.000Z</time>
</trkpt>
<trkpt lat="45.8493720" lon="9.2086110">
	<ele>657.00</ele>
	<time>2025-02-15T12:51:16.000Z</time>
</trkpt>
<trkpt lat="45.8493610" lon="9.2085950">
	<ele>656.80</ele>
	<time>2025-02-15T12:51:17.000Z</time>
</trkpt>
<trkpt lat="45.8493500" lon="9.2085870">
	<ele>656.80</ele>
	<time>2025-02-15T12:51:18.000Z</time>
</trkpt>
<trkpt lat="45.8493350" lon="9.2085870">
	<ele>656.60</ele>
	<time>2025-02-15T12:51:19.000Z</time>
</trkpt>
<trkpt lat="45.8493220" lon="9.2085910">
	<ele>656.40</ele>
	<time>2025-02-15T12:51:20.000Z</time>
</trkpt>
<trkpt lat="45.8493090" lon="9.2085990">
	<ele>656.20</ele>
	<time>2025-02-15T12:51:21.000Z</time>
</trkpt>
<trkpt lat="45.8493000" lon="9.2086020">
	<ele>656.20</ele>
	<time>2025-02-15T12:51:22.000Z</time>
</trkpt>
<trkpt lat="45.8492920" lon="9.2085980">
	<ele>656.00</ele>
	<time>2025-02-15T12:51:23.000Z</time>
</trkpt>
<trkpt lat="45.8492970" lon="9.2085960">
	<ele>655.80</ele>
	<time>2025-02-15T12:51:24.000Z</time>
</trkpt>
<trkpt lat="45.8493000" lon="9.2086000">
	<ele>655.80</ele>
	<time>2025-02-15T12:51:25.000Z</time>
</trkpt>
<trkpt lat="45.8492940" lon="9.2085870">
	<ele>655.60</ele>
	<time>2025-02-15T12:51:26.000Z</time>
</trkpt>
<trkpt lat="45.8492920" lon="9.2085840">
	<ele>655.40</ele>
	<time>2025-02-15T12:51:27.000Z</time>
</trkpt>
<trkpt lat="45.8492800" lon="9.2085870">
	<ele>655.20</ele>
	<time>2025-02-15T12:51:28.000Z</time>
</trkpt>
<trkpt lat="45.8492680" lon="9.2085910">
	<ele>655.00</ele>
	<time>2025-02-15T12:51:29.000Z</time>
</trkpt>
<trkpt lat="45.8492630" lon="9.2085920">
	<ele>655.00</ele>
	<time>2025-02-15T12:51:30.000Z</time>
</trkpt>
<trkpt lat="45.8492610" lon="9.2085940">
	<ele>654.80</ele>
	<time>2025-02-15T12:51:31.000Z</time>
</trkpt>
<trkpt lat="45.8492580" lon="9.2085940">
	<ele>654.80</ele>
	<time>2025-02-15T12:51:32.000Z</time>
</trkpt>
<trkpt lat="45.8492490" lon="9.2085970">
	<ele>654.60</ele>
	<time>2025-02-15T12:51:33.000Z</time>
</trkpt>
<trkpt lat="45.8492420" lon="9.2086020">
	<ele>654.40</ele>
	<time>2025-02-15T12:51:34.000Z</time>
</trkpt>
<trkpt lat="45.8492340" lon="9.2086100">
	<ele>654.00</ele>
	<time>2025-02-15T12:51:35.000Z</time>
</trkpt>
<trkpt lat="45.8492260" lon="9.2086140">
	<ele>653.80</ele>
	<time>2025-02-15T12:51:36.000Z</time>
</trkpt>
<trkpt lat="45.8492210" lon="9.2086160">
	<ele>653.80</ele>
	<time>2025-02-15T12:51:37.000Z</time>
</trkpt>
<trkpt lat="45.8492170" lon="9.2086260">
	<ele>653.60</ele>
	<time>2025-02-15T12:51:38.000Z</time>
</trkpt>
<trkpt lat="45.8492120" lon="9.2086340">
	<ele>653.40</ele>
	<time>2025-02-15T12:51:39.000Z</time>
</trkpt>
<trkpt lat="45.8492060" lon="9.2086410">
	<ele>653.20</ele>
	<time>2025-02-15T12:51:40.000Z</time>
</trkpt>
<trkpt lat="45.8492010" lon="9.2086480">
	<ele>653.20</ele>
	<time>2025-02-15T12:51:41.000Z</time>
</trkpt>
<trkpt lat="45.8491920" lon="9.2086480">
	<ele>653.00</ele>
	<time>2025-02-15T12:51:42.000Z</time>
</trkpt>
<trkpt lat="45.8491860" lon="9.2086520">
	<ele>653.00</ele>
	<time>2025-02-15T12:51:43.000Z</time>
</trkpt>
<trkpt lat="45.8491790" lon="9.2086550">
	<ele>652.60</ele>
	<time>2025-02-15T12:51:44.000Z</time>
</trkpt>
<trkpt lat="45.8491760" lon="9.2086650">
	<ele>652.40</ele>
	<time>2025-02-15T12:51:45.000Z</time>
</trkpt>
<trkpt lat="45.8491690" lon="9.2086750">
	<ele>652.40</ele>
	<time>2025-02-15T12:51:46.000Z</time>
</trkpt>
<trkpt lat="45.8491650" lon="9.2086830">
	<ele>652.20</ele>
	<time>2025-02-15T12:51:47.000Z</time>
</trkpt>
<trkpt lat="45.8491600" lon="9.2086890">
	<ele>652.20</ele>
	<time>2025-02-15T12:51:48.000Z</time>
</trkpt>
<trkpt lat="45.8491550" lon="9.2086970">
	<ele>652.00</ele>
	<time>2025-02-15T12:51:49.000Z</time>
</trkpt>
<trkpt lat="45.8491560" lon="9.2087040">
	<ele>651.80</ele>
	<time>2025-02-15T12:51:50.000Z</time>
</trkpt>
<trkpt lat="45.8491490" lon="9.2087110">
	<ele>651.60</ele>
	<time>2025-02-15T12:51:51.000Z</time>
</trkpt>
<trkpt lat="45.8491420" lon="9.2087190">
	<ele>651.40</ele>
	<time>2025-02-15T12:51:52.000Z</time>
</trkpt>
<trkpt lat="45.8491350" lon="9.2087280">
	<ele>651.40</ele>
	<time>2025-02-15T12:51:53.000Z</time>
</trkpt>
<trkpt lat="45.8491300" lon="9.2087360">
	<ele>651.20</ele>
	<time>2025-02-15T12:51:54.000Z</time>
</trkpt>
<trkpt lat="45.8491280" lon="9.2087490">
	<ele>651.20</ele>
	<time>2025-02-15T12:51:55.000Z</time>
</trkpt>
<trkpt lat="45.8491210" lon="9.2087570">
	<ele>650.80</ele>
	<time>2025-02-15T12:51:56.000Z</time>
</trkpt>
<trkpt lat="45.8491140" lon="9.2087600">
	<ele>650.80</ele>
	<time>2025-02-15T12:51:57.000Z</time>
</trkpt>
<trkpt lat="45.8491130" lon="9.2087650">
	<ele>650.60</ele>
	<time>2025-02-15T12:51:58.000Z</time>
</trkpt>
<trkpt lat="45.8491100" lon="9.2087690">
	<ele>650.60</ele>
	<time>2025-02-15T12:51:59.000Z</time>
</trkpt>
<trkpt lat="45.8491060" lon="9.2087690">
	<ele>650.40</ele>
	<time>2025-02-15T12:52:00.000Z</time>
</trkpt>
<trkpt lat="45.8491040" lon="9.2087740">
	<ele>650.40</ele>
	<time>2025-02-15T12:52:01.000Z</time>
</trkpt>
<trkpt lat="45.8491010" lon="9.2087750">
	<ele>650.20</ele>
	<time>2025-02-15T12:52:02.000Z</time>
</trkpt>
<trkpt lat="45.8490950" lon="9.2087760">
	<ele>650.20</ele>
	<time>2025-02-15T12:52:03.000Z</time>
</trkpt>
<trkpt lat="45.8490890" lon="9.2087840">
	<ele>650.00</ele>
	<time>2025-02-15T12:52:04.000Z</time>
</trkpt>
<trkpt lat="45.8490870" lon="9.2087890">
	<ele>649.60</ele>
	<time>2025-02-15T12:52:05.000Z</time>
</trkpt>
<trkpt lat="45.8490810" lon="9.2087920">
	<ele>649.60</ele>
	<time>2025-02-15T12:52:06.000Z</time>
</trkpt>
<trkpt lat="45.8490770" lon="9.2088000">
	<ele>649.40</ele>
	<time>2025-02-15T12:52:07.000Z</time>
</trkpt>
<trkpt lat="45.8490710" lon="9.2088070">
	<ele>649.20</ele>
	<time>2025-02-15T12:52:08.000Z</time>
</trkpt>
<trkpt lat="45.8490670" lon="9.2088140">
	<ele>649.20</ele>
	<time>2025-02-15T12:52:09.000Z</time>
</trkpt>
<trkpt lat="45.8490550" lon="9.2088140">
	<ele>649.00</ele>
	<time>2025-02-15T12:52:10.000Z</time>
</trkpt>
<trkpt lat="45.8490460" lon="9.2088150">
	<ele>648.80</ele>
	<time>2025-02-15T12:52:11.000Z</time>
</trkpt>
<trkpt lat="45.8490370" lon="9.2088240">
	<ele>648.80</ele>
	<time>2025-02-15T12:52:12.000Z</time>
</trkpt>
<trkpt lat="45.8490330" lon="9.2088350">
	<ele>648.60</ele>
	<time>2025-02-15T12:52:13.000Z</time>
</trkpt>
<trkpt lat="45.8490260" lon="9.2088410">
	<ele>648.40</ele>
	<time>2025-02-15T12:52:14.000Z</time>
</trkpt>
<trkpt lat="45.8490200" lon="9.2088440">
	<ele>648.40</ele>
	<time>2025-02-15T12:52:15.000Z</time>
</trkpt>
<trkpt lat="45.8490120" lon="9.2088540">
	<ele>648.20</ele>
	<time>2025-02-15T12:52:16.000Z</time>
</trkpt>
<trkpt lat="45.8490040" lon="9.2088600">
	<ele>648.00</ele>
	<time>2025-02-15T12:52:17.000Z</time>
</trkpt>
<trkpt lat="45.8489940" lon="9.2088720">
	<ele>648.00</ele>
	<time>2025-02-15T12:52:18.000Z</time>
</trkpt>
<trkpt lat="45.8489880" lon="9.2088900">
	<ele>647.60</ele>
	<time>2025-02-15T12:52:19.000Z</time>
</trkpt>
<trkpt lat="45.8489760" lon="9.2088950">
	<ele>647.40</ele>
	<time>2025-02-15T12:52:20.000Z</time>
</trkpt>
<trkpt lat="45.8489640" lon="9.2088940">
	<ele>647.40</ele>
	<time>2025-02-15T12:52:21.000Z</time>
</trkpt>
<trkpt lat="45.8489580" lon="9.2088990">
	<ele>647.40</ele>
	<time>2025-02-15T12:52:22.000Z</time>
</trkpt>
<trkpt lat="45.8489520" lon="9.2089090">
	<ele>647.20</ele>
	<time>2025-02-15T12:52:23.000Z</time>
</trkpt>
<trkpt lat="45.8489450" lon="9.2089220">
	<ele>647.00</ele>
	<time>2025-02-15T12:52:24.000Z</time>
</trkpt>
<trkpt lat="45.8489370" lon="9.2089330">
	<ele>646.80</ele>
	<time>2025-02-15T12:52:25.000Z</time>
</trkpt>
<trkpt lat="45.8489310" lon="9.2089420">
	<ele>646.60</ele>
	<time>2025-02-15T12:52:26.000Z</time>
</trkpt>
<trkpt lat="45.8489270" lon="9.2089500">
	<ele>646.40</ele>
	<time>2025-02-15T12:52:27.000Z</time>
</trkpt>
<trkpt lat="45.8489200" lon="9.2089540">
	<ele>646.20</ele>
	<time>2025-02-15T12:52:28.000Z</time>
</trkpt>
<trkpt lat="45.8489190" lon="9.2089630">
	<ele>646.00</ele>
	<time>2025-02-15T12:52:29.000Z</time>
</trkpt>
<trkpt lat="45.8489150" lon="9.2089720">
	<ele>646.00</ele>
	<time>2025-02-15T12:52:30.000Z</time>
</trkpt>
<trkpt lat="45.8489120" lon="9.2089810">
	<ele>645.80</ele>
	<time>2025-02-15T12:52:31.000Z</time>
</trkpt>
<trkpt lat="45.8489100" lon="9.2089920">
	<ele>645.60</ele>
	<time>2025-02-15T12:52:32.000Z</time>
</trkpt>
<trkpt lat="45.8489040" lon="9.2090050">
	<ele>645.40</ele>
	<time>2025-02-15T12:52:33.000Z</time>
</trkpt>
<trkpt lat="45.8488990" lon="9.2090100">
	<ele>645.40</ele>
	<time>2025-02-15T12:52:34.000Z</time>
</trkpt>
<trkpt lat="45.8488930" lon="9.2090140">
	<ele>645.20</ele>
	<time>2025-02-15T12:52:35.000Z</time>
</trkpt>
<trkpt lat="45.8488860" lon="9.2090200">
	<ele>645.00</ele>
	<time>2025-02-15T12:52:36.000Z</time>
</trkpt>
<trkpt lat="45.8488780" lon="9.2090280">
	<ele>645.00</ele>
	<time>2025-02-15T12:52:37.000Z</time>
</trkpt>
<trkpt lat="45.8488690" lon="9.2090330">
	<ele>645.00</ele>
	<time>2025-02-15T12:52:38.000Z</time>
</trkpt>
<trkpt lat="45.8488590" lon="9.2090340">
	<ele>644.80</ele>
	<time>2025-02-15T12:52:39.000Z</time>
</trkpt>
<trkpt lat="45.8488530" lon="9.2090380">
	<ele>644.60</ele>
	<time>2025-02-15T12:52:40.000Z</time>
</trkpt>
<trkpt lat="45.8488360" lon="9.2090320">
	<ele>644.40</ele>
	<time>2025-02-15T12:52:41.000Z</time>
</trkpt>
<trkpt lat="45.8488180" lon="9.2090250">
	<ele>644.20</ele>
	<time>2025-02-15T12:52:42.000Z</time>
</trkpt>
<trkpt lat="45.8488090" lon="9.2090330">
	<ele>644.20</ele>
	<time>2025-02-15T12:52:43.000Z</time>
</trkpt>
<trkpt lat="45.8488090" lon="9.2090430">
	<ele>644.00</ele>
	<time>2025-02-15T12:52:44.000Z</time>
</trkpt>
<trkpt lat="45.8488040" lon="9.2090420">
	<ele>643.80</ele>
	<time>2025-02-15T12:52:45.000Z</time>
</trkpt>
<trkpt lat="45.8487980" lon="9.2090440">
	<ele>643.60</ele>
	<time>2025-02-15T12:52:46.000Z</time>
</trkpt>
<trkpt lat="45.8487920" lon="9.2090450">
	<ele>643.40</ele>
	<time>2025-02-15T12:52:47.000Z</time>
</trkpt>
<trkpt lat="45.8487840" lon="9.2090450">
	<ele>643.20</ele>
	<time>2025-02-15T12:52:48.000Z</time>
</trkpt>
<trkpt lat="45.8487800" lon="9.2090480">
	<ele>643.20</ele>
	<time>2025-02-15T12:52:49.000Z</time>
</trkpt>
<trkpt lat="45.8487780" lon="9.2090490">
	<ele>643.20</ele>
	<time>2025-02-15T12:52:50.000Z</time>
</trkpt>
<trkpt lat="45.8487780" lon="9.2090490">
	<ele>643.20</ele>
	<time>2025-02-15T12:52:51.000Z</time>
</trkpt>
<trkpt lat="45.8487780" lon="9.2090510">
	<ele>643.20</ele>
	<time>2025-02-15T12:52:52.000Z</time>
</trkpt>
<trkpt lat="45.8487800" lon="9.2090480">
	<ele>643.20</ele>
	<time>2025-02-15T12:52:53.000Z</time>
</trkpt>
<trkpt lat="45.8487790" lon="9.2090460">
	<ele>643.20</ele>
	<time>2025-02-15T12:52:54.000Z</time>
</trkpt>
<trkpt lat="45.8487750" lon="9.2090450">
	<ele>643.20</ele>
	<time>2025-02-15T12:52:55.000Z</time>
</trkpt>
<trkpt lat="45.8487700" lon="9.2090460">
	<ele>643.00</ele>
	<time>2025-02-15T12:52:56.000Z</time>
</trkpt>
<trkpt lat="45.8487660" lon="9.2090500">
	<ele>642.80</ele>
	<time>2025-02-15T12:52:57.000Z</time>
</trkpt>
<trkpt lat="45.8487610" lon="9.2090540">
	<ele>642.80</ele>
	<time>2025-02-15T12:52:58.000Z</time>
</trkpt>
<trkpt lat="45.8487580" lon="9.2090550">
	<ele>642.60</ele>
	<time>2025-02-15T12:52:59.000Z</time>
</trkpt>
<trkpt lat="45.8487540" lon="9.2090560">
	<ele>642.60</ele>
	<time>2025-02-15T12:53:00.000Z</time>
</trkpt>
<trkpt lat="45.8487470" lon="9.2090550">
	<ele>642.40</ele>
	<time>2025-02-15T12:53:01.000Z</time>
</trkpt>
<trkpt lat="45.8487390" lon="9.2090510">
	<ele>642.40</ele>
	<time>2025-02-15T12:53:02.000Z</time>
</trkpt>
<trkpt lat="45.8487310" lon="9.2090520">
	<ele>642.20</ele>
	<time>2025-02-15T12:53:03.000Z</time>
</trkpt>
<trkpt lat="45.8487230" lon="9.2090510">
	<ele>642.00</ele>
	<time>2025-02-15T12:53:04.000Z</time>
</trkpt>
<trkpt lat="45.8487140" lon="9.2090480">
	<ele>642.00</ele>
	<time>2025-02-15T12:53:05.000Z</time>
</trkpt>
<trkpt lat="45.8487030" lon="9.2090430">
	<ele>641.80</ele>
	<time>2025-02-15T12:53:06.000Z</time>
</trkpt>
<trkpt lat="45.8486920" lon="9.2090330">
	<ele>641.80</ele>
	<time>2025-02-15T12:53:07.000Z</time>
</trkpt>
<trkpt lat="45.8486830" lon="9.2090240">
	<ele>641.80</ele>
	<time>2025-02-15T12:53:08.000Z</time>
</trkpt>
<trkpt lat="45.8486740" lon="9.2090180">
	<ele>641.60</ele>
	<time>2025-02-15T12:53:09.000Z</time>
</trkpt>
<trkpt lat="45.8486670" lon="9.2090160">
	<ele>641.60</ele>
	<time>2025-02-15T12:53:10.000Z</time>
</trkpt>
<trkpt lat="45.8486600" lon="9.2090150">
	<ele>641.80</ele>
	<time>2025-02-15T12:53:11.000Z</time>
</trkpt>
<trkpt lat="45.8486520" lon="9.2090120">
	<ele>641.80</ele>
	<time>2025-02-15T12:53:12.000Z</time>
</trkpt>
<trkpt lat="45.8486420" lon="9.2090070">
	<ele>641.80</ele>
	<time>2025-02-15T12:53:13.000Z</time>
</trkpt>
<trkpt lat="45.8486340" lon="9.2090040">
	<ele>642.00</ele>
	<time>2025-02-15T12:53:14.000Z</time>
</trkpt>
<trkpt lat="45.8486270" lon="9.2089990">
	<ele>642.00</ele>
	<time>2025-02-15T12:53:15.000Z</time>
</trkpt>
<trkpt lat="45.8486160" lon="9.2089960">
	<ele>642.00</ele>
	<time>2025-02-15T12:53:16.000Z</time>
</trkpt>
<trkpt lat="45.8486060" lon="9.2089950">
	<ele>642.00</ele>
	<time>2025-02-15T12:53:17.000Z</time>
</trkpt>
<trkpt lat="45.8485960" lon="9.2089990">
	<ele>641.80</ele>
	<time>2025-02-15T12:53:18.000Z</time>
</trkpt>
<trkpt lat="45.8485870" lon="9.2090040">
	<ele>641.80</ele>
	<time>2025-02-15T12:53:19.000Z</time>
</trkpt>
<trkpt lat="45.8485780" lon="9.2090110">
	<ele>641.60</ele>
	<time>2025-02-15T12:53:20.000Z</time>
</trkpt>
<trkpt lat="45.8485660" lon="9.2090130">
	<ele>641.40</ele>
	<time>2025-02-15T12:53:21.000Z</time>
</trkpt>
<trkpt lat="45.8485560" lon="9.2090160">
	<ele>641.40</ele>
	<time>2025-02-15T12:53:22.000Z</time>
</trkpt>
<trkpt lat="45.8485460" lon="9.2090160">
	<ele>641.20</ele>
	<time>2025-02-15T12:53:23.000Z</time>
</trkpt>
<trkpt lat="45.8485370" lon="9.2090220">
	<ele>641.20</ele>
	<time>2025-02-15T12:53:24.000Z</time>
</trkpt>
<trkpt lat="45.8485260" lon="9.2090280">
	<ele>641.00</ele>
	<time>2025-02-15T12:53:25.000Z</time>
</trkpt>
<trkpt lat="45.8485160" lon="9.2090310">
	<ele>641.00</ele>
	<time>2025-02-15T12:53:26.000Z</time>
</trkpt>
<trkpt lat="45.8485040" lon="9.2090390">
	<ele>640.80</ele>
	<time>2025-02-15T12:53:27.000Z</time>
</trkpt>
<trkpt lat="45.8484920" lon="9.2090480">
	<ele>640.60</ele>
	<time>2025-02-15T12:53:28.000Z</time>
</trkpt>
<trkpt lat="45.8484800" lon="9.2090520">
	<ele>640.60</ele>
	<time>2025-02-15T12:53:29.000Z</time>
</trkpt>
<trkpt lat="45.8484710" lon="9.2090530">
	<ele>640.60</ele>
	<time>2025-02-15T12:53:30.000Z</time>
</trkpt>
<trkpt lat="45.8484610" lon="9.2090570">
	<ele>640.40</ele>
	<time>2025-02-15T12:53:31.000Z</time>
</trkpt>
<trkpt lat="45.8484530" lon="9.2090620">
	<ele>640.20</ele>
	<time>2025-02-15T12:53:32.000Z</time>
</trkpt>
<trkpt lat="45.8484450" lon="9.2090640">
	<ele>640.20</ele>
	<time>2025-02-15T12:53:33.000Z</time>
</trkpt>
<trkpt lat="45.8484350" lon="9.2090670">
	<ele>640.00</ele>
	<time>2025-02-15T12:53:34.000Z</time>
</trkpt>
<trkpt lat="45.8484270" lon="9.2090710">
	<ele>639.80</ele>
	<time>2025-02-15T12:53:35.000Z</time>
</trkpt>
<trkpt lat="45.8484230" lon="9.2090740">
	<ele>639.60</ele>
	<time>2025-02-15T12:53:36.000Z</time>
</trkpt>
<trkpt lat="45.8484180" lon="9.2090790">
	<ele>639.60</ele>
	<time>2025-02-15T12:53:37.000Z</time>
</trkpt>
<trkpt lat="45.8484070" lon="9.2090850">
	<ele>639.60</ele>
	<time>2025-02-15T12:53:38.000Z</time>
</trkpt>
<trkpt lat="45.8484000" lon="9.2090950">
	<ele>639.40</ele>
	<time>2025-02-15T12:53:39.000Z</time>
</trkpt>
<trkpt lat="45.8483960" lon="9.2091000">
	<ele>639.00</ele>
	<time>2025-02-15T12:53:40.000Z</time>
</trkpt>
<trkpt lat="45.8483890" lon="9.2091040">
	<ele>638.80</ele>
	<time>2025-02-15T12:53:41.000Z</time>
</trkpt>
<trkpt lat="45.8483820" lon="9.2091090">
	<ele>638.60</ele>
	<time>2025-02-15T12:53:42.000Z</time>
</trkpt>
<trkpt lat="45.8483750" lon="9.2091150">
	<ele>638.60</ele>
	<time>2025-02-15T12:53:43.000Z</time>
</trkpt>
<trkpt lat="45.8483720" lon="9.2091180">
	<ele>638.40</ele>
	<time>2025-02-15T12:53:44.000Z</time>
</trkpt>
<trkpt lat="45.8483680" lon="9.2091220">
	<ele>638.20</ele>
	<time>2025-02-15T12:53:45.000Z</time>
</trkpt>
<trkpt lat="45.8483630" lon="9.2091260">
	<ele>638.20</ele>
	<time>2025-02-15T12:53:46.000Z</time>
</trkpt>
<trkpt lat="45.8483600" lon="9.2091320">
	<ele>638.00</ele>
	<time>2025-02-15T12:53:47.000Z</time>
</trkpt>
<trkpt lat="45.8483560" lon="9.2091400">
	<ele>637.80</ele>
	<time>2025-02-15T12:53:48.000Z</time>
</trkpt>
<trkpt lat="45.8483490" lon="9.2091470">
	<ele>637.80</ele>
	<time>2025-02-15T12:53:49.000Z</time>
</trkpt>
<trkpt lat="45.8483410" lon="9.2091580">
	<ele>637.60</ele>
	<time>2025-02-15T12:53:50.000Z</time>
</trkpt>
<trkpt lat="45.8483340" lon="9.2091670">
	<ele>637.40</ele>
	<time>2025-02-15T12:53:51.000Z</time>
</trkpt>
<trkpt lat="45.8483260" lon="9.2091730">
	<ele>637.40</ele>
	<time>2025-02-15T12:53:52.000Z</time>
</trkpt>
<trkpt lat="45.8483150" lon="9.2091790">
	<ele>637.20</ele>
	<time>2025-02-15T12:53:53.000Z</time>
</trkpt>
<trkpt lat="45.8483060" lon="9.2091860">
	<ele>637.00</ele>
	<time>2025-02-15T12:53:54.000Z</time>
</trkpt>
<trkpt lat="45.8482990" lon="9.2091950">
	<ele>637.00</ele>
	<time>2025-02-15T12:53:55.000Z</time>
</trkpt>
<trkpt lat="45.8482950" lon="9.2092120">
	<ele>637.00</ele>
	<time>2025-02-15T12:53:56.000Z</time>
</trkpt>
<trkpt lat="45.8482800" lon="9.2092220">
	<ele>636.80</ele>
	<time>2025-02-15T12:53:57.000Z</time>
</trkpt>
<trkpt lat="45.8482700" lon="9.2092310">
	<ele>636.60</ele>
	<time>2025-02-15T12:53:58.000Z</time>
</trkpt>
<trkpt lat="45.8482630" lon="9.2092400">
	<ele>636.40</ele>
	<time>2025-02-15T12:53:59.000Z</time>
</trkpt>
<trkpt lat="45.8482570" lon="9.2092500">
	<ele>636.40</ele>
	<time>2025-02-15T12:54:00.000Z</time>
</trkpt>
<trkpt lat="45.8482470" lon="9.2092580">
	<ele>636.20</ele>
	<time>2025-02-15T12:54:01.000Z</time>
</trkpt>
<trkpt lat="45.8482370" lon="9.2092710">
	<ele>636.20</ele>
	<time>2025-02-15T12:54:02.000Z</time>
</trkpt>
<trkpt lat="45.8482340" lon="9.2092820">
	<ele>635.80</ele>
	<time>2025-02-15T12:54:03.000Z</time>
</trkpt>
<trkpt lat="45.8482310" lon="9.2092890">
	<ele>635.80</ele>
	<time>2025-02-15T12:54:04.000Z</time>
</trkpt>
<trkpt lat="45.8482270" lon="9.2093000">
	<ele>635.60</ele>
	<time>2025-02-15T12:54:05.000Z</time>
</trkpt>
<trkpt lat="45.8482190" lon="9.2093130">
	<ele>635.60</ele>
	<time>2025-02-15T12:54:06.000Z</time>
</trkpt>
<trkpt lat="45.8482230" lon="9.2093300">
	<ele>635.40</ele>
	<time>2025-02-15T12:54:07.000Z</time>
</trkpt>
<trkpt lat="45.8482150" lon="9.2093390">
	<ele>635.20</ele>
	<time>2025-02-15T12:54:08.000Z</time>
</trkpt>
<trkpt lat="45.8482000" lon="9.2093480">
	<ele>635.00</ele>
	<time>2025-02-15T12:54:09.000Z</time>
</trkpt>
<trkpt lat="45.8481810" lon="9.2093550">
	<ele>634.60</ele>
	<time>2025-02-15T12:54:10.000Z</time>
</trkpt>
<trkpt lat="45.8481650" lon="9.2093700">
	<ele>634.40</ele>
	<time>2025-02-15T12:54:11.000Z</time>
</trkpt>
<trkpt lat="45.8481540" lon="9.2093740">
	<ele>634.40</ele>
	<time>2025-02-15T12:54:12.000Z</time>
</trkpt>
<trkpt lat="45.8481460" lon="9.2093790">
	<ele>634.20</ele>
	<time>2025-02-15T12:54:13.000Z</time>
</trkpt>
<trkpt lat="45.8481410" lon="9.2093800">
	<ele>634.20</ele>
	<time>2025-02-15T12:54:14.000Z</time>
</trkpt>
<trkpt lat="45.8481330" lon="9.2093770">
	<ele>634.00</ele>
	<time>2025-02-15T12:54:15.000Z</time>
</trkpt>
<trkpt lat="45.8481270" lon="9.2093750">
	<ele>634.00</ele>
	<time>2025-02-15T12:54:16.000Z</time>
</trkpt>
<trkpt lat="45.8481170" lon="9.2093820">
	<ele>633.80</ele>
	<time>2025-02-15T12:54:17.000Z</time>
</trkpt>
<trkpt lat="45.8481050" lon="9.2093870">
	<ele>633.60</ele>
	<time>2025-02-15T12:54:18.000Z</time>
</trkpt>
<trkpt lat="45.8480940" lon="9.2093940">
	<ele>633.40</ele>
	<time>2025-02-15T12:54:19.000Z</time>
</trkpt>
<trkpt lat="45.8480890" lon="9.2093960">
	<ele>633.20</ele>
	<time>2025-02-15T12:54:20.000Z</time>
</trkpt>
<trkpt lat="45.8480750" lon="9.2094040">
	<ele>633.00</ele>
	<time>2025-02-15T12:54:21.000Z</time>
</trkpt>
<trkpt lat="45.8480630" lon="9.2094190">
	<ele>633.00</ele>
	<time>2025-02-15T12:54:22.000Z</time>
</trkpt>
<trkpt lat="45.8480600" lon="9.2094240">
	<ele>632.80</ele>
	<time>2025-02-15T12:54:23.000Z</time>
</trkpt>
<trkpt lat="45.8480570" lon="9.2094270">
	<ele>632.80</ele>
	<time>2025-02-15T12:54:24.000Z</time>
</trkpt>
<trkpt lat="45.8480570" lon="9.2094280">
	<ele>632.80</ele>
	<time>2025-02-15T12:54:25.000Z</time>
</trkpt>
<trkpt lat="45.8480580" lon="9.2094270">
	<ele>632.80</ele>
	<time>2025-02-15T12:54:26.000Z</time>
</trkpt>
<trkpt lat="45.8480650" lon="9.2094420">
	<ele>632.80</ele>
	<time>2025-02-15T12:54:27.000Z</time>
</trkpt>
<trkpt lat="45.8480610" lon="9.2094440">
	<ele>632.40</ele>
	<time>2025-02-15T12:54:28.000Z</time>
</trkpt>
<trkpt lat="45.8480530" lon="9.2094410">
	<ele>632.40</ele>
	<time>2025-02-15T12:54:29.000Z</time>
</trkpt>
<trkpt lat="45.8480480" lon="9.2094430">
	<ele>632.20</ele>
	<time>2025-02-15T12:54:30.000Z</time>
</trkpt>
<trkpt lat="45.8480450" lon="9.2094470">
	<ele>632.20</ele>
	<time>2025-02-15T12:54:31.000Z</time>
</trkpt>
<trkpt lat="45.8480410" lon="9.2094500">
	<ele>632.00</ele>
	<time>2025-02-15T12:54:32.000Z</time>
</trkpt>
<trkpt lat="45.8480330" lon="9.2094550">
	<ele>631.80</ele>
	<time>2025-02-15T12:54:33.000Z</time>
</trkpt>
<trkpt lat="45.8480290" lon="9.2094550">
	<ele>631.60</ele>
	<time>2025-02-15T12:54:34.000Z</time>
</trkpt>
<trkpt lat="45.8480280" lon="9.2094570">
	<ele>631.40</ele>
	<time>2025-02-15T12:54:35.000Z</time>
</trkpt>
<trkpt lat="45.8480270" lon="9.2094640">
	<ele>631.20</ele>
	<time>2025-02-15T12:54:36.000Z</time>
</trkpt>
<trkpt lat="45.8480190" lon="9.2094630">
	<ele>631.20</ele>
	<time>2025-02-15T12:54:37.000Z</time>
</trkpt>
<trkpt lat="45.8480110" lon="9.2094620">
	<ele>631.00</ele>
	<time>2025-02-15T12:54:38.000Z</time>
</trkpt>
<trkpt lat="45.8480060" lon="9.2094650">
	<ele>630.80</ele>
	<time>2025-02-15T12:54:39.000Z</time>
</trkpt>
<trkpt lat="45.8479990" lon="9.2094680">
	<ele>630.80</ele>
	<time>2025-02-15T12:54:40.000Z</time>
</trkpt>
<trkpt lat="45.8479940" lon="9.2094690">
	<ele>630.60</ele>
	<time>2025-02-15T12:54:41.000Z</time>
</trkpt>
<trkpt lat="45.8479890" lon="9.2094700">
	<ele>630.60</ele>
	<time>2025-02-15T12:54:42.000Z</time>
</trkpt>
<trkpt lat="45.8479850" lon="9.2094730">
	<ele>630.60</ele>
	<time>2025-02-15T12:54:43.000Z</time>
</trkpt>
<trkpt lat="45.8479810" lon="9.2094830">
	<ele>630.40</ele>
	<time>2025-02-15T12:54:44.000Z</time>
</trkpt>
<trkpt lat="45.8479780" lon="9.2094930">
	<ele>630.00</ele>
	<time>2025-02-15T12:54:45.000Z</time>
</trkpt>
<trkpt lat="45.8479730" lon="9.2095070">
	<ele>630.00</ele>
	<time>2025-02-15T12:54:46.000Z</time>
</trkpt>
<trkpt lat="45.8479650" lon="9.2095170">
	<ele>629.80</ele>
	<time>2025-02-15T12:54:47.000Z</time>
</trkpt>
<trkpt lat="45.8479620" lon="9.2095270">
	<ele>629.60</ele>
	<time>2025-02-15T12:54:48.000Z</time>
</trkpt>
<trkpt lat="45.8479620" lon="9.2095320">
	<ele>629.40</ele>
	<time>2025-02-15T12:54:49.000Z</time>
</trkpt>
<trkpt lat="45.8479580" lon="9.2095360">
	<ele>629.20</ele>
	<time>2025-02-15T12:54:50.000Z</time>
</trkpt>
<trkpt lat="45.8479510" lon="9.2095400">
	<ele>629.20</ele>
	<time>2025-02-15T12:54:51.000Z</time>
</trkpt>
<trkpt lat="45.8479400" lon="9.2095450">
	<ele>629.00</ele>
	<time>2025-02-15T12:54:52.000Z</time>
</trkpt>
<trkpt lat="45.8479310" lon="9.2095540">
	<ele>628.80</ele>
	<time>2025-02-15T12:54:53.000Z</time>
</trkpt>
<trkpt lat="45.8479200" lon="9.2095590">
	<ele>628.60</ele>
	<time>2025-02-15T12:54:54.000Z</time>
</trkpt>
<trkpt lat="45.8479160" lon="9.2095630">
	<ele>628.40</ele>
	<time>2025-02-15T12:54:55.000Z</time>
</trkpt>
<trkpt lat="45.8479080" lon="9.2095770">
	<ele>628.40</ele>
	<time>2025-02-15T12:54:56.000Z</time>
</trkpt>
<trkpt lat="45.8479050" lon="9.2095820">
	<ele>628.20</ele>
	<time>2025-02-15T12:54:57.000Z</time>
</trkpt>
<trkpt lat="45.8478990" lon="9.2095890">
	<ele>628.20</ele>
	<time>2025-02-15T12:54:58.000Z</time>
</trkpt>
<trkpt lat="45.8478940" lon="9.2095960">
	<ele>628.00</ele>
	<time>2025-02-15T12:54:59.000Z</time>
</trkpt>
<trkpt lat="45.8478840" lon="9.2095940">
	<ele>628.00</ele>
	<time>2025-02-15T12:55:00.000Z</time>
</trkpt>
<trkpt lat="45.8478760" lon="9.2095910">
	<ele>627.80</ele>
	<time>2025-02-15T12:55:01.000Z</time>
</trkpt>
<trkpt lat="45.8478750" lon="9.2095950">
	<ele>627.80</ele>
	<time>2025-02-15T12:55:02.000Z</time>
</trkpt>
<trkpt lat="45.8478750" lon="9.2096010">
	<ele>627.80</ele>
	<time>2025-02-15T12:55:03.000Z</time>
</trkpt>
<trkpt lat="45.8478770" lon="9.2096050">
	<ele>627.80</ele>
	<time>2025-02-15T12:55:04.000Z</time>
</trkpt>
<trkpt lat="45.8478760" lon="9.2096090">
	<ele>627.60</ele>
	<time>2025-02-15T12:55:05.000Z</time>
</trkpt>
<trkpt lat="45.8478750" lon="9.2096090">
	<ele>627.60</ele>
	<time>2025-02-15T12:55:06.000Z</time>
</trkpt>
<trkpt lat="45.8478700" lon="9.2096070">
	<ele>627.60</ele>
	<time>2025-02-15T12:55:07.000Z</time>
</trkpt>
<trkpt lat="45.8478670" lon="9.2096040">
	<ele>627.60</ele>
	<time>2025-02-15T12:55:08.000Z</time>
</trkpt>
<trkpt lat="45.8478690" lon="9.2096110">
	<ele>627.60</ele>
	<time>2025-02-15T12:55:09.000Z</time>
</trkpt>
<trkpt lat="45.8478860" lon="9.2096270">
	<ele>627.60</ele>
	<time>2025-02-15T12:55:10.000Z</time>
</trkpt>
<trkpt lat="45.8478860" lon="9.2096270">
	<ele>627.60</ele>
	<time>2025-02-15T12:55:11.000Z</time>
</trkpt>
<trkpt lat="45.8478880" lon="9.2096300">
	<ele>627.60</ele>
	<time>2025-02-15T12:55:12.000Z</time>
</trkpt>
<trkpt lat="45.8478890" lon="9.2096310">
	<ele>627.60</ele>
	<time>2025-02-15T12:55:13.000Z</time>
</trkpt>
<trkpt lat="45.8478870" lon="9.2096270">
	<ele>627.60</ele>
	<time>2025-02-15T12:55:14.000Z</time>
</trkpt>
<trkpt lat="45.8478860" lon="9.2096270">
	<ele>627.40</ele>
	<time>2025-02-15T12:55:15.000Z</time>
</trkpt>
<trkpt lat="45.8478840" lon="9.2096230">
	<ele>627.40</ele>
	<time>2025-02-15T12:55:16.000Z</time>
</trkpt>
<trkpt lat="45.8478820" lon="9.2096190">
	<ele>627.40</ele>
	<time>2025-02-15T12:55:17.000Z</time>
</trkpt>
<trkpt lat="45.8478780" lon="9.2096120">
	<ele>627.40</ele>
	<time>2025-02-15T12:55:18.000Z</time>
</trkpt>
<trkpt lat="45.8478710" lon="9.2096070">
	<ele>627.40</ele>
	<time>2025-02-15T12:55:19.000Z</time>
</trkpt>
<trkpt lat="45.8478680" lon="9.2096070">
	<ele>627.20</ele>
	<time>2025-02-15T12:55:20.000Z</time>
</trkpt>
<trkpt lat="45.8478570" lon="9.2096010">
	<ele>627.20</ele>
	<time>2025-02-15T12:55:21.000Z</time>
</trkpt>
<trkpt lat="45.8478480" lon="9.2095960">
	<ele>627.20</ele>
	<time>2025-02-15T12:55:22.000Z</time>
</trkpt>
<trkpt lat="45.8478370" lon="9.2095980">
	<ele>627.00</ele>
	<time>2025-02-15T12:55:23.000Z</time>
</trkpt>
<trkpt lat="45.8478160" lon="9.2096020">
	<ele>627.00</ele>
	<time>2025-02-15T12:55:24.000Z</time>
</trkpt>
<trkpt lat="45.8477960" lon="9.2096050">
	<ele>626.80</ele>
	<time>2025-02-15T12:55:25.000Z</time>
</trkpt>
<trkpt lat="45.8477820" lon="9.2095990">
	<ele>626.80</ele>
	<time>2025-02-15T12:55:26.000Z</time>
</trkpt>
<trkpt lat="45.8477770" lon="9.2095990">
	<ele>626.60</ele>
	<time>2025-02-15T12:55:27.000Z</time>
</trkpt>
<trkpt lat="45.8477710" lon="9.2096040">
	<ele>626.60</ele>
	<time>2025-02-15T12:55:28.000Z</time>
</trkpt>
<trkpt lat="45.8477650" lon="9.2096120">
	<ele>626.40</ele>
	<time>2025-02-15T12:55:29.000Z</time>
</trkpt>
<trkpt lat="45.8477610" lon="9.2096200">
	<ele>626.20</ele>
	<time>2025-02-15T12:55:30.000Z</time>
</trkpt>
<trkpt lat="45.8477570" lon="9.2096220">
	<ele>626.00</ele>
	<time>2025-02-15T12:55:31.000Z</time>
</trkpt>
<trkpt lat="45.8477480" lon="9.2096190">
	<ele>626.00</ele>
	<time>2025-02-15T12:55:32.000Z</time>
</trkpt>
<trkpt lat="45.8477430" lon="9.2096160">
	<ele>625.80</ele>
	<time>2025-02-15T12:55:33.000Z</time>
</trkpt>
<trkpt lat="45.8477390" lon="9.2096190">
	<ele>625.60</ele>
	<time>2025-02-15T12:55:34.000Z</time>
</trkpt>
<trkpt lat="45.8477330" lon="9.2096200">
	<ele>625.60</ele>
	<time>2025-02-15T12:55:35.000Z</time>
</trkpt>
<trkpt lat="45.8477270" lon="9.2096290">
	<ele>625.40</ele>
	<time>2025-02-15T12:55:36.000Z</time>
</trkpt>
<trkpt lat="45.8477230" lon="9.2096370">
	<ele>625.20</ele>
	<time>2025-02-15T12:55:37.000Z</time>
</trkpt>
<trkpt lat="45.8477220" lon="9.2096540">
	<ele>625.00</ele>
	<time>2025-02-15T12:55:38.000Z</time>
</trkpt>
<trkpt lat="45.8477200" lon="9.2096670">
	<ele>624.80</ele>
	<time>2025-02-15T12:55:39.000Z</time>
</trkpt>
<trkpt lat="45.8477180" lon="9.2096780">
	<ele>624.60</ele>
	<time>2025-02-15T12:55:40.000Z</time>
</trkpt>
<trkpt lat="45.8477140" lon="9.2096910">
	<ele>624.60</ele>
	<time>2025-02-15T12:55:41.000Z</time>
</trkpt>
<trkpt lat="45.8477070" lon="9.2097000">
	<ele>624.40</ele>
	<time>2025-02-15T12:55:42.000Z</time>
</trkpt>
<trkpt lat="45.8477030" lon="9.2097180">
	<ele>624.20</ele>
	<time>2025-02-15T12:55:43.000Z</time>
</trkpt>
<trkpt lat="45.8476970" lon="9.2097360">
	<ele>624.00</ele>
	<time>2025-02-15T12:55:44.000Z</time>
</trkpt>
<trkpt lat="45.8476960" lon="9.2097500">
	<ele>624.00</ele>
	<time>2025-02-15T12:55:45.000Z</time>
</trkpt>
<trkpt lat="45.8477000" lon="9.2097630">
	<ele>623.60</ele>
	<time>2025-02-15T12:55:46.000Z</time>
</trkpt>
<trkpt lat="45.8477040" lon="9.2097780">
	<ele>623.60</ele>
	<time>2025-02-15T12:55:47.000Z</time>
</trkpt>
<trkpt lat="45.8477010" lon="9.2097900">
	<ele>623.40</ele>
	<time>2025-02-15T12:55:48.000Z</time>
</trkpt>
<trkpt lat="45.8476960" lon="9.2097890">
	<ele>623.40</ele>
	<time>2025-02-15T12:55:49.000Z</time>
</trkpt>
<trkpt lat="45.8476870" lon="9.2097920">
	<ele>623.40</ele>
	<time>2025-02-15T12:55:50.000Z</time>
</trkpt>
<trkpt lat="45.8476790" lon="9.2098030">
	<ele>623.20</ele>
	<time>2025-02-15T12:55:51.000Z</time>
</trkpt>
<trkpt lat="45.8476740" lon="9.2098090">
	<ele>623.20</ele>
	<time>2025-02-15T12:55:52.000Z</time>
</trkpt>
<trkpt lat="45.8476700" lon="9.2098130">
	<ele>623.00</ele>
	<time>2025-02-15T12:55:53.000Z</time>
</trkpt>
<trkpt lat="45.8476660" lon="9.2098220">
	<ele>623.00</ele>
	<time>2025-02-15T12:55:54.000Z</time>
</trkpt>
<trkpt lat="45.8476570" lon="9.2098300">
	<ele>622.80</ele>
	<time>2025-02-15T12:55:55.000Z</time>
</trkpt>
<trkpt lat="45.8476500" lon="9.2098390">
	<ele>622.60</ele>
	<time>2025-02-15T12:55:56.000Z</time>
</trkpt>
<trkpt lat="45.8476400" lon="9.2098430">
	<ele>622.60</ele>
	<time>2025-02-15T12:55:57.000Z</time>
</trkpt>
<trkpt lat="45.8476250" lon="9.2098410">
	<ele>622.40</ele>
	<time>2025-02-15T12:55:58.000Z</time>
</trkpt>
<trkpt lat="45.8476150" lon="9.2098460">
	<ele>622.20</ele>
	<time>2025-02-15T12:55:59.000Z</time>
</trkpt>
<trkpt lat="45.8476030" lon="9.2098460">
	<ele>622.20</ele>
	<time>2025-02-15T12:56:00.000Z</time>
</trkpt>
<trkpt lat="45.8475970" lon="9.2098580">
	<ele>622.00</ele>
	<time>2025-02-15T12:56:01.000Z</time>
</trkpt>
<trkpt lat="45.8475900" lon="9.2098660">
	<ele>622.00</ele>
	<time>2025-02-15T12:56:02.000Z</time>
</trkpt>
<trkpt lat="45.8475830" lon="9.2098740">
	<ele>621.80</ele>
	<time>2025-02-15T12:56:03.000Z</time>
</trkpt>
<trkpt lat="45.8475770" lon="9.2098850">
	<ele>621.80</ele>
	<time>2025-02-15T12:56:04.000Z</time>
</trkpt>
<trkpt lat="45.8475670" lon="9.2098990">
	<ele>621.60</ele>
	<time>2025-02-15T12:56:05.000Z</time>
</trkpt>
<trkpt lat="45.8475560" lon="9.2099150">
	<ele>621.60</ele>
	<time>2025-02-15T12:56:06.000Z</time>
</trkpt>
<trkpt lat="45.8475450" lon="9.2099200">
	<ele>621.40</ele>
	<time>2025-02-15T12:56:07.000Z</time>
</trkpt>
<trkpt lat="45.8475390" lon="9.2099280">
	<ele>621.40</ele>
	<time>2025-02-15T12:56:08.000Z</time>
</trkpt>
<trkpt lat="45.8475300" lon="9.2099410">
	<ele>621.40</ele>
	<time>2025-02-15T12:56:09.000Z</time>
</trkpt>
<trkpt lat="45.8475210" lon="9.2099490">
	<ele>621.40</ele>
	<time>2025-02-15T12:56:10.000Z</time>
</trkpt>
<trkpt lat="45.8475120" lon="9.2099530">
	<ele>621.40</ele>
	<time>2025-02-15T12:56:11.000Z</time>
</trkpt>
<trkpt lat="45.8475050" lon="9.2099600">
	<ele>621.40</ele>
	<time>2025-02-15T12:56:12.000Z</time>
</trkpt>
<trkpt lat="45.8474990" lon="9.2099670">
	<ele>621.40</ele>
	<time>2025-02-15T12:56:13.000Z</time>
</trkpt>
<trkpt lat="45.8474880" lon="9.2099670">
	<ele>621.20</ele>
	<time>2025-02-15T12:56:14.000Z</time>
</trkpt>
<trkpt lat="45.8474800" lon="9.2099680">
	<ele>621.00</ele>
	<time>2025-02-15T12:56:15.000Z</time>
</trkpt>
<trkpt lat="45.8474700" lon="9.2099700">
	<ele>620.80</ele>
	<time>2025-02-15T12:56:16.000Z</time>
</trkpt>
<trkpt lat="45.8474600" lon="9.2099720">
	<ele>620.60</ele>
	<time>2025-02-15T12:56:17.000Z</time>
</trkpt>
<trkpt lat="45.8474540" lon="9.2099790">
	<ele>620.40</ele>
	<time>2025-02-15T12:56:18.000Z</time>
</trkpt>
<trkpt lat="45.8474460" lon="9.2099870">
	<ele>620.20</ele>
	<time>2025-02-15T12:56:19.000Z</time>
</trkpt>
<trkpt lat="45.8474410" lon="9.2099970">
	<ele>620.20</ele>
	<time>2025-02-15T12:56:20.000Z</time>
</trkpt>
<trkpt lat="45.8474330" lon="9.2100100">
	<ele>620.00</ele>
	<time>2025-02-15T12:56:21.000Z</time>
</trkpt>
<trkpt lat="45.8474290" lon="9.2100200">
	<ele>619.80</ele>
	<time>2025-02-15T12:56:22.000Z</time>
</trkpt>
<trkpt lat="45.8474270" lon="9.2100340">
	<ele>619.60</ele>
	<time>2025-02-15T12:56:23.000Z</time>
</trkpt>
<trkpt lat="45.8474220" lon="9.2100470">
	<ele>619.40</ele>
	<time>2025-02-15T12:56:24.000Z</time>
</trkpt>
<trkpt lat="45.8474160" lon="9.2100580">
	<ele>619.20</ele>
	<time>2025-02-15T12:56:25.000Z</time>
</trkpt>
<trkpt lat="45.8474150" lon="9.2100740">
	<ele>619.00</ele>
	<time>2025-02-15T12:56:26.000Z</time>
</trkpt>
<trkpt lat="45.8474120" lon="9.2100860">
	<ele>618.80</ele>
	<time>2025-02-15T12:56:27.000Z</time>
</trkpt>
<trkpt lat="45.8474080" lon="9.2100980">
	<ele>618.60</ele>
	<time>2025-02-15T12:56:28.000Z</time>
</trkpt>
<trkpt lat="45.8474030" lon="9.2101100">
	<ele>618.60</ele>
	<time>2025-02-15T12:56:29.000Z</time>
</trkpt>
<trkpt lat="45.8474000" lon="9.2101220">
	<ele>618.40</ele>
	<time>2025-02-15T12:56:30.000Z</time>
</trkpt>
<trkpt lat="45.8473920" lon="9.2101300">
	<ele>618.20</ele>
	<time>2025-02-15T12:56:31.000Z</time>
</trkpt>
<trkpt lat="45.8473860" lon="9.2101440">
	<ele>618.20</ele>
	<time>2025-02-15T12:56:32.000Z</time>
</trkpt>
<trkpt lat="45.8473820" lon="9.2101580">
	<ele>618.00</ele>
	<time>2025-02-15T12:56:33.000Z</time>
</trkpt>
<trkpt lat="45.8473740" lon="9.2101680">
	<ele>617.80</ele>
	<time>2025-02-15T12:56:34.000Z</time>
</trkpt>
<trkpt lat="45.8473650" lon="9.2101750">
	<ele>617.60</ele>
	<time>2025-02-15T12:56:35.000Z</time>
</trkpt>
<trkpt lat="45.8473610" lon="9.2101840">
	<ele>617.60</ele>
	<time>2025-02-15T12:56:36.000Z</time>
</trkpt>
<trkpt lat="45.8473570" lon="9.2101950">
	<ele>617.60</ele>
	<time>2025-02-15T12:56:37.000Z</time>
</trkpt>
<trkpt lat="45.8473510" lon="9.2102030">
	<ele>617.40</ele>
	<time>2025-02-15T12:56:38.000Z</time>
</trkpt>
<trkpt lat="45.8473450" lon="9.2102110">
	<ele>617.20</ele>
	<time>2025-02-15T12:56:39.000Z</time>
</trkpt>
<trkpt lat="45.8473360" lon="9.2102170">
	<ele>617.20</ele>
	<time>2025-02-15T12:56:40.000Z</time>
</trkpt>
<trkpt lat="45.8473330" lon="9.2102240">
	<ele>617.00</ele>
	<time>2025-02-15T12:56:41.000Z</time>
</trkpt>
<trkpt lat="45.8473380" lon="9.2102460">
	<ele>616.80</ele>
	<time>2025-02-15T12:56:42.000Z</time>
</trkpt>
<trkpt lat="45.8473330" lon="9.2102580">
	<ele>616.60</ele>
	<time>2025-02-15T12:56:43.000Z</time>
</trkpt>
<trkpt lat="45.8473270" lon="9.2102650">
	<ele>616.40</ele>
	<time>2025-02-15T12:56:44.000Z</time>
</trkpt>
<trkpt lat="45.8473190" lon="9.2102800">
	<ele>616.40</ele>
	<time>2025-02-15T12:56:45.000Z</time>
</trkpt>
<trkpt lat="45.8473220" lon="9.2103010">
	<ele>616.20</ele>
	<time>2025-02-15T12:56:46.000Z</time>
</trkpt>
<trkpt lat="45.8473170" lon="9.2103190">
	<ele>616.00</ele>
	<time>2025-02-15T12:56:47.000Z</time>
</trkpt>
<trkpt lat="45.8473080" lon="9.2103240">
	<ele>615.80</ele>
	<time>2025-02-15T12:56:48.000Z</time>
</trkpt>
<trkpt lat="45.8473030" lon="9.2103350">
	<ele>615.60</ele>
	<time>2025-02-15T12:56:49.000Z</time>
</trkpt>
<trkpt lat="45.8472950" lon="9.2103440">
	<ele>615.60</ele>
	<time>2025-02-15T12:56:50.000Z</time>
</trkpt>
<trkpt lat="45.8472890" lon="9.2103580">
	<ele>615.40</ele>
	<time>2025-02-15T12:56:51.000Z</time>
</trkpt>
<trkpt lat="45.8472830" lon="9.2103690">
	<ele>615.40</ele>
	<time>2025-02-15T12:56:52.000Z</time>
</trkpt>
<trkpt lat="45.8472770" lon="9.2103800">
	<ele>615.20</ele>
	<time>2025-02-15T12:56:53.000Z</time>
</trkpt>
<trkpt lat="45.8472750" lon="9.2103930">
	<ele>615.20</ele>
	<time>2025-02-15T12:56:54.000Z</time>
</trkpt>
<trkpt lat="45.8472720" lon="9.2104060">
	<ele>615.00</ele>
	<time>2025-02-15T12:56:55.000Z</time>
</trkpt>
<trkpt lat="45.8472700" lon="9.2104190">
	<ele>614.80</ele>
	<time>2025-02-15T12:56:56.000Z</time>
</trkpt>
<trkpt lat="45.8472670" lon="9.2104260">
	<ele>614.60</ele>
	<time>2025-02-15T12:56:57.000Z</time>
</trkpt>
<trkpt lat="45.8472680" lon="9.2104300">
	<ele>614.60</ele>
	<time>2025-02-15T12:56:58.000Z</time>
</trkpt>
<trkpt lat="45.8472680" lon="9.2104330">
	<ele>614.40</ele>
	<time>2025-02-15T12:56:59.000Z</time>
</trkpt>
<trkpt lat="45.8472670" lon="9.2104340">
	<ele>614.40</ele>
	<time>2025-02-15T12:57:00.000Z</time>
</trkpt>
<trkpt lat="45.8472670" lon="9.2104360">
	<ele>614.60</ele>
	<time>2025-02-15T12:57:01.000Z</time>
</trkpt>
<trkpt lat="45.8472670" lon="9.2104360">
	<ele>614.60</ele>
	<time>2025-02-15T12:57:02.000Z</time>
</trkpt>
<trkpt lat="45.8472670" lon="9.2104360">
	<ele>614.60</ele>
	<time>2025-02-15T12:57:03.000Z</time>
</trkpt>
<trkpt lat="45.8472660" lon="9.2104350">
	<ele>614.80</ele>
	<time>2025-02-15T12:57:04.000Z</time>
</trkpt>
<trkpt lat="45.8472660" lon="9.2104350">
	<ele>614.80</ele>
	<time>2025-02-15T12:57:05.000Z</time>
</trkpt>
<trkpt lat="45.8472730" lon="9.2104380">
	<ele>614.80</ele>
	<time>2025-02-15T12:57:06.000Z</time>
</trkpt>
<trkpt lat="45.8472760" lon="9.2104450">
	<ele>614.80</ele>
	<time>2025-02-15T12:57:07.000Z</time>
</trkpt>
<trkpt lat="45.8472780" lon="9.2104570">
	<ele>614.60</ele>
	<time>2025-02-15T12:57:08.000Z</time>
</trkpt>
<trkpt lat="45.8472780" lon="9.2104740">
	<ele>614.40</ele>
	<time>2025-02-15T12:57:09.000Z</time>
</trkpt>
<trkpt lat="45.8472750" lon="9.2104870">
	<ele>614.40</ele>
	<time>2025-02-15T12:57:10.000Z</time>
</trkpt>
<trkpt lat="45.8472740" lon="9.2104980">
	<ele>614.20</ele>
	<time>2025-02-15T12:57:11.000Z</time>
</trkpt>
<trkpt lat="45.8472740" lon="9.2105120">
	<ele>614.20</ele>
	<time>2025-02-15T12:57:12.000Z</time>
</trkpt>
<trkpt lat="45.8472720" lon="9.2105210">
	<ele>614.20</ele>
	<time>2025-02-15T12:57:13.000Z</time>
</trkpt>
<trkpt lat="45.8472710" lon="9.2105310">
	<ele>614.00</ele>
	<time>2025-02-15T12:57:14.000Z</time>
</trkpt>
<trkpt lat="45.8472710" lon="9.2105510">
	<ele>613.80</ele>
	<time>2025-02-15T12:57:15.000Z</time>
</trkpt>
<trkpt lat="45.8472680" lon="9.2105680">
	<ele>613.80</ele>
	<time>2025-02-15T12:57:16.000Z</time>
</trkpt>
<trkpt lat="45.8472680" lon="9.2105870">
	<ele>613.60</ele>
	<time>2025-02-15T12:57:17.000Z</time>
</trkpt>
<trkpt lat="45.8472650" lon="9.2106000">
	<ele>613.40</ele>
	<time>2025-02-15T12:57:18.000Z</time>
</trkpt>
<trkpt lat="45.8472640" lon="9.2106200">
	<ele>613.40</ele>
	<time>2025-02-15T12:57:19.000Z</time>
</trkpt>
<trkpt lat="45.8472690" lon="9.2106380">
	<ele>613.20</ele>
	<time>2025-02-15T12:57:20.000Z</time>
</trkpt>
<trkpt lat="45.8472640" lon="9.2106560">
	<ele>613.00</ele>
	<time>2025-02-15T12:57:21.000Z</time>
</trkpt>
<trkpt lat="45.8472600" lon="9.2106690">
	<ele>613.00</ele>
	<time>2025-02-15T12:57:22.000Z</time>
</trkpt>
<trkpt lat="45.8472600" lon="9.2106830">
	<ele>613.00</ele>
	<time>2025-02-15T12:57:23.000Z</time>
</trkpt>
<trkpt lat="45.8472590" lon="9.2107020">
	<ele>612.80</ele>
	<time>2025-02-15T12:57:24.000Z</time>
</trkpt>
<trkpt lat="45.8472620" lon="9.2107190">
	<ele>612.60</ele>
	<time>2025-02-15T12:57:25.000Z</time>
</trkpt>
<trkpt lat="45.8472600" lon="9.2107320">
	<ele>612.40</ele>
	<time>2025-02-15T12:57:26.000Z</time>
</trkpt>
<trkpt lat="45.8472520" lon="9.2107470">
	<ele>612.40</ele>
	<time>2025-02-15T12:57:27.000Z</time>
</trkpt>
<trkpt lat="45.8472470" lon="9.2107660">
	<ele>612.20</ele>
	<time>2025-02-15T12:57:28.000Z</time>
</trkpt>
<trkpt lat="45.8472420" lon="9.2107830">
	<ele>612.00</ele>
	<time>2025-02-15T12:57:29.000Z</time>
</trkpt>
<trkpt lat="45.8472410" lon="9.2107960">
	<ele>612.00</ele>
	<time>2025-02-15T12:57:30.000Z</time>
</trkpt>
<trkpt lat="45.8472440" lon="9.2108050">
	<ele>611.80</ele>
	<time>2025-02-15T12:57:31.000Z</time>
</trkpt>
<trkpt lat="45.8472390" lon="9.2108120">
	<ele>611.60</ele>
	<time>2025-02-15T12:57:32.000Z</time>
</trkpt>
<trkpt lat="45.8472360" lon="9.2108150">
	<ele>611.60</ele>
	<time>2025-02-15T12:57:33.000Z</time>
</trkpt>
<trkpt lat="45.8472390" lon="9.2108240">
	<ele>611.60</ele>
	<time>2025-02-15T12:57:34.000Z</time>
</trkpt>
<trkpt lat="45.8472420" lon="9.2108370">
	<ele>611.40</ele>
	<time>2025-02-15T12:57:35.000Z</time>
</trkpt>
<trkpt lat="45.8472360" lon="9.2108470">
	<ele>611.20</ele>
	<time>2025-02-15T12:57:36.000Z</time>
</trkpt>
<trkpt lat="45.8472410" lon="9.2108620">
	<ele>611.20</ele>
	<time>2025-02-15T12:57:37.000Z</time>
</trkpt>
<trkpt lat="45.8472430" lon="9.2108790">
	<ele>611.20</ele>
	<time>2025-02-15T12:57:38.000Z</time>
</trkpt>
<trkpt lat="45.8472430" lon="9.2108930">
	<ele>611.00</ele>
	<time>2025-02-15T12:57:39.000Z</time>
</trkpt>
<trkpt lat="45.8472430" lon="9.2109100">
	<ele>611.00</ele>
	<time>2025-02-15T12:57:40.000Z</time>
</trkpt>
<trkpt lat="45.8472490" lon="9.2109220">
	<ele>610.80</ele>
	<time>2025-02-15T12:57:41.000Z</time>
</trkpt>
<trkpt lat="45.8472550" lon="9.2109350">
	<ele>610.80</ele>
	<time>2025-02-15T12:57:42.000Z</time>
</trkpt>
<trkpt lat="45.8472570" lon="9.2109490">
	<ele>610.60</ele>
	<time>2025-02-15T12:57:43.000Z</time>
</trkpt>
<trkpt lat="45.8472540" lon="9.2109620">
	<ele>610.40</ele>
	<time>2025-02-15T12:57:44.000Z</time>
</trkpt>
<trkpt lat="45.8472490" lon="9.2109760">
	<ele>610.40</ele>
	<time>2025-02-15T12:57:45.000Z</time>
</trkpt>
<trkpt lat="45.8472480" lon="9.2109900">
	<ele>610.20</ele>
	<time>2025-02-15T12:57:46.000Z</time>
</trkpt>
<trkpt lat="45.8472520" lon="9.2110040">
	<ele>610.20</ele>
	<time>2025-02-15T12:57:47.000Z</time>
</trkpt>
<trkpt lat="45.8472530" lon="9.2110210">
	<ele>610.00</ele>
	<time>2025-02-15T12:57:48.000Z</time>
</trkpt>
<trkpt lat="45.8472550" lon="9.2110340">
	<ele>609.80</ele>
	<time>2025-02-15T12:57:49.000Z</time>
</trkpt>
<trkpt lat="45.8472550" lon="9.2110490">
	<ele>609.80</ele>
	<time>2025-02-15T12:57:50.000Z</time>
</trkpt>
<trkpt lat="45.8472600" lon="9.2110660">
	<ele>609.60</ele>
	<time>2025-02-15T12:57:51.000Z</time>
</trkpt>
<trkpt lat="45.8472530" lon="9.2110750">
	<ele>609.60</ele>
	<time>2025-02-15T12:57:52.000Z</time>
</trkpt>
<trkpt lat="45.8472510" lon="9.2110860">
	<ele>609.40</ele>
	<time>2025-02-15T12:57:53.000Z</time>
</trkpt>
<trkpt lat="45.8472540" lon="9.2111030">
	<ele>609.40</ele>
	<time>2025-02-15T12:57:54.000Z</time>
</trkpt>
<trkpt lat="45.8472570" lon="9.2111190">
	<ele>609.40</ele>
	<time>2025-02-15T12:57:55.000Z</time>
</trkpt>
<trkpt lat="45.8472590" lon="9.2111360">
	<ele>609.20</ele>
	<time>2025-02-15T12:57:56.000Z</time>
</trkpt>
<trkpt lat="45.8472620" lon="9.2111530">
	<ele>609.20</ele>
	<time>2025-02-15T12:57:57.000Z</time>
</trkpt>
<trkpt lat="45.8472610" lon="9.2111730">
	<ele>609.20</ele>
	<time>2025-02-15T12:57:58.000Z</time>
</trkpt>
<trkpt lat="45.8472570" lon="9.2111880">
	<ele>609.00</ele>
	<time>2025-02-15T12:57:59.000Z</time>
</trkpt>
<trkpt lat="45.8472550" lon="9.2112000">
	<ele>609.00</ele>
	<time>2025-02-15T12:58:00.000Z</time>
</trkpt>
<trkpt lat="45.8472520" lon="9.2112120">
	<ele>609.00</ele>
	<time>2025-02-15T12:58:01.000Z</time>
</trkpt>
<trkpt lat="45.8472510" lon="9.2112260">
	<ele>608.80</ele>
	<time>2025-02-15T12:58:02.000Z</time>
</trkpt>
<trkpt lat="45.8472540" lon="9.2112390">
	<ele>608.80</ele>
	<time>2025-02-15T12:58:03.000Z</time>
</trkpt>
<trkpt lat="45.8472570" lon="9.2112530">
	<ele>608.60</ele>
	<time>2025-02-15T12:58:04.000Z</time>
</trkpt>
<trkpt lat="45.8472520" lon="9.2112650">
	<ele>608.60</ele>
	<time>2025-02-15T12:58:05.000Z</time>
</trkpt>
<trkpt lat="45.8472420" lon="9.2112780">
	<ele>608.60</ele>
	<time>2025-02-15T12:58:06.000Z</time>
</trkpt>
<trkpt lat="45.8472340" lon="9.2112860">
	<ele>608.40</ele>
	<time>2025-02-15T12:58:07.000Z</time>
</trkpt>
<trkpt lat="45.8472210" lon="9.2112900">
	<ele>608.40</ele>
	<time>2025-02-15T12:58:08.000Z</time>
</trkpt>
<trkpt lat="45.8472150" lon="9.2113020">
	<ele>608.20</ele>
	<time>2025-02-15T12:58:09.000Z</time>
</trkpt>
<trkpt lat="45.8472110" lon="9.2113240">
	<ele>608.20</ele>
	<time>2025-02-15T12:58:10.000Z</time>
</trkpt>
<trkpt lat="45.8472160" lon="9.2113420">
	<ele>608.00</ele>
	<time>2025-02-15T12:58:11.000Z</time>
</trkpt>
<trkpt lat="45.8472190" lon="9.2113550">
	<ele>608.00</ele>
	<time>2025-02-15T12:58:12.000Z</time>
</trkpt>
<trkpt lat="45.8472140" lon="9.2113700">
	<ele>607.80</ele>
	<time>2025-02-15T12:58:13.000Z</time>
</trkpt>
<trkpt lat="45.8472050" lon="9.2113840">
	<ele>607.60</ele>
	<time>2025-02-15T12:58:14.000Z</time>
</trkpt>
<trkpt lat="45.8472030" lon="9.2114000">
	<ele>607.60</ele>
	<time>2025-02-15T12:58:15.000Z</time>
</trkpt>
<trkpt lat="45.8472000" lon="9.2114140">
	<ele>607.40</ele>
	<time>2025-02-15T12:58:16.000Z</time>
</trkpt>
<trkpt lat="45.8472030" lon="9.2114280">
	<ele>607.40</ele>
	<time>2025-02-15T12:58:17.000Z</time>
</trkpt>
<trkpt lat="45.8471960" lon="9.2114390">
	<ele>607.20</ele>
	<time>2025-02-15T12:58:18.000Z</time>
</trkpt>
<trkpt lat="45.8471850" lon="9.2114450">
	<ele>607.00</ele>
	<time>2025-02-15T12:58:19.000Z</time>
</trkpt>
<trkpt lat="45.8471820" lon="9.2114550">
	<ele>607.00</ele>
	<time>2025-02-15T12:58:20.000Z</time>
</trkpt>
<trkpt lat="45.8471770" lon="9.2114680">
	<ele>607.00</ele>
	<time>2025-02-15T12:58:21.000Z</time>
</trkpt>
<trkpt lat="45.8471730" lon="9.2114820">
	<ele>606.80</ele>
	<time>2025-02-15T12:58:22.000Z</time>
</trkpt>
<trkpt lat="45.8471710" lon="9.2114990">
	<ele>606.80</ele>
	<time>2025-02-15T12:58:23.000Z</time>
</trkpt>
<trkpt lat="45.8471770" lon="9.2115180">
	<ele>606.80</ele>
	<time>2025-02-15T12:58:24.000Z</time>
</trkpt>
<trkpt lat="45.8471800" lon="9.2115340">
	<ele>606.60</ele>
	<time>2025-02-15T12:58:25.000Z</time>
</trkpt>
<trkpt lat="45.8471770" lon="9.2115480">
	<ele>606.40</ele>
	<time>2025-02-15T12:58:26.000Z</time>
</trkpt>
<trkpt lat="45.8471790" lon="9.2115660">
	<ele>606.20</ele>
	<time>2025-02-15T12:58:27.000Z</time>
</trkpt>
<trkpt lat="45.8471730" lon="9.2115800">
	<ele>606.20</ele>
	<time>2025-02-15T12:58:28.000Z</time>
</trkpt>
<trkpt lat="45.8471650" lon="9.2115960">
	<ele>606.00</ele>
	<time>2025-02-15T12:58:29.000Z</time>
</trkpt>
<trkpt lat="45.8471620" lon="9.2116100">
	<ele>605.80</ele>
	<time>2025-02-15T12:58:30.000Z</time>
</trkpt>
<trkpt lat="45.8471680" lon="9.2116270">
	<ele>605.80</ele>
	<time>2025-02-15T12:58:31.000Z</time>
</trkpt>
<trkpt lat="45.8471670" lon="9.2116420">
	<ele>605.60</ele>
	<time>2025-02-15T12:58:32.000Z</time>
</trkpt>
<trkpt lat="45.8471690" lon="9.2116570">
	<ele>605.60</ele>
	<time>2025-02-15T12:58:33.000Z</time>
</trkpt>
<trkpt lat="45.8471680" lon="9.2116730">
	<ele>605.40</ele>
	<time>2025-02-15T12:58:34.000Z</time>
</trkpt>
<trkpt lat="45.8471710" lon="9.2116900">
	<ele>605.40</ele>
	<time>2025-02-15T12:58:35.000Z</time>
</trkpt>
<trkpt lat="45.8471720" lon="9.2117040">
	<ele>605.40</ele>
	<time>2025-02-15T12:58:36.000Z</time>
</trkpt>
<trkpt lat="45.8471750" lon="9.2117160">
	<ele>605.20</ele>
	<time>2025-02-15T12:58:37.000Z</time>
</trkpt>
<trkpt lat="45.8471830" lon="9.2117300">
	<ele>605.20</ele>
	<time>2025-02-15T12:58:38.000Z</time>
</trkpt>
<trkpt lat="45.8471880" lon="9.2117410">
	<ele>605.20</ele>
	<time>2025-02-15T12:58:39.000Z</time>
</trkpt>
<trkpt lat="45.8471970" lon="9.2117560">
	<ele>605.00</ele>
	<time>2025-02-15T12:58:40.000Z</time>
</trkpt>
<trkpt lat="45.8472070" lon="9.2117710">
	<ele>604.80</ele>
	<time>2025-02-15T12:58:41.000Z</time>
</trkpt>
<trkpt lat="45.8472150" lon="9.2117860">
	<ele>604.80</ele>
	<time>2025-02-15T12:58:42.000Z</time>
</trkpt>
<trkpt lat="45.8472170" lon="9.2117930">
	<ele>604.80</ele>
	<time>2025-02-15T12:58:43.000Z</time>
</trkpt>
<trkpt lat="45.8472180" lon="9.2118030">
	<ele>604.60</ele>
	<time>2025-02-15T12:58:44.000Z</time>
</trkpt>
<trkpt lat="45.8472220" lon="9.2118110">
	<ele>604.40</ele>
	<time>2025-02-15T12:58:45.000Z</time>
</trkpt>
<trkpt lat="45.8472260" lon="9.2118290">
	<ele>604.40</ele>
	<time>2025-02-15T12:58:46.000Z</time>
</trkpt>
<trkpt lat="45.8472340" lon="9.2118500">
	<ele>604.40</ele>
	<time>2025-02-15T12:58:47.000Z</time>
</trkpt>
<trkpt lat="45.8472350" lon="9.2118630">
	<ele>604.20</ele>
	<time>2025-02-15T12:58:48.000Z</time>
</trkpt>
<trkpt lat="45.8472400" lon="9.2118770">
	<ele>604.20</ele>
	<time>2025-02-15T12:58:49.000Z</time>
</trkpt>
<trkpt lat="45.8472410" lon="9.2118890">
	<ele>604.20</ele>
	<time>2025-02-15T12:58:50.000Z</time>
</trkpt>
<trkpt lat="45.8472460" lon="9.2119010">
	<ele>604.00</ele>
	<time>2025-02-15T12:58:51.000Z</time>
</trkpt>
<trkpt lat="45.8472540" lon="9.2119160">
	<ele>603.80</ele>
	<time>2025-02-15T12:58:52.000Z</time>
</trkpt>
<trkpt lat="45.8472590" lon="9.2119310">
	<ele>603.60</ele>
	<time>2025-02-15T12:58:53.000Z</time>
</trkpt>
<trkpt lat="45.8472680" lon="9.2119490">
	<ele>603.60</ele>
	<time>2025-02-15T12:58:54.000Z</time>
</trkpt>
<trkpt lat="45.8472710" lon="9.2119650">
	<ele>603.60</ele>
	<time>2025-02-15T12:58:55.000Z</time>
</trkpt>
<trkpt lat="45.8472800" lon="9.2119740">
	<ele>603.60</ele>
	<time>2025-02-15T12:58:56.000Z</time>
</trkpt>
<trkpt lat="45.8472870" lon="9.2119850">
	<ele>603.40</ele>
	<time>2025-02-15T12:58:57.000Z</time>
</trkpt>
<trkpt lat="45.8472890" lon="9.2120020">
	<ele>603.20</ele>
	<time>2025-02-15T12:58:58.000Z</time>
</trkpt>
<trkpt lat="45.8472930" lon="9.2120170">
	<ele>603.20</ele>
	<time>2025-02-15T12:58:59.000Z</time>
</trkpt>
<trkpt lat="45.8472980" lon="9.2120310">
	<ele>603.00</ele>
	<time>2025-02-15T12:59:00.000Z</time>
</trkpt>
<trkpt lat="45.8473010" lon="9.2120480">
	<ele>603.00</ele>
	<time>2025-02-15T12:59:01.000Z</time>
</trkpt>
<trkpt lat="45.8473080" lon="9.2120630">
	<ele>602.80</ele>
	<time>2025-02-15T12:59:02.000Z</time>
</trkpt>
<trkpt lat="45.8473150" lon="9.2120770">
	<ele>602.80</ele>
	<time>2025-02-15T12:59:03.000Z</time>
</trkpt>
<trkpt lat="45.8473220" lon="9.2120890">
	<ele>602.60</ele>
	<time>2025-02-15T12:59:04.000Z</time>
</trkpt>
<trkpt lat="45.8473290" lon="9.2121000">
	<ele>602.60</ele>
	<time>2025-02-15T12:59:05.000Z</time>
</trkpt>
<trkpt lat="45.8473350" lon="9.2121150">
	<ele>602.40</ele>
	<time>2025-02-15T12:59:06.000Z</time>
</trkpt>
<trkpt lat="45.8473400" lon="9.2121280">
	<ele>602.40</ele>
	<time>2025-02-15T12:59:07.000Z</time>
</trkpt>
<trkpt lat="45.8473440" lon="9.2121420">
	<ele>602.40</ele>
	<time>2025-02-15T12:59:08.000Z</time>
</trkpt>
<trkpt lat="45.8473460" lon="9.2121530">
	<ele>602.20</ele>
	<time>2025-02-15T12:59:09.000Z</time>
</trkpt>
<trkpt lat="45.8473500" lon="9.2121640">
	<ele>602.20</ele>
	<time>2025-02-15T12:59:10.000Z</time>
</trkpt>
<trkpt lat="45.8473510" lon="9.2121710">
	<ele>602.00</ele>
	<time>2025-02-15T12:59:11.000Z</time>
</trkpt>
<trkpt lat="45.8473550" lon="9.2121770">
	<ele>602.00</ele>
	<time>2025-02-15T12:59:12.000Z</time>
</trkpt>
<trkpt lat="45.8473590" lon="9.2121830">
	<ele>602.00</ele>
	<time>2025-02-15T12:59:13.000Z</time>
</trkpt>
<trkpt lat="45.8473640" lon="9.2121990">
	<ele>601.80</ele>
	<time>2025-02-15T12:59:14.000Z</time>
</trkpt>
<trkpt lat="45.8473690" lon="9.2122130">
	<ele>601.60</ele>
	<time>2025-02-15T12:59:15.000Z</time>
</trkpt>
<trkpt lat="45.8473720" lon="9.2122280">
	<ele>601.60</ele>
	<time>2025-02-15T12:59:16.000Z</time>
</trkpt>
<trkpt lat="45.8473850" lon="9.2122380">
	<ele>601.40</ele>
	<time>2025-02-15T12:59:17.000Z</time>
</trkpt>
<trkpt lat="45.8473920" lon="9.2122580">
	<ele>601.40</ele>
	<time>2025-02-15T12:59:18.000Z</time>
</trkpt>
<trkpt lat="45.8473980" lon="9.2122790">
	<ele>601.20</ele>
	<time>2025-02-15T12:59:19.000Z</time>
</trkpt>
<trkpt lat="45.8474000" lon="9.2122930">
	<ele>601.20</ele>
	<time>2025-02-15T12:59:20.000Z</time>
</trkpt>
<trkpt lat="45.8474050" lon="9.2123080">
	<ele>601.20</ele>
	<time>2025-02-15T12:59:21.000Z</time>
</trkpt>
<trkpt lat="45.8474060" lon="9.2123160">
	<ele>601.20</ele>
	<time>2025-02-15T12:59:22.000Z</time>
</trkpt>
<trkpt lat="45.8474130" lon="9.2123250">
	<ele>601.20</ele>
	<time>2025-02-15T12:59:23.000Z</time>
</trkpt>
<trkpt lat="45.8474140" lon="9.2123300">
	<ele>601.20</ele>
	<time>2025-02-15T12:59:24.000Z</time>
</trkpt>
<trkpt lat="45.8474150" lon="9.2123320">
	<ele>601.20</ele>
	<time>2025-02-15T12:59:25.000Z</time>
</trkpt>
<trkpt lat="45.8474160" lon="9.2123330">
	<ele>601.20</ele>
	<time>2025-02-15T12:59:26.000Z</time>
</trkpt>
<trkpt lat="45.8474160" lon="9.2123420">
	<ele>601.20</ele>
	<time>2025-02-15T12:59:27.000Z</time>
</trkpt>
<trkpt lat="45.8474190" lon="9.2123520">
	<ele>601.00</ele>
	<time>2025-02-15T12:59:28.000Z</time>
</trkpt>
<trkpt lat="45.8474200" lon="9.2123650">
	<ele>600.80</ele>
	<time>2025-02-15T12:59:29.000Z</time>
</trkpt>
<trkpt lat="45.8474200" lon="9.2123700">
	<ele>600.80</ele>
	<time>2025-02-15T12:59:30.000Z</time>
</trkpt>
<trkpt lat="45.8474250" lon="9.2123780">
	<ele>600.60</ele>
	<time>2025-02-15T12:59:31.000Z</time>
</trkpt>
<trkpt lat="45.8474310" lon="9.2123900">
	<ele>600.40</ele>
	<time>2025-02-15T12:59:32.000Z</time>
</trkpt>
<trkpt lat="45.8474370" lon="9.2124020">
	<ele>600.40</ele>
	<time>2025-02-15T12:59:33.000Z</time>
</trkpt>
<trkpt lat="45.8474370" lon="9.2124140">
	<ele>600.40</ele>
	<time>2025-02-15T12:59:34.000Z</time>
</trkpt>
<trkpt lat="45.8474390" lon="9.2124270">
	<ele>600.20</ele>
	<time>2025-02-15T12:59:35.000Z</time>
</trkpt>
<trkpt lat="45.8474410" lon="9.2124400">
	<ele>600.20</ele>
	<time>2025-02-15T12:59:36.000Z</time>
</trkpt>
<trkpt lat="45.8474390" lon="9.2124510">
	<ele>600.20</ele>
	<time>2025-02-15T12:59:37.000Z</time>
</trkpt>
<trkpt lat="45.8474400" lon="9.2124620">
	<ele>600.20</ele>
	<time>2025-02-15T12:59:38.000Z</time>
</trkpt>
<trkpt lat="45.8474420" lon="9.2124760">
	<ele>600.20</ele>
	<time>2025-02-15T12:59:39.000Z</time>
</trkpt>
<trkpt lat="45.8474440" lon="9.2124860">
	<ele>600.00</ele>
	<time>2025-02-15T12:59:40.000Z</time>
</trkpt>
<trkpt lat="45.8474450" lon="9.2124970">
	<ele>600.00</ele>
	<time>2025-02-15T12:59:41.000Z</time>
</trkpt>
<trkpt lat="45.8474450" lon="9.2125160">
	<ele>599.80</ele>
	<time>2025-02-15T12:59:42.000Z</time>
</trkpt>
<trkpt lat="45.8474470" lon="9.2125330">
	<ele>599.60</ele>
	<time>2025-02-15T12:59:43.000Z</time>
</trkpt>
<trkpt lat="45.8474510" lon="9.2125510">
	<ele>599.60</ele>
	<time>2025-02-15T12:59:44.000Z</time>
</trkpt>
<trkpt lat="45.8474550" lon="9.2125670">
	<ele>599.40</ele>
	<time>2025-02-15T12:59:45.000Z</time>
</trkpt>
<trkpt lat="45.8474590" lon="9.2125860">
	<ele>599.40</ele>
	<time>2025-02-15T12:59:46.000Z</time>
</trkpt>
<trkpt lat="45.8474610" lon="9.2126010">
	<ele>599.40</ele>
	<time>2025-02-15T12:59:47.000Z</time>
</trkpt>
<trkpt lat="45.8474650" lon="9.2126140">
	<ele>599.20</ele>
	<time>2025-02-15T12:59:48.000Z</time>
</trkpt>
<trkpt lat="45.8474690" lon="9.2126330">
	<ele>599.20</ele>
	<time>2025-02-15T12:59:49.000Z</time>
</trkpt>
<trkpt lat="45.8474710" lon="9.2126500">
	<ele>599.20</ele>
	<time>2025-02-15T12:59:50.000Z</time>
</trkpt>
<trkpt lat="45.8474770" lon="9.2126650">
	<ele>599.00</ele>
	<time>2025-02-15T12:59:51.000Z</time>
</trkpt>
<trkpt lat="45.8474800" lon="9.2126830">
	<ele>599.00</ele>
	<time>2025-02-15T12:59:52.000Z</time>
</trkpt>
<trkpt lat="45.8474850" lon="9.2126990">
	<ele>599.00</ele>
	<time>2025-02-15T12:59:53.000Z</time>
</trkpt>
<trkpt lat="45.8474910" lon="9.2127130">
	<ele>599.00</ele>
	<time>2025-02-15T12:59:54.000Z</time>
</trkpt>
<trkpt lat="45.8474950" lon="9.2127260">
	<ele>598.80</ele>
	<time>2025-02-15T12:59:55.000Z</time>
</trkpt>
<trkpt lat="45.8474970" lon="9.2127390">
	<ele>598.80</ele>
	<time>2025-02-15T12:59:56.000Z</time>
</trkpt>
<trkpt lat="45.8474970" lon="9.2127520">
	<ele>598.60</ele>
	<time>2025-02-15T12:59:57.000Z</time>
</trkpt>
<trkpt lat="45.8474970" lon="9.2127680">
	<ele>598.60</ele>
	<time>2025-02-15T12:59:58.000Z</time>
</trkpt>
<trkpt lat="45.8474960" lon="9.2127850">
	<ele>598.40</ele>
	<time>2025-02-15T12:59:59.000Z</time>
</trkpt>
<trkpt lat="45.8474950" lon="9.2128000">
	<ele>598.40</ele>
	<time>2025-02-15T13:00:00.000Z</time>
</trkpt>
<trkpt lat="45.8474930" lon="9.2128110">
	<ele>598.40</ele>
	<time>2025-02-15T13:00:01.000Z</time>
</trkpt>
<trkpt lat="45.8474930" lon="9.2128180">
	<ele>598.20</ele>
	<time>2025-02-15T13:00:02.000Z</time>
</trkpt>
<trkpt lat="45.8474930" lon="9.2128210">
	<ele>598.20</ele>
	<time>2025-02-15T13:00:03.000Z</time>
</trkpt>
<trkpt lat="45.8474950" lon="9.2128220">
	<ele>598.20</ele>
	<time>2025-02-15T13:00:04.000Z</time>
</trkpt>
<trkpt lat="45.8474970" lon="9.2128240">
	<ele>598.00</ele>
	<time>2025-02-15T13:00:05.000Z</time>
</trkpt>
<trkpt lat="45.8474980" lon="9.2128240">
	<ele>598.00</ele>
	<time>2025-02-15T13:00:06.000Z</time>
</trkpt>
<trkpt lat="45.8474980" lon="9.2128250">
	<ele>598.00</ele>
	<time>2025-02-15T13:00:07.000Z</time>
</trkpt>
<trkpt lat="45.8474980" lon="9.2128240">
	<ele>598.00</ele>
	<time>2025-02-15T13:00:08.000Z</time>
</trkpt>
<trkpt lat="45.8474990" lon="9.2128250">
	<ele>598.00</ele>
	<time>2025-02-15T13:00:09.000Z</time>
</trkpt>
<trkpt lat="45.8474950" lon="9.2128370">
	<ele>598.00</ele>
	<time>2025-02-15T13:00:10.000Z</time>
</trkpt>
<trkpt lat="45.8474950" lon="9.2128410">
	<ele>598.00</ele>
	<time>2025-02-15T13:00:11.000Z</time>
</trkpt>
<trkpt lat="45.8474910" lon="9.2128510">
	<ele>598.00</ele>
	<time>2025-02-15T13:00:12.000Z</time>
</trkpt>
<trkpt lat="45.8474890" lon="9.2128610">
	<ele>598.00</ele>
	<time>2025-02-15T13:00:13.000Z</time>
</trkpt>
<trkpt lat="45.8474920" lon="9.2128740">
	<ele>598.00</ele>
	<time>2025-02-15T13:00:14.000Z</time>
</trkpt>
<trkpt lat="45.8474950" lon="9.2128790">
	<ele>598.00</ele>
	<time>2025-02-15T13:00:15.000Z</time>
</trkpt>
<trkpt lat="45.8474960" lon="9.2128800">
	<ele>598.00</ele>
	<time>2025-02-15T13:00:16.000Z</time>
</trkpt>
<trkpt lat="45.8474960" lon="9.2128820">
	<ele>598.00</ele>
	<time>2025-02-15T13:00:17.000Z</time>
</trkpt>
<trkpt lat="45.8474920" lon="9.2128870">
	<ele>598.00</ele>
	<time>2025-02-15T13:00:18.000Z</time>
</trkpt>
<trkpt lat="45.8474900" lon="9.2128890">
	<ele>598.00</ele>
	<time>2025-02-15T13:00:19.000Z</time>
</trkpt>
<trkpt lat="45.8474880" lon="9.2128890">
	<ele>598.00</ele>
	<time>2025-02-15T13:00:20.000Z</time>
</trkpt>
<trkpt lat="45.8474870" lon="9.2128890">
	<ele>598.00</ele>
	<time>2025-02-15T13:00:21.000Z</time>
</trkpt>
<trkpt lat="45.8474860" lon="9.2128890">
	<ele>598.20</ele>
	<time>2025-02-15T13:00:22.000Z</time>
</trkpt>
<trkpt lat="45.8474870" lon="9.2128900">
	<ele>598.20</ele>
	<time>2025-02-15T13:00:23.000Z</time>
</trkpt>
<trkpt lat="45.8474880" lon="9.2128900">
	<ele>598.20</ele>
	<time>2025-02-15T13:00:24.000Z</time>
</trkpt>
<trkpt lat="45.8474890" lon="9.2128910">
	<ele>598.20</ele>
	<time>2025-02-15T13:00:25.000Z</time>
</trkpt>
<trkpt lat="45.8474880" lon="9.2128900">
	<ele>598.20</ele>
	<time>2025-02-15T13:00:26.000Z</time>
</trkpt>
<trkpt lat="45.8474890" lon="9.2128890">
	<ele>598.20</ele>
	<time>2025-02-15T13:00:27.000Z</time>
</trkpt>
<trkpt lat="45.8474890" lon="9.2128890">
	<ele>598.20</ele>
	<time>2025-02-15T13:00:28.000Z</time>
</trkpt>
<trkpt lat="45.8474890" lon="9.2128890">
	<ele>598.20</ele>
	<time>2025-02-15T13:00:29.000Z</time>
</trkpt>
<trkpt lat="45.8474890" lon="9.2128890">
	<ele>598.20</ele>
	<time>2025-02-15T13:00:30.000Z</time>
</trkpt>
<trkpt lat="45.8474890" lon="9.2128890">
	<ele>598.00</ele>
	<time>2025-02-15T13:00:31.000Z</time>
</trkpt>
<trkpt lat="45.8474890" lon="9.2128890">
	<ele>598.00</ele>
	<time>2025-02-15T13:00:32.000Z</time>
</trkpt>
<trkpt lat="45.8474890" lon="9.2128890">
	<ele>598.00</ele>
	<time>2025-02-15T13:00:33.000Z</time>
</trkpt>
<trkpt lat="45.8474890" lon="9.2128890">
	<ele>598.00</ele>
	<time>2025-02-15T13:00:34.000Z</time>
</trkpt>
<trkpt lat="45.8474890" lon="9.2128890">
	<ele>598.00</ele>
	<time>2025-02-15T13:00:35.000Z</time>
</trkpt>
<trkpt lat="45.8474890" lon="9.2128890">
	<ele>598.00</ele>
	<time>2025-02-15T13:00:36.000Z</time>
</trkpt>
<trkpt lat="45.8474880" lon="9.2128890">
	<ele>598.00</ele>
	<time>2025-02-15T13:00:37.000Z</time>
</trkpt>
<trkpt lat="45.8474880" lon="9.2128890">
	<ele>598.00</ele>
	<time>2025-02-15T13:00:38.000Z</time>
</trkpt>
<trkpt lat="45.8474880" lon="9.2128890">
	<ele>598.00</ele>
	<time>2025-02-15T13:00:39.000Z</time>
</trkpt>
<trkpt lat="45.8474870" lon="9.2128890">
	<ele>598.00</ele>
	<time>2025-02-15T13:00:40.000Z</time>
</trkpt>
<trkpt lat="45.8474870" lon="9.2128890">
	<ele>598.00</ele>
	<time>2025-02-15T13:00:41.000Z</time>
</trkpt>
<trkpt lat="45.8474870" lon="9.2128890">
	<ele>598.00</ele>
	<time>2025-02-15T13:00:42.000Z</time>
</trkpt>
<trkpt lat="45.8474870" lon="9.2128890">
	<ele>598.20</ele>
	<time>2025-02-15T13:00:43.000Z</time>
</trkpt>
<trkpt lat="45.8474870" lon="9.2128890">
	<ele>598.20</ele>
	<time>2025-02-15T13:00:44.000Z</time>
</trkpt>
<trkpt lat="45.8474870" lon="9.2128890">
	<ele>598.20</ele>
	<time>2025-02-15T13:00:45.000Z</time>
</trkpt>
<trkpt lat="45.8474870" lon="9.2128890">
	<ele>598.40</ele>
	<time>2025-02-15T13:00:46.000Z</time>
</trkpt>
<trkpt lat="45.8474870" lon="9.2128890">
	<ele>598.40</ele>
	<time>2025-02-15T13:00:47.000Z</time>
</trkpt>
<trkpt lat="45.8474870" lon="9.2128890">
	<ele>598.60</ele>
	<time>2025-02-15T13:00:48.000Z</time>
</trkpt>
<trkpt lat="45.8474860" lon="9.2128890">
	<ele>598.60</ele>
	<time>2025-02-15T13:00:49.000Z</time>
</trkpt>
<trkpt lat="45.8474860" lon="9.2128890">
	<ele>598.60</ele>
	<time>2025-02-15T13:00:50.000Z</time>
</trkpt>
<trkpt lat="45.8474860" lon="9.2128880">
	<ele>598.60</ele>
	<time>2025-02-15T13:00:51.000Z</time>
</trkpt>
<trkpt lat="45.8474850" lon="9.2128880">
	<ele>598.60</ele>
	<time>2025-02-15T13:00:52.000Z</time>
</trkpt>
<trkpt lat="45.8474850" lon="9.2128880">
	<ele>598.40</ele>
	<time>2025-02-15T13:00:53.000Z</time>
</trkpt>
<trkpt lat="45.8474850" lon="9.2128870">
	<ele>598.20</ele>
	<time>2025-02-15T13:00:54.000Z</time>
</trkpt>
<trkpt lat="45.8474850" lon="9.2128860">
	<ele>598.20</ele>
	<time>2025-02-15T13:00:55.000Z</time>
</trkpt>
<trkpt lat="45.8474850" lon="9.2128860">
	<ele>598.00</ele>
	<time>2025-02-15T13:00:56.000Z</time>
</trkpt>
<trkpt lat="45.8474840" lon="9.2128860">
	<ele>597.80</ele>
	<time>2025-02-15T13:00:57.000Z</time>
</trkpt>
<trkpt lat="45.8474840" lon="9.2128860">
	<ele>597.80</ele>
	<time>2025-02-15T13:00:58.000Z</time>
</trkpt>
<trkpt lat="45.8474800" lon="9.2128890">
	<ele>597.80</ele>
	<time>2025-02-15T13:00:59.000Z</time>
</trkpt>
<trkpt lat="45.8474690" lon="9.2128940">
	<ele>597.80</ele>
	<time>2025-02-15T13:01:00.000Z</time>
</trkpt>
<trkpt lat="45.8474580" lon="9.2129050">
	<ele>597.60</ele>
	<time>2025-02-15T13:01:01.000Z</time>
</trkpt>
<trkpt lat="45.8474480" lon="9.2129160">
	<ele>597.60</ele>
	<time>2025-02-15T13:01:02.000Z</time>
</trkpt>
<trkpt lat="45.8474400" lon="9.2129210">
	<ele>597.60</ele>
	<time>2025-02-15T13:01:03.000Z</time>
</trkpt>
<trkpt lat="45.8474340" lon="9.2129250">
	<ele>597.80</ele>
	<time>2025-02-15T13:01:04.000Z</time>
</trkpt>
<trkpt lat="45.8474280" lon="9.2129270">
	<ele>597.80</ele>
	<time>2025-02-15T13:01:05.000Z</time>
</trkpt>
<trkpt lat="45.8474210" lon="9.2129270">
	<ele>598.00</ele>
	<time>2025-02-15T13:01:06.000Z</time>
</trkpt>
<trkpt lat="45.8474170" lon="9.2129300">
	<ele>598.20</ele>
	<time>2025-02-15T13:01:07.000Z</time>
</trkpt>
<trkpt lat="45.8474130" lon="9.2129320">
	<ele>598.20</ele>
	<time>2025-02-15T13:01:08.000Z</time>
</trkpt>
<trkpt lat="45.8474140" lon="9.2129340">
	<ele>598.40</ele>
	<time>2025-02-15T13:01:09.000Z</time>
</trkpt>
<trkpt lat="45.8474150" lon="9.2129370">
	<ele>598.40</ele>
	<time>2025-02-15T13:01:10.000Z</time>
</trkpt>
<trkpt lat="45.8474180" lon="9.2129400">
	<ele>598.00</ele>
	<time>2025-02-15T13:01:11.000Z</time>
</trkpt>
<trkpt lat="45.8474220" lon="9.2129440">
	<ele>598.00</ele>
	<time>2025-02-15T13:01:12.000Z</time>
</trkpt>
<trkpt lat="45.8474290" lon="9.2129480">
	<ele>597.80</ele>
	<time>2025-02-15T13:01:13.000Z</time>
</trkpt>
<trkpt lat="45.8474300" lon="9.2129530">
	<ele>597.60</ele>
	<time>2025-02-15T13:01:14.000Z</time>
</trkpt>
<trkpt lat="45.8474330" lon="9.2129560">
	<ele>597.60</ele>
	<time>2025-02-15T13:01:15.000Z</time>
</trkpt>
<trkpt lat="45.8474370" lon="9.2129600">
	<ele>597.60</ele>
	<time>2025-02-15T13:01:16.000Z</time>
</trkpt>
<trkpt lat="45.8474400" lon="9.2129630">
	<ele>597.60</ele>
	<time>2025-02-15T13:01:17.000Z</time>
</trkpt>
<trkpt lat="45.8474480" lon="9.2129700">
	<ele>597.60</ele>
	<time>2025-02-15T13:01:18.000Z</time>
</trkpt>
<trkpt lat="45.8474550" lon="9.2129750">
	<ele>597.40</ele>
	<time>2025-02-15T13:01:19.000Z</time>
</trkpt>
<trkpt lat="45.8474600" lon="9.2129800">
	<ele>597.40</ele>
	<time>2025-02-15T13:01:20.000Z</time>
</trkpt>
<trkpt lat="45.8474650" lon="9.2129890">
	<ele>597.40</ele>
	<time>2025-02-15T13:01:21.000Z</time>
</trkpt>
<trkpt lat="45.8474720" lon="9.2130060">
	<ele>597.20</ele>
	<time>2025-02-15T13:01:22.000Z</time>
</trkpt>
<trkpt lat="45.8474800" lon="9.2130240">
	<ele>597.20</ele>
	<time>2025-02-15T13:01:23.000Z</time>
</trkpt>
<trkpt lat="45.8474860" lon="9.2130390">
	<ele>597.20</ele>
	<time>2025-02-15T13:01:24.000Z</time>
</trkpt>
<trkpt lat="45.8474930" lon="9.2130550">
	<ele>597.20</ele>
	<time>2025-02-15T13:01:25.000Z</time>
</trkpt>
<trkpt lat="45.8474960" lon="9.2130720">
	<ele>597.00</ele>
	<time>2025-02-15T13:01:26.000Z</time>
</trkpt>
<trkpt lat="45.8474990" lon="9.2130890">
	<ele>597.00</ele>
	<time>2025-02-15T13:01:27.000Z</time>
</trkpt>
<trkpt lat="45.8474990" lon="9.2131040">
	<ele>597.00</ele>
	<time>2025-02-15T13:01:28.000Z</time>
</trkpt>
<trkpt lat="45.8474990" lon="9.2131190">
	<ele>597.00</ele>
	<time>2025-02-15T13:01:29.000Z</time>
</trkpt>
<trkpt lat="45.8474970" lon="9.2131310">
	<ele>596.80</ele>
	<time>2025-02-15T13:01:30.000Z</time>
</trkpt>
<trkpt lat="45.8474950" lon="9.2131440">
	<ele>596.80</ele>
	<time>2025-02-15T13:01:31.000Z</time>
</trkpt>
<trkpt lat="45.8474930" lon="9.2131580">
	<ele>596.80</ele>
	<time>2025-02-15T13:01:32.000Z</time>
</trkpt>
<trkpt lat="45.8474920" lon="9.2131750">
	<ele>596.60</ele>
	<time>2025-02-15T13:01:33.000Z</time>
</trkpt>
<trkpt lat="45.8474890" lon="9.2132060">
	<ele>596.60</ele>
	<time>2025-02-15T13:01:34.000Z</time>
</trkpt>
<trkpt lat="45.8474830" lon="9.2132340">
	<ele>596.40</ele>
	<time>2025-02-15T13:01:35.000Z</time>
</trkpt>
<trkpt lat="45.8474790" lon="9.2132450">
	<ele>596.40</ele>
	<time>2025-02-15T13:01:36.000Z</time>
</trkpt>
<trkpt lat="45.8474820" lon="9.2132610">
	<ele>596.40</ele>
	<time>2025-02-15T13:01:37.000Z</time>
</trkpt>
<trkpt lat="45.8474810" lon="9.2132810">
	<ele>596.20</ele>
	<time>2025-02-15T13:01:38.000Z</time>
</trkpt>
<trkpt lat="45.8474760" lon="9.2132900">
	<ele>596.20</ele>
	<time>2025-02-15T13:01:39.000Z</time>
</trkpt>
<trkpt lat="45.8474690" lon="9.2133050">
	<ele>596.20</ele>
	<time>2025-02-15T13:01:40.000Z</time>
</trkpt>
<trkpt lat="45.8474630" lon="9.2133170">
	<ele>596.20</ele>
	<time>2025-02-15T13:01:41.000Z</time>
</trkpt>
<trkpt lat="45.8474620" lon="9.2133320">
	<ele>596.20</ele>
	<time>2025-02-15T13:01:42.000Z</time>
</trkpt>
<trkpt lat="45.8474630" lon="9.2133460">
	<ele>596.00</ele>
	<time>2025-02-15T13:01:43.000Z</time>
</trkpt>
<trkpt lat="45.8474570" lon="9.2133590">
	<ele>596.00</ele>
	<time>2025-02-15T13:01:44.000Z</time>
</trkpt>
<trkpt lat="45.8474530" lon="9.2133740">
	<ele>596.00</ele>
	<time>2025-02-15T13:01:45.000Z</time>
</trkpt>
<trkpt lat="45.8474520" lon="9.2133910">
	<ele>596.00</ele>
	<time>2025-02-15T13:01:46.000Z</time>
</trkpt>
<trkpt lat="45.8474540" lon="9.2134020">
	<ele>596.00</ele>
	<time>2025-02-15T13:01:47.000Z</time>
</trkpt>
<trkpt lat="45.8474620" lon="9.2134140">
	<ele>595.80</ele>
	<time>2025-02-15T13:01:48.000Z</time>
</trkpt>
<trkpt lat="45.8474690" lon="9.2134290">
	<ele>595.80</ele>
	<time>2025-02-15T13:01:49.000Z</time>
</trkpt>
<trkpt lat="45.8474760" lon="9.2134500">
	<ele>595.60</ele>
	<time>2025-02-15T13:01:50.000Z</time>
</trkpt>
<trkpt lat="45.8474800" lon="9.2134750">
	<ele>595.60</ele>
	<time>2025-02-15T13:01:51.000Z</time>
</trkpt>
<trkpt lat="45.8474780" lon="9.2134980">
	<ele>595.40</ele>
	<time>2025-02-15T13:01:52.000Z</time>
</trkpt>
<trkpt lat="45.8474710" lon="9.2135160">
	<ele>595.40</ele>
	<time>2025-02-15T13:01:53.000Z</time>
</trkpt>
<trkpt lat="45.8474640" lon="9.2135240">
	<ele>595.40</ele>
	<time>2025-02-15T13:01:54.000Z</time>
</trkpt>
<trkpt lat="45.8474600" lon="9.2135340">
	<ele>595.20</ele>
	<time>2025-02-15T13:01:55.000Z</time>
</trkpt>
<trkpt lat="45.8474520" lon="9.2135420">
	<ele>595.20</ele>
	<time>2025-02-15T13:01:56.000Z</time>
</trkpt>
<trkpt lat="45.8474460" lon="9.2135570">
	<ele>595.00</ele>
	<time>2025-02-15T13:01:57.000Z</time>
</trkpt>
<trkpt lat="45.8474380" lon="9.2135730">
	<ele>594.80</ele>
	<time>2025-02-15T13:01:58.000Z</time>
</trkpt>
<trkpt lat="45.8474360" lon="9.2135900">
	<ele>594.60</ele>
	<time>2025-02-15T13:01:59.000Z</time>
</trkpt>
<trkpt lat="45.8474270" lon="9.2136020">
	<ele>594.60</ele>
	<time>2025-02-15T13:02:00.000Z</time>
</trkpt>
<trkpt lat="45.8474230" lon="9.2136140">
	<ele>594.40</ele>
	<time>2025-02-15T13:02:01.000Z</time>
</trkpt>
<trkpt lat="45.8474220" lon="9.2136330">
	<ele>594.40</ele>
	<time>2025-02-15T13:02:02.000Z</time>
</trkpt>
<trkpt lat="45.8474180" lon="9.2136480">
	<ele>594.20</ele>
	<time>2025-02-15T13:02:03.000Z</time>
</trkpt>
<trkpt lat="45.8474110" lon="9.2136600">
	<ele>594.00</ele>
	<time>2025-02-15T13:02:04.000Z</time>
</trkpt>
<trkpt lat="45.8474100" lon="9.2136720">
	<ele>593.80</ele>
	<time>2025-02-15T13:02:05.000Z</time>
</trkpt>
<trkpt lat="45.8474000" lon="9.2136860">
	<ele>593.80</ele>
	<time>2025-02-15T13:02:06.000Z</time>
</trkpt>
<trkpt lat="45.8474010" lon="9.2137180">
	<ele>593.80</ele>
	<time>2025-02-15T13:02:07.000Z</time>
</trkpt>
<trkpt lat="45.8473930" lon="9.2137360">
	<ele>593.60</ele>
	<time>2025-02-15T13:02:08.000Z</time>
</trkpt>
<trkpt lat="45.8473840" lon="9.2137390">
	<ele>593.60</ele>
	<time>2025-02-15T13:02:09.000Z</time>
</trkpt>
<trkpt lat="45.8473840" lon="9.2137490">
	<ele>593.40</ele>
	<time>2025-02-15T13:02:10.000Z</time>
</trkpt>
<trkpt lat="45.8473870" lon="9.2137660">
	<ele>593.20</ele>
	<time>2025-02-15T13:02:11.000Z</time>
</trkpt>
<trkpt lat="45.8473890" lon="9.2137800">
	<ele>593.00</ele>
	<time>2025-02-15T13:02:12.000Z</time>
</trkpt>
<trkpt lat="45.8473910" lon="9.2137970">
	<ele>593.00</ele>
	<time>2025-02-15T13:02:13.000Z</time>
</trkpt>
<trkpt lat="45.8474010" lon="9.2138210">
	<ele>593.00</ele>
	<time>2025-02-15T13:02:14.000Z</time>
</trkpt>
<trkpt lat="45.8474050" lon="9.2138380">
	<ele>592.80</ele>
	<time>2025-02-15T13:02:15.000Z</time>
</trkpt>
<trkpt lat="45.8474100" lon="9.2138460">
	<ele>592.80</ele>
	<time>2025-02-15T13:02:16.000Z</time>
</trkpt>
<trkpt lat="45.8474120" lon="9.2138610">
	<ele>592.80</ele>
	<time>2025-02-15T13:02:17.000Z</time>
</trkpt>
<trkpt lat="45.8474190" lon="9.2138860">
	<ele>592.60</ele>
	<time>2025-02-15T13:02:18.000Z</time>
</trkpt>
<trkpt lat="45.8474190" lon="9.2139020">
	<ele>592.60</ele>
	<time>2025-02-15T13:02:19.000Z</time>
</trkpt>
<trkpt lat="45.8474170" lon="9.2139170">
	<ele>592.40</ele>
	<time>2025-02-15T13:02:20.000Z</time>
</trkpt>
<trkpt lat="45.8474170" lon="9.2139330">
	<ele>592.20</ele>
	<time>2025-02-15T13:02:21.000Z</time>
</trkpt>
<trkpt lat="45.8474190" lon="9.2139460">
	<ele>592.20</ele>
	<time>2025-02-15T13:02:22.000Z</time>
</trkpt>
<trkpt lat="45.8474150" lon="9.2139570">
	<ele>592.20</ele>
	<time>2025-02-15T13:02:23.000Z</time>
</trkpt>
<trkpt lat="45.8474090" lon="9.2139710">
	<ele>592.00</ele>
	<time>2025-02-15T13:02:24.000Z</time>
</trkpt>
<trkpt lat="45.8474100" lon="9.2139850">
	<ele>592.00</ele>
	<time>2025-02-15T13:02:25.000Z</time>
</trkpt>
<trkpt lat="45.8474080" lon="9.2139970">
	<ele>592.00</ele>
	<time>2025-02-15T13:02:26.000Z</time>
</trkpt>
<trkpt lat="45.8474100" lon="9.2140130">
	<ele>592.00</ele>
	<time>2025-02-15T13:02:27.000Z</time>
</trkpt>
<trkpt lat="45.8474080" lon="9.2140280">
	<ele>591.80</ele>
	<time>2025-02-15T13:02:28.000Z</time>
</trkpt>
<trkpt lat="45.8474030" lon="9.2140460">
	<ele>591.80</ele>
	<time>2025-02-15T13:02:29.000Z</time>
</trkpt>
<trkpt lat="45.8474030" lon="9.2140640">
	<ele>591.80</ele>
	<time>2025-02-15T13:02:30.000Z</time>
</trkpt>
<trkpt lat="45.8474030" lon="9.2140770">
	<ele>591.60</ele>
	<time>2025-02-15T13:02:31.000Z</time>
</trkpt>
<trkpt lat="45.8474030" lon="9.2140970">
	<ele>591.60</ele>
	<time>2025-02-15T13:02:32.000Z</time>
</trkpt>
<trkpt lat="45.8474100" lon="9.2141160">
	<ele>591.60</ele>
	<time>2025-02-15T13:02:33.000Z</time>
</trkpt>
<trkpt lat="45.8474060" lon="9.2141300">
	<ele>591.40</ele>
	<time>2025-02-15T13:02:34.000Z</time>
</trkpt>
<trkpt lat="45.8474030" lon="9.2141470">
	<ele>591.40</ele>
	<time>2025-02-15T13:02:35.000Z</time>
</trkpt>
<trkpt lat="45.8474030" lon="9.2141660">
	<ele>591.40</ele>
	<time>2025-02-15T13:02:36.000Z</time>
</trkpt>
<trkpt lat="45.8474060" lon="9.2141870">
	<ele>591.20</ele>
	<time>2025-02-15T13:02:37.000Z</time>
</trkpt>
<trkpt lat="45.8474040" lon="9.2142020">
	<ele>591.20</ele>
	<time>2025-02-15T13:02:38.000Z</time>
</trkpt>
<trkpt lat="45.8474050" lon="9.2142140">
	<ele>591.20</ele>
	<time>2025-02-15T13:02:39.000Z</time>
</trkpt>
<trkpt lat="45.8473990" lon="9.2142280">
	<ele>591.20</ele>
	<time>2025-02-15T13:02:40.000Z</time>
</trkpt>
<trkpt lat="45.8473940" lon="9.2142430">
	<ele>591.20</ele>
	<time>2025-02-15T13:02:41.000Z</time>
</trkpt>
<trkpt lat="45.8473870" lon="9.2142560">
	<ele>591.00</ele>
	<time>2025-02-15T13:02:42.000Z</time>
</trkpt>
<trkpt lat="45.8473880" lon="9.2142690">
	<ele>591.00</ele>
	<time>2025-02-15T13:02:43.000Z</time>
</trkpt>
<trkpt lat="45.8473880" lon="9.2142800">
	<ele>591.00</ele>
	<time>2025-02-15T13:02:44.000Z</time>
</trkpt>
<trkpt lat="45.8473890" lon="9.2142890">
	<ele>591.00</ele>
	<time>2025-02-15T13:02:45.000Z</time>
</trkpt>
<trkpt lat="45.8473890" lon="9.2143000">
	<ele>590.80</ele>
	<time>2025-02-15T13:02:46.000Z</time>
</trkpt>
<trkpt lat="45.8473850" lon="9.2143170">
	<ele>590.80</ele>
	<time>2025-02-15T13:02:47.000Z</time>
</trkpt>
<trkpt lat="45.8473830" lon="9.2143310">
	<ele>590.80</ele>
	<time>2025-02-15T13:02:48.000Z</time>
</trkpt>
<trkpt lat="45.8473790" lon="9.2143440">
	<ele>590.80</ele>
	<time>2025-02-15T13:02:49.000Z</time>
</trkpt>
<trkpt lat="45.8473760" lon="9.2143660">
	<ele>590.80</ele>
	<time>2025-02-15T13:02:50.000Z</time>
</trkpt>
<trkpt lat="45.8473760" lon="9.2143850">
	<ele>590.80</ele>
	<time>2025-02-15T13:02:51.000Z</time>
</trkpt>
<trkpt lat="45.8473780" lon="9.2144000">
	<ele>590.80</ele>
	<time>2025-02-15T13:02:52.000Z</time>
</trkpt>
<trkpt lat="45.8473810" lon="9.2144170">
	<ele>590.60</ele>
	<time>2025-02-15T13:02:53.000Z</time>
</trkpt>
<trkpt lat="45.8473850" lon="9.2144320">
	<ele>590.40</ele>
	<time>2025-02-15T13:02:54.000Z</time>
</trkpt>
<trkpt lat="45.8473810" lon="9.2144480">
	<ele>590.20</ele>
	<time>2025-02-15T13:02:55.000Z</time>
</trkpt>
<trkpt lat="45.8473780" lon="9.2144630">
	<ele>590.20</ele>
	<time>2025-02-15T13:02:56.000Z</time>
</trkpt>
<trkpt lat="45.8473760" lon="9.2144800">
	<ele>590.00</ele>
	<time>2025-02-15T13:02:57.000Z</time>
</trkpt>
<trkpt lat="45.8473760" lon="9.2144970">
	<ele>589.80</ele>
	<time>2025-02-15T13:02:58.000Z</time>
</trkpt>
<trkpt lat="45.8473770" lon="9.2145140">
	<ele>589.80</ele>
	<time>2025-02-15T13:02:59.000Z</time>
</trkpt>
<trkpt lat="45.8473770" lon="9.2145290">
	<ele>589.80</ele>
	<time>2025-02-15T13:03:00.000Z</time>
</trkpt>
<trkpt lat="45.8473790" lon="9.2145480">
	<ele>589.60</ele>
	<time>2025-02-15T13:03:01.000Z</time>
</trkpt>
<trkpt lat="45.8473850" lon="9.2145670">
	<ele>589.60</ele>
	<time>2025-02-15T13:03:02.000Z</time>
</trkpt>
<trkpt lat="45.8473870" lon="9.2145830">
	<ele>589.60</ele>
	<time>2025-02-15T13:03:03.000Z</time>
</trkpt>
<trkpt lat="45.8473920" lon="9.2145990">
	<ele>589.40</ele>
	<time>2025-02-15T13:03:04.000Z</time>
</trkpt>
<trkpt lat="45.8473980" lon="9.2146140">
	<ele>589.20</ele>
	<time>2025-02-15T13:03:05.000Z</time>
</trkpt>
<trkpt lat="45.8474020" lon="9.2146150">
	<ele>589.00</ele>
	<time>2025-02-15T13:03:06.000Z</time>
</trkpt>
<trkpt lat="45.8474100" lon="9.2146290">
	<ele>589.00</ele>
	<time>2025-02-15T13:03:07.000Z</time>
</trkpt>
<trkpt lat="45.8474170" lon="9.2146460">
	<ele>588.80</ele>
	<time>2025-02-15T13:03:08.000Z</time>
</trkpt>
<trkpt lat="45.8474190" lon="9.2146650">
	<ele>588.60</ele>
	<time>2025-02-15T13:03:09.000Z</time>
</trkpt>
<trkpt lat="45.8474200" lon="9.2146840">
	<ele>588.60</ele>
	<time>2025-02-15T13:03:10.000Z</time>
</trkpt>
<trkpt lat="45.8474260" lon="9.2147030">
	<ele>588.40</ele>
	<time>2025-02-15T13:03:11.000Z</time>
</trkpt>
<trkpt lat="45.8474320" lon="9.2147200">
	<ele>588.20</ele>
	<time>2025-02-15T13:03:12.000Z</time>
</trkpt>
<trkpt lat="45.8474360" lon="9.2147380">
	<ele>588.20</ele>
	<time>2025-02-15T13:03:13.000Z</time>
</trkpt>
<trkpt lat="45.8474390" lon="9.2147530">
	<ele>588.00</ele>
	<time>2025-02-15T13:03:14.000Z</time>
</trkpt>
<trkpt lat="45.8474450" lon="9.2147660">
	<ele>588.00</ele>
	<time>2025-02-15T13:03:15.000Z</time>
</trkpt>
<trkpt lat="45.8474480" lon="9.2147800">
	<ele>587.80</ele>
	<time>2025-02-15T13:03:16.000Z</time>
</trkpt>
<trkpt lat="45.8474460" lon="9.2147920">
	<ele>587.80</ele>
	<time>2025-02-15T13:03:17.000Z</time>
</trkpt>
<trkpt lat="45.8474440" lon="9.2148070">
	<ele>587.80</ele>
	<time>2025-02-15T13:03:18.000Z</time>
</trkpt>
<trkpt lat="45.8474480" lon="9.2148230">
	<ele>587.80</ele>
	<time>2025-02-15T13:03:19.000Z</time>
</trkpt>
<trkpt lat="45.8474480" lon="9.2148400">
	<ele>587.60</ele>
	<time>2025-02-15T13:03:20.000Z</time>
</trkpt>
<trkpt lat="45.8474520" lon="9.2148590">
	<ele>587.60</ele>
	<time>2025-02-15T13:03:21.000Z</time>
</trkpt>
<trkpt lat="45.8474540" lon="9.2148730">
	<ele>587.40</ele>
	<time>2025-02-15T13:03:22.000Z</time>
</trkpt>
<trkpt lat="45.8474550" lon="9.2148880">
	<ele>587.40</ele>
	<time>2025-02-15T13:03:23.000Z</time>
</trkpt>
<trkpt lat="45.8474530" lon="9.2149030">
	<ele>587.40</ele>
	<time>2025-02-15T13:03:24.000Z</time>
</trkpt>
<trkpt lat="45.8474560" lon="9.2149170">
	<ele>587.20</ele>
	<time>2025-02-15T13:03:25.000Z</time>
</trkpt>
<trkpt lat="45.8474540" lon="9.2149340">
	<ele>587.20</ele>
	<time>2025-02-15T13:03:26.000Z</time>
</trkpt>
<trkpt lat="45.8474570" lon="9.2149530">
	<ele>587.00</ele>
	<time>2025-02-15T13:03:27.000Z</time>
</trkpt>
<trkpt lat="45.8474600" lon="9.2149710">
	<ele>587.00</ele>
	<time>2025-02-15T13:03:28.000Z</time>
</trkpt>
<trkpt lat="45.8474610" lon="9.2149860">
	<ele>586.80</ele>
	<time>2025-02-15T13:03:29.000Z</time>
</trkpt>
<trkpt lat="45.8474620" lon="9.2150020">
	<ele>586.80</ele>
	<time>2025-02-15T13:03:30.000Z</time>
</trkpt>
<trkpt lat="45.8474640" lon="9.2150140">
	<ele>586.80</ele>
	<time>2025-02-15T13:03:31.000Z</time>
</trkpt>
<trkpt lat="45.8474630" lon="9.2150220">
	<ele>586.80</ele>
	<time>2025-02-15T13:03:32.000Z</time>
</trkpt>
<trkpt lat="45.8474700" lon="9.2150320">
	<ele>586.60</ele>
	<time>2025-02-15T13:03:33.000Z</time>
</trkpt>
<trkpt lat="45.8474780" lon="9.2150490">
	<ele>586.40</ele>
	<time>2025-02-15T13:03:34.000Z</time>
</trkpt>
<trkpt lat="45.8474840" lon="9.2150720">
	<ele>586.40</ele>
	<time>2025-02-15T13:03:35.000Z</time>
</trkpt>
<trkpt lat="45.8474850" lon="9.2150970">
	<ele>586.20</ele>
	<time>2025-02-15T13:03:36.000Z</time>
</trkpt>
<trkpt lat="45.8474840" lon="9.2151130">
	<ele>586.20</ele>
	<time>2025-02-15T13:03:37.000Z</time>
</trkpt>
<trkpt lat="45.8474840" lon="9.2151280">
	<ele>586.20</ele>
	<time>2025-02-15T13:03:38.000Z</time>
</trkpt>
<trkpt lat="45.8474830" lon="9.2151440">
	<ele>586.20</ele>
	<time>2025-02-15T13:03:39.000Z</time>
</trkpt>
<trkpt lat="45.8474740" lon="9.2151680">
	<ele>586.20</ele>
	<time>2025-02-15T13:03:40.000Z</time>
</trkpt>
<trkpt lat="45.8474740" lon="9.2151910">
	<ele>586.00</ele>
	<time>2025-02-15T13:03:41.000Z</time>
</trkpt>
<trkpt lat="45.8474720" lon="9.2152070">
	<ele>586.00</ele>
	<time>2025-02-15T13:03:42.000Z</time>
</trkpt>
<trkpt lat="45.8474690" lon="9.2152220">
	<ele>586.00</ele>
	<time>2025-02-15T13:03:43.000Z</time>
</trkpt>
<trkpt lat="45.8474680" lon="9.2152350">
	<ele>586.00</ele>
	<time>2025-02-15T13:03:44.000Z</time>
</trkpt>
<trkpt lat="45.8474690" lon="9.2152470">
	<ele>585.80</ele>
	<time>2025-02-15T13:03:45.000Z</time>
</trkpt>
<trkpt lat="45.8474730" lon="9.2152570">
	<ele>585.60</ele>
	<time>2025-02-15T13:03:46.000Z</time>
</trkpt>
<trkpt lat="45.8474770" lon="9.2152740">
	<ele>585.40</ele>
	<time>2025-02-15T13:03:47.000Z</time>
</trkpt>
<trkpt lat="45.8474810" lon="9.2152930">
	<ele>585.20</ele>
	<time>2025-02-15T13:03:48.000Z</time>
</trkpt>
<trkpt lat="45.8474790" lon="9.2153090">
	<ele>585.20</ele>
	<time>2025-02-15T13:03:49.000Z</time>
</trkpt>
<trkpt lat="45.8474850" lon="9.2153240">
	<ele>585.00</ele>
	<time>2025-02-15T13:03:50.000Z</time>
</trkpt>
<trkpt lat="45.8474860" lon="9.2153390">
	<ele>585.00</ele>
	<time>2025-02-15T13:03:51.000Z</time>
</trkpt>
<trkpt lat="45.8474850" lon="9.2153460">
	<ele>584.80</ele>
	<time>2025-02-15T13:03:52.000Z</time>
</trkpt>
<trkpt lat="45.8474820" lon="9.2153550">
	<ele>584.80</ele>
	<time>2025-02-15T13:03:53.000Z</time>
</trkpt>
<trkpt lat="45.8474810" lon="9.2153690">
	<ele>584.60</ele>
	<time>2025-02-15T13:03:54.000Z</time>
</trkpt>
<trkpt lat="45.8474820" lon="9.2153910">
	<ele>584.60</ele>
	<time>2025-02-15T13:03:55.000Z</time>
</trkpt>
<trkpt lat="45.8474850" lon="9.2154120">
	<ele>584.40</ele>
	<time>2025-02-15T13:03:56.000Z</time>
</trkpt>
<trkpt lat="45.8474860" lon="9.2154280">
	<ele>584.40</ele>
	<time>2025-02-15T13:03:57.000Z</time>
</trkpt>
<trkpt lat="45.8474840" lon="9.2154440">
	<ele>584.20</ele>
	<time>2025-02-15T13:03:58.000Z</time>
</trkpt>
<trkpt lat="45.8474880" lon="9.2154570">
	<ele>584.00</ele>
	<time>2025-02-15T13:03:59.000Z</time>
</trkpt>
<trkpt lat="45.8474900" lon="9.2154670">
	<ele>583.80</ele>
	<time>2025-02-15T13:04:00.000Z</time>
</trkpt>
<trkpt lat="45.8474930" lon="9.2154820">
	<ele>583.80</ele>
	<time>2025-02-15T13:04:01.000Z</time>
</trkpt>
<trkpt lat="45.8474950" lon="9.2154960">
	<ele>583.60</ele>
	<time>2025-02-15T13:04:02.000Z</time>
</trkpt>
<trkpt lat="45.8475030" lon="9.2155050">
	<ele>583.60</ele>
	<time>2025-02-15T13:04:03.000Z</time>
</trkpt>
<trkpt lat="45.8475090" lon="9.2155190">
	<ele>583.40</ele>
	<time>2025-02-15T13:04:04.000Z</time>
</trkpt>
<trkpt lat="45.8475130" lon="9.2155350">
	<ele>583.20</ele>
	<time>2025-02-15T13:04:05.000Z</time>
</trkpt>
<trkpt lat="45.8475180" lon="9.2155510">
	<ele>583.20</ele>
	<time>2025-02-15T13:04:06.000Z</time>
</trkpt>
<trkpt lat="45.8475210" lon="9.2155670">
	<ele>583.00</ele>
	<time>2025-02-15T13:04:07.000Z</time>
</trkpt>
<trkpt lat="45.8475200" lon="9.2155780">
	<ele>583.00</ele>
	<time>2025-02-15T13:04:08.000Z</time>
</trkpt>
<trkpt lat="45.8475190" lon="9.2155890">
	<ele>582.80</ele>
	<time>2025-02-15T13:04:09.000Z</time>
</trkpt>
<trkpt lat="45.8475160" lon="9.2156000">
	<ele>582.80</ele>
	<time>2025-02-15T13:04:10.000Z</time>
</trkpt>
<trkpt lat="45.8475140" lon="9.2156200">
	<ele>582.60</ele>
	<time>2025-02-15T13:04:11.000Z</time>
</trkpt>
<trkpt lat="45.8475160" lon="9.2156400">
	<ele>582.60</ele>
	<time>2025-02-15T13:04:12.000Z</time>
</trkpt>
<trkpt lat="45.8475170" lon="9.2156590">
	<ele>582.40</ele>
	<time>2025-02-15T13:04:13.000Z</time>
</trkpt>
<trkpt lat="45.8475140" lon="9.2156770">
	<ele>582.40</ele>
	<time>2025-02-15T13:04:14.000Z</time>
</trkpt>
<trkpt lat="45.8475160" lon="9.2156940">
	<ele>582.20</ele>
	<time>2025-02-15T13:04:15.000Z</time>
</trkpt>
<trkpt lat="45.8475200" lon="9.2157080">
	<ele>582.20</ele>
	<time>2025-02-15T13:04:16.000Z</time>
</trkpt>
<trkpt lat="45.8475250" lon="9.2157220">
	<ele>582.00</ele>
	<time>2025-02-15T13:04:17.000Z</time>
</trkpt>
<trkpt lat="45.8475220" lon="9.2157320">
	<ele>581.80</ele>
	<time>2025-02-15T13:04:18.000Z</time>
</trkpt>
<trkpt lat="45.8475200" lon="9.2157440">
	<ele>581.60</ele>
	<time>2025-02-15T13:04:19.000Z</time>
</trkpt>
<trkpt lat="45.8475210" lon="9.2157660">
	<ele>581.60</ele>
	<time>2025-02-15T13:04:20.000Z</time>
</trkpt>
<trkpt lat="45.8475260" lon="9.2157810">
	<ele>581.40</ele>
	<time>2025-02-15T13:04:21.000Z</time>
</trkpt>
<trkpt lat="45.8475280" lon="9.2158000">
	<ele>581.40</ele>
	<time>2025-02-15T13:04:22.000Z</time>
</trkpt>
<trkpt lat="45.8475290" lon="9.2158190">
	<ele>581.20</ele>
	<time>2025-02-15T13:04:23.000Z</time>
</trkpt>
<trkpt lat="45.8475290" lon="9.2158390">
	<ele>581.00</ele>
	<time>2025-02-15T13:04:24.000Z</time>
</trkpt>
<trkpt lat="45.8475280" lon="9.2158580">
	<ele>581.00</ele>
	<time>2025-02-15T13:04:25.000Z</time>
</trkpt>
<trkpt lat="45.8475310" lon="9.2158760">
	<ele>580.80</ele>
	<time>2025-02-15T13:04:26.000Z</time>
</trkpt>
<trkpt lat="45.8475330" lon="9.2158880">
	<ele>580.80</ele>
	<time>2025-02-15T13:04:27.000Z</time>
</trkpt>
<trkpt lat="45.8475310" lon="9.2159000">
	<ele>580.60</ele>
	<time>2025-02-15T13:04:28.000Z</time>
</trkpt>
<trkpt lat="45.8475330" lon="9.2159120">
	<ele>580.60</ele>
	<time>2025-02-15T13:04:29.000Z</time>
</trkpt>
<trkpt lat="45.8475340" lon="9.2159300">
	<ele>580.60</ele>
	<time>2025-02-15T13:04:30.000Z</time>
</trkpt>
<trkpt lat="45.8475320" lon="9.2159470">
	<ele>580.40</ele>
	<time>2025-02-15T13:04:31.000Z</time>
</trkpt>
<trkpt lat="45.8475310" lon="9.2159650">
	<ele>580.40</ele>
	<time>2025-02-15T13:04:32.000Z</time>
</trkpt>
<trkpt lat="45.8475330" lon="9.2159880">
	<ele>580.20</ele>
	<time>2025-02-15T13:04:33.000Z</time>
</trkpt>
<trkpt lat="45.8475290" lon="9.2160080">
	<ele>580.00</ele>
	<time>2025-02-15T13:04:34.000Z</time>
</trkpt>
<trkpt lat="45.8475250" lon="9.2160220">
	<ele>579.80</ele>
	<time>2025-02-15T13:04:35.000Z</time>
</trkpt>
<trkpt lat="45.8475240" lon="9.2160320">
	<ele>579.80</ele>
	<time>2025-02-15T13:04:36.000Z</time>
</trkpt>
<trkpt lat="45.8475220" lon="9.2160450">
	<ele>579.60</ele>
	<time>2025-02-15T13:04:37.000Z</time>
</trkpt>
<trkpt lat="45.8475220" lon="9.2160590">
	<ele>579.60</ele>
	<time>2025-02-15T13:04:38.000Z</time>
</trkpt>
<trkpt lat="45.8475240" lon="9.2160780">
	<ele>579.60</ele>
	<time>2025-02-15T13:04:39.000Z</time>
</trkpt>
<trkpt lat="45.8475220" lon="9.2160940">
	<ele>579.60</ele>
	<time>2025-02-15T13:04:40.000Z</time>
</trkpt>
<trkpt lat="45.8475220" lon="9.2161110">
	<ele>579.40</ele>
	<time>2025-02-15T13:04:41.000Z</time>
</trkpt>
<trkpt lat="45.8475230" lon="9.2161280">
	<ele>579.40</ele>
	<time>2025-02-15T13:04:42.000Z</time>
</trkpt>
<trkpt lat="45.8475260" lon="9.2161430">
	<ele>579.20</ele>
	<time>2025-02-15T13:04:43.000Z</time>
</trkpt>
<trkpt lat="45.8475250" lon="9.2161580">
	<ele>579.20</ele>
	<time>2025-02-15T13:04:44.000Z</time>
</trkpt>
<trkpt lat="45.8475310" lon="9.2161690">
	<ele>579.00</ele>
	<time>2025-02-15T13:04:45.000Z</time>
</trkpt>
<trkpt lat="45.8475360" lon="9.2161760">
	<ele>578.80</ele>
	<time>2025-02-15T13:04:46.000Z</time>
</trkpt>
<trkpt lat="45.8475400" lon="9.2161910">
	<ele>578.80</ele>
	<time>2025-02-15T13:04:47.000Z</time>
</trkpt>
<trkpt lat="45.8475470" lon="9.2162130">
	<ele>578.60</ele>
	<time>2025-02-15T13:04:48.000Z</time>
</trkpt>
<trkpt lat="45.8475530" lon="9.2162300">
	<ele>578.40</ele>
	<time>2025-02-15T13:04:49.000Z</time>
</trkpt>
<trkpt lat="45.8475530" lon="9.2162400">
	<ele>578.40</ele>
	<time>2025-02-15T13:04:50.000Z</time>
</trkpt>
<trkpt lat="45.8475500" lon="9.2162560">
	<ele>578.00</ele>
	<time>2025-02-15T13:04:51.000Z</time>
</trkpt>
<trkpt lat="45.8475510" lon="9.2162720">
	<ele>578.00</ele>
	<time>2025-02-15T13:04:52.000Z</time>
</trkpt>
<trkpt lat="45.8475540" lon="9.2162910">
	<ele>577.80</ele>
	<time>2025-02-15T13:04:53.000Z</time>
</trkpt>
<trkpt lat="45.8475550" lon="9.2163030">
	<ele>577.60</ele>
	<time>2025-02-15T13:04:54.000Z</time>
</trkpt>
<trkpt lat="45.8475540" lon="9.2163120">
	<ele>577.40</ele>
	<time>2025-02-15T13:04:55.000Z</time>
</trkpt>
<trkpt lat="45.8475540" lon="9.2163230">
	<ele>577.20</ele>
	<time>2025-02-15T13:04:56.000Z</time>
</trkpt>
<trkpt lat="45.8475530" lon="9.2163390">
	<ele>577.20</ele>
	<time>2025-02-15T13:04:57.000Z</time>
</trkpt>
<trkpt lat="45.8475530" lon="9.2163510">
	<ele>577.00</ele>
	<time>2025-02-15T13:04:58.000Z</time>
</trkpt>
<trkpt lat="45.8475530" lon="9.2163670">
	<ele>576.80</ele>
	<time>2025-02-15T13:04:59.000Z</time>
</trkpt>
<trkpt lat="45.8475530" lon="9.2163820">
	<ele>576.80</ele>
	<time>2025-02-15T13:05:00.000Z</time>
</trkpt>
<trkpt lat="45.8475550" lon="9.2163960">
	<ele>576.60</ele>
	<time>2025-02-15T13:05:01.000Z</time>
</trkpt>
<trkpt lat="45.8475580" lon="9.2164130">
	<ele>576.20</ele>
	<time>2025-02-15T13:05:02.000Z</time>
</trkpt>
<trkpt lat="45.8475570" lon="9.2164310">
	<ele>576.00</ele>
	<time>2025-02-15T13:05:03.000Z</time>
</trkpt>
<trkpt lat="45.8475630" lon="9.2164460">
	<ele>575.80</ele>
	<time>2025-02-15T13:05:04.000Z</time>
</trkpt>
<trkpt lat="45.8475660" lon="9.2164580">
	<ele>575.80</ele>
	<time>2025-02-15T13:05:05.000Z</time>
</trkpt>
<trkpt lat="45.8475700" lon="9.2164720">
	<ele>575.60</ele>
	<time>2025-02-15T13:05:06.000Z</time>
</trkpt>
<trkpt lat="45.8475700" lon="9.2164870">
	<ele>575.60</ele>
	<time>2025-02-15T13:05:07.000Z</time>
</trkpt>
<trkpt lat="45.8475760" lon="9.2165100">
	<ele>575.40</ele>
	<time>2025-02-15T13:05:08.000Z</time>
</trkpt>
<trkpt lat="45.8475800" lon="9.2165340">
	<ele>575.20</ele>
	<time>2025-02-15T13:05:09.000Z</time>
</trkpt>
<trkpt lat="45.8475760" lon="9.2165580">
	<ele>574.80</ele>
	<time>2025-02-15T13:05:10.000Z</time>
</trkpt>
<trkpt lat="45.8475740" lon="9.2165670">
	<ele>574.60</ele>
	<time>2025-02-15T13:05:11.000Z</time>
</trkpt>
<trkpt lat="45.8475650" lon="9.2165750">
	<ele>574.60</ele>
	<time>2025-02-15T13:05:12.000Z</time>
</trkpt>
<trkpt lat="45.8475670" lon="9.2165870">
	<ele>574.40</ele>
	<time>2025-02-15T13:05:13.000Z</time>
</trkpt>
<trkpt lat="45.8475570" lon="9.2165880">
	<ele>574.40</ele>
	<time>2025-02-15T13:05:14.000Z</time>
</trkpt>
<trkpt lat="45.8475490" lon="9.2166010">
	<ele>574.00</ele>
	<time>2025-02-15T13:05:15.000Z</time>
</trkpt>
<trkpt lat="45.8475450" lon="9.2166180">
	<ele>574.00</ele>
	<time>2025-02-15T13:05:16.000Z</time>
</trkpt>
<trkpt lat="45.8475510" lon="9.2166330">
	<ele>573.80</ele>
	<time>2025-02-15T13:05:17.000Z</time>
</trkpt>
<trkpt lat="45.8475500" lon="9.2166430">
	<ele>573.60</ele>
	<time>2025-02-15T13:05:18.000Z</time>
</trkpt>
<trkpt lat="45.8475480" lon="9.2166560">
	<ele>573.40</ele>
	<time>2025-02-15T13:05:19.000Z</time>
</trkpt>
<trkpt lat="45.8475530" lon="9.2166730">
	<ele>573.40</ele>
	<time>2025-02-15T13:05:20.000Z</time>
</trkpt>
<trkpt lat="45.8475530" lon="9.2166900">
	<ele>573.20</ele>
	<time>2025-02-15T13:05:21.000Z</time>
</trkpt>
<trkpt lat="45.8475460" lon="9.2167080">
	<ele>573.20</ele>
	<time>2025-02-15T13:05:22.000Z</time>
</trkpt>
<trkpt lat="45.8475420" lon="9.2167220">
	<ele>573.00</ele>
	<time>2025-02-15T13:05:23.000Z</time>
</trkpt>
<trkpt lat="45.8475410" lon="9.2167390">
	<ele>572.80</ele>
	<time>2025-02-15T13:05:24.000Z</time>
</trkpt>
<trkpt lat="45.8475370" lon="9.2167530">
	<ele>572.60</ele>
	<time>2025-02-15T13:05:25.000Z</time>
</trkpt>
<trkpt lat="45.8475320" lon="9.2167620">
	<ele>572.40</ele>
	<time>2025-02-15T13:05:26.000Z</time>
</trkpt>
<trkpt lat="45.8475310" lon="9.2167780">
	<ele>572.20</ele>
	<time>2025-02-15T13:05:27.000Z</time>
</trkpt>
<trkpt lat="45.8475250" lon="9.2167890">
	<ele>572.20</ele>
	<time>2025-02-15T13:05:28.000Z</time>
</trkpt>
<trkpt lat="45.8475240" lon="9.2168060">
	<ele>572.00</ele>
	<time>2025-02-15T13:05:29.000Z</time>
</trkpt>
<trkpt lat="45.8475230" lon="9.2168270">
	<ele>572.00</ele>
	<time>2025-02-15T13:05:30.000Z</time>
</trkpt>
<trkpt lat="45.8475200" lon="9.2168440">
	<ele>571.80</ele>
	<time>2025-02-15T13:05:31.000Z</time>
</trkpt>
<trkpt lat="45.8475210" lon="9.2168630">
	<ele>571.80</ele>
	<time>2025-02-15T13:05:32.000Z</time>
</trkpt>
<trkpt lat="45.8475190" lon="9.2168820">
	<ele>571.60</ele>
	<time>2025-02-15T13:05:33.000Z</time>
</trkpt>
<trkpt lat="45.8475170" lon="9.2168980">
	<ele>571.40</ele>
	<time>2025-02-15T13:05:34.000Z</time>
</trkpt>
<trkpt lat="45.8475140" lon="9.2169120">
	<ele>571.20</ele>
	<time>2025-02-15T13:05:35.000Z</time>
</trkpt>
<trkpt lat="45.8475080" lon="9.2169220">
	<ele>571.00</ele>
	<time>2025-02-15T13:05:36.000Z</time>
</trkpt>
<trkpt lat="45.8475040" lon="9.2169340">
	<ele>571.00</ele>
	<time>2025-02-15T13:05:37.000Z</time>
</trkpt>
<trkpt lat="45.8475020" lon="9.2169510">
	<ele>570.80</ele>
	<time>2025-02-15T13:05:38.000Z</time>
</trkpt>
<trkpt lat="45.8475020" lon="9.2169680">
	<ele>570.80</ele>
	<time>2025-02-15T13:05:39.000Z</time>
</trkpt>
<trkpt lat="45.8475010" lon="9.2169840">
	<ele>570.60</ele>
	<time>2025-02-15T13:05:40.000Z</time>
</trkpt>
<trkpt lat="45.8474980" lon="9.2169990">
	<ele>570.60</ele>
	<time>2025-02-15T13:05:41.000Z</time>
</trkpt>
<trkpt lat="45.8474940" lon="9.2170110">
	<ele>570.40</ele>
	<time>2025-02-15T13:05:42.000Z</time>
</trkpt>
<trkpt lat="45.8474870" lon="9.2170210">
	<ele>570.20</ele>
	<time>2025-02-15T13:05:43.000Z</time>
</trkpt>
<trkpt lat="45.8474820" lon="9.2170360">
	<ele>570.20</ele>
	<time>2025-02-15T13:05:44.000Z</time>
</trkpt>
<trkpt lat="45.8474740" lon="9.2170470">
	<ele>570.00</ele>
	<time>2025-02-15T13:05:45.000Z</time>
</trkpt>
<trkpt lat="45.8474640" lon="9.2170530">
	<ele>569.80</ele>
	<time>2025-02-15T13:05:46.000Z</time>
</trkpt>
<trkpt lat="45.8474650" lon="9.2170710">
	<ele>569.80</ele>
	<time>2025-02-15T13:05:47.000Z</time>
</trkpt>
<trkpt lat="45.8474550" lon="9.2170760">
	<ele>569.60</ele>
	<time>2025-02-15T13:05:48.000Z</time>
</trkpt>
<trkpt lat="45.8474480" lon="9.2170840">
	<ele>569.60</ele>
	<time>2025-02-15T13:05:49.000Z</time>
</trkpt>
<trkpt lat="45.8474450" lon="9.2170980">
	<ele>569.40</ele>
	<time>2025-02-15T13:05:50.000Z</time>
</trkpt>
<trkpt lat="45.8474390" lon="9.2171110">
	<ele>569.20</ele>
	<time>2025-02-15T13:05:51.000Z</time>
</trkpt>
<trkpt lat="45.8474290" lon="9.2171230">
	<ele>569.00</ele>
	<time>2025-02-15T13:05:52.000Z</time>
</trkpt>
<trkpt lat="45.8474220" lon="9.2171390">
	<ele>569.00</ele>
	<time>2025-02-15T13:05:53.000Z</time>
</trkpt>
<trkpt lat="45.8474220" lon="9.2171560">
	<ele>568.80</ele>
	<time>2025-02-15T13:05:54.000Z</time>
</trkpt>
<trkpt lat="45.8474230" lon="9.2171740">
	<ele>568.80</ele>
	<time>2025-02-15T13:05:55.000Z</time>
</trkpt>
<trkpt lat="45.8474100" lon="9.2171840">
	<ele>568.80</ele>
	<time>2025-02-15T13:05:56.000Z</time>
</trkpt>
<trkpt lat="45.8474010" lon="9.2171930">
	<ele>568.80</ele>
	<time>2025-02-15T13:05:57.000Z</time>
</trkpt>
<trkpt lat="45.8473950" lon="9.2172100">
	<ele>568.60</ele>
	<time>2025-02-15T13:05:58.000Z</time>
</trkpt>
<trkpt lat="45.8473940" lon="9.2172290">
	<ele>568.40</ele>
	<time>2025-02-15T13:05:59.000Z</time>
</trkpt>
<trkpt lat="45.8473910" lon="9.2172430">
	<ele>568.20</ele>
	<time>2025-02-15T13:06:00.000Z</time>
</trkpt>
<trkpt lat="45.8473860" lon="9.2172560">
	<ele>568.20</ele>
	<time>2025-02-15T13:06:01.000Z</time>
</trkpt>
<trkpt lat="45.8473830" lon="9.2172730">
	<ele>568.00</ele>
	<time>2025-02-15T13:06:02.000Z</time>
</trkpt>
<trkpt lat="45.8473810" lon="9.2172890">
	<ele>568.00</ele>
	<time>2025-02-15T13:06:03.000Z</time>
</trkpt>
<trkpt lat="45.8473770" lon="9.2173050">
	<ele>568.00</ele>
	<time>2025-02-15T13:06:04.000Z</time>
</trkpt>
<trkpt lat="45.8473720" lon="9.2173240">
	<ele>568.00</ele>
	<time>2025-02-15T13:06:05.000Z</time>
</trkpt>
<trkpt lat="45.8473620" lon="9.2173370">
	<ele>568.00</ele>
	<time>2025-02-15T13:06:06.000Z</time>
</trkpt>
<trkpt lat="45.8473520" lon="9.2173460">
	<ele>568.00</ele>
	<time>2025-02-15T13:06:07.000Z</time>
</trkpt>
<trkpt lat="45.8473460" lon="9.2173570">
	<ele>567.80</ele>
	<time>2025-02-15T13:06:08.000Z</time>
</trkpt>
<trkpt lat="45.8473390" lon="9.2173680">
	<ele>567.60</ele>
	<time>2025-02-15T13:06:09.000Z</time>
</trkpt>
<trkpt lat="45.8473330" lon="9.2173800">
	<ele>567.60</ele>
	<time>2025-02-15T13:06:10.000Z</time>
</trkpt>
<trkpt lat="45.8473290" lon="9.2173920">
	<ele>567.40</ele>
	<time>2025-02-15T13:06:11.000Z</time>
</trkpt>
<trkpt lat="45.8473290" lon="9.2174080">
	<ele>567.40</ele>
	<time>2025-02-15T13:06:12.000Z</time>
</trkpt>
<trkpt lat="45.8473250" lon="9.2174220">
	<ele>567.40</ele>
	<time>2025-02-15T13:06:13.000Z</time>
</trkpt>
<trkpt lat="45.8473200" lon="9.2174350">
	<ele>567.40</ele>
	<time>2025-02-15T13:06:14.000Z</time>
</trkpt>
<trkpt lat="45.8473160" lon="9.2174500">
	<ele>567.20</ele>
	<time>2025-02-15T13:06:15.000Z</time>
</trkpt>
<trkpt lat="45.8473080" lon="9.2174650">
	<ele>567.20</ele>
	<time>2025-02-15T13:06:16.000Z</time>
</trkpt>
<trkpt lat="45.8473020" lon="9.2174840">
	<ele>567.20</ele>
	<time>2025-02-15T13:06:17.000Z</time>
</trkpt>
<trkpt lat="45.8473010" lon="9.2175030">
	<ele>567.00</ele>
	<time>2025-02-15T13:06:18.000Z</time>
</trkpt>
<trkpt lat="45.8472960" lon="9.2175210">
	<ele>567.00</ele>
	<time>2025-02-15T13:06:19.000Z</time>
</trkpt>
<trkpt lat="45.8472920" lon="9.2175370">
	<ele>566.80</ele>
	<time>2025-02-15T13:06:20.000Z</time>
</trkpt>
<trkpt lat="45.8472920" lon="9.2175550">
	<ele>566.80</ele>
	<time>2025-02-15T13:06:21.000Z</time>
</trkpt>
<trkpt lat="45.8472930" lon="9.2175680">
	<ele>566.60</ele>
	<time>2025-02-15T13:06:22.000Z</time>
</trkpt>
<trkpt lat="45.8472930" lon="9.2175810">
	<ele>566.60</ele>
	<time>2025-02-15T13:06:23.000Z</time>
</trkpt>
<trkpt lat="45.8472940" lon="9.2175960">
	<ele>566.40</ele>
	<time>2025-02-15T13:06:24.000Z</time>
</trkpt>
<trkpt lat="45.8472970" lon="9.2176180">
	<ele>566.20</ele>
	<time>2025-02-15T13:06:25.000Z</time>
</trkpt>
<trkpt lat="45.8472970" lon="9.2176340">
	<ele>566.20</ele>
	<time>2025-02-15T13:06:26.000Z</time>
</trkpt>
<trkpt lat="45.8472940" lon="9.2176420">
	<ele>566.20</ele>
	<time>2025-02-15T13:06:27.000Z</time>
</trkpt>
<trkpt lat="45.8472950" lon="9.2176460">
	<ele>566.20</ele>
	<time>2025-02-15T13:06:28.000Z</time>
</trkpt>
<trkpt lat="45.8472930" lon="9.2176530">
	<ele>566.20</ele>
	<time>2025-02-15T13:06:29.000Z</time>
</trkpt>
<trkpt lat="45.8472930" lon="9.2176570">
	<ele>566.20</ele>
	<time>2025-02-15T13:06:30.000Z</time>
</trkpt>
<trkpt lat="45.8472950" lon="9.2176600">
	<ele>566.40</ele>
	<time>2025-02-15T13:06:31.000Z</time>
</trkpt>
<trkpt lat="45.8472970" lon="9.2176610">
	<ele>566.40</ele>
	<time>2025-02-15T13:06:32.000Z</time>
</trkpt>
<trkpt lat="45.8472940" lon="9.2176540">
	<ele>566.60</ele>
	<time>2025-02-15T13:06:33.000Z</time>
</trkpt>
<trkpt lat="45.8472940" lon="9.2176550">
	<ele>566.60</ele>
	<time>2025-02-15T13:06:34.000Z</time>
</trkpt>
<trkpt lat="45.8472930" lon="9.2176460">
	<ele>566.40</ele>
	<time>2025-02-15T13:06:35.000Z</time>
</trkpt>
<trkpt lat="45.8472910" lon="9.2176440">
	<ele>566.40</ele>
	<time>2025-02-15T13:06:36.000Z</time>
</trkpt>
<trkpt lat="45.8472860" lon="9.2176380">
	<ele>566.40</ele>
	<time>2025-02-15T13:06:37.000Z</time>
</trkpt>
<trkpt lat="45.8472850" lon="9.2176380">
	<ele>566.40</ele>
	<time>2025-02-15T13:06:38.000Z</time>
</trkpt>
<trkpt lat="45.8472850" lon="9.2176390">
	<ele>566.40</ele>
	<time>2025-02-15T13:06:39.000Z</time>
</trkpt>
<trkpt lat="45.8472850" lon="9.2176390">
	<ele>566.40</ele>
	<time>2025-02-15T13:06:40.000Z</time>
</trkpt>
<trkpt lat="45.8472850" lon="9.2176390">
	<ele>566.40</ele>
	<time>2025-02-15T13:06:41.000Z</time>
</trkpt>
<trkpt lat="45.8472850" lon="9.2176390">
	<ele>566.40</ele>
	<time>2025-02-15T13:06:42.000Z</time>
</trkpt>
<trkpt lat="45.8472850" lon="9.2176390">
	<ele>566.40</ele>
	<time>2025-02-15T13:06:43.000Z</time>
</trkpt>
<trkpt lat="45.8472850" lon="9.2176390">
	<ele>566.20</ele>
	<time>2025-02-15T13:06:44.000Z</time>
</trkpt>
<trkpt lat="45.8472850" lon="9.2176390">
	<ele>566.20</ele>
	<time>2025-02-15T13:06:45.000Z</time>
</trkpt>
<trkpt lat="45.8472850" lon="9.2176390">
	<ele>566.20</ele>
	<time>2025-02-15T13:06:46.000Z</time>
</trkpt>
<trkpt lat="45.8472850" lon="9.2176390">
	<ele>566.20</ele>
	<time>2025-02-15T13:06:47.000Z</time>
</trkpt>
<trkpt lat="45.8472850" lon="9.2176390">
	<ele>566.20</ele>
	<time>2025-02-15T13:06:48.000Z</time>
</trkpt>
<trkpt lat="45.8472850" lon="9.2176400">
	<ele>566.20</ele>
	<time>2025-02-15T13:06:49.000Z</time>
</trkpt>
<trkpt lat="45.8472850" lon="9.2176400">
	<ele>566.20</ele>
	<time>2025-02-15T13:06:50.000Z</time>
</trkpt>
<trkpt lat="45.8472850" lon="9.2176400">
	<ele>566.40</ele>
	<time>2025-02-15T13:06:51.000Z</time>
</trkpt>
<trkpt lat="45.8472850" lon="9.2176420">
	<ele>566.40</ele>
	<time>2025-02-15T13:06:52.000Z</time>
</trkpt>
<trkpt lat="45.8472850" lon="9.2176430">
	<ele>566.60</ele>
	<time>2025-02-15T13:06:53.000Z</time>
</trkpt>
<trkpt lat="45.8472850" lon="9.2176440">
	<ele>566.60</ele>
	<time>2025-02-15T13:06:54.000Z</time>
</trkpt>
<trkpt lat="45.8472860" lon="9.2176460">
	<ele>566.60</ele>
	<time>2025-02-15T13:06:55.000Z</time>
</trkpt>
<trkpt lat="45.8472860" lon="9.2176480">
	<ele>566.60</ele>
	<time>2025-02-15T13:06:56.000Z</time>
</trkpt>
<trkpt lat="45.8472890" lon="9.2176500">
	<ele>566.60</ele>
	<time>2025-02-15T13:06:57.000Z</time>
</trkpt>
<trkpt lat="45.8472890" lon="9.2176520">
	<ele>566.60</ele>
	<time>2025-02-15T13:06:58.000Z</time>
</trkpt>
<trkpt lat="45.8472890" lon="9.2176520">
	<ele>566.40</ele>
	<time>2025-02-15T13:06:59.000Z</time>
</trkpt>
<trkpt lat="45.8472890" lon="9.2176520">
	<ele>566.40</ele>
	<time>2025-02-15T13:07:00.000Z</time>
</trkpt>
<trkpt lat="45.8472890" lon="9.2176520">
	<ele>566.40</ele>
	<time>2025-02-15T13:07:01.000Z</time>
</trkpt>
<trkpt lat="45.8472890" lon="9.2176520">
	<ele>566.20</ele>
	<time>2025-02-15T13:07:02.000Z</time>
</trkpt>
<trkpt lat="45.8472890" lon="9.2176520">
	<ele>566.20</ele>
	<time>2025-02-15T13:07:03.000Z</time>
</trkpt>
<trkpt lat="45.8472890" lon="9.2176520">
	<ele>566.20</ele>
	<time>2025-02-15T13:07:04.000Z</time>
</trkpt>
<trkpt lat="45.8472890" lon="9.2176520">
	<ele>566.20</ele>
	<time>2025-02-15T13:07:05.000Z</time>
</trkpt>
<trkpt lat="45.8472890" lon="9.2176530">
	<ele>566.20</ele>
	<time>2025-02-15T13:07:06.000Z</time>
</trkpt>
<trkpt lat="45.8472900" lon="9.2176540">
	<ele>566.20</ele>
	<time>2025-02-15T13:07:07.000Z</time>
</trkpt>
<trkpt lat="45.8472900" lon="9.2176540">
	<ele>566.20</ele>
	<time>2025-02-15T13:07:08.000Z</time>
</trkpt>
<trkpt lat="45.8472900" lon="9.2176540">
	<ele>566.20</ele>
	<time>2025-02-15T13:07:09.000Z</time>
</trkpt>
<trkpt lat="45.8472910" lon="9.2176550">
	<ele>566.20</ele>
	<time>2025-02-15T13:07:10.000Z</time>
</trkpt>
<trkpt lat="45.8472910" lon="9.2176550">
	<ele>566.00</ele>
	<time>2025-02-15T13:07:11.000Z</time>
</trkpt>
<trkpt lat="45.8472920" lon="9.2176560">
	<ele>566.00</ele>
	<time>2025-02-15T13:07:12.000Z</time>
</trkpt>
<trkpt lat="45.8472930" lon="9.2176570">
	<ele>566.00</ele>
	<time>2025-02-15T13:07:13.000Z</time>
</trkpt>
<trkpt lat="45.8472950" lon="9.2176590">
	<ele>566.00</ele>
	<time>2025-02-15T13:07:14.000Z</time>
</trkpt>
<trkpt lat="45.8473000" lon="9.2176630">
	<ele>566.00</ele>
	<time>2025-02-15T13:07:15.000Z</time>
</trkpt>
<trkpt lat="45.8473000" lon="9.2176660">
	<ele>566.20</ele>
	<time>2025-02-15T13:07:16.000Z</time>
</trkpt>
<trkpt lat="45.8473000" lon="9.2176670">
	<ele>566.20</ele>
	<time>2025-02-15T13:07:17.000Z</time>
</trkpt>
<trkpt lat="45.8473000" lon="9.2176680">
	<ele>566.20</ele>
	<time>2025-02-15T13:07:18.000Z</time>
</trkpt>
<trkpt lat="45.8473000" lon="9.2176690">
	<ele>566.00</ele>
	<time>2025-02-15T13:07:19.000Z</time>
</trkpt>
<trkpt lat="45.8473000" lon="9.2176700">
	<ele>566.00</ele>
	<time>2025-02-15T13:07:20.000Z</time>
</trkpt>
<trkpt lat="45.8473000" lon="9.2176700">
	<ele>566.00</ele>
	<time>2025-02-15T13:07:21.000Z</time>
</trkpt>
<trkpt lat="45.8473000" lon="9.2176710">
	<ele>566.00</ele>
	<time>2025-02-15T13:07:22.000Z</time>
</trkpt>
<trkpt lat="45.8473010" lon="9.2176710">
	<ele>566.00</ele>
	<time>2025-02-15T13:07:23.000Z</time>
</trkpt>
<trkpt lat="45.8473010" lon="9.2176710">
	<ele>566.00</ele>
	<time>2025-02-15T13:07:24.000Z</time>
</trkpt>
<trkpt lat="45.8473010" lon="9.2176720">
	<ele>566.00</ele>
	<time>2025-02-15T13:07:25.000Z</time>
</trkpt>
<trkpt lat="45.8473010" lon="9.2176720">
	<ele>566.20</ele>
	<time>2025-02-15T13:07:26.000Z</time>
</trkpt>
<trkpt lat="45.8473010" lon="9.2176720">
	<ele>566.20</ele>
	<time>2025-02-15T13:07:27.000Z</time>
</trkpt>
<trkpt lat="45.8473010" lon="9.2176720">
	<ele>566.20</ele>
	<time>2025-02-15T13:07:28.000Z</time>
</trkpt>
<trkpt lat="45.8473010" lon="9.2176720">
	<ele>566.40</ele>
	<time>2025-02-15T13:07:29.000Z</time>
</trkpt>
<trkpt lat="45.8473010" lon="9.2176720">
	<ele>566.40</ele>
	<time>2025-02-15T13:07:30.000Z</time>
</trkpt>
<trkpt lat="45.8473000" lon="9.2176720">
	<ele>566.40</ele>
	<time>2025-02-15T13:07:31.000Z</time>
</trkpt>
<trkpt lat="45.8473000" lon="9.2176720">
	<ele>566.20</ele>
	<time>2025-02-15T13:07:32.000Z</time>
</trkpt>
<trkpt lat="45.8472990" lon="9.2176710">
	<ele>566.20</ele>
	<time>2025-02-15T13:07:33.000Z</time>
</trkpt>
<trkpt lat="45.8472990" lon="9.2176710">
	<ele>566.20</ele>
	<time>2025-02-15T13:07:34.000Z</time>
</trkpt>
<trkpt lat="45.8472990" lon="9.2176720">
	<ele>566.00</ele>
	<time>2025-02-15T13:07:35.000Z</time>
</trkpt>
<trkpt lat="45.8473010" lon="9.2176760">
	<ele>566.00</ele>
	<time>2025-02-15T13:07:36.000Z</time>
</trkpt>
<trkpt lat="45.8473100" lon="9.2176930">
	<ele>565.80</ele>
	<time>2025-02-15T13:07:37.000Z</time>
</trkpt>
<trkpt lat="45.8473220" lon="9.2177150">
	<ele>565.80</ele>
	<time>2025-02-15T13:07:38.000Z</time>
</trkpt>
<trkpt lat="45.8473240" lon="9.2177240">
	<ele>565.80</ele>
	<time>2025-02-15T13:07:39.000Z</time>
</trkpt>
<trkpt lat="45.8473280" lon="9.2177330">
	<ele>565.80</ele>
	<time>2025-02-15T13:07:40.000Z</time>
</trkpt>
<trkpt lat="45.8473320" lon="9.2177400">
	<ele>565.80</ele>
	<time>2025-02-15T13:07:41.000Z</time>
</trkpt>
<trkpt lat="45.8473330" lon="9.2177400">
	<ele>565.60</ele>
	<time>2025-02-15T13:07:42.000Z</time>
</trkpt>
<trkpt lat="45.8473320" lon="9.2177420">
	<ele>565.60</ele>
	<time>2025-02-15T13:07:43.000Z</time>
</trkpt>
<trkpt lat="45.8473320" lon="9.2177450">
	<ele>565.60</ele>
	<time>2025-02-15T13:07:44.000Z</time>
</trkpt>
<trkpt lat="45.8473340" lon="9.2177510">
	<ele>565.60</ele>
	<time>2025-02-15T13:07:45.000Z</time>
</trkpt>
<trkpt lat="45.8473320" lon="9.2177520">
	<ele>565.60</ele>
	<time>2025-02-15T13:07:46.000Z</time>
</trkpt>
<trkpt lat="45.8473330" lon="9.2177600">
	<ele>565.60</ele>
	<time>2025-02-15T13:07:47.000Z</time>
</trkpt>
<trkpt lat="45.8473350" lon="9.2177750">
	<ele>565.40</ele>
	<time>2025-02-15T13:07:48.000Z</time>
</trkpt>
<trkpt lat="45.8473390" lon="9.2177940">
	<ele>565.40</ele>
	<time>2025-02-15T13:07:49.000Z</time>
</trkpt>
<trkpt lat="45.8473390" lon="9.2178020">
	<ele>565.40</ele>
	<time>2025-02-15T13:07:50.000Z</time>
</trkpt>
<trkpt lat="45.8473400" lon="9.2178240">
	<ele>565.40</ele>
	<time>2025-02-15T13:07:51.000Z</time>
</trkpt>
<trkpt lat="45.8473400" lon="9.2178430">
	<ele>565.20</ele>
	<time>2025-02-15T13:07:52.000Z</time>
</trkpt>
<trkpt lat="45.8473390" lon="9.2178660">
	<ele>565.40</ele>
	<time>2025-02-15T13:07:53.000Z</time>
</trkpt>
<trkpt lat="45.8473400" lon="9.2178840">
	<ele>565.40</ele>
	<time>2025-02-15T13:07:54.000Z</time>
</trkpt>
<trkpt lat="45.8473440" lon="9.2178940">
	<ele>565.40</ele>
	<time>2025-02-15T13:07:55.000Z</time>
</trkpt>
<trkpt lat="45.8473450" lon="9.2179090">
	<ele>565.40</ele>
	<time>2025-02-15T13:07:56.000Z</time>
</trkpt>
<trkpt lat="45.8473450" lon="9.2179290">
	<ele>565.40</ele>
	<time>2025-02-15T13:07:57.000Z</time>
</trkpt>
<trkpt lat="45.8473460" lon="9.2179490">
	<ele>565.40</ele>
	<time>2025-02-15T13:07:58.000Z</time>
</trkpt>
<trkpt lat="45.8473480" lon="9.2179700">
	<ele>565.40</ele>
	<time>2025-02-15T13:07:59.000Z</time>
</trkpt>
<trkpt lat="45.8473520" lon="9.2179820">
	<ele>565.40</ele>
	<time>2025-02-15T13:08:00.000Z</time>
</trkpt>
<trkpt lat="45.8473530" lon="9.2180010">
	<ele>565.40</ele>
	<time>2025-02-15T13:08:01.000Z</time>
</trkpt>
<trkpt lat="45.8473500" lon="9.2180210">
	<ele>565.40</ele>
	<time>2025-02-15T13:08:02.000Z</time>
</trkpt>
<trkpt lat="45.8473490" lon="9.2180370">
	<ele>565.40</ele>
	<time>2025-02-15T13:08:03.000Z</time>
</trkpt>
<trkpt lat="45.8473530" lon="9.2180490">
	<ele>565.40</ele>
	<time>2025-02-15T13:08:04.000Z</time>
</trkpt>
<trkpt lat="45.8473540" lon="9.2180570">
	<ele>565.40</ele>
	<time>2025-02-15T13:08:05.000Z</time>
</trkpt>
<trkpt lat="45.8473530" lon="9.2180630">
	<ele>565.40</ele>
	<time>2025-02-15T13:08:06.000Z</time>
</trkpt>
<trkpt lat="45.8473550" lon="9.2180680">
	<ele>565.40</ele>
	<time>2025-02-15T13:08:07.000Z</time>
</trkpt>
<trkpt lat="45.8473550" lon="9.2180730">
	<ele>565.40</ele>
	<time>2025-02-15T13:08:08.000Z</time>
</trkpt>
<trkpt lat="45.8473500" lon="9.2180810">
	<ele>565.40</ele>
	<time>2025-02-15T13:08:09.000Z</time>
</trkpt>
<trkpt lat="45.8473430" lon="9.2180920">
	<ele>565.20</ele>
	<time>2025-02-15T13:08:10.000Z</time>
</trkpt>
<trkpt lat="45.8473360" lon="9.2181030">
	<ele>565.20</ele>
	<time>2025-02-15T13:08:11.000Z</time>
</trkpt>
<trkpt lat="45.8473330" lon="9.2181190">
	<ele>565.00</ele>
	<time>2025-02-15T13:08:12.000Z</time>
</trkpt>
<trkpt lat="45.8473350" lon="9.2181370">
	<ele>565.00</ele>
	<time>2025-02-15T13:08:13.000Z</time>
</trkpt>
<trkpt lat="45.8473360" lon="9.2181440">
	<ele>565.00</ele>
	<time>2025-02-15T13:08:14.000Z</time>
</trkpt>
<trkpt lat="45.8473380" lon="9.2181560">
	<ele>564.80</ele>
	<time>2025-02-15T13:08:15.000Z</time>
</trkpt>
<trkpt lat="45.8473450" lon="9.2181730">
	<ele>564.80</ele>
	<time>2025-02-15T13:08:16.000Z</time>
</trkpt>
<trkpt lat="45.8473500" lon="9.2181900">
	<ele>564.80</ele>
	<time>2025-02-15T13:08:17.000Z</time>
</trkpt>
<trkpt lat="45.8473500" lon="9.2182120">
	<ele>564.60</ele>
	<time>2025-02-15T13:08:18.000Z</time>
</trkpt>
<trkpt lat="45.8473520" lon="9.2182240">
	<ele>564.60</ele>
	<time>2025-02-15T13:08:19.000Z</time>
</trkpt>
<trkpt lat="45.8473520" lon="9.2182360">
	<ele>564.40</ele>
	<time>2025-02-15T13:08:20.000Z</time>
</trkpt>
<trkpt lat="45.8473520" lon="9.2182460">
	<ele>564.40</ele>
	<time>2025-02-15T13:08:21.000Z</time>
</trkpt>
<trkpt lat="45.8473540" lon="9.2182580">
	<ele>564.40</ele>
	<time>2025-02-15T13:08:22.000Z</time>
</trkpt>
<trkpt lat="45.8473570" lon="9.2182720">
	<ele>564.40</ele>
	<time>2025-02-15T13:08:23.000Z</time>
</trkpt>
<trkpt lat="45.8473580" lon="9.2182840">
	<ele>564.40</ele>
	<time>2025-02-15T13:08:24.000Z</time>
</trkpt>
<trkpt lat="45.8473630" lon="9.2183000">
	<ele>564.20</ele>
	<time>2025-02-15T13:08:25.000Z</time>
</trkpt>
<trkpt lat="45.8473650" lon="9.2183150">
	<ele>564.20</ele>
	<time>2025-02-15T13:08:26.000Z</time>
</trkpt>
<trkpt lat="45.8473670" lon="9.2183280">
	<ele>564.20</ele>
	<time>2025-02-15T13:08:27.000Z</time>
</trkpt>
<trkpt lat="45.8473710" lon="9.2183410">
	<ele>564.20</ele>
	<time>2025-02-15T13:08:28.000Z</time>
</trkpt>
<trkpt lat="45.8473760" lon="9.2183560">
	<ele>564.20</ele>
	<time>2025-02-15T13:08:29.000Z</time>
</trkpt>
<trkpt lat="45.8473790" lon="9.2183670">
	<ele>564.00</ele>
	<time>2025-02-15T13:08:30.000Z</time>
</trkpt>
<trkpt lat="45.8473780" lon="9.2183800">
	<ele>564.00</ele>
	<time>2025-02-15T13:08:31.000Z</time>
</trkpt>
<trkpt lat="45.8473790" lon="9.2183890">
	<ele>563.80</ele>
	<time>2025-02-15T13:08:32.000Z</time>
</trkpt>
<trkpt lat="45.8473800" lon="9.2183910">
	<ele>563.80</ele>
	<time>2025-02-15T13:08:33.000Z</time>
</trkpt>
<trkpt lat="45.8473840" lon="9.2184030">
	<ele>563.80</ele>
	<time>2025-02-15T13:08:34.000Z</time>
</trkpt>
<trkpt lat="45.8473850" lon="9.2184200">
	<ele>563.60</ele>
	<time>2025-02-15T13:08:35.000Z</time>
</trkpt>
<trkpt lat="45.8473790" lon="9.2184330">
	<ele>563.60</ele>
	<time>2025-02-15T13:08:36.000Z</time>
</trkpt>
<trkpt lat="45.8473730" lon="9.2184470">
	<ele>563.60</ele>
	<time>2025-02-15T13:08:37.000Z</time>
</trkpt>
<trkpt lat="45.8473660" lon="9.2184600">
	<ele>563.40</ele>
	<time>2025-02-15T13:08:38.000Z</time>
</trkpt>
<trkpt lat="45.8473640" lon="9.2184730">
	<ele>563.40</ele>
	<time>2025-02-15T13:08:39.000Z</time>
</trkpt>
<trkpt lat="45.8473610" lon="9.2184860">
	<ele>563.40</ele>
	<time>2025-02-15T13:08:40.000Z</time>
</trkpt>
<trkpt lat="45.8473600" lon="9.2185060">
	<ele>563.20</ele>
	<time>2025-02-15T13:08:41.000Z</time>
</trkpt>
<trkpt lat="45.8473560" lon="9.2185280">
	<ele>563.00</ele>
	<time>2025-02-15T13:08:42.000Z</time>
</trkpt>
<trkpt lat="45.8473520" lon="9.2185470">
	<ele>562.80</ele>
	<time>2025-02-15T13:08:43.000Z</time>
</trkpt>
<trkpt lat="45.8473500" lon="9.2185700">
	<ele>562.60</ele>
	<time>2025-02-15T13:08:44.000Z</time>
</trkpt>
<trkpt lat="45.8473470" lon="9.2185840">
	<ele>562.60</ele>
	<time>2025-02-15T13:08:45.000Z</time>
</trkpt>
<trkpt lat="45.8473350" lon="9.2185920">
	<ele>562.40</ele>
	<time>2025-02-15T13:08:46.000Z</time>
</trkpt>
<trkpt lat="45.8473280" lon="9.2186050">
	<ele>562.40</ele>
	<time>2025-02-15T13:08:47.000Z</time>
</trkpt>
<trkpt lat="45.8473180" lon="9.2186120">
	<ele>562.20</ele>
	<time>2025-02-15T13:08:48.000Z</time>
</trkpt>
<trkpt lat="45.8473160" lon="9.2186260">
	<ele>562.20</ele>
	<time>2025-02-15T13:08:49.000Z</time>
</trkpt>
<trkpt lat="45.8473140" lon="9.2186380">
	<ele>562.00</ele>
	<time>2025-02-15T13:08:50.000Z</time>
</trkpt>
<trkpt lat="45.8473070" lon="9.2186520">
	<ele>562.00</ele>
	<time>2025-02-15T13:08:51.000Z</time>
</trkpt>
<trkpt lat="45.8472940" lon="9.2186610">
	<ele>562.00</ele>
	<time>2025-02-15T13:08:52.000Z</time>
</trkpt>
<trkpt lat="45.8472860" lon="9.2186700">
	<ele>561.80</ele>
	<time>2025-02-15T13:08:53.000Z</time>
</trkpt>
<trkpt lat="45.8472680" lon="9.2186750">
	<ele>561.80</ele>
	<time>2025-02-15T13:08:54.000Z</time>
</trkpt>
<trkpt lat="45.8472520" lon="9.2186830">
	<ele>561.60</ele>
	<time>2025-02-15T13:08:55.000Z</time>
</trkpt>
<trkpt lat="45.8472410" lon="9.2186910">
	<ele>561.40</ele>
	<time>2025-02-15T13:08:56.000Z</time>
</trkpt>
<trkpt lat="45.8472350" lon="9.2187020">
	<ele>561.40</ele>
	<time>2025-02-15T13:08:57.000Z</time>
</trkpt>
<trkpt lat="45.8472360" lon="9.2187150">
	<ele>561.40</ele>
	<time>2025-02-15T13:08:58.000Z</time>
</trkpt>
<trkpt lat="45.8472320" lon="9.2187330">
	<ele>561.20</ele>
	<time>2025-02-15T13:08:59.000Z</time>
</trkpt>
<trkpt lat="45.8472330" lon="9.2187420">
	<ele>561.20</ele>
	<time>2025-02-15T13:09:00.000Z</time>
</trkpt>
<trkpt lat="45.8472160" lon="9.2187470">
	<ele>561.00</ele>
	<time>2025-02-15T13:09:01.000Z</time>
</trkpt>
<trkpt lat="45.8472000" lon="9.2187510">
	<ele>560.80</ele>
	<time>2025-02-15T13:09:02.000Z</time>
</trkpt>
<trkpt lat="45.8471850" lon="9.2187620">
	<ele>560.80</ele>
	<time>2025-02-15T13:09:03.000Z</time>
</trkpt>
<trkpt lat="45.8471720" lon="9.2187690">
	<ele>560.60</ele>
	<time>2025-02-15T13:09:04.000Z</time>
</trkpt>
<trkpt lat="45.8471680" lon="9.2187780">
	<ele>560.60</ele>
	<time>2025-02-15T13:09:05.000Z</time>
</trkpt>
<trkpt lat="45.8471590" lon="9.2187850">
	<ele>560.60</ele>
	<time>2025-02-15T13:09:06.000Z</time>
</trkpt>
<trkpt lat="45.8471560" lon="9.2187940">
	<ele>560.60</ele>
	<time>2025-02-15T13:09:07.000Z</time>
</trkpt>
<trkpt lat="45.8471500" lon="9.2188040">
	<ele>560.40</ele>
	<time>2025-02-15T13:09:08.000Z</time>
</trkpt>
<trkpt lat="45.8471410" lon="9.2188120">
	<ele>560.40</ele>
	<time>2025-02-15T13:09:09.000Z</time>
</trkpt>
<trkpt lat="45.8471340" lon="9.2188210">
	<ele>560.20</ele>
	<time>2025-02-15T13:09:10.000Z</time>
</trkpt>
<trkpt lat="45.8471240" lon="9.2188300">
	<ele>560.20</ele>
	<time>2025-02-15T13:09:11.000Z</time>
</trkpt>
<trkpt lat="45.8471160" lon="9.2188410">
	<ele>560.00</ele>
	<time>2025-02-15T13:09:12.000Z</time>
</trkpt>
<trkpt lat="45.8471070" lon="9.2188490">
	<ele>560.00</ele>
	<time>2025-02-15T13:09:13.000Z</time>
</trkpt>
<trkpt lat="45.8470980" lon="9.2188610">
	<ele>559.80</ele>
	<time>2025-02-15T13:09:14.000Z</time>
</trkpt>
<trkpt lat="45.8470920" lon="9.2188700">
	<ele>559.60</ele>
	<time>2025-02-15T13:09:15.000Z</time>
</trkpt>
<trkpt lat="45.8470860" lon="9.2188800">
	<ele>559.60</ele>
	<time>2025-02-15T13:09:16.000Z</time>
</trkpt>
<trkpt lat="45.8470840" lon="9.2188930">
	<ele>559.60</ele>
	<time>2025-02-15T13:09:17.000Z</time>
</trkpt>
<trkpt lat="45.8470820" lon="9.2189040">
	<ele>559.60</ele>
	<time>2025-02-15T13:09:18.000Z</time>
</trkpt>
<trkpt lat="45.8470760" lon="9.2189100">
	<ele>559.40</ele>
	<time>2025-02-15T13:09:19.000Z</time>
</trkpt>
<trkpt lat="45.8470690" lon="9.2189190">
	<ele>559.40</ele>
	<time>2025-02-15T13:09:20.000Z</time>
</trkpt>
<trkpt lat="45.8470580" lon="9.2189290">
	<ele>559.40</ele>
	<time>2025-02-15T13:09:21.000Z</time>
</trkpt>
<trkpt lat="45.8470490" lon="9.2189380">
	<ele>559.20</ele>
	<time>2025-02-15T13:09:22.000Z</time>
</trkpt>
<trkpt lat="45.8470450" lon="9.2189470">
	<ele>559.20</ele>
	<time>2025-02-15T13:09:23.000Z</time>
</trkpt>
<trkpt lat="45.8470400" lon="9.2189540">
	<ele>559.20</ele>
	<time>2025-02-15T13:09:24.000Z</time>
</trkpt>
<trkpt lat="45.8470330" lon="9.2189600">
	<ele>559.00</ele>
	<time>2025-02-15T13:09:25.000Z</time>
</trkpt>
<trkpt lat="45.8470260" lon="9.2189680">
	<ele>559.00</ele>
	<time>2025-02-15T13:09:26.000Z</time>
</trkpt>
<trkpt lat="45.8470170" lon="9.2189760">
	<ele>559.00</ele>
	<time>2025-02-15T13:09:27.000Z</time>
</trkpt>
<trkpt lat="45.8470080" lon="9.2189830">
	<ele>558.80</ele>
	<time>2025-02-15T13:09:28.000Z</time>
</trkpt>
<trkpt lat="45.8470020" lon="9.2189920">
	<ele>558.80</ele>
	<time>2025-02-15T13:09:29.000Z</time>
</trkpt>
<trkpt lat="45.8469980" lon="9.2190050">
	<ele>558.60</ele>
	<time>2025-02-15T13:09:30.000Z</time>
</trkpt>
<trkpt lat="45.8469970" lon="9.2190220">
	<ele>558.60</ele>
	<time>2025-02-15T13:09:31.000Z</time>
</trkpt>
<trkpt lat="45.8469980" lon="9.2190370">
	<ele>558.40</ele>
	<time>2025-02-15T13:09:32.000Z</time>
</trkpt>
<trkpt lat="45.8469970" lon="9.2190540">
	<ele>558.40</ele>
	<time>2025-02-15T13:09:33.000Z</time>
</trkpt>
<trkpt lat="45.8469960" lon="9.2190700">
	<ele>558.20</ele>
	<time>2025-02-15T13:09:34.000Z</time>
</trkpt>
<trkpt lat="45.8469870" lon="9.2190780">
	<ele>558.00</ele>
	<time>2025-02-15T13:09:35.000Z</time>
</trkpt>
<trkpt lat="45.8469790" lon="9.2190850">
	<ele>558.00</ele>
	<time>2025-02-15T13:09:36.000Z</time>
</trkpt>
<trkpt lat="45.8469690" lon="9.2190890">
	<ele>557.80</ele>
	<time>2025-02-15T13:09:37.000Z</time>
</trkpt>
<trkpt lat="45.8469630" lon="9.2190940">
	<ele>557.80</ele>
	<time>2025-02-15T13:09:38.000Z</time>
</trkpt>
<trkpt lat="45.8469580" lon="9.2191000">
	<ele>557.60</ele>
	<time>2025-02-15T13:09:39.000Z</time>
</trkpt>
<trkpt lat="45.8469540" lon="9.2191040">
	<ele>557.40</ele>
	<time>2025-02-15T13:09:40.000Z</time>
</trkpt>
<trkpt lat="45.8469500" lon="9.2191120">
	<ele>557.40</ele>
	<time>2025-02-15T13:09:41.000Z</time>
</trkpt>
<trkpt lat="45.8469470" lon="9.2191230">
	<ele>557.20</ele>
	<time>2025-02-15T13:09:42.000Z</time>
</trkpt>
<trkpt lat="45.8469400" lon="9.2191310">
	<ele>557.20</ele>
	<time>2025-02-15T13:09:43.000Z</time>
</trkpt>
<trkpt lat="45.8469300" lon="9.2191370">
	<ele>557.00</ele>
	<time>2025-02-15T13:09:44.000Z</time>
</trkpt>
<trkpt lat="45.8469200" lon="9.2191390">
	<ele>556.80</ele>
	<time>2025-02-15T13:09:45.000Z</time>
</trkpt>
<trkpt lat="45.8469150" lon="9.2191390">
	<ele>556.60</ele>
	<time>2025-02-15T13:09:46.000Z</time>
</trkpt>
<trkpt lat="45.8469100" lon="9.2191480">
	<ele>556.60</ele>
	<time>2025-02-15T13:09:47.000Z</time>
</trkpt>
<trkpt lat="45.8469090" lon="9.2191590">
	<ele>556.40</ele>
	<time>2025-02-15T13:09:48.000Z</time>
</trkpt>
<trkpt lat="45.8469110" lon="9.2191710">
	<ele>556.20</ele>
	<time>2025-02-15T13:09:49.000Z</time>
</trkpt>
<trkpt lat="45.8469120" lon="9.2191810">
	<ele>556.00</ele>
	<time>2025-02-15T13:09:50.000Z</time>
</trkpt>
<trkpt lat="45.8469040" lon="9.2191860">
	<ele>555.80</ele>
	<time>2025-02-15T13:09:51.000Z</time>
</trkpt>
<trkpt lat="45.8468970" lon="9.2191900">
	<ele>555.80</ele>
	<time>2025-02-15T13:09:52.000Z</time>
</trkpt>
<trkpt lat="45.8468920" lon="9.2192000">
	<ele>555.80</ele>
	<time>2025-02-15T13:09:53.000Z</time>
</trkpt>
<trkpt lat="45.8468890" lon="9.2192120">
	<ele>555.60</ele>
	<time>2025-02-15T13:09:54.000Z</time>
</trkpt>
<trkpt lat="45.8468800" lon="9.2192260">
	<ele>555.40</ele>
	<time>2025-02-15T13:09:55.000Z</time>
</trkpt>
<trkpt lat="45.8468700" lon="9.2192330">
	<ele>555.20</ele>
	<time>2025-02-15T13:09:56.000Z</time>
</trkpt>
<trkpt lat="45.8468660" lon="9.2192400">
	<ele>555.00</ele>
	<time>2025-02-15T13:09:57.000Z</time>
</trkpt>
<trkpt lat="45.8468640" lon="9.2192440">
	<ele>555.00</ele>
	<time>2025-02-15T13:09:58.000Z</time>
</trkpt>
<trkpt lat="45.8468620" lon="9.2192480">
	<ele>554.80</ele>
	<time>2025-02-15T13:09:59.000Z</time>
</trkpt>
<trkpt lat="45.8468600" lon="9.2192520">
	<ele>554.80</ele>
	<time>2025-02-15T13:10:00.000Z</time>
</trkpt>
<trkpt lat="45.8468590" lon="9.2192540">
	<ele>554.60</ele>
	<time>2025-02-15T13:10:01.000Z</time>
</trkpt>
<trkpt lat="45.8468600" lon="9.2192560">
	<ele>554.60</ele>
	<time>2025-02-15T13:10:02.000Z</time>
</trkpt>
<trkpt lat="45.8468600" lon="9.2192560">
	<ele>554.60</ele>
	<time>2025-02-15T13:10:03.000Z</time>
</trkpt>
<trkpt lat="45.8468600" lon="9.2192550">
	<ele>554.80</ele>
	<time>2025-02-15T13:10:04.000Z</time>
</trkpt>
<trkpt lat="45.8468520" lon="9.2192590">
	<ele>554.80</ele>
	<time>2025-02-15T13:10:05.000Z</time>
</trkpt>
<trkpt lat="45.8468530" lon="9.2192600">
	<ele>554.80</ele>
	<time>2025-02-15T13:10:06.000Z</time>
</trkpt>
<trkpt lat="45.8468560" lon="9.2192620">
	<ele>554.80</ele>
	<time>2025-02-15T13:10:07.000Z</time>
</trkpt>
<trkpt lat="45.8468570" lon="9.2192620">
	<ele>554.80</ele>
	<time>2025-02-15T13:10:08.000Z</time>
</trkpt>
<trkpt lat="45.8468590" lon="9.2192620">
	<ele>555.00</ele>
	<time>2025-02-15T13:10:09.000Z</time>
</trkpt>
<trkpt lat="45.8468600" lon="9.2192640">
	<ele>555.00</ele>
	<time>2025-02-15T13:10:10.000Z</time>
</trkpt>
<trkpt lat="45.8468580" lon="9.2192670">
	<ele>555.00</ele>
	<time>2025-02-15T13:10:11.000Z</time>
</trkpt>
<trkpt lat="45.8468580" lon="9.2192670">
	<ele>554.80</ele>
	<time>2025-02-15T13:10:12.000Z</time>
</trkpt>
<trkpt lat="45.8468570" lon="9.2192650">
	<ele>554.60</ele>
	<time>2025-02-15T13:10:13.000Z</time>
</trkpt>
<trkpt lat="45.8468570" lon="9.2192680">
	<ele>554.60</ele>
	<time>2025-02-15T13:10:14.000Z</time>
</trkpt>
<trkpt lat="45.8468590" lon="9.2192730">
	<ele>554.60</ele>
	<time>2025-02-15T13:10:15.000Z</time>
</trkpt>
<trkpt lat="45.8468640" lon="9.2192780">
	<ele>554.40</ele>
	<time>2025-02-15T13:10:16.000Z</time>
</trkpt>
<trkpt lat="45.8468680" lon="9.2192840">
	<ele>554.40</ele>
	<time>2025-02-15T13:10:17.000Z</time>
</trkpt>
<trkpt lat="45.8468710" lon="9.2192840">
	<ele>554.40</ele>
	<time>2025-02-15T13:10:18.000Z</time>
</trkpt>
<trkpt lat="45.8468670" lon="9.2192790">
	<ele>554.40</ele>
	<time>2025-02-15T13:10:19.000Z</time>
</trkpt>
<trkpt lat="45.8468620" lon="9.2192730">
	<ele>554.40</ele>
	<time>2025-02-15T13:10:20.000Z</time>
</trkpt>
<trkpt lat="45.8468600" lon="9.2192680">
	<ele>554.40</ele>
	<time>2025-02-15T13:10:21.000Z</time>
</trkpt>
<trkpt lat="45.8468600" lon="9.2192650">
	<ele>554.60</ele>
	<time>2025-02-15T13:10:22.000Z</time>
</trkpt>
<trkpt lat="45.8468600" lon="9.2192630">
	<ele>554.60</ele>
	<time>2025-02-15T13:10:23.000Z</time>
</trkpt>
<trkpt lat="45.8468590" lon="9.2192620">
	<ele>554.60</ele>
	<time>2025-02-15T13:10:24.000Z</time>
</trkpt>
<trkpt lat="45.8468590" lon="9.2192610">
	<ele>554.60</ele>
	<time>2025-02-15T13:10:25.000Z</time>
</trkpt>
<trkpt lat="45.8468590" lon="9.2192610">
	<ele>554.60</ele>
	<time>2025-02-15T13:10:26.000Z</time>
</trkpt>
<trkpt lat="45.8468590" lon="9.2192610">
	<ele>554.60</ele>
	<time>2025-02-15T13:10:27.000Z</time>
</trkpt>
<trkpt lat="45.8468590" lon="9.2192610">
	<ele>554.60</ele>
	<time>2025-02-15T13:10:28.000Z</time>
</trkpt>
<trkpt lat="45.8468590" lon="9.2192610">
	<ele>554.60</ele>
	<time>2025-02-15T13:10:29.000Z</time>
</trkpt>
<trkpt lat="45.8468590" lon="9.2192610">
	<ele>554.60</ele>
	<time>2025-02-15T13:10:30.000Z</time>
</trkpt>
<trkpt lat="45.8468590" lon="9.2192610">
	<ele>554.80</ele>
	<time>2025-02-15T13:10:31.000Z</time>
</trkpt>
<trkpt lat="45.8468590" lon="9.2192610">
	<ele>554.80</ele>
	<time>2025-02-15T13:10:32.000Z</time>
</trkpt>
<trkpt lat="45.8468590" lon="9.2192610">
	<ele>554.80</ele>
	<time>2025-02-15T13:10:33.000Z</time>
</trkpt>
<trkpt lat="45.8468590" lon="9.2192610">
	<ele>555.00</ele>
	<time>2025-02-15T13:10:34.000Z</time>
</trkpt>
<trkpt lat="45.8468590" lon="9.2192610">
	<ele>555.00</ele>
	<time>2025-02-15T13:10:35.000Z</time>
</trkpt>
<trkpt lat="45.8468590" lon="9.2192610">
	<ele>555.00</ele>
	<time>2025-02-15T13:10:36.000Z</time>
</trkpt>
<trkpt lat="45.8468590" lon="9.2192610">
	<ele>555.00</ele>
	<time>2025-02-15T13:10:37.000Z</time>
</trkpt>
<trkpt lat="45.8468590" lon="9.2192610">
	<ele>555.00</ele>
	<time>2025-02-15T13:10:38.000Z</time>
</trkpt>
<trkpt lat="45.8468590" lon="9.2192610">
	<ele>555.00</ele>
	<time>2025-02-15T13:10:39.000Z</time>
</trkpt>
<trkpt lat="45.8468590" lon="9.2192610">
	<ele>554.80</ele>
	<time>2025-02-15T13:10:40.000Z</time>
</trkpt>
<trkpt lat="45.8468590" lon="9.2192610">
	<ele>554.80</ele>
	<time>2025-02-15T13:10:41.000Z</time>
</trkpt>
<trkpt lat="45.8468550" lon="9.2192600">
	<ele>554.60</ele>
	<time>2025-02-15T13:10:42.000Z</time>
</trkpt>
<trkpt lat="45.8468450" lon="9.2192650">
	<ele>554.40</ele>
	<time>2025-02-15T13:10:43.000Z</time>
</trkpt>
<trkpt lat="45.8468360" lon="9.2192730">
	<ele>554.40</ele>
	<time>2025-02-15T13:10:44.000Z</time>
</trkpt>
<trkpt lat="45.8468300" lon="9.2192780">
	<ele>554.40</ele>
	<time>2025-02-15T13:10:45.000Z</time>
</trkpt>
<trkpt lat="45.8468220" lon="9.2192880">
	<ele>554.20</ele>
	<time>2025-02-15T13:10:46.000Z</time>
</trkpt>
<trkpt lat="45.8468100" lon="9.2192910">
	<ele>554.00</ele>
	<time>2025-02-15T13:10:47.000Z</time>
</trkpt>
<trkpt lat="45.8467990" lon="9.2192990">
	<ele>554.00</ele>
	<time>2025-02-15T13:10:48.000Z</time>
</trkpt>
<trkpt lat="45.8467870" lon="9.2193100">
	<ele>553.80</ele>
	<time>2025-02-15T13:10:49.000Z</time>
</trkpt>
<trkpt lat="45.8467770" lon="9.2193220">
	<ele>553.60</ele>
	<time>2025-02-15T13:10:50.000Z</time>
</trkpt>
<trkpt lat="45.8467690" lon="9.2193330">
	<ele>553.40</ele>
	<time>2025-02-15T13:10:51.000Z</time>
</trkpt>
<trkpt lat="45.8467680" lon="9.2193520">
	<ele>553.20</ele>
	<time>2025-02-15T13:10:52.000Z</time>
</trkpt>
<trkpt lat="45.8467640" lon="9.2193700">
	<ele>553.20</ele>
	<time>2025-02-15T13:10:53.000Z</time>
</trkpt>
<trkpt lat="45.8467570" lon="9.2193820">
	<ele>553.00</ele>
	<time>2025-02-15T13:10:54.000Z</time>
</trkpt>
<trkpt lat="45.8467500" lon="9.2193960">
	<ele>552.80</ele>
	<time>2025-02-15T13:10:55.000Z</time>
</trkpt>
<trkpt lat="45.8467500" lon="9.2194130">
	<ele>552.80</ele>
	<time>2025-02-15T13:10:56.000Z</time>
</trkpt>
<trkpt lat="45.8467370" lon="9.2194230">
	<ele>552.60</ele>
	<time>2025-02-15T13:10:57.000Z</time>
</trkpt>
<trkpt lat="45.8467280" lon="9.2194350">
	<ele>552.40</ele>
	<time>2025-02-15T13:10:58.000Z</time>
</trkpt>
<trkpt lat="45.8467210" lon="9.2194510">
	<ele>552.20</ele>
	<time>2025-02-15T13:10:59.000Z</time>
</trkpt>
<trkpt lat="45.8467190" lon="9.2194780">
	<ele>551.80</ele>
	<time>2025-02-15T13:11:00.000Z</time>
</trkpt>
<trkpt lat="45.8467190" lon="9.2195020">
	<ele>551.60</ele>
	<time>2025-02-15T13:11:01.000Z</time>
</trkpt>
<trkpt lat="45.8467160" lon="9.2195170">
	<ele>551.40</ele>
	<time>2025-02-15T13:11:02.000Z</time>
</trkpt>
<trkpt lat="45.8467130" lon="9.2195340">
	<ele>551.20</ele>
	<time>2025-02-15T13:11:03.000Z</time>
</trkpt>
<trkpt lat="45.8467080" lon="9.2195490">
	<ele>551.00</ele>
	<time>2025-02-15T13:11:04.000Z</time>
</trkpt>
<trkpt lat="45.8467010" lon="9.2195580">
	<ele>550.80</ele>
	<time>2025-02-15T13:11:05.000Z</time>
</trkpt>
<trkpt lat="45.8466960" lon="9.2195730">
	<ele>550.60</ele>
	<time>2025-02-15T13:11:06.000Z</time>
</trkpt>
<trkpt lat="45.8466900" lon="9.2195860">
	<ele>550.60</ele>
	<time>2025-02-15T13:11:07.000Z</time>
</trkpt>
<trkpt lat="45.8466830" lon="9.2195990">
	<ele>550.40</ele>
	<time>2025-02-15T13:11:08.000Z</time>
</trkpt>
<trkpt lat="45.8466760" lon="9.2196140">
	<ele>550.40</ele>
	<time>2025-02-15T13:11:09.000Z</time>
</trkpt>
<trkpt lat="45.8466730" lon="9.2196280">
	<ele>550.20</ele>
	<time>2025-02-15T13:11:10.000Z</time>
</trkpt>
<trkpt lat="45.8466690" lon="9.2196390">
	<ele>549.80</ele>
	<time>2025-02-15T13:11:11.000Z</time>
</trkpt>
<trkpt lat="45.8466670" lon="9.2196490">
	<ele>549.60</ele>
	<time>2025-02-15T13:11:12.000Z</time>
</trkpt>
<trkpt lat="45.8466650" lon="9.2196630">
	<ele>549.40</ele>
	<time>2025-02-15T13:11:13.000Z</time>
</trkpt>
<trkpt lat="45.8466650" lon="9.2196780">
	<ele>549.00</ele>
	<time>2025-02-15T13:11:14.000Z</time>
</trkpt>
<trkpt lat="45.8466620" lon="9.2196930">
	<ele>548.80</ele>
	<time>2025-02-15T13:11:15.000Z</time>
</trkpt>
<trkpt lat="45.8466610" lon="9.2197090">
	<ele>548.40</ele>
	<time>2025-02-15T13:11:16.000Z</time>
</trkpt>
<trkpt lat="45.8466570" lon="9.2197270">
	<ele>548.20</ele>
	<time>2025-02-15T13:11:17.000Z</time>
</trkpt>
<trkpt lat="45.8466540" lon="9.2197440">
	<ele>548.00</ele>
	<time>2025-02-15T13:11:18.000Z</time>
</trkpt>
<trkpt lat="45.8466550" lon="9.2197590">
	<ele>547.80</ele>
	<time>2025-02-15T13:11:19.000Z</time>
</trkpt>
<trkpt lat="45.8466570" lon="9.2197770">
	<ele>547.60</ele>
	<time>2025-02-15T13:11:20.000Z</time>
</trkpt>
<trkpt lat="45.8466580" lon="9.2197890">
	<ele>547.40</ele>
	<time>2025-02-15T13:11:21.000Z</time>
</trkpt>
<trkpt lat="45.8466570" lon="9.2197930">
	<ele>547.20</ele>
	<time>2025-02-15T13:11:22.000Z</time>
</trkpt>
<trkpt lat="45.8466610" lon="9.2197940">
	<ele>547.00</ele>
	<time>2025-02-15T13:11:23.000Z</time>
</trkpt>
<trkpt lat="45.8466600" lon="9.2198030">
	<ele>547.00</ele>
	<time>2025-02-15T13:11:24.000Z</time>
</trkpt>
<trkpt lat="45.8466600" lon="9.2198140">
	<ele>546.80</ele>
	<time>2025-02-15T13:11:25.000Z</time>
</trkpt>
<trkpt lat="45.8466610" lon="9.2198260">
	<ele>546.80</ele>
	<time>2025-02-15T13:11:26.000Z</time>
</trkpt>
<trkpt lat="45.8466610" lon="9.2198430">
	<ele>546.80</ele>
	<time>2025-02-15T13:11:27.000Z</time>
</trkpt>
<trkpt lat="45.8466580" lon="9.2198540">
	<ele>546.60</ele>
	<time>2025-02-15T13:11:28.000Z</time>
</trkpt>
<trkpt lat="45.8466560" lon="9.2198650">
	<ele>546.40</ele>
	<time>2025-02-15T13:11:29.000Z</time>
</trkpt>
<trkpt lat="45.8466510" lon="9.2198760">
	<ele>546.20</ele>
	<time>2025-02-15T13:11:30.000Z</time>
</trkpt>
<trkpt lat="45.8466430" lon="9.2198880">
	<ele>546.00</ele>
	<time>2025-02-15T13:11:31.000Z</time>
</trkpt>
<trkpt lat="45.8466340" lon="9.2198970">
	<ele>545.80</ele>
	<time>2025-02-15T13:11:32.000Z</time>
</trkpt>
<trkpt lat="45.8466290" lon="9.2199080">
	<ele>545.60</ele>
	<time>2025-02-15T13:11:33.000Z</time>
</trkpt>
<trkpt lat="45.8466270" lon="9.2199240">
	<ele>545.40</ele>
	<time>2025-02-15T13:11:34.000Z</time>
</trkpt>
<trkpt lat="45.8466230" lon="9.2199340">
	<ele>545.20</ele>
	<time>2025-02-15T13:11:35.000Z</time>
</trkpt>
<trkpt lat="45.8466190" lon="9.2199480">
	<ele>545.00</ele>
	<time>2025-02-15T13:11:36.000Z</time>
</trkpt>
<trkpt lat="45.8466180" lon="9.2199630">
	<ele>544.80</ele>
	<time>2025-02-15T13:11:37.000Z</time>
</trkpt>
<trkpt lat="45.8466130" lon="9.2199760">
	<ele>544.80</ele>
	<time>2025-02-15T13:11:38.000Z</time>
</trkpt>
<trkpt lat="45.8466130" lon="9.2199860">
	<ele>544.60</ele>
	<time>2025-02-15T13:11:39.000Z</time>
</trkpt>
<trkpt lat="45.8466110" lon="9.2199970">
	<ele>544.40</ele>
	<time>2025-02-15T13:11:40.000Z</time>
</trkpt>
<trkpt lat="45.8466060" lon="9.2200120">
	<ele>544.40</ele>
	<time>2025-02-15T13:11:41.000Z</time>
</trkpt>
<trkpt lat="45.8466060" lon="9.2200260">
	<ele>544.20</ele>
	<time>2025-02-15T13:11:42.000Z</time>
</trkpt>
<trkpt lat="45.8466110" lon="9.2200380">
	<ele>544.00</ele>
	<time>2025-02-15T13:11:43.000Z</time>
</trkpt>
<trkpt lat="45.8466120" lon="9.2200510">
	<ele>544.00</ele>
	<time>2025-02-15T13:11:44.000Z</time>
</trkpt>
<trkpt lat="45.8466120" lon="9.2200620">
	<ele>543.80</ele>
	<time>2025-02-15T13:11:45.000Z</time>
</trkpt>
<trkpt lat="45.8466130" lon="9.2200760">
	<ele>543.60</ele>
	<time>2025-02-15T13:11:46.000Z</time>
</trkpt>
<trkpt lat="45.8466130" lon="9.2200940">
	<ele>543.60</ele>
	<time>2025-02-15T13:11:47.000Z</time>
</trkpt>
<trkpt lat="45.8466190" lon="9.2201160">
	<ele>543.40</ele>
	<time>2025-02-15T13:11:48.000Z</time>
</trkpt>
<trkpt lat="45.8466220" lon="9.2201350">
	<ele>543.20</ele>
	<time>2025-02-15T13:11:49.000Z</time>
</trkpt>
<trkpt lat="45.8466220" lon="9.2201640">
	<ele>543.00</ele>
	<time>2025-02-15T13:11:50.000Z</time>
</trkpt>
<trkpt lat="45.8466210" lon="9.2201810">
	<ele>543.00</ele>
	<time>2025-02-15T13:11:51.000Z</time>
</trkpt>
<trkpt lat="45.8466200" lon="9.2202010">
	<ele>542.60</ele>
	<time>2025-02-15T13:11:52.000Z</time>
</trkpt>
<trkpt lat="45.8466120" lon="9.2202110">
	<ele>542.40</ele>
	<time>2025-02-15T13:11:53.000Z</time>
</trkpt>
<trkpt lat="45.8466030" lon="9.2202170">
	<ele>542.40</ele>
	<time>2025-02-15T13:11:54.000Z</time>
</trkpt>
<trkpt lat="45.8466040" lon="9.2202390">
	<ele>542.20</ele>
	<time>2025-02-15T13:11:55.000Z</time>
</trkpt>
<trkpt lat="45.8466100" lon="9.2202620">
	<ele>542.20</ele>
	<time>2025-02-15T13:11:56.000Z</time>
</trkpt>
<trkpt lat="45.8466000" lon="9.2202750">
	<ele>542.20</ele>
	<time>2025-02-15T13:11:57.000Z</time>
</trkpt>
<trkpt lat="45.8466050" lon="9.2202930">
	<ele>542.00</ele>
	<time>2025-02-15T13:11:58.000Z</time>
</trkpt>
<trkpt lat="45.8466110" lon="9.2203120">
	<ele>541.80</ele>
	<time>2025-02-15T13:11:59.000Z</time>
</trkpt>
<trkpt lat="45.8466100" lon="9.2203320">
	<ele>541.60</ele>
	<time>2025-02-15T13:12:00.000Z</time>
</trkpt>
<trkpt lat="45.8466110" lon="9.2203420">
	<ele>541.40</ele>
	<time>2025-02-15T13:12:01.000Z</time>
</trkpt>
<trkpt lat="45.8466120" lon="9.2203480">
	<ele>541.20</ele>
	<time>2025-02-15T13:12:02.000Z</time>
</trkpt>
<trkpt lat="45.8466220" lon="9.2203640">
	<ele>540.80</ele>
	<time>2025-02-15T13:12:03.000Z</time>
</trkpt>
<trkpt lat="45.8466280" lon="9.2203750">
	<ele>540.60</ele>
	<time>2025-02-15T13:12:04.000Z</time>
</trkpt>
<trkpt lat="45.8466260" lon="9.2203870">
	<ele>540.40</ele>
	<time>2025-02-15T13:12:05.000Z</time>
</trkpt>
<trkpt lat="45.8466270" lon="9.2204070">
	<ele>540.40</ele>
	<time>2025-02-15T13:12:06.000Z</time>
</trkpt>
<trkpt lat="45.8466300" lon="9.2204250">
	<ele>540.20</ele>
	<time>2025-02-15T13:12:07.000Z</time>
</trkpt>
<trkpt lat="45.8466420" lon="9.2204520">
	<ele>540.00</ele>
	<time>2025-02-15T13:12:08.000Z</time>
</trkpt>
<trkpt lat="45.8466450" lon="9.2204740">
	<ele>539.80</ele>
	<time>2025-02-15T13:12:09.000Z</time>
</trkpt>
<trkpt lat="45.8466410" lon="9.2204920">
	<ele>539.60</ele>
	<time>2025-02-15T13:12:10.000Z</time>
</trkpt>
<trkpt lat="45.8466450" lon="9.2205020">
	<ele>539.60</ele>
	<time>2025-02-15T13:12:11.000Z</time>
</trkpt>
<trkpt lat="45.8466480" lon="9.2205180">
	<ele>539.40</ele>
	<time>2025-02-15T13:12:12.000Z</time>
</trkpt>
<trkpt lat="45.8466500" lon="9.2205310">
	<ele>539.20</ele>
	<time>2025-02-15T13:12:13.000Z</time>
</trkpt>
<trkpt lat="45.8466500" lon="9.2205490">
	<ele>539.00</ele>
	<time>2025-02-15T13:12:14.000Z</time>
</trkpt>
<trkpt lat="45.8466540" lon="9.2205650">
	<ele>539.00</ele>
	<time>2025-02-15T13:12:15.000Z</time>
</trkpt>
<trkpt lat="45.8466540" lon="9.2205810">
	<ele>538.80</ele>
	<time>2025-02-15T13:12:16.000Z</time>
</trkpt>
<trkpt lat="45.8466560" lon="9.2205970">
	<ele>538.80</ele>
	<time>2025-02-15T13:12:17.000Z</time>
</trkpt>
<trkpt lat="45.8466560" lon="9.2206130">
	<ele>538.60</ele>
	<time>2025-02-15T13:12:18.000Z</time>
</trkpt>
<trkpt lat="45.8466600" lon="9.2206320">
	<ele>538.40</ele>
	<time>2025-02-15T13:12:19.000Z</time>
</trkpt>
<trkpt lat="45.8466690" lon="9.2206500">
	<ele>538.40</ele>
	<time>2025-02-15T13:12:20.000Z</time>
</trkpt>
<trkpt lat="45.8466700" lon="9.2206600">
	<ele>538.20</ele>
	<time>2025-02-15T13:12:21.000Z</time>
</trkpt>
<trkpt lat="45.8466710" lon="9.2206720">
	<ele>538.20</ele>
	<time>2025-02-15T13:12:22.000Z</time>
</trkpt>
<trkpt lat="45.8466670" lon="9.2206850">
	<ele>538.00</ele>
	<time>2025-02-15T13:12:23.000Z</time>
</trkpt>
<trkpt lat="45.8466650" lon="9.2207010">
	<ele>537.80</ele>
	<time>2025-02-15T13:12:24.000Z</time>
</trkpt>
<trkpt lat="45.8466570" lon="9.2207070">
	<ele>537.40</ele>
	<time>2025-02-15T13:12:25.000Z</time>
</trkpt>
<trkpt lat="45.8466500" lon="9.2207200">
	<ele>537.20</ele>
	<time>2025-02-15T13:12:26.000Z</time>
</trkpt>
<trkpt lat="45.8466510" lon="9.2207350">
	<ele>537.00</ele>
	<time>2025-02-15T13:12:27.000Z</time>
</trkpt>
<trkpt lat="45.8466580" lon="9.2207450">
	<ele>536.80</ele>
	<time>2025-02-15T13:12:28.000Z</time>
</trkpt>
<trkpt lat="45.8466600" lon="9.2207590">
	<ele>536.80</ele>
	<time>2025-02-15T13:12:29.000Z</time>
</trkpt>
<trkpt lat="45.8466660" lon="9.2207710">
	<ele>536.60</ele>
	<time>2025-02-15T13:12:30.000Z</time>
</trkpt>
<trkpt lat="45.8466740" lon="9.2207840">
	<ele>536.60</ele>
	<time>2025-02-15T13:12:31.000Z</time>
</trkpt>
<trkpt lat="45.8466840" lon="9.2208070">
	<ele>536.40</ele>
	<time>2025-02-15T13:12:32.000Z</time>
</trkpt>
<trkpt lat="45.8466860" lon="9.2208220">
	<ele>536.20</ele>
	<time>2025-02-15T13:12:33.000Z</time>
</trkpt>
<trkpt lat="45.8466860" lon="9.2208270">
	<ele>536.00</ele>
	<time>2025-02-15T13:12:34.000Z</time>
</trkpt>
<trkpt lat="45.8466860" lon="9.2208330">
	<ele>536.00</ele>
	<time>2025-02-15T13:12:35.000Z</time>
</trkpt>
<trkpt lat="45.8466880" lon="9.2208490">
	<ele>536.00</ele>
	<time>2025-02-15T13:12:36.000Z</time>
</trkpt>
<trkpt lat="45.8466990" lon="9.2208790">
	<ele>535.80</ele>
	<time>2025-02-15T13:12:37.000Z</time>
</trkpt>
<trkpt lat="45.8467140" lon="9.2208980">
	<ele>535.60</ele>
	<time>2025-02-15T13:12:38.000Z</time>
</trkpt>
<trkpt lat="45.8467250" lon="9.2209040">
	<ele>535.60</ele>
	<time>2025-02-15T13:12:39.000Z</time>
</trkpt>
<trkpt lat="45.8467250" lon="9.2208990">
	<ele>535.40</ele>
	<time>2025-02-15T13:12:40.000Z</time>
</trkpt>
<trkpt lat="45.8467070" lon="9.2209100">
	<ele>535.40</ele>
	<time>2025-02-15T13:12:41.000Z</time>
</trkpt>
<trkpt lat="45.8466960" lon="9.2209170">
	<ele>535.20</ele>
	<time>2025-02-15T13:12:42.000Z</time>
</trkpt>
<trkpt lat="45.8466910" lon="9.2209220">
	<ele>535.20</ele>
	<time>2025-02-15T13:12:43.000Z</time>
</trkpt>
<trkpt lat="45.8467010" lon="9.2209260">
	<ele>535.00</ele>
	<time>2025-02-15T13:12:44.000Z</time>
</trkpt>
<trkpt lat="45.8467110" lon="9.2209410">
	<ele>535.00</ele>
	<time>2025-02-15T13:12:45.000Z</time>
</trkpt>
<trkpt lat="45.8467180" lon="9.2209630">
	<ele>535.00</ele>
	<time>2025-02-15T13:12:46.000Z</time>
</trkpt>
<trkpt lat="45.8467240" lon="9.2209850">
	<ele>534.80</ele>
	<time>2025-02-15T13:12:47.000Z</time>
</trkpt>
<trkpt lat="45.8467260" lon="9.2209940">
	<ele>534.80</ele>
	<time>2025-02-15T13:12:48.000Z</time>
</trkpt>
<trkpt lat="45.8467280" lon="9.2210080">
	<ele>534.80</ele>
	<time>2025-02-15T13:12:49.000Z</time>
</trkpt>
<trkpt lat="45.8467300" lon="9.2210260">
	<ele>534.80</ele>
	<time>2025-02-15T13:12:50.000Z</time>
</trkpt>
<trkpt lat="45.8467330" lon="9.2210440">
	<ele>534.60</ele>
	<time>2025-02-15T13:12:51.000Z</time>
</trkpt>
<trkpt lat="45.8467370" lon="9.2210650">
	<ele>534.40</ele>
	<time>2025-02-15T13:12:52.000Z</time>
</trkpt>
<trkpt lat="45.8467450" lon="9.2210820">
	<ele>534.20</ele>
	<time>2025-02-15T13:12:53.000Z</time>
</trkpt>
<trkpt lat="45.8467550" lon="9.2210960">
	<ele>534.00</ele>
	<time>2025-02-15T13:12:54.000Z</time>
</trkpt>
<trkpt lat="45.8467650" lon="9.2211070">
	<ele>534.00</ele>
	<time>2025-02-15T13:12:55.000Z</time>
</trkpt>
<trkpt lat="45.8467730" lon="9.2211180">
	<ele>533.80</ele>
	<time>2025-02-15T13:12:56.000Z</time>
</trkpt>
<trkpt lat="45.8467820" lon="9.2211300">
	<ele>533.60</ele>
	<time>2025-02-15T13:12:57.000Z</time>
</trkpt>
<trkpt lat="45.8467920" lon="9.2211500">
	<ele>533.60</ele>
	<time>2025-02-15T13:12:58.000Z</time>
</trkpt>
<trkpt lat="45.8467950" lon="9.2211710">
	<ele>533.40</ele>
	<time>2025-02-15T13:12:59.000Z</time>
</trkpt>
<trkpt lat="45.8467990" lon="9.2211860">
	<ele>533.40</ele>
	<time>2025-02-15T13:13:00.000Z</time>
</trkpt>
<trkpt lat="45.8468000" lon="9.2212010">
	<ele>533.20</ele>
	<time>2025-02-15T13:13:01.000Z</time>
</trkpt>
<trkpt lat="45.8468040" lon="9.2212200">
	<ele>533.20</ele>
	<time>2025-02-15T13:13:02.000Z</time>
</trkpt>
<trkpt lat="45.8468090" lon="9.2212360">
	<ele>533.00</ele>
	<time>2025-02-15T13:13:03.000Z</time>
</trkpt>
<trkpt lat="45.8468130" lon="9.2212510">
	<ele>533.00</ele>
	<time>2025-02-15T13:13:04.000Z</time>
</trkpt>
<trkpt lat="45.8468200" lon="9.2212680">
	<ele>532.80</ele>
	<time>2025-02-15T13:13:05.000Z</time>
</trkpt>
<trkpt lat="45.8468240" lon="9.2212820">
	<ele>532.60</ele>
	<time>2025-02-15T13:13:06.000Z</time>
</trkpt>
<trkpt lat="45.8468250" lon="9.2212980">
	<ele>532.60</ele>
	<time>2025-02-15T13:13:07.000Z</time>
</trkpt>
<trkpt lat="45.8468230" lon="9.2213200">
	<ele>532.40</ele>
	<time>2025-02-15T13:13:08.000Z</time>
</trkpt>
<trkpt lat="45.8468220" lon="9.2213340">
	<ele>532.20</ele>
	<time>2025-02-15T13:13:09.000Z</time>
</trkpt>
<trkpt lat="45.8468270" lon="9.2213440">
	<ele>532.20</ele>
	<time>2025-02-15T13:13:10.000Z</time>
</trkpt>
<trkpt lat="45.8468300" lon="9.2213610">
	<ele>532.00</ele>
	<time>2025-02-15T13:13:11.000Z</time>
</trkpt>
<trkpt lat="45.8468320" lon="9.2213720">
	<ele>531.80</ele>
	<time>2025-02-15T13:13:12.000Z</time>
</trkpt>
<trkpt lat="45.8468350" lon="9.2213870">
	<ele>531.80</ele>
	<time>2025-02-15T13:13:13.000Z</time>
</trkpt>
<trkpt lat="45.8468390" lon="9.2214000">
	<ele>531.80</ele>
	<time>2025-02-15T13:13:14.000Z</time>
</trkpt>
<trkpt lat="45.8468360" lon="9.2214140">
	<ele>531.60</ele>
	<time>2025-02-15T13:13:15.000Z</time>
</trkpt>
<trkpt lat="45.8468370" lon="9.2214270">
	<ele>531.60</ele>
	<time>2025-02-15T13:13:16.000Z</time>
</trkpt>
<trkpt lat="45.8468420" lon="9.2214460">
	<ele>531.40</ele>
	<time>2025-02-15T13:13:17.000Z</time>
</trkpt>
<trkpt lat="45.8468450" lon="9.2214650">
	<ele>531.40</ele>
	<time>2025-02-15T13:13:18.000Z</time>
</trkpt>
<trkpt lat="45.8468480" lon="9.2214820">
	<ele>531.40</ele>
	<time>2025-02-15T13:13:19.000Z</time>
</trkpt>
<trkpt lat="45.8468530" lon="9.2215000">
	<ele>531.20</ele>
	<time>2025-02-15T13:13:20.000Z</time>
</trkpt>
<trkpt lat="45.8468580" lon="9.2215140">
	<ele>531.00</ele>
	<time>2025-02-15T13:13:21.000Z</time>
</trkpt>
<trkpt lat="45.8468610" lon="9.2215270">
	<ele>530.80</ele>
	<time>2025-02-15T13:13:22.000Z</time>
</trkpt>
<trkpt lat="45.8468660" lon="9.2215440">
	<ele>530.80</ele>
	<time>2025-02-15T13:13:23.000Z</time>
</trkpt>
<trkpt lat="45.8468700" lon="9.2215650">
	<ele>530.60</ele>
	<time>2025-02-15T13:13:24.000Z</time>
</trkpt>
<trkpt lat="45.8468660" lon="9.2215790">
	<ele>530.40</ele>
	<time>2025-02-15T13:13:25.000Z</time>
</trkpt>
<trkpt lat="45.8468620" lon="9.2215830">
	<ele>530.20</ele>
	<time>2025-02-15T13:13:26.000Z</time>
</trkpt>
<trkpt lat="45.8468560" lon="9.2215890">
	<ele>530.00</ele>
	<time>2025-02-15T13:13:27.000Z</time>
</trkpt>
<trkpt lat="45.8468550" lon="9.2216060">
	<ele>530.00</ele>
	<time>2025-02-15T13:13:28.000Z</time>
</trkpt>
<trkpt lat="45.8468490" lon="9.2216220">
	<ele>529.80</ele>
	<time>2025-02-15T13:13:29.000Z</time>
</trkpt>
<trkpt lat="45.8468560" lon="9.2216350">
	<ele>529.60</ele>
	<time>2025-02-15T13:13:30.000Z</time>
</trkpt>
<trkpt lat="45.8468590" lon="9.2216450">
	<ele>529.60</ele>
	<time>2025-02-15T13:13:31.000Z</time>
</trkpt>
<trkpt lat="45.8468510" lon="9.2216690">
	<ele>529.40</ele>
	<time>2025-02-15T13:13:32.000Z</time>
</trkpt>
<trkpt lat="45.8468490" lon="9.2216860">
	<ele>529.20</ele>
	<time>2025-02-15T13:13:33.000Z</time>
</trkpt>
<trkpt lat="45.8468490" lon="9.2217030">
	<ele>529.20</ele>
	<time>2025-02-15T13:13:34.000Z</time>
</trkpt>
<trkpt lat="45.8468480" lon="9.2217240">
	<ele>529.00</ele>
	<time>2025-02-15T13:13:35.000Z</time>
</trkpt>
<trkpt lat="45.8468480" lon="9.2217390">
	<ele>528.80</ele>
	<time>2025-02-15T13:13:36.000Z</time>
</trkpt>
<trkpt lat="45.8468470" lon="9.2217520">
	<ele>528.80</ele>
	<time>2025-02-15T13:13:37.000Z</time>
</trkpt>
<trkpt lat="45.8468420" lon="9.2217690">
	<ele>528.40</ele>
	<time>2025-02-15T13:13:38.000Z</time>
</trkpt>
<trkpt lat="45.8468340" lon="9.2217840">
	<ele>528.20</ele>
	<time>2025-02-15T13:13:39.000Z</time>
</trkpt>
<trkpt lat="45.8468280" lon="9.2218000">
	<ele>528.00</ele>
	<time>2025-02-15T13:13:40.000Z</time>
</trkpt>
<trkpt lat="45.8468250" lon="9.2218220">
	<ele>527.80</ele>
	<time>2025-02-15T13:13:41.000Z</time>
</trkpt>
<trkpt lat="45.8468250" lon="9.2218450">
	<ele>527.60</ele>
	<time>2025-02-15T13:13:42.000Z</time>
</trkpt>
<trkpt lat="45.8468270" lon="9.2218580">
	<ele>527.60</ele>
	<time>2025-02-15T13:13:43.000Z</time>
</trkpt>
<trkpt lat="45.8468240" lon="9.2218730">
	<ele>527.40</ele>
	<time>2025-02-15T13:13:44.000Z</time>
</trkpt>
<trkpt lat="45.8468230" lon="9.2218890">
	<ele>527.20</ele>
	<time>2025-02-15T13:13:45.000Z</time>
</trkpt>
<trkpt lat="45.8468210" lon="9.2219030">
	<ele>527.00</ele>
	<time>2025-02-15T13:13:46.000Z</time>
</trkpt>
<trkpt lat="45.8468140" lon="9.2219110">
	<ele>527.00</ele>
	<time>2025-02-15T13:13:47.000Z</time>
</trkpt>
<trkpt lat="45.8468100" lon="9.2219230">
	<ele>526.80</ele>
	<time>2025-02-15T13:13:48.000Z</time>
</trkpt>
<trkpt lat="45.8468080" lon="9.2219350">
	<ele>526.60</ele>
	<time>2025-02-15T13:13:49.000Z</time>
</trkpt>
<trkpt lat="45.8468070" lon="9.2219460">
	<ele>526.60</ele>
	<time>2025-02-15T13:13:50.000Z</time>
</trkpt>
<trkpt lat="45.8468040" lon="9.2219600">
	<ele>526.40</ele>
	<time>2025-02-15T13:13:51.000Z</time>
</trkpt>
<trkpt lat="45.8468040" lon="9.2219750">
	<ele>526.20</ele>
	<time>2025-02-15T13:13:52.000Z</time>
</trkpt>
<trkpt lat="45.8468010" lon="9.2219910">
	<ele>526.00</ele>
	<time>2025-02-15T13:13:53.000Z</time>
</trkpt>
<trkpt lat="45.8467960" lon="9.2220050">
	<ele>525.60</ele>
	<time>2025-02-15T13:13:54.000Z</time>
</trkpt>
<trkpt lat="45.8467900" lon="9.2220170">
	<ele>525.40</ele>
	<time>2025-02-15T13:13:55.000Z</time>
</trkpt>
<trkpt lat="45.8467850" lon="9.2220300">
	<ele>525.20</ele>
	<time>2025-02-15T13:13:56.000Z</time>
</trkpt>
<trkpt lat="45.8467830" lon="9.2220440">
	<ele>525.00</ele>
	<time>2025-02-15T13:13:57.000Z</time>
</trkpt>
<trkpt lat="45.8467800" lon="9.2220570">
	<ele>524.80</ele>
	<time>2025-02-15T13:13:58.000Z</time>
</trkpt>
<trkpt lat="45.8467760" lon="9.2220720">
	<ele>524.60</ele>
	<time>2025-02-15T13:13:59.000Z</time>
</trkpt>
<trkpt lat="45.8467700" lon="9.2220850">
	<ele>524.40</ele>
	<time>2025-02-15T13:14:00.000Z</time>
</trkpt>
<trkpt lat="45.8467670" lon="9.2220990">
	<ele>524.20</ele>
	<time>2025-02-15T13:14:01.000Z</time>
</trkpt>
<trkpt lat="45.8467650" lon="9.2221090">
	<ele>524.00</ele>
	<time>2025-02-15T13:14:02.000Z</time>
</trkpt>
<trkpt lat="45.8467640" lon="9.2221190">
	<ele>523.80</ele>
	<time>2025-02-15T13:14:03.000Z</time>
</trkpt>
<trkpt lat="45.8467600" lon="9.2221300">
	<ele>523.80</ele>
	<time>2025-02-15T13:14:04.000Z</time>
</trkpt>
<trkpt lat="45.8467580" lon="9.2221440">
	<ele>523.60</ele>
	<time>2025-02-15T13:14:05.000Z</time>
</trkpt>
<trkpt lat="45.8467550" lon="9.2221570">
	<ele>523.60</ele>
	<time>2025-02-15T13:14:06.000Z</time>
</trkpt>
<trkpt lat="45.8467540" lon="9.2221730">
	<ele>523.40</ele>
	<time>2025-02-15T13:14:07.000Z</time>
</trkpt>
<trkpt lat="45.8467530" lon="9.2221880">
	<ele>523.40</ele>
	<time>2025-02-15T13:14:08.000Z</time>
</trkpt>
<trkpt lat="45.8467480" lon="9.2222020">
	<ele>523.20</ele>
	<time>2025-02-15T13:14:09.000Z</time>
</trkpt>
<trkpt lat="45.8467450" lon="9.2222170">
	<ele>523.20</ele>
	<time>2025-02-15T13:14:10.000Z</time>
</trkpt>
<trkpt lat="45.8467410" lon="9.2222300">
	<ele>523.00</ele>
	<time>2025-02-15T13:14:11.000Z</time>
</trkpt>
<trkpt lat="45.8467340" lon="9.2222420">
	<ele>523.00</ele>
	<time>2025-02-15T13:14:12.000Z</time>
</trkpt>
<trkpt lat="45.8467270" lon="9.2222530">
	<ele>522.80</ele>
	<time>2025-02-15T13:14:13.000Z</time>
</trkpt>
<trkpt lat="45.8467270" lon="9.2222640">
	<ele>522.80</ele>
	<time>2025-02-15T13:14:14.000Z</time>
</trkpt>
<trkpt lat="45.8467240" lon="9.2222660">
	<ele>522.80</ele>
	<time>2025-02-15T13:14:15.000Z</time>
</trkpt>
<trkpt lat="45.8467230" lon="9.2222660">
	<ele>522.60</ele>
	<time>2025-02-15T13:14:16.000Z</time>
</trkpt>
<trkpt lat="45.8467250" lon="9.2222720">
	<ele>522.60</ele>
	<time>2025-02-15T13:14:17.000Z</time>
</trkpt>
<trkpt lat="45.8467250" lon="9.2222810">
	<ele>522.60</ele>
	<time>2025-02-15T13:14:18.000Z</time>
</trkpt>
<trkpt lat="45.8467220" lon="9.2222940">
	<ele>522.40</ele>
	<time>2025-02-15T13:14:19.000Z</time>
</trkpt>
<trkpt lat="45.8467190" lon="9.2223070">
	<ele>522.20</ele>
	<time>2025-02-15T13:14:20.000Z</time>
</trkpt>
<trkpt lat="45.8467150" lon="9.2223210">
	<ele>522.00</ele>
	<time>2025-02-15T13:14:21.000Z</time>
</trkpt>
<trkpt lat="45.8467120" lon="9.2223350">
	<ele>521.80</ele>
	<time>2025-02-15T13:14:22.000Z</time>
</trkpt>
<trkpt lat="45.8467090" lon="9.2223500">
	<ele>521.80</ele>
	<time>2025-02-15T13:14:23.000Z</time>
</trkpt>
<trkpt lat="45.8467060" lon="9.2223670">
	<ele>521.60</ele>
	<time>2025-02-15T13:14:24.000Z</time>
</trkpt>
<trkpt lat="45.8467060" lon="9.2223860">
	<ele>521.40</ele>
	<time>2025-02-15T13:14:25.000Z</time>
</trkpt>
<trkpt lat="45.8467010" lon="9.2224030">
	<ele>521.40</ele>
	<time>2025-02-15T13:14:26.000Z</time>
</trkpt>
<trkpt lat="45.8466940" lon="9.2224170">
	<ele>521.20</ele>
	<time>2025-02-15T13:14:27.000Z</time>
</trkpt>
<trkpt lat="45.8466900" lon="9.2224330">
	<ele>521.20</ele>
	<time>2025-02-15T13:14:28.000Z</time>
</trkpt>
<trkpt lat="45.8466840" lon="9.2224550">
	<ele>521.20</ele>
	<time>2025-02-15T13:14:29.000Z</time>
</trkpt>
<trkpt lat="45.8466840" lon="9.2224750">
	<ele>521.00</ele>
	<time>2025-02-15T13:14:30.000Z</time>
</trkpt>
<trkpt lat="45.8466860" lon="9.2224930">
	<ele>520.80</ele>
	<time>2025-02-15T13:14:31.000Z</time>
</trkpt>
<trkpt lat="45.8466860" lon="9.2225130">
	<ele>520.80</ele>
	<time>2025-02-15T13:14:32.000Z</time>
</trkpt>
<trkpt lat="45.8466900" lon="9.2225270">
	<ele>520.80</ele>
	<time>2025-02-15T13:14:33.000Z</time>
</trkpt>
<trkpt lat="45.8466910" lon="9.2225450">
	<ele>520.60</ele>
	<time>2025-02-15T13:14:34.000Z</time>
</trkpt>
<trkpt lat="45.8466920" lon="9.2225650">
	<ele>520.60</ele>
	<time>2025-02-15T13:14:35.000Z</time>
</trkpt>
<trkpt lat="45.8466910" lon="9.2225790">
	<ele>520.60</ele>
	<time>2025-02-15T13:14:36.000Z</time>
</trkpt>
<trkpt lat="45.8466900" lon="9.2225950">
	<ele>520.60</ele>
	<time>2025-02-15T13:14:37.000Z</time>
</trkpt>
<trkpt lat="45.8466860" lon="9.2226080">
	<ele>520.60</ele>
	<time>2025-02-15T13:14:38.000Z</time>
</trkpt>
<trkpt lat="45.8466790" lon="9.2226230">
	<ele>520.60</ele>
	<time>2025-02-15T13:14:39.000Z</time>
</trkpt>
<trkpt lat="45.8466860" lon="9.2226470">
	<ele>520.60</ele>
	<time>2025-02-15T13:14:40.000Z</time>
</trkpt>
<trkpt lat="45.8466880" lon="9.2226630">
	<ele>520.60</ele>
	<time>2025-02-15T13:14:41.000Z</time>
</trkpt>
<trkpt lat="45.8466860" lon="9.2226870">
	<ele>520.60</ele>
	<time>2025-02-15T13:14:42.000Z</time>
</trkpt>
<trkpt lat="45.8466770" lon="9.2227090">
	<ele>520.60</ele>
	<time>2025-02-15T13:14:43.000Z</time>
</trkpt>
<trkpt lat="45.8466690" lon="9.2227300">
	<ele>520.60</ele>
	<time>2025-02-15T13:14:44.000Z</time>
</trkpt>
<trkpt lat="45.8466660" lon="9.2227420">
	<ele>520.60</ele>
	<time>2025-02-15T13:14:45.000Z</time>
</trkpt>
<trkpt lat="45.8466620" lon="9.2227620">
	<ele>520.60</ele>
	<time>2025-02-15T13:14:46.000Z</time>
</trkpt>
<trkpt lat="45.8466630" lon="9.2227760">
	<ele>520.80</ele>
	<time>2025-02-15T13:14:47.000Z</time>
</trkpt>
<trkpt lat="45.8466620" lon="9.2227870">
	<ele>520.80</ele>
	<time>2025-02-15T13:14:48.000Z</time>
</trkpt>
<trkpt lat="45.8466580" lon="9.2228020">
	<ele>520.80</ele>
	<time>2025-02-15T13:14:49.000Z</time>
</trkpt>
<trkpt lat="45.8466570" lon="9.2228160">
	<ele>520.80</ele>
	<time>2025-02-15T13:14:50.000Z</time>
</trkpt>
<trkpt lat="45.8466570" lon="9.2228310">
	<ele>520.80</ele>
	<time>2025-02-15T13:14:51.000Z</time>
</trkpt>
<trkpt lat="45.8466520" lon="9.2228460">
	<ele>521.00</ele>
	<time>2025-02-15T13:14:52.000Z</time>
</trkpt>
<trkpt lat="45.8466530" lon="9.2228640">
	<ele>521.00</ele>
	<time>2025-02-15T13:14:53.000Z</time>
</trkpt>
<trkpt lat="45.8466510" lon="9.2228790">
	<ele>521.00</ele>
	<time>2025-02-15T13:14:54.000Z</time>
</trkpt>
<trkpt lat="45.8466480" lon="9.2228930">
	<ele>521.00</ele>
	<time>2025-02-15T13:14:55.000Z</time>
</trkpt>
<trkpt lat="45.8466460" lon="9.2229060">
	<ele>521.20</ele>
	<time>2025-02-15T13:14:56.000Z</time>
</trkpt>
<trkpt lat="45.8466420" lon="9.2229170">
	<ele>521.20</ele>
	<time>2025-02-15T13:14:57.000Z</time>
</trkpt>
<trkpt lat="45.8466350" lon="9.2229270">
	<ele>521.20</ele>
	<time>2025-02-15T13:14:58.000Z</time>
</trkpt>
<trkpt lat="45.8466320" lon="9.2229410">
	<ele>521.20</ele>
	<time>2025-02-15T13:14:59.000Z</time>
</trkpt>
<trkpt lat="45.8466240" lon="9.2229520">
	<ele>521.00</ele>
	<time>2025-02-15T13:15:00.000Z</time>
</trkpt>
<trkpt lat="45.8466140" lon="9.2229590">
	<ele>520.60</ele>
	<time>2025-02-15T13:15:01.000Z</time>
</trkpt>
<trkpt lat="45.8466040" lon="9.2229700">
	<ele>520.40</ele>
	<time>2025-02-15T13:15:02.000Z</time>
</trkpt>
<trkpt lat="45.8465940" lon="9.2229800">
	<ele>520.20</ele>
	<time>2025-02-15T13:15:03.000Z</time>
</trkpt>
<trkpt lat="45.8465810" lon="9.2229840">
	<ele>519.80</ele>
	<time>2025-02-15T13:15:04.000Z</time>
</trkpt>
<trkpt lat="45.8465700" lon="9.2229930">
	<ele>519.60</ele>
	<time>2025-02-15T13:15:05.000Z</time>
</trkpt>
<trkpt lat="45.8465620" lon="9.2230040">
	<ele>519.20</ele>
	<time>2025-02-15T13:15:06.000Z</time>
</trkpt>
<trkpt lat="45.8465510" lon="9.2230050">
	<ele>519.20</ele>
	<time>2025-02-15T13:15:07.000Z</time>
</trkpt>
<trkpt lat="45.8465390" lon="9.2230130">
	<ele>518.80</ele>
	<time>2025-02-15T13:15:08.000Z</time>
</trkpt>
<trkpt lat="45.8465260" lon="9.2230240">
	<ele>518.80</ele>
	<time>2025-02-15T13:15:09.000Z</time>
</trkpt>
<trkpt lat="45.8465140" lon="9.2230340">
	<ele>518.80</ele>
	<time>2025-02-15T13:15:10.000Z</time>
</trkpt>
<trkpt lat="45.8465010" lon="9.2230380">
	<ele>518.60</ele>
	<time>2025-02-15T13:15:11.000Z</time>
</trkpt>
<trkpt lat="45.8464880" lon="9.2230440">
	<ele>518.60</ele>
	<time>2025-02-15T13:15:12.000Z</time>
</trkpt>
<trkpt lat="45.8464730" lon="9.2230460">
	<ele>518.60</ele>
	<time>2025-02-15T13:15:13.000Z</time>
</trkpt>
<trkpt lat="45.8464540" lon="9.2230320">
	<ele>518.60</ele>
	<time>2025-02-15T13:15:14.000Z</time>
</trkpt>
<trkpt lat="45.8464440" lon="9.2230440">
	<ele>518.60</ele>
	<time>2025-02-15T13:15:15.000Z</time>
</trkpt>
<trkpt lat="45.8464410" lon="9.2230500">
	<ele>518.60</ele>
	<time>2025-02-15T13:15:16.000Z</time>
</trkpt>
<trkpt lat="45.8464260" lon="9.2230600">
	<ele>518.40</ele>
	<time>2025-02-15T13:15:17.000Z</time>
</trkpt>
<trkpt lat="45.8464080" lon="9.2230700">
	<ele>518.40</ele>
	<time>2025-02-15T13:15:18.000Z</time>
</trkpt>
<trkpt lat="45.8463990" lon="9.2230800">
	<ele>518.40</ele>
	<time>2025-02-15T13:15:19.000Z</time>
</trkpt>
<trkpt lat="45.8463910" lon="9.2230870">
	<ele>518.20</ele>
	<time>2025-02-15T13:15:20.000Z</time>
</trkpt>
<trkpt lat="45.8463770" lon="9.2230930">
	<ele>518.20</ele>
	<time>2025-02-15T13:15:21.000Z</time>
</trkpt>
<trkpt lat="45.8463670" lon="9.2230960">
	<ele>518.00</ele>
	<time>2025-02-15T13:15:22.000Z</time>
</trkpt>
<trkpt lat="45.8463570" lon="9.2231070">
	<ele>518.00</ele>
	<time>2025-02-15T13:15:23.000Z</time>
</trkpt>
<trkpt lat="45.8463430" lon="9.2231220">
	<ele>517.80</ele>
	<time>2025-02-15T13:15:24.000Z</time>
</trkpt>
<trkpt lat="45.8463390" lon="9.2231540">
	<ele>517.80</ele>
	<time>2025-02-15T13:15:25.000Z</time>
</trkpt>
<trkpt lat="45.8463270" lon="9.2231790">
	<ele>517.60</ele>
	<time>2025-02-15T13:15:26.000Z</time>
</trkpt>
<trkpt lat="45.8463010" lon="9.2231750">
	<ele>517.60</ele>
	<time>2025-02-15T13:15:27.000Z</time>
</trkpt>
<trkpt lat="45.8462810" lon="9.2231770">
	<ele>517.60</ele>
	<time>2025-02-15T13:15:28.000Z</time>
</trkpt>
<trkpt lat="45.8462630" lon="9.2231850">
	<ele>517.40</ele>
	<time>2025-02-15T13:15:29.000Z</time>
</trkpt>
<trkpt lat="45.8462310" lon="9.2231800">
	<ele>517.20</ele>
	<time>2025-02-15T13:15:30.000Z</time>
</trkpt>
<trkpt lat="45.8462060" lon="9.2231660">
	<ele>517.00</ele>
	<time>2025-02-15T13:15:31.000Z</time>
</trkpt>
<trkpt lat="45.8461840" lon="9.2231590">
	<ele>516.80</ele>
	<time>2025-02-15T13:15:32.000Z</time>
</trkpt>
<trkpt lat="45.8461720" lon="9.2231680">
	<ele>516.40</ele>
	<time>2025-02-15T13:15:33.000Z</time>
</trkpt>
<trkpt lat="45.8461620" lon="9.2231750">
	<ele>516.20</ele>
	<time>2025-02-15T13:15:34.000Z</time>
</trkpt>
<trkpt lat="45.8461570" lon="9.2231900">
	<ele>516.00</ele>
	<time>2025-02-15T13:15:35.000Z</time>
</trkpt>
<trkpt lat="45.8461500" lon="9.2232010">
	<ele>516.00</ele>
	<time>2025-02-15T13:15:36.000Z</time>
</trkpt>
<trkpt lat="45.8461400" lon="9.2232140">
	<ele>516.00</ele>
	<time>2025-02-15T13:15:37.000Z</time>
</trkpt>
<trkpt lat="45.8461310" lon="9.2232180">
	<ele>515.80</ele>
	<time>2025-02-15T13:15:38.000Z</time>
</trkpt>
<trkpt lat="45.8461210" lon="9.2232220">
	<ele>515.60</ele>
	<time>2025-02-15T13:15:39.000Z</time>
</trkpt>
<trkpt lat="45.8461070" lon="9.2232330">
	<ele>515.60</ele>
	<time>2025-02-15T13:15:40.000Z</time>
</trkpt>
<trkpt lat="45.8460990" lon="9.2232510">
	<ele>515.40</ele>
	<time>2025-02-15T13:15:41.000Z</time>
</trkpt>
<trkpt lat="45.8460960" lon="9.2232630">
	<ele>515.40</ele>
	<time>2025-02-15T13:15:42.000Z</time>
</trkpt>
<trkpt lat="45.8460890" lon="9.2232780">
	<ele>515.20</ele>
	<time>2025-02-15T13:15:43.000Z</time>
</trkpt>
<trkpt lat="45.8460910" lon="9.2232980">
	<ele>515.20</ele>
	<time>2025-02-15T13:15:44.000Z</time>
</trkpt>
<trkpt lat="45.8460810" lon="9.2233140">
	<ele>515.00</ele>
	<time>2025-02-15T13:15:45.000Z</time>
</trkpt>
<trkpt lat="45.8460680" lon="9.2233280">
	<ele>515.00</ele>
	<time>2025-02-15T13:15:46.000Z</time>
</trkpt>
<trkpt lat="45.8460590" lon="9.2233390">
	<ele>514.80</ele>
	<time>2025-02-15T13:15:47.000Z</time>
</trkpt>
<trkpt lat="45.8460470" lon="9.2233490">
	<ele>514.60</ele>
	<time>2025-02-15T13:15:48.000Z</time>
</trkpt>
<trkpt lat="45.8460320" lon="9.2233630">
	<ele>514.60</ele>
	<time>2025-02-15T13:15:49.000Z</time>
</trkpt>
<trkpt lat="45.8460170" lon="9.2233730">
	<ele>514.40</ele>
	<time>2025-02-15T13:15:50.000Z</time>
</trkpt>
<trkpt lat="45.8460020" lon="9.2233810">
	<ele>514.40</ele>
	<time>2025-02-15T13:15:51.000Z</time>
</trkpt>
<trkpt lat="45.8459950" lon="9.2233940">
	<ele>514.20</ele>
	<time>2025-02-15T13:15:52.000Z</time>
</trkpt>
<trkpt lat="45.8459840" lon="9.2234100">
	<ele>514.00</ele>
	<time>2025-02-15T13:15:53.000Z</time>
</trkpt>
<trkpt lat="45.8459780" lon="9.2234250">
	<ele>513.80</ele>
	<time>2025-02-15T13:15:54.000Z</time>
</trkpt>
<trkpt lat="45.8459680" lon="9.2234350">
	<ele>513.60</ele>
	<time>2025-02-15T13:15:55.000Z</time>
</trkpt>
<trkpt lat="45.8459590" lon="9.2234470">
	<ele>513.60</ele>
	<time>2025-02-15T13:15:56.000Z</time>
</trkpt>
<trkpt lat="45.8459470" lon="9.2234610">
	<ele>513.40</ele>
	<time>2025-02-15T13:15:57.000Z</time>
</trkpt>
<trkpt lat="45.8459350" lon="9.2234760">
	<ele>513.20</ele>
	<time>2025-02-15T13:15:58.000Z</time>
</trkpt>
<trkpt lat="45.8459260" lon="9.2234880">
	<ele>513.20</ele>
	<time>2025-02-15T13:15:59.000Z</time>
</trkpt>
<trkpt lat="45.8459200" lon="9.2234970">
	<ele>513.00</ele>
	<time>2025-02-15T13:16:00.000Z</time>
</trkpt>
<trkpt lat="45.8459150" lon="9.2235080">
	<ele>513.00</ele>
	<time>2025-02-15T13:16:01.000Z</time>
</trkpt>
<trkpt lat="45.8459090" lon="9.2235190">
	<ele>512.80</ele>
	<time>2025-02-15T13:16:02.000Z</time>
</trkpt>
<trkpt lat="45.8459020" lon="9.2235310">
	<ele>512.80</ele>
	<time>2025-02-15T13:16:03.000Z</time>
</trkpt>
<trkpt lat="45.8458900" lon="9.2235460">
	<ele>512.60</ele>
	<time>2025-02-15T13:16:04.000Z</time>
</trkpt>
<trkpt lat="45.8458740" lon="9.2235560">
	<ele>512.60</ele>
	<time>2025-02-15T13:16:05.000Z</time>
</trkpt>
<trkpt lat="45.8458600" lon="9.2235660">
	<ele>512.40</ele>
	<time>2025-02-15T13:16:06.000Z</time>
</trkpt>
<trkpt lat="45.8458460" lon="9.2235810">
	<ele>512.40</ele>
	<time>2025-02-15T13:16:07.000Z</time>
</trkpt>
<trkpt lat="45.8458370" lon="9.2235940">
	<ele>512.40</ele>
	<time>2025-02-15T13:16:08.000Z</time>
</trkpt>
<trkpt lat="45.8458340" lon="9.2235990">
	<ele>512.00</ele>
	<time>2025-02-15T13:16:09.000Z</time>
</trkpt>
<trkpt lat="45.8458360" lon="9.2235950">
	<ele>511.80</ele>
	<time>2025-02-15T13:16:10.000Z</time>
</trkpt>
<trkpt lat="45.8458400" lon="9.2235860">
	<ele>511.80</ele>
	<time>2025-02-15T13:16:11.000Z</time>
</trkpt>
<trkpt lat="45.8458460" lon="9.2235750">
	<ele>511.60</ele>
	<time>2025-02-15T13:16:12.000Z</time>
</trkpt>
<trkpt lat="45.8458540" lon="9.2235690">
	<ele>511.60</ele>
	<time>2025-02-15T13:16:13.000Z</time>
</trkpt>
<trkpt lat="45.8458690" lon="9.2235690">
	<ele>511.60</ele>
	<time>2025-02-15T13:16:14.000Z</time>
</trkpt>
<trkpt lat="45.8458760" lon="9.2235690">
	<ele>511.80</ele>
	<time>2025-02-15T13:16:15.000Z</time>
</trkpt>
<trkpt lat="45.8458800" lon="9.2235840">
	<ele>511.80</ele>
	<time>2025-02-15T13:16:16.000Z</time>
</trkpt>
<trkpt lat="45.8458850" lon="9.2236050">
	<ele>512.00</ele>
	<time>2025-02-15T13:16:17.000Z</time>
</trkpt>
<trkpt lat="45.8458850" lon="9.2236050">
	<ele>512.00</ele>
	<time>2025-02-15T13:16:18.000Z</time>
</trkpt>
<trkpt lat="45.8459030" lon="9.2235980">
	<ele>512.20</ele>
	<time>2025-02-15T13:16:19.000Z</time>
</trkpt>
<trkpt lat="45.8459060" lon="9.2235900">
	<ele>512.20</ele>
	<time>2025-02-15T13:16:20.000Z</time>
</trkpt>
<trkpt lat="45.8459070" lon="9.2235930">
	<ele>512.40</ele>
	<time>2025-02-15T13:16:21.000Z</time>
</trkpt>
<trkpt lat="45.8458960" lon="9.2236060">
	<ele>512.40</ele>
	<time>2025-02-15T13:16:22.000Z</time>
</trkpt>
<trkpt lat="45.8458840" lon="9.2236150">
	<ele>512.40</ele>
	<time>2025-02-15T13:16:23.000Z</time>
</trkpt>
<trkpt lat="45.8458730" lon="9.2236200">
	<ele>512.00</ele>
	<time>2025-02-15T13:16:24.000Z</time>
</trkpt>
<trkpt lat="45.8458640" lon="9.2236300">
	<ele>511.60</ele>
	<time>2025-02-15T13:16:25.000Z</time>
</trkpt>
<trkpt lat="45.8458550" lon="9.2236440">
	<ele>511.40</ele>
	<time>2025-02-15T13:16:26.000Z</time>
</trkpt>
<trkpt lat="45.8458400" lon="9.2236520">
	<ele>511.20</ele>
	<time>2025-02-15T13:16:27.000Z</time>
</trkpt>
<trkpt lat="45.8458240" lon="9.2236610">
	<ele>511.20</ele>
	<time>2025-02-15T13:16:28.000Z</time>
</trkpt>
<trkpt lat="45.8458130" lon="9.2236730">
	<ele>511.20</ele>
	<time>2025-02-15T13:16:29.000Z</time>
</trkpt>
<trkpt lat="45.8458040" lon="9.2236940">
	<ele>511.40</ele>
	<time>2025-02-15T13:16:30.000Z</time>
</trkpt>
<trkpt lat="45.8457950" lon="9.2237120">
	<ele>511.40</ele>
	<time>2025-02-15T13:16:31.000Z</time>
</trkpt>
<trkpt lat="45.8457880" lon="9.2237290">
	<ele>511.40</ele>
	<time>2025-02-15T13:16:32.000Z</time>
</trkpt>
<trkpt lat="45.8457810" lon="9.2237380">
	<ele>511.60</ele>
	<time>2025-02-15T13:16:33.000Z</time>
</trkpt>
<trkpt lat="45.8457690" lon="9.2237550">
	<ele>511.40</ele>
	<time>2025-02-15T13:16:34.000Z</time>
</trkpt>
<trkpt lat="45.8457620" lon="9.2237660">
	<ele>511.20</ele>
	<time>2025-02-15T13:16:35.000Z</time>
</trkpt>
<trkpt lat="45.8457510" lon="9.2237750">
	<ele>511.00</ele>
	<time>2025-02-15T13:16:36.000Z</time>
</trkpt>
<trkpt lat="45.8457400" lon="9.2237850">
	<ele>511.00</ele>
	<time>2025-02-15T13:16:37.000Z</time>
</trkpt>
<trkpt lat="45.8457270" lon="9.2237950">
	<ele>510.80</ele>
	<time>2025-02-15T13:16:38.000Z</time>
</trkpt>
<trkpt lat="45.8457140" lon="9.2238040">
	<ele>510.80</ele>
	<time>2025-02-15T13:16:39.000Z</time>
</trkpt>
<trkpt lat="45.8456990" lon="9.2238180">
	<ele>510.80</ele>
	<time>2025-02-15T13:16:40.000Z</time>
</trkpt>
<trkpt lat="45.8456870" lon="9.2238290">
	<ele>510.60</ele>
	<time>2025-02-15T13:16:41.000Z</time>
</trkpt>
<trkpt lat="45.8456780" lon="9.2238440">
	<ele>510.60</ele>
	<time>2025-02-15T13:16:42.000Z</time>
</trkpt>
<trkpt lat="45.8456680" lon="9.2238610">
	<ele>510.40</ele>
	<time>2025-02-15T13:16:43.000Z</time>
</trkpt>
<trkpt lat="45.8456550" lon="9.2238800">
	<ele>510.40</ele>
	<time>2025-02-15T13:16:44.000Z</time>
</trkpt>
<trkpt lat="45.8456440" lon="9.2238960">
	<ele>510.20</ele>
	<time>2025-02-15T13:16:45.000Z</time>
</trkpt>
<trkpt lat="45.8456350" lon="9.2239100">
	<ele>510.20</ele>
	<time>2025-02-15T13:16:46.000Z</time>
</trkpt>
<trkpt lat="45.8456220" lon="9.2239190">
	<ele>510.20</ele>
	<time>2025-02-15T13:16:47.000Z</time>
</trkpt>
<trkpt lat="45.8456130" lon="9.2239250">
	<ele>510.20</ele>
	<time>2025-02-15T13:16:48.000Z</time>
</trkpt>
<trkpt lat="45.8456050" lon="9.2239330">
	<ele>510.00</ele>
	<time>2025-02-15T13:16:49.000Z</time>
</trkpt>
<trkpt lat="45.8455980" lon="9.2239400">
	<ele>510.00</ele>
	<time>2025-02-15T13:16:50.000Z</time>
</trkpt>
<trkpt lat="45.8455910" lon="9.2239450">
	<ele>510.00</ele>
	<time>2025-02-15T13:16:51.000Z</time>
</trkpt>
<trkpt lat="45.8455790" lon="9.2239500">
	<ele>509.80</ele>
	<time>2025-02-15T13:16:52.000Z</time>
</trkpt>
<trkpt lat="45.8455650" lon="9.2239600">
	<ele>509.60</ele>
	<time>2025-02-15T13:16:53.000Z</time>
</trkpt>
<trkpt lat="45.8455560" lon="9.2239730">
	<ele>509.60</ele>
	<time>2025-02-15T13:16:54.000Z</time>
</trkpt>
<trkpt lat="45.8455530" lon="9.2239820">
	<ele>509.60</ele>
	<time>2025-02-15T13:16:55.000Z</time>
</trkpt>
<trkpt lat="45.8455460" lon="9.2239900">
	<ele>509.40</ele>
	<time>2025-02-15T13:16:56.000Z</time>
</trkpt>
<trkpt lat="45.8455410" lon="9.2239860">
	<ele>509.40</ele>
	<time>2025-02-15T13:16:57.000Z</time>
</trkpt>
<trkpt lat="45.8455320" lon="9.2239810">
	<ele>509.40</ele>
	<time>2025-02-15T13:16:58.000Z</time>
</trkpt>
<trkpt lat="45.8455340" lon="9.2239810">
	<ele>509.40</ele>
	<time>2025-02-15T13:16:59.000Z</time>
</trkpt>
<trkpt lat="45.8455350" lon="9.2239840">
	<ele>509.20</ele>
	<time>2025-02-15T13:17:00.000Z</time>
</trkpt>
<trkpt lat="45.8455370" lon="9.2239840">
	<ele>509.20</ele>
	<time>2025-02-15T13:17:01.000Z</time>
</trkpt>
<trkpt lat="45.8455340" lon="9.2239730">
	<ele>509.20</ele>
	<time>2025-02-15T13:17:02.000Z</time>
</trkpt>
<trkpt lat="45.8455340" lon="9.2239730">
	<ele>509.40</ele>
	<time>2025-02-15T13:17:03.000Z</time>
</trkpt>
<trkpt lat="45.8455310" lon="9.2239770">
	<ele>509.40</ele>
	<time>2025-02-15T13:17:04.000Z</time>
</trkpt>
<trkpt lat="45.8455290" lon="9.2239790">
	<ele>509.40</ele>
	<time>2025-02-15T13:17:05.000Z</time>
</trkpt>
<trkpt lat="45.8455270" lon="9.2239800">
	<ele>509.40</ele>
	<time>2025-02-15T13:17:06.000Z</time>
</trkpt>
<trkpt lat="45.8455240" lon="9.2239780">
	<ele>509.40</ele>
	<time>2025-02-15T13:17:07.000Z</time>
</trkpt>
<trkpt lat="45.8455200" lon="9.2239720">
	<ele>509.40</ele>
	<time>2025-02-15T13:17:08.000Z</time>
</trkpt>
<trkpt lat="45.8455130" lon="9.2239730">
	<ele>509.40</ele>
	<time>2025-02-15T13:17:09.000Z</time>
</trkpt>
<trkpt lat="45.8455070" lon="9.2239790">
	<ele>509.40</ele>
	<time>2025-02-15T13:17:10.000Z</time>
</trkpt>
<trkpt lat="45.8454990" lon="9.2239870">
	<ele>509.40</ele>
	<time>2025-02-15T13:17:11.000Z</time>
</trkpt>
<trkpt lat="45.8454910" lon="9.2239990">
	<ele>509.20</ele>
	<time>2025-02-15T13:17:12.000Z</time>
</trkpt>
<trkpt lat="45.8454800" lon="9.2240040">
	<ele>509.20</ele>
	<time>2025-02-15T13:17:13.000Z</time>
</trkpt>
<trkpt lat="45.8454660" lon="9.2240070">
	<ele>509.00</ele>
	<time>2025-02-15T13:17:14.000Z</time>
</trkpt>
<trkpt lat="45.8454510" lon="9.2240090">
	<ele>508.80</ele>
	<time>2025-02-15T13:17:15.000Z</time>
</trkpt>
<trkpt lat="45.8454390" lon="9.2240140">
	<ele>508.80</ele>
	<time>2025-02-15T13:17:16.000Z</time>
</trkpt>
<trkpt lat="45.8454270" lon="9.2240180">
	<ele>508.80</ele>
	<time>2025-02-15T13:17:17.000Z</time>
</trkpt>
<trkpt lat="45.8454150" lon="9.2240200">
	<ele>508.60</ele>
	<time>2025-02-15T13:17:18.000Z</time>
</trkpt>
<trkpt lat="45.8454010" lon="9.2240190">
	<ele>508.60</ele>
	<time>2025-02-15T13:17:19.000Z</time>
</trkpt>
<trkpt lat="45.8453850" lon="9.2240160">
	<ele>508.60</ele>
	<time>2025-02-15T13:17:20.000Z</time>
</trkpt>
<trkpt lat="45.8453740" lon="9.2240240">
	<ele>508.40</ele>
	<time>2025-02-15T13:17:21.000Z</time>
</trkpt>
<trkpt lat="45.8453630" lon="9.2240350">
	<ele>508.20</ele>
	<time>2025-02-15T13:17:22.000Z</time>
</trkpt>
<trkpt lat="45.8453520" lon="9.2240450">
	<ele>508.00</ele>
	<time>2025-02-15T13:17:23.000Z</time>
</trkpt>
<trkpt lat="45.8453410" lon="9.2240500">
	<ele>507.60</ele>
	<time>2025-02-15T13:17:24.000Z</time>
</trkpt>
<trkpt lat="45.8453280" lon="9.2240530">
	<ele>507.60</ele>
	<time>2025-02-15T13:17:25.000Z</time>
</trkpt>
<trkpt lat="45.8453190" lon="9.2240610">
	<ele>507.40</ele>
	<time>2025-02-15T13:17:26.000Z</time>
</trkpt>
<trkpt lat="45.8453090" lon="9.2240630">
	<ele>507.20</ele>
	<time>2025-02-15T13:17:27.000Z</time>
</trkpt>
<trkpt lat="45.8453010" lon="9.2240660">
	<ele>507.20</ele>
	<time>2025-02-15T13:17:28.000Z</time>
</trkpt>
<trkpt lat="45.8452980" lon="9.2240730">
	<ele>507.20</ele>
	<time>2025-02-15T13:17:29.000Z</time>
</trkpt>
<trkpt lat="45.8452900" lon="9.2240720">
	<ele>507.20</ele>
	<time>2025-02-15T13:17:30.000Z</time>
</trkpt>
<trkpt lat="45.8452760" lon="9.2240740">
	<ele>507.00</ele>
	<time>2025-02-15T13:17:31.000Z</time>
</trkpt>
<trkpt lat="45.8452590" lon="9.2240780">
	<ele>507.00</ele>
	<time>2025-02-15T13:17:32.000Z</time>
</trkpt>
<trkpt lat="45.8452430" lon="9.2240810">
	<ele>506.80</ele>
	<time>2025-02-15T13:17:33.000Z</time>
</trkpt>
<trkpt lat="45.8452290" lon="9.2240770">
	<ele>506.60</ele>
	<time>2025-02-15T13:17:34.000Z</time>
</trkpt>
<trkpt lat="45.8452150" lon="9.2240760">
	<ele>506.20</ele>
	<time>2025-02-15T13:17:35.000Z</time>
</trkpt>
<trkpt lat="45.8451980" lon="9.2240730">
	<ele>506.00</ele>
	<time>2025-02-15T13:17:36.000Z</time>
</trkpt>
<trkpt lat="45.8451910" lon="9.2240780">
	<ele>506.00</ele>
	<time>2025-02-15T13:17:37.000Z</time>
</trkpt>
<trkpt lat="45.8451870" lon="9.2240830">
	<ele>506.00</ele>
	<time>2025-02-15T13:17:38.000Z</time>
</trkpt>
<trkpt lat="45.8451820" lon="9.2240940">
	<ele>505.80</ele>
	<time>2025-02-15T13:17:39.000Z</time>
</trkpt>
<trkpt lat="45.8451710" lon="9.2241000">
	<ele>505.80</ele>
	<time>2025-02-15T13:17:40.000Z</time>
</trkpt>
<trkpt lat="45.8451640" lon="9.2241130">
	<ele>505.80</ele>
	<time>2025-02-15T13:17:41.000Z</time>
</trkpt>
<trkpt lat="45.8451580" lon="9.2241240">
	<ele>505.60</ele>
	<time>2025-02-15T13:17:42.000Z</time>
</trkpt>
<trkpt lat="45.8451490" lon="9.2241300">
	<ele>505.60</ele>
	<time>2025-02-15T13:17:43.000Z</time>
</trkpt>
<trkpt lat="45.8451390" lon="9.2241310">
	<ele>505.40</ele>
	<time>2025-02-15T13:17:44.000Z</time>
</trkpt>
<trkpt lat="45.8451300" lon="9.2241400">
	<ele>505.40</ele>
	<time>2025-02-15T13:17:45.000Z</time>
</trkpt>
<trkpt lat="45.8451190" lon="9.2241480">
	<ele>505.20</ele>
	<time>2025-02-15T13:17:46.000Z</time>
</trkpt>
<trkpt lat="45.8451070" lon="9.2241570">
	<ele>505.00</ele>
	<time>2025-02-15T13:17:47.000Z</time>
</trkpt>
<trkpt lat="45.8450980" lon="9.2241610">
	<ele>505.00</ele>
	<time>2025-02-15T13:17:48.000Z</time>
</trkpt>
<trkpt lat="45.8450850" lon="9.2241630">
	<ele>505.00</ele>
	<time>2025-02-15T13:17:49.000Z</time>
</trkpt>
<trkpt lat="45.8450700" lon="9.2241630">
	<ele>504.80</ele>
	<time>2025-02-15T13:17:50.000Z</time>
</trkpt>
<trkpt lat="45.8450570" lon="9.2241610">
	<ele>504.80</ele>
	<time>2025-02-15T13:17:51.000Z</time>
</trkpt>
<trkpt lat="45.8450470" lon="9.2241590">
	<ele>504.60</ele>
	<time>2025-02-15T13:17:52.000Z</time>
</trkpt>
<trkpt lat="45.8450400" lon="9.2241640">
	<ele>504.60</ele>
	<time>2025-02-15T13:17:53.000Z</time>
</trkpt>
<trkpt lat="45.8450300" lon="9.2241670">
	<ele>504.40</ele>
	<time>2025-02-15T13:17:54.000Z</time>
</trkpt>
<trkpt lat="45.8450200" lon="9.2241710">
	<ele>504.20</ele>
	<time>2025-02-15T13:17:55.000Z</time>
</trkpt>
<trkpt lat="45.8450090" lon="9.2241720">
	<ele>503.80</ele>
	<time>2025-02-15T13:17:56.000Z</time>
</trkpt>
<trkpt lat="45.8449970" lon="9.2241680">
	<ele>503.60</ele>
	<time>2025-02-15T13:17:57.000Z</time>
</trkpt>
<trkpt lat="45.8449830" lon="9.2241690">
	<ele>503.40</ele>
	<time>2025-02-15T13:17:58.000Z</time>
</trkpt>
<trkpt lat="45.8449680" lon="9.2241680">
	<ele>503.20</ele>
	<time>2025-02-15T13:17:59.000Z</time>
</trkpt>
<trkpt lat="45.8449590" lon="9.2241720">
	<ele>503.20</ele>
	<time>2025-02-15T13:18:00.000Z</time>
</trkpt>
<trkpt lat="45.8449500" lon="9.2241780">
	<ele>502.80</ele>
	<time>2025-02-15T13:18:01.000Z</time>
</trkpt>
<trkpt lat="45.8449410" lon="9.2241830">
	<ele>502.80</ele>
	<time>2025-02-15T13:18:02.000Z</time>
</trkpt>
<trkpt lat="45.8449290" lon="9.2241910">
	<ele>502.60</ele>
	<time>2025-02-15T13:18:03.000Z</time>
</trkpt>
<trkpt lat="45.8449170" lon="9.2241950">
	<ele>502.60</ele>
	<time>2025-02-15T13:18:04.000Z</time>
</trkpt>
<trkpt lat="45.8449040" lon="9.2241980">
	<ele>502.40</ele>
	<time>2025-02-15T13:18:05.000Z</time>
</trkpt>
<trkpt lat="45.8448920" lon="9.2242050">
	<ele>502.20</ele>
	<time>2025-02-15T13:18:06.000Z</time>
</trkpt>
<trkpt lat="45.8448840" lon="9.2242080">
	<ele>502.00</ele>
	<time>2025-02-15T13:18:07.000Z</time>
</trkpt>
<trkpt lat="45.8448760" lon="9.2242070">
	<ele>501.80</ele>
	<time>2025-02-15T13:18:08.000Z</time>
</trkpt>
<trkpt lat="45.8448680" lon="9.2242090">
	<ele>501.80</ele>
	<time>2025-02-15T13:18:09.000Z</time>
</trkpt>
<trkpt lat="45.8448580" lon="9.2242150">
	<ele>501.60</ele>
	<time>2025-02-15T13:18:10.000Z</time>
</trkpt>
<trkpt lat="45.8448450" lon="9.2242230">
	<ele>501.40</ele>
	<time>2025-02-15T13:18:11.000Z</time>
</trkpt>
<trkpt lat="45.8448350" lon="9.2242300">
	<ele>501.20</ele>
	<time>2025-02-15T13:18:12.000Z</time>
</trkpt>
<trkpt lat="45.8448190" lon="9.2242260">
	<ele>501.00</ele>
	<time>2025-02-15T13:18:13.000Z</time>
</trkpt>
<trkpt lat="45.8448050" lon="9.2242250">
	<ele>500.80</ele>
	<time>2025-02-15T13:18:14.000Z</time>
</trkpt>
<trkpt lat="45.8447910" lon="9.2242240">
	<ele>500.40</ele>
	<time>2025-02-15T13:18:15.000Z</time>
</trkpt>
<trkpt lat="45.8447750" lon="9.2242340">
	<ele>500.40</ele>
	<time>2025-02-15T13:18:16.000Z</time>
</trkpt>
<trkpt lat="45.8447690" lon="9.2242360">
	<ele>500.20</ele>
	<time>2025-02-15T13:18:17.000Z</time>
</trkpt>
<trkpt lat="45.8447540" lon="9.2242350">
	<ele>500.20</ele>
	<time>2025-02-15T13:18:18.000Z</time>
</trkpt>
<trkpt lat="45.8447410" lon="9.2242430">
	<ele>500.00</ele>
	<time>2025-02-15T13:18:19.000Z</time>
</trkpt>
<trkpt lat="45.8447240" lon="9.2242520">
	<ele>499.80</ele>
	<time>2025-02-15T13:18:20.000Z</time>
</trkpt>
<trkpt lat="45.8447110" lon="9.2242640">
	<ele>499.60</ele>
	<time>2025-02-15T13:18:21.000Z</time>
</trkpt>
<trkpt lat="45.8447070" lon="9.2242780">
	<ele>499.60</ele>
	<time>2025-02-15T13:18:22.000Z</time>
</trkpt>
<trkpt lat="45.8446980" lon="9.2242800">
	<ele>499.40</ele>
	<time>2025-02-15T13:18:23.000Z</time>
</trkpt>
<trkpt lat="45.8446810" lon="9.2242750">
	<ele>499.20</ele>
	<time>2025-02-15T13:18:24.000Z</time>
</trkpt>
<trkpt lat="45.8446640" lon="9.2242720">
	<ele>499.20</ele>
	<time>2025-02-15T13:18:25.000Z</time>
</trkpt>
<trkpt lat="45.8446520" lon="9.2242710">
	<ele>499.00</ele>
	<time>2025-02-15T13:18:26.000Z</time>
</trkpt>
<trkpt lat="45.8446390" lon="9.2242810">
	<ele>498.80</ele>
	<time>2025-02-15T13:18:27.000Z</time>
</trkpt>
<trkpt lat="45.8446280" lon="9.2242900">
	<ele>498.60</ele>
	<time>2025-02-15T13:18:28.000Z</time>
</trkpt>
<trkpt lat="45.8446140" lon="9.2242970">
	<ele>498.60</ele>
	<time>2025-02-15T13:18:29.000Z</time>
</trkpt>
<trkpt lat="45.8446030" lon="9.2242990">
	<ele>498.40</ele>
	<time>2025-02-15T13:18:30.000Z</time>
</trkpt>
<trkpt lat="45.8445890" lon="9.2242980">
	<ele>498.40</ele>
	<time>2025-02-15T13:18:31.000Z</time>
</trkpt>
<trkpt lat="45.8445760" lon="9.2243000">
	<ele>498.20</ele>
	<time>2025-02-15T13:18:32.000Z</time>
</trkpt>
<trkpt lat="45.8445680" lon="9.2243080">
	<ele>498.00</ele>
	<time>2025-02-15T13:18:33.000Z</time>
</trkpt>
<trkpt lat="45.8445610" lon="9.2243160">
	<ele>498.00</ele>
	<time>2025-02-15T13:18:34.000Z</time>
</trkpt>
<trkpt lat="45.8445540" lon="9.2243230">
	<ele>497.80</ele>
	<time>2025-02-15T13:18:35.000Z</time>
</trkpt>
<trkpt lat="45.8445420" lon="9.2243230">
	<ele>497.80</ele>
	<time>2025-02-15T13:18:36.000Z</time>
</trkpt>
<trkpt lat="45.8445280" lon="9.2243240">
	<ele>497.60</ele>
	<time>2025-02-15T13:18:37.000Z</time>
</trkpt>
<trkpt lat="45.8445160" lon="9.2243260">
	<ele>497.60</ele>
	<time>2025-02-15T13:18:38.000Z</time>
</trkpt>
<trkpt lat="45.8445040" lon="9.2243310">
	<ele>497.40</ele>
	<time>2025-02-15T13:18:39.000Z</time>
</trkpt>
<trkpt lat="45.8444950" lon="9.2243420">
	<ele>497.20</ele>
	<time>2025-02-15T13:18:40.000Z</time>
</trkpt>
<trkpt lat="45.8444860" lon="9.2243490">
	<ele>497.20</ele>
	<time>2025-02-15T13:18:41.000Z</time>
</trkpt>
<trkpt lat="45.8444760" lon="9.2243560">
	<ele>497.00</ele>
	<time>2025-02-15T13:18:42.000Z</time>
</trkpt>
<trkpt lat="45.8444690" lon="9.2243670">
	<ele>497.00</ele>
	<time>2025-02-15T13:18:43.000Z</time>
</trkpt>
<trkpt lat="45.8444570" lon="9.2243730">
	<ele>496.80</ele>
	<time>2025-02-15T13:18:44.000Z</time>
</trkpt>
<trkpt lat="45.8444440" lon="9.2243750">
	<ele>496.80</ele>
	<time>2025-02-15T13:18:45.000Z</time>
</trkpt>
<trkpt lat="45.8444290" lon="9.2243690">
	<ele>496.80</ele>
	<time>2025-02-15T13:18:46.000Z</time>
</trkpt>
<trkpt lat="45.8444120" lon="9.2243680">
	<ele>496.60</ele>
	<time>2025-02-15T13:18:47.000Z</time>
</trkpt>
<trkpt lat="45.8443910" lon="9.2243720">
	<ele>496.40</ele>
	<time>2025-02-15T13:18:48.000Z</time>
</trkpt>
<trkpt lat="45.8443810" lon="9.2243740">
	<ele>496.40</ele>
	<time>2025-02-15T13:18:49.000Z</time>
</trkpt>
<trkpt lat="45.8443710" lon="9.2243720">
	<ele>496.20</ele>
	<time>2025-02-15T13:18:50.000Z</time>
</trkpt>
<trkpt lat="45.8443630" lon="9.2243810">
	<ele>496.20</ele>
	<time>2025-02-15T13:18:51.000Z</time>
</trkpt>
<trkpt lat="45.8443590" lon="9.2244020">
	<ele>496.00</ele>
	<time>2025-02-15T13:18:52.000Z</time>
</trkpt>
<trkpt lat="45.8443550" lon="9.2244230">
	<ele>495.80</ele>
	<time>2025-02-15T13:18:53.000Z</time>
</trkpt>
<trkpt lat="45.8443500" lon="9.2244420">
	<ele>495.80</ele>
	<time>2025-02-15T13:18:54.000Z</time>
</trkpt>
<trkpt lat="45.8443440" lon="9.2244570">
	<ele>495.60</ele>
	<time>2025-02-15T13:18:55.000Z</time>
</trkpt>
<trkpt lat="45.8443310" lon="9.2244710">
	<ele>495.60</ele>
	<time>2025-02-15T13:18:56.000Z</time>
</trkpt>
<trkpt lat="45.8443220" lon="9.2244810">
	<ele>495.40</ele>
	<time>2025-02-15T13:18:57.000Z</time>
</trkpt>
<trkpt lat="45.8443100" lon="9.2244920">
	<ele>495.40</ele>
	<time>2025-02-15T13:18:58.000Z</time>
</trkpt>
<trkpt lat="45.8443030" lon="9.2245100">
	<ele>495.20</ele>
	<time>2025-02-15T13:18:59.000Z</time>
</trkpt>
<trkpt lat="45.8443000" lon="9.2245290">
	<ele>495.20</ele>
	<time>2025-02-15T13:19:00.000Z</time>
</trkpt>
<trkpt lat="45.8443000" lon="9.2245430">
	<ele>495.00</ele>
	<time>2025-02-15T13:19:01.000Z</time>
</trkpt>
<trkpt lat="45.8443000" lon="9.2245570">
	<ele>495.00</ele>
	<time>2025-02-15T13:19:02.000Z</time>
</trkpt>
<trkpt lat="45.8442920" lon="9.2245710">
	<ele>494.80</ele>
	<time>2025-02-15T13:19:03.000Z</time>
</trkpt>
<trkpt lat="45.8442820" lon="9.2245870">
	<ele>494.80</ele>
	<time>2025-02-15T13:19:04.000Z</time>
</trkpt>
<trkpt lat="45.8442810" lon="9.2246010">
	<ele>494.60</ele>
	<time>2025-02-15T13:19:05.000Z</time>
</trkpt>
<trkpt lat="45.8442780" lon="9.2246230">
	<ele>494.60</ele>
	<time>2025-02-15T13:19:06.000Z</time>
</trkpt>
<trkpt lat="45.8442730" lon="9.2246400">
	<ele>494.40</ele>
	<time>2025-02-15T13:19:07.000Z</time>
</trkpt>
<trkpt lat="45.8442660" lon="9.2246600">
	<ele>494.20</ele>
	<time>2025-02-15T13:19:08.000Z</time>
</trkpt>
<trkpt lat="45.8442570" lon="9.2246760">
	<ele>494.20</ele>
	<time>2025-02-15T13:19:09.000Z</time>
</trkpt>
<trkpt lat="45.8442490" lon="9.2246920">
	<ele>494.00</ele>
	<time>2025-02-15T13:19:10.000Z</time>
</trkpt>
<trkpt lat="45.8442430" lon="9.2247060">
	<ele>494.00</ele>
	<time>2025-02-15T13:19:11.000Z</time>
</trkpt>
<trkpt lat="45.8442350" lon="9.2247220">
	<ele>493.80</ele>
	<time>2025-02-15T13:19:12.000Z</time>
</trkpt>
<trkpt lat="45.8442240" lon="9.2247310">
	<ele>493.80</ele>
	<time>2025-02-15T13:19:13.000Z</time>
</trkpt>
<trkpt lat="45.8442150" lon="9.2247430">
	<ele>493.60</ele>
	<time>2025-02-15T13:19:14.000Z</time>
</trkpt>
<trkpt lat="45.8442120" lon="9.2247530">
	<ele>493.60</ele>
	<time>2025-02-15T13:19:15.000Z</time>
</trkpt>
<trkpt lat="45.8442040" lon="9.2247580">
	<ele>493.40</ele>
	<time>2025-02-15T13:19:16.000Z</time>
</trkpt>
<trkpt lat="45.8441860" lon="9.2247580">
	<ele>493.40</ele>
	<time>2025-02-15T13:19:17.000Z</time>
</trkpt>
<trkpt lat="45.8441770" lon="9.2247690">
	<ele>493.20</ele>
	<time>2025-02-15T13:19:18.000Z</time>
</trkpt>
<trkpt lat="45.8441680" lon="9.2247860">
	<ele>493.00</ele>
	<time>2025-02-15T13:19:19.000Z</time>
</trkpt>
<trkpt lat="45.8441580" lon="9.2247970">
	<ele>493.00</ele>
	<time>2025-02-15T13:19:20.000Z</time>
</trkpt>
<trkpt lat="45.8441500" lon="9.2248000">
	<ele>492.80</ele>
	<time>2025-02-15T13:19:21.000Z</time>
</trkpt>
<trkpt lat="45.8441390" lon="9.2247990">
	<ele>492.80</ele>
	<time>2025-02-15T13:19:22.000Z</time>
</trkpt>
<trkpt lat="45.8441290" lon="9.2248020">
	<ele>492.80</ele>
	<time>2025-02-15T13:19:23.000Z</time>
</trkpt>
<trkpt lat="45.8441180" lon="9.2248080">
	<ele>492.60</ele>
	<time>2025-02-15T13:19:24.000Z</time>
</trkpt>
<trkpt lat="45.8441070" lon="9.2248140">
	<ele>492.40</ele>
	<time>2025-02-15T13:19:25.000Z</time>
</trkpt>
<trkpt lat="45.8440950" lon="9.2248190">
	<ele>492.40</ele>
	<time>2025-02-15T13:19:26.000Z</time>
</trkpt>
<trkpt lat="45.8440810" lon="9.2248220">
	<ele>492.20</ele>
	<time>2025-02-15T13:19:27.000Z</time>
</trkpt>
<trkpt lat="45.8440700" lon="9.2248300">
	<ele>492.20</ele>
	<time>2025-02-15T13:19:28.000Z</time>
</trkpt>
<trkpt lat="45.8440610" lon="9.2248350">
	<ele>492.00</ele>
	<time>2025-02-15T13:19:29.000Z</time>
</trkpt>
<trkpt lat="45.8440520" lon="9.2248400">
	<ele>491.80</ele>
	<time>2025-02-15T13:19:30.000Z</time>
</trkpt>
<trkpt lat="45.8440400" lon="9.2248440">
	<ele>491.80</ele>
	<time>2025-02-15T13:19:31.000Z</time>
</trkpt>
<trkpt lat="45.8440260" lon="9.2248470">
	<ele>491.80</ele>
	<time>2025-02-15T13:19:32.000Z</time>
</trkpt>
<trkpt lat="45.8440110" lon="9.2248530">
	<ele>491.60</ele>
	<time>2025-02-15T13:19:33.000Z</time>
</trkpt>
<trkpt lat="45.8439990" lon="9.2248590">
	<ele>491.60</ele>
	<time>2025-02-15T13:19:34.000Z</time>
</trkpt>
<trkpt lat="45.8439850" lon="9.2248560">
	<ele>491.40</ele>
	<time>2025-02-15T13:19:35.000Z</time>
</trkpt>
<trkpt lat="45.8439790" lon="9.2248680">
	<ele>491.20</ele>
	<time>2025-02-15T13:19:36.000Z</time>
</trkpt>
<trkpt lat="45.8439670" lon="9.2248710">
	<ele>491.00</ele>
	<time>2025-02-15T13:19:37.000Z</time>
</trkpt>
<trkpt lat="45.8439570" lon="9.2248790">
	<ele>490.80</ele>
	<time>2025-02-15T13:19:38.000Z</time>
</trkpt>
<trkpt lat="45.8439450" lon="9.2248850">
	<ele>490.80</ele>
	<time>2025-02-15T13:19:39.000Z</time>
</trkpt>
<trkpt lat="45.8439360" lon="9.2248930">
	<ele>490.60</ele>
	<time>2025-02-15T13:19:40.000Z</time>
</trkpt>
<trkpt lat="45.8439280" lon="9.2249020">
	<ele>490.60</ele>
	<time>2025-02-15T13:19:41.000Z</time>
</trkpt>
<trkpt lat="45.8439220" lon="9.2249020">
	<ele>490.60</ele>
	<time>2025-02-15T13:19:42.000Z</time>
</trkpt>
<trkpt lat="45.8439150" lon="9.2248990">
	<ele>490.60</ele>
	<time>2025-02-15T13:19:43.000Z</time>
</trkpt>
<trkpt lat="45.8439040" lon="9.2248980">
	<ele>490.40</ele>
	<time>2025-02-15T13:19:44.000Z</time>
</trkpt>
<trkpt lat="45.8438920" lon="9.2248950">
	<ele>490.40</ele>
	<time>2025-02-15T13:19:45.000Z</time>
</trkpt>
<trkpt lat="45.8438800" lon="9.2248920">
	<ele>490.20</ele>
	<time>2025-02-15T13:19:46.000Z</time>
</trkpt>
<trkpt lat="45.8438690" lon="9.2248920">
	<ele>490.00</ele>
	<time>2025-02-15T13:19:47.000Z</time>
</trkpt>
<trkpt lat="45.8438580" lon="9.2248900">
	<ele>489.80</ele>
	<time>2025-02-15T13:19:48.000Z</time>
</trkpt>
<trkpt lat="45.8438450" lon="9.2248890">
	<ele>489.60</ele>
	<time>2025-02-15T13:19:49.000Z</time>
</trkpt>
<trkpt lat="45.8438320" lon="9.2248880">
	<ele>489.40</ele>
	<time>2025-02-15T13:19:50.000Z</time>
</trkpt>
<trkpt lat="45.8438190" lon="9.2248880">
	<ele>489.20</ele>
	<time>2025-02-15T13:19:51.000Z</time>
</trkpt>
<trkpt lat="45.8438070" lon="9.2248890">
	<ele>489.00</ele>
	<time>2025-02-15T13:19:52.000Z</time>
</trkpt>
<trkpt lat="45.8437930" lon="9.2248880">
	<ele>488.80</ele>
	<time>2025-02-15T13:19:53.000Z</time>
</trkpt>
<trkpt lat="45.8437790" lon="9.2248880">
	<ele>488.80</ele>
	<time>2025-02-15T13:19:54.000Z</time>
</trkpt>
<trkpt lat="45.8437680" lon="9.2248930">
	<ele>488.60</ele>
	<time>2025-02-15T13:19:55.000Z</time>
</trkpt>
<trkpt lat="45.8437570" lon="9.2248900">
	<ele>488.40</ele>
	<time>2025-02-15T13:19:56.000Z</time>
</trkpt>
<trkpt lat="45.8437460" lon="9.2248820">
	<ele>488.20</ele>
	<time>2025-02-15T13:19:57.000Z</time>
</trkpt>
<trkpt lat="45.8437320" lon="9.2248710">
	<ele>488.20</ele>
	<time>2025-02-15T13:19:58.000Z</time>
</trkpt>
<trkpt lat="45.8437190" lon="9.2248590">
	<ele>488.00</ele>
	<time>2025-02-15T13:19:59.000Z</time>
</trkpt>
<trkpt lat="45.8437070" lon="9.2248520">
	<ele>488.00</ele>
	<time>2025-02-15T13:20:00.000Z</time>
</trkpt>
<trkpt lat="45.8437030" lon="9.2248520">
	<ele>487.80</ele>
	<time>2025-02-15T13:20:01.000Z</time>
</trkpt>
<trkpt lat="45.8436940" lon="9.2248500">
	<ele>487.80</ele>
	<time>2025-02-15T13:20:02.000Z</time>
</trkpt>
<trkpt lat="45.8436800" lon="9.2248460">
	<ele>487.60</ele>
	<time>2025-02-15T13:20:03.000Z</time>
</trkpt>
<trkpt lat="45.8436620" lon="9.2248350">
	<ele>487.60</ele>
	<time>2025-02-15T13:20:04.000Z</time>
</trkpt>
<trkpt lat="45.8436500" lon="9.2248280">
	<ele>487.40</ele>
	<time>2025-02-15T13:20:05.000Z</time>
</trkpt>
<trkpt lat="45.8436410" lon="9.2248320">
	<ele>487.20</ele>
	<time>2025-02-15T13:20:06.000Z</time>
</trkpt>
<trkpt lat="45.8436290" lon="9.2248340">
	<ele>487.20</ele>
	<time>2025-02-15T13:20:07.000Z</time>
</trkpt>
<trkpt lat="45.8436180" lon="9.2248290">
	<ele>487.00</ele>
	<time>2025-02-15T13:20:08.000Z</time>
</trkpt>
<trkpt lat="45.8436080" lon="9.2248250">
	<ele>486.80</ele>
	<time>2025-02-15T13:20:09.000Z</time>
</trkpt>
<trkpt lat="45.8436000" lon="9.2248190">
	<ele>486.60</ele>
	<time>2025-02-15T13:20:10.000Z</time>
</trkpt>
<trkpt lat="45.8435960" lon="9.2248080">
	<ele>486.40</ele>
	<time>2025-02-15T13:20:11.000Z</time>
</trkpt>
<trkpt lat="45.8435940" lon="9.2248020">
	<ele>486.20</ele>
	<time>2025-02-15T13:20:12.000Z</time>
</trkpt>
<trkpt lat="45.8435840" lon="9.2248000">
	<ele>486.20</ele>
	<time>2025-02-15T13:20:13.000Z</time>
</trkpt>
<trkpt lat="45.8435740" lon="9.2247930">
	<ele>486.00</ele>
	<time>2025-02-15T13:20:14.000Z</time>
</trkpt>
<trkpt lat="45.8435680" lon="9.2247900">
	<ele>485.80</ele>
	<time>2025-02-15T13:20:15.000Z</time>
</trkpt>
<trkpt lat="45.8435650" lon="9.2247850">
	<ele>485.80</ele>
	<time>2025-02-15T13:20:16.000Z</time>
</trkpt>
<trkpt lat="45.8435550" lon="9.2247780">
	<ele>485.80</ele>
	<time>2025-02-15T13:20:17.000Z</time>
</trkpt>
<trkpt lat="45.8435460" lon="9.2247690">
	<ele>485.80</ele>
	<time>2025-02-15T13:20:18.000Z</time>
</trkpt>
<trkpt lat="45.8435400" lon="9.2247620">
	<ele>485.60</ele>
	<time>2025-02-15T13:20:19.000Z</time>
</trkpt>
<trkpt lat="45.8435320" lon="9.2247460">
	<ele>485.40</ele>
	<time>2025-02-15T13:20:20.000Z</time>
</trkpt>
<trkpt lat="45.8435200" lon="9.2247300">
	<ele>485.20</ele>
	<time>2025-02-15T13:20:21.000Z</time>
</trkpt>
<trkpt lat="45.8435070" lon="9.2247170">
	<ele>485.20</ele>
	<time>2025-02-15T13:20:22.000Z</time>
</trkpt>
<trkpt lat="45.8434970" lon="9.2247080">
	<ele>485.00</ele>
	<time>2025-02-15T13:20:23.000Z</time>
</trkpt>
<trkpt lat="45.8434820" lon="9.2246910">
	<ele>484.80</ele>
	<time>2025-02-15T13:20:24.000Z</time>
</trkpt>
<trkpt lat="45.8434670" lon="9.2246800">
	<ele>484.60</ele>
	<time>2025-02-15T13:20:25.000Z</time>
</trkpt>
<trkpt lat="45.8434550" lon="9.2246700">
	<ele>484.40</ele>
	<time>2025-02-15T13:20:26.000Z</time>
</trkpt>
<trkpt lat="45.8434470" lon="9.2246610">
	<ele>484.20</ele>
	<time>2025-02-15T13:20:27.000Z</time>
</trkpt>
<trkpt lat="45.8434370" lon="9.2246530">
	<ele>484.00</ele>
	<time>2025-02-15T13:20:28.000Z</time>
</trkpt>
<trkpt lat="45.8434260" lon="9.2246440">
	<ele>484.00</ele>
	<time>2025-02-15T13:20:29.000Z</time>
</trkpt>
<trkpt lat="45.8434230" lon="9.2246370">
	<ele>483.80</ele>
	<time>2025-02-15T13:20:30.000Z</time>
</trkpt>
<trkpt lat="45.8434170" lon="9.2246250">
	<ele>483.80</ele>
	<time>2025-02-15T13:20:31.000Z</time>
</trkpt>
<trkpt lat="45.8434090" lon="9.2246140">
	<ele>483.80</ele>
	<time>2025-02-15T13:20:32.000Z</time>
</trkpt>
<trkpt lat="45.8434030" lon="9.2246000">
	<ele>483.80</ele>
	<time>2025-02-15T13:20:33.000Z</time>
</trkpt>
<trkpt lat="45.8433930" lon="9.2245920">
	<ele>483.60</ele>
	<time>2025-02-15T13:20:34.000Z</time>
</trkpt>
<trkpt lat="45.8433860" lon="9.2245800">
	<ele>483.60</ele>
	<time>2025-02-15T13:20:35.000Z</time>
</trkpt>
<trkpt lat="45.8433780" lon="9.2245690">
	<ele>483.40</ele>
	<time>2025-02-15T13:20:36.000Z</time>
</trkpt>
<trkpt lat="45.8433730" lon="9.2245560">
	<ele>483.40</ele>
	<time>2025-02-15T13:20:37.000Z</time>
</trkpt>
<trkpt lat="45.8433680" lon="9.2245310">
	<ele>483.40</ele>
	<time>2025-02-15T13:20:38.000Z</time>
</trkpt>
<trkpt lat="45.8433610" lon="9.2245120">
	<ele>483.20</ele>
	<time>2025-02-15T13:20:39.000Z</time>
</trkpt>
<trkpt lat="45.8433500" lon="9.2245030">
	<ele>483.00</ele>
	<time>2025-02-15T13:20:40.000Z</time>
</trkpt>
<trkpt lat="45.8433380" lon="9.2244970">
	<ele>482.80</ele>
	<time>2025-02-15T13:20:41.000Z</time>
</trkpt>
<trkpt lat="45.8433260" lon="9.2244880">
	<ele>482.80</ele>
	<time>2025-02-15T13:20:42.000Z</time>
</trkpt>
<trkpt lat="45.8433090" lon="9.2244800">
	<ele>482.60</ele>
	<time>2025-02-15T13:20:43.000Z</time>
</trkpt>
<trkpt lat="45.8432930" lon="9.2244760">
	<ele>482.40</ele>
	<time>2025-02-15T13:20:44.000Z</time>
</trkpt>
<trkpt lat="45.8432830" lon="9.2244700">
	<ele>482.40</ele>
	<time>2025-02-15T13:20:45.000Z</time>
</trkpt>
<trkpt lat="45.8432710" lon="9.2244600">
	<ele>482.20</ele>
	<time>2025-02-15T13:20:46.000Z</time>
</trkpt>
<trkpt lat="45.8432580" lon="9.2244520">
	<ele>482.20</ele>
	<time>2025-02-15T13:20:47.000Z</time>
</trkpt>
<trkpt lat="45.8432460" lon="9.2244490">
	<ele>482.00</ele>
	<time>2025-02-15T13:20:48.000Z</time>
</trkpt>
<trkpt lat="45.8432370" lon="9.2244450">
	<ele>482.00</ele>
	<time>2025-02-15T13:20:49.000Z</time>
</trkpt>
<trkpt lat="45.8432280" lon="9.2244410">
	<ele>482.00</ele>
	<time>2025-02-15T13:20:50.000Z</time>
</trkpt>
<trkpt lat="45.8432240" lon="9.2244360">
	<ele>481.80</ele>
	<time>2025-02-15T13:20:51.000Z</time>
</trkpt>
<trkpt lat="45.8432130" lon="9.2244340">
	<ele>481.80</ele>
	<time>2025-02-15T13:20:52.000Z</time>
</trkpt>
<trkpt lat="45.8432020" lon="9.2244310">
	<ele>481.80</ele>
	<time>2025-02-15T13:20:53.000Z</time>
</trkpt>
<trkpt lat="45.8431950" lon="9.2244240">
	<ele>481.80</ele>
	<time>2025-02-15T13:20:54.000Z</time>
</trkpt>
<trkpt lat="45.8431900" lon="9.2244100">
	<ele>481.80</ele>
	<time>2025-02-15T13:20:55.000Z</time>
</trkpt>
<trkpt lat="45.8431790" lon="9.2243980">
	<ele>481.60</ele>
	<time>2025-02-15T13:20:56.000Z</time>
</trkpt>
<trkpt lat="45.8431650" lon="9.2243830">
	<ele>481.60</ele>
	<time>2025-02-15T13:20:57.000Z</time>
</trkpt>
<trkpt lat="45.8431490" lon="9.2243700">
	<ele>481.60</ele>
	<time>2025-02-15T13:20:58.000Z</time>
</trkpt>
<trkpt lat="45.8431350" lon="9.2243570">
	<ele>481.60</ele>
	<time>2025-02-15T13:20:59.000Z</time>
</trkpt>
<trkpt lat="45.8431240" lon="9.2243420">
	<ele>481.60</ele>
	<time>2025-02-15T13:21:00.000Z</time>
</trkpt>
<trkpt lat="45.8431160" lon="9.2243370">
	<ele>481.60</ele>
	<time>2025-02-15T13:21:01.000Z</time>
</trkpt>
<trkpt lat="45.8431090" lon="9.2243450">
	<ele>481.40</ele>
	<time>2025-02-15T13:21:02.000Z</time>
</trkpt>
<trkpt lat="45.8431070" lon="9.2243530">
	<ele>481.40</ele>
	<time>2025-02-15T13:21:03.000Z</time>
</trkpt>
<trkpt lat="45.8431060" lon="9.2243620">
	<ele>481.40</ele>
	<time>2025-02-15T13:21:04.000Z</time>
</trkpt>
<trkpt lat="45.8431060" lon="9.2243740">
	<ele>481.40</ele>
	<time>2025-02-15T13:21:05.000Z</time>
</trkpt>
<trkpt lat="45.8431080" lon="9.2243790">
	<ele>481.40</ele>
	<time>2025-02-15T13:21:06.000Z</time>
</trkpt>
<trkpt lat="45.8431140" lon="9.2243820">
	<ele>481.40</ele>
	<time>2025-02-15T13:21:07.000Z</time>
</trkpt>
<trkpt lat="45.8431250" lon="9.2243830">
	<ele>481.40</ele>
	<time>2025-02-15T13:21:08.000Z</time>
</trkpt>
<trkpt lat="45.8431280" lon="9.2243820">
	<ele>481.40</ele>
	<time>2025-02-15T13:21:09.000Z</time>
</trkpt>
<trkpt lat="45.8431280" lon="9.2243820">
	<ele>481.60</ele>
	<time>2025-02-15T13:21:10.000Z</time>
</trkpt>
<trkpt lat="45.8431280" lon="9.2243830">
	<ele>481.60</ele>
	<time>2025-02-15T13:21:11.000Z</time>
</trkpt>
<trkpt lat="45.8431280" lon="9.2243820">
	<ele>481.60</ele>
	<time>2025-02-15T13:21:12.000Z</time>
</trkpt>
<trkpt lat="45.8431280" lon="9.2243820">
	<ele>481.80</ele>
	<time>2025-02-15T13:21:13.000Z</time>
</trkpt>
<trkpt lat="45.8431280" lon="9.2243820">
	<ele>481.80</ele>
	<time>2025-02-15T13:21:14.000Z</time>
</trkpt>
<trkpt lat="45.8431280" lon="9.2243820">
	<ele>481.80</ele>
	<time>2025-02-15T13:21:15.000Z</time>
</trkpt>
<trkpt lat="45.8431280" lon="9.2243820">
	<ele>481.80</ele>
	<time>2025-02-15T13:21:16.000Z</time>
</trkpt>
<trkpt lat="45.8431280" lon="9.2243820">
	<ele>481.80</ele>
	<time>2025-02-15T13:21:17.000Z</time>
</trkpt>
<trkpt lat="45.8431280" lon="9.2243820">
	<ele>481.80</ele>
	<time>2025-02-15T13:21:18.000Z</time>
</trkpt>
<trkpt lat="45.8431280" lon="9.2243820">
	<ele>481.80</ele>
	<time>2025-02-15T13:21:19.000Z</time>
</trkpt>
<trkpt lat="45.8431280" lon="9.2243820">
	<ele>481.80</ele>
	<time>2025-02-15T13:21:20.000Z</time>
</trkpt>
<trkpt lat="45.8431280" lon="9.2243820">
	<ele>481.80</ele>
	<time>2025-02-15T13:21:21.000Z</time>
</trkpt>
<trkpt lat="45.8431280" lon="9.2243820">
	<ele>481.80</ele>
	<time>2025-02-15T13:21:22.000Z</time>
</trkpt>
<trkpt lat="45.8431280" lon="9.2243820">
	<ele>481.80</ele>
	<time>2025-02-15T13:21:23.000Z</time>
</trkpt>
<trkpt lat="45.8431280" lon="9.2243820">
	<ele>481.80</ele>
	<time>2025-02-15T13:21:24.000Z</time>
</trkpt>
<trkpt lat="45.8431280" lon="9.2243820">
	<ele>481.80</ele>
	<time>2025-02-15T13:21:25.000Z</time>
</trkpt>
<trkpt lat="45.8431280" lon="9.2243820">
	<ele>481.80</ele>
	<time>2025-02-15T13:21:26.000Z</time>
</trkpt>
<trkpt lat="45.8431280" lon="9.2243820">
	<ele>481.80</ele>
	<time>2025-02-15T13:21:27.000Z</time>
</trkpt>
<trkpt lat="45.8431280" lon="9.2243820">
	<ele>481.80</ele>
	<time>2025-02-15T13:21:28.000Z</time>
</trkpt>
<trkpt lat="45.8431280" lon="9.2243820">
	<ele>481.80</ele>
	<time>2025-02-15T13:21:29.000Z</time>
</trkpt>
<trkpt lat="45.8431280" lon="9.2243820">
	<ele>481.80</ele>
	<time>2025-02-15T13:21:30.000Z</time>
</trkpt>
<trkpt lat="45.8431280" lon="9.2243820">
	<ele>481.80</ele>
	<time>2025-02-15T13:21:31.000Z</time>
</trkpt>
<trkpt lat="45.8431280" lon="9.2243820">
	<ele>481.80</ele>
	<time>2025-02-15T13:21:32.000Z</time>
</trkpt>
<trkpt lat="45.8431280" lon="9.2243830">
	<ele>481.80</ele>
	<time>2025-02-15T13:21:33.000Z</time>
</trkpt>
<trkpt lat="45.8431280" lon="9.2243830">
	<ele>481.60</ele>
	<time>2025-02-15T13:21:34.000Z</time>
</trkpt>
<trkpt lat="45.8431260" lon="9.2243800">
	<ele>481.60</ele>
	<time>2025-02-15T13:21:35.000Z</time>
</trkpt>
<trkpt lat="45.8431200" lon="9.2243750">
	<ele>481.40</ele>
	<time>2025-02-15T13:21:36.000Z</time>
</trkpt>
<trkpt lat="45.8431130" lon="9.2243670">
	<ele>481.40</ele>
	<time>2025-02-15T13:21:37.000Z</time>
</trkpt>
<trkpt lat="45.8431100" lon="9.2243620">
	<ele>481.40</ele>
	<time>2025-02-15T13:21:38.000Z</time>
</trkpt>
<trkpt lat="45.8431060" lon="9.2243590">
	<ele>481.40</ele>
	<time>2025-02-15T13:21:39.000Z</time>
</trkpt>
<trkpt lat="45.8431000" lon="9.2243540">
	<ele>481.40</ele>
	<time>2025-02-15T13:21:40.000Z</time>
</trkpt>
<trkpt lat="45.8430980" lon="9.2243460">
	<ele>481.40</ele>
	<time>2025-02-15T13:21:41.000Z</time>
</trkpt>
<trkpt lat="45.8430970" lon="9.2243420">
	<ele>481.40</ele>
	<time>2025-02-15T13:21:42.000Z</time>
</trkpt>
<trkpt lat="45.8430990" lon="9.2243430">
	<ele>481.40</ele>
	<time>2025-02-15T13:21:43.000Z</time>
</trkpt>
<trkpt lat="45.8431000" lon="9.2243400">
	<ele>481.40</ele>
	<time>2025-02-15T13:21:44.000Z</time>
</trkpt>
<trkpt lat="45.8431020" lon="9.2243390">
	<ele>481.60</ele>
	<time>2025-02-15T13:21:45.000Z</time>
</trkpt>
<trkpt lat="45.8431010" lon="9.2243400">
	<ele>481.60</ele>
	<time>2025-02-15T13:21:46.000Z</time>
</trkpt>
<trkpt lat="45.8431040" lon="9.2243470">
	<ele>481.60</ele>
	<time>2025-02-15T13:21:47.000Z</time>
</trkpt>
<trkpt lat="45.8431030" lon="9.2243480">
	<ele>481.80</ele>
	<time>2025-02-15T13:21:48.000Z</time>
</trkpt>
<trkpt lat="45.8431060" lon="9.2243540">
	<ele>481.80</ele>
	<time>2025-02-15T13:21:49.000Z</time>
</trkpt>
<trkpt lat="45.8431030" lon="9.2243530">
	<ele>481.80</ele>
	<time>2025-02-15T13:21:50.000Z</time>
</trkpt>
<trkpt lat="45.8431040" lon="9.2243530">
	<ele>481.80</ele>
	<time>2025-02-15T13:21:51.000Z</time>
</trkpt>
<trkpt lat="45.8431110" lon="9.2243510">
	<ele>481.60</ele>
	<time>2025-02-15T13:21:52.000Z</time>
</trkpt>
<trkpt lat="45.8431100" lon="9.2243490">
	<ele>481.60</ele>
	<time>2025-02-15T13:21:53.000Z</time>
</trkpt>
<trkpt lat="45.8431070" lon="9.2243450">
	<ele>481.60</ele>
	<time>2025-02-15T13:21:54.000Z</time>
</trkpt>
<trkpt lat="45.8431150" lon="9.2243310">
	<ele>481.60</ele>
	<time>2025-02-15T13:21:55.000Z</time>
</trkpt>
<trkpt lat="45.8431220" lon="9.2243150">
	<ele>481.60</ele>
	<time>2025-02-15T13:21:56.000Z</time>
</trkpt>
<trkpt lat="45.8431250" lon="9.2243100">
	<ele>481.60</ele>
	<time>2025-02-15T13:21:57.000Z</time>
</trkpt>
<trkpt lat="45.8431280" lon="9.2243050">
	<ele>481.60</ele>
	<time>2025-02-15T13:21:58.000Z</time>
</trkpt>
<trkpt lat="45.8431300" lon="9.2243010">
	<ele>481.60</ele>
	<time>2025-02-15T13:21:59.000Z</time>
</trkpt>
<trkpt lat="45.8431290" lon="9.2242980">
	<ele>481.60</ele>
	<time>2025-02-15T13:22:00.000Z</time>
</trkpt>
<trkpt lat="45.8431230" lon="9.2242910">
	<ele>481.40</ele>
	<time>2025-02-15T13:22:01.000Z</time>
</trkpt>
<trkpt lat="45.8431120" lon="9.2242850">
	<ele>481.40</ele>
	<time>2025-02-15T13:22:02.000Z</time>
</trkpt>
<trkpt lat="45.8431000" lon="9.2242750">
	<ele>481.40</ele>
	<time>2025-02-15T13:22:03.000Z</time>
</trkpt>
<trkpt lat="45.8430890" lon="9.2242660">
	<ele>481.20</ele>
	<time>2025-02-15T13:22:04.000Z</time>
</trkpt>
<trkpt lat="45.8430790" lon="9.2242550">
	<ele>481.20</ele>
	<time>2025-02-15T13:22:05.000Z</time>
</trkpt>
<trkpt lat="45.8430700" lon="9.2242450">
	<ele>481.20</ele>
	<time>2025-02-15T13:22:06.000Z</time>
</trkpt>
<trkpt lat="45.8430660" lon="9.2242370">
	<ele>481.00</ele>
	<time>2025-02-15T13:22:07.000Z</time>
</trkpt>
<trkpt lat="45.8430570" lon="9.2242260">
	<ele>481.00</ele>
	<time>2025-02-15T13:22:08.000Z</time>
</trkpt>
<trkpt lat="45.8430460" lon="9.2242170">
	<ele>481.00</ele>
	<time>2025-02-15T13:22:09.000Z</time>
</trkpt>
<trkpt lat="45.8430330" lon="9.2242090">
	<ele>481.00</ele>
	<time>2025-02-15T13:22:10.000Z</time>
</trkpt>
<trkpt lat="45.8430220" lon="9.2242020">
	<ele>481.00</ele>
	<time>2025-02-15T13:22:11.000Z</time>
</trkpt>
<trkpt lat="45.8430110" lon="9.2241870">
	<ele>481.00</ele>
	<time>2025-02-15T13:22:12.000Z</time>
</trkpt>
<trkpt lat="45.8430020" lon="9.2241680">
	<ele>481.00</ele>
	<time>2025-02-15T13:22:13.000Z</time>
</trkpt>
<trkpt lat="45.8429950" lon="9.2241510">
	<ele>481.00</ele>
	<time>2025-02-15T13:22:14.000Z</time>
</trkpt>
<trkpt lat="45.8429900" lon="9.2241420">
	<ele>481.00</ele>
	<time>2025-02-15T13:22:15.000Z</time>
</trkpt>
<trkpt lat="45.8429830" lon="9.2241340">
	<ele>481.00</ele>
	<time>2025-02-15T13:22:16.000Z</time>
</trkpt>
<trkpt lat="45.8429790" lon="9.2241220">
	<ele>481.00</ele>
	<time>2025-02-15T13:22:17.000Z</time>
</trkpt>
<trkpt lat="45.8429760" lon="9.2241080">
	<ele>480.80</ele>
	<time>2025-02-15T13:22:18.000Z</time>
</trkpt>
<trkpt lat="45.8429680" lon="9.2240950">
	<ele>480.80</ele>
	<time>2025-02-15T13:22:19.000Z</time>
</trkpt>
<trkpt lat="45.8429620" lon="9.2240790">
	<ele>480.80</ele>
	<time>2025-02-15T13:22:20.000Z</time>
</trkpt>
<trkpt lat="45.8429540" lon="9.2240610">
	<ele>480.80</ele>
	<time>2025-02-15T13:22:21.000Z</time>
</trkpt>
<trkpt lat="45.8429470" lon="9.2240490">
	<ele>480.80</ele>
	<time>2025-02-15T13:22:22.000Z</time>
</trkpt>
<trkpt lat="45.8429420" lon="9.2240330">
	<ele>480.80</ele>
	<time>2025-02-15T13:22:23.000Z</time>
</trkpt>
<trkpt lat="45.8429400" lon="9.2240160">
	<ele>480.80</ele>
	<time>2025-02-15T13:22:24.000Z</time>
</trkpt>
<trkpt lat="45.8429380" lon="9.2240020">
	<ele>480.60</ele>
	<time>2025-02-15T13:22:25.000Z</time>
</trkpt>
<trkpt lat="45.8429340" lon="9.2239910">
	<ele>480.60</ele>
	<time>2025-02-15T13:22:26.000Z</time>
</trkpt>
<trkpt lat="45.8429270" lon="9.2239800">
	<ele>480.40</ele>
	<time>2025-02-15T13:22:27.000Z</time>
</trkpt>
<trkpt lat="45.8429230" lon="9.2239700">
	<ele>480.20</ele>
	<time>2025-02-15T13:22:28.000Z</time>
</trkpt>
<trkpt lat="45.8429190" lon="9.2239570">
	<ele>480.00</ele>
	<time>2025-02-15T13:22:29.000Z</time>
</trkpt>
<trkpt lat="45.8429180" lon="9.2239390">
	<ele>479.80</ele>
	<time>2025-02-15T13:22:30.000Z</time>
</trkpt>
<trkpt lat="45.8429130" lon="9.2239250">
	<ele>479.80</ele>
	<time>2025-02-15T13:22:31.000Z</time>
</trkpt>
<trkpt lat="45.8429070" lon="9.2239160">
	<ele>479.80</ele>
	<time>2025-02-15T13:22:32.000Z</time>
</trkpt>
<trkpt lat="45.8428990" lon="9.2239060">
	<ele>479.60</ele>
	<time>2025-02-15T13:22:33.000Z</time>
</trkpt>
<trkpt lat="45.8428910" lon="9.2238910">
	<ele>479.60</ele>
	<time>2025-02-15T13:22:34.000Z</time>
</trkpt>
<trkpt lat="45.8428860" lon="9.2238780">
	<ele>479.60</ele>
	<time>2025-02-15T13:22:35.000Z</time>
</trkpt>
<trkpt lat="45.8428810" lon="9.2238650">
	<ele>479.40</ele>
	<time>2025-02-15T13:22:36.000Z</time>
</trkpt>
<trkpt lat="45.8428750" lon="9.2238510">
	<ele>479.20</ele>
	<time>2025-02-15T13:22:37.000Z</time>
</trkpt>
<trkpt lat="45.8428630" lon="9.2238350">
	<ele>478.80</ele>
	<time>2025-02-15T13:22:38.000Z</time>
</trkpt>
<trkpt lat="45.8428520" lon="9.2238210">
	<ele>478.40</ele>
	<time>2025-02-15T13:22:39.000Z</time>
</trkpt>
<trkpt lat="45.8428420" lon="9.2238100">
	<ele>478.00</ele>
	<time>2025-02-15T13:22:40.000Z</time>
</trkpt>
<trkpt lat="45.8428350" lon="9.2238040">
	<ele>477.60</ele>
	<time>2025-02-15T13:22:41.000Z</time>
</trkpt>
<trkpt lat="45.8428270" lon="9.2237990">
	<ele>477.20</ele>
	<time>2025-02-15T13:22:42.000Z</time>
</trkpt>
<trkpt lat="45.8428160" lon="9.2237950">
	<ele>477.20</ele>
	<time>2025-02-15T13:22:43.000Z</time>
</trkpt>
<trkpt lat="45.8428030" lon="9.2237900">
	<ele>477.00</ele>
	<time>2025-02-15T13:22:44.000Z</time>
</trkpt>
<trkpt lat="45.8427940" lon="9.2237840">
	<ele>477.00</ele>
	<time>2025-02-15T13:22:45.000Z</time>
</trkpt>
<trkpt lat="45.8427790" lon="9.2237880">
	<ele>476.60</ele>
	<time>2025-02-15T13:22:46.000Z</time>
</trkpt>
<trkpt lat="45.8427590" lon="9.2237850">
	<ele>476.40</ele>
	<time>2025-02-15T13:22:47.000Z</time>
</trkpt>
<trkpt lat="45.8427390" lon="9.2237920">
	<ele>475.80</ele>
	<time>2025-02-15T13:22:48.000Z</time>
</trkpt>
<trkpt lat="45.8427220" lon="9.2237990">
	<ele>475.60</ele>
	<time>2025-02-15T13:22:49.000Z</time>
</trkpt>
<trkpt lat="45.8427040" lon="9.2238060">
	<ele>475.20</ele>
	<time>2025-02-15T13:22:50.000Z</time>
</trkpt>
<trkpt lat="45.8426850" lon="9.2238100">
	<ele>474.80</ele>
	<time>2025-02-15T13:22:51.000Z</time>
</trkpt>
<trkpt lat="45.8426650" lon="9.2238090">
	<ele>474.40</ele>
	<time>2025-02-15T13:22:52.000Z</time>
</trkpt>
<trkpt lat="45.8426520" lon="9.2238170">
	<ele>474.40</ele>
	<time>2025-02-15T13:22:53.000Z</time>
</trkpt>
<trkpt lat="45.8426460" lon="9.2238250">
	<ele>474.20</ele>
	<time>2025-02-15T13:22:54.000Z</time>
</trkpt>
<trkpt lat="45.8426410" lon="9.2238310">
	<ele>474.20</ele>
	<time>2025-02-15T13:22:55.000Z</time>
</trkpt>
<trkpt lat="45.8426400" lon="9.2238330">
	<ele>474.20</ele>
	<time>2025-02-15T13:22:56.000Z</time>
</trkpt>
<trkpt lat="45.8426320" lon="9.2238250">
	<ele>474.20</ele>
	<time>2025-02-15T13:22:57.000Z</time>
</trkpt>
<trkpt lat="45.8426240" lon="9.2238240">
	<ele>474.00</ele>
	<time>2025-02-15T13:22:58.000Z</time>
</trkpt>
<trkpt lat="45.8426210" lon="9.2238270">
	<ele>473.60</ele>
	<time>2025-02-15T13:22:59.000Z</time>
</trkpt>
<trkpt lat="45.8426170" lon="9.2238330">
	<ele>473.20</ele>
	<time>2025-02-15T13:23:00.000Z</time>
</trkpt>
<trkpt lat="45.8426110" lon="9.2238370">
	<ele>472.80</ele>
	<time>2025-02-15T13:23:01.000Z</time>
</trkpt>
<trkpt lat="45.8426040" lon="9.2238370">
	<ele>472.60</ele>
	<time>2025-02-15T13:23:02.000Z</time>
</trkpt>
<trkpt lat="45.8425930" lon="9.2238360">
	<ele>472.20</ele>
	<time>2025-02-15T13:23:03.000Z</time>
</trkpt>
<trkpt lat="45.8425910" lon="9.2238390">
	<ele>472.00</ele>
	<time>2025-02-15T13:23:04.000Z</time>
</trkpt>
<trkpt lat="45.8425830" lon="9.2238340">
	<ele>471.80</ele>
	<time>2025-02-15T13:23:05.000Z</time>
</trkpt>
<trkpt lat="45.8425820" lon="9.2238480">
	<ele>471.80</ele>
	<time>2025-02-15T13:23:06.000Z</time>
</trkpt>
<trkpt lat="45.8425730" lon="9.2238570">
	<ele>471.60</ele>
	<time>2025-02-15T13:23:07.000Z</time>
</trkpt>
<trkpt lat="45.8425590" lon="9.2238600">
	<ele>471.40</ele>
	<time>2025-02-15T13:23:08.000Z</time>
</trkpt>
<trkpt lat="45.8425470" lon="9.2238610">
	<ele>471.20</ele>
	<time>2025-02-15T13:23:09.000Z</time>
</trkpt>
<trkpt lat="45.8425370" lon="9.2238640">
	<ele>470.80</ele>
	<time>2025-02-15T13:23:10.000Z</time>
</trkpt>
<trkpt lat="45.8425230" lon="9.2238620">
	<ele>470.60</ele>
	<time>2025-02-15T13:23:11.000Z</time>
</trkpt>
<trkpt lat="45.8425070" lon="9.2238580">
	<ele>470.40</ele>
	<time>2025-02-15T13:23:12.000Z</time>
</trkpt>
<trkpt lat="45.8424950" lon="9.2238620">
	<ele>470.20</ele>
	<time>2025-02-15T13:23:13.000Z</time>
</trkpt>
<trkpt lat="45.8424820" lon="9.2238730">
	<ele>470.00</ele>
	<time>2025-02-15T13:23:14.000Z</time>
</trkpt>
<trkpt lat="45.8424650" lon="9.2238820">
	<ele>469.60</ele>
	<time>2025-02-15T13:23:15.000Z</time>
</trkpt>
<trkpt lat="45.8424560" lon="9.2238910">
	<ele>469.40</ele>
	<time>2025-02-15T13:23:16.000Z</time>
</trkpt>
<trkpt lat="45.8424400" lon="9.2239000">
	<ele>469.00</ele>
	<time>2025-02-15T13:23:17.000Z</time>
</trkpt>
<trkpt lat="45.8424320" lon="9.2239120">
	<ele>468.80</ele>
	<time>2025-02-15T13:23:18.000Z</time>
</trkpt>
<trkpt lat="45.8424290" lon="9.2239200">
	<ele>468.60</ele>
	<time>2025-02-15T13:23:19.000Z</time>
</trkpt>
<trkpt lat="45.8424280" lon="9.2239300">
	<ele>468.40</ele>
	<time>2025-02-15T13:23:20.000Z</time>
</trkpt>
<trkpt lat="45.8424220" lon="9.2239320">
	<ele>468.20</ele>
	<time>2025-02-15T13:23:21.000Z</time>
</trkpt>
<trkpt lat="45.8424090" lon="9.2239300">
	<ele>468.00</ele>
	<time>2025-02-15T13:23:22.000Z</time>
</trkpt>
<trkpt lat="45.8423870" lon="9.2239240">
	<ele>467.80</ele>
	<time>2025-02-15T13:23:23.000Z</time>
</trkpt>
<trkpt lat="45.8423650" lon="9.2239250">
	<ele>467.60</ele>
	<time>2025-02-15T13:23:24.000Z</time>
</trkpt>
<trkpt lat="45.8423530" lon="9.2239340">
	<ele>467.60</ele>
	<time>2025-02-15T13:23:25.000Z</time>
</trkpt>
<trkpt lat="45.8423470" lon="9.2239460">
	<ele>467.60</ele>
	<time>2025-02-15T13:23:26.000Z</time>
</trkpt>
<trkpt lat="45.8423360" lon="9.2239550">
	<ele>467.40</ele>
	<time>2025-02-15T13:23:27.000Z</time>
</trkpt>
<trkpt lat="45.8423190" lon="9.2239570">
	<ele>467.20</ele>
	<time>2025-02-15T13:23:28.000Z</time>
</trkpt>
<trkpt lat="45.8423090" lon="9.2239580">
	<ele>467.00</ele>
	<time>2025-02-15T13:23:29.000Z</time>
</trkpt>
<trkpt lat="45.8423000" lon="9.2239630">
	<ele>467.00</ele>
	<time>2025-02-15T13:23:30.000Z</time>
</trkpt>
<trkpt lat="45.8422940" lon="9.2239720">
	<ele>466.80</ele>
	<time>2025-02-15T13:23:31.000Z</time>
</trkpt>
<trkpt lat="45.8422840" lon="9.2239780">
	<ele>466.80</ele>
	<time>2025-02-15T13:23:32.000Z</time>
</trkpt>
<trkpt lat="45.8422750" lon="9.2239840">
	<ele>466.60</ele>
	<time>2025-02-15T13:23:33.000Z</time>
</trkpt>
<trkpt lat="45.8422580" lon="9.2239890">
	<ele>466.40</ele>
	<time>2025-02-15T13:23:34.000Z</time>
</trkpt>
<trkpt lat="45.8422420" lon="9.2239890">
	<ele>466.20</ele>
	<time>2025-02-15T13:23:35.000Z</time>
</trkpt>
<trkpt lat="45.8422300" lon="9.2239900">
	<ele>466.00</ele>
	<time>2025-02-15T13:23:36.000Z</time>
</trkpt>
<trkpt lat="45.8422150" lon="9.2239850">
	<ele>465.80</ele>
	<time>2025-02-15T13:23:37.000Z</time>
</trkpt>
<trkpt lat="45.8422050" lon="9.2239840">
	<ele>465.60</ele>
	<time>2025-02-15T13:23:38.000Z</time>
</trkpt>
<trkpt lat="45.8421950" lon="9.2239830">
	<ele>465.40</ele>
	<time>2025-02-15T13:23:39.000Z</time>
</trkpt>
<trkpt lat="45.8421850" lon="9.2239820">
	<ele>465.40</ele>
	<time>2025-02-15T13:23:40.000Z</time>
</trkpt>
<trkpt lat="45.8421760" lon="9.2239930">
	<ele>465.20</ele>
	<time>2025-02-15T13:23:41.000Z</time>
</trkpt>
<trkpt lat="45.8421750" lon="9.2240130">
	<ele>465.20</ele>
	<time>2025-02-15T13:23:42.000Z</time>
</trkpt>
<trkpt lat="45.8421600" lon="9.2240160">
	<ele>465.00</ele>
	<time>2025-02-15T13:23:43.000Z</time>
</trkpt>
<trkpt lat="45.8421490" lon="9.2240140">
	<ele>464.80</ele>
	<time>2025-02-15T13:23:44.000Z</time>
</trkpt>
<trkpt lat="45.8421400" lon="9.2240120">
	<ele>464.40</ele>
	<time>2025-02-15T13:23:45.000Z</time>
</trkpt>
<trkpt lat="45.8421300" lon="9.2240110">
	<ele>464.20</ele>
	<time>2025-02-15T13:23:46.000Z</time>
</trkpt>
<trkpt lat="45.8421250" lon="9.2240110">
	<ele>464.00</ele>
	<time>2025-02-15T13:23:47.000Z</time>
</trkpt>
<trkpt lat="45.8421180" lon="9.2240140">
	<ele>463.60</ele>
	<time>2025-02-15T13:23:48.000Z</time>
</trkpt>
<trkpt lat="45.8421090" lon="9.2240220">
	<ele>463.40</ele>
	<time>2025-02-15T13:23:49.000Z</time>
</trkpt>
<trkpt lat="45.8420980" lon="9.2240310">
	<ele>463.20</ele>
	<time>2025-02-15T13:23:50.000Z</time>
</trkpt>
<trkpt lat="45.8420910" lon="9.2240400">
	<ele>463.00</ele>
	<time>2025-02-15T13:23:51.000Z</time>
</trkpt>
<trkpt lat="45.8420820" lon="9.2240450">
	<ele>463.00</ele>
	<time>2025-02-15T13:23:52.000Z</time>
</trkpt>
<trkpt lat="45.8420690" lon="9.2240440">
	<ele>462.80</ele>
	<time>2025-02-15T13:23:53.000Z</time>
</trkpt>
<trkpt lat="45.8420590" lon="9.2240450">
	<ele>462.60</ele>
	<time>2025-02-15T13:23:54.000Z</time>
</trkpt>
<trkpt lat="45.8420500" lon="9.2240460">
	<ele>462.60</ele>
	<time>2025-02-15T13:23:55.000Z</time>
</trkpt>
<trkpt lat="45.8420440" lon="9.2240520">
	<ele>462.40</ele>
	<time>2025-02-15T13:23:56.000Z</time>
</trkpt>
<trkpt lat="45.8420320" lon="9.2240510">
	<ele>462.20</ele>
	<time>2025-02-15T13:23:57.000Z</time>
</trkpt>
<trkpt lat="45.8420220" lon="9.2240540">
	<ele>462.00</ele>
	<time>2025-02-15T13:23:58.000Z</time>
</trkpt>
<trkpt lat="45.8420100" lon="9.2240580">
	<ele>461.80</ele>
	<time>2025-02-15T13:23:59.000Z</time>
</trkpt>
<trkpt lat="45.8419950" lon="9.2240600">
	<ele>461.60</ele>
	<time>2025-02-15T13:24:00.000Z</time>
</trkpt>
<trkpt lat="45.8419820" lon="9.2240630">
	<ele>461.40</ele>
	<time>2025-02-15T13:24:01.000Z</time>
</trkpt>
<trkpt lat="45.8419720" lon="9.2240600">
	<ele>461.20</ele>
	<time>2025-02-15T13:24:02.000Z</time>
</trkpt>
<trkpt lat="45.8419660" lon="9.2240620">
	<ele>461.00</ele>
	<time>2025-02-15T13:24:03.000Z</time>
</trkpt>
<trkpt lat="45.8419590" lon="9.2240660">
	<ele>460.80</ele>
	<time>2025-02-15T13:24:04.000Z</time>
</trkpt>
<trkpt lat="45.8419500" lon="9.2240690">
	<ele>460.60</ele>
	<time>2025-02-15T13:24:05.000Z</time>
</trkpt>
<trkpt lat="45.8419380" lon="9.2240700">
	<ele>460.40</ele>
	<time>2025-02-15T13:24:06.000Z</time>
</trkpt>
<trkpt lat="45.8419260" lon="9.2240680">
	<ele>460.20</ele>
	<time>2025-02-15T13:24:07.000Z</time>
</trkpt>
<trkpt lat="45.8419120" lon="9.2240660">
	<ele>460.00</ele>
	<time>2025-02-15T13:24:08.000Z</time>
</trkpt>
<trkpt lat="45.8418980" lon="9.2240650">
	<ele>459.80</ele>
	<time>2025-02-15T13:24:09.000Z</time>
</trkpt>
<trkpt lat="45.8418850" lon="9.2240660">
	<ele>459.60</ele>
	<time>2025-02-15T13:24:10.000Z</time>
</trkpt>
<trkpt lat="45.8418740" lon="9.2240650">
	<ele>459.40</ele>
	<time>2025-02-15T13:24:11.000Z</time>
</trkpt>
<trkpt lat="45.8418630" lon="9.2240620">
	<ele>459.00</ele>
	<time>2025-02-15T13:24:12.000Z</time>
</trkpt>
<trkpt lat="45.8418580" lon="9.2240670">
	<ele>458.80</ele>
	<time>2025-02-15T13:24:13.000Z</time>
</trkpt>
<trkpt lat="45.8418540" lon="9.2240730">
	<ele>458.80</ele>
	<time>2025-02-15T13:24:14.000Z</time>
</trkpt>
<trkpt lat="45.8418430" lon="9.2240780">
	<ele>458.60</ele>
	<time>2025-02-15T13:24:15.000Z</time>
</trkpt>
<trkpt lat="45.8418310" lon="9.2240800">
	<ele>458.40</ele>
	<time>2025-02-15T13:24:16.000Z</time>
</trkpt>
<trkpt lat="45.8418150" lon="9.2240720">
	<ele>458.20</ele>
	<time>2025-02-15T13:24:17.000Z</time>
</trkpt>
<trkpt lat="45.8418030" lon="9.2240700">
	<ele>458.00</ele>
	<time>2025-02-15T13:24:18.000Z</time>
</trkpt>
<trkpt lat="45.8417880" lon="9.2240660">
	<ele>457.80</ele>
	<time>2025-02-15T13:24:19.000Z</time>
</trkpt>
<trkpt lat="45.8417760" lon="9.2240660">
	<ele>457.80</ele>
	<time>2025-02-15T13:24:20.000Z</time>
</trkpt>
<trkpt lat="45.8417660" lon="9.2240680">
	<ele>457.60</ele>
	<time>2025-02-15T13:24:21.000Z</time>
</trkpt>
<trkpt lat="45.8417540" lon="9.2240720">
	<ele>457.40</ele>
	<time>2025-02-15T13:24:22.000Z</time>
</trkpt>
<trkpt lat="45.8417440" lon="9.2240730">
	<ele>457.00</ele>
	<time>2025-02-15T13:24:23.000Z</time>
</trkpt>
<trkpt lat="45.8417340" lon="9.2240720">
	<ele>456.80</ele>
	<time>2025-02-15T13:24:24.000Z</time>
</trkpt>
<trkpt lat="45.8417240" lon="9.2240710">
	<ele>456.60</ele>
	<time>2025-02-15T13:24:25.000Z</time>
</trkpt>
<trkpt lat="45.8417140" lon="9.2240680">
	<ele>456.40</ele>
	<time>2025-02-15T13:24:26.000Z</time>
</trkpt>
<trkpt lat="45.8417040" lon="9.2240680">
	<ele>456.00</ele>
	<time>2025-02-15T13:24:27.000Z</time>
</trkpt>
<trkpt lat="45.8416960" lon="9.2240680">
	<ele>456.00</ele>
	<time>2025-02-15T13:24:28.000Z</time>
</trkpt>
<trkpt lat="45.8416900" lon="9.2240710">
	<ele>455.60</ele>
	<time>2025-02-15T13:24:29.000Z</time>
</trkpt>
<trkpt lat="45.8416830" lon="9.2240750">
	<ele>455.40</ele>
	<time>2025-02-15T13:24:30.000Z</time>
</trkpt>
<trkpt lat="45.8416750" lon="9.2240810">
	<ele>455.20</ele>
	<time>2025-02-15T13:24:31.000Z</time>
</trkpt>
<trkpt lat="45.8416680" lon="9.2240880">
	<ele>455.00</ele>
	<time>2025-02-15T13:24:32.000Z</time>
</trkpt>
<trkpt lat="45.8416600" lon="9.2240950">
	<ele>454.80</ele>
	<time>2025-02-15T13:24:33.000Z</time>
</trkpt>
<trkpt lat="45.8416530" lon="9.2241000">
	<ele>454.60</ele>
	<time>2025-02-15T13:24:34.000Z</time>
</trkpt>
<trkpt lat="45.8416410" lon="9.2241020">
	<ele>454.60</ele>
	<time>2025-02-15T13:24:35.000Z</time>
</trkpt>
<trkpt lat="45.8416310" lon="9.2240990">
	<ele>454.40</ele>
	<time>2025-02-15T13:24:36.000Z</time>
</trkpt>
<trkpt lat="45.8416200" lon="9.2241000">
	<ele>454.00</ele>
	<time>2025-02-15T13:24:37.000Z</time>
</trkpt>
<trkpt lat="45.8416090" lon="9.2241040">
	<ele>453.80</ele>
	<time>2025-02-15T13:24:38.000Z</time>
</trkpt>
<trkpt lat="45.8415970" lon="9.2241060">
	<ele>453.60</ele>
	<time>2025-02-15T13:24:39.000Z</time>
</trkpt>
<trkpt lat="45.8415860" lon="9.2241060">
	<ele>453.40</ele>
	<time>2025-02-15T13:24:40.000Z</time>
</trkpt>
<trkpt lat="45.8415760" lon="9.2241070">
	<ele>453.20</ele>
	<time>2025-02-15T13:24:41.000Z</time>
</trkpt>
<trkpt lat="45.8415680" lon="9.2241050">
	<ele>453.00</ele>
	<time>2025-02-15T13:24:42.000Z</time>
</trkpt>
<trkpt lat="45.8415600" lon="9.2241090">
	<ele>452.80</ele>
	<time>2025-02-15T13:24:43.000Z</time>
</trkpt>
<trkpt lat="45.8415520" lon="9.2241100">
	<ele>452.60</ele>
	<time>2025-02-15T13:24:44.000Z</time>
</trkpt>
<trkpt lat="45.8415420" lon="9.2241120">
	<ele>452.40</ele>
	<time>2025-02-15T13:24:45.000Z</time>
</trkpt>
<trkpt lat="45.8415270" lon="9.2241140">
	<ele>452.40</ele>
	<time>2025-02-15T13:24:46.000Z</time>
</trkpt>
<trkpt lat="45.8415130" lon="9.2241090">
	<ele>452.20</ele>
	<time>2025-02-15T13:24:47.000Z</time>
</trkpt>
<trkpt lat="45.8414950" lon="9.2241010">
	<ele>452.00</ele>
	<time>2025-02-15T13:24:48.000Z</time>
</trkpt>
<trkpt lat="45.8414780" lon="9.2240970">
	<ele>451.80</ele>
	<time>2025-02-15T13:24:49.000Z</time>
</trkpt>
<trkpt lat="45.8414620" lon="9.2240960">
	<ele>451.40</ele>
	<time>2025-02-15T13:24:50.000Z</time>
</trkpt>
<trkpt lat="45.8414500" lon="9.2240960">
	<ele>451.20</ele>
	<time>2025-02-15T13:24:51.000Z</time>
</trkpt>
<trkpt lat="45.8414430" lon="9.2241010">
	<ele>451.20</ele>
	<time>2025-02-15T13:24:52.000Z</time>
</trkpt>
<trkpt lat="45.8414370" lon="9.2241060">
	<ele>450.80</ele>
	<time>2025-02-15T13:24:53.000Z</time>
</trkpt>
<trkpt lat="45.8414270" lon="9.2241130">
	<ele>450.80</ele>
	<time>2025-02-15T13:24:54.000Z</time>
</trkpt>
<trkpt lat="45.8414170" lon="9.2241180">
	<ele>450.60</ele>
	<time>2025-02-15T13:24:55.000Z</time>
</trkpt>
<trkpt lat="45.8414040" lon="9.2241090">
	<ele>450.40</ele>
	<time>2025-02-15T13:24:56.000Z</time>
</trkpt>
<trkpt lat="45.8413880" lon="9.2241030">
	<ele>450.40</ele>
	<time>2025-02-15T13:24:57.000Z</time>
</trkpt>
<trkpt lat="45.8413750" lon="9.2241010">
	<ele>450.20</ele>
	<time>2025-02-15T13:24:58.000Z</time>
</trkpt>
<trkpt lat="45.8413620" lon="9.2240990">
	<ele>450.00</ele>
	<time>2025-02-15T13:24:59.000Z</time>
</trkpt>
<trkpt lat="45.8413490" lon="9.2240920">
	<ele>450.00</ele>
	<time>2025-02-15T13:25:00.000Z</time>
</trkpt>
<trkpt lat="45.8413340" lon="9.2240940">
	<ele>449.80</ele>
	<time>2025-02-15T13:25:01.000Z</time>
</trkpt>
<trkpt lat="45.8413250" lon="9.2240950">
	<ele>449.40</ele>
	<time>2025-02-15T13:25:02.000Z</time>
</trkpt>
<trkpt lat="45.8413120" lon="9.2240930">
	<ele>449.20</ele>
	<time>2025-02-15T13:25:03.000Z</time>
</trkpt>
<trkpt lat="45.8412990" lon="9.2240910">
	<ele>449.00</ele>
	<time>2025-02-15T13:25:04.000Z</time>
</trkpt>
<trkpt lat="45.8412900" lon="9.2240900">
	<ele>448.80</ele>
	<time>2025-02-15T13:25:05.000Z</time>
</trkpt>
<trkpt lat="45.8412790" lon="9.2240910">
	<ele>448.60</ele>
	<time>2025-02-15T13:25:06.000Z</time>
</trkpt>
<trkpt lat="45.8412660" lon="9.2241000">
	<ele>448.20</ele>
	<time>2025-02-15T13:25:07.000Z</time>
</trkpt>
<trkpt lat="45.8412530" lon="9.2241040">
	<ele>448.00</ele>
	<time>2025-02-15T13:25:08.000Z</time>
</trkpt>
<trkpt lat="45.8412380" lon="9.2241050">
	<ele>448.00</ele>
	<time>2025-02-15T13:25:09.000Z</time>
</trkpt>
<trkpt lat="45.8412260" lon="9.2241020">
	<ele>447.80</ele>
	<time>2025-02-15T13:25:10.000Z</time>
</trkpt>
<trkpt lat="45.8412150" lon="9.2241020">
	<ele>447.60</ele>
	<time>2025-02-15T13:25:11.000Z</time>
</trkpt>
<trkpt lat="45.8412020" lon="9.2241030">
	<ele>447.20</ele>
	<time>2025-02-15T13:25:12.000Z</time>
</trkpt>
<trkpt lat="45.8411910" lon="9.2241030">
	<ele>447.00</ele>
	<time>2025-02-15T13:25:13.000Z</time>
</trkpt>
<trkpt lat="45.8411800" lon="9.2241010">
	<ele>447.00</ele>
	<time>2025-02-15T13:25:14.000Z</time>
</trkpt>
<trkpt lat="45.8411690" lon="9.2240950">
	<ele>446.80</ele>
	<time>2025-02-15T13:25:15.000Z</time>
</trkpt>
<trkpt lat="45.8411560" lon="9.2240930">
	<ele>446.60</ele>
	<time>2025-02-15T13:25:16.000Z</time>
</trkpt>
<trkpt lat="45.8411480" lon="9.2240950">
	<ele>446.60</ele>
	<time>2025-02-15T13:25:17.000Z</time>
</trkpt>
<trkpt lat="45.8411390" lon="9.2240930">
	<ele>446.40</ele>
	<time>2025-02-15T13:25:18.000Z</time>
</trkpt>
<trkpt lat="45.8411270" lon="9.2240880">
	<ele>446.40</ele>
	<time>2025-02-15T13:25:19.000Z</time>
</trkpt>
<trkpt lat="45.8411140" lon="9.2240830">
	<ele>446.00</ele>
	<time>2025-02-15T13:25:20.000Z</time>
</trkpt>
<trkpt lat="45.8410980" lon="9.2240780">
	<ele>445.80</ele>
	<time>2025-02-15T13:25:21.000Z</time>
</trkpt>
<trkpt lat="45.8410880" lon="9.2240720">
	<ele>445.60</ele>
	<time>2025-02-15T13:25:22.000Z</time>
</trkpt>
<trkpt lat="45.8410810" lon="9.2240730">
	<ele>445.40</ele>
	<time>2025-02-15T13:25:23.000Z</time>
</trkpt>
<trkpt lat="45.8410710" lon="9.2240770">
	<ele>445.40</ele>
	<time>2025-02-15T13:25:24.000Z</time>
</trkpt>
<trkpt lat="45.8410570" lon="9.2240800">
	<ele>445.20</ele>
	<time>2025-02-15T13:25:25.000Z</time>
</trkpt>
<trkpt lat="45.8410470" lon="9.2240790">
	<ele>445.00</ele>
	<time>2025-02-15T13:25:26.000Z</time>
</trkpt>
<trkpt lat="45.8410370" lon="9.2240830">
	<ele>444.60</ele>
	<time>2025-02-15T13:25:27.000Z</time>
</trkpt>
<trkpt lat="45.8410270" lon="9.2240830">
	<ele>444.60</ele>
	<time>2025-02-15T13:25:28.000Z</time>
</trkpt>
<trkpt lat="45.8410160" lon="9.2240850">
	<ele>444.40</ele>
	<time>2025-02-15T13:25:29.000Z</time>
</trkpt>
<trkpt lat="45.8410040" lon="9.2240910">
	<ele>444.40</ele>
	<time>2025-02-15T13:25:30.000Z</time>
</trkpt>
<trkpt lat="45.8409920" lon="9.2240970">
	<ele>444.20</ele>
	<time>2025-02-15T13:25:31.000Z</time>
</trkpt>
<trkpt lat="45.8409790" lon="9.2240980">
	<ele>444.00</ele>
	<time>2025-02-15T13:25:32.000Z</time>
</trkpt>
<trkpt lat="45.8409660" lon="9.2240960">
	<ele>444.00</ele>
	<time>2025-02-15T13:25:33.000Z</time>
</trkpt>
<trkpt lat="45.8409530" lon="9.2240950">
	<ele>443.80</ele>
	<time>2025-02-15T13:25:34.000Z</time>
</trkpt>
<trkpt lat="45.8409400" lon="9.2240910">
	<ele>443.40</ele>
	<time>2025-02-15T13:25:35.000Z</time>
</trkpt>
<trkpt lat="45.8409280" lon="9.2240870">
	<ele>443.20</ele>
	<time>2025-02-15T13:25:36.000Z</time>
</trkpt>
<trkpt lat="45.8409190" lon="9.2240890">
	<ele>443.00</ele>
	<time>2025-02-15T13:25:37.000Z</time>
</trkpt>
<trkpt lat="45.8409120" lon="9.2240960">
	<ele>443.00</ele>
	<time>2025-02-15T13:25:38.000Z</time>
</trkpt>
<trkpt lat="45.8409040" lon="9.2240980">
	<ele>442.80</ele>
	<time>2025-02-15T13:25:39.000Z</time>
</trkpt>
<trkpt lat="45.8408920" lon="9.2241020">
	<ele>442.60</ele>
	<time>2025-02-15T13:25:40.000Z</time>
</trkpt>
<trkpt lat="45.8408830" lon="9.2241070">
	<ele>442.40</ele>
	<time>2025-02-15T13:25:41.000Z</time>
</trkpt>
<trkpt lat="45.8408710" lon="9.2241110">
	<ele>442.20</ele>
	<time>2025-02-15T13:25:42.000Z</time>
</trkpt>
<trkpt lat="45.8408590" lon="9.2241180">
	<ele>442.00</ele>
	<time>2025-02-15T13:25:43.000Z</time>
</trkpt>
<trkpt lat="45.8408440" lon="9.2241220">
	<ele>441.80</ele>
	<time>2025-02-15T13:25:44.000Z</time>
</trkpt>
<trkpt lat="45.8408260" lon="9.2241250">
	<ele>441.80</ele>
	<time>2025-02-15T13:25:45.000Z</time>
</trkpt>
<trkpt lat="45.8408130" lon="9.2241270">
	<ele>441.40</ele>
	<time>2025-02-15T13:25:46.000Z</time>
</trkpt>
<trkpt lat="45.8408040" lon="9.2241260">
	<ele>441.20</ele>
	<time>2025-02-15T13:25:47.000Z</time>
</trkpt>
<trkpt lat="45.8407970" lon="9.2241300">
	<ele>441.20</ele>
	<time>2025-02-15T13:25:48.000Z</time>
</trkpt>
<trkpt lat="45.8407870" lon="9.2241310">
	<ele>441.00</ele>
	<time>2025-02-15T13:25:49.000Z</time>
</trkpt>
<trkpt lat="45.8407760" lon="9.2241310">
	<ele>441.00</ele>
	<time>2025-02-15T13:25:50.000Z</time>
</trkpt>
<trkpt lat="45.8407640" lon="9.2241330">
	<ele>440.80</ele>
	<time>2025-02-15T13:25:51.000Z</time>
</trkpt>
<trkpt lat="45.8407560" lon="9.2241330">
	<ele>440.80</ele>
	<time>2025-02-15T13:25:52.000Z</time>
</trkpt>
<trkpt lat="45.8407470" lon="9.2241280">
	<ele>440.40</ele>
	<time>2025-02-15T13:25:53.000Z</time>
</trkpt>
<trkpt lat="45.8407350" lon="9.2241250">
	<ele>440.20</ele>
	<time>2025-02-15T13:25:54.000Z</time>
</trkpt>
<trkpt lat="45.8407230" lon="9.2241280">
	<ele>440.00</ele>
	<time>2025-02-15T13:25:55.000Z</time>
</trkpt>
<trkpt lat="45.8407090" lon="9.2241220">
	<ele>440.00</ele>
	<time>2025-02-15T13:25:56.000Z</time>
</trkpt>
<trkpt lat="45.8407050" lon="9.2241250">
	<ele>439.80</ele>
	<time>2025-02-15T13:25:57.000Z</time>
</trkpt>
<trkpt lat="45.8407010" lon="9.2241280">
	<ele>439.80</ele>
	<time>2025-02-15T13:25:58.000Z</time>
</trkpt>
<trkpt lat="45.8407010" lon="9.2241360">
	<ele>439.60</ele>
	<time>2025-02-15T13:25:59.000Z</time>
</trkpt>
<trkpt lat="45.8406960" lon="9.2241340">
	<ele>439.60</ele>
	<time>2025-02-15T13:26:00.000Z</time>
</trkpt>
<trkpt lat="45.8406920" lon="9.2241320">
	<ele>439.40</ele>
	<time>2025-02-15T13:26:01.000Z</time>
</trkpt>
<trkpt lat="45.8406910" lon="9.2241350">
	<ele>439.20</ele>
	<time>2025-02-15T13:26:02.000Z</time>
</trkpt>
<trkpt lat="45.8406880" lon="9.2241360">
	<ele>439.00</ele>
	<time>2025-02-15T13:26:03.000Z</time>
</trkpt>
<trkpt lat="45.8406870" lon="9.2241400">
	<ele>439.00</ele>
	<time>2025-02-15T13:26:04.000Z</time>
</trkpt>
<trkpt lat="45.8406860" lon="9.2241420">
	<ele>439.00</ele>
	<time>2025-02-15T13:26:05.000Z</time>
</trkpt>
<trkpt lat="45.8406890" lon="9.2241430">
	<ele>439.00</ele>
	<time>2025-02-15T13:26:06.000Z</time>
</trkpt>
<trkpt lat="45.8406870" lon="9.2241440">
	<ele>439.00</ele>
	<time>2025-02-15T13:26:07.000Z</time>
</trkpt>
<trkpt lat="45.8406860" lon="9.2241440">
	<ele>439.00</ele>
	<time>2025-02-15T13:26:08.000Z</time>
</trkpt>
<trkpt lat="45.8406850" lon="9.2241440">
	<ele>439.00</ele>
	<time>2025-02-15T13:26:09.000Z</time>
</trkpt>
<trkpt lat="45.8406840" lon="9.2241450">
	<ele>439.00</ele>
	<time>2025-02-15T13:26:10.000Z</time>
</trkpt>
<trkpt lat="45.8406840" lon="9.2241450">
	<ele>439.00</ele>
	<time>2025-02-15T13:26:11.000Z</time>
</trkpt>
<trkpt lat="45.8406840" lon="9.2241450">
	<ele>439.00</ele>
	<time>2025-02-15T13:26:12.000Z</time>
</trkpt>
<trkpt lat="45.8406840" lon="9.2241450">
	<ele>439.00</ele>
	<time>2025-02-15T13:26:13.000Z</time>
</trkpt>
<trkpt lat="45.8406840" lon="9.2241450">
	<ele>438.80</ele>
	<time>2025-02-15T13:26:14.000Z</time>
</trkpt>
<trkpt lat="45.8406800" lon="9.2241450">
	<ele>438.60</ele>
	<time>2025-02-15T13:26:15.000Z</time>
</trkpt>
<trkpt lat="45.8406660" lon="9.2241460">
	<ele>438.40</ele>
	<time>2025-02-15T13:26:16.000Z</time>
</trkpt>
<trkpt lat="45.8406490" lon="9.2241440">
	<ele>438.40</ele>
	<time>2025-02-15T13:26:17.000Z</time>
</trkpt>
<trkpt lat="45.8406310" lon="9.2241410">
	<ele>438.40</ele>
	<time>2025-02-15T13:26:18.000Z</time>
</trkpt>
<trkpt lat="45.8406140" lon="9.2241380">
	<ele>438.20</ele>
	<time>2025-02-15T13:26:19.000Z</time>
</trkpt>
<trkpt lat="45.8405980" lon="9.2241380">
	<ele>438.20</ele>
	<time>2025-02-15T13:26:20.000Z</time>
</trkpt>
<trkpt lat="45.8405810" lon="9.2241380">
	<ele>438.00</ele>
	<time>2025-02-15T13:26:21.000Z</time>
</trkpt>
<trkpt lat="45.8405650" lon="9.2241420">
	<ele>437.80</ele>
	<time>2025-02-15T13:26:22.000Z</time>
</trkpt>
<trkpt lat="45.8405510" lon="9.2241480">
	<ele>437.60</ele>
	<time>2025-02-15T13:26:23.000Z</time>
</trkpt>
<trkpt lat="45.8405330" lon="9.2241420">
	<ele>437.40</ele>
	<time>2025-02-15T13:26:24.000Z</time>
</trkpt>
<trkpt lat="45.8405160" lon="9.2241400">
	<ele>437.20</ele>
	<time>2025-02-15T13:26:25.000Z</time>
</trkpt>
<trkpt lat="45.8405000" lon="9.2241300">
	<ele>437.20</ele>
	<time>2025-02-15T13:26:26.000Z</time>
</trkpt>
<trkpt lat="45.8404830" lon="9.2241240">
	<ele>437.00</ele>
	<time>2025-02-15T13:26:27.000Z</time>
</trkpt>
<trkpt lat="45.8404660" lon="9.2241240">
	<ele>436.80</ele>
	<time>2025-02-15T13:26:28.000Z</time>
</trkpt>
<trkpt lat="45.8404520" lon="9.2241200">
	<ele>436.60</ele>
	<time>2025-02-15T13:26:29.000Z</time>
</trkpt>
<trkpt lat="45.8404400" lon="9.2241180">
	<ele>436.60</ele>
	<time>2025-02-15T13:26:30.000Z</time>
</trkpt>
<trkpt lat="45.8404280" lon="9.2241180">
	<ele>436.40</ele>
	<time>2025-02-15T13:26:31.000Z</time>
</trkpt>
<trkpt lat="45.8404160" lon="9.2241150">
	<ele>436.20</ele>
	<time>2025-02-15T13:26:32.000Z</time>
</trkpt>
<trkpt lat="45.8404040" lon="9.2241240">
	<ele>436.20</ele>
	<time>2025-02-15T13:26:33.000Z</time>
</trkpt>
<trkpt lat="45.8403910" lon="9.2241270">
	<ele>436.20</ele>
	<time>2025-02-15T13:26:34.000Z</time>
</trkpt>
<trkpt lat="45.8403790" lon="9.2241350">
	<ele>436.20</ele>
	<time>2025-02-15T13:26:35.000Z</time>
</trkpt>
<trkpt lat="45.8403670" lon="9.2241360">
	<ele>436.20</ele>
	<time>2025-02-15T13:26:36.000Z</time>
</trkpt>
<trkpt lat="45.8403530" lon="9.2241370">
	<ele>436.20</ele>
	<time>2025-02-15T13:26:37.000Z</time>
</trkpt>
<trkpt lat="45.8403410" lon="9.2241410">
	<ele>436.00</ele>
	<time>2025-02-15T13:26:38.000Z</time>
</trkpt>
<trkpt lat="45.8403300" lon="9.2241430">
	<ele>435.80</ele>
	<time>2025-02-15T13:26:39.000Z</time>
</trkpt>
<trkpt lat="45.8403200" lon="9.2241480">
	<ele>435.60</ele>
	<time>2025-02-15T13:26:40.000Z</time>
</trkpt>
<trkpt lat="45.8403100" lon="9.2241540">
	<ele>435.20</ele>
	<time>2025-02-15T13:26:41.000Z</time>
</trkpt>
<trkpt lat="45.8402980" lon="9.2241530">
	<ele>435.00</ele>
	<time>2025-02-15T13:26:42.000Z</time>
</trkpt>
<trkpt lat="45.8402870" lon="9.2241520">
	<ele>434.60</ele>
	<time>2025-02-15T13:26:43.000Z</time>
</trkpt>
<trkpt lat="45.8402740" lon="9.2241540">
	<ele>434.40</ele>
	<time>2025-02-15T13:26:44.000Z</time>
</trkpt>
<trkpt lat="45.8402650" lon="9.2241580">
	<ele>434.20</ele>
	<time>2025-02-15T13:26:45.000Z</time>
</trkpt>
<trkpt lat="45.8402540" lon="9.2241590">
	<ele>434.20</ele>
	<time>2025-02-15T13:26:46.000Z</time>
</trkpt>
<trkpt lat="45.8402430" lon="9.2241620">
	<ele>434.00</ele>
	<time>2025-02-15T13:26:47.000Z</time>
</trkpt>
<trkpt lat="45.8402300" lon="9.2241610">
	<ele>433.80</ele>
	<time>2025-02-15T13:26:48.000Z</time>
</trkpt>
<trkpt lat="45.8402180" lon="9.2241640">
	<ele>433.40</ele>
	<time>2025-02-15T13:26:49.000Z</time>
</trkpt>
<trkpt lat="45.8402050" lon="9.2241630">
	<ele>433.20</ele>
	<time>2025-02-15T13:26:50.000Z</time>
</trkpt>
<trkpt lat="45.8401910" lon="9.2241700">
	<ele>433.00</ele>
	<time>2025-02-15T13:26:51.000Z</time>
</trkpt>
<trkpt lat="45.8401770" lon="9.2241700">
	<ele>432.80</ele>
	<time>2025-02-15T13:26:52.000Z</time>
</trkpt>
<trkpt lat="45.8401620" lon="9.2241750">
	<ele>432.60</ele>
	<time>2025-02-15T13:26:53.000Z</time>
</trkpt>
<trkpt lat="45.8401490" lon="9.2241730">
	<ele>432.40</ele>
	<time>2025-02-15T13:26:54.000Z</time>
</trkpt>
<trkpt lat="45.8401320" lon="9.2241770">
	<ele>432.20</ele>
	<time>2025-02-15T13:26:55.000Z</time>
</trkpt>
<trkpt lat="45.8401140" lon="9.2241810">
	<ele>432.20</ele>
	<time>2025-02-15T13:26:56.000Z</time>
</trkpt>
<trkpt lat="45.8400990" lon="9.2241850">
	<ele>432.00</ele>
	<time>2025-02-15T13:26:57.000Z</time>
</trkpt>
<trkpt lat="45.8400820" lon="9.2241930">
	<ele>431.80</ele>
	<time>2025-02-15T13:26:58.000Z</time>
</trkpt>
<trkpt lat="45.8400670" lon="9.2241990">
	<ele>431.40</ele>
	<time>2025-02-15T13:26:59.000Z</time>
</trkpt>
<trkpt lat="45.8400580" lon="9.2241990">
	<ele>431.20</ele>
	<time>2025-02-15T13:27:00.000Z</time>
</trkpt>
<trkpt lat="45.8400480" lon="9.2242000">
	<ele>431.20</ele>
	<time>2025-02-15T13:27:01.000Z</time>
</trkpt>
<trkpt lat="45.8400400" lon="9.2242040">
	<ele>431.00</ele>
	<time>2025-02-15T13:27:02.000Z</time>
</trkpt>
<trkpt lat="45.8400310" lon="9.2242100">
	<ele>430.80</ele>
	<time>2025-02-15T13:27:03.000Z</time>
</trkpt>
<trkpt lat="45.8400180" lon="9.2242170">
	<ele>430.60</ele>
	<time>2025-02-15T13:27:04.000Z</time>
</trkpt>
<trkpt lat="45.8400080" lon="9.2242240">
	<ele>430.40</ele>
	<time>2025-02-15T13:27:05.000Z</time>
</trkpt>
<trkpt lat="45.8400000" lon="9.2242320">
	<ele>430.40</ele>
	<time>2025-02-15T13:27:06.000Z</time>
</trkpt>
<trkpt lat="45.8399940" lon="9.2242400">
	<ele>430.20</ele>
	<time>2025-02-15T13:27:07.000Z</time>
</trkpt>
<trkpt lat="45.8399840" lon="9.2242470">
	<ele>430.20</ele>
	<time>2025-02-15T13:27:08.000Z</time>
</trkpt>
<trkpt lat="45.8399730" lon="9.2242500">
	<ele>430.00</ele>
	<time>2025-02-15T13:27:09.000Z</time>
</trkpt>
<trkpt lat="45.8399640" lon="9.2242560">
	<ele>430.00</ele>
	<time>2025-02-15T13:27:10.000Z</time>
</trkpt>
<trkpt lat="45.8399560" lon="9.2242620">
	<ele>429.80</ele>
	<time>2025-02-15T13:27:11.000Z</time>
</trkpt>
<trkpt lat="45.8399530" lon="9.2242710">
	<ele>429.60</ele>
	<time>2025-02-15T13:27:12.000Z</time>
</trkpt>
<trkpt lat="45.8399470" lon="9.2242830">
	<ele>429.40</ele>
	<time>2025-02-15T13:27:13.000Z</time>
</trkpt>
<trkpt lat="45.8399430" lon="9.2242930">
	<ele>429.40</ele>
	<time>2025-02-15T13:27:14.000Z</time>
</trkpt>
<trkpt lat="45.8399330" lon="9.2243030">
	<ele>429.20</ele>
	<time>2025-02-15T13:27:15.000Z</time>
</trkpt>
<trkpt lat="45.8399230" lon="9.2243170">
	<ele>429.20</ele>
	<time>2025-02-15T13:27:16.000Z</time>
</trkpt>
<trkpt lat="45.8399200" lon="9.2243380">
	<ele>429.00</ele>
	<time>2025-02-15T13:27:17.000Z</time>
</trkpt>
<trkpt lat="45.8399170" lon="9.2243590">
	<ele>428.80</ele>
	<time>2025-02-15T13:27:18.000Z</time>
</trkpt>
<trkpt lat="45.8399100" lon="9.2243770">
	<ele>428.80</ele>
	<time>2025-02-15T13:27:19.000Z</time>
</trkpt>
<trkpt lat="45.8399000" lon="9.2243820">
	<ele>428.60</ele>
	<time>2025-02-15T13:27:20.000Z</time>
</trkpt>
<trkpt lat="45.8398850" lon="9.2243940">
	<ele>428.60</ele>
	<time>2025-02-15T13:27:21.000Z</time>
</trkpt>
<trkpt lat="45.8398640" lon="9.2244020">
	<ele>428.60</ele>
	<time>2025-02-15T13:27:22.000Z</time>
</trkpt>
<trkpt lat="45.8398510" lon="9.2244040">
	<ele>428.40</ele>
	<time>2025-02-15T13:27:23.000Z</time>
</trkpt>
<trkpt lat="45.8398370" lon="9.2244060">
	<ele>428.20</ele>
	<time>2025-02-15T13:27:24.000Z</time>
</trkpt>
<trkpt lat="45.8398260" lon="9.2244050">
	<ele>428.00</ele>
	<time>2025-02-15T13:27:25.000Z</time>
</trkpt>
<trkpt lat="45.8398220" lon="9.2243940">
	<ele>427.80</ele>
	<time>2025-02-15T13:27:26.000Z</time>
</trkpt>
<trkpt lat="45.8398130" lon="9.2243830">
	<ele>427.80</ele>
	<time>2025-02-15T13:27:27.000Z</time>
</trkpt>
<trkpt lat="45.8398010" lon="9.2243820">
	<ele>427.60</ele>
	<time>2025-02-15T13:27:28.000Z</time>
</trkpt>
<trkpt lat="45.8397830" lon="9.2243830">
	<ele>427.40</ele>
	<time>2025-02-15T13:27:29.000Z</time>
</trkpt>
<trkpt lat="45.8397660" lon="9.2243910">
	<ele>427.40</ele>
	<time>2025-02-15T13:27:30.000Z</time>
</trkpt>
<trkpt lat="45.8397530" lon="9.2243920">
	<ele>427.40</ele>
	<time>2025-02-15T13:27:31.000Z</time>
</trkpt>
<trkpt lat="45.8397390" lon="9.2243960">
	<ele>427.20</ele>
	<time>2025-02-15T13:27:32.000Z</time>
</trkpt>
<trkpt lat="45.8397270" lon="9.2244030">
	<ele>427.20</ele>
	<time>2025-02-15T13:27:33.000Z</time>
</trkpt>
<trkpt lat="45.8397050" lon="9.2243950">
	<ele>427.00</ele>
	<time>2025-02-15T13:27:34.000Z</time>
</trkpt>
<trkpt lat="45.8396850" lon="9.2243870">
	<ele>426.80</ele>
	<time>2025-02-15T13:27:35.000Z</time>
</trkpt>
<trkpt lat="45.8396620" lon="9.2243810">
	<ele>426.60</ele>
	<time>2025-02-15T13:27:36.000Z</time>
</trkpt>
<trkpt lat="45.8396400" lon="9.2243830">
	<ele>426.40</ele>
	<time>2025-02-15T13:27:37.000Z</time>
</trkpt>
<trkpt lat="45.8396180" lon="9.2243860">
	<ele>426.00</ele>
	<time>2025-02-15T13:27:38.000Z</time>
</trkpt>
<trkpt lat="45.8396030" lon="9.2243940">
	<ele>425.80</ele>
	<time>2025-02-15T13:27:39.000Z</time>
</trkpt>
<trkpt lat="45.8395930" lon="9.2244060">
	<ele>425.60</ele>
	<time>2025-02-15T13:27:40.000Z</time>
</trkpt>
<trkpt lat="45.8395800" lon="9.2244110">
	<ele>425.40</ele>
	<time>2025-02-15T13:27:41.000Z</time>
</trkpt>
<trkpt lat="45.8395690" lon="9.2244130">
	<ele>425.40</ele>
	<time>2025-02-15T13:27:42.000Z</time>
</trkpt>
<trkpt lat="45.8395580" lon="9.2244140">
	<ele>425.20</ele>
	<time>2025-02-15T13:27:43.000Z</time>
</trkpt>
<trkpt lat="45.8395450" lon="9.2244140">
	<ele>425.20</ele>
	<time>2025-02-15T13:27:44.000Z</time>
</trkpt>
<trkpt lat="45.8395370" lon="9.2244080">
	<ele>425.00</ele>
	<time>2025-02-15T13:27:45.000Z</time>
</trkpt>
<trkpt lat="45.8395270" lon="9.2244020">
	<ele>424.80</ele>
	<time>2025-02-15T13:27:46.000Z</time>
</trkpt>
<trkpt lat="45.8395080" lon="9.2243830">
	<ele>424.60</ele>
	<time>2025-02-15T13:27:47.000Z</time>
</trkpt>
<trkpt lat="45.8394910" lon="9.2243700">
	<ele>424.60</ele>
	<time>2025-02-15T13:27:48.000Z</time>
</trkpt>
<trkpt lat="45.8394790" lon="9.2243680">
	<ele>424.40</ele>
	<time>2025-02-15T13:27:49.000Z</time>
</trkpt>
<trkpt lat="45.8394800" lon="9.2243320">
	<ele>424.40</ele>
	<time>2025-02-15T13:27:50.000Z</time>
</trkpt>
<trkpt lat="45.8394760" lon="9.2243100">
	<ele>424.40</ele>
	<time>2025-02-15T13:27:51.000Z</time>
</trkpt>
<trkpt lat="45.8394650" lon="9.2242900">
	<ele>424.40</ele>
	<time>2025-02-15T13:27:52.000Z</time>
</trkpt>
<trkpt lat="45.8394590" lon="9.2242600">
	<ele>424.20</ele>
	<time>2025-02-15T13:27:53.000Z</time>
</trkpt>
<trkpt lat="45.8394470" lon="9.2242380">
	<ele>424.20</ele>
	<time>2025-02-15T13:27:54.000Z</time>
</trkpt>
<trkpt lat="45.8394330" lon="9.2242280">
	<ele>424.20</ele>
	<time>2025-02-15T13:27:55.000Z</time>
</trkpt>
<trkpt lat="45.8394170" lon="9.2242690">
	<ele>424.20</ele>
	<time>2025-02-15T13:27:56.000Z</time>
</trkpt>
<trkpt lat="45.8394050" lon="9.2242890">
	<ele>424.20</ele>
	<time>2025-02-15T13:27:57.000Z</time>
</trkpt>
<trkpt lat="45.8393950" lon="9.2243120">
	<ele>424.20</ele>
	<time>2025-02-15T13:27:58.000Z</time>
</trkpt>
<trkpt lat="45.8393880" lon="9.2243310">
	<ele>424.20</ele>
	<time>2025-02-15T13:27:59.000Z</time>
</trkpt>
<trkpt lat="45.8393800" lon="9.2243460">
	<ele>424.20</ele>
	<time>2025-02-15T13:28:00.000Z</time>
</trkpt>
<trkpt lat="45.8393750" lon="9.2243550">
	<ele>424.00</ele>
	<time>2025-02-15T13:28:01.000Z</time>
</trkpt>
<trkpt lat="45.8393690" lon="9.2243640">
	<ele>424.00</ele>
	<time>2025-02-15T13:28:02.000Z</time>
</trkpt>
<trkpt lat="45.8393610" lon="9.2243750">
	<ele>423.60</ele>
	<time>2025-02-15T13:28:03.000Z</time>
</trkpt>
<trkpt lat="45.8393490" lon="9.2243900">
	<ele>423.40</ele>
	<time>2025-02-15T13:28:04.000Z</time>
</trkpt>
<trkpt lat="45.8393340" lon="9.2244030">
	<ele>423.20</ele>
	<time>2025-02-15T13:28:05.000Z</time>
</trkpt>
<trkpt lat="45.8393200" lon="9.2244170">
	<ele>423.20</ele>
	<time>2025-02-15T13:28:06.000Z</time>
</trkpt>
<trkpt lat="45.8393040" lon="9.2244270">
	<ele>422.80</ele>
	<time>2025-02-15T13:28:07.000Z</time>
</trkpt>
<trkpt lat="45.8392880" lon="9.2244380">
	<ele>422.60</ele>
	<time>2025-02-15T13:28:08.000Z</time>
</trkpt>
<trkpt lat="45.8392790" lon="9.2244530">
	<ele>422.40</ele>
	<time>2025-02-15T13:28:09.000Z</time>
</trkpt>
<trkpt lat="45.8392730" lon="9.2244650">
	<ele>422.20</ele>
	<time>2025-02-15T13:28:10.000Z</time>
</trkpt>
<trkpt lat="45.8392670" lon="9.2244790">
	<ele>422.00</ele>
	<time>2025-02-15T13:28:11.000Z</time>
</trkpt>
<trkpt lat="45.8392620" lon="9.2244890">
	<ele>422.00</ele>
	<time>2025-02-15T13:28:12.000Z</time>
</trkpt>
<trkpt lat="45.8392480" lon="9.2244960">
	<ele>421.80</ele>
	<time>2025-02-15T13:28:13.000Z</time>
</trkpt>
<trkpt lat="45.8392300" lon="9.2245020">
	<ele>421.40</ele>
	<time>2025-02-15T13:28:14.000Z</time>
</trkpt>
<trkpt lat="45.8392110" lon="9.2245020">
	<ele>421.20</ele>
	<time>2025-02-15T13:28:15.000Z</time>
</trkpt>
<trkpt lat="45.8391920" lon="9.2245050">
	<ele>421.00</ele>
	<time>2025-02-15T13:28:16.000Z</time>
</trkpt>
<trkpt lat="45.8391840" lon="9.2245270">
	<ele>420.80</ele>
	<time>2025-02-15T13:28:17.000Z</time>
</trkpt>
<trkpt lat="45.8391740" lon="9.2245410">
	<ele>420.80</ele>
	<time>2025-02-15T13:28:18.000Z</time>
</trkpt>
<trkpt lat="45.8391660" lon="9.2245530">
	<ele>420.80</ele>
	<time>2025-02-15T13:28:19.000Z</time>
</trkpt>
<trkpt lat="45.8391520" lon="9.2245610">
	<ele>420.80</ele>
	<time>2025-02-15T13:28:20.000Z</time>
</trkpt>
<trkpt lat="45.8391420" lon="9.2245710">
	<ele>420.80</ele>
	<time>2025-02-15T13:28:21.000Z</time>
</trkpt>
<trkpt lat="45.8391360" lon="9.2245900">
	<ele>420.80</ele>
	<time>2025-02-15T13:28:22.000Z</time>
</trkpt>
<trkpt lat="45.8391300" lon="9.2246080">
	<ele>420.80</ele>
	<time>2025-02-15T13:28:23.000Z</time>
</trkpt>
<trkpt lat="45.8391260" lon="9.2246180">
	<ele>420.80</ele>
	<time>2025-02-15T13:28:24.000Z</time>
</trkpt>
<trkpt lat="45.8391150" lon="9.2246220">
	<ele>420.60</ele>
	<time>2025-02-15T13:28:25.000Z</time>
</trkpt>
<trkpt lat="45.8391150" lon="9.2246280">
	<ele>420.40</ele>
	<time>2025-02-15T13:28:26.000Z</time>
</trkpt>
<trkpt lat="45.8391170" lon="9.2246330">
	<ele>420.40</ele>
	<time>2025-02-15T13:28:27.000Z</time>
</trkpt>
<trkpt lat="45.8391190" lon="9.2246350">
	<ele>420.20</ele>
	<time>2025-02-15T13:28:28.000Z</time>
</trkpt>
<trkpt lat="45.8391210" lon="9.2246490">
	<ele>420.00</ele>
	<time>2025-02-15T13:28:29.000Z</time>
</trkpt>
<trkpt lat="45.8391190" lon="9.2246630">
	<ele>419.80</ele>
	<time>2025-02-15T13:28:30.000Z</time>
</trkpt>
<trkpt lat="45.8391160" lon="9.2246830">
	<ele>419.60</ele>
	<time>2025-02-15T13:28:31.000Z</time>
</trkpt>
<trkpt lat="45.8391080" lon="9.2247010">
	<ele>419.60</ele>
	<time>2025-02-15T13:28:32.000Z</time>
</trkpt>
<trkpt lat="45.8390950" lon="9.2247170">
	<ele>419.40</ele>
	<time>2025-02-15T13:28:33.000Z</time>
</trkpt>
<trkpt lat="45.8390790" lon="9.2247320">
	<ele>419.20</ele>
	<time>2025-02-15T13:28:34.000Z</time>
</trkpt>
<trkpt lat="45.8390670" lon="9.2247480">
	<ele>419.20</ele>
	<time>2025-02-15T13:28:35.000Z</time>
</trkpt>
<trkpt lat="45.8390490" lon="9.2247560">
	<ele>419.00</ele>
	<time>2025-02-15T13:28:36.000Z</time>
</trkpt>
<trkpt lat="45.8390300" lon="9.2247700">
	<ele>419.00</ele>
	<time>2025-02-15T13:28:37.000Z</time>
</trkpt>
<trkpt lat="45.8390150" lon="9.2247850">
	<ele>419.00</ele>
	<time>2025-02-15T13:28:38.000Z</time>
</trkpt>
<trkpt lat="45.8389980" lon="9.2247970">
	<ele>419.00</ele>
	<time>2025-02-15T13:28:39.000Z</time>
</trkpt>
<trkpt lat="45.8389850" lon="9.2248070">
	<ele>419.00</ele>
	<time>2025-02-15T13:28:40.000Z</time>
</trkpt>
<trkpt lat="45.8389780" lon="9.2248150">
	<ele>419.00</ele>
	<time>2025-02-15T13:28:41.000Z</time>
</trkpt>
<trkpt lat="45.8389750" lon="9.2248250">
	<ele>419.00</ele>
	<time>2025-02-15T13:28:42.000Z</time>
</trkpt>
<trkpt lat="45.8389620" lon="9.2248240">
	<ele>419.00</ele>
	<time>2025-02-15T13:28:43.000Z</time>
</trkpt>
<trkpt lat="45.8389480" lon="9.2248170">
	<ele>419.00</ele>
	<time>2025-02-15T13:28:44.000Z</time>
</trkpt>
<trkpt lat="45.8389390" lon="9.2248090">
	<ele>418.80</ele>
	<time>2025-02-15T13:28:45.000Z</time>
</trkpt>
<trkpt lat="45.8389310" lon="9.2248140">
	<ele>418.80</ele>
	<time>2025-02-15T13:28:46.000Z</time>
</trkpt>
<trkpt lat="45.8389280" lon="9.2248170">
	<ele>418.80</ele>
	<time>2025-02-15T13:28:47.000Z</time>
</trkpt>
<trkpt lat="45.8389310" lon="9.2248300">
	<ele>418.80</ele>
	<time>2025-02-15T13:28:48.000Z</time>
</trkpt>
<trkpt lat="45.8389370" lon="9.2248450">
	<ele>418.80</ele>
	<time>2025-02-15T13:28:49.000Z</time>
</trkpt>
<trkpt lat="45.8389400" lon="9.2248540">
	<ele>418.80</ele>
	<time>2025-02-15T13:28:50.000Z</time>
</trkpt>
<trkpt lat="45.8389440" lon="9.2248660">
	<ele>418.80</ele>
	<time>2025-02-15T13:28:51.000Z</time>
</trkpt>
<trkpt lat="45.8389310" lon="9.2248820">
	<ele>418.60</ele>
	<time>2025-02-15T13:28:52.000Z</time>
</trkpt>
<trkpt lat="45.8389180" lon="9.2248920">
	<ele>418.60</ele>
	<time>2025-02-15T13:28:53.000Z</time>
</trkpt>
<trkpt lat="45.8389100" lon="9.2249070">
	<ele>418.40</ele>
	<time>2025-02-15T13:28:54.000Z</time>
</trkpt>
<trkpt lat="45.8389000" lon="9.2249220">
	<ele>418.20</ele>
	<time>2025-02-15T13:28:55.000Z</time>
</trkpt>
<trkpt lat="45.8388840" lon="9.2249470">
	<ele>418.00</ele>
	<time>2025-02-15T13:28:56.000Z</time>
</trkpt>
<trkpt lat="45.8388700" lon="9.2249770">
	<ele>417.80</ele>
	<time>2025-02-15T13:28:57.000Z</time>
</trkpt>
<trkpt lat="45.8388740" lon="9.2250060">
	<ele>417.80</ele>
	<time>2025-02-15T13:28:58.000Z</time>
</trkpt>
<trkpt lat="45.8388680" lon="9.2250130">
	<ele>417.60</ele>
	<time>2025-02-15T13:28:59.000Z</time>
</trkpt>
<trkpt lat="45.8388580" lon="9.2250290">
	<ele>417.60</ele>
	<time>2025-02-15T13:29:00.000Z</time>
</trkpt>
<trkpt lat="45.8388470" lon="9.2250440">
	<ele>417.60</ele>
	<time>2025-02-15T13:29:01.000Z</time>
</trkpt>
<trkpt lat="45.8388360" lon="9.2250650">
	<ele>417.40</ele>
	<time>2025-02-15T13:29:02.000Z</time>
</trkpt>
<trkpt lat="45.8388430" lon="9.2250770">
	<ele>417.40</ele>
	<time>2025-02-15T13:29:03.000Z</time>
</trkpt>
<trkpt lat="45.8388330" lon="9.2250910">
	<ele>417.40</ele>
	<time>2025-02-15T13:29:04.000Z</time>
</trkpt>
<trkpt lat="45.8388300" lon="9.2251110">
	<ele>417.40</ele>
	<time>2025-02-15T13:29:05.000Z</time>
</trkpt>
<trkpt lat="45.8388260" lon="9.2251260">
	<ele>417.40</ele>
	<time>2025-02-15T13:29:06.000Z</time>
</trkpt>
<trkpt lat="45.8388230" lon="9.2251340">
	<ele>417.40</ele>
	<time>2025-02-15T13:29:07.000Z</time>
</trkpt>
<trkpt lat="45.8388210" lon="9.2251340">
	<ele>417.40</ele>
	<time>2025-02-15T13:29:08.000Z</time>
</trkpt>
<trkpt lat="45.8388220" lon="9.2251440">
	<ele>417.40</ele>
	<time>2025-02-15T13:29:09.000Z</time>
</trkpt>
<trkpt lat="45.8388240" lon="9.2251620">
	<ele>417.40</ele>
	<time>2025-02-15T13:29:10.000Z</time>
</trkpt>
<trkpt lat="45.8388230" lon="9.2251830">
	<ele>417.20</ele>
	<time>2025-02-15T13:29:11.000Z</time>
</trkpt>
<trkpt lat="45.8388100" lon="9.2252120">
	<ele>417.20</ele>
	<time>2025-02-15T13:29:12.000Z</time>
</trkpt>
<trkpt lat="45.8388060" lon="9.2252360">
	<ele>417.20</ele>
	<time>2025-02-15T13:29:13.000Z</time>
</trkpt>
<trkpt lat="45.8388110" lon="9.2252630">
	<ele>417.20</ele>
	<time>2025-02-15T13:29:14.000Z</time>
</trkpt>
<trkpt lat="45.8388070" lon="9.2252770">
	<ele>417.20</ele>
	<time>2025-02-15T13:29:15.000Z</time>
</trkpt>
<trkpt lat="45.8387990" lon="9.2252950">
	<ele>417.20</ele>
	<time>2025-02-15T13:29:16.000Z</time>
</trkpt>
<trkpt lat="45.8387950" lon="9.2253210">
	<ele>417.20</ele>
	<time>2025-02-15T13:29:17.000Z</time>
</trkpt>
<trkpt lat="45.8387890" lon="9.2253450">
	<ele>417.20</ele>
	<time>2025-02-15T13:29:18.000Z</time>
</trkpt>
<trkpt lat="45.8387860" lon="9.2253700">
	<ele>417.20</ele>
	<time>2025-02-15T13:29:19.000Z</time>
</trkpt>
<trkpt lat="45.8387800" lon="9.2253940">
	<ele>417.20</ele>
	<time>2025-02-15T13:29:20.000Z</time>
</trkpt>
<trkpt lat="45.8387850" lon="9.2254190">
	<ele>417.20</ele>
	<time>2025-02-15T13:29:21.000Z</time>
</trkpt>
<trkpt lat="45.8387940" lon="9.2254430">
	<ele>417.20</ele>
	<time>2025-02-15T13:29:22.000Z</time>
</trkpt>
<trkpt lat="45.8388050" lon="9.2254750">
	<ele>417.20</ele>
	<time>2025-02-15T13:29:23.000Z</time>
</trkpt>
<trkpt lat="45.8388080" lon="9.2254900">
	<ele>417.20</ele>
	<time>2025-02-15T13:29:24.000Z</time>
</trkpt>
<trkpt lat="45.8388070" lon="9.2255070">
	<ele>417.20</ele>
	<time>2025-02-15T13:29:25.000Z</time>
</trkpt>
<trkpt lat="45.8388090" lon="9.2255180">
	<ele>417.20</ele>
	<time>2025-02-15T13:29:26.000Z</time>
</trkpt>
<trkpt lat="45.8388230" lon="9.2255240">
	<ele>417.20</ele>
	<time>2025-02-15T13:29:27.000Z</time>
</trkpt>
<trkpt lat="45.8388310" lon="9.2255400">
	<ele>417.20</ele>
	<time>2025-02-15T13:29:28.000Z</time>
</trkpt>
<trkpt lat="45.8388390" lon="9.2255600">
	<ele>417.20</ele>
	<time>2025-02-15T13:29:29.000Z</time>
</trkpt>
<trkpt lat="45.8388440" lon="9.2255800">
	<ele>417.20</ele>
	<time>2025-02-15T13:29:30.000Z</time>
</trkpt>
<trkpt lat="45.8388570" lon="9.2255950">
	<ele>417.20</ele>
	<time>2025-02-15T13:29:31.000Z</time>
</trkpt>
<trkpt lat="45.8388670" lon="9.2256080">
	<ele>417.20</ele>
	<time>2025-02-15T13:29:32.000Z</time>
</trkpt>
<trkpt lat="45.8388770" lon="9.2256200">
	<ele>417.20</ele>
	<time>2025-02-15T13:29:33.000Z</time>
</trkpt>
<trkpt lat="45.8388860" lon="9.2256250">
	<ele>417.20</ele>
	<time>2025-02-15T13:29:34.000Z</time>
</trkpt>
<trkpt lat="45.8388860" lon="9.2256320">
	<ele>417.40</ele>
	<time>2025-02-15T13:29:35.000Z</time>
</trkpt>
<trkpt lat="45.8388860" lon="9.2256530">
	<ele>417.40</ele>
	<time>2025-02-15T13:29:36.000Z</time>
</trkpt>
<trkpt lat="45.8388820" lon="9.2256860">
	<ele>417.40</ele>
	<time>2025-02-15T13:29:37.000Z</time>
</trkpt>
<trkpt lat="45.8388530" lon="9.2257180">
	<ele>417.40</ele>
	<time>2025-02-15T13:29:38.000Z</time>
</trkpt>
<trkpt lat="45.8388550" lon="9.2257550">
	<ele>417.60</ele>
	<time>2025-02-15T13:29:39.000Z</time>
</trkpt>
<trkpt lat="45.8388460" lon="9.2257960">
	<ele>417.60</ele>
	<time>2025-02-15T13:29:40.000Z</time>
</trkpt>
<trkpt lat="45.8388470" lon="9.2258320">
	<ele>417.60</ele>
	<time>2025-02-15T13:29:41.000Z</time>
</trkpt>
<trkpt lat="45.8388420" lon="9.2258580">
	<ele>417.80</ele>
	<time>2025-02-15T13:29:42.000Z</time>
</trkpt>
<trkpt lat="45.8388250" lon="9.2258730">
	<ele>417.80</ele>
	<time>2025-02-15T13:29:43.000Z</time>
</trkpt>
<trkpt lat="45.8388210" lon="9.2258940">
	<ele>417.80</ele>
	<time>2025-02-15T13:29:44.000Z</time>
</trkpt>
<trkpt lat="45.8388180" lon="9.2259130">
	<ele>417.80</ele>
	<time>2025-02-15T13:29:45.000Z</time>
</trkpt>
<trkpt lat="45.8387910" lon="9.2259190">
	<ele>417.80</ele>
	<time>2025-02-15T13:29:46.000Z</time>
</trkpt>
<trkpt lat="45.8387700" lon="9.2259290">
	<ele>417.80</ele>
	<time>2025-02-15T13:29:47.000Z</time>
</trkpt>
<trkpt lat="45.8387720" lon="9.2259450">
	<ele>418.00</ele>
	<time>2025-02-15T13:29:48.000Z</time>
</trkpt>
<trkpt lat="45.8387770" lon="9.2259690">
	<ele>418.00</ele>
	<time>2025-02-15T13:29:49.000Z</time>
</trkpt>
<trkpt lat="45.8387650" lon="9.2259880">
	<ele>418.00</ele>
	<time>2025-02-15T13:29:50.000Z</time>
</trkpt>
<trkpt lat="45.8387500" lon="9.2260000">
	<ele>418.00</ele>
	<time>2025-02-15T13:29:51.000Z</time>
</trkpt>
<trkpt lat="45.8387500" lon="9.2260210">
	<ele>418.00</ele>
	<time>2025-02-15T13:29:52.000Z</time>
</trkpt>
<trkpt lat="45.8387430" lon="9.2260370">
	<ele>418.20</ele>
	<time>2025-02-15T13:29:53.000Z</time>
</trkpt>
<trkpt lat="45.8387380" lon="9.2260560">
	<ele>418.20</ele>
	<time>2025-02-15T13:29:54.000Z</time>
</trkpt>
<trkpt lat="45.8387260" lon="9.2260700">
	<ele>418.20</ele>
	<time>2025-02-15T13:29:55.000Z</time>
</trkpt>
<trkpt lat="45.8387100" lon="9.2260800">
	<ele>418.20</ele>
	<time>2025-02-15T13:29:56.000Z</time>
</trkpt>
<trkpt lat="45.8387000" lon="9.2260920">
	<ele>418.20</ele>
	<time>2025-02-15T13:29:57.000Z</time>
</trkpt>
<trkpt lat="45.8386940" lon="9.2261090">
	<ele>418.20</ele>
	<time>2025-02-15T13:29:58.000Z</time>
</trkpt>
<trkpt lat="45.8386860" lon="9.2261230">
	<ele>418.20</ele>
	<time>2025-02-15T13:29:59.000Z</time>
</trkpt>
<trkpt lat="45.8386770" lon="9.2261370">
	<ele>418.20</ele>
	<time>2025-02-15T13:30:00.000Z</time>
</trkpt>
<trkpt lat="45.8386620" lon="9.2261510">
	<ele>418.20</ele>
	<time>2025-02-15T13:30:01.000Z</time>
</trkpt>
<trkpt lat="45.8386470" lon="9.2261630">
	<ele>418.20</ele>
	<time>2025-02-15T13:30:02.000Z</time>
</trkpt>
<trkpt lat="45.8386350" lon="9.2261750">
	<ele>418.20</ele>
	<time>2025-02-15T13:30:03.000Z</time>
</trkpt>
<trkpt lat="45.8386260" lon="9.2261890">
	<ele>418.20</ele>
	<time>2025-02-15T13:30:04.000Z</time>
</trkpt>
<trkpt lat="45.8386200" lon="9.2262000">
	<ele>418.20</ele>
	<time>2025-02-15T13:30:05.000Z</time>
</trkpt>
<trkpt lat="45.8386180" lon="9.2262120">
	<ele>418.20</ele>
	<time>2025-02-15T13:30:06.000Z</time>
</trkpt>
<trkpt lat="45.8386160" lon="9.2262270">
	<ele>418.20</ele>
	<time>2025-02-15T13:30:07.000Z</time>
</trkpt>
<trkpt lat="45.8386120" lon="9.2262370">
	<ele>418.20</ele>
	<time>2025-02-15T13:30:08.000Z</time>
</trkpt>
<trkpt lat="45.8386030" lon="9.2262440">
	<ele>418.20</ele>
	<time>2025-02-15T13:30:09.000Z</time>
</trkpt>
<trkpt lat="45.8385940" lon="9.2262480">
	<ele>418.00</ele>
	<time>2025-02-15T13:30:10.000Z</time>
</trkpt>
<trkpt lat="45.8385820" lon="9.2262470">
	<ele>418.00</ele>
	<time>2025-02-15T13:30:11.000Z</time>
</trkpt>
<trkpt lat="45.8385710" lon="9.2262530">
	<ele>418.00</ele>
	<time>2025-02-15T13:30:12.000Z</time>
</trkpt>
<trkpt lat="45.8385630" lon="9.2262610">
	<ele>417.80</ele>
	<time>2025-02-15T13:30:13.000Z</time>
</trkpt>
<trkpt lat="45.8385540" lon="9.2262630">
	<ele>417.80</ele>
	<time>2025-02-15T13:30:14.000Z</time>
</trkpt>
<trkpt lat="45.8385480" lon="9.2262630">
	<ele>417.60</ele>
	<time>2025-02-15T13:30:15.000Z</time>
</trkpt>
<trkpt lat="45.8385360" lon="9.2262610">
	<ele>417.40</ele>
	<time>2025-02-15T13:30:16.000Z</time>
</trkpt>
<trkpt lat="45.8385230" lon="9.2262680">
	<ele>417.20</ele>
	<time>2025-02-15T13:30:17.000Z</time>
</trkpt>
<trkpt lat="45.8385140" lon="9.2262770">
	<ele>417.20</ele>
	<time>2025-02-15T13:30:18.000Z</time>
</trkpt>
<trkpt lat="45.8385160" lon="9.2262800">
	<ele>417.00</ele>
	<time>2025-02-15T13:30:19.000Z</time>
</trkpt>
<trkpt lat="45.8385110" lon="9.2262860">
	<ele>416.80</ele>
	<time>2025-02-15T13:30:20.000Z</time>
</trkpt>
<trkpt lat="45.8384980" lon="9.2262840">
	<ele>416.60</ele>
	<time>2025-02-15T13:30:21.000Z</time>
</trkpt>
<trkpt lat="45.8384920" lon="9.2262780">
	<ele>416.40</ele>
	<time>2025-02-15T13:30:22.000Z</time>
</trkpt>
<trkpt lat="45.8385030" lon="9.2262770">
	<ele>416.00</ele>
	<time>2025-02-15T13:30:23.000Z</time>
</trkpt>
<trkpt lat="45.8385090" lon="9.2262810">
	<ele>415.80</ele>
	<time>2025-02-15T13:30:24.000Z</time>
</trkpt>
<trkpt lat="45.8385150" lon="9.2262860">
	<ele>415.80</ele>
	<time>2025-02-15T13:30:25.000Z</time>
</trkpt>
<trkpt lat="45.8385150" lon="9.2262950">
	<ele>415.80</ele>
	<time>2025-02-15T13:30:26.000Z</time>
</trkpt>
<trkpt lat="45.8385200" lon="9.2262960">
	<ele>415.80</ele>
	<time>2025-02-15T13:30:27.000Z</time>
</trkpt>
<trkpt lat="45.8385230" lon="9.2262930">
	<ele>415.60</ele>
	<time>2025-02-15T13:30:28.000Z</time>
</trkpt>
<trkpt lat="45.8385180" lon="9.2262920">
	<ele>415.40</ele>
	<time>2025-02-15T13:30:29.000Z</time>
</trkpt>
<trkpt lat="45.8385080" lon="9.2263020">
	<ele>415.20</ele>
	<time>2025-02-15T13:30:30.000Z</time>
</trkpt>
<trkpt lat="45.8384950" lon="9.2263120">
	<ele>415.00</ele>
	<time>2025-02-15T13:30:31.000Z</time>
</trkpt>
<trkpt lat="45.8384730" lon="9.2262880">
	<ele>415.00</ele>
	<time>2025-02-15T13:30:32.000Z</time>
</trkpt>
<trkpt lat="45.8384550" lon="9.2262920">
	<ele>414.80</ele>
	<time>2025-02-15T13:30:33.000Z</time>
</trkpt>
<trkpt lat="45.8384390" lon="9.2262970">
	<ele>414.80</ele>
	<time>2025-02-15T13:30:34.000Z</time>
</trkpt>
<trkpt lat="45.8384180" lon="9.2262910">
	<ele>414.60</ele>
	<time>2025-02-15T13:30:35.000Z</time>
</trkpt>
<trkpt lat="45.8384000" lon="9.2262920">
	<ele>414.40</ele>
	<time>2025-02-15T13:30:36.000Z</time>
</trkpt>
<trkpt lat="45.8383960" lon="9.2263120">
	<ele>414.40</ele>
	<time>2025-02-15T13:30:37.000Z</time>
</trkpt>
<trkpt lat="45.8383830" lon="9.2263400">
	<ele>414.20</ele>
	<time>2025-02-15T13:30:38.000Z</time>
</trkpt>
<trkpt lat="45.8383720" lon="9.2263660">
	<ele>414.00</ele>
	<time>2025-02-15T13:30:39.000Z</time>
</trkpt>
<trkpt lat="45.8383630" lon="9.2263870">
	<ele>414.00</ele>
	<time>2025-02-15T13:30:40.000Z</time>
</trkpt>
<trkpt lat="45.8383480" lon="9.2263990">
	<ele>413.80</ele>
	<time>2025-02-15T13:30:41.000Z</time>
</trkpt>
<trkpt lat="45.8383330" lon="9.2264010">
	<ele>413.60</ele>
	<time>2025-02-15T13:30:42.000Z</time>
</trkpt>
<trkpt lat="45.8383180" lon="9.2264050">
	<ele>413.40</ele>
	<time>2025-02-15T13:30:43.000Z</time>
</trkpt>
<trkpt lat="45.8383000" lon="9.2264060">
	<ele>413.40</ele>
	<time>2025-02-15T13:30:44.000Z</time>
</trkpt>
<trkpt lat="45.8382800" lon="9.2264170">
	<ele>413.20</ele>
	<time>2025-02-15T13:30:45.000Z</time>
</trkpt>
<trkpt lat="45.8382580" lon="9.2264300">
	<ele>413.00</ele>
	<time>2025-02-15T13:30:46.000Z</time>
</trkpt>
<trkpt lat="45.8382420" lon="9.2264440">
	<ele>413.00</ele>
	<time>2025-02-15T13:30:47.000Z</time>
</trkpt>
<trkpt lat="45.8382250" lon="9.2264580">
	<ele>412.80</ele>
	<time>2025-02-15T13:30:48.000Z</time>
</trkpt>
<trkpt lat="45.8382100" lon="9.2264850">
	<ele>412.60</ele>
	<time>2025-02-15T13:30:49.000Z</time>
</trkpt>
<trkpt lat="45.8381990" lon="9.2265060">
	<ele>412.60</ele>
	<time>2025-02-15T13:30:50.000Z</time>
</trkpt>
<trkpt lat="45.8381860" lon="9.2265100">
	<ele>412.40</ele>
	<time>2025-02-15T13:30:51.000Z</time>
</trkpt>
<trkpt lat="45.8381750" lon="9.2265180">
	<ele>412.20</ele>
	<time>2025-02-15T13:30:52.000Z</time>
</trkpt>
<trkpt lat="45.8381630" lon="9.2265270">
	<ele>412.00</ele>
	<time>2025-02-15T13:30:53.000Z</time>
</trkpt>
<trkpt lat="45.8381520" lon="9.2265290">
	<ele>411.80</ele>
	<time>2025-02-15T13:30:54.000Z</time>
</trkpt>
<trkpt lat="45.8381430" lon="9.2265360">
	<ele>411.80</ele>
	<time>2025-02-15T13:30:55.000Z</time>
</trkpt>
<trkpt lat="45.8381310" lon="9.2265450">
	<ele>411.60</ele>
	<time>2025-02-15T13:30:56.000Z</time>
</trkpt>
<trkpt lat="45.8381210" lon="9.2265580">
	<ele>411.60</ele>
	<time>2025-02-15T13:30:57.000Z</time>
</trkpt>
<trkpt lat="45.8381140" lon="9.2265770">
	<ele>411.40</ele>
	<time>2025-02-15T13:30:58.000Z</time>
</trkpt>
<trkpt lat="45.8381100" lon="9.2265980">
	<ele>411.40</ele>
	<time>2025-02-15T13:30:59.000Z</time>
</trkpt>
<trkpt lat="45.8381050" lon="9.2266200">
	<ele>411.00</ele>
	<time>2025-02-15T13:31:00.000Z</time>
</trkpt>
<trkpt lat="45.8380980" lon="9.2266360">
	<ele>410.80</ele>
	<time>2025-02-15T13:31:01.000Z</time>
</trkpt>
<trkpt lat="45.8380910" lon="9.2266540">
	<ele>410.80</ele>
	<time>2025-02-15T13:31:02.000Z</time>
</trkpt>
<trkpt lat="45.8380820" lon="9.2266700">
	<ele>410.80</ele>
	<time>2025-02-15T13:31:03.000Z</time>
</trkpt>
<trkpt lat="45.8380710" lon="9.2266820">
	<ele>410.60</ele>
	<time>2025-02-15T13:31:04.000Z</time>
</trkpt>
<trkpt lat="45.8380610" lon="9.2266930">
	<ele>410.60</ele>
	<time>2025-02-15T13:31:05.000Z</time>
</trkpt>
<trkpt lat="45.8380480" lon="9.2267110">
	<ele>410.40</ele>
	<time>2025-02-15T13:31:06.000Z</time>
</trkpt>
<trkpt lat="45.8380350" lon="9.2267250">
	<ele>410.20</ele>
	<time>2025-02-15T13:31:07.000Z</time>
</trkpt>
<trkpt lat="45.8380210" lon="9.2267410">
	<ele>410.20</ele>
	<time>2025-02-15T13:31:08.000Z</time>
</trkpt>
<trkpt lat="45.8380100" lon="9.2267590">
	<ele>409.80</ele>
	<time>2025-02-15T13:31:09.000Z</time>
</trkpt>
<trkpt lat="45.8380070" lon="9.2267710">
	<ele>409.80</ele>
	<time>2025-02-15T13:31:10.000Z</time>
</trkpt>
<trkpt lat="45.8380090" lon="9.2267890">
	<ele>409.60</ele>
	<time>2025-02-15T13:31:11.000Z</time>
</trkpt>
<trkpt lat="45.8380130" lon="9.2268130">
	<ele>409.40</ele>
	<time>2025-02-15T13:31:12.000Z</time>
</trkpt>
<trkpt lat="45.8380110" lon="9.2268340">
	<ele>409.20</ele>
	<time>2025-02-15T13:31:13.000Z</time>
</trkpt>
<trkpt lat="45.8379990" lon="9.2268500">
	<ele>409.00</ele>
	<time>2025-02-15T13:31:14.000Z</time>
</trkpt>
<trkpt lat="45.8379870" lon="9.2268660">
	<ele>409.00</ele>
	<time>2025-02-15T13:31:15.000Z</time>
</trkpt>
<trkpt lat="45.8379750" lon="9.2268820">
	<ele>408.80</ele>
	<time>2025-02-15T13:31:16.000Z</time>
</trkpt>
<trkpt lat="45.8379640" lon="9.2269000">
	<ele>408.60</ele>
	<time>2025-02-15T13:31:17.000Z</time>
</trkpt>
<trkpt lat="45.8379560" lon="9.2269150">
	<ele>408.40</ele>
	<time>2025-02-15T13:31:18.000Z</time>
</trkpt>
<trkpt lat="45.8379450" lon="9.2269280">
	<ele>408.20</ele>
	<time>2025-02-15T13:31:19.000Z</time>
</trkpt>
<trkpt lat="45.8379400" lon="9.2269400">
	<ele>408.20</ele>
	<time>2025-02-15T13:31:20.000Z</time>
</trkpt>
<trkpt lat="45.8379370" lon="9.2269560">
	<ele>408.00</ele>
	<time>2025-02-15T13:31:21.000Z</time>
</trkpt>
<trkpt lat="45.8379360" lon="9.2269710">
	<ele>407.80</ele>
	<time>2025-02-15T13:31:22.000Z</time>
</trkpt>
<trkpt lat="45.8379340" lon="9.2269870">
	<ele>407.80</ele>
	<time>2025-02-15T13:31:23.000Z</time>
</trkpt>
<trkpt lat="45.8379250" lon="9.2270020">
	<ele>407.60</ele>
	<time>2025-02-15T13:31:24.000Z</time>
</trkpt>
<trkpt lat="45.8379130" lon="9.2270140">
	<ele>407.40</ele>
	<time>2025-02-15T13:31:25.000Z</time>
</trkpt>
<trkpt lat="45.8379020" lon="9.2270290">
	<ele>407.20</ele>
	<time>2025-02-15T13:31:26.000Z</time>
</trkpt>
<trkpt lat="45.8378990" lon="9.2270450">
	<ele>407.20</ele>
	<time>2025-02-15T13:31:27.000Z</time>
</trkpt>
<trkpt lat="45.8378940" lon="9.2270620">
	<ele>407.20</ele>
	<time>2025-02-15T13:31:28.000Z</time>
</trkpt>
<trkpt lat="45.8378840" lon="9.2270750">
	<ele>407.00</ele>
	<time>2025-02-15T13:31:29.000Z</time>
</trkpt>
<trkpt lat="45.8378730" lon="9.2270830">
	<ele>407.00</ele>
	<time>2025-02-15T13:31:30.000Z</time>
</trkpt>
<trkpt lat="45.8378650" lon="9.2270920">
	<ele>406.80</ele>
	<time>2025-02-15T13:31:31.000Z</time>
</trkpt>
<trkpt lat="45.8378600" lon="9.2271040">
	<ele>406.60</ele>
	<time>2025-02-15T13:31:32.000Z</time>
</trkpt>
<trkpt lat="45.8378560" lon="9.2271170">
	<ele>406.60</ele>
	<time>2025-02-15T13:31:33.000Z</time>
</trkpt>
<trkpt lat="45.8378510" lon="9.2271260">
	<ele>406.40</ele>
	<time>2025-02-15T13:31:34.000Z</time>
</trkpt>
<trkpt lat="45.8378510" lon="9.2271270">
	<ele>406.20</ele>
	<time>2025-02-15T13:31:35.000Z</time>
</trkpt>
<trkpt lat="45.8378400" lon="9.2271300">
	<ele>406.20</ele>
	<time>2025-02-15T13:31:36.000Z</time>
</trkpt>
<trkpt lat="45.8378250" lon="9.2271400">
	<ele>406.00</ele>
	<time>2025-02-15T13:31:37.000Z</time>
</trkpt>
<trkpt lat="45.8378140" lon="9.2271520">
	<ele>406.00</ele>
	<time>2025-02-15T13:31:38.000Z</time>
</trkpt>
<trkpt lat="45.8378050" lon="9.2271650">
	<ele>405.80</ele>
	<time>2025-02-15T13:31:39.000Z</time>
</trkpt>
<trkpt lat="45.8377970" lon="9.2271780">
	<ele>405.80</ele>
	<time>2025-02-15T13:31:40.000Z</time>
</trkpt>
<trkpt lat="45.8377810" lon="9.2271860">
	<ele>405.60</ele>
	<time>2025-02-15T13:31:41.000Z</time>
</trkpt>
<trkpt lat="45.8377690" lon="9.2271910">
	<ele>405.40</ele>
	<time>2025-02-15T13:31:42.000Z</time>
</trkpt>
<trkpt lat="45.8377590" lon="9.2271960">
	<ele>405.20</ele>
	<time>2025-02-15T13:31:43.000Z</time>
</trkpt>
<trkpt lat="45.8377470" lon="9.2272100">
	<ele>405.20</ele>
	<time>2025-02-15T13:31:44.000Z</time>
</trkpt>
<trkpt lat="45.8377390" lon="9.2272250">
	<ele>405.00</ele>
	<time>2025-02-15T13:31:45.000Z</time>
</trkpt>
<trkpt lat="45.8377240" lon="9.2272330">
	<ele>405.00</ele>
	<time>2025-02-15T13:31:46.000Z</time>
</trkpt>
<trkpt lat="45.8377110" lon="9.2272420">
	<ele>405.00</ele>
	<time>2025-02-15T13:31:47.000Z</time>
</trkpt>
<trkpt lat="45.8376990" lon="9.2272420">
	<ele>404.80</ele>
	<time>2025-02-15T13:31:48.000Z</time>
</trkpt>
<trkpt lat="45.8376820" lon="9.2272370">
	<ele>404.80</ele>
	<time>2025-02-15T13:31:49.000Z</time>
</trkpt>
<trkpt lat="45.8376610" lon="9.2272360">
	<ele>404.80</ele>
	<time>2025-02-15T13:31:50.000Z</time>
</trkpt>
<trkpt lat="45.8376420" lon="9.2272370">
	<ele>404.60</ele>
	<time>2025-02-15T13:31:51.000Z</time>
</trkpt>
<trkpt lat="45.8376380" lon="9.2272410">
	<ele>404.60</ele>
	<time>2025-02-15T13:31:52.000Z</time>
</trkpt>
<trkpt lat="45.8376340" lon="9.2272540">
	<ele>404.40</ele>
	<time>2025-02-15T13:31:53.000Z</time>
</trkpt>
<trkpt lat="45.8376330" lon="9.2272640">
	<ele>404.40</ele>
	<time>2025-02-15T13:31:54.000Z</time>
</trkpt>
<trkpt lat="45.8376260" lon="9.2272700">
	<ele>404.20</ele>
	<time>2025-02-15T13:31:55.000Z</time>
</trkpt>
<trkpt lat="45.8376140" lon="9.2272610">
	<ele>404.20</ele>
	<time>2025-02-15T13:31:56.000Z</time>
</trkpt>
<trkpt lat="45.8375900" lon="9.2272550">
	<ele>404.20</ele>
	<time>2025-02-15T13:31:57.000Z</time>
</trkpt>
<trkpt lat="45.8375730" lon="9.2272550">
	<ele>404.00</ele>
	<time>2025-02-15T13:31:58.000Z</time>
</trkpt>
<trkpt lat="45.8375650" lon="9.2272700">
	<ele>404.00</ele>
	<time>2025-02-15T13:31:59.000Z</time>
</trkpt>
<trkpt lat="45.8375540" lon="9.2272760">
	<ele>403.80</ele>
	<time>2025-02-15T13:32:00.000Z</time>
</trkpt>
<trkpt lat="45.8375490" lon="9.2272760">
	<ele>403.60</ele>
	<time>2025-02-15T13:32:01.000Z</time>
</trkpt>
<trkpt lat="45.8375420" lon="9.2272790">
	<ele>403.60</ele>
	<time>2025-02-15T13:32:02.000Z</time>
</trkpt>
<trkpt lat="45.8375290" lon="9.2272850">
	<ele>403.40</ele>
	<time>2025-02-15T13:32:03.000Z</time>
</trkpt>
<trkpt lat="45.8375140" lon="9.2272880">
	<ele>403.40</ele>
	<time>2025-02-15T13:32:04.000Z</time>
</trkpt>
<trkpt lat="45.8375000" lon="9.2272900">
	<ele>403.20</ele>
	<time>2025-02-15T13:32:05.000Z</time>
</trkpt>
<trkpt lat="45.8374860" lon="9.2272890">
	<ele>403.00</ele>
	<time>2025-02-15T13:32:06.000Z</time>
</trkpt>
<trkpt lat="45.8374700" lon="9.2272840">
	<ele>403.00</ele>
	<time>2025-02-15T13:32:07.000Z</time>
</trkpt>
<trkpt lat="45.8374550" lon="9.2272850">
	<ele>402.80</ele>
	<time>2025-02-15T13:32:08.000Z</time>
</trkpt>
<trkpt lat="45.8374370" lon="9.2272820">
	<ele>402.80</ele>
	<time>2025-02-15T13:32:09.000Z</time>
</trkpt>
<trkpt lat="45.8374250" lon="9.2272810">
	<ele>402.60</ele>
	<time>2025-02-15T13:32:10.000Z</time>
</trkpt>
<trkpt lat="45.8374070" lon="9.2272790">
	<ele>402.60</ele>
	<time>2025-02-15T13:32:11.000Z</time>
</trkpt>
<trkpt lat="45.8373910" lon="9.2272770">
	<ele>402.40</ele>
	<time>2025-02-15T13:32:12.000Z</time>
</trkpt>
<trkpt lat="45.8373760" lon="9.2272790">
	<ele>402.20</ele>
	<time>2025-02-15T13:32:13.000Z</time>
</trkpt>
<trkpt lat="45.8373640" lon="9.2272810">
	<ele>402.00</ele>
	<time>2025-02-15T13:32:14.000Z</time>
</trkpt>
<trkpt lat="45.8373500" lon="9.2272820">
	<ele>402.00</ele>
	<time>2025-02-15T13:32:15.000Z</time>
</trkpt>
<trkpt lat="45.8373380" lon="9.2272800">
	<ele>402.00</ele>
	<time>2025-02-15T13:32:16.000Z</time>
</trkpt>
<trkpt lat="45.8373240" lon="9.2272740">
	<ele>401.80</ele>
	<time>2025-02-15T13:32:17.000Z</time>
</trkpt>
<trkpt lat="45.8373100" lon="9.2272720">
	<ele>401.60</ele>
	<time>2025-02-15T13:32:18.000Z</time>
</trkpt>
<trkpt lat="45.8373010" lon="9.2272660">
	<ele>401.60</ele>
	<time>2025-02-15T13:32:19.000Z</time>
</trkpt>
<trkpt lat="45.8372980" lon="9.2272600">
	<ele>401.40</ele>
	<time>2025-02-15T13:32:20.000Z</time>
</trkpt>
<trkpt lat="45.8372930" lon="9.2272520">
	<ele>401.40</ele>
	<time>2025-02-15T13:32:21.000Z</time>
</trkpt>
<trkpt lat="45.8372850" lon="9.2272500">
	<ele>401.20</ele>
	<time>2025-02-15T13:32:22.000Z</time>
</trkpt>
<trkpt lat="45.8372750" lon="9.2272460">
	<ele>401.20</ele>
	<time>2025-02-15T13:32:23.000Z</time>
</trkpt>
<trkpt lat="45.8372640" lon="9.2272290">
	<ele>401.20</ele>
	<time>2025-02-15T13:32:24.000Z</time>
</trkpt>
<trkpt lat="45.8372420" lon="9.2272190">
	<ele>401.00</ele>
	<time>2025-02-15T13:32:25.000Z</time>
</trkpt>
<trkpt lat="45.8372160" lon="9.2272110">
	<ele>401.00</ele>
	<time>2025-02-15T13:32:26.000Z</time>
</trkpt>
<trkpt lat="45.8372000" lon="9.2272020">
	<ele>400.80</ele>
	<time>2025-02-15T13:32:27.000Z</time>
</trkpt>
<trkpt lat="45.8371920" lon="9.2271960">
	<ele>400.80</ele>
	<time>2025-02-15T13:32:28.000Z</time>
</trkpt>
<trkpt lat="45.8371870" lon="9.2271870">
	<ele>400.60</ele>
	<time>2025-02-15T13:32:29.000Z</time>
</trkpt>
<trkpt lat="45.8371830" lon="9.2271770">
	<ele>400.60</ele>
	<time>2025-02-15T13:32:30.000Z</time>
</trkpt>
<trkpt lat="45.8371840" lon="9.2271680">
	<ele>400.40</ele>
	<time>2025-02-15T13:32:31.000Z</time>
</trkpt>
<trkpt lat="45.8371950" lon="9.2271600">
	<ele>400.40</ele>
	<time>2025-02-15T13:32:32.000Z</time>
</trkpt>
<trkpt lat="45.8372070" lon="9.2271530">
	<ele>400.20</ele>
	<time>2025-02-15T13:32:33.000Z</time>
</trkpt>
<trkpt lat="45.8372300" lon="9.2271540">
	<ele>400.20</ele>
	<time>2025-02-15T13:32:34.000Z</time>
</trkpt>
<trkpt lat="45.8372470" lon="9.2271530">
	<ele>400.20</ele>
	<time>2025-02-15T13:32:35.000Z</time>
</trkpt>
<trkpt lat="45.8372590" lon="9.2271470">
	<ele>400.00</ele>
	<time>2025-02-15T13:32:36.000Z</time>
</trkpt>
<trkpt lat="45.8372640" lon="9.2271370">
	<ele>400.00</ele>
	<time>2025-02-15T13:32:37.000Z</time>
</trkpt>
<trkpt lat="45.8372720" lon="9.2271250">
	<ele>399.80</ele>
	<time>2025-02-15T13:32:38.000Z</time>
</trkpt>
<trkpt lat="45.8372800" lon="9.2271140">
	<ele>399.60</ele>
	<time>2025-02-15T13:32:39.000Z</time>
</trkpt>
<trkpt lat="45.8372880" lon="9.2271010">
	<ele>399.60</ele>
	<time>2025-02-15T13:32:40.000Z</time>
</trkpt>
<trkpt lat="45.8372940" lon="9.2270890">
	<ele>399.60</ele>
	<time>2025-02-15T13:32:41.000Z</time>
</trkpt>
<trkpt lat="45.8372960" lon="9.2270800">
	<ele>399.60</ele>
	<time>2025-02-15T13:32:42.000Z</time>
</trkpt>
</trkseg>
</trk>
</gpx>
